<?xml version='1.0' encoding='UTF-8'?><gpx version="1.1" creator="JPX - https://github.com/jenetics/jpx" xmlns="http://www.topografix.com/GPX/1/1"><trk><trkseg><trkpt lat="44.73112" lon="10.3742144"><ele>91.0</ele><time>2026-04-04T07:19:41.698Z</time></trkpt><trkpt lat="44.7310945" lon="10.3743176"><ele>91.0</ele><time>2026-04-04T07:19:43.697Z</time></trkpt><trkpt lat="44.7310727" lon="10.3744165"><ele>91.0</ele><time>2026-04-04T07:19:45.694Z</time></trkpt><trkpt lat="44.7310307" lon="10.3745259"><ele>91.0</ele><time>2026-04-04T07:19:48.689Z</time></trkpt><trkpt lat="44.7310955" lon="10.3744492"><ele>91.0</ele><time>2026-04-04T07:19:53.71Z</time></trkpt><trkpt lat="44.7311173" lon="10.374351"><ele>91.0</ele><time>2026-04-04T07:19:57.699Z</time></trkpt><trkpt lat="44.7311748" lon="10.3742841"><ele>91.0</ele><time>2026-04-04T07:22:12.698Z</time></trkpt><trkpt lat="44.7312176" lon="10.374377"><ele>91.0</ele><time>2026-04-04T07:22:31.712Z</time></trkpt><trkpt lat="44.7311933" lon="10.3744671"><ele>91.0</ele><time>2026-04-04T07:22:32.709Z</time></trkpt><trkpt lat="44.7311603" lon="10.374582"><ele>91.0</ele><time>2026-04-04T07:22:33.707Z</time></trkpt><trkpt lat="44.731129" lon="10.3747135"><ele>91.0</ele><time>2026-04-04T07:22:34.708Z</time></trkpt><trkpt lat="44.7310937" lon="10.3748541"><ele>91.0</ele><time>2026-04-04T07:22:35.709Z</time></trkpt><trkpt lat="44.7310584" lon="10.3749942"><ele>91.4</ele><time>2026-04-04T07:22:36.709Z</time></trkpt><trkpt lat="44.73102" lon="10.3751335"><ele>91.8</ele><time>2026-04-04T07:22:37.71Z</time></trkpt><trkpt lat="44.7309811" lon="10.3752783"><ele>92.2</ele><time>2026-04-04T07:22:38.707Z</time></trkpt><trkpt lat="44.7309451" lon="10.375427"><ele>92.60000000000001</ele><time>2026-04-04T07:22:39.708Z</time></trkpt><trkpt lat="44.7309057" lon="10.3755772"><ele>93.0</ele><time>2026-04-04T07:22:40.709Z</time></trkpt><trkpt lat="44.7308636" lon="10.3757222"><ele>93.0</ele><time>2026-04-04T07:22:41.71Z</time></trkpt><trkpt lat="44.7308185" lon="10.3758647"><ele>93.0</ele><time>2026-04-04T07:22:42.71Z</time></trkpt><trkpt lat="44.7307766" lon="10.3760068"><ele>93.0</ele><time>2026-04-04T07:22:43.714Z</time></trkpt><trkpt lat="44.7307339" lon="10.3761582"><ele>93.0</ele><time>2026-04-04T07:22:44.71Z</time></trkpt><trkpt lat="44.7306888" lon="10.3763352"><ele>93.0</ele><time>2026-04-04T07:22:45.711Z</time></trkpt><trkpt lat="44.730642" lon="10.3765312"><ele>93.0</ele><time>2026-04-04T07:22:46.709Z</time></trkpt><trkpt lat="44.7305896" lon="10.3767399"><ele>93.0</ele><time>2026-04-04T07:22:47.705Z</time></trkpt><trkpt lat="44.7305371" lon="10.3769334"><ele>93.0</ele><time>2026-04-04T07:22:48.706Z</time></trkpt><trkpt lat="44.7304895" lon="10.3771169"><ele>93.0</ele><time>2026-04-04T07:22:49.703Z</time></trkpt><trkpt lat="44.7304427" lon="10.3773012"><ele>93.0</ele><time>2026-04-04T07:22:50.697Z</time></trkpt><trkpt lat="44.730403" lon="10.3774827"><ele>93.0</ele><time>2026-04-04T07:22:51.708Z</time></trkpt><trkpt lat="44.7303538" lon="10.3776603"><ele>93.0</ele><time>2026-04-04T07:22:52.7Z</time></trkpt><trkpt lat="44.7303058" lon="10.3778521"><ele>93.0</ele><time>2026-04-04T07:22:53.698Z</time></trkpt><trkpt lat="44.7302506" lon="10.3780473"><ele>93.0</ele><time>2026-04-04T07:22:54.704Z</time></trkpt><trkpt lat="44.7301996" lon="10.3782464"><ele>93.0</ele><time>2026-04-04T07:22:55.7Z</time></trkpt><trkpt lat="44.7301412" lon="10.3784458"><ele>93.0</ele><time>2026-04-04T07:22:56.703Z</time></trkpt><trkpt lat="44.7300884" lon="10.3786415"><ele>93.0</ele><time>2026-04-04T07:22:57.72Z</time></trkpt><trkpt lat="44.7300317" lon="10.3788338"><ele>93.0</ele><time>2026-04-04T07:22:58.707Z</time></trkpt><trkpt lat="44.7299755" lon="10.3790328"><ele>93.0</ele><time>2026-04-04T07:22:59.703Z</time></trkpt><trkpt lat="44.7299207" lon="10.3792413"><ele>93.0</ele><time>2026-04-04T07:23:00.713Z</time></trkpt><trkpt lat="44.7298652" lon="10.3794421"><ele>93.0</ele><time>2026-04-04T07:23:01.703Z</time></trkpt><trkpt lat="44.7298077" lon="10.3796432"><ele>93.0</ele><time>2026-04-04T07:23:02.704Z</time></trkpt><trkpt lat="44.729753" lon="10.379845"><ele>93.0</ele><time>2026-04-04T07:23:03.702Z</time></trkpt><trkpt lat="44.7296997" lon="10.3800423"><ele>93.0</ele><time>2026-04-04T07:23:04.705Z</time></trkpt><trkpt lat="44.7296438" lon="10.3802371"><ele>93.0</ele><time>2026-04-04T07:23:05.703Z</time></trkpt><trkpt lat="44.7295927" lon="10.3804304"><ele>93.0</ele><time>2026-04-04T07:23:06.702Z</time></trkpt><trkpt lat="44.7295372" lon="10.3806109"><ele>93.0</ele><time>2026-04-04T07:23:07.704Z</time></trkpt><trkpt lat="44.7294821" lon="10.3807817"><ele>93.0</ele><time>2026-04-04T07:23:08.701Z</time></trkpt><trkpt lat="44.7294208" lon="10.3809313"><ele>93.0</ele><time>2026-04-04T07:23:09.706Z</time></trkpt><trkpt lat="44.7293527" lon="10.3810629"><ele>93.0</ele><time>2026-04-04T07:23:10.702Z</time></trkpt><trkpt lat="44.7292712" lon="10.3811653"><ele>93.0</ele><time>2026-04-04T07:23:11.704Z</time></trkpt><trkpt lat="44.7291774" lon="10.3812339"><ele>93.0</ele><time>2026-04-04T07:23:12.705Z</time></trkpt><trkpt lat="44.7290704" lon="10.3812538"><ele>93.0</ele><time>2026-04-04T07:23:13.706Z</time></trkpt><trkpt lat="44.7289644" lon="10.3812733"><ele>93.0</ele><time>2026-04-04T07:23:14.706Z</time></trkpt><trkpt lat="44.7288686" lon="10.3813391"><ele>93.0</ele><time>2026-04-04T07:23:15.704Z</time></trkpt><trkpt lat="44.7287729" lon="10.3814379"><ele>93.0</ele><time>2026-04-04T07:23:16.703Z</time></trkpt><trkpt lat="44.7286781" lon="10.3815055"><ele>93.0</ele><time>2026-04-04T07:23:17.7Z</time></trkpt><trkpt lat="44.7285756" lon="10.3815287"><ele>93.0</ele><time>2026-04-04T07:23:18.701Z</time></trkpt><trkpt lat="44.7284594" lon="10.3815197"><ele>93.0</ele><time>2026-04-04T07:23:19.696Z</time></trkpt><trkpt lat="44.7283226" lon="10.3815139"><ele>93.33333333333333</ele><time>2026-04-04T07:23:20.7Z</time></trkpt><trkpt lat="44.728164" lon="10.3815007"><ele>93.66666666666666</ele><time>2026-04-04T07:23:21.708Z</time></trkpt><trkpt lat="44.727965" lon="10.3814726"><ele>94.0</ele><time>2026-04-04T07:23:22.706Z</time></trkpt><trkpt lat="44.7277571" lon="10.381412"><ele>95.0</ele><time>2026-04-04T07:23:23.701Z</time></trkpt><trkpt lat="44.7275547" lon="10.3813308"><ele>96.0</ele><time>2026-04-04T07:23:24.734Z</time></trkpt><trkpt lat="44.7273475" lon="10.3812668"><ele>97.0</ele><time>2026-04-04T07:23:25.722Z</time></trkpt><trkpt lat="44.7271457" lon="10.3812191"><ele>97.0</ele><time>2026-04-04T07:23:26.719Z</time></trkpt><trkpt lat="44.7269343" lon="10.3811713"><ele>97.0</ele><time>2026-04-04T07:23:27.708Z</time></trkpt><trkpt lat="44.7267184" lon="10.3811261"><ele>97.0</ele><time>2026-04-04T07:23:28.725Z</time></trkpt><trkpt lat="44.7264963" lon="10.3810849"><ele>97.0</ele><time>2026-04-04T07:23:29.721Z</time></trkpt><trkpt lat="44.7262751" lon="10.3810452"><ele>97.0</ele><time>2026-04-04T07:23:30.737Z</time></trkpt><trkpt lat="44.7260582" lon="10.3810067"><ele>97.0</ele><time>2026-04-04T07:23:31.728Z</time></trkpt><trkpt lat="44.7258383" lon="10.380972"><ele>97.0</ele><time>2026-04-04T07:23:32.705Z</time></trkpt><trkpt lat="44.7256273" lon="10.3809378"><ele>97.0</ele><time>2026-04-04T07:23:33.707Z</time></trkpt><trkpt lat="44.7254194" lon="10.3809003"><ele>97.0</ele><time>2026-04-04T07:23:34.704Z</time></trkpt><trkpt lat="44.7252143" lon="10.3808671"><ele>97.0</ele><time>2026-04-04T07:23:35.704Z</time></trkpt><trkpt lat="44.725011" lon="10.3808561"><ele>97.0</ele><time>2026-04-04T07:23:36.701Z</time></trkpt><trkpt lat="44.7248095" lon="10.3808879"><ele>97.0</ele><time>2026-04-04T07:23:37.7Z</time></trkpt><trkpt lat="44.7246281" lon="10.3809719"><ele>97.0</ele><time>2026-04-04T07:23:38.7Z</time></trkpt><trkpt lat="44.7244487" lon="10.3810846"><ele>97.0</ele><time>2026-04-04T07:23:39.706Z</time></trkpt><trkpt lat="44.7242871" lon="10.3812311"><ele>97.0</ele><time>2026-04-04T07:23:40.7Z</time></trkpt><trkpt lat="44.7241422" lon="10.3814147"><ele>97.0</ele><time>2026-04-04T07:23:41.7Z</time></trkpt><trkpt lat="44.7240226" lon="10.3816374"><ele>97.0</ele><time>2026-04-04T07:23:42.697Z</time></trkpt><trkpt lat="44.7239233" lon="10.3818757"><ele>97.0</ele><time>2026-04-04T07:23:43.705Z</time></trkpt><trkpt lat="44.7238474" lon="10.3821472"><ele>97.0</ele><time>2026-04-04T07:23:44.697Z</time></trkpt><trkpt lat="44.7237774" lon="10.3824278"><ele>97.0</ele><time>2026-04-04T07:23:45.7Z</time></trkpt><trkpt lat="44.7237" lon="10.3826857"><ele>97.0</ele><time>2026-04-04T07:23:46.706Z</time></trkpt><trkpt lat="44.7236205" lon="10.3829357"><ele>97.0</ele><time>2026-04-04T07:23:47.706Z</time></trkpt><trkpt lat="44.7235452" lon="10.3831811"><ele>97.0</ele><time>2026-04-04T07:23:48.706Z</time></trkpt><trkpt lat="44.7234829" lon="10.3834278"><ele>97.0</ele><time>2026-04-04T07:23:49.701Z</time></trkpt><trkpt lat="44.7234459" lon="10.3836889"><ele>97.0</ele><time>2026-04-04T07:23:50.704Z</time></trkpt><trkpt lat="44.7233939" lon="10.3839486"><ele>97.0</ele><time>2026-04-04T07:23:51.696Z</time></trkpt><trkpt lat="44.7233163" lon="10.3842018"><ele>97.0</ele><time>2026-04-04T07:23:52.695Z</time></trkpt><trkpt lat="44.7232172" lon="10.3844395"><ele>97.0</ele><time>2026-04-04T07:23:53.703Z</time></trkpt><trkpt lat="44.7230977" lon="10.384669"><ele>97.0</ele><time>2026-04-04T07:23:54.701Z</time></trkpt><trkpt lat="44.7229711" lon="10.3848888"><ele>97.0</ele><time>2026-04-04T07:23:55.693Z</time></trkpt><trkpt lat="44.7228511" lon="10.3851184"><ele>97.0</ele><time>2026-04-04T07:23:56.692Z</time></trkpt><trkpt lat="44.7227333" lon="10.3853577"><ele>97.0</ele><time>2026-04-04T07:23:57.708Z</time></trkpt><trkpt lat="44.7226036" lon="10.3855876"><ele>97.0</ele><time>2026-04-04T07:23:58.715Z</time></trkpt><trkpt lat="44.7224605" lon="10.3858132"><ele>97.0</ele><time>2026-04-04T07:23:59.701Z</time></trkpt><trkpt lat="44.7223044" lon="10.3860127"><ele>97.0</ele><time>2026-04-04T07:24:00.712Z</time></trkpt><trkpt lat="44.7221364" lon="10.386176"><ele>97.0</ele><time>2026-04-04T07:24:01.698Z</time></trkpt><trkpt lat="44.7219584" lon="10.3863282"><ele>97.33333333333334</ele><time>2026-04-04T07:24:02.697Z</time></trkpt><trkpt lat="44.7217863" lon="10.3864665"><ele>97.66666666666666</ele><time>2026-04-04T07:24:03.7Z</time></trkpt><trkpt lat="44.7216252" lon="10.386599"><ele>98.0</ele><time>2026-04-04T07:24:04.697Z</time></trkpt><trkpt lat="44.7214742" lon="10.3867211"><ele>98.0</ele><time>2026-04-04T07:24:05.697Z</time></trkpt><trkpt lat="44.7213442" lon="10.38683"><ele>98.0</ele><time>2026-04-04T07:24:06.696Z</time></trkpt><trkpt lat="44.72122" lon="10.3869388"><ele>98.0</ele><time>2026-04-04T07:24:07.697Z</time></trkpt><trkpt lat="44.7211041" lon="10.3870479"><ele>98.0</ele><time>2026-04-04T07:24:08.698Z</time></trkpt><trkpt lat="44.7209821" lon="10.3871483"><ele>101.25</ele><time>2026-04-04T07:24:09.695Z</time></trkpt><trkpt lat="44.7208591" lon="10.3872503"><ele>104.5</ele><time>2026-04-04T07:24:10.697Z</time></trkpt><trkpt lat="44.7207406" lon="10.3873507"><ele>107.75</ele><time>2026-04-04T07:24:11.703Z</time></trkpt><trkpt lat="44.7206333" lon="10.3874543"><ele>111.0</ele><time>2026-04-04T07:24:12.703Z</time></trkpt><trkpt lat="44.7205241" lon="10.3875517"><ele>111.0</ele><time>2026-04-04T07:24:13.705Z</time></trkpt><trkpt lat="44.7204121" lon="10.3876489"><ele>111.0</ele><time>2026-04-04T07:24:14.698Z</time></trkpt><trkpt lat="44.7203102" lon="10.3877396"><ele>111.0</ele><time>2026-04-04T07:24:15.694Z</time></trkpt><trkpt lat="44.7202245" lon="10.387823"><ele>111.0</ele><time>2026-04-04T07:24:16.691Z</time></trkpt><trkpt lat="44.7201441" lon="10.3879021"><ele>111.16666666666667</ele><time>2026-04-04T07:24:17.695Z</time></trkpt><trkpt lat="44.7200714" lon="10.3879774"><ele>111.33333333333334</ele><time>2026-04-04T07:24:18.69Z</time></trkpt><trkpt lat="44.7200021" lon="10.3880467"><ele>111.5</ele><time>2026-04-04T07:24:19.693Z</time></trkpt><trkpt lat="44.7199303" lon="10.3881019"><ele>111.66666666666667</ele><time>2026-04-04T07:24:20.695Z</time></trkpt><trkpt lat="44.719851" lon="10.3881463"><ele>111.83333333333334</ele><time>2026-04-04T07:24:21.713Z</time></trkpt><trkpt lat="44.7197608" lon="10.3881943"><ele>112.0</ele><time>2026-04-04T07:24:22.701Z</time></trkpt><trkpt lat="44.7196684" lon="10.3882782"><ele>111.33333333333334</ele><time>2026-04-04T07:24:23.702Z</time></trkpt><trkpt lat="44.7195588" lon="10.3883996"><ele>110.66666666666666</ele><time>2026-04-04T07:24:24.731Z</time></trkpt><trkpt lat="44.7194255" lon="10.3885319"><ele>110.0</ele><time>2026-04-04T07:24:25.721Z</time></trkpt><trkpt lat="44.7192704" lon="10.388669"><ele>110.0</ele><time>2026-04-04T07:24:26.697Z</time></trkpt><trkpt lat="44.7191115" lon="10.3888075"><ele>110.0</ele><time>2026-04-04T07:24:27.717Z</time></trkpt><trkpt lat="44.7189522" lon="10.3889573"><ele>110.0</ele><time>2026-04-04T07:24:28.703Z</time></trkpt><trkpt lat="44.7187876" lon="10.38911"><ele>110.0</ele><time>2026-04-04T07:24:29.73Z</time></trkpt><trkpt lat="44.7186212" lon="10.3892603"><ele>110.0</ele><time>2026-04-04T07:24:30.707Z</time></trkpt><trkpt lat="44.7184511" lon="10.3894118"><ele>110.0</ele><time>2026-04-04T07:24:31.694Z</time></trkpt><trkpt lat="44.7182784" lon="10.3895705"><ele>110.33333333333333</ele><time>2026-04-04T07:24:32.699Z</time></trkpt><trkpt lat="44.7181092" lon="10.3897307"><ele>110.66666666666666</ele><time>2026-04-04T07:24:33.703Z</time></trkpt><trkpt lat="44.7179325" lon="10.3898876"><ele>111.0</ele><time>2026-04-04T07:24:34.705Z</time></trkpt><trkpt lat="44.717751" lon="10.3900431"><ele>111.0</ele><time>2026-04-04T07:24:35.699Z</time></trkpt><trkpt lat="44.7175749" lon="10.3902092"><ele>111.0</ele><time>2026-04-04T07:24:36.704Z</time></trkpt><trkpt lat="44.7173953" lon="10.3903771"><ele>111.0</ele><time>2026-04-04T07:24:37.7Z</time></trkpt><trkpt lat="44.7172082" lon="10.390546"><ele>111.0</ele><time>2026-04-04T07:24:38.701Z</time></trkpt><trkpt lat="44.7170188" lon="10.3907144"><ele>111.0</ele><time>2026-04-04T07:24:39.705Z</time></trkpt><trkpt lat="44.7168289" lon="10.3908877"><ele>110.66666666666666</ele><time>2026-04-04T07:24:40.706Z</time></trkpt><trkpt lat="44.7166351" lon="10.3910589"><ele>110.33333333333333</ele><time>2026-04-04T07:24:41.702Z</time></trkpt><trkpt lat="44.7164488" lon="10.3912193"><ele>110.0</ele><time>2026-04-04T07:24:42.704Z</time></trkpt><trkpt lat="44.716274" lon="10.3913791"><ele>109.66666666666666</ele><time>2026-04-04T07:24:43.705Z</time></trkpt><trkpt lat="44.7161111" lon="10.3915312"><ele>109.33333333333334</ele><time>2026-04-04T07:24:44.704Z</time></trkpt><trkpt lat="44.7159495" lon="10.3916849"><ele>109.0</ele><time>2026-04-04T07:24:45.703Z</time></trkpt><trkpt lat="44.7157803" lon="10.3918368"><ele>109.33333333333334</ele><time>2026-04-04T07:24:46.707Z</time></trkpt><trkpt lat="44.7156081" lon="10.3920015"><ele>109.66666666666666</ele><time>2026-04-04T07:24:47.704Z</time></trkpt><trkpt lat="44.7154272" lon="10.3921734"><ele>110.0</ele><time>2026-04-04T07:24:48.703Z</time></trkpt><trkpt lat="44.7152473" lon="10.3923405"><ele>110.0</ele><time>2026-04-04T07:24:49.704Z</time></trkpt><trkpt lat="44.7150528" lon="10.392512"><ele>110.0</ele><time>2026-04-04T07:24:50.704Z</time></trkpt><trkpt lat="44.7148606" lon="10.3926878"><ele>110.0</ele><time>2026-04-04T07:24:51.705Z</time></trkpt><trkpt lat="44.7146729" lon="10.3928661"><ele>110.0</ele><time>2026-04-04T07:24:52.707Z</time></trkpt><trkpt lat="44.7144816" lon="10.3930396"><ele>111.0</ele><time>2026-04-04T07:24:53.705Z</time></trkpt><trkpt lat="44.7142968" lon="10.3932131"><ele>112.0</ele><time>2026-04-04T07:24:54.706Z</time></trkpt><trkpt lat="44.7141089" lon="10.3933794"><ele>113.0</ele><time>2026-04-04T07:24:55.708Z</time></trkpt><trkpt lat="44.7139268" lon="10.3935559"><ele>113.0</ele><time>2026-04-04T07:24:56.699Z</time></trkpt><trkpt lat="44.713751" lon="10.3937374"><ele>113.0</ele><time>2026-04-04T07:24:57.699Z</time></trkpt><trkpt lat="44.7135893" lon="10.3939469"><ele>113.0</ele><time>2026-04-04T07:24:58.71Z</time></trkpt><trkpt lat="44.7134566" lon="10.3942061"><ele>113.0</ele><time>2026-04-04T07:24:59.7Z</time></trkpt><trkpt lat="44.7133351" lon="10.3944636"><ele>113.0</ele><time>2026-04-04T07:25:00.718Z</time></trkpt><trkpt lat="44.7132111" lon="10.3947197"><ele>113.0</ele><time>2026-04-04T07:25:01.702Z</time></trkpt><trkpt lat="44.7130872" lon="10.3949586"><ele>113.0</ele><time>2026-04-04T07:25:02.705Z</time></trkpt><trkpt lat="44.7129693" lon="10.3951944"><ele>113.0</ele><time>2026-04-04T07:25:03.699Z</time></trkpt><trkpt lat="44.7128514" lon="10.3954154"><ele>113.0</ele><time>2026-04-04T07:25:04.703Z</time></trkpt><trkpt lat="44.7127377" lon="10.3956205"><ele>113.66666666666666</ele><time>2026-04-04T07:25:05.697Z</time></trkpt><trkpt lat="44.7126307" lon="10.3958326"><ele>114.33333333333334</ele><time>2026-04-04T07:25:06.703Z</time></trkpt><trkpt lat="44.7125268" lon="10.3960368"><ele>115.0</ele><time>2026-04-04T07:25:07.701Z</time></trkpt><trkpt lat="44.7124373" lon="10.3962369"><ele>114.75</ele><time>2026-04-04T07:25:08.703Z</time></trkpt><trkpt lat="44.7123568" lon="10.3964011"><ele>114.5</ele><time>2026-04-04T07:25:09.698Z</time></trkpt><trkpt lat="44.7122833" lon="10.3965274"><ele>114.25</ele><time>2026-04-04T07:25:10.7Z</time></trkpt><trkpt lat="44.7121893" lon="10.396613"><ele>114.0</ele><time>2026-04-04T07:25:11.705Z</time></trkpt><trkpt lat="44.7120912" lon="10.3966525"><ele>114.0</ele><time>2026-04-04T07:25:12.729Z</time></trkpt><trkpt lat="44.7119957" lon="10.3966819"><ele>114.0</ele><time>2026-04-04T07:25:13.705Z</time></trkpt><trkpt lat="44.7119105" lon="10.3967602"><ele>114.0</ele><time>2026-04-04T07:25:14.698Z</time></trkpt><trkpt lat="44.711865" lon="10.39687"><ele>114.0</ele><time>2026-04-04T07:25:15.697Z</time></trkpt><trkpt lat="44.7118721" lon="10.3970008"><ele>114.0</ele><time>2026-04-04T07:25:16.703Z</time></trkpt><trkpt lat="44.7118866" lon="10.397142"><ele>114.25</ele><time>2026-04-04T07:25:17.698Z</time></trkpt><trkpt lat="44.7118722" lon="10.3972816"><ele>114.5</ele><time>2026-04-04T07:25:18.705Z</time></trkpt><trkpt lat="44.7118235" lon="10.3974137"><ele>114.75</ele><time>2026-04-04T07:25:19.705Z</time></trkpt><trkpt lat="44.7117396" lon="10.3975697"><ele>115.0</ele><time>2026-04-04T07:25:20.699Z</time></trkpt><trkpt lat="44.7116495" lon="10.3977454"><ele>115.0</ele><time>2026-04-04T07:25:21.697Z</time></trkpt><trkpt lat="44.7115415" lon="10.3979354"><ele>115.0</ele><time>2026-04-04T07:25:22.694Z</time></trkpt><trkpt lat="44.7114366" lon="10.3981238"><ele>115.0</ele><time>2026-04-04T07:25:23.697Z</time></trkpt><trkpt lat="44.7113338" lon="10.3983117"><ele>115.25</ele><time>2026-04-04T07:25:24.702Z</time></trkpt><trkpt lat="44.7112471" lon="10.398483"><ele>115.5</ele><time>2026-04-04T07:25:25.692Z</time></trkpt><trkpt lat="44.7111706" lon="10.3986554"><ele>115.75</ele><time>2026-04-04T07:25:26.701Z</time></trkpt><trkpt lat="44.7110867" lon="10.398811"><ele>116.0</ele><time>2026-04-04T07:25:27.703Z</time></trkpt><trkpt lat="44.7110127" lon="10.3989463"><ele>116.0</ele><time>2026-04-04T07:25:28.702Z</time></trkpt><trkpt lat="44.7109368" lon="10.399078"><ele>116.0</ele><time>2026-04-04T07:25:29.695Z</time></trkpt><trkpt lat="44.7108684" lon="10.39921"><ele>116.0</ele><time>2026-04-04T07:25:30.701Z</time></trkpt><trkpt lat="44.7107998" lon="10.3993335"><ele>116.0</ele><time>2026-04-04T07:25:31.706Z</time></trkpt><trkpt lat="44.7107398" lon="10.3994454"><ele>116.0</ele><time>2026-04-04T07:25:32.693Z</time></trkpt><trkpt lat="44.7106912" lon="10.3995403"><ele>115.99999999999999</ele><time>2026-04-04T07:25:33.702Z</time></trkpt><trkpt lat="44.7106433" lon="10.3996274"><ele>116.0</ele><time>2026-04-04T07:25:34.698Z</time></trkpt><trkpt lat="44.710597" lon="10.3997051"><ele>116.0</ele><time>2026-04-04T07:25:35.694Z</time></trkpt><trkpt lat="44.710551" lon="10.3997754"><ele>116.0</ele><time>2026-04-04T07:25:36.691Z</time></trkpt><trkpt lat="44.7105003" lon="10.3998284"><ele>115.99999999999999</ele><time>2026-04-04T07:25:37.695Z</time></trkpt><trkpt lat="44.710411" lon="10.3998668"><ele>116.0</ele><time>2026-04-04T07:25:39.69Z</time></trkpt><trkpt lat="44.7103336" lon="10.39989"><ele>113.0</ele><time>2026-04-04T07:25:41.691Z</time></trkpt></trkseg><trkseg><trkpt lat="44.7076665" lon="10.4051499"><ele>117.0</ele><time>2026-04-04T07:29:49.047Z</time></trkpt><trkpt lat="44.7075783" lon="10.4052089"><ele>116.99999999999999</ele><time>2026-04-04T07:29:50.041Z</time></trkpt><trkpt lat="44.7074889" lon="10.4052442"><ele>116.99999999999999</ele><time>2026-04-04T07:29:51.046Z</time></trkpt><trkpt lat="44.7073935" lon="10.4052817"><ele>117.0</ele><time>2026-04-04T07:29:52.047Z</time></trkpt><trkpt lat="44.7072941" lon="10.405336"><ele>117.0</ele><time>2026-04-04T07:29:53.033Z</time></trkpt><trkpt lat="44.7071848" lon="10.405399"><ele>117.0</ele><time>2026-04-04T07:29:54.038Z</time></trkpt><trkpt lat="44.7070775" lon="10.4054714"><ele>117.0</ele><time>2026-04-04T07:29:55.045Z</time></trkpt><trkpt lat="44.7069704" lon="10.4055388"><ele>117.0</ele><time>2026-04-04T07:29:56.029Z</time></trkpt><trkpt lat="44.7068558" lon="10.40559"><ele>117.0</ele><time>2026-04-04T07:29:57.054Z</time></trkpt><trkpt lat="44.7067239" lon="10.4055952"><ele>116.75</ele><time>2026-04-04T07:29:58.057Z</time></trkpt><trkpt lat="44.7065832" lon="10.4055556"><ele>116.5</ele><time>2026-04-04T07:29:59.049Z</time></trkpt><trkpt lat="44.7064366" lon="10.4055069"><ele>116.25</ele><time>2026-04-04T07:30:00.04Z</time></trkpt><trkpt lat="44.7062972" lon="10.4054594"><ele>116.0</ele><time>2026-04-04T07:30:01.048Z</time></trkpt><trkpt lat="44.7061677" lon="10.4054181"><ele>115.8</ele><time>2026-04-04T07:30:02.053Z</time></trkpt><trkpt lat="44.7060585" lon="10.4053917"><ele>115.6</ele><time>2026-04-04T07:30:03.041Z</time></trkpt><trkpt lat="44.7059589" lon="10.4053568"><ele>115.4</ele><time>2026-04-04T07:30:04.053Z</time></trkpt><trkpt lat="44.7058659" lon="10.4053362"><ele>115.2</ele><time>2026-04-04T07:30:05.059Z</time></trkpt><trkpt lat="44.70577" lon="10.4053158"><ele>115.0</ele><time>2026-04-04T07:30:06.052Z</time></trkpt><trkpt lat="44.7056777" lon="10.4052821"><ele>115.0</ele><time>2026-04-04T07:30:07.056Z</time></trkpt><trkpt lat="44.7055905" lon="10.4052433"><ele>115.0</ele><time>2026-04-04T07:30:08.054Z</time></trkpt><trkpt lat="44.7055109" lon="10.4051952"><ele>115.0</ele><time>2026-04-04T07:30:09.076Z</time></trkpt><trkpt lat="44.7054401" lon="10.4051276"><ele>115.0</ele><time>2026-04-04T07:30:10.053Z</time></trkpt><trkpt lat="44.7053838" lon="10.4050544"><ele>115.0</ele><time>2026-04-04T07:30:11.058Z</time></trkpt><trkpt lat="44.7053125" lon="10.40492"><ele>115.0</ele><time>2026-04-04T07:30:13.057Z</time></trkpt><trkpt lat="44.7053009" lon="10.404832"><ele>115.0</ele><time>2026-04-04T07:30:14.071Z</time></trkpt><trkpt lat="44.7052808" lon="10.4046764"><ele>115.0</ele><time>2026-04-04T07:30:16.057Z</time></trkpt><trkpt lat="44.7052065" lon="10.4045784"><ele>115.0</ele><time>2026-04-04T07:30:18.057Z</time></trkpt><trkpt lat="44.7050946" lon="10.4046832"><ele>115.0</ele><time>2026-04-04T07:30:20.059Z</time></trkpt><trkpt lat="44.7050535" lon="10.4048126"><ele>114.75</ele><time>2026-04-04T07:30:21.052Z</time></trkpt><trkpt lat="44.7050162" lon="10.4049799"><ele>114.5</ele><time>2026-04-04T07:30:22.049Z</time></trkpt><trkpt lat="44.7049509" lon="10.4051464"><ele>114.25</ele><time>2026-04-04T07:30:23.049Z</time></trkpt><trkpt lat="44.7048388" lon="10.4053384"><ele>114.0</ele><time>2026-04-04T07:30:24.075Z</time></trkpt><trkpt lat="44.7046478" lon="10.4055692"><ele>113.5</ele><time>2026-04-04T07:30:25.066Z</time></trkpt><trkpt lat="44.7044609" lon="10.405796"><ele>113.0</ele><time>2026-04-04T07:30:26.043Z</time></trkpt><trkpt lat="44.7042686" lon="10.4060541"><ele>110.5</ele><time>2026-04-04T07:30:27.048Z</time></trkpt><trkpt lat="44.7040646" lon="10.4063363"><ele>108.0</ele><time>2026-04-04T07:30:28.048Z</time></trkpt><trkpt lat="44.7038551" lon="10.4066099"><ele>108.0</ele><time>2026-04-04T07:30:29.045Z</time></trkpt><trkpt lat="44.7036611" lon="10.40687"><ele>108.0</ele><time>2026-04-04T07:30:30.049Z</time></trkpt><trkpt lat="44.7034687" lon="10.4071171"><ele>107.5</ele><time>2026-04-04T07:30:31.051Z</time></trkpt><trkpt lat="44.7032908" lon="10.4073518"><ele>107.0</ele><time>2026-04-04T07:30:32.041Z</time></trkpt><trkpt lat="44.7031147" lon="10.4075808"><ele>107.0</ele><time>2026-04-04T07:30:33.041Z</time></trkpt><trkpt lat="44.7029389" lon="10.4078156"><ele>107.0</ele><time>2026-04-04T07:30:34.057Z</time></trkpt><trkpt lat="44.7027712" lon="10.4080443"><ele>107.0</ele><time>2026-04-04T07:30:35.053Z</time></trkpt><trkpt lat="44.7025987" lon="10.4082687"><ele>107.0</ele><time>2026-04-04T07:30:36.058Z</time></trkpt><trkpt lat="44.7024282" lon="10.4084918"><ele>107.0</ele><time>2026-04-04T07:30:37.056Z</time></trkpt><trkpt lat="44.7022543" lon="10.4087105"><ele>107.0</ele><time>2026-04-04T07:30:38.06Z</time></trkpt><trkpt lat="44.7020804" lon="10.4089289"><ele>107.0</ele><time>2026-04-04T07:30:39.073Z</time></trkpt><trkpt lat="44.7019197" lon="10.4091481"><ele>107.0</ele><time>2026-04-04T07:30:40.052Z</time></trkpt><trkpt lat="44.7017608" lon="10.4093582"><ele>107.0</ele><time>2026-04-04T07:30:41.059Z</time></trkpt><trkpt lat="44.7016098" lon="10.40957"><ele>107.0</ele><time>2026-04-04T07:30:42.055Z</time></trkpt><trkpt lat="44.7014612" lon="10.409786"><ele>107.0</ele><time>2026-04-04T07:30:43.049Z</time></trkpt><trkpt lat="44.7013297" lon="10.4100293"><ele>107.0</ele><time>2026-04-04T07:30:44.062Z</time></trkpt><trkpt lat="44.7012366" lon="10.4103081"><ele>106.5</ele><time>2026-04-04T07:30:45.048Z</time></trkpt><trkpt lat="44.7011695" lon="10.4106306"><ele>106.0</ele><time>2026-04-04T07:30:46.06Z</time></trkpt><trkpt lat="44.7010939" lon="10.4109488"><ele>106.5</ele><time>2026-04-04T07:30:47.056Z</time></trkpt><trkpt lat="44.7010246" lon="10.4112551"><ele>107.0</ele><time>2026-04-04T07:30:48.059Z</time></trkpt><trkpt lat="44.7009544" lon="10.4115535"><ele>107.0</ele><time>2026-04-04T07:30:49.055Z</time></trkpt><trkpt lat="44.700882" lon="10.4118434"><ele>107.0</ele><time>2026-04-04T07:30:50.06Z</time></trkpt><trkpt lat="44.7008053" lon="10.4121323"><ele>107.0</ele><time>2026-04-04T07:30:51.062Z</time></trkpt><trkpt lat="44.7007332" lon="10.4124083"><ele>106.33333333333333</ele><time>2026-04-04T07:30:52.082Z</time></trkpt><trkpt lat="44.7006697" lon="10.4126931"><ele>105.66666666666666</ele><time>2026-04-04T07:30:53.071Z</time></trkpt><trkpt lat="44.7006006" lon="10.412978"><ele>105.0</ele><time>2026-04-04T07:30:54.065Z</time></trkpt><trkpt lat="44.7005392" lon="10.4132593"><ele>104.66666666666666</ele><time>2026-04-04T07:30:55.077Z</time></trkpt><trkpt lat="44.700469" lon="10.4135394"><ele>104.33333333333333</ele><time>2026-04-04T07:30:56.063Z</time></trkpt><trkpt lat="44.7003894" lon="10.4138129"><ele>104.0</ele><time>2026-04-04T07:30:57.067Z</time></trkpt><trkpt lat="44.7003213" lon="10.4140793"><ele>104.0</ele><time>2026-04-04T07:30:58.076Z</time></trkpt><trkpt lat="44.7002525" lon="10.4143478"><ele>104.0</ele><time>2026-04-04T07:30:59.072Z</time></trkpt><trkpt lat="44.7001884" lon="10.4146133"><ele>104.0</ele><time>2026-04-04T07:31:00.079Z</time></trkpt><trkpt lat="44.7001222" lon="10.4148633"><ele>104.33333333333333</ele><time>2026-04-04T07:31:01.083Z</time></trkpt><trkpt lat="44.7000554" lon="10.4151097"><ele>104.66666666666666</ele><time>2026-04-04T07:31:02.072Z</time></trkpt><trkpt lat="44.6999885" lon="10.4153526"><ele>105.0</ele><time>2026-04-04T07:31:03.076Z</time></trkpt><trkpt lat="44.6999215" lon="10.4155955"><ele>105.0</ele><time>2026-04-04T07:31:04.071Z</time></trkpt><trkpt lat="44.699861" lon="10.4158353"><ele>105.0</ele><time>2026-04-04T07:31:05.073Z</time></trkpt><trkpt lat="44.699801" lon="10.416065"><ele>105.0</ele><time>2026-04-04T07:31:06.073Z</time></trkpt><trkpt lat="44.6997394" lon="10.4162981"><ele>105.66666666666666</ele><time>2026-04-04T07:31:07.071Z</time></trkpt><trkpt lat="44.6996803" lon="10.4165324"><ele>106.33333333333333</ele><time>2026-04-04T07:31:08.073Z</time></trkpt><trkpt lat="44.6996175" lon="10.4167606"><ele>107.0</ele><time>2026-04-04T07:31:09.076Z</time></trkpt><trkpt lat="44.6995565" lon="10.416979"><ele>107.0</ele><time>2026-04-04T07:31:10.091Z</time></trkpt><trkpt lat="44.6995032" lon="10.4172011"><ele>107.0</ele><time>2026-04-04T07:31:11.079Z</time></trkpt><trkpt lat="44.6994441" lon="10.4174214"><ele>107.0</ele><time>2026-04-04T07:31:12.079Z</time></trkpt><trkpt lat="44.6993838" lon="10.4176436"><ele>107.5</ele><time>2026-04-04T07:31:13.082Z</time></trkpt><trkpt lat="44.699325" lon="10.4178552"><ele>108.0</ele><time>2026-04-04T07:31:14.101Z</time></trkpt><trkpt lat="44.6992703" lon="10.418044"><ele>108.5</ele><time>2026-04-04T07:31:15.082Z</time></trkpt><trkpt lat="44.6992184" lon="10.4182152"><ele>109.0</ele><time>2026-04-04T07:31:16.077Z</time></trkpt><trkpt lat="44.6991756" lon="10.4183779"><ele>109.25</ele><time>2026-04-04T07:31:17.086Z</time></trkpt><trkpt lat="44.6991348" lon="10.4185289"><ele>109.5</ele><time>2026-04-04T07:31:18.07Z</time></trkpt><trkpt lat="44.6990908" lon="10.4186722"><ele>109.75</ele><time>2026-04-04T07:31:19.07Z</time></trkpt><trkpt lat="44.6990475" lon="10.4188192"><ele>110.0</ele><time>2026-04-04T07:31:20.068Z</time></trkpt><trkpt lat="44.6990054" lon="10.41898"><ele>110.25</ele><time>2026-04-04T07:31:21.068Z</time></trkpt><trkpt lat="44.6989616" lon="10.4191671"><ele>110.5</ele><time>2026-04-04T07:31:22.058Z</time></trkpt><trkpt lat="44.6989161" lon="10.4193582"><ele>110.75</ele><time>2026-04-04T07:31:23.06Z</time></trkpt><trkpt lat="44.6988631" lon="10.419548"><ele>111.0</ele><time>2026-04-04T07:31:24.071Z</time></trkpt><trkpt lat="44.6988071" lon="10.4197321"><ele>110.5</ele><time>2026-04-04T07:31:25.088Z</time></trkpt><trkpt lat="44.698754" lon="10.4199107"><ele>110.0</ele><time>2026-04-04T07:31:26.079Z</time></trkpt><trkpt lat="44.6987084" lon="10.4200817"><ele>109.5</ele><time>2026-04-04T07:31:27.085Z</time></trkpt><trkpt lat="44.6986619" lon="10.4202594"><ele>109.0</ele><time>2026-04-04T07:31:28.091Z</time></trkpt><trkpt lat="44.6986101" lon="10.4204467"><ele>110.66666666666667</ele><time>2026-04-04T07:31:29.074Z</time></trkpt><trkpt lat="44.6985577" lon="10.4206493"><ele>112.33333333333334</ele><time>2026-04-04T07:31:30.098Z</time></trkpt><trkpt lat="44.6985073" lon="10.420848"><ele>114.0</ele><time>2026-04-04T07:31:31.103Z</time></trkpt><trkpt lat="44.6984498" lon="10.4210618"><ele>114.0</ele><time>2026-04-04T07:31:32.075Z</time></trkpt><trkpt lat="44.6983967" lon="10.4212752"><ele>114.0</ele><time>2026-04-04T07:31:33.083Z</time></trkpt><trkpt lat="44.6983397" lon="10.4214914"><ele>114.0</ele><time>2026-04-04T07:31:34.084Z</time></trkpt><trkpt lat="44.6982863" lon="10.4216969"><ele>114.25</ele><time>2026-04-04T07:31:35.08Z</time></trkpt><trkpt lat="44.6982411" lon="10.4218911"><ele>114.5</ele><time>2026-04-04T07:31:36.08Z</time></trkpt><trkpt lat="44.6981938" lon="10.4220703"><ele>114.75</ele><time>2026-04-04T07:31:37.083Z</time></trkpt><trkpt lat="44.6981625" lon="10.4222277"><ele>115.0</ele><time>2026-04-04T07:31:38.086Z</time></trkpt><trkpt lat="44.6981318" lon="10.4223681"><ele>115.2</ele><time>2026-04-04T07:31:39.084Z</time></trkpt><trkpt lat="44.6981008" lon="10.4224964"><ele>115.4</ele><time>2026-04-04T07:31:40.082Z</time></trkpt><trkpt lat="44.6980718" lon="10.4226151"><ele>115.6</ele><time>2026-04-04T07:31:41.088Z</time></trkpt><trkpt lat="44.6980417" lon="10.4227379"><ele>115.8</ele><time>2026-04-04T07:31:42.084Z</time></trkpt><trkpt lat="44.6980202" lon="10.4228613"><ele>116.0</ele><time>2026-04-04T07:31:43.081Z</time></trkpt><trkpt lat="44.6980003" lon="10.4229861"><ele>116.19999999999999</ele><time>2026-04-04T07:31:44.093Z</time></trkpt><trkpt lat="44.6979839" lon="10.4231105"><ele>116.39999999999999</ele><time>2026-04-04T07:31:45.08Z</time></trkpt><trkpt lat="44.697966" lon="10.4232339"><ele>116.6</ele><time>2026-04-04T07:31:46.09Z</time></trkpt><trkpt lat="44.6979475" lon="10.4233544"><ele>116.8</ele><time>2026-04-04T07:31:47.083Z</time></trkpt><trkpt lat="44.6979252" lon="10.4234845"><ele>117.0</ele><time>2026-04-04T07:31:48.148Z</time></trkpt><trkpt lat="44.6979056" lon="10.423626"><ele>117.0</ele><time>2026-04-04T07:31:49.129Z</time></trkpt><trkpt lat="44.6978872" lon="10.4237779"><ele>117.0</ele><time>2026-04-04T07:31:50.081Z</time></trkpt><trkpt lat="44.6978675" lon="10.4239326"><ele>117.0</ele><time>2026-04-04T07:31:51.088Z</time></trkpt><trkpt lat="44.6978487" lon="10.4240899"><ele>117.0</ele><time>2026-04-04T07:31:52.083Z</time></trkpt><trkpt lat="44.6978262" lon="10.4242549"><ele>117.0</ele><time>2026-04-04T07:31:53.091Z</time></trkpt><trkpt lat="44.697803" lon="10.4244204"><ele>117.0</ele><time>2026-04-04T07:31:54.09Z</time></trkpt><trkpt lat="44.6977799" lon="10.4245883"><ele>117.0</ele><time>2026-04-04T07:31:55.086Z</time></trkpt><trkpt lat="44.6977602" lon="10.42476"><ele>117.0</ele><time>2026-04-04T07:31:56.084Z</time></trkpt><trkpt lat="44.6977377" lon="10.4249383"><ele>117.75</ele><time>2026-04-04T07:31:57.082Z</time></trkpt><trkpt lat="44.6977156" lon="10.4251258"><ele>118.5</ele><time>2026-04-04T07:31:58.088Z</time></trkpt><trkpt lat="44.6976946" lon="10.4253265"><ele>119.25</ele><time>2026-04-04T07:31:59.089Z</time></trkpt><trkpt lat="44.6976716" lon="10.4255268"><ele>120.0</ele><time>2026-04-04T07:32:00.089Z</time></trkpt><trkpt lat="44.6976464" lon="10.4257213"><ele>120.25</ele><time>2026-04-04T07:32:01.091Z</time></trkpt><trkpt lat="44.6976206" lon="10.425908"><ele>120.5</ele><time>2026-04-04T07:32:02.088Z</time></trkpt><trkpt lat="44.6976059" lon="10.4260976"><ele>120.75</ele><time>2026-04-04T07:32:03.085Z</time></trkpt><trkpt lat="44.6975933" lon="10.4262782"><ele>121.0</ele><time>2026-04-04T07:32:04.082Z</time></trkpt><trkpt lat="44.6975883" lon="10.426462"><ele>119.5</ele><time>2026-04-04T07:32:05.075Z</time></trkpt><trkpt lat="44.6976004" lon="10.426649"><ele>118.0</ele><time>2026-04-04T07:32:06.098Z</time></trkpt><trkpt lat="44.697632" lon="10.4268266"><ele>116.5</ele><time>2026-04-04T07:32:07.09Z</time></trkpt><trkpt lat="44.6976742" lon="10.42698"><ele>115.0</ele><time>2026-04-04T07:32:08.068Z</time></trkpt><trkpt lat="44.6977225" lon="10.4271171"><ele>116.25</ele><time>2026-04-04T07:32:09.07Z</time></trkpt><trkpt lat="44.6977866" lon="10.4272504"><ele>117.5</ele><time>2026-04-04T07:32:10.073Z</time></trkpt><trkpt lat="44.69787" lon="10.4273862"><ele>118.75</ele><time>2026-04-04T07:32:11.068Z</time></trkpt><trkpt lat="44.6979503" lon="10.4275367"><ele>120.0</ele><time>2026-04-04T07:32:12.076Z</time></trkpt><trkpt lat="44.6980374" lon="10.4276783"><ele>120.0</ele><time>2026-04-04T07:32:13.074Z</time></trkpt><trkpt lat="44.6981214" lon="10.4278246"><ele>120.0</ele><time>2026-04-04T07:32:14.083Z</time></trkpt><trkpt lat="44.6982052" lon="10.4279659"><ele>120.0</ele><time>2026-04-04T07:32:15.076Z</time></trkpt><trkpt lat="44.6982913" lon="10.4281013"><ele>120.0</ele><time>2026-04-04T07:32:16.083Z</time></trkpt><trkpt lat="44.6983842" lon="10.4282127"><ele>118.25</ele><time>2026-04-04T07:32:17.078Z</time></trkpt><trkpt lat="44.6984798" lon="10.4283108"><ele>116.5</ele><time>2026-04-04T07:32:18.077Z</time></trkpt><trkpt lat="44.6985907" lon="10.4283847"><ele>114.75</ele><time>2026-04-04T07:32:19.103Z</time></trkpt><trkpt lat="44.6987174" lon="10.4284363"><ele>113.0</ele><time>2026-04-04T07:32:20.076Z</time></trkpt><trkpt lat="44.6988532" lon="10.4284712"><ele>113.0</ele><time>2026-04-04T07:32:21.078Z</time></trkpt><trkpt lat="44.6989909" lon="10.4284764"><ele>113.0</ele><time>2026-04-04T07:32:22.096Z</time></trkpt><trkpt lat="44.6991299" lon="10.4284619"><ele>113.0</ele><time>2026-04-04T07:32:23.079Z</time></trkpt><trkpt lat="44.6992675" lon="10.428436"><ele>113.0</ele><time>2026-04-04T07:32:24.076Z</time></trkpt><trkpt lat="44.6994008" lon="10.4284308"><ele>113.25</ele><time>2026-04-04T07:32:25.109Z</time></trkpt><trkpt lat="44.6995285" lon="10.4284319"><ele>113.5</ele><time>2026-04-04T07:32:26.082Z</time></trkpt><trkpt lat="44.6996485" lon="10.4284459"><ele>113.75</ele><time>2026-04-04T07:32:27.09Z</time></trkpt><trkpt lat="44.6997621" lon="10.4284681"><ele>114.0</ele><time>2026-04-04T07:32:28.079Z</time></trkpt><trkpt lat="44.6998768" lon="10.4285034"><ele>114.0</ele><time>2026-04-04T07:32:29.084Z</time></trkpt><trkpt lat="44.69999" lon="10.4285555"><ele>114.0</ele><time>2026-04-04T07:32:30.08Z</time></trkpt><trkpt lat="44.7000964" lon="10.4286388"><ele>114.0</ele><time>2026-04-04T07:32:31.083Z</time></trkpt><trkpt lat="44.7001979" lon="10.4287624"><ele>114.0</ele><time>2026-04-04T07:32:32.08Z</time></trkpt><trkpt lat="44.7002919" lon="10.4289076"><ele>113.75</ele><time>2026-04-04T07:32:33.071Z</time></trkpt><trkpt lat="44.7003761" lon="10.4290703"><ele>113.5</ele><time>2026-04-04T07:32:34.074Z</time></trkpt><trkpt lat="44.7004404" lon="10.429248"><ele>113.25</ele><time>2026-04-04T07:32:35.081Z</time></trkpt><trkpt lat="44.7004793" lon="10.429431"><ele>113.0</ele><time>2026-04-04T07:32:36.073Z</time></trkpt><trkpt lat="44.700484" lon="10.4296065"><ele>110.80000000000001</ele><time>2026-04-04T07:32:37.073Z</time></trkpt><trkpt lat="44.7004706" lon="10.4297585"><ele>108.60000000000001</ele><time>2026-04-04T07:32:38.079Z</time></trkpt><trkpt lat="44.7004629" lon="10.4299039"><ele>106.4</ele><time>2026-04-04T07:32:39.101Z</time></trkpt><trkpt lat="44.7004446" lon="10.4300276"><ele>104.19999999999999</ele><time>2026-04-04T07:32:40.099Z</time></trkpt><trkpt lat="44.7004226" lon="10.4301538"><ele>102.0</ele><time>2026-04-04T07:32:41.109Z</time></trkpt><trkpt lat="44.7003893" lon="10.4302843"><ele>102.0</ele><time>2026-04-04T07:32:42.106Z</time></trkpt><trkpt lat="44.7003552" lon="10.4304213"><ele>102.0</ele><time>2026-04-04T07:32:43.079Z</time></trkpt><trkpt lat="44.700318" lon="10.430562"><ele>102.0</ele><time>2026-04-04T07:32:44.096Z</time></trkpt><trkpt lat="44.7002735" lon="10.4307017"><ele>102.0</ele><time>2026-04-04T07:32:45.084Z</time></trkpt><trkpt lat="44.7002257" lon="10.4308502"><ele>102.0</ele><time>2026-04-04T07:32:46.087Z</time></trkpt><trkpt lat="44.7001702" lon="10.4310062"><ele>101.75</ele><time>2026-04-04T07:32:47.084Z</time></trkpt><trkpt lat="44.7001144" lon="10.4311707"><ele>101.5</ele><time>2026-04-04T07:32:48.081Z</time></trkpt><trkpt lat="44.70006" lon="10.4313424"><ele>101.25</ele><time>2026-04-04T07:32:49.102Z</time></trkpt><trkpt lat="44.7000018" lon="10.4315284"><ele>101.0</ele><time>2026-04-04T07:32:50.084Z</time></trkpt><trkpt lat="44.6999411" lon="10.4317132"><ele>100.5</ele><time>2026-04-04T07:32:51.086Z</time></trkpt><trkpt lat="44.6998766" lon="10.4318913"><ele>100.0</ele><time>2026-04-04T07:32:52.085Z</time></trkpt><trkpt lat="44.6998162" lon="10.4320626"><ele>99.5</ele><time>2026-04-04T07:32:53.083Z</time></trkpt><trkpt lat="44.6997654" lon="10.4322222"><ele>99.0</ele><time>2026-04-04T07:32:54.087Z</time></trkpt><trkpt lat="44.6997125" lon="10.4323921"><ele>98.0</ele><time>2026-04-04T07:32:55.091Z</time></trkpt><trkpt lat="44.69965" lon="10.4325811"><ele>97.0</ele><time>2026-04-04T07:32:56.089Z</time></trkpt><trkpt lat="44.6995888" lon="10.4327776"><ele>96.0</ele><time>2026-04-04T07:32:57.087Z</time></trkpt><trkpt lat="44.6995192" lon="10.4329785"><ele>95.33333333333333</ele><time>2026-04-04T07:32:58.088Z</time></trkpt><trkpt lat="44.6994494" lon="10.4331849"><ele>94.66666666666666</ele><time>2026-04-04T07:32:59.087Z</time></trkpt><trkpt lat="44.6993794" lon="10.4334001"><ele>94.0</ele><time>2026-04-04T07:33:00.085Z</time></trkpt><trkpt lat="44.6993094" lon="10.4336169"><ele>94.0</ele><time>2026-04-04T07:33:01.089Z</time></trkpt><trkpt lat="44.6992404" lon="10.4338465"><ele>94.0</ele><time>2026-04-04T07:33:02.084Z</time></trkpt><trkpt lat="44.6991697" lon="10.4340649"><ele>94.0</ele><time>2026-04-04T07:33:03.085Z</time></trkpt><trkpt lat="44.6991015" lon="10.4342762"><ele>94.0</ele><time>2026-04-04T07:33:04.088Z</time></trkpt><trkpt lat="44.6990269" lon="10.4345233"><ele>94.0</ele><time>2026-04-04T07:33:05.092Z</time></trkpt><trkpt lat="44.6989325" lon="10.4348189"><ele>94.0</ele><time>2026-04-04T07:33:06.092Z</time></trkpt><trkpt lat="44.698817" lon="10.4351346"><ele>96.5</ele><time>2026-04-04T07:33:07.076Z</time></trkpt><trkpt lat="44.6987198" lon="10.4354621"><ele>99.0</ele><time>2026-04-04T07:33:08.084Z</time></trkpt><trkpt lat="44.6986348" lon="10.4357836"><ele>99.66666666666666</ele><time>2026-04-04T07:33:09.076Z</time></trkpt><trkpt lat="44.6985574" lon="10.4360727"><ele>100.33333333333333</ele><time>2026-04-04T07:33:10.047Z</time></trkpt><trkpt lat="44.6984968" lon="10.4363648"><ele>101.0</ele><time>2026-04-04T07:33:11.069Z</time></trkpt><trkpt lat="44.6984591" lon="10.4366593"><ele>101.0</ele><time>2026-04-04T07:33:12.073Z</time></trkpt><trkpt lat="44.6984388" lon="10.4369396"><ele>101.0</ele><time>2026-04-04T07:33:13.057Z</time></trkpt><trkpt lat="44.6984344" lon="10.437219"><ele>101.0</ele><time>2026-04-04T07:33:14.091Z</time></trkpt><trkpt lat="44.698442" lon="10.4374904"><ele>101.0</ele><time>2026-04-04T07:33:15.092Z</time></trkpt><trkpt lat="44.6984574" lon="10.4377509"><ele>101.0</ele><time>2026-04-04T07:33:16.086Z</time></trkpt><trkpt lat="44.6984819" lon="10.4380248"><ele>101.0</ele><time>2026-04-04T07:33:17.094Z</time></trkpt><trkpt lat="44.6985303" lon="10.4382988"><ele>100.0</ele><time>2026-04-04T07:33:18.107Z</time></trkpt><trkpt lat="44.69859" lon="10.4385873"><ele>99.0</ele><time>2026-04-04T07:33:19.111Z</time></trkpt><trkpt lat="44.6986522" lon="10.4388561"><ele>98.0</ele><time>2026-04-04T07:33:20.129Z</time></trkpt><trkpt lat="44.6987325" lon="10.4391016"><ele>98.0</ele><time>2026-04-04T07:33:21.101Z</time></trkpt><trkpt lat="44.698809" lon="10.4393376"><ele>98.0</ele><time>2026-04-04T07:33:22.091Z</time></trkpt><trkpt lat="44.6988754" lon="10.4395803"><ele>98.0</ele><time>2026-04-04T07:33:23.073Z</time></trkpt><trkpt lat="44.6989453" lon="10.439824"><ele>98.0</ele><time>2026-04-04T07:33:24.08Z</time></trkpt><trkpt lat="44.6990099" lon="10.44007"><ele>98.0</ele><time>2026-04-04T07:33:25.087Z</time></trkpt><trkpt lat="44.6990824" lon="10.4403104"><ele>98.0</ele><time>2026-04-04T07:33:26.068Z</time></trkpt><trkpt lat="44.6991564" lon="10.4405637"><ele>98.0</ele><time>2026-04-04T07:33:27.078Z</time></trkpt><trkpt lat="44.6992302" lon="10.4408202"><ele>98.0</ele><time>2026-04-04T07:33:28.074Z</time></trkpt><trkpt lat="44.6993041" lon="10.4410581"><ele>98.0</ele><time>2026-04-04T07:33:29.077Z</time></trkpt><trkpt lat="44.6993768" lon="10.441281"><ele>97.66666666666666</ele><time>2026-04-04T07:33:30.065Z</time></trkpt><trkpt lat="44.6994427" lon="10.4414995"><ele>97.33333333333334</ele><time>2026-04-04T07:33:31.078Z</time></trkpt><trkpt lat="44.6994914" lon="10.441723"><ele>97.0</ele><time>2026-04-04T07:33:32.083Z</time></trkpt><trkpt lat="44.699543" lon="10.4419407"><ele>97.0</ele><time>2026-04-04T07:33:33.1Z</time></trkpt><trkpt lat="44.6995839" lon="10.4421725"><ele>97.0</ele><time>2026-04-04T07:33:34.108Z</time></trkpt><trkpt lat="44.6996036" lon="10.4424067"><ele>97.0</ele><time>2026-04-04T07:33:35.108Z</time></trkpt><trkpt lat="44.6996176" lon="10.4426477"><ele>97.0</ele><time>2026-04-04T07:33:36.096Z</time></trkpt><trkpt lat="44.6996235" lon="10.4428897"><ele>97.0</ele><time>2026-04-04T07:33:37.099Z</time></trkpt><trkpt lat="44.6996255" lon="10.4431471"><ele>97.0</ele><time>2026-04-04T07:33:38.095Z</time></trkpt><trkpt lat="44.6996199" lon="10.4433965"><ele>97.0</ele><time>2026-04-04T07:33:39.065Z</time></trkpt><trkpt lat="44.6995993" lon="10.4436228"><ele>97.0</ele><time>2026-04-04T07:33:40.07Z</time></trkpt><trkpt lat="44.6995696" lon="10.4438305"><ele>97.0</ele><time>2026-04-04T07:33:41.074Z</time></trkpt><trkpt lat="44.6995348" lon="10.4440432"><ele>97.0</ele><time>2026-04-04T07:33:42.053Z</time></trkpt><trkpt lat="44.6994973" lon="10.4442263"><ele>97.0</ele><time>2026-04-04T07:33:43.078Z</time></trkpt><trkpt lat="44.6994631" lon="10.4443887"><ele>97.0</ele><time>2026-04-04T07:33:44.077Z</time></trkpt><trkpt lat="44.6994244" lon="10.4445587"><ele>97.0</ele><time>2026-04-04T07:33:45.07Z</time></trkpt><trkpt lat="44.6993788" lon="10.4447421"><ele>97.5</ele><time>2026-04-04T07:33:46.065Z</time></trkpt><trkpt lat="44.6993356" lon="10.4449359"><ele>98.0</ele><time>2026-04-04T07:33:47.074Z</time></trkpt><trkpt lat="44.6992841" lon="10.4451286"><ele>98.5</ele><time>2026-04-04T07:33:48.069Z</time></trkpt><trkpt lat="44.6992253" lon="10.4453281"><ele>99.0</ele><time>2026-04-04T07:33:49.061Z</time></trkpt><trkpt lat="44.6991636" lon="10.4455386"><ele>99.0</ele><time>2026-04-04T07:33:50.069Z</time></trkpt><trkpt lat="44.6991142" lon="10.4457541"><ele>99.0</ele><time>2026-04-04T07:33:51.084Z</time></trkpt><trkpt lat="44.6990644" lon="10.4459727"><ele>99.0</ele><time>2026-04-04T07:33:52.067Z</time></trkpt><trkpt lat="44.6990173" lon="10.4461845"><ele>99.0</ele><time>2026-04-04T07:33:53.067Z</time></trkpt><trkpt lat="44.6989603" lon="10.4463935"><ele>99.0</ele><time>2026-04-04T07:33:54.075Z</time></trkpt><trkpt lat="44.6989082" lon="10.4465731"><ele>99.0</ele><time>2026-04-04T07:33:55.079Z</time></trkpt><trkpt lat="44.698865" lon="10.4467268"><ele>99.0</ele><time>2026-04-04T07:33:56.091Z</time></trkpt><trkpt lat="44.6988222" lon="10.4468643"><ele>99.0</ele><time>2026-04-04T07:33:57.076Z</time></trkpt><trkpt lat="44.6987897" lon="10.4469912"><ele>99.0</ele><time>2026-04-04T07:33:58.083Z</time></trkpt><trkpt lat="44.6987568" lon="10.4471274"><ele>99.0</ele><time>2026-04-04T07:33:59.08Z</time></trkpt><trkpt lat="44.6987192" lon="10.447257"><ele>99.0</ele><time>2026-04-04T07:34:00.074Z</time></trkpt><trkpt lat="44.6986909" lon="10.4473877"><ele>99.0</ele><time>2026-04-04T07:34:01.075Z</time></trkpt><trkpt lat="44.6986616" lon="10.4475066"><ele>99.0</ele><time>2026-04-04T07:34:02.073Z</time></trkpt><trkpt lat="44.6986316" lon="10.4476302"><ele>99.0</ele><time>2026-04-04T07:34:03.072Z</time></trkpt><trkpt lat="44.6985976" lon="10.4477507"><ele>99.0</ele><time>2026-04-04T07:34:04.063Z</time></trkpt><trkpt lat="44.6985608" lon="10.4478762"><ele>99.0</ele><time>2026-04-04T07:34:05.067Z</time></trkpt><trkpt lat="44.6985264" lon="10.4480006"><ele>99.0</ele><time>2026-04-04T07:34:06.064Z</time></trkpt><trkpt lat="44.6984985" lon="10.4481199"><ele>99.0</ele><time>2026-04-04T07:34:07.065Z</time></trkpt><trkpt lat="44.6984783" lon="10.4482153"><ele>99.0</ele><time>2026-04-04T07:34:08.076Z</time></trkpt><trkpt lat="44.6984614" lon="10.4483366"><ele>99.0</ele><time>2026-04-04T07:34:15.074Z</time></trkpt><trkpt lat="44.6983506" lon="10.4484312"><ele>99.0</ele><time>2026-04-04T07:34:18.074Z</time></trkpt><trkpt lat="44.6982661" lon="10.4484321"><ele>99.0</ele><time>2026-04-04T07:34:19.076Z</time></trkpt><trkpt lat="44.6981689" lon="10.4483893"><ele>99.0</ele><time>2026-04-04T07:34:20.062Z</time></trkpt><trkpt lat="44.6980577" lon="10.4483122"><ele>99.0</ele><time>2026-04-04T07:34:21.063Z</time></trkpt><trkpt lat="44.6979456" lon="10.4482477"><ele>99.0</ele><time>2026-04-04T07:34:22.074Z</time></trkpt><trkpt lat="44.6978252" lon="10.4481882"><ele>99.0</ele><time>2026-04-04T07:34:23.061Z</time></trkpt><trkpt lat="44.6977154" lon="10.4481412"><ele>99.2</ele><time>2026-04-04T07:34:24.066Z</time></trkpt><trkpt lat="44.6976072" lon="10.4480955"><ele>99.4</ele><time>2026-04-04T07:34:25.073Z</time></trkpt><trkpt lat="44.6975034" lon="10.4480459"><ele>99.6</ele><time>2026-04-04T07:34:26.078Z</time></trkpt><trkpt lat="44.6974046" lon="10.447998"><ele>99.8</ele><time>2026-04-04T07:34:27.07Z</time></trkpt><trkpt lat="44.6973095" lon="10.4479533"><ele>100.0</ele><time>2026-04-04T07:34:28.08Z</time></trkpt><trkpt lat="44.6972198" lon="10.4479098"><ele>100.0</ele><time>2026-04-04T07:34:29.066Z</time></trkpt><trkpt lat="44.6971329" lon="10.4478672"><ele>100.0</ele><time>2026-04-04T07:34:30.076Z</time></trkpt><trkpt lat="44.6970441" lon="10.4478247"><ele>100.0</ele><time>2026-04-04T07:34:31.079Z</time></trkpt><trkpt lat="44.6969553" lon="10.4477859"><ele>100.0</ele><time>2026-04-04T07:34:32.071Z</time></trkpt><trkpt lat="44.6968639" lon="10.4477455"><ele>100.0</ele><time>2026-04-04T07:34:33.066Z</time></trkpt><trkpt lat="44.6967679" lon="10.4476981"><ele>100.2</ele><time>2026-04-04T07:34:34.071Z</time></trkpt><trkpt lat="44.6966619" lon="10.4476482"><ele>100.4</ele><time>2026-04-04T07:34:35.068Z</time></trkpt><trkpt lat="44.6965594" lon="10.4476024"><ele>100.6</ele><time>2026-04-04T07:34:36.066Z</time></trkpt><trkpt lat="44.6964603" lon="10.4475627"><ele>100.8</ele><time>2026-04-04T07:34:37.071Z</time></trkpt><trkpt lat="44.6963712" lon="10.4475239"><ele>101.0</ele><time>2026-04-04T07:34:38.067Z</time></trkpt><trkpt lat="44.6962984" lon="10.4475"><ele>100.99999999999999</ele><time>2026-04-04T07:34:39.067Z</time></trkpt><trkpt lat="44.6962332" lon="10.4474804"><ele>101.0</ele><time>2026-04-04T07:34:40.07Z</time></trkpt><trkpt lat="44.696139" lon="10.4474547"><ele>101.0</ele><time>2026-04-04T07:34:42.066Z</time></trkpt><trkpt lat="44.6960497" lon="10.4474176"><ele>101.0</ele><time>2026-04-04T07:34:45.077Z</time></trkpt><trkpt lat="44.6959504" lon="10.4473741"><ele>100.99999999999999</ele><time>2026-04-04T07:34:47.077Z</time></trkpt><trkpt lat="44.6958812" lon="10.4473368"><ele>101.0</ele><time>2026-04-04T07:34:48.085Z</time></trkpt><trkpt lat="44.6957992" lon="10.4472915"><ele>101.4</ele><time>2026-04-04T07:34:49.086Z</time></trkpt><trkpt lat="44.6957098" lon="10.4472471"><ele>101.8</ele><time>2026-04-04T07:34:50.077Z</time></trkpt><trkpt lat="44.6956162" lon="10.4472042"><ele>102.2</ele><time>2026-04-04T07:34:51.076Z</time></trkpt><trkpt lat="44.6955105" lon="10.4471534"><ele>102.60000000000001</ele><time>2026-04-04T07:34:52.074Z</time></trkpt><trkpt lat="44.6954025" lon="10.4471079"><ele>103.0</ele><time>2026-04-04T07:34:53.091Z</time></trkpt><trkpt lat="44.6952919" lon="10.447057"><ele>103.2</ele><time>2026-04-04T07:34:54.079Z</time></trkpt><trkpt lat="44.6951797" lon="10.447008"><ele>103.4</ele><time>2026-04-04T07:34:55.082Z</time></trkpt><trkpt lat="44.6950659" lon="10.4469592"><ele>103.60000000000001</ele><time>2026-04-04T07:34:56.078Z</time></trkpt><trkpt lat="44.6949602" lon="10.4469149"><ele>103.80000000000001</ele><time>2026-04-04T07:34:57.077Z</time></trkpt><trkpt lat="44.6948694" lon="10.4468821"><ele>104.0</ele><time>2026-04-04T07:34:58.082Z</time></trkpt><trkpt lat="44.6947936" lon="10.4468481"><ele>103.99999999999999</ele><time>2026-04-04T07:34:59.077Z</time></trkpt><trkpt lat="44.6947301" lon="10.4468049"><ele>104.0</ele><time>2026-04-04T07:35:00.07Z</time></trkpt><trkpt lat="44.6946808" lon="10.4467482"><ele>104.0</ele><time>2026-04-04T07:35:01.075Z</time></trkpt><trkpt lat="44.694584" lon="10.4466676"><ele>104.0</ele><time>2026-04-04T07:35:03.087Z</time></trkpt><trkpt lat="44.6945224" lon="10.4467949"><ele>103.99999999999999</ele><time>2026-04-04T07:35:05.084Z</time></trkpt><trkpt lat="44.6944946" lon="10.446893"><ele>104.0</ele><time>2026-04-04T07:35:06.098Z</time></trkpt><trkpt lat="44.6944456" lon="10.4469843"><ele>104.0</ele><time>2026-04-04T07:35:07.109Z</time></trkpt><trkpt lat="44.6943613" lon="10.4470529"><ele>104.0</ele><time>2026-04-04T07:35:08.093Z</time></trkpt><trkpt lat="44.6942601" lon="10.4471193"><ele>104.0</ele><time>2026-04-04T07:35:09.098Z</time></trkpt><trkpt lat="44.6941425" lon="10.4471926"><ele>104.0</ele><time>2026-04-04T07:35:10.065Z</time></trkpt><trkpt lat="44.6940089" lon="10.4472663"><ele>104.0</ele><time>2026-04-04T07:35:11.06Z</time></trkpt><trkpt lat="44.6938559" lon="10.4473342"><ele>104.0</ele><time>2026-04-04T07:35:12.073Z</time></trkpt><trkpt lat="44.6936939" lon="10.4473855"><ele>104.0</ele><time>2026-04-04T07:35:13.073Z</time></trkpt><trkpt lat="44.6935336" lon="10.4474372"><ele>104.0</ele><time>2026-04-04T07:35:14.071Z</time></trkpt><trkpt lat="44.6933756" lon="10.4474837"><ele>104.0</ele><time>2026-04-04T07:35:15.077Z</time></trkpt><trkpt lat="44.6932132" lon="10.4475297"><ele>104.0</ele><time>2026-04-04T07:35:16.069Z</time></trkpt><trkpt lat="44.6930446" lon="10.447564"><ele>104.0</ele><time>2026-04-04T07:35:17.076Z</time></trkpt><trkpt lat="44.692865" lon="10.4475943"><ele>104.0</ele><time>2026-04-04T07:35:18.081Z</time></trkpt><trkpt lat="44.6926746" lon="10.447631"><ele>104.0</ele><time>2026-04-04T07:35:19.082Z</time></trkpt><trkpt lat="44.6924754" lon="10.4476675"><ele>104.0</ele><time>2026-04-04T07:35:20.086Z</time></trkpt><trkpt lat="44.6922683" lon="10.4477082"><ele>104.0</ele><time>2026-04-04T07:35:21.087Z</time></trkpt><trkpt lat="44.6920626" lon="10.4477468"><ele>104.0</ele><time>2026-04-04T07:35:22.089Z</time></trkpt><trkpt lat="44.6918589" lon="10.4478023"><ele>104.33333333333333</ele><time>2026-04-04T07:35:23.085Z</time></trkpt><trkpt lat="44.6916735" lon="10.4478559"><ele>104.66666666666666</ele><time>2026-04-04T07:35:24.102Z</time></trkpt><trkpt lat="44.6914972" lon="10.4479111"><ele>105.0</ele><time>2026-04-04T07:35:25.092Z</time></trkpt><trkpt lat="44.6913225" lon="10.4479684"><ele>105.33333333333334</ele><time>2026-04-04T07:35:26.087Z</time></trkpt><trkpt lat="44.6911464" lon="10.4480372"><ele>105.66666666666667</ele><time>2026-04-04T07:35:27.083Z</time></trkpt><trkpt lat="44.6909659" lon="10.4481086"><ele>106.0</ele><time>2026-04-04T07:35:28.113Z</time></trkpt><trkpt lat="44.6907934" lon="10.4481774"><ele>106.0</ele><time>2026-04-04T07:35:29.083Z</time></trkpt><trkpt lat="44.6906258" lon="10.4482505"><ele>106.0</ele><time>2026-04-04T07:35:30.086Z</time></trkpt><trkpt lat="44.6904598" lon="10.4483322"><ele>106.0</ele><time>2026-04-04T07:35:31.084Z</time></trkpt><trkpt lat="44.6902989" lon="10.4484346"><ele>107.0</ele><time>2026-04-04T07:35:32.075Z</time></trkpt><trkpt lat="44.6901262" lon="10.4485537"><ele>108.0</ele><time>2026-04-04T07:35:33.085Z</time></trkpt><trkpt lat="44.6899542" lon="10.448675"><ele>109.0</ele><time>2026-04-04T07:35:34.083Z</time></trkpt><trkpt lat="44.6897712" lon="10.4488056"><ele>109.0</ele><time>2026-04-04T07:35:35.078Z</time></trkpt><trkpt lat="44.6895969" lon="10.4489337"><ele>109.0</ele><time>2026-04-04T07:35:36.081Z</time></trkpt><trkpt lat="44.689419" lon="10.4490588"><ele>109.0</ele><time>2026-04-04T07:35:37.075Z</time></trkpt><trkpt lat="44.6892354" lon="10.4491868"><ele>108.66666666666667</ele><time>2026-04-04T07:35:38.081Z</time></trkpt><trkpt lat="44.6890574" lon="10.4493099"><ele>108.33333333333334</ele><time>2026-04-04T07:35:39.091Z</time></trkpt><trkpt lat="44.688892" lon="10.4494261"><ele>108.0</ele><time>2026-04-04T07:35:40.093Z</time></trkpt><trkpt lat="44.6887394" lon="10.4495364"><ele>107.0</ele><time>2026-04-04T07:35:41.092Z</time></trkpt><trkpt lat="44.6885931" lon="10.4496401"><ele>106.0</ele><time>2026-04-04T07:35:42.09Z</time></trkpt><trkpt lat="44.6884491" lon="10.4497397"><ele>105.0</ele><time>2026-04-04T07:35:43.091Z</time></trkpt><trkpt lat="44.6883153" lon="10.4498261"><ele>104.6</ele><time>2026-04-04T07:35:44.097Z</time></trkpt><trkpt lat="44.6881879" lon="10.449895"><ele>104.2</ele><time>2026-04-04T07:35:45.083Z</time></trkpt><trkpt lat="44.688074" lon="10.4499357"><ele>103.80000000000001</ele><time>2026-04-04T07:35:46.095Z</time></trkpt><trkpt lat="44.6879761" lon="10.4499544"><ele>103.4</ele><time>2026-04-04T07:35:47.086Z</time></trkpt><trkpt lat="44.6879051" lon="10.4499605"><ele>103.0</ele><time>2026-04-04T07:35:48.098Z</time></trkpt><trkpt lat="44.6878311" lon="10.4499587"><ele>103.0</ele><time>2026-04-04T07:35:49.095Z</time></trkpt><trkpt lat="44.6877622" lon="10.4499464"><ele>103.0</ele><time>2026-04-04T07:35:50.098Z</time></trkpt><trkpt lat="44.687644" lon="10.4499095"><ele>103.0</ele><time>2026-04-04T07:35:52.104Z</time></trkpt><trkpt lat="44.6875372" lon="10.4498859"><ele>103.0</ele><time>2026-04-04T07:35:54.101Z</time></trkpt><trkpt lat="44.6874146" lon="10.4499013"><ele>103.0</ele><time>2026-04-04T07:35:56.1Z</time></trkpt><trkpt lat="44.6873425" lon="10.449963"><ele>103.75</ele><time>2026-04-04T07:35:57.1Z</time></trkpt><trkpt lat="44.6872779" lon="10.4500778"><ele>104.5</ele><time>2026-04-04T07:35:58.107Z</time></trkpt><trkpt lat="44.6872159" lon="10.4502415"><ele>105.25</ele><time>2026-04-04T07:35:59.094Z</time></trkpt><trkpt lat="44.6871443" lon="10.4504216"><ele>106.0</ele><time>2026-04-04T07:36:00.109Z</time></trkpt><trkpt lat="44.6870501" lon="10.4505966"><ele>106.33333333333334</ele><time>2026-04-04T07:36:01.103Z</time></trkpt><trkpt lat="44.6868953" lon="10.4507626"><ele>106.66666666666666</ele><time>2026-04-04T07:36:02.12Z</time></trkpt><trkpt lat="44.6867166" lon="10.4509"><ele>107.0</ele><time>2026-04-04T07:36:03.092Z</time></trkpt><trkpt lat="44.6865348" lon="10.4510273"><ele>107.0</ele><time>2026-04-04T07:36:04.094Z</time></trkpt><trkpt lat="44.6863508" lon="10.4511482"><ele>107.0</ele><time>2026-04-04T07:36:05.094Z</time></trkpt><trkpt lat="44.6861784" lon="10.4512667"><ele>107.0</ele><time>2026-04-04T07:36:06.093Z</time></trkpt><trkpt lat="44.6859982" lon="10.4513858"><ele>107.33333333333333</ele><time>2026-04-04T07:36:07.097Z</time></trkpt><trkpt lat="44.6858178" lon="10.4515102"><ele>107.66666666666666</ele><time>2026-04-04T07:36:08.095Z</time></trkpt><trkpt lat="44.6856372" lon="10.4516301"><ele>108.0</ele><time>2026-04-04T07:36:09.088Z</time></trkpt><trkpt lat="44.6854546" lon="10.4517522"><ele>108.0</ele><time>2026-04-04T07:36:10.094Z</time></trkpt><trkpt lat="44.6852699" lon="10.4518789"><ele>108.0</ele><time>2026-04-04T07:36:11.09Z</time></trkpt><trkpt lat="44.6850856" lon="10.4520065"><ele>108.0</ele><time>2026-04-04T07:36:12.094Z</time></trkpt><trkpt lat="44.6849039" lon="10.4521341"><ele>108.0</ele><time>2026-04-04T07:36:13.1Z</time></trkpt><trkpt lat="44.6847231" lon="10.452266"><ele>108.0</ele><time>2026-04-04T07:36:14.102Z</time></trkpt><trkpt lat="44.684531" lon="10.4524055"><ele>108.0</ele><time>2026-04-04T07:36:15.1Z</time></trkpt><trkpt lat="44.6843373" lon="10.4525448"><ele>108.0</ele><time>2026-04-04T07:36:16.112Z</time></trkpt><trkpt lat="44.6841409" lon="10.4526795"><ele>108.0</ele><time>2026-04-04T07:36:17.104Z</time></trkpt><trkpt lat="44.6839354" lon="10.4528164"><ele>108.0</ele><time>2026-04-04T07:36:18.109Z</time></trkpt><trkpt lat="44.6837366" lon="10.4529543"><ele>109.0</ele><time>2026-04-04T07:36:19.107Z</time></trkpt><trkpt lat="44.6835353" lon="10.4531036"><ele>110.0</ele><time>2026-04-04T07:36:20.106Z</time></trkpt><trkpt lat="44.6833321" lon="10.4532507"><ele>110.0</ele><time>2026-04-04T07:36:21.106Z</time></trkpt><trkpt lat="44.6831206" lon="10.4534001"><ele>110.0</ele><time>2026-04-04T07:36:22.105Z</time></trkpt><trkpt lat="44.6829001" lon="10.4535485"><ele>109.5</ele><time>2026-04-04T07:36:23.101Z</time></trkpt><trkpt lat="44.6826746" lon="10.453699"><ele>109.0</ele><time>2026-04-04T07:36:24.106Z</time></trkpt><trkpt lat="44.6824457" lon="10.4538502"><ele>109.0</ele><time>2026-04-04T07:36:25.11Z</time></trkpt><trkpt lat="44.6822119" lon="10.4539948"><ele>109.0</ele><time>2026-04-04T07:36:26.123Z</time></trkpt><trkpt lat="44.6819755" lon="10.4541461"><ele>109.0</ele><time>2026-04-04T07:36:27.106Z</time></trkpt><trkpt lat="44.6817367" lon="10.4542945"><ele>109.0</ele><time>2026-04-04T07:36:28.11Z</time></trkpt><trkpt lat="44.6814944" lon="10.4544186"><ele>109.0</ele><time>2026-04-04T07:36:29.108Z</time></trkpt><trkpt lat="44.6812425" lon="10.45452"><ele>109.0</ele><time>2026-04-04T07:36:30.103Z</time></trkpt><trkpt lat="44.6809848" lon="10.454606"><ele>110.0</ele><time>2026-04-04T07:36:31.104Z</time></trkpt><trkpt lat="44.6807265" lon="10.4546877"><ele>111.0</ele><time>2026-04-04T07:36:32.105Z</time></trkpt><trkpt lat="44.6804666" lon="10.4547594"><ele>110.5</ele><time>2026-04-04T07:36:33.103Z</time></trkpt><trkpt lat="44.6802093" lon="10.454806"><ele>110.0</ele><time>2026-04-04T07:36:34.107Z</time></trkpt><trkpt lat="44.6799529" lon="10.4548378"><ele>110.0</ele><time>2026-04-04T07:36:35.095Z</time></trkpt><trkpt lat="44.679705" lon="10.4548582"><ele>110.0</ele><time>2026-04-04T07:36:36.103Z</time></trkpt><trkpt lat="44.6794665" lon="10.4548812"><ele>110.5</ele><time>2026-04-04T07:36:37.101Z</time></trkpt><trkpt lat="44.6792354" lon="10.454917"><ele>111.0</ele><time>2026-04-04T07:36:38.102Z</time></trkpt><trkpt lat="44.6790152" lon="10.4549826"><ele>111.0</ele><time>2026-04-04T07:36:39.106Z</time></trkpt><trkpt lat="44.6788027" lon="10.4550878"><ele>111.0</ele><time>2026-04-04T07:36:40.094Z</time></trkpt><trkpt lat="44.6786015" lon="10.4552392"><ele>110.66666666666666</ele><time>2026-04-04T07:36:41.104Z</time></trkpt><trkpt lat="44.6784129" lon="10.4554132"><ele>110.33333333333333</ele><time>2026-04-04T07:36:42.103Z</time></trkpt><trkpt lat="44.6782305" lon="10.4555938"><ele>110.0</ele><time>2026-04-04T07:36:43.101Z</time></trkpt><trkpt lat="44.6780563" lon="10.4558003"><ele>110.0</ele><time>2026-04-04T07:36:44.109Z</time></trkpt><trkpt lat="44.6779103" lon="10.4560473"><ele>110.0</ele><time>2026-04-04T07:36:45.103Z</time></trkpt><trkpt lat="44.6777892" lon="10.45632"><ele>111.5</ele><time>2026-04-04T07:36:46.097Z</time></trkpt><trkpt lat="44.6776731" lon="10.4566174"><ele>113.0</ele><time>2026-04-04T07:36:47.113Z</time></trkpt><trkpt lat="44.6775439" lon="10.4569322"><ele>112.5</ele><time>2026-04-04T07:36:48.107Z</time></trkpt><trkpt lat="44.6774096" lon="10.4572406"><ele>112.0</ele><time>2026-04-04T07:36:49.102Z</time></trkpt><trkpt lat="44.6772768" lon="10.4575507"><ele>112.0</ele><time>2026-04-04T07:36:50.11Z</time></trkpt><trkpt lat="44.677135" lon="10.4578736"><ele>112.0</ele><time>2026-04-04T07:36:51.103Z</time></trkpt><trkpt lat="44.6769924" lon="10.4581948"><ele>111.5</ele><time>2026-04-04T07:36:52.106Z</time></trkpt><trkpt lat="44.6768438" lon="10.4585267"><ele>111.0</ele><time>2026-04-04T07:36:53.103Z</time></trkpt><trkpt lat="44.6766926" lon="10.4588623"><ele>111.0</ele><time>2026-04-04T07:36:54.098Z</time></trkpt><trkpt lat="44.6765362" lon="10.4591986"><ele>111.0</ele><time>2026-04-04T07:36:55.096Z</time></trkpt><trkpt lat="44.6763859" lon="10.4595329"><ele>111.0</ele><time>2026-04-04T07:36:56.101Z</time></trkpt><trkpt lat="44.676243" lon="10.4598518"><ele>111.0</ele><time>2026-04-04T07:36:57.112Z</time></trkpt><trkpt lat="44.6760931" lon="10.4601723"><ele>111.0</ele><time>2026-04-04T07:36:58.103Z</time></trkpt><trkpt lat="44.6759289" lon="10.4604805"><ele>111.0</ele><time>2026-04-04T07:36:59.102Z</time></trkpt><trkpt lat="44.6757458" lon="10.4607674"><ele>111.0</ele><time>2026-04-04T07:37:00.1Z</time></trkpt><trkpt lat="44.6755563" lon="10.4610252"><ele>111.0</ele><time>2026-04-04T07:37:01.1Z</time></trkpt><trkpt lat="44.675371" lon="10.4612583"><ele>112.0</ele><time>2026-04-04T07:37:02.1Z</time></trkpt><trkpt lat="44.6751757" lon="10.461474"><ele>113.0</ele><time>2026-04-04T07:37:03.102Z</time></trkpt><trkpt lat="44.6749801" lon="10.461661"><ele>113.0</ele><time>2026-04-04T07:37:04.099Z</time></trkpt><trkpt lat="44.6747804" lon="10.4618406"><ele>113.0</ele><time>2026-04-04T07:37:05.1Z</time></trkpt><trkpt lat="44.6745872" lon="10.4620157"><ele>113.33333333333333</ele><time>2026-04-04T07:37:06.101Z</time></trkpt><trkpt lat="44.6744027" lon="10.4621873"><ele>113.66666666666666</ele><time>2026-04-04T07:37:07.097Z</time></trkpt><trkpt lat="44.6742256" lon="10.4623568"><ele>114.0</ele><time>2026-04-04T07:37:08.099Z</time></trkpt><trkpt lat="44.6740507" lon="10.4625153"><ele>114.0</ele><time>2026-04-04T07:37:09.098Z</time></trkpt><trkpt lat="44.6738844" lon="10.462665"><ele>114.0</ele><time>2026-04-04T07:37:10.098Z</time></trkpt><trkpt lat="44.6737269" lon="10.4628162"><ele>114.0</ele><time>2026-04-04T07:37:11.098Z</time></trkpt><trkpt lat="44.6735718" lon="10.4629731"><ele>114.33333333333334</ele><time>2026-04-04T07:37:12.096Z</time></trkpt><trkpt lat="44.673417" lon="10.4631349"><ele>114.66666666666667</ele><time>2026-04-04T07:37:13.088Z</time></trkpt><trkpt lat="44.6732444" lon="10.4632956"><ele>115.0</ele><time>2026-04-04T07:37:14.1Z</time></trkpt><trkpt lat="44.6730773" lon="10.4634471"><ele>115.0</ele><time>2026-04-04T07:37:15.102Z</time></trkpt><trkpt lat="44.6729147" lon="10.4635938"><ele>115.0</ele><time>2026-04-04T07:37:16.097Z</time></trkpt><trkpt lat="44.6727569" lon="10.4637395"><ele>115.0</ele><time>2026-04-04T07:37:17.097Z</time></trkpt><trkpt lat="44.6726064" lon="10.4638842"><ele>114.33333333333334</ele><time>2026-04-04T07:37:18.11Z</time></trkpt><trkpt lat="44.6724587" lon="10.464023"><ele>113.66666666666666</ele><time>2026-04-04T07:37:19.104Z</time></trkpt><trkpt lat="44.6723173" lon="10.4641538"><ele>113.0</ele><time>2026-04-04T07:37:20.11Z</time></trkpt><trkpt lat="44.6721685" lon="10.4642675"><ele>113.0</ele><time>2026-04-04T07:37:21.103Z</time></trkpt><trkpt lat="44.6720152" lon="10.4643608"><ele>113.0</ele><time>2026-04-04T07:37:22.104Z</time></trkpt><trkpt lat="44.6718572" lon="10.4644466"><ele>113.0</ele><time>2026-04-04T07:37:23.1Z</time></trkpt><trkpt lat="44.6717052" lon="10.464519"><ele>113.25</ele><time>2026-04-04T07:37:24.109Z</time></trkpt><trkpt lat="44.6715607" lon="10.4645725"><ele>113.5</ele><time>2026-04-04T07:37:25.104Z</time></trkpt><trkpt lat="44.6714188" lon="10.4646165"><ele>113.75</ele><time>2026-04-04T07:37:26.104Z</time></trkpt><trkpt lat="44.6712704" lon="10.4646653"><ele>114.0</ele><time>2026-04-04T07:37:27.104Z</time></trkpt><trkpt lat="44.6711291" lon="10.4647129"><ele>114.25</ele><time>2026-04-04T07:37:28.123Z</time></trkpt><trkpt lat="44.6710011" lon="10.4647582"><ele>114.5</ele><time>2026-04-04T07:37:29.108Z</time></trkpt><trkpt lat="44.6708806" lon="10.4648146"><ele>114.75</ele><time>2026-04-04T07:37:30.122Z</time></trkpt><trkpt lat="44.6707732" lon="10.464915"><ele>115.0</ele><time>2026-04-04T07:37:31.103Z</time></trkpt><trkpt lat="44.6706903" lon="10.4650765"><ele>115.0</ele><time>2026-04-04T07:37:32.105Z</time></trkpt><trkpt lat="44.6706365" lon="10.4652662"><ele>115.0</ele><time>2026-04-04T07:37:33.098Z</time></trkpt><trkpt lat="44.670595" lon="10.4654922"><ele>115.0</ele><time>2026-04-04T07:37:34.093Z</time></trkpt><trkpt lat="44.6705516" lon="10.4657339"><ele>114.66666666666667</ele><time>2026-04-04T07:37:35.088Z</time></trkpt><trkpt lat="44.6705088" lon="10.465998"><ele>114.33333333333334</ele><time>2026-04-04T07:37:36.098Z</time></trkpt><trkpt lat="44.6704657" lon="10.4662866"><ele>114.0</ele><time>2026-04-04T07:37:37.105Z</time></trkpt><trkpt lat="44.6704154" lon="10.4666046"><ele>114.0</ele><time>2026-04-04T07:37:38.096Z</time></trkpt><trkpt lat="44.670341" lon="10.4669095"><ele>114.0</ele><time>2026-04-04T07:37:39.102Z</time></trkpt><trkpt lat="44.6702677" lon="10.4671851"><ele>114.0</ele><time>2026-04-04T07:37:40.107Z</time></trkpt><trkpt lat="44.6702108" lon="10.467429"><ele>114.0</ele><time>2026-04-04T07:37:41.108Z</time></trkpt><trkpt lat="44.6701629" lon="10.4676515"><ele>114.0</ele><time>2026-04-04T07:37:42.094Z</time></trkpt><trkpt lat="44.6701205" lon="10.4678581"><ele>114.0</ele><time>2026-04-04T07:37:43.106Z</time></trkpt><trkpt lat="44.6700713" lon="10.4680542"><ele>114.0</ele><time>2026-04-04T07:37:44.106Z</time></trkpt><trkpt lat="44.670032" lon="10.4682369"><ele>114.0</ele><time>2026-04-04T07:37:45.102Z</time></trkpt><trkpt lat="44.669993" lon="10.4684162"><ele>114.0</ele><time>2026-04-04T07:37:46.104Z</time></trkpt><trkpt lat="44.6699535" lon="10.4686021"><ele>114.0</ele><time>2026-04-04T07:37:47.097Z</time></trkpt><trkpt lat="44.6699138" lon="10.4687854"><ele>114.0</ele><time>2026-04-04T07:37:48.112Z</time></trkpt><trkpt lat="44.6698741" lon="10.4689676"><ele>114.0</ele><time>2026-04-04T07:37:49.108Z</time></trkpt><trkpt lat="44.6698343" lon="10.4691431"><ele>114.0</ele><time>2026-04-04T07:37:50.11Z</time></trkpt><trkpt lat="44.6697907" lon="10.4693232"><ele>114.0</ele><time>2026-04-04T07:37:51.102Z</time></trkpt><trkpt lat="44.6697431" lon="10.4695224"><ele>114.0</ele><time>2026-04-04T07:37:52.113Z</time></trkpt><trkpt lat="44.669688" lon="10.469738"><ele>114.0</ele><time>2026-04-04T07:37:53.105Z</time></trkpt><trkpt lat="44.6696332" lon="10.4699487"><ele>114.0</ele><time>2026-04-04T07:37:54.109Z</time></trkpt><trkpt lat="44.669581" lon="10.4701526"><ele>114.0</ele><time>2026-04-04T07:37:55.112Z</time></trkpt><trkpt lat="44.6695293" lon="10.4703668"><ele>114.0</ele><time>2026-04-04T07:37:56.103Z</time></trkpt><trkpt lat="44.669471" lon="10.4705828"><ele>114.0</ele><time>2026-04-04T07:37:57.106Z</time></trkpt><trkpt lat="44.6694113" lon="10.4708024"><ele>114.0</ele><time>2026-04-04T07:37:58.11Z</time></trkpt><trkpt lat="44.6693602" lon="10.4710237"><ele>114.0</ele><time>2026-04-04T07:37:59.125Z</time></trkpt><trkpt lat="44.669311" lon="10.4712544"><ele>114.0</ele><time>2026-04-04T07:38:00.106Z</time></trkpt><trkpt lat="44.6692612" lon="10.4715457"><ele>114.0</ele><time>2026-04-04T07:38:01.095Z</time></trkpt><trkpt lat="44.6691844" lon="10.471801"><ele>114.0</ele><time>2026-04-04T07:38:02.108Z</time></trkpt><trkpt lat="44.6691251" lon="10.4719917"><ele>114.0</ele><time>2026-04-04T07:38:03.097Z</time></trkpt><trkpt lat="44.6690733" lon="10.4721631"><ele>114.0</ele><time>2026-04-04T07:38:04.106Z</time></trkpt><trkpt lat="44.6690228" lon="10.4723304"><ele>114.0</ele><time>2026-04-04T07:38:05.102Z</time></trkpt><trkpt lat="44.6689788" lon="10.4724933"><ele>114.0</ele><time>2026-04-04T07:38:06.104Z</time></trkpt><trkpt lat="44.6689314" lon="10.4726609"><ele>114.0</ele><time>2026-04-04T07:38:07.104Z</time></trkpt><trkpt lat="44.668879" lon="10.472821"><ele>114.0</ele><time>2026-04-04T07:38:08.098Z</time></trkpt><trkpt lat="44.6688298" lon="10.472987"><ele>114.0</ele><time>2026-04-04T07:38:09.101Z</time></trkpt><trkpt lat="44.6687704" lon="10.4731432"><ele>114.0</ele><time>2026-04-04T07:38:10.102Z</time></trkpt><trkpt lat="44.6686973" lon="10.4732921"><ele>114.0</ele><time>2026-04-04T07:38:11.121Z</time></trkpt><trkpt lat="44.6685997" lon="10.4734627"><ele>114.0</ele><time>2026-04-04T07:38:12.131Z</time></trkpt><trkpt lat="44.668448" lon="10.4736731"><ele>114.0</ele><time>2026-04-04T07:38:13.128Z</time></trkpt><trkpt lat="44.6682344" lon="10.4739099"><ele>114.5</ele><time>2026-04-04T07:38:14.096Z</time></trkpt><trkpt lat="44.6680083" lon="10.4741468"><ele>115.0</ele><time>2026-04-04T07:38:15.091Z</time></trkpt><trkpt lat="44.6678095" lon="10.4744096"><ele>117.33333333333334</ele><time>2026-04-04T07:38:16.088Z</time></trkpt><trkpt lat="44.6676383" lon="10.4746397"><ele>119.66666666666666</ele><time>2026-04-04T07:38:17.099Z</time></trkpt><trkpt lat="44.6675179" lon="10.4748412"><ele>122.0</ele><time>2026-04-04T07:38:18.1Z</time></trkpt><trkpt lat="44.6674111" lon="10.4750571"><ele>122.0</ele><time>2026-04-04T07:38:19.089Z</time></trkpt><trkpt lat="44.6673277" lon="10.4753345"><ele>122.0</ele><time>2026-04-04T07:38:20.098Z</time></trkpt><trkpt lat="44.6672444" lon="10.4756604"><ele>122.33333333333333</ele><time>2026-04-04T07:38:21.078Z</time></trkpt><trkpt lat="44.6671578" lon="10.4759525"><ele>122.66666666666666</ele><time>2026-04-04T07:38:22.084Z</time></trkpt><trkpt lat="44.6670818" lon="10.4762157"><ele>123.0</ele><time>2026-04-04T07:38:23.092Z</time></trkpt><trkpt lat="44.6670168" lon="10.4764211"><ele>123.0</ele><time>2026-04-04T07:38:24.082Z</time></trkpt><trkpt lat="44.6669517" lon="10.4765818"><ele>123.00000000000001</ele><time>2026-04-04T07:38:25.076Z</time></trkpt><trkpt lat="44.6669102" lon="10.4766978"><ele>123.00000000000001</ele><time>2026-04-04T07:38:26.074Z</time></trkpt><trkpt lat="44.6668764" lon="10.476782"><ele>123.0</ele><time>2026-04-04T07:38:27.072Z</time></trkpt><trkpt lat="44.6668324" lon="10.4768666"><ele>123.0</ele><time>2026-04-04T07:38:28.077Z</time></trkpt><trkpt lat="44.6667859" lon="10.4769642"><ele>123.0</ele><time>2026-04-04T07:38:29.075Z</time></trkpt><trkpt lat="44.6667585" lon="10.477066"><ele>123.0</ele><time>2026-04-04T07:38:30.091Z</time></trkpt><trkpt lat="44.6667409" lon="10.4771748"><ele>123.0</ele><time>2026-04-04T07:38:31.077Z</time></trkpt><trkpt lat="44.6667048" lon="10.477299"><ele>123.0</ele><time>2026-04-04T07:38:32.089Z</time></trkpt><trkpt lat="44.6666642" lon="10.4774248"><ele>123.0</ele><time>2026-04-04T07:38:33.086Z</time></trkpt><trkpt lat="44.6666244" lon="10.4775472"><ele>123.0</ele><time>2026-04-04T07:38:34.092Z</time></trkpt><trkpt lat="44.6665863" lon="10.4776757"><ele>123.0</ele><time>2026-04-04T07:38:35.084Z</time></trkpt><trkpt lat="44.6665504" lon="10.4778238"><ele>123.0</ele><time>2026-04-04T07:38:36.092Z</time></trkpt><trkpt lat="44.6665029" lon="10.4779772"><ele>123.0</ele><time>2026-04-04T07:38:37.093Z</time></trkpt><trkpt lat="44.6664526" lon="10.4781338"><ele>123.0</ele><time>2026-04-04T07:38:38.095Z</time></trkpt><trkpt lat="44.6663944" lon="10.4782921"><ele>123.0</ele><time>2026-04-04T07:38:39.092Z</time></trkpt><trkpt lat="44.6663398" lon="10.4784564"><ele>123.0</ele><time>2026-04-04T07:38:40.099Z</time></trkpt><trkpt lat="44.666289" lon="10.478624"><ele>123.0</ele><time>2026-04-04T07:38:41.092Z</time></trkpt><trkpt lat="44.6662395" lon="10.4787857"><ele>123.0</ele><time>2026-04-04T07:38:42.098Z</time></trkpt><trkpt lat="44.66619" lon="10.4789317"><ele>122.60000000000001</ele><time>2026-04-04T07:38:43.098Z</time></trkpt><trkpt lat="44.6661364" lon="10.4790653"><ele>122.20000000000002</ele><time>2026-04-04T07:38:44.126Z</time></trkpt><trkpt lat="44.6660709" lon="10.4791892"><ele>121.8</ele><time>2026-04-04T07:38:45.13Z</time></trkpt><trkpt lat="44.665997" lon="10.479294"><ele>121.4</ele><time>2026-04-04T07:38:46.111Z</time></trkpt><trkpt lat="44.6659186" lon="10.4793864"><ele>121.0</ele><time>2026-04-04T07:38:47.108Z</time></trkpt><trkpt lat="44.6658432" lon="10.4794538"><ele>121.0</ele><time>2026-04-04T07:38:48.112Z</time></trkpt><trkpt lat="44.6657638" lon="10.4794974"><ele>121.0</ele><time>2026-04-04T07:38:49.108Z</time></trkpt><trkpt lat="44.6656808" lon="10.4794989"><ele>121.0</ele><time>2026-04-04T07:38:50.112Z</time></trkpt><trkpt lat="44.6655901" lon="10.479506"><ele>121.0</ele><time>2026-04-04T07:38:51.112Z</time></trkpt><trkpt lat="44.6655047" lon="10.4795696"><ele>121.0</ele><time>2026-04-04T07:38:52.094Z</time></trkpt><trkpt lat="44.6654083" lon="10.4796495"><ele>121.0</ele><time>2026-04-04T07:38:53.107Z</time></trkpt><trkpt lat="44.6652994" lon="10.479716"><ele>121.0</ele><time>2026-04-04T07:38:54.098Z</time></trkpt><trkpt lat="44.6651842" lon="10.4797498"><ele>121.0</ele><time>2026-04-04T07:38:55.101Z</time></trkpt><trkpt lat="44.6650748" lon="10.4797621"><ele>121.0</ele><time>2026-04-04T07:38:56.094Z</time></trkpt><trkpt lat="44.6649758" lon="10.4797606"><ele>121.0</ele><time>2026-04-04T07:38:57.108Z</time></trkpt><trkpt lat="44.6648798" lon="10.4797534"><ele>121.33333333333334</ele><time>2026-04-04T07:38:58.109Z</time></trkpt><trkpt lat="44.6647849" lon="10.4797344"><ele>121.66666666666667</ele><time>2026-04-04T07:38:59.099Z</time></trkpt><trkpt lat="44.6646939" lon="10.4797041"><ele>122.0</ele><time>2026-04-04T07:39:00.099Z</time></trkpt><trkpt lat="44.6646131" lon="10.4796712"><ele>122.33333333333334</ele><time>2026-04-04T07:39:01.109Z</time></trkpt><trkpt lat="44.6645344" lon="10.4796297"><ele>122.66666666666667</ele><time>2026-04-04T07:39:02.094Z</time></trkpt><trkpt lat="44.6644606" lon="10.4795694"><ele>123.0</ele><time>2026-04-04T07:39:03.1Z</time></trkpt><trkpt lat="44.6643926" lon="10.479483"><ele>123.0</ele><time>2026-04-04T07:39:04.084Z</time></trkpt><trkpt lat="44.6643122" lon="10.4793735"><ele>123.0</ele><time>2026-04-04T07:39:05.085Z</time></trkpt><trkpt lat="44.6642075" lon="10.4792685"><ele>123.0</ele><time>2026-04-04T07:39:06.091Z</time></trkpt><trkpt lat="44.6640774" lon="10.4791715"><ele>123.0</ele><time>2026-04-04T07:39:07.094Z</time></trkpt><trkpt lat="44.663917" lon="10.479079"><ele>123.0</ele><time>2026-04-04T07:39:08.081Z</time></trkpt><trkpt lat="44.6637218" lon="10.4789868"><ele>123.0</ele><time>2026-04-04T07:39:09.089Z</time></trkpt><trkpt lat="44.6635142" lon="10.4788949"><ele>123.0</ele><time>2026-04-04T07:39:10.088Z</time></trkpt><trkpt lat="44.6632995" lon="10.478799"><ele>123.33333333333334</ele><time>2026-04-04T07:39:11.095Z</time></trkpt><trkpt lat="44.6630901" lon="10.4787039"><ele>123.66666666666667</ele><time>2026-04-04T07:39:12.089Z</time></trkpt><trkpt lat="44.6628765" lon="10.4786124"><ele>124.0</ele><time>2026-04-04T07:39:13.096Z</time></trkpt><trkpt lat="44.6626676" lon="10.4785153"><ele>124.33333333333334</ele><time>2026-04-04T07:39:14.104Z</time></trkpt><trkpt lat="44.6624587" lon="10.47842"><ele>124.66666666666666</ele><time>2026-04-04T07:39:15.094Z</time></trkpt><trkpt lat="44.6622583" lon="10.4783213"><ele>125.0</ele><time>2026-04-04T07:39:16.098Z</time></trkpt><trkpt lat="44.6620588" lon="10.4782254"><ele>124.66666666666666</ele><time>2026-04-04T07:39:17.093Z</time></trkpt><trkpt lat="44.6618617" lon="10.4781287"><ele>124.33333333333334</ele><time>2026-04-04T07:39:18.093Z</time></trkpt><trkpt lat="44.6616755" lon="10.4780396"><ele>124.0</ele><time>2026-04-04T07:39:19.091Z</time></trkpt><trkpt lat="44.6614979" lon="10.4779558"><ele>124.66666666666667</ele><time>2026-04-04T07:39:20.094Z</time></trkpt><trkpt lat="44.6613222" lon="10.4778731"><ele>125.33333333333334</ele><time>2026-04-04T07:39:21.099Z</time></trkpt><trkpt lat="44.6611482" lon="10.4777768"><ele>126.0</ele><time>2026-04-04T07:39:22.099Z</time></trkpt><trkpt lat="44.6609819" lon="10.4776798"><ele>126.0</ele><time>2026-04-04T07:39:23.104Z</time></trkpt><trkpt lat="44.6608158" lon="10.4775836"><ele>126.0</ele><time>2026-04-04T07:39:24.101Z</time></trkpt><trkpt lat="44.6606539" lon="10.4774836"><ele>126.0</ele><time>2026-04-04T07:39:25.103Z</time></trkpt><trkpt lat="44.6605" lon="10.4773882"><ele>126.0</ele><time>2026-04-04T07:39:26.097Z</time></trkpt><trkpt lat="44.6603657" lon="10.4773138"><ele>126.0</ele><time>2026-04-04T07:39:27.097Z</time></trkpt><trkpt lat="44.6602538" lon="10.4772372"><ele>126.0</ele><time>2026-04-04T07:39:28.109Z</time></trkpt><trkpt lat="44.6601691" lon="10.4771406"><ele>126.0</ele><time>2026-04-04T07:39:29.108Z</time></trkpt><trkpt lat="44.6600781" lon="10.4770253"><ele>126.75</ele><time>2026-04-04T07:39:30.104Z</time></trkpt><trkpt lat="44.6599708" lon="10.4769416"><ele>127.5</ele><time>2026-04-04T07:39:31.104Z</time></trkpt><trkpt lat="44.6598506" lon="10.4768903"><ele>128.25</ele><time>2026-04-04T07:39:32.121Z</time></trkpt><trkpt lat="44.6597226" lon="10.4768326"><ele>129.0</ele><time>2026-04-04T07:39:33.101Z</time></trkpt><trkpt lat="44.6595905" lon="10.4767482"><ele>129.0</ele><time>2026-04-04T07:39:34.108Z</time></trkpt><trkpt lat="44.6594514" lon="10.4766582"><ele>129.0</ele><time>2026-04-04T07:39:35.103Z</time></trkpt><trkpt lat="44.6593177" lon="10.4765677"><ele>129.0</ele><time>2026-04-04T07:39:36.102Z</time></trkpt><trkpt lat="44.6591925" lon="10.4764848"><ele>129.0</ele><time>2026-04-04T07:39:37.099Z</time></trkpt><trkpt lat="44.6590758" lon="10.4764043"><ele>129.0</ele><time>2026-04-04T07:39:38.105Z</time></trkpt><trkpt lat="44.6589494" lon="10.4763168"><ele>129.0</ele><time>2026-04-04T07:39:39.11Z</time></trkpt><trkpt lat="44.6588214" lon="10.4762331"><ele>129.0</ele><time>2026-04-04T07:39:40.101Z</time></trkpt><trkpt lat="44.6586904" lon="10.4761382"><ele>129.0</ele><time>2026-04-04T07:39:41.095Z</time></trkpt><trkpt lat="44.6585597" lon="10.476039"><ele>129.5</ele><time>2026-04-04T07:39:42.101Z</time></trkpt><trkpt lat="44.6584354" lon="10.4759542"><ele>130.0</ele><time>2026-04-04T07:39:43.099Z</time></trkpt><trkpt lat="44.6583124" lon="10.4758699"><ele>130.5</ele><time>2026-04-04T07:39:44.101Z</time></trkpt><trkpt lat="44.6582016" lon="10.4757949"><ele>131.0</ele><time>2026-04-04T07:39:45.099Z</time></trkpt><trkpt lat="44.6580834" lon="10.475739"><ele>131.0</ele><time>2026-04-04T07:39:46.1Z</time></trkpt><trkpt lat="44.657973" lon="10.4756984"><ele>131.0</ele><time>2026-04-04T07:39:47.105Z</time></trkpt><trkpt lat="44.6578633" lon="10.4756552"><ele>131.0</ele><time>2026-04-04T07:39:48.101Z</time></trkpt><trkpt lat="44.6577603" lon="10.475617"><ele>131.0</ele><time>2026-04-04T07:39:49.092Z</time></trkpt><trkpt lat="44.6576678" lon="10.4755679"><ele>131.0</ele><time>2026-04-04T07:39:50.101Z</time></trkpt><trkpt lat="44.657583" lon="10.4755046"><ele>130.2</ele><time>2026-04-04T07:39:51.101Z</time></trkpt><trkpt lat="44.6575121" lon="10.4754256"><ele>129.39999999999998</ele><time>2026-04-04T07:39:52.106Z</time></trkpt><trkpt lat="44.6574373" lon="10.475348"><ele>128.6</ele><time>2026-04-04T07:39:53.095Z</time></trkpt><trkpt lat="44.6573501" lon="10.475308"><ele>127.8</ele><time>2026-04-04T07:39:54.102Z</time></trkpt><trkpt lat="44.6572604" lon="10.4753089"><ele>127.0</ele><time>2026-04-04T07:39:55.1Z</time></trkpt><trkpt lat="44.6571548" lon="10.4753334"><ele>127.0</ele><time>2026-04-04T07:39:56.095Z</time></trkpt><trkpt lat="44.657037" lon="10.4753473"><ele>127.0</ele><time>2026-04-04T07:39:57.09Z</time></trkpt><trkpt lat="44.6569123" lon="10.4753395"><ele>127.0</ele><time>2026-04-04T07:39:58.1Z</time></trkpt><trkpt lat="44.6567778" lon="10.4753097"><ele>127.0</ele><time>2026-04-04T07:39:59.096Z</time></trkpt><trkpt lat="44.6566397" lon="10.4752697"><ele>126.66666666666667</ele><time>2026-04-04T07:40:00.1Z</time></trkpt><trkpt lat="44.6565009" lon="10.4752224"><ele>126.33333333333334</ele><time>2026-04-04T07:40:01.097Z</time></trkpt><trkpt lat="44.656334" lon="10.4751765"><ele>126.0</ele><time>2026-04-04T07:40:02.092Z</time></trkpt><trkpt lat="44.65614" lon="10.4751318"><ele>126.0</ele><time>2026-04-04T07:40:03.109Z</time></trkpt><trkpt lat="44.6559078" lon="10.4750664"><ele>126.0</ele><time>2026-04-04T07:40:04.093Z</time></trkpt><trkpt lat="44.6556669" lon="10.474977"><ele>126.0</ele><time>2026-04-04T07:40:05.088Z</time></trkpt><trkpt lat="44.6554261" lon="10.4748748"><ele>126.0</ele><time>2026-04-04T07:40:06.087Z</time></trkpt><trkpt lat="44.6551643" lon="10.4747846"><ele>126.5</ele><time>2026-04-04T07:40:07.085Z</time></trkpt><trkpt lat="44.6548893" lon="10.4746965"><ele>127.0</ele><time>2026-04-04T07:40:08.091Z</time></trkpt><trkpt lat="44.6546054" lon="10.4745958"><ele>128.0</ele><time>2026-04-04T07:40:09.092Z</time></trkpt><trkpt lat="44.6543231" lon="10.4744859"><ele>129.0</ele><time>2026-04-04T07:40:10.093Z</time></trkpt><trkpt lat="44.6540541" lon="10.4743802"><ele>129.0</ele><time>2026-04-04T07:40:11.082Z</time></trkpt><trkpt lat="44.6538061" lon="10.4742837"><ele>129.0</ele><time>2026-04-04T07:40:12.094Z</time></trkpt><trkpt lat="44.6535749" lon="10.4741909"><ele>130.0</ele><time>2026-04-04T07:40:13.092Z</time></trkpt><trkpt lat="44.6533613" lon="10.4741016"><ele>131.0</ele><time>2026-04-04T07:40:14.1Z</time></trkpt><trkpt lat="44.6531619" lon="10.4740154"><ele>132.0</ele><time>2026-04-04T07:40:15.094Z</time></trkpt><trkpt lat="44.6529914" lon="10.47394"><ele>132.0</ele><time>2026-04-04T07:40:16.103Z</time></trkpt><trkpt lat="44.6528652" lon="10.4738675"><ele>132.0</ele><time>2026-04-04T07:40:17.093Z</time></trkpt><trkpt lat="44.6527474" lon="10.4737965"><ele>132.0</ele><time>2026-04-04T07:40:18.096Z</time></trkpt><trkpt lat="44.6526775" lon="10.4736965"><ele>132.0</ele><time>2026-04-04T07:40:19.098Z</time></trkpt><trkpt lat="44.6526544" lon="10.4735902"><ele>132.0</ele><time>2026-04-04T07:40:20.09Z</time></trkpt><trkpt lat="44.6526421" lon="10.4734939"><ele>132.2</ele><time>2026-04-04T07:40:21.091Z</time></trkpt><trkpt lat="44.6525822" lon="10.4734364"><ele>132.39999999999998</ele><time>2026-04-04T07:40:22.091Z</time></trkpt><trkpt lat="44.6524963" lon="10.4734567"><ele>132.60000000000002</ele><time>2026-04-04T07:40:23.091Z</time></trkpt><trkpt lat="44.652392" lon="10.4734696"><ele>132.8</ele><time>2026-04-04T07:40:24.098Z</time></trkpt><trkpt lat="44.6522857" lon="10.473455"><ele>133.0</ele><time>2026-04-04T07:40:25.096Z</time></trkpt><trkpt lat="44.6521695" lon="10.4734371"><ele>133.0</ele><time>2026-04-04T07:40:26.095Z</time></trkpt><trkpt lat="44.652038" lon="10.4734155"><ele>133.0</ele><time>2026-04-04T07:40:27.093Z</time></trkpt><trkpt lat="44.6518861" lon="10.4733825"><ele>133.0</ele><time>2026-04-04T07:40:28.103Z</time></trkpt><trkpt lat="44.6517091" lon="10.4733578"><ele>133.33333333333334</ele><time>2026-04-04T07:40:29.096Z</time></trkpt><trkpt lat="44.6515282" lon="10.4733443"><ele>133.66666666666666</ele><time>2026-04-04T07:40:30.096Z</time></trkpt><trkpt lat="44.6513454" lon="10.4733205"><ele>134.0</ele><time>2026-04-04T07:40:31.103Z</time></trkpt><trkpt lat="44.6511737" lon="10.4733041"><ele>134.33333333333331</ele><time>2026-04-04T07:40:32.089Z</time></trkpt><trkpt lat="44.6510197" lon="10.4732891"><ele>134.66666666666666</ele><time>2026-04-04T07:40:33.09Z</time></trkpt><trkpt lat="44.6508719" lon="10.4732761"><ele>135.0</ele><time>2026-04-04T07:40:34.113Z</time></trkpt><trkpt lat="44.6507144" lon="10.4732669"><ele>135.0</ele><time>2026-04-04T07:40:35.077Z</time></trkpt><trkpt lat="44.6505555" lon="10.4732435"><ele>135.0</ele><time>2026-04-04T07:40:36.083Z</time></trkpt><trkpt lat="44.6504004" lon="10.4732178"><ele>135.0</ele><time>2026-04-04T07:40:37.087Z</time></trkpt><trkpt lat="44.6502377" lon="10.473192"><ele>135.33333333333334</ele><time>2026-04-04T07:40:38.088Z</time></trkpt><trkpt lat="44.6500765" lon="10.4731672"><ele>135.66666666666669</ele><time>2026-04-04T07:40:39.087Z</time></trkpt><trkpt lat="44.6499139" lon="10.4731449"><ele>136.0</ele><time>2026-04-04T07:40:40.088Z</time></trkpt><trkpt lat="44.6497566" lon="10.4731234"><ele>136.0</ele><time>2026-04-04T07:40:41.083Z</time></trkpt><trkpt lat="44.6495928" lon="10.4731032"><ele>136.0</ele><time>2026-04-04T07:40:42.087Z</time></trkpt><trkpt lat="44.6494244" lon="10.4730899"><ele>136.0</ele><time>2026-04-04T07:40:43.086Z</time></trkpt><trkpt lat="44.6492353" lon="10.4730731"><ele>136.0</ele><time>2026-04-04T07:40:44.094Z</time></trkpt><trkpt lat="44.6490313" lon="10.4730637"><ele>136.0</ele><time>2026-04-04T07:40:45.088Z</time></trkpt><trkpt lat="44.6488108" lon="10.473051"><ele>136.0</ele><time>2026-04-04T07:40:46.094Z</time></trkpt><trkpt lat="44.6485746" lon="10.4730295"><ele>137.0</ele><time>2026-04-04T07:40:47.094Z</time></trkpt><trkpt lat="44.6483464" lon="10.4730077"><ele>138.0</ele><time>2026-04-04T07:40:48.092Z</time></trkpt><trkpt lat="44.6481221" lon="10.4729784"><ele>138.0</ele><time>2026-04-04T07:40:49.088Z</time></trkpt><trkpt lat="44.6479009" lon="10.4729569"><ele>138.0</ele><time>2026-04-04T07:40:50.086Z</time></trkpt><trkpt lat="44.6476881" lon="10.4729373"><ele>138.0</ele><time>2026-04-04T07:40:51.091Z</time></trkpt><trkpt lat="44.6474917" lon="10.4729265"><ele>138.33333333333334</ele><time>2026-04-04T07:40:52.084Z</time></trkpt><trkpt lat="44.6473151" lon="10.4729067"><ele>138.66666666666669</ele><time>2026-04-04T07:40:53.089Z</time></trkpt><trkpt lat="44.6471488" lon="10.4728883"><ele>139.0</ele><time>2026-04-04T07:40:54.088Z</time></trkpt><trkpt lat="44.6469738" lon="10.4728766"><ele>139.33333333333334</ele><time>2026-04-04T07:40:55.091Z</time></trkpt><trkpt lat="44.6467833" lon="10.4728661"><ele>139.66666666666666</ele><time>2026-04-04T07:40:56.089Z</time></trkpt><trkpt lat="44.6465696" lon="10.4728545"><ele>140.0</ele><time>2026-04-04T07:40:57.092Z</time></trkpt><trkpt lat="44.64635" lon="10.47284"><ele>141.5</ele><time>2026-04-04T07:40:58.095Z</time></trkpt><trkpt lat="44.6461245" lon="10.4728227"><ele>143.0</ele><time>2026-04-04T07:40:59.087Z</time></trkpt><trkpt lat="44.645873" lon="10.472797"><ele>143.0</ele><time>2026-04-04T07:41:00.092Z</time></trkpt><trkpt lat="44.6456123" lon="10.4727659"><ele>143.0</ele><time>2026-04-04T07:41:01.097Z</time></trkpt><trkpt lat="44.6453567" lon="10.4727477"><ele>144.0</ele><time>2026-04-04T07:41:02.088Z</time></trkpt><trkpt lat="44.6451249" lon="10.4727282"><ele>145.0</ele><time>2026-04-04T07:41:03.088Z</time></trkpt><trkpt lat="44.6449093" lon="10.472708"><ele>146.0</ele><time>2026-04-04T07:41:04.091Z</time></trkpt><trkpt lat="44.6447008" lon="10.472687"><ele>146.0</ele><time>2026-04-04T07:41:05.101Z</time></trkpt><trkpt lat="44.6445074" lon="10.4726621"><ele>146.0</ele><time>2026-04-04T07:41:06.09Z</time></trkpt><trkpt lat="44.6443237" lon="10.4726396"><ele>146.0</ele><time>2026-04-04T07:41:07.092Z</time></trkpt><trkpt lat="44.644123" lon="10.4726191"><ele>146.33333333333331</ele><time>2026-04-04T07:41:08.095Z</time></trkpt><trkpt lat="44.6439093" lon="10.4725888"><ele>146.66666666666666</ele><time>2026-04-04T07:41:09.094Z</time></trkpt><trkpt lat="44.6436825" lon="10.4725676"><ele>147.0</ele><time>2026-04-04T07:41:10.084Z</time></trkpt><trkpt lat="44.643445" lon="10.4725644"><ele>145.5</ele><time>2026-04-04T07:41:11.091Z</time></trkpt><trkpt lat="44.6432121" lon="10.4725789"><ele>144.0</ele><time>2026-04-04T07:41:12.087Z</time></trkpt><trkpt lat="44.6429676" lon="10.4725983"><ele>145.0</ele><time>2026-04-04T07:41:13.092Z</time></trkpt><trkpt lat="44.6427323" lon="10.4726286"><ele>146.0</ele><time>2026-04-04T07:41:14.1Z</time></trkpt><trkpt lat="44.642502" lon="10.4726554"><ele>146.0</ele><time>2026-04-04T07:41:15.082Z</time></trkpt><trkpt lat="44.6422783" lon="10.4726849"><ele>146.0</ele><time>2026-04-04T07:41:16.087Z</time></trkpt><trkpt lat="44.6420653" lon="10.4727154"><ele>146.0</ele><time>2026-04-04T07:41:17.089Z</time></trkpt><trkpt lat="44.6418664" lon="10.4727508"><ele>146.66666666666666</ele><time>2026-04-04T07:41:18.086Z</time></trkpt><trkpt lat="44.6416849" lon="10.4727731"><ele>147.33333333333334</ele><time>2026-04-04T07:41:19.081Z</time></trkpt><trkpt lat="44.6415356" lon="10.4727964"><ele>148.0</ele><time>2026-04-04T07:41:20.092Z</time></trkpt><trkpt lat="44.6413988" lon="10.4728111"><ele>148.0</ele><time>2026-04-04T07:41:21.091Z</time></trkpt><trkpt lat="44.6412486" lon="10.4728304"><ele>148.0</ele><time>2026-04-04T07:41:22.087Z</time></trkpt><trkpt lat="44.6410862" lon="10.4728453"><ele>148.0</ele><time>2026-04-04T07:41:23.094Z</time></trkpt><trkpt lat="44.6409302" lon="10.4728713"><ele>148.25</ele><time>2026-04-04T07:41:24.088Z</time></trkpt><trkpt lat="44.6407837" lon="10.4729109"><ele>148.5</ele><time>2026-04-04T07:41:25.096Z</time></trkpt><trkpt lat="44.6406616" lon="10.4729933"><ele>148.75</ele><time>2026-04-04T07:41:26.092Z</time></trkpt><trkpt lat="44.6405705" lon="10.4731176"><ele>149.0</ele><time>2026-04-04T07:41:27.083Z</time></trkpt><trkpt lat="44.6404727" lon="10.4731883"><ele>149.0</ele><time>2026-04-04T07:41:28.098Z</time></trkpt><trkpt lat="44.6403743" lon="10.4731848"><ele>149.0</ele><time>2026-04-04T07:41:29.087Z</time></trkpt><trkpt lat="44.6403068" lon="10.4730838"><ele>149.0</ele><time>2026-04-04T07:41:30.087Z</time></trkpt><trkpt lat="44.64025" lon="10.4729676"><ele>149.0</ele><time>2026-04-04T07:41:31.094Z</time></trkpt><trkpt lat="44.6401683" lon="10.4728895"><ele>149.0</ele><time>2026-04-04T07:41:32.089Z</time></trkpt><trkpt lat="44.6400801" lon="10.4728347"><ele>149.2</ele><time>2026-04-04T07:41:33.089Z</time></trkpt><trkpt lat="44.6399874" lon="10.4728357"><ele>149.4</ele><time>2026-04-04T07:41:34.095Z</time></trkpt><trkpt lat="44.6398995" lon="10.4728985"><ele>149.6</ele><time>2026-04-04T07:41:35.094Z</time></trkpt><trkpt lat="44.6398328" lon="10.473016"><ele>149.8</ele><time>2026-04-04T07:41:36.115Z</time></trkpt><trkpt lat="44.6398079" lon="10.4731805"><ele>150.0</ele><time>2026-04-04T07:41:37.089Z</time></trkpt><trkpt lat="44.6398217" lon="10.473355"><ele>150.0</ele><time>2026-04-04T07:41:38.084Z</time></trkpt><trkpt lat="44.639879" lon="10.4735268"><ele>150.0</ele><time>2026-04-04T07:41:39.085Z</time></trkpt><trkpt lat="44.6399379" lon="10.4737131"><ele>150.0</ele><time>2026-04-04T07:41:40.083Z</time></trkpt><trkpt lat="44.6399935" lon="10.473938"><ele>150.0</ele><time>2026-04-04T07:41:41.088Z</time></trkpt><trkpt lat="44.6400209" lon="10.4741911"><ele>150.0</ele><time>2026-04-04T07:41:42.097Z</time></trkpt><trkpt lat="44.6400005" lon="10.4744592"><ele>150.0</ele><time>2026-04-04T07:41:43.086Z</time></trkpt><trkpt lat="44.639978" lon="10.474722"><ele>150.0</ele><time>2026-04-04T07:41:44.096Z</time></trkpt><trkpt lat="44.6399608" lon="10.4750068"><ele>150.0</ele><time>2026-04-04T07:41:45.088Z</time></trkpt><trkpt lat="44.6399335" lon="10.475307"><ele>150.0</ele><time>2026-04-04T07:41:46.082Z</time></trkpt><trkpt lat="44.6399008" lon="10.4756274"><ele>150.0</ele><time>2026-04-04T07:41:47.089Z</time></trkpt><trkpt lat="44.6398765" lon="10.4759575"><ele>149.0</ele><time>2026-04-04T07:41:48.079Z</time></trkpt><trkpt lat="44.6398673" lon="10.4762942"><ele>148.0</ele><time>2026-04-04T07:41:49.088Z</time></trkpt><trkpt lat="44.6398652" lon="10.4766417"><ele>148.0</ele><time>2026-04-04T07:41:50.09Z</time></trkpt><trkpt lat="44.639861" lon="10.4769884"><ele>148.0</ele><time>2026-04-04T07:41:51.093Z</time></trkpt><trkpt lat="44.6398695" lon="10.4773194"><ele>148.0</ele><time>2026-04-04T07:41:52.084Z</time></trkpt><trkpt lat="44.6398798" lon="10.4776295"><ele>148.0</ele><time>2026-04-04T07:41:53.086Z</time></trkpt><trkpt lat="44.6398953" lon="10.4779278"><ele>148.0</ele><time>2026-04-04T07:41:54.09Z</time></trkpt><trkpt lat="44.6399031" lon="10.4782312"><ele>147.5</ele><time>2026-04-04T07:41:55.089Z</time></trkpt><trkpt lat="44.6399214" lon="10.4785391"><ele>147.0</ele><time>2026-04-04T07:41:56.09Z</time></trkpt><trkpt lat="44.6399401" lon="10.4788703"><ele>146.0</ele><time>2026-04-04T07:41:57.083Z</time></trkpt><trkpt lat="44.639964" lon="10.4792202"><ele>145.0</ele><time>2026-04-04T07:41:58.094Z</time></trkpt><trkpt lat="44.6399824" lon="10.4795942"><ele>143.5</ele><time>2026-04-04T07:41:59.089Z</time></trkpt><trkpt lat="44.6400011" lon="10.4799855"><ele>142.0</ele><time>2026-04-04T07:42:00.083Z</time></trkpt><trkpt lat="44.6400131" lon="10.480383"><ele>142.0</ele><time>2026-04-04T07:42:01.09Z</time></trkpt><trkpt lat="44.6400153" lon="10.4807752"><ele>142.0</ele><time>2026-04-04T07:42:02.09Z</time></trkpt><trkpt lat="44.6400055" lon="10.4811494"><ele>142.0</ele><time>2026-04-04T07:42:03.09Z</time></trkpt><trkpt lat="44.6399858" lon="10.4815044"><ele>142.0</ele><time>2026-04-04T07:42:04.091Z</time></trkpt><trkpt lat="44.6399716" lon="10.4818658"><ele>142.0</ele><time>2026-04-04T07:42:05.091Z</time></trkpt><trkpt lat="44.6399459" lon="10.4822307"><ele>142.0</ele><time>2026-04-04T07:42:06.11Z</time></trkpt><trkpt lat="44.639918" lon="10.482605"><ele>140.5</ele><time>2026-04-04T07:42:07.094Z</time></trkpt><trkpt lat="44.639886" lon="10.4829842"><ele>139.0</ele><time>2026-04-04T07:42:08.094Z</time></trkpt><trkpt lat="44.6398524" lon="10.4833619"><ele>139.0</ele><time>2026-04-04T07:42:09.092Z</time></trkpt><trkpt lat="44.6398165" lon="10.4837428"><ele>139.0</ele><time>2026-04-04T07:42:10.095Z</time></trkpt><trkpt lat="44.6397812" lon="10.4841196"><ele>138.0</ele><time>2026-04-04T07:42:11.095Z</time></trkpt><trkpt lat="44.6397486" lon="10.4844889"><ele>137.0</ele><time>2026-04-04T07:42:12.096Z</time></trkpt><trkpt lat="44.6397136" lon="10.4848466"><ele>137.0</ele><time>2026-04-04T07:42:13.093Z</time></trkpt><trkpt lat="44.6396822" lon="10.4851937"><ele>137.0</ele><time>2026-04-04T07:42:14.098Z</time></trkpt><trkpt lat="44.6396539" lon="10.4855273"><ele>137.0</ele><time>2026-04-04T07:42:15.093Z</time></trkpt><trkpt lat="44.6396222" lon="10.4858567"><ele>137.0</ele><time>2026-04-04T07:42:16.09Z</time></trkpt><trkpt lat="44.639588" lon="10.4861824"><ele>137.33333333333331</ele><time>2026-04-04T07:42:17.092Z</time></trkpt><trkpt lat="44.6395595" lon="10.4864986"><ele>137.66666666666666</ele><time>2026-04-04T07:42:18.097Z</time></trkpt><trkpt lat="44.6395297" lon="10.4867959"><ele>138.0</ele><time>2026-04-04T07:42:19.091Z</time></trkpt><trkpt lat="44.6395013" lon="10.4870811"><ele>137.66666666666666</ele><time>2026-04-04T07:42:20.093Z</time></trkpt><trkpt lat="44.639469" lon="10.4873548"><ele>137.33333333333331</ele><time>2026-04-04T07:42:21.097Z</time></trkpt><trkpt lat="44.6394456" lon="10.4876144"><ele>137.0</ele><time>2026-04-04T07:42:22.095Z</time></trkpt><trkpt lat="44.6394319" lon="10.4878601"><ele>137.66666666666666</ele><time>2026-04-04T07:42:23.096Z</time></trkpt><trkpt lat="44.6394159" lon="10.4880956"><ele>138.33333333333334</ele><time>2026-04-04T07:42:24.096Z</time></trkpt><trkpt lat="44.6393958" lon="10.4883142"><ele>139.0</ele><time>2026-04-04T07:42:25.095Z</time></trkpt><trkpt lat="44.6393778" lon="10.488514"><ele>139.0</ele><time>2026-04-04T07:42:26.091Z</time></trkpt><trkpt lat="44.6393653" lon="10.4886704"><ele>139.0</ele><time>2026-04-04T07:42:27.09Z</time></trkpt><trkpt lat="44.6393462" lon="10.4888147"><ele>139.0</ele><time>2026-04-04T07:42:28.1Z</time></trkpt><trkpt lat="44.6393005" lon="10.4889412"><ele>139.0</ele><time>2026-04-04T07:42:29.09Z</time></trkpt><trkpt lat="44.6392438" lon="10.4890651"><ele>139.0</ele><time>2026-04-04T07:42:30.088Z</time></trkpt><trkpt lat="44.6392091" lon="10.4892121"><ele>139.25</ele><time>2026-04-04T07:42:31.092Z</time></trkpt><trkpt lat="44.6392315" lon="10.4893667"><ele>139.5</ele><time>2026-04-04T07:42:32.083Z</time></trkpt><trkpt lat="44.6392656" lon="10.4895357"><ele>139.75</ele><time>2026-04-04T07:42:33.083Z</time></trkpt><trkpt lat="44.6392818" lon="10.4897163"><ele>140.0</ele><time>2026-04-04T07:42:34.097Z</time></trkpt><trkpt lat="44.6392711" lon="10.4899205"><ele>139.33333333333331</ele><time>2026-04-04T07:42:35.093Z</time></trkpt><trkpt lat="44.6392229" lon="10.4901721"><ele>138.66666666666666</ele><time>2026-04-04T07:42:36.089Z</time></trkpt><trkpt lat="44.6391951" lon="10.4904663"><ele>138.0</ele><time>2026-04-04T07:42:37.099Z</time></trkpt><trkpt lat="44.6391711" lon="10.4907707"><ele>136.5</ele><time>2026-04-04T07:42:38.085Z</time></trkpt><trkpt lat="44.6391398" lon="10.4910994"><ele>135.0</ele><time>2026-04-04T07:42:39.086Z</time></trkpt><trkpt lat="44.6391045" lon="10.4914473"><ele>134.0</ele><time>2026-04-04T07:42:40.086Z</time></trkpt><trkpt lat="44.6390668" lon="10.4917879"><ele>133.0</ele><time>2026-04-04T07:42:41.083Z</time></trkpt><trkpt lat="44.6390275" lon="10.4921302"><ele>132.5</ele><time>2026-04-04T07:42:42.085Z</time></trkpt><trkpt lat="44.6389989" lon="10.4924683"><ele>132.0</ele><time>2026-04-04T07:42:43.099Z</time></trkpt><trkpt lat="44.6389774" lon="10.4928013"><ele>131.5</ele><time>2026-04-04T07:42:44.103Z</time></trkpt><trkpt lat="44.6389561" lon="10.4931429"><ele>131.0</ele><time>2026-04-04T07:42:45.097Z</time></trkpt><trkpt lat="44.638932" lon="10.4934982"><ele>131.5</ele><time>2026-04-04T07:42:46.095Z</time></trkpt><trkpt lat="44.638913" lon="10.4938796"><ele>132.0</ele><time>2026-04-04T07:42:47.095Z</time></trkpt><trkpt lat="44.6388871" lon="10.4942785"><ele>132.0</ele><time>2026-04-04T07:42:48.097Z</time></trkpt><trkpt lat="44.6388343" lon="10.4946794"><ele>132.0</ele><time>2026-04-04T07:42:49.09Z</time></trkpt><trkpt lat="44.6387811" lon="10.495062"><ele>132.0</ele><time>2026-04-04T07:42:50.09Z</time></trkpt><trkpt lat="44.6387424" lon="10.4954158"><ele>132.0</ele><time>2026-04-04T07:42:51.087Z</time></trkpt><trkpt lat="44.6387184" lon="10.4957254"><ele>132.0</ele><time>2026-04-04T07:42:52.09Z</time></trkpt><trkpt lat="44.638689" lon="10.4960241"><ele>132.0</ele><time>2026-04-04T07:42:53.09Z</time></trkpt><trkpt lat="44.6386444" lon="10.4963118"><ele>132.0</ele><time>2026-04-04T07:42:54.118Z</time></trkpt><trkpt lat="44.6385969" lon="10.4965896"><ele>132.0</ele><time>2026-04-04T07:42:55.092Z</time></trkpt><trkpt lat="44.6385564" lon="10.4968333"><ele>132.0</ele><time>2026-04-04T07:42:56.087Z</time></trkpt><trkpt lat="44.6385154" lon="10.4970616"><ele>132.0</ele><time>2026-04-04T07:42:57.099Z</time></trkpt><trkpt lat="44.638474" lon="10.4972809"><ele>131.5</ele><time>2026-04-04T07:42:58.108Z</time></trkpt><trkpt lat="44.6384304" lon="10.4974899"><ele>131.0</ele><time>2026-04-04T07:42:59.098Z</time></trkpt><trkpt lat="44.6383831" lon="10.4976838"><ele>130.5</ele><time>2026-04-04T07:43:00.101Z</time></trkpt><trkpt lat="44.6383395" lon="10.4978619"><ele>130.0</ele><time>2026-04-04T07:43:01.099Z</time></trkpt><trkpt lat="44.6383" lon="10.4980417"><ele>129.6</ele><time>2026-04-04T07:43:02.092Z</time></trkpt><trkpt lat="44.6382585" lon="10.4981988"><ele>129.2</ele><time>2026-04-04T07:43:03.091Z</time></trkpt><trkpt lat="44.638216" lon="10.4983439"><ele>128.8</ele><time>2026-04-04T07:43:04.089Z</time></trkpt><trkpt lat="44.6381745" lon="10.4984774"><ele>128.4</ele><time>2026-04-04T07:43:05.095Z</time></trkpt><trkpt lat="44.6381402" lon="10.4986057"><ele>128.0</ele><time>2026-04-04T07:43:06.092Z</time></trkpt><trkpt lat="44.6381087" lon="10.4987285"><ele>128.20000000000002</ele><time>2026-04-04T07:43:07.094Z</time></trkpt><trkpt lat="44.6380725" lon="10.498845"><ele>128.4</ele><time>2026-04-04T07:43:08.104Z</time></trkpt><trkpt lat="44.6380254" lon="10.4989579"><ele>128.60000000000002</ele><time>2026-04-04T07:43:09.089Z</time></trkpt><trkpt lat="44.6379552" lon="10.499054"><ele>128.8</ele><time>2026-04-04T07:43:10.091Z</time></trkpt><trkpt lat="44.6378779" lon="10.4991418"><ele>129.0</ele><time>2026-04-04T07:43:11.092Z</time></trkpt><trkpt lat="44.6378169" lon="10.4992552"><ele>129.25</ele><time>2026-04-04T07:43:12.093Z</time></trkpt><trkpt lat="44.6377875" lon="10.4994094"><ele>129.5</ele><time>2026-04-04T07:43:13.095Z</time></trkpt><trkpt lat="44.637802" lon="10.4995949"><ele>129.75</ele><time>2026-04-04T07:43:14.099Z</time></trkpt><trkpt lat="44.6378339" lon="10.4998017"><ele>130.0</ele><time>2026-04-04T07:43:15.089Z</time></trkpt><trkpt lat="44.637836" lon="10.5000165"><ele>129.66666666666669</ele><time>2026-04-04T07:43:16.09Z</time></trkpt><trkpt lat="44.6377908" lon="10.5002583"><ele>129.33333333333334</ele><time>2026-04-04T07:43:17.088Z</time></trkpt><trkpt lat="44.6377259" lon="10.5005179"><ele>129.0</ele><time>2026-04-04T07:43:18.093Z</time></trkpt><trkpt lat="44.6376624" lon="10.5008007"><ele>129.0</ele><time>2026-04-04T07:43:19.086Z</time></trkpt><trkpt lat="44.6375895" lon="10.5010984"><ele>129.0</ele><time>2026-04-04T07:43:20.089Z</time></trkpt><trkpt lat="44.637513" lon="10.5014118"><ele>129.5</ele><time>2026-04-04T07:43:21.09Z</time></trkpt><trkpt lat="44.6374416" lon="10.501737"><ele>130.0</ele><time>2026-04-04T07:43:22.097Z</time></trkpt><trkpt lat="44.6373685" lon="10.5020631"><ele>130.0</ele><time>2026-04-04T07:43:23.087Z</time></trkpt><trkpt lat="44.6372966" lon="10.5023985"><ele>130.0</ele><time>2026-04-04T07:43:24.095Z</time></trkpt><trkpt lat="44.6372174" lon="10.5027387"><ele>129.5</ele><time>2026-04-04T07:43:25.094Z</time></trkpt><trkpt lat="44.6371318" lon="10.5030836"><ele>129.0</ele><time>2026-04-04T07:43:26.094Z</time></trkpt><trkpt lat="44.6370503" lon="10.5034362"><ele>129.5</ele><time>2026-04-04T07:43:27.092Z</time></trkpt><trkpt lat="44.6369723" lon="10.5037938"><ele>130.0</ele><time>2026-04-04T07:43:28.1Z</time></trkpt><trkpt lat="44.6368887" lon="10.5041507"><ele>130.5</ele><time>2026-04-04T07:43:29.091Z</time></trkpt><trkpt lat="44.6368144" lon="10.5044919"><ele>131.0</ele><time>2026-04-04T07:43:30.087Z</time></trkpt><trkpt lat="44.6367395" lon="10.5048155"><ele>131.0</ele><time>2026-04-04T07:43:31.097Z</time></trkpt><trkpt lat="44.6366667" lon="10.5051278"><ele>131.0</ele><time>2026-04-04T07:43:32.091Z</time></trkpt><trkpt lat="44.6365901" lon="10.5054318"><ele>130.66666666666666</ele><time>2026-04-04T07:43:33.087Z</time></trkpt><trkpt lat="44.6364902" lon="10.5057223"><ele>130.33333333333334</ele><time>2026-04-04T07:43:34.089Z</time></trkpt><trkpt lat="44.6363744" lon="10.5059767"><ele>130.0</ele><time>2026-04-04T07:43:35.09Z</time></trkpt><trkpt lat="44.63625" lon="10.5061951"><ele>131.0</ele><time>2026-04-04T07:43:36.091Z</time></trkpt><trkpt lat="44.6361127" lon="10.5063985"><ele>132.0</ele><time>2026-04-04T07:43:37.088Z</time></trkpt><trkpt lat="44.6359736" lon="10.5065736"><ele>133.0</ele><time>2026-04-04T07:43:38.084Z</time></trkpt><trkpt lat="44.6358393" lon="10.5067351"><ele>133.0</ele><time>2026-04-04T07:43:39.104Z</time></trkpt><trkpt lat="44.6357216" lon="10.5068651"><ele>133.0</ele><time>2026-04-04T07:43:40.08Z</time></trkpt><trkpt lat="44.6356317" lon="10.5069427"><ele>133.0</ele><time>2026-04-04T07:43:41.078Z</time></trkpt><trkpt lat="44.6355491" lon="10.5069961"><ele>133.0</ele><time>2026-04-04T07:43:42.087Z</time></trkpt><trkpt lat="44.6354634" lon="10.5070378"><ele>133.0</ele><time>2026-04-04T07:43:43.089Z</time></trkpt><trkpt lat="44.6353853" lon="10.5070801"><ele>133.0</ele><time>2026-04-04T07:43:44.09Z</time></trkpt><trkpt lat="44.6353167" lon="10.507109"><ele>133.0</ele><time>2026-04-04T07:43:45.087Z</time></trkpt><trkpt lat="44.6352534" lon="10.5071262"><ele>133.0</ele><time>2026-04-04T07:43:46.092Z</time></trkpt><trkpt lat="44.6351909" lon="10.5071399"><ele>133.0</ele><time>2026-04-04T07:43:47.095Z</time></trkpt><trkpt lat="44.6351213" lon="10.5071349"><ele>133.0</ele><time>2026-04-04T07:43:48.1Z</time></trkpt><trkpt lat="44.6350561" lon="10.5071372"><ele>133.0</ele><time>2026-04-04T07:43:49.092Z</time></trkpt><trkpt lat="44.634992" lon="10.5071518"><ele>133.0</ele><time>2026-04-04T07:43:50.094Z</time></trkpt><trkpt lat="44.6348993" lon="10.5072626"><ele>133.0</ele><time>2026-04-04T07:43:52.098Z</time></trkpt><trkpt lat="44.6348716" lon="10.5073457"><ele>133.0</ele><time>2026-04-04T07:43:53.089Z</time></trkpt><trkpt lat="44.634825" lon="10.5075027"><ele>133.0</ele><time>2026-04-04T07:43:55.096Z</time></trkpt><trkpt lat="44.6347887" lon="10.5075755"><ele>133.0</ele><time>2026-04-04T07:43:56.092Z</time></trkpt><trkpt lat="44.6347433" lon="10.5076467"><ele>133.0</ele><time>2026-04-04T07:43:57.092Z</time></trkpt><trkpt lat="44.6346887" lon="10.5077102"><ele>133.0</ele><time>2026-04-04T07:43:58.097Z</time></trkpt><trkpt lat="44.6346285" lon="10.5077733"><ele>133.0</ele><time>2026-04-04T07:43:59.095Z</time></trkpt><trkpt lat="44.6345638" lon="10.5078416"><ele>133.0</ele><time>2026-04-04T07:44:00.093Z</time></trkpt><trkpt lat="44.6344945" lon="10.5079159"><ele>133.0</ele><time>2026-04-04T07:44:01.1Z</time></trkpt><trkpt lat="44.6344215" lon="10.508005"><ele>133.0</ele><time>2026-04-04T07:44:02.091Z</time></trkpt><trkpt lat="44.6343508" lon="10.5081085"><ele>133.0</ele><time>2026-04-04T07:44:03.096Z</time></trkpt><trkpt lat="44.6342812" lon="10.5082242"><ele>133.5</ele><time>2026-04-04T07:44:04.097Z</time></trkpt><trkpt lat="44.6342144" lon="10.5083491"><ele>134.0</ele><time>2026-04-04T07:44:05.092Z</time></trkpt><trkpt lat="44.6341486" lon="10.5084855"><ele>134.5</ele><time>2026-04-04T07:44:06.094Z</time></trkpt><trkpt lat="44.6340898" lon="10.5086224"><ele>135.0</ele><time>2026-04-04T07:44:07.098Z</time></trkpt><trkpt lat="44.6340315" lon="10.5087539"><ele>135.0</ele><time>2026-04-04T07:44:08.09Z</time></trkpt><trkpt lat="44.6339765" lon="10.5088954"><ele>135.0</ele><time>2026-04-04T07:44:09.083Z</time></trkpt><trkpt lat="44.6339176" lon="10.5090468"><ele>135.0</ele><time>2026-04-04T07:44:10.105Z</time></trkpt><trkpt lat="44.6338563" lon="10.5091983"><ele>135.0</ele><time>2026-04-04T07:44:11.088Z</time></trkpt><trkpt lat="44.6337994" lon="10.509351"><ele>135.0</ele><time>2026-04-04T07:44:12.089Z</time></trkpt><trkpt lat="44.6337396" lon="10.5095022"><ele>135.0</ele><time>2026-04-04T07:44:13.09Z</time></trkpt><trkpt lat="44.6336808" lon="10.5096567"><ele>135.0</ele><time>2026-04-04T07:44:14.094Z</time></trkpt><trkpt lat="44.6336194" lon="10.5098126"><ele>135.0</ele><time>2026-04-04T07:44:15.088Z</time></trkpt><trkpt lat="44.6335577" lon="10.5099642"><ele>136.25</ele><time>2026-04-04T07:44:16.088Z</time></trkpt><trkpt lat="44.6334998" lon="10.5101108"><ele>137.5</ele><time>2026-04-04T07:44:17.091Z</time></trkpt><trkpt lat="44.6334398" lon="10.5102489"><ele>138.75</ele><time>2026-04-04T07:44:18.091Z</time></trkpt><trkpt lat="44.6333842" lon="10.5103879"><ele>140.0</ele><time>2026-04-04T07:44:19.089Z</time></trkpt><trkpt lat="44.633329" lon="10.5105341"><ele>140.0</ele><time>2026-04-04T07:44:20.09Z</time></trkpt><trkpt lat="44.6332686" lon="10.5106813"><ele>140.0</ele><time>2026-04-04T07:44:21.089Z</time></trkpt><trkpt lat="44.6332055" lon="10.5108314"><ele>140.0</ele><time>2026-04-04T07:44:22.092Z</time></trkpt><trkpt lat="44.6331344" lon="10.5109946"><ele>140.0</ele><time>2026-04-04T07:44:23.085Z</time></trkpt><trkpt lat="44.6330618" lon="10.5111701"><ele>139.66666666666666</ele><time>2026-04-04T07:44:24.091Z</time></trkpt><trkpt lat="44.6329949" lon="10.5113511"><ele>139.33333333333334</ele><time>2026-04-04T07:44:25.089Z</time></trkpt><trkpt lat="44.6329115" lon="10.5115731"><ele>139.0</ele><time>2026-04-04T07:44:26.087Z</time></trkpt><trkpt lat="44.6328045" lon="10.5118098"><ele>139.66666666666669</ele><time>2026-04-04T07:44:27.091Z</time></trkpt><trkpt lat="44.6326913" lon="10.5120203"><ele>140.33333333333334</ele><time>2026-04-04T07:44:28.096Z</time></trkpt><trkpt lat="44.6326011" lon="10.5122145"><ele>141.0</ele><time>2026-04-04T07:44:29.091Z</time></trkpt><trkpt lat="44.6325392" lon="10.5124007"><ele>141.0</ele><time>2026-04-04T07:44:30.094Z</time></trkpt><trkpt lat="44.6324915" lon="10.5125742"><ele>141.0</ele><time>2026-04-04T07:44:31.096Z</time></trkpt><trkpt lat="44.6324529" lon="10.5127575"><ele>141.0</ele><time>2026-04-04T07:44:32.091Z</time></trkpt><trkpt lat="44.6324138" lon="10.5129625"><ele>141.0</ele><time>2026-04-04T07:44:33.089Z</time></trkpt><trkpt lat="44.6323812" lon="10.513156"><ele>140.75</ele><time>2026-04-04T07:44:34.094Z</time></trkpt><trkpt lat="44.6323557" lon="10.5133356"><ele>140.5</ele><time>2026-04-04T07:44:35.087Z</time></trkpt><trkpt lat="44.6323341" lon="10.5135032"><ele>140.25</ele><time>2026-04-04T07:44:36.095Z</time></trkpt><trkpt lat="44.632318" lon="10.5136604"><ele>140.0</ele><time>2026-04-04T07:44:37.094Z</time></trkpt><trkpt lat="44.6323015" lon="10.513828"><ele>140.75</ele><time>2026-04-04T07:44:38.097Z</time></trkpt><trkpt lat="44.632282" lon="10.5140036"><ele>141.5</ele><time>2026-04-04T07:44:39.093Z</time></trkpt><trkpt lat="44.6322551" lon="10.5141804"><ele>142.25</ele><time>2026-04-04T07:44:40.094Z</time></trkpt><trkpt lat="44.63223" lon="10.5143615"><ele>143.0</ele><time>2026-04-04T07:44:41.108Z</time></trkpt><trkpt lat="44.6322063" lon="10.514547"><ele>143.0</ele><time>2026-04-04T07:44:42.095Z</time></trkpt><trkpt lat="44.6321849" lon="10.5147452"><ele>143.0</ele><time>2026-04-04T07:44:43.088Z</time></trkpt><trkpt lat="44.6321686" lon="10.5149572"><ele>143.0</ele><time>2026-04-04T07:44:44.096Z</time></trkpt><trkpt lat="44.6321558" lon="10.515157"><ele>143.0</ele><time>2026-04-04T07:44:45.092Z</time></trkpt><trkpt lat="44.6321476" lon="10.5153527"><ele>143.0</ele><time>2026-04-04T07:44:46.092Z</time></trkpt><trkpt lat="44.6321452" lon="10.5155381"><ele>143.0</ele><time>2026-04-04T07:44:47.195Z</time></trkpt><trkpt lat="44.6321845" lon="10.515911"><ele>143.0</ele><time>2026-04-04T07:44:49.092Z</time></trkpt><trkpt lat="44.6322117" lon="10.516113"><ele>142.66666666666666</ele><time>2026-04-04T07:44:50.085Z</time></trkpt><trkpt lat="44.6322475" lon="10.5163316"><ele>142.33333333333334</ele><time>2026-04-04T07:44:51.089Z</time></trkpt><trkpt lat="44.6322826" lon="10.5165687"><ele>142.0</ele><time>2026-04-04T07:44:52.096Z</time></trkpt><trkpt lat="44.6323156" lon="10.5168061"><ele>142.0</ele><time>2026-04-04T07:44:53.09Z</time></trkpt><trkpt lat="44.6323445" lon="10.5170295"><ele>142.0</ele><time>2026-04-04T07:44:54.096Z</time></trkpt><trkpt lat="44.6323757" lon="10.5172401"><ele>142.0</ele><time>2026-04-04T07:44:55.089Z</time></trkpt><trkpt lat="44.6324028" lon="10.5174347"><ele>142.5</ele><time>2026-04-04T07:44:56.093Z</time></trkpt><trkpt lat="44.6324304" lon="10.5176341"><ele>143.0</ele><time>2026-04-04T07:44:57.087Z</time></trkpt><trkpt lat="44.6324702" lon="10.5178259"><ele>143.5</ele><time>2026-04-04T07:44:58.084Z</time></trkpt><trkpt lat="44.6324895" lon="10.5180081"><ele>144.0</ele><time>2026-04-04T07:44:59.093Z</time></trkpt><trkpt lat="44.6325122" lon="10.5181885"><ele>144.0</ele><time>2026-04-04T07:45:00.094Z</time></trkpt><trkpt lat="44.6325378" lon="10.5183583"><ele>144.0</ele><time>2026-04-04T07:45:01.1Z</time></trkpt><trkpt lat="44.632567" lon="10.5185328"><ele>144.0</ele><time>2026-04-04T07:45:02.089Z</time></trkpt><trkpt lat="44.6325994" lon="10.518722"><ele>144.0</ele><time>2026-04-04T07:45:03.093Z</time></trkpt><trkpt lat="44.6326423" lon="10.5189641"><ele>144.66666666666666</ele><time>2026-04-04T07:45:04.097Z</time></trkpt><trkpt lat="44.6326746" lon="10.5192471"><ele>145.33333333333331</ele><time>2026-04-04T07:45:05.092Z</time></trkpt><trkpt lat="44.6326914" lon="10.5194883"><ele>146.0</ele><time>2026-04-04T07:45:06.098Z</time></trkpt><trkpt lat="44.632716" lon="10.519698"><ele>145.75</ele><time>2026-04-04T07:45:07.093Z</time></trkpt><trkpt lat="44.6327421" lon="10.5198939"><ele>145.5</ele><time>2026-04-04T07:45:08.095Z</time></trkpt><trkpt lat="44.6327645" lon="10.5200937"><ele>145.25</ele><time>2026-04-04T07:45:09.097Z</time></trkpt><trkpt lat="44.6327898" lon="10.5202899"><ele>145.0</ele><time>2026-04-04T07:45:10.096Z</time></trkpt><trkpt lat="44.6328176" lon="10.5204868"><ele>145.0</ele><time>2026-04-04T07:45:11.094Z</time></trkpt><trkpt lat="44.632847" lon="10.5206819"><ele>145.0</ele><time>2026-04-04T07:45:12.109Z</time></trkpt><trkpt lat="44.6328697" lon="10.5208697"><ele>145.0</ele><time>2026-04-04T07:45:13.091Z</time></trkpt><trkpt lat="44.6328936" lon="10.521049"><ele>145.0</ele><time>2026-04-04T07:45:14.091Z</time></trkpt><trkpt lat="44.6329066" lon="10.5212138"><ele>144.75</ele><time>2026-04-04T07:45:15.087Z</time></trkpt><trkpt lat="44.6329317" lon="10.5213929"><ele>144.5</ele><time>2026-04-04T07:45:16.085Z</time></trkpt><trkpt lat="44.6329565" lon="10.5215739"><ele>144.25</ele><time>2026-04-04T07:45:17.083Z</time></trkpt><trkpt lat="44.6329893" lon="10.5217547"><ele>144.0</ele><time>2026-04-04T07:45:18.092Z</time></trkpt><trkpt lat="44.6330267" lon="10.521937"><ele>144.0</ele><time>2026-04-04T07:45:19.085Z</time></trkpt><trkpt lat="44.6330698" lon="10.5221174"><ele>144.0</ele><time>2026-04-04T07:45:20.091Z</time></trkpt><trkpt lat="44.6331157" lon="10.5223034"><ele>144.0</ele><time>2026-04-04T07:45:21.09Z</time></trkpt><trkpt lat="44.6331598" lon="10.5224766"><ele>144.0</ele><time>2026-04-04T07:45:22.093Z</time></trkpt><trkpt lat="44.6332026" lon="10.522642"><ele>144.0</ele><time>2026-04-04T07:45:23.093Z</time></trkpt><trkpt lat="44.633234" lon="10.5227992"><ele>144.0</ele><time>2026-04-04T07:45:24.099Z</time></trkpt><trkpt lat="44.6332746" lon="10.5229694"><ele>144.0</ele><time>2026-04-04T07:45:25.097Z</time></trkpt><trkpt lat="44.6333217" lon="10.5231416"><ele>144.0</ele><time>2026-04-04T07:45:26.099Z</time></trkpt><trkpt lat="44.6333653" lon="10.5233133"><ele>144.75</ele><time>2026-04-04T07:45:27.097Z</time></trkpt><trkpt lat="44.6334079" lon="10.5234851"><ele>145.5</ele><time>2026-04-04T07:45:28.1Z</time></trkpt><trkpt lat="44.633452" lon="10.523655"><ele>146.25</ele><time>2026-04-04T07:45:29.095Z</time></trkpt><trkpt lat="44.6334903" lon="10.523815"><ele>147.0</ele><time>2026-04-04T07:45:30.094Z</time></trkpt><trkpt lat="44.6335256" lon="10.5239542"><ele>147.0</ele><time>2026-04-04T07:45:31.096Z</time></trkpt><trkpt lat="44.6335575" lon="10.5240794"><ele>147.0</ele><time>2026-04-04T07:45:32.096Z</time></trkpt><trkpt lat="44.6335856" lon="10.5241942"><ele>147.0</ele><time>2026-04-04T07:45:33.098Z</time></trkpt><trkpt lat="44.6336127" lon="10.5242944"><ele>147.0</ele><time>2026-04-04T07:45:34.113Z</time></trkpt><trkpt lat="44.6336413" lon="10.524391"><ele>147.0</ele><time>2026-04-04T07:45:35.104Z</time></trkpt><trkpt lat="44.6336677" lon="10.5244829"><ele>147.0</ele><time>2026-04-04T07:45:36.097Z</time></trkpt><trkpt lat="44.6336894" lon="10.5245666"><ele>146.79999999999998</ele><time>2026-04-04T07:45:37.098Z</time></trkpt><trkpt lat="44.6337358" lon="10.5247029"><ele>146.6</ele><time>2026-04-04T07:45:39.1Z</time></trkpt><trkpt lat="44.6337671" lon="10.5248272"><ele>146.39999999999998</ele><time>2026-04-04T07:45:41.101Z</time></trkpt><trkpt lat="44.6337918" lon="10.524941"><ele>146.2</ele><time>2026-04-04T07:45:43.12Z</time></trkpt><trkpt lat="44.6338036" lon="10.5250731"><ele>146.0</ele><time>2026-04-04T07:45:45.096Z</time></trkpt><trkpt lat="44.6338328" lon="10.52523"><ele>146.0</ele><time>2026-04-04T07:45:47.103Z</time></trkpt><trkpt lat="44.6338616" lon="10.5253176"><ele>146.0</ele><time>2026-04-04T07:45:48.11Z</time></trkpt><trkpt lat="44.6338898" lon="10.5254065"><ele>146.0</ele><time>2026-04-04T07:45:49.107Z</time></trkpt><trkpt lat="44.6339171" lon="10.5255039"><ele>146.0</ele><time>2026-04-04T07:45:50.108Z</time></trkpt><trkpt lat="44.6339382" lon="10.5256071"><ele>146.0</ele><time>2026-04-04T07:45:51.108Z</time></trkpt><trkpt lat="44.6339605" lon="10.5257204"><ele>146.0</ele><time>2026-04-04T07:45:52.104Z</time></trkpt><trkpt lat="44.6339841" lon="10.5258438"><ele>145.5</ele><time>2026-04-04T07:45:53.107Z</time></trkpt><trkpt lat="44.6340182" lon="10.5259862"><ele>145.0</ele><time>2026-04-04T07:45:54.107Z</time></trkpt><trkpt lat="44.6340656" lon="10.5261398"><ele>144.5</ele><time>2026-04-04T07:45:55.101Z</time></trkpt><trkpt lat="44.6341214" lon="10.5262944"><ele>144.0</ele><time>2026-04-04T07:45:56.113Z</time></trkpt><trkpt lat="44.6341797" lon="10.5264435"><ele>144.0</ele><time>2026-04-04T07:45:57.107Z</time></trkpt><trkpt lat="44.6342471" lon="10.5265853"><ele>144.0</ele><time>2026-04-04T07:45:58.105Z</time></trkpt><trkpt lat="44.6343289" lon="10.526721"><ele>144.0</ele><time>2026-04-04T07:45:59.105Z</time></trkpt><trkpt lat="44.6344166" lon="10.526843"><ele>144.0</ele><time>2026-04-04T07:46:00.106Z</time></trkpt><trkpt lat="44.6345092" lon="10.5269598"><ele>144.25</ele><time>2026-04-04T07:46:01.11Z</time></trkpt><trkpt lat="44.6346163" lon="10.5270759"><ele>144.5</ele><time>2026-04-04T07:46:02.108Z</time></trkpt><trkpt lat="44.6347227" lon="10.5271926"><ele>144.75</ele><time>2026-04-04T07:46:03.11Z</time></trkpt><trkpt lat="44.6348369" lon="10.5273129"><ele>145.0</ele><time>2026-04-04T07:46:04.1Z</time></trkpt><trkpt lat="44.6349624" lon="10.5274427"><ele>145.0</ele><time>2026-04-04T07:46:05.105Z</time></trkpt><trkpt lat="44.6351234" lon="10.5276045"><ele>145.0</ele><time>2026-04-04T07:46:06.109Z</time></trkpt><trkpt lat="44.6352998" lon="10.5278103"><ele>145.0</ele><time>2026-04-04T07:46:07.106Z</time></trkpt><trkpt lat="44.6354592" lon="10.528035"><ele>145.5</ele><time>2026-04-04T07:46:08.102Z</time></trkpt><trkpt lat="44.635623" lon="10.5282863"><ele>146.0</ele><time>2026-04-04T07:46:09.101Z</time></trkpt><trkpt lat="44.6357867" lon="10.5285772"><ele>147.0</ele><time>2026-04-04T07:46:10.112Z</time></trkpt><trkpt lat="44.6359477" lon="10.5288983"><ele>148.0</ele><time>2026-04-04T07:46:11.102Z</time></trkpt><trkpt lat="44.6360946" lon="10.5292349"><ele>148.5</ele><time>2026-04-04T07:46:12.099Z</time></trkpt><trkpt lat="44.636218" lon="10.5295888"><ele>149.0</ele><time>2026-04-04T07:46:13.101Z</time></trkpt><trkpt lat="44.6363238" lon="10.529954"><ele>149.0</ele><time>2026-04-04T07:46:14.125Z</time></trkpt><trkpt lat="44.6364119" lon="10.5303334"><ele>149.0</ele><time>2026-04-04T07:46:15.103Z</time></trkpt><trkpt lat="44.6364846" lon="10.5307195"><ele>148.5</ele><time>2026-04-04T07:46:16.105Z</time></trkpt><trkpt lat="44.6365605" lon="10.5310933"><ele>148.0</ele><time>2026-04-04T07:46:17.106Z</time></trkpt><trkpt lat="44.6366439" lon="10.5314408"><ele>148.0</ele><time>2026-04-04T07:46:18.11Z</time></trkpt><trkpt lat="44.6367244" lon="10.5318048"><ele>148.0</ele><time>2026-04-04T07:46:19.099Z</time></trkpt><trkpt lat="44.6367822" lon="10.5321766"><ele>148.0</ele><time>2026-04-04T07:46:20.104Z</time></trkpt><trkpt lat="44.6368102" lon="10.5325428"><ele>148.0</ele><time>2026-04-04T07:46:21.098Z</time></trkpt><trkpt lat="44.6368092" lon="10.5328887"><ele>147.66666666666669</ele><time>2026-04-04T07:46:22.11Z</time></trkpt><trkpt lat="44.6367926" lon="10.5331949"><ele>147.33333333333334</ele><time>2026-04-04T07:46:23.094Z</time></trkpt><trkpt lat="44.636772" lon="10.5334597"><ele>147.0</ele><time>2026-04-04T07:46:24.103Z</time></trkpt><trkpt lat="44.6367505" lon="10.5337181"><ele>147.0</ele><time>2026-04-04T07:46:25.103Z</time></trkpt><trkpt lat="44.6367208" lon="10.5339621"><ele>147.0</ele><time>2026-04-04T07:46:26.109Z</time></trkpt><trkpt lat="44.6366873" lon="10.5341634"><ele>147.0</ele><time>2026-04-04T07:46:27.113Z</time></trkpt><trkpt lat="44.6366402" lon="10.5343421"><ele>147.0</ele><time>2026-04-04T07:46:28.11Z</time></trkpt><trkpt lat="44.6365712" lon="10.5344853"><ele>147.0</ele><time>2026-04-04T07:46:29.11Z</time></trkpt><trkpt lat="44.6365136" lon="10.5346174"><ele>147.0</ele><time>2026-04-04T07:46:30.101Z</time></trkpt><trkpt lat="44.6364939" lon="10.5347658"><ele>147.0</ele><time>2026-04-04T07:46:31.112Z</time></trkpt><trkpt lat="44.6365167" lon="10.5349403"><ele>146.66666666666666</ele><time>2026-04-04T07:46:32.107Z</time></trkpt><trkpt lat="44.6365394" lon="10.5351462"><ele>146.33333333333331</ele><time>2026-04-04T07:46:33.092Z</time></trkpt><trkpt lat="44.6365317" lon="10.5353768"><ele>146.0</ele><time>2026-04-04T07:46:34.114Z</time></trkpt><trkpt lat="44.6364925" lon="10.5356484"><ele>145.33333333333331</ele><time>2026-04-04T07:46:35.099Z</time></trkpt><trkpt lat="44.6364583" lon="10.5359407"><ele>144.66666666666666</ele><time>2026-04-04T07:46:36.098Z</time></trkpt><trkpt lat="44.6364126" lon="10.536259"><ele>144.0</ele><time>2026-04-04T07:46:37.094Z</time></trkpt><trkpt lat="44.6363686" lon="10.5366058"><ele>144.0</ele><time>2026-04-04T07:46:38.096Z</time></trkpt><trkpt lat="44.6363272" lon="10.5369852"><ele>144.0</ele><time>2026-04-04T07:46:39.089Z</time></trkpt><trkpt lat="44.6362858" lon="10.5373752"><ele>143.5</ele><time>2026-04-04T07:46:40.099Z</time></trkpt><trkpt lat="44.636237" lon="10.5377791"><ele>143.0</ele><time>2026-04-04T07:46:41.096Z</time></trkpt><trkpt lat="44.6361912" lon="10.5381831"><ele>143.0</ele><time>2026-04-04T07:46:42.1Z</time></trkpt><trkpt lat="44.636143" lon="10.53859"><ele>143.0</ele><time>2026-04-04T07:46:43.102Z</time></trkpt><trkpt lat="44.6360909" lon="10.538992"><ele>143.0</ele><time>2026-04-04T07:46:44.103Z</time></trkpt><trkpt lat="44.6360421" lon="10.5393917"><ele>143.0</ele><time>2026-04-04T07:46:45.115Z</time></trkpt><trkpt lat="44.6359985" lon="10.539781"><ele>143.5</ele><time>2026-04-04T07:46:46.096Z</time></trkpt><trkpt lat="44.6359566" lon="10.5401466"><ele>144.0</ele><time>2026-04-04T07:46:47.093Z</time></trkpt><trkpt lat="44.6359155" lon="10.5404883"><ele>144.0</ele><time>2026-04-04T07:46:48.101Z</time></trkpt><trkpt lat="44.6358801" lon="10.5408272"><ele>144.0</ele><time>2026-04-04T07:46:49.093Z</time></trkpt><trkpt lat="44.6358409" lon="10.5411427"><ele>144.0</ele><time>2026-04-04T07:46:50.098Z</time></trkpt><trkpt lat="44.635802" lon="10.5414338"><ele>144.0</ele><time>2026-04-04T07:46:51.097Z</time></trkpt><trkpt lat="44.6357629" lon="10.5416952"><ele>144.0</ele><time>2026-04-04T07:46:52.099Z</time></trkpt><trkpt lat="44.6357336" lon="10.5419791"><ele>144.0</ele><time>2026-04-04T07:46:53.093Z</time></trkpt><trkpt lat="44.6356986" lon="10.5422766"><ele>144.0</ele><time>2026-04-04T07:46:54.098Z</time></trkpt><trkpt lat="44.6356616" lon="10.5425602"><ele>144.0</ele><time>2026-04-04T07:46:55.096Z</time></trkpt><trkpt lat="44.6356304" lon="10.542837"><ele>144.0</ele><time>2026-04-04T07:46:56.095Z</time></trkpt><trkpt lat="44.6356003" lon="10.5431"><ele>144.0</ele><time>2026-04-04T07:46:57.099Z</time></trkpt><trkpt lat="44.6355701" lon="10.5433453"><ele>144.0</ele><time>2026-04-04T07:46:58.102Z</time></trkpt><trkpt lat="44.6355345" lon="10.5435934"><ele>144.33333333333334</ele><time>2026-04-04T07:46:59.091Z</time></trkpt><trkpt lat="44.6354958" lon="10.5438649"><ele>144.66666666666669</ele><time>2026-04-04T07:47:00.095Z</time></trkpt><trkpt lat="44.6354614" lon="10.5441518"><ele>145.0</ele><time>2026-04-04T07:47:01.103Z</time></trkpt><trkpt lat="44.6354226" lon="10.5444395"><ele>144.66666666666669</ele><time>2026-04-04T07:47:02.1Z</time></trkpt><trkpt lat="44.6353739" lon="10.5447151"><ele>144.33333333333334</ele><time>2026-04-04T07:47:03.101Z</time></trkpt><trkpt lat="44.6353205" lon="10.5449863"><ele>144.0</ele><time>2026-04-04T07:47:04.097Z</time></trkpt><trkpt lat="44.6352521" lon="10.5452333"><ele>142.33333333333334</ele><time>2026-04-04T07:47:05.102Z</time></trkpt><trkpt lat="44.6351744" lon="10.5454644"><ele>140.66666666666669</ele><time>2026-04-04T07:47:06.106Z</time></trkpt><trkpt lat="44.6350904" lon="10.5456833"><ele>139.0</ele><time>2026-04-04T07:47:07.107Z</time></trkpt><trkpt lat="44.6350119" lon="10.5458804"><ele>139.0</ele><time>2026-04-04T07:47:08.101Z</time></trkpt><trkpt lat="44.6349386" lon="10.5460599"><ele>139.0</ele><time>2026-04-04T07:47:09.099Z</time></trkpt><trkpt lat="44.6348854" lon="10.5462369"><ele>139.0</ele><time>2026-04-04T07:47:10.093Z</time></trkpt><trkpt lat="44.6348439" lon="10.5463748"><ele>139.0</ele><time>2026-04-04T07:47:11.111Z</time></trkpt><trkpt lat="44.6348006" lon="10.5464634"><ele>138.66666666666669</ele><time>2026-04-04T07:47:13.111Z</time></trkpt><trkpt lat="44.6347229" lon="10.546525"><ele>138.33333333333334</ele><time>2026-04-04T07:47:16.123Z</time></trkpt><trkpt lat="44.6346242" lon="10.5465765"><ele>138.0</ele><time>2026-04-04T07:47:18.104Z</time></trkpt><trkpt lat="44.6345761" lon="10.5466361"><ele>137.66666666666666</ele><time>2026-04-04T07:47:19.109Z</time></trkpt><trkpt lat="44.6345385" lon="10.5467324"><ele>137.33333333333331</ele><time>2026-04-04T07:47:20.115Z</time></trkpt><trkpt lat="44.6345153" lon="10.5468861"><ele>137.0</ele><time>2026-04-04T07:47:21.113Z</time></trkpt><trkpt lat="44.6345042" lon="10.5470715"><ele>136.0</ele><time>2026-04-04T07:47:22.108Z</time></trkpt><trkpt lat="44.6344647" lon="10.5472691"><ele>135.0</ele><time>2026-04-04T07:47:23.113Z</time></trkpt><trkpt lat="44.6344025" lon="10.5474465"><ele>134.0</ele><time>2026-04-04T07:47:24.102Z</time></trkpt><trkpt lat="44.6343299" lon="10.5476147"><ele>133.0</ele><time>2026-04-04T07:47:25.104Z</time></trkpt><trkpt lat="44.6342606" lon="10.5477742"><ele>133.75</ele><time>2026-04-04T07:47:26.108Z</time></trkpt><trkpt lat="44.634186" lon="10.5479325"><ele>134.5</ele><time>2026-04-04T07:47:27.104Z</time></trkpt><trkpt lat="44.6341082" lon="10.5480808"><ele>135.25</ele><time>2026-04-04T07:47:28.107Z</time></trkpt><trkpt lat="44.634021" lon="10.5482217"><ele>136.0</ele><time>2026-04-04T07:47:29.101Z</time></trkpt><trkpt lat="44.633917" lon="10.5483486"><ele>136.0</ele><time>2026-04-04T07:47:30.102Z</time></trkpt><trkpt lat="44.6337929" lon="10.5484543"><ele>136.0</ele><time>2026-04-04T07:47:31.113Z</time></trkpt><trkpt lat="44.6336244" lon="10.5485094"><ele>136.0</ele><time>2026-04-04T07:47:32.102Z</time></trkpt><trkpt lat="44.6334626" lon="10.5485666"><ele>136.0</ele><time>2026-04-04T07:47:33.106Z</time></trkpt><trkpt lat="44.6333065" lon="10.548616"><ele>136.0</ele><time>2026-04-04T07:47:34.109Z</time></trkpt><trkpt lat="44.6331663" lon="10.5486635"><ele>136.0</ele><time>2026-04-04T07:47:35.105Z</time></trkpt><trkpt lat="44.6330434" lon="10.5487136"><ele>136.0</ele><time>2026-04-04T07:47:36.102Z</time></trkpt><trkpt lat="44.6329117" lon="10.5487588"><ele>136.33333333333334</ele><time>2026-04-04T07:47:37.096Z</time></trkpt><trkpt lat="44.6327693" lon="10.548806"><ele>136.66666666666666</ele><time>2026-04-04T07:47:38.108Z</time></trkpt><trkpt lat="44.6326205" lon="10.5488637"><ele>137.0</ele><time>2026-04-04T07:47:39.107Z</time></trkpt><trkpt lat="44.632467" lon="10.5489163"><ele>137.0</ele><time>2026-04-04T07:47:40.091Z</time></trkpt><trkpt lat="44.6323098" lon="10.5489725"><ele>137.0</ele><time>2026-04-04T07:47:41.108Z</time></trkpt><trkpt lat="44.6321573" lon="10.5490355"><ele>137.0</ele><time>2026-04-04T07:47:42.103Z</time></trkpt><trkpt lat="44.6319984" lon="10.549105"><ele>135.66666666666666</ele><time>2026-04-04T07:47:43.099Z</time></trkpt><trkpt lat="44.6318325" lon="10.549171"><ele>134.33333333333334</ele><time>2026-04-04T07:47:44.106Z</time></trkpt><trkpt lat="44.6316646" lon="10.5492394"><ele>133.0</ele><time>2026-04-04T07:47:45.103Z</time></trkpt><trkpt lat="44.6314946" lon="10.5493032"><ele>133.0</ele><time>2026-04-04T07:47:46.093Z</time></trkpt><trkpt lat="44.6313198" lon="10.5493801"><ele>133.0</ele><time>2026-04-04T07:47:47.117Z</time></trkpt><trkpt lat="44.6311435" lon="10.5494549"><ele>133.0</ele><time>2026-04-04T07:47:48.101Z</time></trkpt><trkpt lat="44.6309499" lon="10.5495442"><ele>135.0</ele><time>2026-04-04T07:47:49.11Z</time></trkpt><trkpt lat="44.6307123" lon="10.5496442"><ele>137.0</ele><time>2026-04-04T07:47:50.11Z</time></trkpt><trkpt lat="44.6304844" lon="10.5497448"><ele>139.33333333333331</ele><time>2026-04-04T07:47:51.106Z</time></trkpt><trkpt lat="44.6302713" lon="10.5498215"><ele>141.66666666666666</ele><time>2026-04-04T07:47:52.1Z</time></trkpt><trkpt lat="44.6300855" lon="10.5498804"><ele>144.0</ele><time>2026-04-04T07:47:53.108Z</time></trkpt><trkpt lat="44.629908" lon="10.549942"><ele>144.0</ele><time>2026-04-04T07:47:54.11Z</time></trkpt><trkpt lat="44.6297521" lon="10.5500062"><ele>144.0</ele><time>2026-04-04T07:47:55.109Z</time></trkpt><trkpt lat="44.6296256" lon="10.5500653"><ele>144.0</ele><time>2026-04-04T07:47:56.11Z</time></trkpt><trkpt lat="44.6295409" lon="10.5500944"><ele>144.0</ele><time>2026-04-04T07:47:57.097Z</time></trkpt><trkpt lat="44.6294653" lon="10.5501237"><ele>145.0</ele><time>2026-04-04T07:47:58.099Z</time></trkpt><trkpt lat="44.6293922" lon="10.5501357"><ele>146.0</ele><time>2026-04-04T07:47:59.094Z</time></trkpt><trkpt lat="44.6293189" lon="10.550137"><ele>147.0</ele><time>2026-04-04T07:48:00.092Z</time></trkpt><trkpt lat="44.6292413" lon="10.5502804"><ele>148.0</ele><time>2026-04-04T07:48:02.091Z</time></trkpt><trkpt lat="44.6292125" lon="10.5504157"><ele>149.0</ele><time>2026-04-04T07:48:03.094Z</time></trkpt><trkpt lat="44.6291985" lon="10.5505706"><ele>149.0</ele><time>2026-04-04T07:48:04.095Z</time></trkpt><trkpt lat="44.6291885" lon="10.5507546"><ele>149.0</ele><time>2026-04-04T07:48:05.091Z</time></trkpt><trkpt lat="44.6291925" lon="10.5509597"><ele>149.0</ele><time>2026-04-04T07:48:06.089Z</time></trkpt><trkpt lat="44.6291895" lon="10.5511896"><ele>149.0</ele><time>2026-04-04T07:48:07.101Z</time></trkpt><trkpt lat="44.6291833" lon="10.5514267"><ele>149.33333333333331</ele><time>2026-04-04T07:48:08.098Z</time></trkpt><trkpt lat="44.6291781" lon="10.5516641"><ele>149.66666666666666</ele><time>2026-04-04T07:48:09.101Z</time></trkpt><trkpt lat="44.6291729" lon="10.5519129"><ele>150.0</ele><time>2026-04-04T07:48:10.092Z</time></trkpt><trkpt lat="44.6291687" lon="10.5521674"><ele>150.0</ele><time>2026-04-04T07:48:11.097Z</time></trkpt><trkpt lat="44.6291622" lon="10.552421"><ele>150.0</ele><time>2026-04-04T07:48:12.1Z</time></trkpt><trkpt lat="44.6291548" lon="10.5526662"><ele>150.0</ele><time>2026-04-04T07:48:13.096Z</time></trkpt><trkpt lat="44.6291481" lon="10.5528864"><ele>150.0</ele><time>2026-04-04T07:48:14.105Z</time></trkpt><trkpt lat="44.6291398" lon="10.5530726"><ele>150.0</ele><time>2026-04-04T07:48:15.096Z</time></trkpt><trkpt lat="44.6291295" lon="10.5532413"><ele>150.0</ele><time>2026-04-04T07:48:16.106Z</time></trkpt><trkpt lat="44.629124" lon="10.5534121"><ele>150.0</ele><time>2026-04-04T07:48:17.106Z</time></trkpt><trkpt lat="44.6291228" lon="10.5535803"><ele>150.5</ele><time>2026-04-04T07:48:18.119Z</time></trkpt><trkpt lat="44.6291211" lon="10.5537476"><ele>151.0</ele><time>2026-04-04T07:48:19.1Z</time></trkpt><trkpt lat="44.6291117" lon="10.5539201"><ele>151.5</ele><time>2026-04-04T07:48:20.107Z</time></trkpt><trkpt lat="44.6291037" lon="10.554098"><ele>152.0</ele><time>2026-04-04T07:48:21.107Z</time></trkpt><trkpt lat="44.6290957" lon="10.5542798"><ele>152.0</ele><time>2026-04-04T07:48:22.104Z</time></trkpt><trkpt lat="44.6290899" lon="10.5544665"><ele>152.0</ele><time>2026-04-04T07:48:23.096Z</time></trkpt><trkpt lat="44.6290852" lon="10.5546593"><ele>152.0</ele><time>2026-04-04T07:48:24.109Z</time></trkpt><trkpt lat="44.6290777" lon="10.5548535"><ele>152.0</ele><time>2026-04-04T07:48:25.112Z</time></trkpt><trkpt lat="44.6290691" lon="10.5550552"><ele>152.0</ele><time>2026-04-04T07:48:26.11Z</time></trkpt><trkpt lat="44.6290615" lon="10.5552592"><ele>152.0</ele><time>2026-04-04T07:48:27.104Z</time></trkpt><trkpt lat="44.6290468" lon="10.5554562"><ele>152.0</ele><time>2026-04-04T07:48:28.108Z</time></trkpt><trkpt lat="44.6290353" lon="10.5556542"><ele>152.0</ele><time>2026-04-04T07:48:29.111Z</time></trkpt><trkpt lat="44.6290252" lon="10.555849"><ele>152.25</ele><time>2026-04-04T07:48:30.105Z</time></trkpt><trkpt lat="44.6290208" lon="10.5560478"><ele>152.5</ele><time>2026-04-04T07:48:31.105Z</time></trkpt><trkpt lat="44.6290088" lon="10.5562449"><ele>152.75</ele><time>2026-04-04T07:48:32.11Z</time></trkpt><trkpt lat="44.6289992" lon="10.5564386"><ele>153.0</ele><time>2026-04-04T07:48:33.105Z</time></trkpt><trkpt lat="44.6289876" lon="10.5566229"><ele>153.0</ele><time>2026-04-04T07:48:34.111Z</time></trkpt><trkpt lat="44.6289819" lon="10.5568066"><ele>153.0</ele><time>2026-04-04T07:48:35.103Z</time></trkpt><trkpt lat="44.6289672" lon="10.5570035"><ele>153.0</ele><time>2026-04-04T07:48:36.101Z</time></trkpt><trkpt lat="44.6289409" lon="10.5572174"><ele>153.0</ele><time>2026-04-04T07:48:37.097Z</time></trkpt><trkpt lat="44.6288946" lon="10.5574373"><ele>153.0</ele><time>2026-04-04T07:48:38.107Z</time></trkpt><trkpt lat="44.6288314" lon="10.557657"><ele>153.0</ele><time>2026-04-04T07:48:39.108Z</time></trkpt><trkpt lat="44.6287495" lon="10.5578681"><ele>153.0</ele><time>2026-04-04T07:48:40.107Z</time></trkpt><trkpt lat="44.628664" lon="10.5580513"><ele>151.5</ele><time>2026-04-04T07:48:41.105Z</time></trkpt><trkpt lat="44.6285773" lon="10.5582182"><ele>150.0</ele><time>2026-04-04T07:48:42.108Z</time></trkpt><trkpt lat="44.6284836" lon="10.5583741"><ele>148.5</ele><time>2026-04-04T07:48:43.109Z</time></trkpt><trkpt lat="44.628387" lon="10.5585136"><ele>147.0</ele><time>2026-04-04T07:48:44.114Z</time></trkpt><trkpt lat="44.6282893" lon="10.5586456"><ele>146.25</ele><time>2026-04-04T07:48:45.111Z</time></trkpt><trkpt lat="44.6281904" lon="10.5587799"><ele>145.5</ele><time>2026-04-04T07:48:46.109Z</time></trkpt><trkpt lat="44.6280781" lon="10.5589117"><ele>144.75</ele><time>2026-04-04T07:48:47.109Z</time></trkpt><trkpt lat="44.6279679" lon="10.5590478"><ele>144.0</ele><time>2026-04-04T07:48:48.103Z</time></trkpt><trkpt lat="44.6278562" lon="10.5591906"><ele>144.0</ele><time>2026-04-04T07:48:49.121Z</time></trkpt><trkpt lat="44.6277389" lon="10.5593424"><ele>144.0</ele><time>2026-04-04T07:48:50.108Z</time></trkpt><trkpt lat="44.6276298" lon="10.5595071"><ele>144.0</ele><time>2026-04-04T07:48:51.104Z</time></trkpt><trkpt lat="44.6275378" lon="10.5596973"><ele>144.66666666666666</ele><time>2026-04-04T07:48:52.103Z</time></trkpt><trkpt lat="44.6274591" lon="10.5599138"><ele>145.33333333333331</ele><time>2026-04-04T07:48:53.111Z</time></trkpt><trkpt lat="44.627388" lon="10.5601505"><ele>146.0</ele><time>2026-04-04T07:48:54.106Z</time></trkpt><trkpt lat="44.6273241" lon="10.5603948"><ele>146.33333333333331</ele><time>2026-04-04T07:48:55.109Z</time></trkpt><trkpt lat="44.6272565" lon="10.5606324"><ele>146.66666666666666</ele><time>2026-04-04T07:48:56.096Z</time></trkpt><trkpt lat="44.6271995" lon="10.5608502"><ele>147.0</ele><time>2026-04-04T07:48:57.108Z</time></trkpt><trkpt lat="44.6271494" lon="10.5610518"><ele>147.6</ele><time>2026-04-04T07:48:58.104Z</time></trkpt><trkpt lat="44.6270966" lon="10.5612338"><ele>148.2</ele><time>2026-04-04T07:48:59.099Z</time></trkpt><trkpt lat="44.6270564" lon="10.5613747"><ele>148.8</ele><time>2026-04-04T07:49:00.107Z</time></trkpt><trkpt lat="44.6270471" lon="10.5614738"><ele>149.4</ele><time>2026-04-04T07:49:01.091Z</time></trkpt><trkpt lat="44.6270269" lon="10.5615623"><ele>150.0</ele><time>2026-04-04T07:49:02.103Z</time></trkpt><trkpt lat="44.626996" lon="10.5616544"><ele>149.4</ele><time>2026-04-04T07:49:03.094Z</time></trkpt><trkpt lat="44.6269564" lon="10.5617714"><ele>148.8</ele><time>2026-04-04T07:49:05.088Z</time></trkpt><trkpt lat="44.6269102" lon="10.5618729"><ele>148.2</ele><time>2026-04-04T07:49:07.097Z</time></trkpt><trkpt lat="44.6268698" lon="10.5620054"><ele>147.6</ele><time>2026-04-04T07:49:09.089Z</time></trkpt><trkpt lat="44.6268395" lon="10.562148"><ele>147.0</ele><time>2026-04-04T07:49:11.091Z</time></trkpt><trkpt lat="44.6268263" lon="10.5622504"><ele>146.6</ele><time>2026-04-04T07:49:13.095Z</time></trkpt><trkpt lat="44.6268066" lon="10.5623468"><ele>146.2</ele><time>2026-04-04T07:49:15.099Z</time></trkpt><trkpt lat="44.6267785" lon="10.5624656"><ele>145.8</ele><time>2026-04-04T07:49:17.108Z</time></trkpt><trkpt lat="44.6267451" lon="10.5625987"><ele>145.4</ele><time>2026-04-04T07:49:19.103Z</time></trkpt><trkpt lat="44.6267085" lon="10.5627255"><ele>145.0</ele><time>2026-04-04T07:49:21.104Z</time></trkpt><trkpt lat="44.6266607" lon="10.5628428"><ele>144.83333333333334</ele><time>2026-04-04T07:49:23.1Z</time></trkpt><trkpt lat="44.6266132" lon="10.5629544"><ele>144.66666666666669</ele><time>2026-04-04T07:49:25.103Z</time></trkpt><trkpt lat="44.626567" lon="10.5630468"><ele>144.5</ele><time>2026-04-04T07:49:27.104Z</time></trkpt><trkpt lat="44.6265079" lon="10.5631438"><ele>144.33333333333334</ele><time>2026-04-04T07:49:29.088Z</time></trkpt><trkpt lat="44.6264702" lon="10.5632231"><ele>144.16666666666666</ele><time>2026-04-04T07:49:30.087Z</time></trkpt><trkpt lat="44.6264212" lon="10.5633285"><ele>144.0</ele><time>2026-04-04T07:49:31.106Z</time></trkpt><trkpt lat="44.6263551" lon="10.5634632"><ele>144.0</ele><time>2026-04-04T07:49:32.096Z</time></trkpt><trkpt lat="44.6262897" lon="10.5635767"><ele>144.0</ele><time>2026-04-04T07:49:33.093Z</time></trkpt><trkpt lat="44.6262304" lon="10.5636726"><ele>144.0</ele><time>2026-04-04T07:49:34.095Z</time></trkpt><trkpt lat="44.6261779" lon="10.5637653"><ele>144.0</ele><time>2026-04-04T07:49:35.095Z</time></trkpt><trkpt lat="44.6261285" lon="10.5638496"><ele>144.0</ele><time>2026-04-04T07:49:36.099Z</time></trkpt><trkpt lat="44.626084" lon="10.5639286"><ele>144.0</ele><time>2026-04-04T07:49:37.091Z</time></trkpt><trkpt lat="44.6260428" lon="10.5640005"><ele>143.33333333333334</ele><time>2026-04-04T07:49:38.098Z</time></trkpt><trkpt lat="44.6259602" lon="10.5641155"><ele>142.66666666666666</ele><time>2026-04-04T07:49:40.102Z</time></trkpt><trkpt lat="44.6259006" lon="10.5641764"><ele>142.0</ele><time>2026-04-04T07:49:42.098Z</time></trkpt><trkpt lat="44.6257931" lon="10.5641817"><ele>141.33333333333331</ele><time>2026-04-04T07:49:45.101Z</time></trkpt><trkpt lat="44.6257357" lon="10.5641421"><ele>140.66666666666666</ele><time>2026-04-04T07:49:46.117Z</time></trkpt><trkpt lat="44.6256766" lon="10.5640572"><ele>140.0</ele><time>2026-04-04T07:49:47.109Z</time></trkpt><trkpt lat="44.6256207" lon="10.5639591"><ele>140.0</ele><time>2026-04-04T07:49:48.104Z</time></trkpt><trkpt lat="44.6255655" lon="10.5638529"><ele>140.0</ele><time>2026-04-04T07:49:49.109Z</time></trkpt><trkpt lat="44.6255114" lon="10.5637531"><ele>140.0</ele><time>2026-04-04T07:49:50.108Z</time></trkpt><trkpt lat="44.625461" lon="10.5636632"><ele>140.0</ele><time>2026-04-04T07:49:51.124Z</time></trkpt><trkpt lat="44.6254111" lon="10.5635801"><ele>140.0</ele><time>2026-04-04T07:49:52.107Z</time></trkpt><trkpt lat="44.6253563" lon="10.5635"><ele>140.0</ele><time>2026-04-04T07:49:53.105Z</time></trkpt><trkpt lat="44.6253001" lon="10.5634221"><ele>140.33333333333331</ele><time>2026-04-04T07:49:54.105Z</time></trkpt><trkpt lat="44.6252372" lon="10.5633453"><ele>140.66666666666666</ele><time>2026-04-04T07:49:55.109Z</time></trkpt><trkpt lat="44.6251712" lon="10.5632704"><ele>141.0</ele><time>2026-04-04T07:49:56.106Z</time></trkpt><trkpt lat="44.6251004" lon="10.5632047"><ele>141.33333333333334</ele><time>2026-04-04T07:49:57.103Z</time></trkpt><trkpt lat="44.6250357" lon="10.5631526"><ele>141.66666666666669</ele><time>2026-04-04T07:49:58.109Z</time></trkpt><trkpt lat="44.6249768" lon="10.5631044"><ele>142.0</ele><time>2026-04-04T07:49:59.105Z</time></trkpt><trkpt lat="44.6248766" lon="10.5630248"><ele>142.0</ele><time>2026-04-04T07:50:01.108Z</time></trkpt><trkpt lat="44.6247825" lon="10.5629477"><ele>142.0</ele><time>2026-04-04T07:50:03.108Z</time></trkpt><trkpt lat="44.6247249" lon="10.5629056"><ele>142.0</ele><time>2026-04-04T07:50:04.085Z</time></trkpt><trkpt lat="44.624665" lon="10.5628536"><ele>142.0</ele><time>2026-04-04T07:50:05.1Z</time></trkpt><trkpt lat="44.6245916" lon="10.5627945"><ele>142.0</ele><time>2026-04-04T07:50:06.103Z</time></trkpt><trkpt lat="44.6245083" lon="10.5627247"><ele>142.0</ele><time>2026-04-04T07:50:07.107Z</time></trkpt><trkpt lat="44.6244183" lon="10.5626454"><ele>141.75</ele><time>2026-04-04T07:50:08.106Z</time></trkpt><trkpt lat="44.6243184" lon="10.5625589"><ele>141.5</ele><time>2026-04-04T07:50:09.106Z</time></trkpt><trkpt lat="44.6242126" lon="10.5624665"><ele>141.25</ele><time>2026-04-04T07:50:10.101Z</time></trkpt><trkpt lat="44.6240983" lon="10.5623715"><ele>141.0</ele><time>2026-04-04T07:50:11.108Z</time></trkpt><trkpt lat="44.6239822" lon="10.5622738"><ele>141.0</ele><time>2026-04-04T07:50:12.109Z</time></trkpt><trkpt lat="44.6238648" lon="10.562172"><ele>141.0</ele><time>2026-04-04T07:50:13.098Z</time></trkpt><trkpt lat="44.6237501" lon="10.5620648"><ele>141.0</ele><time>2026-04-04T07:50:14.116Z</time></trkpt><trkpt lat="44.6236329" lon="10.5619628"><ele>141.0</ele><time>2026-04-04T07:50:15.107Z</time></trkpt><trkpt lat="44.6235124" lon="10.5618612"><ele>141.0</ele><time>2026-04-04T07:50:16.104Z</time></trkpt><trkpt lat="44.6233916" lon="10.5617501"><ele>141.0</ele><time>2026-04-04T07:50:17.105Z</time></trkpt><trkpt lat="44.6232734" lon="10.561639"><ele>141.0</ele><time>2026-04-04T07:50:18.115Z</time></trkpt><trkpt lat="44.6231551" lon="10.5615221"><ele>141.0</ele><time>2026-04-04T07:50:19.099Z</time></trkpt><trkpt lat="44.6230242" lon="10.5614105"><ele>141.0</ele><time>2026-04-04T07:50:20.111Z</time></trkpt><trkpt lat="44.6228765" lon="10.5613055"><ele>141.0</ele><time>2026-04-04T07:50:21.104Z</time></trkpt><trkpt lat="44.6227088" lon="10.5612011"><ele>141.0</ele><time>2026-04-04T07:50:22.125Z</time></trkpt><trkpt lat="44.6225307" lon="10.5610962"><ele>141.66666666666666</ele><time>2026-04-04T07:50:23.1Z</time></trkpt><trkpt lat="44.622346" lon="10.5609838"><ele>142.33333333333331</ele><time>2026-04-04T07:50:24.105Z</time></trkpt><trkpt lat="44.6221747" lon="10.5608713"><ele>143.0</ele><time>2026-04-04T07:50:25.108Z</time></trkpt><trkpt lat="44.6220156" lon="10.560776"><ele>142.66666666666666</ele><time>2026-04-04T07:50:26.105Z</time></trkpt><trkpt lat="44.6218627" lon="10.5606887"><ele>142.33333333333334</ele><time>2026-04-04T07:50:27.106Z</time></trkpt><trkpt lat="44.6217228" lon="10.5606079"><ele>142.0</ele><time>2026-04-04T07:50:28.104Z</time></trkpt><trkpt lat="44.6215946" lon="10.5605348"><ele>142.0</ele><time>2026-04-04T07:50:29.112Z</time></trkpt><trkpt lat="44.6214691" lon="10.5604608"><ele>142.0</ele><time>2026-04-04T07:50:30.106Z</time></trkpt><trkpt lat="44.6213447" lon="10.560385"><ele>142.0</ele><time>2026-04-04T07:50:31.114Z</time></trkpt><trkpt lat="44.6212117" lon="10.5603074"><ele>142.0</ele><time>2026-04-04T07:50:32.112Z</time></trkpt><trkpt lat="44.6210694" lon="10.5602254"><ele>142.66666666666669</ele><time>2026-04-04T07:50:33.11Z</time></trkpt><trkpt lat="44.6209264" lon="10.5601479"><ele>143.33333333333334</ele><time>2026-04-04T07:50:34.109Z</time></trkpt><trkpt lat="44.6207844" lon="10.5600743"><ele>144.0</ele><time>2026-04-04T07:50:35.11Z</time></trkpt><trkpt lat="44.620637" lon="10.5599888"><ele>144.0</ele><time>2026-04-04T07:50:36.114Z</time></trkpt><trkpt lat="44.6204851" lon="10.5599059"><ele>144.0</ele><time>2026-04-04T07:50:37.113Z</time></trkpt><trkpt lat="44.6203349" lon="10.5598117"><ele>144.0</ele><time>2026-04-04T07:50:38.12Z</time></trkpt><trkpt lat="44.6201874" lon="10.5597019"><ele>143.33333333333334</ele><time>2026-04-04T07:50:39.11Z</time></trkpt><trkpt lat="44.62005" lon="10.559586"><ele>142.66666666666669</ele><time>2026-04-04T07:50:40.122Z</time></trkpt><trkpt lat="44.6199148" lon="10.5594585"><ele>142.0</ele><time>2026-04-04T07:50:41.114Z</time></trkpt><trkpt lat="44.6197854" lon="10.5593328"><ele>142.0</ele><time>2026-04-04T07:50:42.109Z</time></trkpt><trkpt lat="44.6196643" lon="10.5591962"><ele>142.0</ele><time>2026-04-04T07:50:43.118Z</time></trkpt><trkpt lat="44.619542" lon="10.5590508"><ele>142.0</ele><time>2026-04-04T07:50:44.117Z</time></trkpt><trkpt lat="44.6194327" lon="10.558886"><ele>142.0</ele><time>2026-04-04T07:50:45.104Z</time></trkpt><trkpt lat="44.6193368" lon="10.5587024"><ele>142.0</ele><time>2026-04-04T07:50:46.111Z</time></trkpt><trkpt lat="44.6192563" lon="10.558514"><ele>142.0</ele><time>2026-04-04T07:50:47.107Z</time></trkpt><trkpt lat="44.6191777" lon="10.5583256"><ele>142.66666666666669</ele><time>2026-04-04T07:50:48.114Z</time></trkpt><trkpt lat="44.6191069" lon="10.5581295"><ele>143.33333333333334</ele><time>2026-04-04T07:50:49.108Z</time></trkpt><trkpt lat="44.6190394" lon="10.557923"><ele>144.0</ele><time>2026-04-04T07:50:50.108Z</time></trkpt><trkpt lat="44.6189859" lon="10.5577101"><ele>144.66666666666666</ele><time>2026-04-04T07:50:51.112Z</time></trkpt><trkpt lat="44.6189326" lon="10.5575017"><ele>145.33333333333331</ele><time>2026-04-04T07:50:52.111Z</time></trkpt><trkpt lat="44.6188778" lon="10.5573016"><ele>146.0</ele><time>2026-04-04T07:50:53.152Z</time></trkpt><trkpt lat="44.6188177" lon="10.5570972"><ele>146.0</ele><time>2026-04-04T07:50:54.111Z</time></trkpt><trkpt lat="44.6187597" lon="10.556912"><ele>146.0</ele><time>2026-04-04T07:50:55.112Z</time></trkpt><trkpt lat="44.6187038" lon="10.5567447"><ele>146.0</ele><time>2026-04-04T07:50:56.1Z</time></trkpt><trkpt lat="44.6186344" lon="10.5565837"><ele>146.0</ele><time>2026-04-04T07:50:57.104Z</time></trkpt><trkpt lat="44.6185557" lon="10.556452"><ele>145.8</ele><time>2026-04-04T07:50:58.112Z</time></trkpt><trkpt lat="44.6184723" lon="10.5563704"><ele>145.6</ele><time>2026-04-04T07:50:59.106Z</time></trkpt><trkpt lat="44.6183806" lon="10.5563058"><ele>145.4</ele><time>2026-04-04T07:51:00.096Z</time></trkpt><trkpt lat="44.6182926" lon="10.5562547"><ele>145.2</ele><time>2026-04-04T07:51:01.114Z</time></trkpt><trkpt lat="44.6182194" lon="10.5562"><ele>145.0</ele><time>2026-04-04T07:51:02.108Z</time></trkpt><trkpt lat="44.6181528" lon="10.5561212"><ele>146.0</ele><time>2026-04-04T07:51:03.109Z</time></trkpt><trkpt lat="44.6180917" lon="10.5559831"><ele>147.0</ele><time>2026-04-04T07:51:04.107Z</time></trkpt><trkpt lat="44.6180246" lon="10.5558216"><ele>148.0</ele><time>2026-04-04T07:51:05.107Z</time></trkpt><trkpt lat="44.617956" lon="10.5556585"><ele>149.0</ele><time>2026-04-04T07:51:06.105Z</time></trkpt><trkpt lat="44.6178851" lon="10.555494"><ele>149.25</ele><time>2026-04-04T07:51:07.103Z</time></trkpt><trkpt lat="44.6178203" lon="10.555325"><ele>149.5</ele><time>2026-04-04T07:51:08.104Z</time></trkpt><trkpt lat="44.6177486" lon="10.55515"><ele>149.75</ele><time>2026-04-04T07:51:09.109Z</time></trkpt><trkpt lat="44.6176685" lon="10.5549856"><ele>150.0</ele><time>2026-04-04T07:51:10.109Z</time></trkpt><trkpt lat="44.6175632" lon="10.5548574"><ele>150.0</ele><time>2026-04-04T07:51:11.107Z</time></trkpt><trkpt lat="44.6174559" lon="10.5547568"><ele>150.0</ele><time>2026-04-04T07:51:12.11Z</time></trkpt><trkpt lat="44.61735" lon="10.554677"><ele>150.0</ele><time>2026-04-04T07:51:13.105Z</time></trkpt><trkpt lat="44.6172442" lon="10.5546163"><ele>150.0</ele><time>2026-04-04T07:51:14.114Z</time></trkpt><trkpt lat="44.6171403" lon="10.5545757"><ele>150.0</ele><time>2026-04-04T07:51:15.111Z</time></trkpt><trkpt lat="44.6170441" lon="10.5545438"><ele>150.0</ele><time>2026-04-04T07:51:16.111Z</time></trkpt><trkpt lat="44.6169587" lon="10.5545113"><ele>150.0</ele><time>2026-04-04T07:51:17.114Z</time></trkpt><trkpt lat="44.6168707" lon="10.554476"><ele>150.0</ele><time>2026-04-04T07:51:18.106Z</time></trkpt><trkpt lat="44.6167755" lon="10.5544281"><ele>150.0</ele><time>2026-04-04T07:51:19.111Z</time></trkpt><trkpt lat="44.6166663" lon="10.5543766"><ele>150.33333333333334</ele><time>2026-04-04T07:51:20.109Z</time></trkpt><trkpt lat="44.6165398" lon="10.5543229"><ele>150.66666666666669</ele><time>2026-04-04T07:51:21.108Z</time></trkpt><trkpt lat="44.6163713" lon="10.5542593"><ele>151.0</ele><time>2026-04-04T07:51:22.114Z</time></trkpt><trkpt lat="44.6161258" lon="10.5541624"><ele>151.0</ele><time>2026-04-04T07:51:23.122Z</time></trkpt><trkpt lat="44.6158738" lon="10.5540631"><ele>151.0</ele><time>2026-04-04T07:51:24.099Z</time></trkpt><trkpt lat="44.615644" lon="10.5540091"><ele>151.0</ele><time>2026-04-04T07:51:25.112Z</time></trkpt><trkpt lat="44.6154381" lon="10.5540034"><ele>151.0</ele><time>2026-04-04T07:51:26.095Z</time></trkpt><trkpt lat="44.6152387" lon="10.5540264"><ele>151.0</ele><time>2026-04-04T07:51:27.103Z</time></trkpt><trkpt lat="44.6150512" lon="10.5540757"><ele>151.33333333333334</ele><time>2026-04-04T07:51:28.098Z</time></trkpt><trkpt lat="44.6148529" lon="10.5541254"><ele>151.66666666666666</ele><time>2026-04-04T07:51:29.098Z</time></trkpt><trkpt lat="44.6146585" lon="10.5541777"><ele>152.0</ele><time>2026-04-04T07:51:30.104Z</time></trkpt><trkpt lat="44.6144784" lon="10.554227"><ele>152.25</ele><time>2026-04-04T07:51:31.109Z</time></trkpt><trkpt lat="44.6143201" lon="10.5542719"><ele>152.5</ele><time>2026-04-04T07:51:32.099Z</time></trkpt><trkpt lat="44.6141855" lon="10.5543026"><ele>152.75</ele><time>2026-04-04T07:51:33.097Z</time></trkpt><trkpt lat="44.6140702" lon="10.5543244"><ele>153.0</ele><time>2026-04-04T07:51:34.096Z</time></trkpt><trkpt lat="44.6139505" lon="10.5543328"><ele>153.0</ele><time>2026-04-04T07:51:35.1Z</time></trkpt><trkpt lat="44.6138313" lon="10.5543257"><ele>153.0</ele><time>2026-04-04T07:51:36.097Z</time></trkpt><trkpt lat="44.6136996" lon="10.5542884"><ele>153.0</ele><time>2026-04-04T07:51:37.099Z</time></trkpt><trkpt lat="44.6135604" lon="10.554229"><ele>153.0</ele><time>2026-04-04T07:51:38.096Z</time></trkpt><trkpt lat="44.6134129" lon="10.5541535"><ele>153.0</ele><time>2026-04-04T07:51:39.101Z</time></trkpt><trkpt lat="44.6132632" lon="10.5540615"><ele>153.0</ele><time>2026-04-04T07:51:40.104Z</time></trkpt><trkpt lat="44.613095" lon="10.5539581"><ele>153.0</ele><time>2026-04-04T07:51:41.1Z</time></trkpt><trkpt lat="44.6128927" lon="10.5538339"><ele>154.0</ele><time>2026-04-04T07:51:42.106Z</time></trkpt><trkpt lat="44.6126678" lon="10.5536848"><ele>155.0</ele><time>2026-04-04T07:51:43.098Z</time></trkpt><trkpt lat="44.6124415" lon="10.5535144"><ele>155.0</ele><time>2026-04-04T07:51:44.111Z</time></trkpt><trkpt lat="44.6122152" lon="10.5533525"><ele>155.0</ele><time>2026-04-04T07:51:45.104Z</time></trkpt><trkpt lat="44.6120104" lon="10.5532115"><ele>154.66666666666666</ele><time>2026-04-04T07:51:46.106Z</time></trkpt><trkpt lat="44.6118188" lon="10.5531043"><ele>154.33333333333334</ele><time>2026-04-04T07:51:47.106Z</time></trkpt><trkpt lat="44.6116292" lon="10.5530026"><ele>154.0</ele><time>2026-04-04T07:51:48.11Z</time></trkpt><trkpt lat="44.6114477" lon="10.5528869"><ele>154.33333333333334</ele><time>2026-04-04T07:51:49.109Z</time></trkpt><trkpt lat="44.6112702" lon="10.5527695"><ele>154.66666666666666</ele><time>2026-04-04T07:51:50.102Z</time></trkpt><trkpt lat="44.6110983" lon="10.5526517"><ele>155.0</ele><time>2026-04-04T07:51:51.121Z</time></trkpt><trkpt lat="44.6109358" lon="10.5525352"><ele>155.33333333333331</ele><time>2026-04-04T07:51:52.11Z</time></trkpt><trkpt lat="44.6107861" lon="10.552424"><ele>155.66666666666666</ele><time>2026-04-04T07:51:53.108Z</time></trkpt><trkpt lat="44.6106496" lon="10.5523131"><ele>156.0</ele><time>2026-04-04T07:51:54.128Z</time></trkpt><trkpt lat="44.6105114" lon="10.5522098"><ele>156.0</ele><time>2026-04-04T07:51:55.116Z</time></trkpt><trkpt lat="44.6103864" lon="10.5521041"><ele>156.0</ele><time>2026-04-04T07:51:56.115Z</time></trkpt><trkpt lat="44.6102609" lon="10.5520046"><ele>156.0</ele><time>2026-04-04T07:51:57.109Z</time></trkpt><trkpt lat="44.6101399" lon="10.5518963"><ele>156.0</ele><time>2026-04-04T07:51:58.113Z</time></trkpt><trkpt lat="44.6100258" lon="10.5517854"><ele>156.25</ele><time>2026-04-04T07:51:59.111Z</time></trkpt><trkpt lat="44.6099245" lon="10.5516572"><ele>156.5</ele><time>2026-04-04T07:52:00.113Z</time></trkpt><trkpt lat="44.6098338" lon="10.5515339"><ele>156.75</ele><time>2026-04-04T07:52:01.117Z</time></trkpt><trkpt lat="44.6097371" lon="10.5514093"><ele>157.0</ele><time>2026-04-04T07:52:02.113Z</time></trkpt><trkpt lat="44.6096477" lon="10.5512815"><ele>156.75</ele><time>2026-04-04T07:52:03.113Z</time></trkpt><trkpt lat="44.6095539" lon="10.5511455"><ele>156.5</ele><time>2026-04-04T07:52:04.109Z</time></trkpt><trkpt lat="44.6094727" lon="10.5510285"><ele>156.25</ele><time>2026-04-04T07:52:05.114Z</time></trkpt><trkpt lat="44.6093843" lon="10.5509149"><ele>156.0</ele><time>2026-04-04T07:52:06.113Z</time></trkpt><trkpt lat="44.6093039" lon="10.5507918"><ele>156.0</ele><time>2026-04-04T07:52:07.113Z</time></trkpt><trkpt lat="44.6092145" lon="10.5506576"><ele>156.0</ele><time>2026-04-04T07:52:08.108Z</time></trkpt><trkpt lat="44.6091174" lon="10.550517"><ele>156.0</ele><time>2026-04-04T07:52:09.112Z</time></trkpt><trkpt lat="44.6090162" lon="10.5503732"><ele>156.0</ele><time>2026-04-04T07:52:10.113Z</time></trkpt><trkpt lat="44.6089128" lon="10.5502272"><ele>156.5</ele><time>2026-04-04T07:52:11.109Z</time></trkpt><trkpt lat="44.6088053" lon="10.5500748"><ele>157.0</ele><time>2026-04-04T07:52:12.115Z</time></trkpt><trkpt lat="44.6087005" lon="10.5499242"><ele>157.5</ele><time>2026-04-04T07:52:13.114Z</time></trkpt><trkpt lat="44.6085994" lon="10.5497825"><ele>158.0</ele><time>2026-04-04T07:52:14.115Z</time></trkpt><trkpt lat="44.6084986" lon="10.5496528"><ele>158.0</ele><time>2026-04-04T07:52:15.121Z</time></trkpt><trkpt lat="44.6083842" lon="10.549554"><ele>158.0</ele><time>2026-04-04T07:52:16.114Z</time></trkpt><trkpt lat="44.6082691" lon="10.54948"><ele>158.0</ele><time>2026-04-04T07:52:17.109Z</time></trkpt><trkpt lat="44.6081558" lon="10.5494224"><ele>158.0</ele><time>2026-04-04T07:52:18.115Z</time></trkpt><trkpt lat="44.6080622" lon="10.54939"><ele>158.16666666666666</ele><time>2026-04-04T07:52:19.111Z</time></trkpt><trkpt lat="44.6079873" lon="10.5493643"><ele>158.33333333333331</ele><time>2026-04-04T07:52:20.113Z</time></trkpt><trkpt lat="44.607931" lon="10.5493168"><ele>158.5</ele><time>2026-04-04T07:52:21.113Z</time></trkpt><trkpt lat="44.6078476" lon="10.549192"><ele>158.66666666666666</ele><time>2026-04-04T07:52:23.112Z</time></trkpt><trkpt lat="44.6077913" lon="10.549152"><ele>158.83333333333334</ele><time>2026-04-04T07:52:24.116Z</time></trkpt><trkpt lat="44.6077272" lon="10.5491554"><ele>159.0</ele><time>2026-04-04T07:52:25.132Z</time></trkpt><trkpt lat="44.6076539" lon="10.5492062"><ele>158.66666666666666</ele><time>2026-04-04T07:52:26.11Z</time></trkpt><trkpt lat="44.6075866" lon="10.5492599"><ele>158.33333333333334</ele><time>2026-04-04T07:52:27.109Z</time></trkpt><trkpt lat="44.6075101" lon="10.5492885"><ele>158.0</ele><time>2026-04-04T07:52:28.112Z</time></trkpt><trkpt lat="44.6074277" lon="10.5492978"><ele>157.66666666666669</ele><time>2026-04-04T07:52:29.112Z</time></trkpt><trkpt lat="44.6073305" lon="10.5492945"><ele>157.33333333333334</ele><time>2026-04-04T07:52:30.109Z</time></trkpt><trkpt lat="44.607233" lon="10.5492748"><ele>157.0</ele><time>2026-04-04T07:52:31.111Z</time></trkpt><trkpt lat="44.6071289" lon="10.5492503"><ele>157.0</ele><time>2026-04-04T07:52:32.112Z</time></trkpt><trkpt lat="44.6070057" lon="10.5492339"><ele>157.0</ele><time>2026-04-04T07:52:33.108Z</time></trkpt><trkpt lat="44.6068638" lon="10.5492131"><ele>157.0</ele><time>2026-04-04T07:52:34.117Z</time></trkpt><trkpt lat="44.6066846" lon="10.5491773"><ele>157.0</ele><time>2026-04-04T07:52:35.118Z</time></trkpt><trkpt lat="44.6064467" lon="10.5491134"><ele>157.5</ele><time>2026-04-04T07:52:36.104Z</time></trkpt><trkpt lat="44.6061971" lon="10.5490594"><ele>158.0</ele><time>2026-04-04T07:52:37.112Z</time></trkpt><trkpt lat="44.6059605" lon="10.5490137"><ele>158.33333333333331</ele><time>2026-04-04T07:52:38.111Z</time></trkpt><trkpt lat="44.6057452" lon="10.5489509"><ele>158.66666666666666</ele><time>2026-04-04T07:52:39.106Z</time></trkpt><trkpt lat="44.6055357" lon="10.5488613"><ele>159.0</ele><time>2026-04-04T07:52:40.111Z</time></trkpt><trkpt lat="44.6053449" lon="10.5487475"><ele>160.66666666666666</ele><time>2026-04-04T07:52:41.103Z</time></trkpt><trkpt lat="44.6051647" lon="10.548606"><ele>162.33333333333331</ele><time>2026-04-04T07:52:42.106Z</time></trkpt><trkpt lat="44.6049925" lon="10.548465"><ele>164.0</ele><time>2026-04-04T07:52:43.097Z</time></trkpt><trkpt lat="44.6048309" lon="10.5483413"><ele>164.0</ele><time>2026-04-04T07:52:44.096Z</time></trkpt><trkpt lat="44.6046753" lon="10.5482142"><ele>164.0</ele><time>2026-04-04T07:52:45.098Z</time></trkpt><trkpt lat="44.6045142" lon="10.5480912"><ele>164.0</ele><time>2026-04-04T07:52:46.095Z</time></trkpt><trkpt lat="44.6043529" lon="10.5479708"><ele>165.0</ele><time>2026-04-04T07:52:47.101Z</time></trkpt><trkpt lat="44.6041909" lon="10.5478566"><ele>166.0</ele><time>2026-04-04T07:52:48.102Z</time></trkpt><trkpt lat="44.6040289" lon="10.5477416"><ele>167.0</ele><time>2026-04-04T07:52:49.093Z</time></trkpt><trkpt lat="44.6038547" lon="10.5476447"><ele>167.0</ele><time>2026-04-04T07:52:50.105Z</time></trkpt><trkpt lat="44.6036732" lon="10.5475864"><ele>167.0</ele><time>2026-04-04T07:52:51.087Z</time></trkpt><trkpt lat="44.6034938" lon="10.547545"><ele>167.0</ele><time>2026-04-04T07:52:52.091Z</time></trkpt><trkpt lat="44.6033179" lon="10.5475171"><ele>167.0</ele><time>2026-04-04T07:52:53.099Z</time></trkpt><trkpt lat="44.603154" lon="10.5474885"><ele>167.0</ele><time>2026-04-04T07:52:54.088Z</time></trkpt><trkpt lat="44.6029986" lon="10.5474649"><ele>167.0</ele><time>2026-04-04T07:52:55.102Z</time></trkpt><trkpt lat="44.6028548" lon="10.5474298"><ele>167.0</ele><time>2026-04-04T07:52:56.112Z</time></trkpt><trkpt lat="44.6027247" lon="10.5473869"><ele>167.0</ele><time>2026-04-04T07:52:57.098Z</time></trkpt><trkpt lat="44.6025928" lon="10.5473325"><ele>167.0</ele><time>2026-04-04T07:52:58.1Z</time></trkpt><trkpt lat="44.6024618" lon="10.5472591"><ele>167.0</ele><time>2026-04-04T07:52:59.104Z</time></trkpt><trkpt lat="44.6023488" lon="10.5471863"><ele>167.0</ele><time>2026-04-04T07:53:00.099Z</time></trkpt><trkpt lat="44.6022354" lon="10.5471119"><ele>167.0</ele><time>2026-04-04T07:53:01.098Z</time></trkpt><trkpt lat="44.6021294" lon="10.5470325"><ele>167.0</ele><time>2026-04-04T07:53:02.104Z</time></trkpt><trkpt lat="44.602026" lon="10.5469433"><ele>167.0</ele><time>2026-04-04T07:53:03.104Z</time></trkpt><trkpt lat="44.6019355" lon="10.5468592"><ele>168.2</ele><time>2026-04-04T07:53:04.11Z</time></trkpt><trkpt lat="44.6018441" lon="10.5467838"><ele>169.39999999999998</ele><time>2026-04-04T07:53:05.101Z</time></trkpt><trkpt lat="44.6017552" lon="10.5467091"><ele>170.60000000000002</ele><time>2026-04-04T07:53:06.114Z</time></trkpt><trkpt lat="44.6016688" lon="10.5466433"><ele>171.8</ele><time>2026-04-04T07:53:07.098Z</time></trkpt><trkpt lat="44.601595" lon="10.546583"><ele>173.0</ele><time>2026-04-04T07:53:08.108Z</time></trkpt><trkpt lat="44.6015331" lon="10.5465376"><ele>173.0</ele><time>2026-04-04T07:53:09.104Z</time></trkpt><trkpt lat="44.6014389" lon="10.546469"><ele>173.0</ele><time>2026-04-04T07:53:11.101Z</time></trkpt><trkpt lat="44.6013578" lon="10.5464037"><ele>173.0</ele><time>2026-04-04T07:53:13.094Z</time></trkpt><trkpt lat="44.6012469" lon="10.5463315"><ele>173.0</ele><time>2026-04-04T07:53:15.1Z</time></trkpt><trkpt lat="44.601162" lon="10.5462743"><ele>173.0</ele><time>2026-04-04T07:53:16.112Z</time></trkpt><trkpt lat="44.6010549" lon="10.5462045"><ele>173.60000000000002</ele><time>2026-04-04T07:53:17.102Z</time></trkpt><trkpt lat="44.6009482" lon="10.5461394"><ele>174.20000000000002</ele><time>2026-04-04T07:53:18.111Z</time></trkpt><trkpt lat="44.6008553" lon="10.5460876"><ele>174.8</ele><time>2026-04-04T07:53:19.109Z</time></trkpt><trkpt lat="44.6007727" lon="10.5460428"><ele>175.4</ele><time>2026-04-04T07:53:20.114Z</time></trkpt><trkpt lat="44.6006992" lon="10.5460053"><ele>176.0</ele><time>2026-04-04T07:53:21.108Z</time></trkpt><trkpt lat="44.6006295" lon="10.5459677"><ele>176.0</ele><time>2026-04-04T07:53:22.108Z</time></trkpt><trkpt lat="44.6005166" lon="10.5459017"><ele>176.0</ele><time>2026-04-04T07:53:24.103Z</time></trkpt><trkpt lat="44.6004045" lon="10.5458367"><ele>176.0</ele><time>2026-04-04T07:53:26.113Z</time></trkpt><trkpt lat="44.6002933" lon="10.5457707"><ele>176.0</ele><time>2026-04-04T07:53:28.098Z</time></trkpt><trkpt lat="44.600225" lon="10.5457361"><ele>176.0</ele><time>2026-04-04T07:53:29.107Z</time></trkpt><trkpt lat="44.6001511" lon="10.545691"><ele>175.83333333333331</ele><time>2026-04-04T07:53:30.102Z</time></trkpt><trkpt lat="44.6000702" lon="10.5456455"><ele>175.66666666666666</ele><time>2026-04-04T07:53:31.103Z</time></trkpt><trkpt lat="44.5999884" lon="10.5455978"><ele>175.5</ele><time>2026-04-04T07:53:32.114Z</time></trkpt><trkpt lat="44.599906" lon="10.5455502"><ele>175.33333333333334</ele><time>2026-04-04T07:53:33.102Z</time></trkpt><trkpt lat="44.5998266" lon="10.5454937"><ele>175.16666666666669</ele><time>2026-04-04T07:53:34.102Z</time></trkpt><trkpt lat="44.5997513" lon="10.5454261"><ele>175.0</ele><time>2026-04-04T07:53:35.111Z</time></trkpt><trkpt lat="44.5996806" lon="10.5453645"><ele>175.0</ele><time>2026-04-04T07:53:36.105Z</time></trkpt><trkpt lat="44.5996073" lon="10.5452973"><ele>175.0</ele><time>2026-04-04T07:53:37.11Z</time></trkpt><trkpt lat="44.5995378" lon="10.5452189"><ele>175.0</ele><time>2026-04-04T07:53:38.109Z</time></trkpt><trkpt lat="44.5994684" lon="10.5451463"><ele>175.0</ele><time>2026-04-04T07:53:39.105Z</time></trkpt><trkpt lat="44.599399" lon="10.5450779"><ele>175.0</ele><time>2026-04-04T07:53:40.103Z</time></trkpt><trkpt lat="44.5993296" lon="10.5450024"><ele>175.0</ele><time>2026-04-04T07:53:41.107Z</time></trkpt><trkpt lat="44.5992557" lon="10.5449339"><ele>175.0</ele><time>2026-04-04T07:53:42.113Z</time></trkpt><trkpt lat="44.5991796" lon="10.5448611"><ele>175.0</ele><time>2026-04-04T07:53:43.108Z</time></trkpt><trkpt lat="44.5991054" lon="10.544786"><ele>175.0</ele><time>2026-04-04T07:53:44.111Z</time></trkpt><trkpt lat="44.5990311" lon="10.5447073"><ele>175.0</ele><time>2026-04-04T07:53:45.11Z</time></trkpt><trkpt lat="44.5989604" lon="10.5446309"><ele>175.0</ele><time>2026-04-04T07:53:46.107Z</time></trkpt><trkpt lat="44.5988937" lon="10.5445513"><ele>175.2</ele><time>2026-04-04T07:53:47.11Z</time></trkpt><trkpt lat="44.5988299" lon="10.5444677"><ele>175.4</ele><time>2026-04-04T07:53:48.118Z</time></trkpt><trkpt lat="44.5987637" lon="10.5443742"><ele>175.60000000000002</ele><time>2026-04-04T07:53:49.113Z</time></trkpt><trkpt lat="44.5986903" lon="10.5442776"><ele>175.8</ele><time>2026-04-04T07:53:50.097Z</time></trkpt><trkpt lat="44.5986155" lon="10.5441779"><ele>176.0</ele><time>2026-04-04T07:53:51.114Z</time></trkpt><trkpt lat="44.5985368" lon="10.544077"><ele>176.0</ele><time>2026-04-04T07:53:52.104Z</time></trkpt><trkpt lat="44.5984555" lon="10.5439708"><ele>176.0</ele><time>2026-04-04T07:53:53.096Z</time></trkpt><trkpt lat="44.5983691" lon="10.5438546"><ele>176.0</ele><time>2026-04-04T07:53:54.112Z</time></trkpt><trkpt lat="44.5982834" lon="10.5437328"><ele>176.0</ele><time>2026-04-04T07:53:55.103Z</time></trkpt><trkpt lat="44.5982003" lon="10.5435964"><ele>177.5</ele><time>2026-04-04T07:53:56.096Z</time></trkpt><trkpt lat="44.5981243" lon="10.5434436"><ele>179.0</ele><time>2026-04-04T07:53:57.097Z</time></trkpt><trkpt lat="44.5980627" lon="10.5432826"><ele>180.5</ele><time>2026-04-04T07:53:58.108Z</time></trkpt><trkpt lat="44.5980048" lon="10.5431156"><ele>182.0</ele><time>2026-04-04T07:53:59.095Z</time></trkpt><trkpt lat="44.5979454" lon="10.5429576"><ele>181.75</ele><time>2026-04-04T07:54:00.103Z</time></trkpt><trkpt lat="44.5978837" lon="10.5428109"><ele>181.5</ele><time>2026-04-04T07:54:01.093Z</time></trkpt><trkpt lat="44.5978083" lon="10.5426727"><ele>181.25</ele><time>2026-04-04T07:54:02.099Z</time></trkpt><trkpt lat="44.5977195" lon="10.5425466"><ele>181.0</ele><time>2026-04-04T07:54:03.095Z</time></trkpt><trkpt lat="44.5976128" lon="10.5424297"><ele>181.0</ele><time>2026-04-04T07:54:04.094Z</time></trkpt><trkpt lat="44.5974901" lon="10.5423296"><ele>181.0</ele><time>2026-04-04T07:54:05.098Z</time></trkpt><trkpt lat="44.5973571" lon="10.5422316"><ele>181.0</ele><time>2026-04-04T07:54:06.1Z</time></trkpt><trkpt lat="44.5972157" lon="10.5421302"><ele>179.66666666666669</ele><time>2026-04-04T07:54:07.094Z</time></trkpt><trkpt lat="44.5970766" lon="10.5420192"><ele>178.33333333333334</ele><time>2026-04-04T07:54:08.102Z</time></trkpt><trkpt lat="44.5969405" lon="10.5419029"><ele>177.0</ele><time>2026-04-04T07:54:09.102Z</time></trkpt><trkpt lat="44.5968028" lon="10.5417976"><ele>177.0</ele><time>2026-04-04T07:54:10.099Z</time></trkpt><trkpt lat="44.5966668" lon="10.541682"><ele>177.0</ele><time>2026-04-04T07:54:11.109Z</time></trkpt><trkpt lat="44.5965356" lon="10.5415701"><ele>177.0</ele><time>2026-04-04T07:54:12.099Z</time></trkpt><trkpt lat="44.5964033" lon="10.5414511"><ele>177.0</ele><time>2026-04-04T07:54:13.106Z</time></trkpt><trkpt lat="44.5962703" lon="10.5413451"><ele>177.0</ele><time>2026-04-04T07:54:14.107Z</time></trkpt><trkpt lat="44.5961232" lon="10.5412339"><ele>177.0</ele><time>2026-04-04T07:54:15.104Z</time></trkpt><trkpt lat="44.5959741" lon="10.5411279"><ele>178.0</ele><time>2026-04-04T07:54:16.099Z</time></trkpt><trkpt lat="44.5958266" lon="10.5410243"><ele>179.0</ele><time>2026-04-04T07:54:17.103Z</time></trkpt><trkpt lat="44.5956734" lon="10.5409273"><ele>180.0</ele><time>2026-04-04T07:54:18.106Z</time></trkpt><trkpt lat="44.5955274" lon="10.540828"><ele>180.0</ele><time>2026-04-04T07:54:19.102Z</time></trkpt><trkpt lat="44.5953813" lon="10.5407423"><ele>180.0</ele><time>2026-04-04T07:54:20.096Z</time></trkpt><trkpt lat="44.5952391" lon="10.5406525"><ele>180.0</ele><time>2026-04-04T07:54:21.098Z</time></trkpt><trkpt lat="44.5950968" lon="10.5405635"><ele>179.66666666666666</ele><time>2026-04-04T07:54:22.101Z</time></trkpt><trkpt lat="44.5949499" lon="10.5404671"><ele>179.33333333333331</ele><time>2026-04-04T07:54:23.099Z</time></trkpt><trkpt lat="44.5948013" lon="10.540368"><ele>179.0</ele><time>2026-04-04T07:54:24.096Z</time></trkpt><trkpt lat="44.5946519" lon="10.540258"><ele>180.0</ele><time>2026-04-04T07:54:25.104Z</time></trkpt><trkpt lat="44.5945003" lon="10.5401613"><ele>181.0</ele><time>2026-04-04T07:54:26.096Z</time></trkpt><trkpt lat="44.5943449" lon="10.5400456"><ele>182.0</ele><time>2026-04-04T07:54:27.104Z</time></trkpt><trkpt lat="44.5941971" lon="10.5399301"><ele>182.0</ele><time>2026-04-04T07:54:28.106Z</time></trkpt><trkpt lat="44.5940526" lon="10.5397953"><ele>182.0</ele><time>2026-04-04T07:54:29.11Z</time></trkpt><trkpt lat="44.5939122" lon="10.5396433"><ele>182.0</ele><time>2026-04-04T07:54:30.104Z</time></trkpt><trkpt lat="44.5937764" lon="10.5394898"><ele>182.0</ele><time>2026-04-04T07:54:31.107Z</time></trkpt><trkpt lat="44.593644" lon="10.5393367"><ele>182.0</ele><time>2026-04-04T07:54:32.103Z</time></trkpt><trkpt lat="44.5935102" lon="10.539194"><ele>182.0</ele><time>2026-04-04T07:54:33.089Z</time></trkpt><trkpt lat="44.593375" lon="10.539055"><ele>182.0</ele><time>2026-04-04T07:54:34.105Z</time></trkpt><trkpt lat="44.5932398" lon="10.5389141"><ele>182.0</ele><time>2026-04-04T07:54:35.104Z</time></trkpt><trkpt lat="44.5931025" lon="10.5387695"><ele>182.0</ele><time>2026-04-04T07:54:36.096Z</time></trkpt><trkpt lat="44.5929671" lon="10.5386302"><ele>182.66666666666666</ele><time>2026-04-04T07:54:37.096Z</time></trkpt><trkpt lat="44.592824" lon="10.5384968"><ele>183.33333333333334</ele><time>2026-04-04T07:54:38.103Z</time></trkpt><trkpt lat="44.5926814" lon="10.5383606"><ele>184.0</ele><time>2026-04-04T07:54:39.101Z</time></trkpt><trkpt lat="44.5925376" lon="10.5382292"><ele>184.0</ele><time>2026-04-04T07:54:40.094Z</time></trkpt><trkpt lat="44.5923914" lon="10.5380997"><ele>184.0</ele><time>2026-04-04T07:54:41.102Z</time></trkpt><trkpt lat="44.5922502" lon="10.5379618"><ele>184.0</ele><time>2026-04-04T07:54:42.107Z</time></trkpt><trkpt lat="44.5921151" lon="10.5378319"><ele>184.75</ele><time>2026-04-04T07:54:43.104Z</time></trkpt><trkpt lat="44.591988" lon="10.5376974"><ele>185.5</ele><time>2026-04-04T07:54:44.115Z</time></trkpt><trkpt lat="44.5918636" lon="10.5375834"><ele>186.25</ele><time>2026-04-04T07:54:45.098Z</time></trkpt><trkpt lat="44.5917504" lon="10.537478"><ele>187.0</ele><time>2026-04-04T07:54:46.107Z</time></trkpt><trkpt lat="44.5916396" lon="10.5373775"><ele>187.0</ele><time>2026-04-04T07:54:47.104Z</time></trkpt><trkpt lat="44.591523" lon="10.5372747"><ele>187.0</ele><time>2026-04-04T07:54:48.106Z</time></trkpt><trkpt lat="44.5913956" lon="10.5371763"><ele>187.0</ele><time>2026-04-04T07:54:49.111Z</time></trkpt><trkpt lat="44.5912723" lon="10.5370688"><ele>187.0</ele><time>2026-04-04T07:54:50.108Z</time></trkpt><trkpt lat="44.5911514" lon="10.5369436"><ele>188.33333333333334</ele><time>2026-04-04T07:54:51.119Z</time></trkpt><trkpt lat="44.5910303" lon="10.5368158"><ele>189.66666666666666</ele><time>2026-04-04T07:54:52.1Z</time></trkpt><trkpt lat="44.5908937" lon="10.5366802"><ele>191.0</ele><time>2026-04-04T07:54:53.111Z</time></trkpt><trkpt lat="44.5907462" lon="10.5365492"><ele>191.0</ele><time>2026-04-04T07:54:54.107Z</time></trkpt><trkpt lat="44.5905968" lon="10.5364405"><ele>191.0</ele><time>2026-04-04T07:54:55.109Z</time></trkpt><trkpt lat="44.5904341" lon="10.5363376"><ele>191.0</ele><time>2026-04-04T07:54:56.11Z</time></trkpt><trkpt lat="44.5902737" lon="10.5362701"><ele>193.66666666666666</ele><time>2026-04-04T07:54:57.103Z</time></trkpt><trkpt lat="44.5901151" lon="10.5362141"><ele>196.33333333333331</ele><time>2026-04-04T07:54:58.109Z</time></trkpt><trkpt lat="44.5899559" lon="10.5361858"><ele>199.0</ele><time>2026-04-04T07:54:59.105Z</time></trkpt><trkpt lat="44.5898057" lon="10.5361389"><ele>199.0</ele><time>2026-04-04T07:55:00.118Z</time></trkpt><trkpt lat="44.5896638" lon="10.5360942"><ele>199.0</ele><time>2026-04-04T07:55:01.104Z</time></trkpt><trkpt lat="44.5895261" lon="10.5360436"><ele>199.0</ele><time>2026-04-04T07:55:02.107Z</time></trkpt><trkpt lat="44.5894058" lon="10.5359944"><ele>199.0</ele><time>2026-04-04T07:55:03.107Z</time></trkpt><trkpt lat="44.5892859" lon="10.535936"><ele>196.5</ele><time>2026-04-04T07:55:04.098Z</time></trkpt><trkpt lat="44.5891718" lon="10.535882"><ele>194.0</ele><time>2026-04-04T07:55:05.113Z</time></trkpt><trkpt lat="44.5890477" lon="10.5358278"><ele>191.5</ele><time>2026-04-04T07:55:06.109Z</time></trkpt><trkpt lat="44.5889369" lon="10.5357687"><ele>189.0</ele><time>2026-04-04T07:55:07.113Z</time></trkpt><trkpt lat="44.5888285" lon="10.5357177"><ele>189.0</ele><time>2026-04-04T07:55:08.113Z</time></trkpt><trkpt lat="44.5887139" lon="10.5356661"><ele>189.0</ele><time>2026-04-04T07:55:09.113Z</time></trkpt><trkpt lat="44.5885989" lon="10.5356126"><ele>189.0</ele><time>2026-04-04T07:55:10.115Z</time></trkpt><trkpt lat="44.5884832" lon="10.5355588"><ele>189.0</ele><time>2026-04-04T07:55:11.111Z</time></trkpt><trkpt lat="44.5883715" lon="10.5355083"><ele>189.5</ele><time>2026-04-04T07:55:12.106Z</time></trkpt><trkpt lat="44.5882647" lon="10.5354586"><ele>190.0</ele><time>2026-04-04T07:55:13.099Z</time></trkpt><trkpt lat="44.5881573" lon="10.5354107"><ele>190.5</ele><time>2026-04-04T07:55:14.115Z</time></trkpt><trkpt lat="44.5880452" lon="10.5353693"><ele>191.0</ele><time>2026-04-04T07:55:15.103Z</time></trkpt><trkpt lat="44.5879245" lon="10.535342"><ele>191.5</ele><time>2026-04-04T07:55:16.104Z</time></trkpt><trkpt lat="44.5878083" lon="10.5353382"><ele>192.0</ele><time>2026-04-04T07:55:17.109Z</time></trkpt><trkpt lat="44.5876988" lon="10.5353505"><ele>192.5</ele><time>2026-04-04T07:55:18.1Z</time></trkpt><trkpt lat="44.5875842" lon="10.535368"><ele>193.0</ele><time>2026-04-04T07:55:19.1Z</time></trkpt><trkpt lat="44.5874645" lon="10.5353873"><ele>193.0</ele><time>2026-04-04T07:55:20.099Z</time></trkpt><trkpt lat="44.5873404" lon="10.5354027"><ele>193.0</ele><time>2026-04-04T07:55:21.095Z</time></trkpt><trkpt lat="44.5872127" lon="10.5354051"><ele>193.0</ele><time>2026-04-04T07:55:22.095Z</time></trkpt><trkpt lat="44.5870877" lon="10.5353767"><ele>193.0</ele><time>2026-04-04T07:55:23.101Z</time></trkpt><trkpt lat="44.5869678" lon="10.5353177"><ele>194.25</ele><time>2026-04-04T07:55:24.107Z</time></trkpt><trkpt lat="44.5868541" lon="10.5352332"><ele>195.5</ele><time>2026-04-04T07:55:25.105Z</time></trkpt><trkpt lat="44.5867299" lon="10.5351356"><ele>196.75</ele><time>2026-04-04T07:55:26.098Z</time></trkpt><trkpt lat="44.5865793" lon="10.5350476"><ele>198.0</ele><time>2026-04-04T07:55:27.108Z</time></trkpt><trkpt lat="44.5864087" lon="10.5349811"><ele>198.0</ele><time>2026-04-04T07:55:28.096Z</time></trkpt><trkpt lat="44.5862695" lon="10.5348464"><ele>198.0</ele><time>2026-04-04T07:55:29.097Z</time></trkpt><trkpt lat="44.5861646" lon="10.5346704"><ele>198.0</ele><time>2026-04-04T07:55:30.101Z</time></trkpt><trkpt lat="44.5861071" lon="10.5344465"><ele>198.75</ele><time>2026-04-04T07:55:31.121Z</time></trkpt><trkpt lat="44.586032" lon="10.5342784"><ele>199.5</ele><time>2026-04-04T07:55:32.103Z</time></trkpt><trkpt lat="44.5859284" lon="10.5341656"><ele>200.25</ele><time>2026-04-04T07:55:33.102Z</time></trkpt><trkpt lat="44.5857787" lon="10.5341349"><ele>201.0</ele><time>2026-04-04T07:55:34.098Z</time></trkpt><trkpt lat="44.5856333" lon="10.5341692"><ele>201.0</ele><time>2026-04-04T07:55:35.099Z</time></trkpt><trkpt lat="44.585507" lon="10.5342102"><ele>201.0</ele><time>2026-04-04T07:55:36.1Z</time></trkpt><trkpt lat="44.5853968" lon="10.534328"><ele>201.0</ele><time>2026-04-04T07:55:37.098Z</time></trkpt><trkpt lat="44.5852643" lon="10.5344611"><ele>201.0</ele><time>2026-04-04T07:55:38.094Z</time></trkpt><trkpt lat="44.5851438" lon="10.5345953"><ele>201.5</ele><time>2026-04-04T07:55:39.095Z</time></trkpt><trkpt lat="44.5850386" lon="10.5347025"><ele>202.0</ele><time>2026-04-04T07:55:40.085Z</time></trkpt><trkpt lat="44.5848963" lon="10.5347682"><ele>202.5</ele><time>2026-04-04T07:55:41.077Z</time></trkpt><trkpt lat="44.5847677" lon="10.5348286"><ele>203.0</ele><time>2026-04-04T07:55:42.088Z</time></trkpt><trkpt lat="44.5846395" lon="10.5348839"><ele>204.75</ele><time>2026-04-04T07:55:43.091Z</time></trkpt><trkpt lat="44.5845063" lon="10.5349397"><ele>206.5</ele><time>2026-04-04T07:55:44.096Z</time></trkpt><trkpt lat="44.5843789" lon="10.53501"><ele>208.25</ele><time>2026-04-04T07:55:45.089Z</time></trkpt><trkpt lat="44.5842461" lon="10.535088"><ele>210.0</ele><time>2026-04-04T07:55:46.085Z</time></trkpt><trkpt lat="44.5841085" lon="10.5351592"><ele>210.0</ele><time>2026-04-04T07:55:47.087Z</time></trkpt><trkpt lat="44.5839736" lon="10.5352181"><ele>210.0</ele><time>2026-04-04T07:55:48.095Z</time></trkpt><trkpt lat="44.5838473" lon="10.5352794"><ele>210.0</ele><time>2026-04-04T07:55:49.081Z</time></trkpt><trkpt lat="44.5837251" lon="10.5353195"><ele>210.0</ele><time>2026-04-04T07:55:50.098Z</time></trkpt><trkpt lat="44.5835884" lon="10.5353276"><ele>210.6</ele><time>2026-04-04T07:55:51.131Z</time></trkpt><trkpt lat="44.5834469" lon="10.53533"><ele>211.2</ele><time>2026-04-04T07:55:52.087Z</time></trkpt><trkpt lat="44.5833304" lon="10.5353231"><ele>211.8</ele><time>2026-04-04T07:55:53.1Z</time></trkpt><trkpt lat="44.5832474" lon="10.5352858"><ele>212.4</ele><time>2026-04-04T07:55:54.094Z</time></trkpt><trkpt lat="44.5831845" lon="10.5352206"><ele>213.0</ele><time>2026-04-04T07:55:55.086Z</time></trkpt><trkpt lat="44.5831295" lon="10.5351385"><ele>213.0</ele><time>2026-04-04T07:55:56.088Z</time></trkpt><trkpt lat="44.5830913" lon="10.5350224"><ele>213.0</ele><time>2026-04-04T07:55:57.094Z</time></trkpt><trkpt lat="44.5830517" lon="10.5348884"><ele>213.0</ele><time>2026-04-04T07:55:58.1Z</time></trkpt><trkpt lat="44.5829805" lon="10.5347178"><ele>213.0</ele><time>2026-04-04T07:55:59.093Z</time></trkpt><trkpt lat="44.5828957" lon="10.5344803"><ele>212.66666666666669</ele><time>2026-04-04T07:56:00.094Z</time></trkpt><trkpt lat="44.5828059" lon="10.5341817"><ele>212.33333333333334</ele><time>2026-04-04T07:56:01.085Z</time></trkpt><trkpt lat="44.582707" lon="10.533926"><ele>212.0</ele><time>2026-04-04T07:56:02.107Z</time></trkpt><trkpt lat="44.5825612" lon="10.5337529"><ele>212.0</ele><time>2026-04-04T07:56:03.09Z</time></trkpt><trkpt lat="44.5823993" lon="10.5336684"><ele>212.0</ele><time>2026-04-04T07:56:04.073Z</time></trkpt><trkpt lat="44.5822414" lon="10.5336975"><ele>212.0</ele><time>2026-04-04T07:56:05.072Z</time></trkpt><trkpt lat="44.5820789" lon="10.5337846"><ele>212.25</ele><time>2026-04-04T07:56:06.07Z</time></trkpt><trkpt lat="44.5819255" lon="10.5338956"><ele>212.5</ele><time>2026-04-04T07:56:07.08Z</time></trkpt><trkpt lat="44.5817928" lon="10.5339421"><ele>212.75</ele><time>2026-04-04T07:56:08.097Z</time></trkpt><trkpt lat="44.5816776" lon="10.5338911"><ele>213.0</ele><time>2026-04-04T07:56:09.094Z</time></trkpt><trkpt lat="44.5815781" lon="10.5337392"><ele>214.33333333333331</ele><time>2026-04-04T07:56:10.088Z</time></trkpt><trkpt lat="44.5815295" lon="10.5335287"><ele>215.66666666666666</ele><time>2026-04-04T07:56:11.093Z</time></trkpt><trkpt lat="44.5815422" lon="10.5332892"><ele>217.0</ele><time>2026-04-04T07:56:12.097Z</time></trkpt><trkpt lat="44.5815503" lon="10.5330157"><ele>219.0</ele><time>2026-04-04T07:56:13.082Z</time></trkpt><trkpt lat="44.5815605" lon="10.5327581"><ele>221.0</ele><time>2026-04-04T07:56:14.09Z</time></trkpt><trkpt lat="44.5815485" lon="10.5325301"><ele>223.0</ele><time>2026-04-04T07:56:15.084Z</time></trkpt><trkpt lat="44.5815308" lon="10.5323392"><ele>223.0</ele><time>2026-04-04T07:56:16.077Z</time></trkpt><trkpt lat="44.5815005" lon="10.5321751"><ele>223.0</ele><time>2026-04-04T07:56:17.077Z</time></trkpt><trkpt lat="44.5814354" lon="10.5320209"><ele>223.0</ele><time>2026-04-04T07:56:18.07Z</time></trkpt><trkpt lat="44.5813335" lon="10.5318919"><ele>223.0</ele><time>2026-04-04T07:56:19.067Z</time></trkpt><trkpt lat="44.5811955" lon="10.5317374"><ele>221.0</ele><time>2026-04-04T07:56:20.071Z</time></trkpt><trkpt lat="44.581058" lon="10.5315866"><ele>219.0</ele><time>2026-04-04T07:56:21.073Z</time></trkpt><trkpt lat="44.5809319" lon="10.5314194"><ele>217.0</ele><time>2026-04-04T07:56:22.089Z</time></trkpt><trkpt lat="44.5808135" lon="10.5312631"><ele>217.66666666666666</ele><time>2026-04-04T07:56:23.082Z</time></trkpt><trkpt lat="44.5806734" lon="10.5311523"><ele>218.33333333333331</ele><time>2026-04-04T07:56:24.076Z</time></trkpt><trkpt lat="44.5804879" lon="10.5311087"><ele>219.0</ele><time>2026-04-04T07:56:25.083Z</time></trkpt><trkpt lat="44.5802997" lon="10.5311195"><ele>219.0</ele><time>2026-04-04T07:56:26.085Z</time></trkpt><trkpt lat="44.5801465" lon="10.5311191"><ele>219.0</ele><time>2026-04-04T07:56:27.083Z</time></trkpt><trkpt lat="44.5800392" lon="10.5310953"><ele>219.0</ele><time>2026-04-04T07:56:28.092Z</time></trkpt><trkpt lat="44.5799128" lon="10.5310338"><ele>219.0</ele><time>2026-04-04T07:56:29.081Z</time></trkpt><trkpt lat="44.5798191" lon="10.5309045"><ele>219.0</ele><time>2026-04-04T07:56:30.098Z</time></trkpt><trkpt lat="44.5797608" lon="10.5307458"><ele>219.0</ele><time>2026-04-04T07:56:31.091Z</time></trkpt><trkpt lat="44.5797056" lon="10.5305792"><ele>219.0</ele><time>2026-04-04T07:56:32.099Z</time></trkpt><trkpt lat="44.5796607" lon="10.5304204"><ele>219.0</ele><time>2026-04-04T07:56:33.114Z</time></trkpt><trkpt lat="44.5795997" lon="10.5302656"><ele>218.0</ele><time>2026-04-04T07:56:34.086Z</time></trkpt><trkpt lat="44.5795294" lon="10.530112"><ele>217.0</ele><time>2026-04-04T07:56:35.103Z</time></trkpt><trkpt lat="44.5794506" lon="10.5299616"><ele>216.0</ele><time>2026-04-04T07:56:36.098Z</time></trkpt><trkpt lat="44.5793584" lon="10.5298199"><ele>215.0</ele><time>2026-04-04T07:56:37.107Z</time></trkpt><trkpt lat="44.5792561" lon="10.5296924"><ele>217.33333333333334</ele><time>2026-04-04T07:56:38.1Z</time></trkpt><trkpt lat="44.5791537" lon="10.5295544"><ele>219.66666666666669</ele><time>2026-04-04T07:56:39.097Z</time></trkpt><trkpt lat="44.5790673" lon="10.5293892"><ele>222.0</ele><time>2026-04-04T07:56:40.1Z</time></trkpt><trkpt lat="44.5790139" lon="10.5291565"><ele>222.0</ele><time>2026-04-04T07:56:41.092Z</time></trkpt><trkpt lat="44.5789532" lon="10.528945"><ele>222.0</ele><time>2026-04-04T07:56:42.088Z</time></trkpt><trkpt lat="44.5788767" lon="10.5287579"><ele>222.0</ele><time>2026-04-04T07:56:43.104Z</time></trkpt><trkpt lat="44.5787732" lon="10.5285951"><ele>221.33333333333331</ele><time>2026-04-04T07:56:44.113Z</time></trkpt><trkpt lat="44.5786441" lon="10.5284659"><ele>220.66666666666666</ele><time>2026-04-04T07:56:45.093Z</time></trkpt><trkpt lat="44.5784923" lon="10.5283565"><ele>220.0</ele><time>2026-04-04T07:56:46.104Z</time></trkpt><trkpt lat="44.578339" lon="10.5282634"><ele>220.0</ele><time>2026-04-04T07:56:47.106Z</time></trkpt><trkpt lat="44.5781845" lon="10.5281797"><ele>220.0</ele><time>2026-04-04T07:56:48.11Z</time></trkpt><trkpt lat="44.5780377" lon="10.5281009"><ele>220.0</ele><time>2026-04-04T07:56:49.116Z</time></trkpt><trkpt lat="44.5778931" lon="10.5280321"><ele>220.75</ele><time>2026-04-04T07:56:50.11Z</time></trkpt><trkpt lat="44.5777571" lon="10.5279653"><ele>221.5</ele><time>2026-04-04T07:56:51.114Z</time></trkpt><trkpt lat="44.5776193" lon="10.5279016"><ele>222.25</ele><time>2026-04-04T07:56:52.106Z</time></trkpt><trkpt lat="44.57748" lon="10.5278375"><ele>223.0</ele><time>2026-04-04T07:56:53.108Z</time></trkpt><trkpt lat="44.5773457" lon="10.52778"><ele>223.0</ele><time>2026-04-04T07:56:54.111Z</time></trkpt><trkpt lat="44.5771984" lon="10.5277576"><ele>223.0</ele><time>2026-04-04T07:56:55.108Z</time></trkpt><trkpt lat="44.5770451" lon="10.5277501"><ele>223.0</ele><time>2026-04-04T07:56:56.107Z</time></trkpt><trkpt lat="44.5769004" lon="10.5277922"><ele>223.0</ele><time>2026-04-04T07:56:57.104Z</time></trkpt><trkpt lat="44.576756" lon="10.5278788"><ele>220.33333333333331</ele><time>2026-04-04T07:56:58.105Z</time></trkpt><trkpt lat="44.5766161" lon="10.5279653"><ele>217.66666666666669</ele><time>2026-04-04T07:56:59.103Z</time></trkpt><trkpt lat="44.5764804" lon="10.528074"><ele>215.0</ele><time>2026-04-04T07:57:00.102Z</time></trkpt><trkpt lat="44.5763381" lon="10.5282088"><ele>215.0</ele><time>2026-04-04T07:57:01.106Z</time></trkpt><trkpt lat="44.5762088" lon="10.5283704"><ele>215.0</ele><time>2026-04-04T07:57:02.102Z</time></trkpt><trkpt lat="44.5760843" lon="10.5285378"><ele>215.0</ele><time>2026-04-04T07:57:03.108Z</time></trkpt><trkpt lat="44.5759644" lon="10.5286801"><ele>216.0</ele><time>2026-04-04T07:57:04.123Z</time></trkpt><trkpt lat="44.5758651" lon="10.528803"><ele>217.0</ele><time>2026-04-04T07:57:05.111Z</time></trkpt><trkpt lat="44.5757596" lon="10.5289279"><ele>218.0</ele><time>2026-04-04T07:57:06.111Z</time></trkpt><trkpt lat="44.5756565" lon="10.5290563"><ele>219.0</ele><time>2026-04-04T07:57:07.108Z</time></trkpt><trkpt lat="44.5755509" lon="10.5291771"><ele>219.0</ele><time>2026-04-04T07:57:08.11Z</time></trkpt><trkpt lat="44.5754528" lon="10.5292752"><ele>219.0</ele><time>2026-04-04T07:57:09.105Z</time></trkpt><trkpt lat="44.5753367" lon="10.5293458"><ele>219.0</ele><time>2026-04-04T07:57:10.102Z</time></trkpt><trkpt lat="44.575208" lon="10.529389"><ele>219.0</ele><time>2026-04-04T07:57:11.111Z</time></trkpt><trkpt lat="44.5750705" lon="10.5294022"><ele>218.75</ele><time>2026-04-04T07:57:12.11Z</time></trkpt><trkpt lat="44.5749169" lon="10.5293891"><ele>218.5</ele><time>2026-04-04T07:57:13.105Z</time></trkpt><trkpt lat="44.5747769" lon="10.5293515"><ele>218.25</ele><time>2026-04-04T07:57:14.112Z</time></trkpt><trkpt lat="44.5746375" lon="10.5293303"><ele>218.0</ele><time>2026-04-04T07:57:15.112Z</time></trkpt><trkpt lat="44.5744942" lon="10.5293121"><ele>218.5</ele><time>2026-04-04T07:57:16.1Z</time></trkpt><trkpt lat="44.5743568" lon="10.5292892"><ele>219.0</ele><time>2026-04-04T07:57:17.118Z</time></trkpt><trkpt lat="44.5742285" lon="10.5292608"><ele>219.5</ele><time>2026-04-04T07:57:18.111Z</time></trkpt><trkpt lat="44.5740932" lon="10.5292411"><ele>220.0</ele><time>2026-04-04T07:57:19.111Z</time></trkpt><trkpt lat="44.5739699" lon="10.5292104"><ele>220.0</ele><time>2026-04-04T07:57:20.117Z</time></trkpt><trkpt lat="44.5738546" lon="10.5291989"><ele>220.0</ele><time>2026-04-04T07:57:21.108Z</time></trkpt><trkpt lat="44.5737438" lon="10.5291758"><ele>220.0</ele><time>2026-04-04T07:57:22.119Z</time></trkpt><trkpt lat="44.5736362" lon="10.5291591"><ele>220.0</ele><time>2026-04-04T07:57:23.111Z</time></trkpt><trkpt lat="44.5735212" lon="10.5291193"><ele>220.0</ele><time>2026-04-04T07:57:24.1Z</time></trkpt><trkpt lat="44.5734077" lon="10.5290608"><ele>220.0</ele><time>2026-04-04T07:57:25.116Z</time></trkpt><trkpt lat="44.5732971" lon="10.5289768"><ele>220.0</ele><time>2026-04-04T07:57:26.115Z</time></trkpt><trkpt lat="44.5731878" lon="10.5288624"><ele>220.0</ele><time>2026-04-04T07:57:27.114Z</time></trkpt><trkpt lat="44.5730798" lon="10.5287421"><ele>220.0</ele><time>2026-04-04T07:57:28.113Z</time></trkpt><trkpt lat="44.5729855" lon="10.5285912"><ele>220.0</ele><time>2026-04-04T07:57:29.114Z</time></trkpt><trkpt lat="44.5729046" lon="10.5283978"><ele>220.0</ele><time>2026-04-04T07:57:30.117Z</time></trkpt><trkpt lat="44.5728222" lon="10.5282256"><ele>220.0</ele><time>2026-04-04T07:57:31.121Z</time></trkpt><trkpt lat="44.572752" lon="10.5280585"><ele>220.0</ele><time>2026-04-04T07:57:32.115Z</time></trkpt><trkpt lat="44.5726645" lon="10.5279192"><ele>220.0</ele><time>2026-04-04T07:57:33.103Z</time></trkpt><trkpt lat="44.5725551" lon="10.5278144"><ele>220.0</ele><time>2026-04-04T07:57:34.11Z</time></trkpt><trkpt lat="44.5724227" lon="10.5277288"><ele>221.66666666666666</ele><time>2026-04-04T07:57:35.124Z</time></trkpt><trkpt lat="44.5722736" lon="10.5276689"><ele>223.33333333333331</ele><time>2026-04-04T07:57:36.111Z</time></trkpt><trkpt lat="44.5721088" lon="10.5276267"><ele>225.0</ele><time>2026-04-04T07:57:37.101Z</time></trkpt><trkpt lat="44.5719346" lon="10.5276012"><ele>225.0</ele><time>2026-04-04T07:57:38.112Z</time></trkpt><trkpt lat="44.5717647" lon="10.5275755"><ele>225.0</ele><time>2026-04-04T07:57:39.114Z</time></trkpt><trkpt lat="44.5716018" lon="10.5275586"><ele>225.0</ele><time>2026-04-04T07:57:40.102Z</time></trkpt><trkpt lat="44.5714423" lon="10.5275331"><ele>225.0</ele><time>2026-04-04T07:57:41.11Z</time></trkpt><trkpt lat="44.5712851" lon="10.5275134"><ele>225.0</ele><time>2026-04-04T07:57:42.116Z</time></trkpt><trkpt lat="44.57113" lon="10.5274917"><ele>225.0</ele><time>2026-04-04T07:57:43.11Z</time></trkpt><trkpt lat="44.5709789" lon="10.5274688"><ele>225.0</ele><time>2026-04-04T07:57:44.117Z</time></trkpt><trkpt lat="44.5708293" lon="10.5274471"><ele>225.0</ele><time>2026-04-04T07:57:45.111Z</time></trkpt><trkpt lat="44.5706803" lon="10.5274183"><ele>225.0</ele><time>2026-04-04T07:57:46.115Z</time></trkpt><trkpt lat="44.5705341" lon="10.5273954"><ele>225.0</ele><time>2026-04-04T07:57:47.113Z</time></trkpt><trkpt lat="44.5703968" lon="10.5273666"><ele>224.75</ele><time>2026-04-04T07:57:48.12Z</time></trkpt><trkpt lat="44.570263" lon="10.5273672"><ele>224.5</ele><time>2026-04-04T07:57:49.109Z</time></trkpt><trkpt lat="44.5701204" lon="10.5274308"><ele>224.25</ele><time>2026-04-04T07:57:50.112Z</time></trkpt><trkpt lat="44.5699866" lon="10.5275187"><ele>224.0</ele><time>2026-04-04T07:57:51.114Z</time></trkpt><trkpt lat="44.5698501" lon="10.527618"><ele>224.0</ele><time>2026-04-04T07:57:52.117Z</time></trkpt><trkpt lat="44.5697105" lon="10.5277343"><ele>224.0</ele><time>2026-04-04T07:57:53.114Z</time></trkpt><trkpt lat="44.5695762" lon="10.5278389"><ele>224.0</ele><time>2026-04-04T07:57:54.118Z</time></trkpt><trkpt lat="44.5694538" lon="10.5279382"><ele>225.0</ele><time>2026-04-04T07:57:55.111Z</time></trkpt><trkpt lat="44.5693417" lon="10.5280264"><ele>226.0</ele><time>2026-04-04T07:57:56.118Z</time></trkpt><trkpt lat="44.5692333" lon="10.5281048"><ele>227.0</ele><time>2026-04-04T07:57:57.115Z</time></trkpt><trkpt lat="44.5691328" lon="10.5281745"><ele>228.0</ele><time>2026-04-04T07:57:58.117Z</time></trkpt><trkpt lat="44.5690268" lon="10.5282374"><ele>228.0</ele><time>2026-04-04T07:57:59.118Z</time></trkpt><trkpt lat="44.5689134" lon="10.5282918"><ele>228.0</ele><time>2026-04-04T07:58:00.116Z</time></trkpt><trkpt lat="44.5687914" lon="10.5283491"><ele>228.0</ele><time>2026-04-04T07:58:01.121Z</time></trkpt><trkpt lat="44.5686674" lon="10.5284052"><ele>228.0</ele><time>2026-04-04T07:58:02.117Z</time></trkpt><trkpt lat="44.5685388" lon="10.5284537"><ele>229.25</ele><time>2026-04-04T07:58:03.112Z</time></trkpt><trkpt lat="44.5684135" lon="10.5284872"><ele>230.5</ele><time>2026-04-04T07:58:04.11Z</time></trkpt><trkpt lat="44.568295" lon="10.5285049"><ele>231.75</ele><time>2026-04-04T07:58:05.112Z</time></trkpt><trkpt lat="44.5681828" lon="10.5285186"><ele>233.0</ele><time>2026-04-04T07:58:06.121Z</time></trkpt><trkpt lat="44.5680819" lon="10.5285245"><ele>233.0</ele><time>2026-04-04T07:58:07.115Z</time></trkpt><trkpt lat="44.5679857" lon="10.528523"><ele>233.0</ele><time>2026-04-04T07:58:08.111Z</time></trkpt><trkpt lat="44.5678934" lon="10.5285241"><ele>233.0</ele><time>2026-04-04T07:58:09.114Z</time></trkpt><trkpt lat="44.5677966" lon="10.5285263"><ele>233.0</ele><time>2026-04-04T07:58:10.104Z</time></trkpt><trkpt lat="44.5676978" lon="10.5285263"><ele>233.0</ele><time>2026-04-04T07:58:11.106Z</time></trkpt><trkpt lat="44.5675956" lon="10.5285333"><ele>233.0</ele><time>2026-04-04T07:58:12.111Z</time></trkpt><trkpt lat="44.5674883" lon="10.5285439"><ele>233.0</ele><time>2026-04-04T07:58:13.112Z</time></trkpt><trkpt lat="44.5673745" lon="10.528551"><ele>233.0</ele><time>2026-04-04T07:58:14.122Z</time></trkpt><trkpt lat="44.5672634" lon="10.5285651"><ele>233.0</ele><time>2026-04-04T07:58:15.111Z</time></trkpt><trkpt lat="44.5671498" lon="10.5285768"><ele>233.0</ele><time>2026-04-04T07:58:16.115Z</time></trkpt><trkpt lat="44.5670409" lon="10.5285838"><ele>234.25</ele><time>2026-04-04T07:58:17.116Z</time></trkpt><trkpt lat="44.5669278" lon="10.528598"><ele>235.5</ele><time>2026-04-04T07:58:18.115Z</time></trkpt><trkpt lat="44.5668143" lon="10.5286056"><ele>236.75</ele><time>2026-04-04T07:58:19.112Z</time></trkpt><trkpt lat="44.566697" lon="10.5286129"><ele>238.0</ele><time>2026-04-04T07:58:20.12Z</time></trkpt><trkpt lat="44.5665801" lon="10.5286235"><ele>238.0</ele><time>2026-04-04T07:58:21.116Z</time></trkpt><trkpt lat="44.566463" lon="10.5286404"><ele>238.0</ele><time>2026-04-04T07:58:22.107Z</time></trkpt><trkpt lat="44.5663502" lon="10.5286532"><ele>238.0</ele><time>2026-04-04T07:58:23.113Z</time></trkpt><trkpt lat="44.5662392" lon="10.5286628"><ele>238.0</ele><time>2026-04-04T07:58:24.11Z</time></trkpt><trkpt lat="44.5661322" lon="10.5286701"><ele>238.0</ele><time>2026-04-04T07:58:25.121Z</time></trkpt><trkpt lat="44.5660266" lon="10.5286795"><ele>238.4</ele><time>2026-04-04T07:58:26.109Z</time></trkpt><trkpt lat="44.5659174" lon="10.5286898"><ele>238.8</ele><time>2026-04-04T07:58:27.119Z</time></trkpt><trkpt lat="44.5658067" lon="10.5286992"><ele>239.2</ele><time>2026-04-04T07:58:28.119Z</time></trkpt><trkpt lat="44.5656913" lon="10.5287117"><ele>239.6</ele><time>2026-04-04T07:58:29.116Z</time></trkpt><trkpt lat="44.5655803" lon="10.5287254"><ele>240.0</ele><time>2026-04-04T07:58:30.119Z</time></trkpt><trkpt lat="44.5654725" lon="10.5287365"><ele>240.6</ele><time>2026-04-04T07:58:31.119Z</time></trkpt><trkpt lat="44.5653694" lon="10.52875"><ele>241.2</ele><time>2026-04-04T07:58:32.119Z</time></trkpt><trkpt lat="44.5652633" lon="10.5287587"><ele>241.8</ele><time>2026-04-04T07:58:33.124Z</time></trkpt><trkpt lat="44.5651591" lon="10.5287691"><ele>242.4</ele><time>2026-04-04T07:58:34.12Z</time></trkpt><trkpt lat="44.5650541" lon="10.5287774"><ele>243.0</ele><time>2026-04-04T07:58:35.117Z</time></trkpt><trkpt lat="44.5649448" lon="10.5287864"><ele>244.25</ele><time>2026-04-04T07:58:36.118Z</time></trkpt><trkpt lat="44.5648319" lon="10.5287947"><ele>245.5</ele><time>2026-04-04T07:58:37.135Z</time></trkpt><trkpt lat="44.5647163" lon="10.5288045"><ele>246.75</ele><time>2026-04-04T07:58:38.118Z</time></trkpt><trkpt lat="44.564602" lon="10.5288174"><ele>248.0</ele><time>2026-04-04T07:58:39.114Z</time></trkpt><trkpt lat="44.5644878" lon="10.5288312"><ele>248.25</ele><time>2026-04-04T07:58:40.12Z</time></trkpt><trkpt lat="44.5643717" lon="10.5288419"><ele>248.5</ele><time>2026-04-04T07:58:41.113Z</time></trkpt><trkpt lat="44.5642515" lon="10.5288543"><ele>248.75</ele><time>2026-04-04T07:58:42.112Z</time></trkpt><trkpt lat="44.5641268" lon="10.5288649"><ele>249.0</ele><time>2026-04-04T07:58:43.108Z</time></trkpt><trkpt lat="44.5639956" lon="10.5288735"><ele>249.0</ele><time>2026-04-04T07:58:44.119Z</time></trkpt><trkpt lat="44.5638616" lon="10.5288816"><ele>249.0</ele><time>2026-04-04T07:58:45.111Z</time></trkpt><trkpt lat="44.5637346" lon="10.5288692"><ele>249.0</ele><time>2026-04-04T07:58:46.112Z</time></trkpt><trkpt lat="44.5636174" lon="10.5288336"><ele>249.0</ele><time>2026-04-04T07:58:47.118Z</time></trkpt><trkpt lat="44.5634995" lon="10.5287852"><ele>249.0</ele><time>2026-04-04T07:58:48.122Z</time></trkpt><trkpt lat="44.5633825" lon="10.5287282"><ele>249.0</ele><time>2026-04-04T07:58:49.113Z</time></trkpt><trkpt lat="44.5632655" lon="10.5286619"><ele>249.0</ele><time>2026-04-04T07:58:50.124Z</time></trkpt><trkpt lat="44.5631475" lon="10.5285975"><ele>249.0</ele><time>2026-04-04T07:58:51.123Z</time></trkpt><trkpt lat="44.5630314" lon="10.5285305"><ele>249.0</ele><time>2026-04-04T07:58:52.114Z</time></trkpt><trkpt lat="44.5629134" lon="10.5284676"><ele>249.0</ele><time>2026-04-04T07:58:53.12Z</time></trkpt><trkpt lat="44.5627876" lon="10.5284211"><ele>249.0</ele><time>2026-04-04T07:58:54.115Z</time></trkpt><trkpt lat="44.5626536" lon="10.5283898"><ele>249.0</ele><time>2026-04-04T07:58:55.123Z</time></trkpt><trkpt lat="44.5625106" lon="10.5283816"><ele>250.0</ele><time>2026-04-04T07:58:56.118Z</time></trkpt><trkpt lat="44.5623632" lon="10.5283872"><ele>251.0</ele><time>2026-04-04T07:58:57.104Z</time></trkpt><trkpt lat="44.5622116" lon="10.5284155"><ele>252.0</ele><time>2026-04-04T07:58:58.113Z</time></trkpt><trkpt lat="44.5620763" lon="10.5284287"><ele>253.0</ele><time>2026-04-04T07:58:59.118Z</time></trkpt><trkpt lat="44.5619483" lon="10.5284402"><ele>253.5</ele><time>2026-04-04T07:59:00.121Z</time></trkpt><trkpt lat="44.5618218" lon="10.5284488"><ele>254.0</ele><time>2026-04-04T07:59:01.123Z</time></trkpt><trkpt lat="44.5616962" lon="10.5284574"><ele>254.5</ele><time>2026-04-04T07:59:02.119Z</time></trkpt><trkpt lat="44.5615739" lon="10.5284599"><ele>255.0</ele><time>2026-04-04T07:59:03.124Z</time></trkpt><trkpt lat="44.5614472" lon="10.5284677"><ele>255.0</ele><time>2026-04-04T07:59:04.125Z</time></trkpt><trkpt lat="44.5613212" lon="10.5284738"><ele>255.0</ele><time>2026-04-04T07:59:05.121Z</time></trkpt><trkpt lat="44.5611909" lon="10.5284876"><ele>255.0</ele><time>2026-04-04T07:59:06.125Z</time></trkpt><trkpt lat="44.5610605" lon="10.5284904"><ele>255.0</ele><time>2026-04-04T07:59:07.115Z</time></trkpt><trkpt lat="44.5609286" lon="10.5284998"><ele>255.5</ele><time>2026-04-04T07:59:08.135Z</time></trkpt><trkpt lat="44.5607881" lon="10.5285053"><ele>256.0</ele><time>2026-04-04T07:59:09.118Z</time></trkpt><trkpt lat="44.560641" lon="10.5285194"><ele>256.5</ele><time>2026-04-04T07:59:10.116Z</time></trkpt><trkpt lat="44.5604999" lon="10.5285582"><ele>257.0</ele><time>2026-04-04T07:59:11.12Z</time></trkpt><trkpt lat="44.560352" lon="10.5286046"><ele>257.0</ele><time>2026-04-04T07:59:12.111Z</time></trkpt><trkpt lat="44.5601863" lon="10.5286866"><ele>257.0</ele><time>2026-04-04T07:59:13.109Z</time></trkpt><trkpt lat="44.560003" lon="10.5287856"><ele>257.0</ele><time>2026-04-04T07:59:14.119Z</time></trkpt><trkpt lat="44.559813" lon="10.5288988"><ele>259.33333333333337</ele><time>2026-04-04T07:59:15.12Z</time></trkpt><trkpt lat="44.5596259" lon="10.5290388"><ele>261.6666666666667</ele><time>2026-04-04T07:59:16.115Z</time></trkpt><trkpt lat="44.559425" lon="10.5291553"><ele>264.0</ele><time>2026-04-04T07:59:17.121Z</time></trkpt><trkpt lat="44.5592291" lon="10.5292524"><ele>264.0</ele><time>2026-04-04T07:59:18.118Z</time></trkpt><trkpt lat="44.5590429" lon="10.5293365"><ele>264.0</ele><time>2026-04-04T07:59:19.122Z</time></trkpt><trkpt lat="44.5588764" lon="10.5294148"><ele>264.0</ele><time>2026-04-04T07:59:20.12Z</time></trkpt><trkpt lat="44.558712" lon="10.5294846"><ele>266.0</ele><time>2026-04-04T07:59:21.123Z</time></trkpt><trkpt lat="44.5585619" lon="10.5295595"><ele>268.0</ele><time>2026-04-04T07:59:22.124Z</time></trkpt><trkpt lat="44.5584144" lon="10.5296399"><ele>270.0</ele><time>2026-04-04T07:59:23.121Z</time></trkpt><trkpt lat="44.5582555" lon="10.5297192"><ele>270.0</ele><time>2026-04-04T07:59:24.107Z</time></trkpt><trkpt lat="44.5580954" lon="10.5297961"><ele>270.0</ele><time>2026-04-04T07:59:25.115Z</time></trkpt><trkpt lat="44.5579348" lon="10.5298677"><ele>270.0</ele><time>2026-04-04T07:59:26.114Z</time></trkpt><trkpt lat="44.5577734" lon="10.5299361"><ele>269.0</ele><time>2026-04-04T07:59:27.119Z</time></trkpt><trkpt lat="44.5576242" lon="10.53"><ele>268.0</ele><time>2026-04-04T07:59:28.119Z</time></trkpt><trkpt lat="44.5574757" lon="10.5300672"><ele>267.0</ele><time>2026-04-04T07:59:29.118Z</time></trkpt><trkpt lat="44.5573387" lon="10.530137"><ele>267.0</ele><time>2026-04-04T07:59:30.116Z</time></trkpt><trkpt lat="44.5572182" lon="10.5302266"><ele>267.0</ele><time>2026-04-04T07:59:31.122Z</time></trkpt><trkpt lat="44.5571084" lon="10.5303427"><ele>267.0</ele><time>2026-04-04T07:59:32.119Z</time></trkpt><trkpt lat="44.5569982" lon="10.5304675"><ele>267.0</ele><time>2026-04-04T07:59:33.115Z</time></trkpt><trkpt lat="44.5568974" lon="10.5305789"><ele>269.75</ele><time>2026-04-04T07:59:34.107Z</time></trkpt><trkpt lat="44.5567984" lon="10.5306632"><ele>272.5</ele><time>2026-04-04T07:59:35.121Z</time></trkpt><trkpt lat="44.5566835" lon="10.5306885"><ele>275.25</ele><time>2026-04-04T07:59:36.115Z</time></trkpt><trkpt lat="44.5565598" lon="10.5306506"><ele>278.0</ele><time>2026-04-04T07:59:37.11Z</time></trkpt><trkpt lat="44.5564511" lon="10.5305709"><ele>278.0</ele><time>2026-04-04T07:59:38.119Z</time></trkpt><trkpt lat="44.5563598" lon="10.5304385"><ele>278.0</ele><time>2026-04-04T07:59:39.132Z</time></trkpt><trkpt lat="44.5562661" lon="10.5303445"><ele>278.0</ele><time>2026-04-04T07:59:40.114Z</time></trkpt><trkpt lat="44.5561582" lon="10.5302558"><ele>278.0</ele><time>2026-04-04T07:59:41.117Z</time></trkpt><trkpt lat="44.556049" lon="10.5301662"><ele>277.5</ele><time>2026-04-04T07:59:42.118Z</time></trkpt><trkpt lat="44.5559315" lon="10.5300814"><ele>277.0</ele><time>2026-04-04T07:59:43.12Z</time></trkpt><trkpt lat="44.555812" lon="10.5300049"><ele>276.5</ele><time>2026-04-04T07:59:44.116Z</time></trkpt><trkpt lat="44.5556781" lon="10.5299412"><ele>276.0</ele><time>2026-04-04T07:59:45.114Z</time></trkpt><trkpt lat="44.5555111" lon="10.5298856"><ele>278.0</ele><time>2026-04-04T07:59:46.111Z</time></trkpt><trkpt lat="44.5552714" lon="10.5298319"><ele>280.0</ele><time>2026-04-04T07:59:47.105Z</time></trkpt><trkpt lat="44.5550814" lon="10.5297929"><ele>282.0</ele><time>2026-04-04T07:59:48.101Z</time></trkpt><trkpt lat="44.5549108" lon="10.5297705"><ele>282.0</ele><time>2026-04-04T07:59:49.094Z</time></trkpt><trkpt lat="44.5547628" lon="10.5297531"><ele>282.0</ele><time>2026-04-04T07:59:50.115Z</time></trkpt><trkpt lat="44.5546293" lon="10.5297361"><ele>282.0</ele><time>2026-04-04T07:59:51.12Z</time></trkpt><trkpt lat="44.5544902" lon="10.529725"><ele>282.0</ele><time>2026-04-04T07:59:52.12Z</time></trkpt><trkpt lat="44.5543522" lon="10.5297014"><ele>282.0</ele><time>2026-04-04T07:59:53.122Z</time></trkpt><trkpt lat="44.5542238" lon="10.5296793"><ele>282.0</ele><time>2026-04-04T07:59:54.118Z</time></trkpt><trkpt lat="44.5540988" lon="10.5296582"><ele>282.0</ele><time>2026-04-04T07:59:55.121Z</time></trkpt><trkpt lat="44.553977" lon="10.5296548"><ele>282.0</ele><time>2026-04-04T07:59:56.12Z</time></trkpt><trkpt lat="44.5538518" lon="10.5296642"><ele>282.0</ele><time>2026-04-04T07:59:57.12Z</time></trkpt><trkpt lat="44.5537203" lon="10.529693"><ele>282.0</ele><time>2026-04-04T07:59:58.117Z</time></trkpt><trkpt lat="44.5535721" lon="10.5297321"><ele>282.0</ele><time>2026-04-04T07:59:59.115Z</time></trkpt><trkpt lat="44.5533999" lon="10.5297698"><ele>281.6666666666667</ele><time>2026-04-04T08:00:00.118Z</time></trkpt><trkpt lat="44.5532216" lon="10.52978"><ele>281.33333333333337</ele><time>2026-04-04T08:00:01.12Z</time></trkpt><trkpt lat="44.5530616" lon="10.5297931"><ele>281.0</ele><time>2026-04-04T08:00:02.111Z</time></trkpt><trkpt lat="44.5529228" lon="10.5298051"><ele>280.75</ele><time>2026-04-04T08:00:03.12Z</time></trkpt><trkpt lat="44.5528001" lon="10.5298187"><ele>280.5</ele><time>2026-04-04T08:00:04.114Z</time></trkpt><trkpt lat="44.5526743" lon="10.5298334"><ele>280.25</ele><time>2026-04-04T08:00:05.116Z</time></trkpt><trkpt lat="44.5525635" lon="10.5298476"><ele>280.0</ele><time>2026-04-04T08:00:06.113Z</time></trkpt><trkpt lat="44.5524466" lon="10.5298692"><ele>280.0</ele><time>2026-04-04T08:00:07.116Z</time></trkpt><trkpt lat="44.5523318" lon="10.5298988"><ele>280.0</ele><time>2026-04-04T08:00:08.109Z</time></trkpt><trkpt lat="44.5522236" lon="10.5299601"><ele>280.0</ele><time>2026-04-04T08:00:09.138Z</time></trkpt><trkpt lat="44.5521316" lon="10.5300743"><ele>280.0</ele><time>2026-04-04T08:00:10.14Z</time></trkpt><trkpt lat="44.5520496" lon="10.5301746"><ele>279.8</ele><time>2026-04-04T08:00:11.107Z</time></trkpt><trkpt lat="44.5519767" lon="10.5302891"><ele>279.6</ele><time>2026-04-04T08:00:12.108Z</time></trkpt><trkpt lat="44.5519133" lon="10.5304078"><ele>279.4</ele><time>2026-04-04T08:00:13.106Z</time></trkpt><trkpt lat="44.5518576" lon="10.5305227"><ele>279.2</ele><time>2026-04-04T08:00:14.11Z</time></trkpt><trkpt lat="44.5517954" lon="10.5306256"><ele>279.0</ele><time>2026-04-04T08:00:15.113Z</time></trkpt><trkpt lat="44.5517181" lon="10.5307011"><ele>281.0</ele><time>2026-04-04T08:00:16.114Z</time></trkpt><trkpt lat="44.5516197" lon="10.5307372"><ele>283.0</ele><time>2026-04-04T08:00:17.109Z</time></trkpt><trkpt lat="44.5515069" lon="10.5307397"><ele>285.0</ele><time>2026-04-04T08:00:18.106Z</time></trkpt><trkpt lat="44.5513871" lon="10.5307433"><ele>287.0</ele><time>2026-04-04T08:00:19.116Z</time></trkpt><trkpt lat="44.5512603" lon="10.5307521"><ele>286.4</ele><time>2026-04-04T08:00:20.1Z</time></trkpt><trkpt lat="44.5511479" lon="10.5307594"><ele>285.79999999999995</ele><time>2026-04-04T08:00:21.11Z</time></trkpt><trkpt lat="44.551031" lon="10.5307672"><ele>285.2</ele><time>2026-04-04T08:00:22.11Z</time></trkpt><trkpt lat="44.5509216" lon="10.530772"><ele>284.59999999999997</ele><time>2026-04-04T08:00:23.112Z</time></trkpt><trkpt lat="44.5508156" lon="10.5307755"><ele>284.0</ele><time>2026-04-04T08:00:24.103Z</time></trkpt><trkpt lat="44.5507104" lon="10.5307572"><ele>284.0</ele><time>2026-04-04T08:00:25.111Z</time></trkpt><trkpt lat="44.5506219" lon="10.5306939"><ele>284.0</ele><time>2026-04-04T08:00:26.117Z</time></trkpt><trkpt lat="44.5505406" lon="10.5306151"><ele>284.0</ele><time>2026-04-04T08:00:27.097Z</time></trkpt><trkpt lat="44.5504608" lon="10.5305315"><ele>284.0</ele><time>2026-04-04T08:00:28.109Z</time></trkpt><trkpt lat="44.5503882" lon="10.5304558"><ele>284.0</ele><time>2026-04-04T08:00:29.109Z</time></trkpt><trkpt lat="44.550313" lon="10.5304051"><ele>284.1666666666667</ele><time>2026-04-04T08:00:30.107Z</time></trkpt><trkpt lat="44.5502407" lon="10.530391"><ele>284.33333333333337</ele><time>2026-04-04T08:00:31.113Z</time></trkpt><trkpt lat="44.5501717" lon="10.5304362"><ele>284.5</ele><time>2026-04-04T08:00:32.113Z</time></trkpt><trkpt lat="44.5501076" lon="10.5305174"><ele>284.6666666666667</ele><time>2026-04-04T08:00:33.101Z</time></trkpt><trkpt lat="44.5500351" lon="10.5305713"><ele>284.8333333333333</ele><time>2026-04-04T08:00:34.1Z</time></trkpt><trkpt lat="44.5499608" lon="10.5305806"><ele>285.0</ele><time>2026-04-04T08:00:35.101Z</time></trkpt><trkpt lat="44.5498962" lon="10.5305314"><ele>285.0</ele><time>2026-04-04T08:00:36.092Z</time></trkpt><trkpt lat="44.5498468" lon="10.5304293"><ele>285.0</ele><time>2026-04-04T08:00:37.103Z</time></trkpt><trkpt lat="44.549794" lon="10.5303141"><ele>285.0</ele><time>2026-04-04T08:00:38.096Z</time></trkpt><trkpt lat="44.5497387" lon="10.5302099"><ele>285.0</ele><time>2026-04-04T08:00:39.088Z</time></trkpt><trkpt lat="44.5496745" lon="10.5301123"><ele>285.0</ele><time>2026-04-04T08:00:40.109Z</time></trkpt><trkpt lat="44.5495931" lon="10.5300279"><ele>286.6</ele><time>2026-04-04T08:00:41.094Z</time></trkpt><trkpt lat="44.5494949" lon="10.5299569"><ele>288.2</ele><time>2026-04-04T08:00:42.096Z</time></trkpt><trkpt lat="44.5493959" lon="10.5299052"><ele>289.8</ele><time>2026-04-04T08:00:43.1Z</time></trkpt><trkpt lat="44.5492891" lon="10.5298715"><ele>291.4</ele><time>2026-04-04T08:00:44.099Z</time></trkpt><trkpt lat="44.5491879" lon="10.5298501"><ele>293.0</ele><time>2026-04-04T08:00:45.09Z</time></trkpt><trkpt lat="44.5490888" lon="10.5298292"><ele>293.0</ele><time>2026-04-04T08:00:46.093Z</time></trkpt><trkpt lat="44.549003" lon="10.529812"><ele>293.0</ele><time>2026-04-04T08:00:47.093Z</time></trkpt><trkpt lat="44.5489229" lon="10.5297848"><ele>293.0</ele><time>2026-04-04T08:00:48.107Z</time></trkpt><trkpt lat="44.5488669" lon="10.5297173"><ele>293.0</ele><time>2026-04-04T08:00:49.106Z</time></trkpt><trkpt lat="44.5488557" lon="10.5296269"><ele>293.0</ele><time>2026-04-04T08:00:50.104Z</time></trkpt><trkpt lat="44.5488789" lon="10.5295173"><ele>293.0</ele><time>2026-04-04T08:00:51.097Z</time></trkpt><trkpt lat="44.5489139" lon="10.529408"><ele>294.83333333333337</ele><time>2026-04-04T08:00:52.097Z</time></trkpt><trkpt lat="44.5489467" lon="10.5293009"><ele>296.6666666666667</ele><time>2026-04-04T08:00:53.091Z</time></trkpt><trkpt lat="44.5489575" lon="10.5291999"><ele>298.5</ele><time>2026-04-04T08:00:54.091Z</time></trkpt><trkpt lat="44.5489451" lon="10.5290899"><ele>300.3333333333333</ele><time>2026-04-04T08:00:55.099Z</time></trkpt><trkpt lat="44.5489234" lon="10.5289749"><ele>302.16666666666663</ele><time>2026-04-04T08:00:56.089Z</time></trkpt><trkpt lat="44.5488914" lon="10.5288655"><ele>304.0</ele><time>2026-04-04T08:00:57.1Z</time></trkpt><trkpt lat="44.5488431" lon="10.528768"><ele>304.59999999999997</ele><time>2026-04-04T08:00:58.095Z</time></trkpt><trkpt lat="44.5487643" lon="10.5286928"><ele>305.2</ele><time>2026-04-04T08:00:59.104Z</time></trkpt><trkpt lat="44.5486596" lon="10.5286507"><ele>305.79999999999995</ele><time>2026-04-04T08:01:00.1Z</time></trkpt><trkpt lat="44.5485521" lon="10.5286561"><ele>306.4</ele><time>2026-04-04T08:01:01.099Z</time></trkpt><trkpt lat="44.54845" lon="10.5287288"><ele>307.0</ele><time>2026-04-04T08:01:02.091Z</time></trkpt><trkpt lat="44.548353" lon="10.5288177"><ele>304.8</ele><time>2026-04-04T08:01:03.097Z</time></trkpt><trkpt lat="44.5482557" lon="10.5289149"><ele>302.6</ele><time>2026-04-04T08:01:04.095Z</time></trkpt><trkpt lat="44.5481623" lon="10.5290144"><ele>300.40000000000003</ele><time>2026-04-04T08:01:05.088Z</time></trkpt><trkpt lat="44.5480777" lon="10.529101"><ele>298.2</ele><time>2026-04-04T08:01:06.093Z</time></trkpt><trkpt lat="44.5479998" lon="10.5291707"><ele>296.0</ele><time>2026-04-04T08:01:07.089Z</time></trkpt><trkpt lat="44.5479128" lon="10.5292112"><ele>296.6</ele><time>2026-04-04T08:01:08.103Z</time></trkpt><trkpt lat="44.5478259" lon="10.5292073"><ele>297.20000000000005</ele><time>2026-04-04T08:01:09.098Z</time></trkpt><trkpt lat="44.5477463" lon="10.5291465"><ele>297.79999999999995</ele><time>2026-04-04T08:01:10.089Z</time></trkpt><trkpt lat="44.5476944" lon="10.5290203"><ele>298.4</ele><time>2026-04-04T08:01:11.115Z</time></trkpt><trkpt lat="44.5476466" lon="10.5288851"><ele>299.0</ele><time>2026-04-04T08:01:12.096Z</time></trkpt><trkpt lat="44.5475907" lon="10.5287533"><ele>299.2</ele><time>2026-04-04T08:01:13.104Z</time></trkpt><trkpt lat="44.5475318" lon="10.5286174"><ele>299.4</ele><time>2026-04-04T08:01:14.105Z</time></trkpt><trkpt lat="44.5474707" lon="10.528489"><ele>299.6</ele><time>2026-04-04T08:01:15.097Z</time></trkpt><trkpt lat="44.5474051" lon="10.5283747"><ele>299.8</ele><time>2026-04-04T08:01:16.102Z</time></trkpt><trkpt lat="44.5473331" lon="10.528292"><ele>300.0</ele><time>2026-04-04T08:01:17.105Z</time></trkpt><trkpt lat="44.5472437" lon="10.5282439"><ele>300.0</ele><time>2026-04-04T08:01:18.116Z</time></trkpt><trkpt lat="44.5471448" lon="10.5282381"><ele>300.0</ele><time>2026-04-04T08:01:19.097Z</time></trkpt><trkpt lat="44.5470493" lon="10.5282516"><ele>300.0</ele><time>2026-04-04T08:01:20.095Z</time></trkpt><trkpt lat="44.5469588" lon="10.528263"><ele>300.0</ele><time>2026-04-04T08:01:21.1Z</time></trkpt><trkpt lat="44.5468768" lon="10.5282564"><ele>300.0</ele><time>2026-04-04T08:01:22.11Z</time></trkpt><trkpt lat="44.5468146" lon="10.5281955"><ele>300.0</ele><time>2026-04-04T08:01:23.101Z</time></trkpt><trkpt lat="44.5467769" lon="10.5280869"><ele>301.4</ele><time>2026-04-04T08:01:24.11Z</time></trkpt><trkpt lat="44.5467655" lon="10.5279429"><ele>302.8</ele><time>2026-04-04T08:01:25.102Z</time></trkpt><trkpt lat="44.5467749" lon="10.5277917"><ele>304.2</ele><time>2026-04-04T08:01:26.095Z</time></trkpt><trkpt lat="44.5468031" lon="10.5276418"><ele>305.6</ele><time>2026-04-04T08:01:27.09Z</time></trkpt><trkpt lat="44.5468244" lon="10.527486"><ele>307.0</ele><time>2026-04-04T08:01:28.093Z</time></trkpt><trkpt lat="44.5468348" lon="10.5273227"><ele>307.0</ele><time>2026-04-04T08:01:29.101Z</time></trkpt><trkpt lat="44.5468241" lon="10.5271508"><ele>307.0</ele><time>2026-04-04T08:01:30.09Z</time></trkpt><trkpt lat="44.5467867" lon="10.5269827"><ele>307.0</ele><time>2026-04-04T08:01:31.104Z</time></trkpt><trkpt lat="44.546742" lon="10.5268266"><ele>307.0</ele><time>2026-04-04T08:01:32.096Z</time></trkpt><trkpt lat="44.5466998" lon="10.5266756"><ele>307.2</ele><time>2026-04-04T08:01:33.088Z</time></trkpt><trkpt lat="44.5466491" lon="10.5265519"><ele>307.4</ele><time>2026-04-04T08:01:34.082Z</time></trkpt><trkpt lat="44.5465866" lon="10.5264552"><ele>307.6</ele><time>2026-04-04T08:01:35.085Z</time></trkpt><trkpt lat="44.5465063" lon="10.5263859"><ele>307.8</ele><time>2026-04-04T08:01:36.081Z</time></trkpt><trkpt lat="44.5464089" lon="10.5263345"><ele>308.0</ele><time>2026-04-04T08:01:37.079Z</time></trkpt><trkpt lat="44.5463088" lon="10.5262861"><ele>310.2</ele><time>2026-04-04T08:01:38.075Z</time></trkpt><trkpt lat="44.5462103" lon="10.526239"><ele>312.4</ele><time>2026-04-04T08:01:39.083Z</time></trkpt><trkpt lat="44.5461213" lon="10.5261632"><ele>314.59999999999997</ele><time>2026-04-04T08:01:40.078Z</time></trkpt><trkpt lat="44.546047" lon="10.5260497"><ele>316.8</ele><time>2026-04-04T08:01:41.063Z</time></trkpt><trkpt lat="44.5459933" lon="10.5259211"><ele>319.0</ele><time>2026-04-04T08:01:42.082Z</time></trkpt><trkpt lat="44.5459359" lon="10.5257914"><ele>319.0</ele><time>2026-04-04T08:01:43.066Z</time></trkpt><trkpt lat="44.5458623" lon="10.5256746"><ele>319.0</ele><time>2026-04-04T08:01:44.079Z</time></trkpt><trkpt lat="44.5457717" lon="10.5255863"><ele>319.0</ele><time>2026-04-04T08:01:45.066Z</time></trkpt><trkpt lat="44.5456583" lon="10.5255318"><ele>319.0</ele><time>2026-04-04T08:01:46.066Z</time></trkpt><trkpt lat="44.5455281" lon="10.5254819"><ele>319.0</ele><time>2026-04-04T08:01:47.066Z</time></trkpt><trkpt lat="44.5453926" lon="10.5254433"><ele>319.0</ele><time>2026-04-04T08:01:48.058Z</time></trkpt><trkpt lat="44.5452532" lon="10.5254263"><ele>319.0</ele><time>2026-04-04T08:01:49.07Z</time></trkpt><trkpt lat="44.5451229" lon="10.5254485"><ele>319.0</ele><time>2026-04-04T08:01:50.067Z</time></trkpt><trkpt lat="44.5450024" lon="10.5254787"><ele>318.8</ele><time>2026-04-04T08:01:51.073Z</time></trkpt><trkpt lat="44.5448981" lon="10.5255022"><ele>318.59999999999997</ele><time>2026-04-04T08:01:52.077Z</time></trkpt><trkpt lat="44.5448031" lon="10.5255131"><ele>318.4</ele><time>2026-04-04T08:01:53.086Z</time></trkpt><trkpt lat="44.5447132" lon="10.5254973"><ele>318.2</ele><time>2026-04-04T08:01:54.08Z</time></trkpt><trkpt lat="44.5446277" lon="10.5254564"><ele>318.0</ele><time>2026-04-04T08:01:55.074Z</time></trkpt><trkpt lat="44.5445339" lon="10.5253751"><ele>319.0</ele><time>2026-04-04T08:01:56.081Z</time></trkpt><trkpt lat="44.5444507" lon="10.5252456"><ele>320.0</ele><time>2026-04-04T08:01:57.075Z</time></trkpt><trkpt lat="44.5443905" lon="10.5250988"><ele>321.0</ele><time>2026-04-04T08:01:58.077Z</time></trkpt><trkpt lat="44.5443459" lon="10.5249457"><ele>322.0</ele><time>2026-04-04T08:01:59.067Z</time></trkpt><trkpt lat="44.5443068" lon="10.5247993"><ele>322.0</ele><time>2026-04-04T08:02:00.073Z</time></trkpt><trkpt lat="44.5442488" lon="10.524672"><ele>322.0</ele><time>2026-04-04T08:02:01.086Z</time></trkpt><trkpt lat="44.5441646" lon="10.5245649"><ele>322.0</ele><time>2026-04-04T08:02:02.078Z</time></trkpt><trkpt lat="44.5440705" lon="10.5244862"><ele>322.0</ele><time>2026-04-04T08:02:03.082Z</time></trkpt><trkpt lat="44.5439765" lon="10.524403"><ele>322.0</ele><time>2026-04-04T08:02:04.084Z</time></trkpt><trkpt lat="44.5438675" lon="10.5242881"><ele>322.0</ele><time>2026-04-04T08:02:05.081Z</time></trkpt><trkpt lat="44.5437586" lon="10.5241087"><ele>322.0</ele><time>2026-04-04T08:02:06.087Z</time></trkpt><trkpt lat="44.5436261" lon="10.5238506"><ele>322.0</ele><time>2026-04-04T08:02:07.077Z</time></trkpt><trkpt lat="44.5435122" lon="10.5236387"><ele>325.0</ele><time>2026-04-04T08:02:08.082Z</time></trkpt><trkpt lat="44.5434121" lon="10.5234427"><ele>328.0</ele><time>2026-04-04T08:02:09.079Z</time></trkpt><trkpt lat="44.5433297" lon="10.523275"><ele>331.0</ele><time>2026-04-04T08:02:10.084Z</time></trkpt><trkpt lat="44.5432387" lon="10.5231388"><ele>331.0</ele><time>2026-04-04T08:02:11.083Z</time></trkpt><trkpt lat="44.5431444" lon="10.5230321"><ele>331.0</ele><time>2026-04-04T08:02:12.074Z</time></trkpt><trkpt lat="44.5430448" lon="10.5229479"><ele>331.0</ele><time>2026-04-04T08:02:13.1Z</time></trkpt><trkpt lat="44.5429707" lon="10.5228528"><ele>331.0</ele><time>2026-04-04T08:02:14.083Z</time></trkpt><trkpt lat="44.5428854" lon="10.5227598"><ele>331.0</ele><time>2026-04-04T08:02:15.078Z</time></trkpt><trkpt lat="44.5427883" lon="10.5226895"><ele>331.75</ele><time>2026-04-04T08:02:16.073Z</time></trkpt><trkpt lat="44.5426763" lon="10.5226654"><ele>332.5</ele><time>2026-04-04T08:02:17.076Z</time></trkpt><trkpt lat="44.5425616" lon="10.5226248"><ele>333.25</ele><time>2026-04-04T08:02:18.077Z</time></trkpt><trkpt lat="44.54245" lon="10.522594"><ele>334.0</ele><time>2026-04-04T08:02:19.077Z</time></trkpt><trkpt lat="44.5423395" lon="10.5225609"><ele>334.0</ele><time>2026-04-04T08:02:20.087Z</time></trkpt><trkpt lat="44.5422402" lon="10.5225196"><ele>334.0</ele><time>2026-04-04T08:02:21.082Z</time></trkpt><trkpt lat="44.542147" lon="10.5224615"><ele>334.0</ele><time>2026-04-04T08:02:22.082Z</time></trkpt><trkpt lat="44.5420716" lon="10.5223679"><ele>334.0</ele><time>2026-04-04T08:02:23.081Z</time></trkpt><trkpt lat="44.5420193" lon="10.5222412"><ele>334.0</ele><time>2026-04-04T08:02:24.082Z</time></trkpt><trkpt lat="44.5419878" lon="10.5221008"><ele>333.75</ele><time>2026-04-04T08:02:25.07Z</time></trkpt><trkpt lat="44.541964" lon="10.5219451"><ele>333.5</ele><time>2026-04-04T08:02:26.071Z</time></trkpt><trkpt lat="44.5419506" lon="10.5217868"><ele>333.25</ele><time>2026-04-04T08:02:27.075Z</time></trkpt><trkpt lat="44.5419403" lon="10.5216269"><ele>333.0</ele><time>2026-04-04T08:02:28.066Z</time></trkpt><trkpt lat="44.5419318" lon="10.5214756"><ele>333.0</ele><time>2026-04-04T08:02:29.083Z</time></trkpt><trkpt lat="44.5419222" lon="10.5213288"><ele>333.0</ele><time>2026-04-04T08:02:30.081Z</time></trkpt><trkpt lat="44.5419084" lon="10.5211893"><ele>333.0</ele><time>2026-04-04T08:02:31.085Z</time></trkpt><trkpt lat="44.5418839" lon="10.5210496"><ele>333.0</ele><time>2026-04-04T08:02:32.078Z</time></trkpt><trkpt lat="44.5418397" lon="10.5209408"><ele>333.0</ele><time>2026-04-04T08:02:33.087Z</time></trkpt><trkpt lat="44.5417561" lon="10.5208912"><ele>336.6666666666667</ele><time>2026-04-04T08:02:34.088Z</time></trkpt><trkpt lat="44.5416251" lon="10.5209139"><ele>340.33333333333337</ele><time>2026-04-04T08:02:35.095Z</time></trkpt><trkpt lat="44.5414457" lon="10.5209588"><ele>344.0</ele><time>2026-04-04T08:02:36.086Z</time></trkpt><trkpt lat="44.5411903" lon="10.5209822"><ele>344.0</ele><time>2026-04-04T08:02:37.094Z</time></trkpt><trkpt lat="44.5409892" lon="10.5209585"><ele>344.0</ele><time>2026-04-04T08:02:38.091Z</time></trkpt><trkpt lat="44.5408151" lon="10.5209383"><ele>344.0</ele><time>2026-04-04T08:02:39.093Z</time></trkpt><trkpt lat="44.5406654" lon="10.5209198"><ele>344.0</ele><time>2026-04-04T08:02:40.084Z</time></trkpt><trkpt lat="44.5405443" lon="10.520886"><ele>344.0</ele><time>2026-04-04T08:02:41.106Z</time></trkpt><trkpt lat="44.5404581" lon="10.5208013"><ele>344.0</ele><time>2026-04-04T08:02:42.078Z</time></trkpt><trkpt lat="44.540391" lon="10.5206631"><ele>344.0</ele><time>2026-04-04T08:02:43.093Z</time></trkpt><trkpt lat="44.5403306" lon="10.5204997"><ele>344.75</ele><time>2026-04-04T08:02:44.097Z</time></trkpt><trkpt lat="44.5402871" lon="10.5203339"><ele>345.5</ele><time>2026-04-04T08:02:45.079Z</time></trkpt><trkpt lat="44.5402636" lon="10.520152"><ele>346.25</ele><time>2026-04-04T08:02:46.082Z</time></trkpt><trkpt lat="44.5402357" lon="10.5199842"><ele>347.0</ele><time>2026-04-04T08:02:47.078Z</time></trkpt><trkpt lat="44.5401783" lon="10.51983"><ele>347.0</ele><time>2026-04-04T08:02:48.076Z</time></trkpt><trkpt lat="44.5400989" lon="10.5196788"><ele>347.0</ele><time>2026-04-04T08:02:49.077Z</time></trkpt><trkpt lat="44.539998" lon="10.5195428"><ele>347.0</ele><time>2026-04-04T08:02:50.073Z</time></trkpt><trkpt lat="44.5398935" lon="10.5194263"><ele>347.0</ele><time>2026-04-04T08:02:51.059Z</time></trkpt><trkpt lat="44.5398009" lon="10.5193297"><ele>352.40000000000003</ele><time>2026-04-04T08:02:52.062Z</time></trkpt><trkpt lat="44.5397" lon="10.5192608"><ele>357.8</ele><time>2026-04-04T08:02:53.062Z</time></trkpt><trkpt lat="44.5396006" lon="10.5192344"><ele>363.2</ele><time>2026-04-04T08:02:54.068Z</time></trkpt><trkpt lat="44.5394892" lon="10.5192379"><ele>368.6</ele><time>2026-04-04T08:02:55.068Z</time></trkpt><trkpt lat="44.5393756" lon="10.5192699"><ele>374.0</ele><time>2026-04-04T08:02:56.051Z</time></trkpt><trkpt lat="44.5392528" lon="10.5193263"><ele>374.0</ele><time>2026-04-04T08:02:57.079Z</time></trkpt><trkpt lat="44.5391284" lon="10.5193774"><ele>374.0</ele><time>2026-04-04T08:02:58.053Z</time></trkpt><trkpt lat="44.5390005" lon="10.5194217"><ele>374.0</ele><time>2026-04-04T08:02:59.074Z</time></trkpt><trkpt lat="44.5388816" lon="10.5194574"><ele>374.0</ele><time>2026-04-04T08:03:00.069Z</time></trkpt><trkpt lat="44.5387708" lon="10.5194892"><ele>373.79999999999995</ele><time>2026-04-04T08:03:01.073Z</time></trkpt><trkpt lat="44.5386626" lon="10.5195081"><ele>373.59999999999997</ele><time>2026-04-04T08:03:02.069Z</time></trkpt><trkpt lat="44.5385612" lon="10.5195005"><ele>373.4</ele><time>2026-04-04T08:03:03.068Z</time></trkpt><trkpt lat="44.5384708" lon="10.519471"><ele>373.2</ele><time>2026-04-04T08:03:04.072Z</time></trkpt><trkpt lat="44.5383941" lon="10.5194239"><ele>373.0</ele><time>2026-04-04T08:03:05.065Z</time></trkpt><trkpt lat="44.538324" lon="10.5193623"><ele>373.0</ele><time>2026-04-04T08:03:06.063Z</time></trkpt><trkpt lat="44.5382556" lon="10.5192848"><ele>373.0</ele><time>2026-04-04T08:03:07.065Z</time></trkpt><trkpt lat="44.5381884" lon="10.5191996"><ele>373.0</ele><time>2026-04-04T08:03:08.058Z</time></trkpt><trkpt lat="44.5381137" lon="10.5191132"><ele>373.0</ele><time>2026-04-04T08:03:09.064Z</time></trkpt><trkpt lat="44.5380419" lon="10.5190315"><ele>373.0</ele><time>2026-04-04T08:03:10.045Z</time></trkpt><trkpt lat="44.5379722" lon="10.5189531"><ele>373.0</ele><time>2026-04-04T08:03:11.037Z</time></trkpt><trkpt lat="44.5378995" lon="10.5188683"><ele>373.0</ele><time>2026-04-04T08:03:12.028Z</time></trkpt><trkpt lat="44.5378273" lon="10.5187824"><ele>373.0</ele><time>2026-04-04T08:03:12.999Z</time></trkpt><trkpt lat="44.5377551" lon="10.5186965"><ele>373.0</ele><time>2026-04-04T08:03:13.966Z</time></trkpt><trkpt lat="44.5319491" lon="10.5148515"><ele>380.0</ele><time>2026-04-04T08:03:42.084Z</time></trkpt><trkpt lat="44.5317887" lon="10.514763"><ele>387.0</ele><time>2026-04-04T08:03:43.083Z</time></trkpt><trkpt lat="44.5315503" lon="10.5147051"><ele>394.0</ele><time>2026-04-04T08:03:44.083Z</time></trkpt><trkpt lat="44.531352" lon="10.5146335"><ele>403.6666666666667</ele><time>2026-04-04T08:03:45.076Z</time></trkpt><trkpt lat="44.5311524" lon="10.5145831"><ele>413.33333333333337</ele><time>2026-04-04T08:03:46.09Z</time></trkpt><trkpt lat="44.5309527" lon="10.5144442"><ele>423.0</ele><time>2026-04-04T08:03:47.064Z</time></trkpt><trkpt lat="44.5307607" lon="10.5143808"><ele>420.33333333333337</ele><time>2026-04-04T08:03:48.057Z</time></trkpt><trkpt lat="44.5305539" lon="10.5143056"><ele>417.6666666666667</ele><time>2026-04-04T08:03:49.03Z</time></trkpt><trkpt lat="44.5303494" lon="10.5142394"><ele>415.0</ele><time>2026-04-04T08:03:49.993Z</time></trkpt><trkpt lat="44.5283332" lon="10.5135595"><ele>415.0</ele><time>2026-04-04T08:04:03.058Z</time></trkpt><trkpt lat="44.5281902" lon="10.5134437"><ele>415.0</ele><time>2026-04-04T08:04:04.063Z</time></trkpt><trkpt lat="44.5280715" lon="10.51331"><ele>415.0</ele><time>2026-04-04T08:04:05.079Z</time></trkpt><trkpt lat="44.5279434" lon="10.5131958"><ele>415.0</ele><time>2026-04-04T08:04:06.087Z</time></trkpt><trkpt lat="44.527825" lon="10.5130685"><ele>415.0</ele><time>2026-04-04T08:04:07.085Z</time></trkpt><trkpt lat="44.5277219" lon="10.5129355"><ele>415.0</ele><time>2026-04-04T08:04:08.086Z</time></trkpt><trkpt lat="44.5276184" lon="10.5128048"><ele>415.0</ele><time>2026-04-04T08:04:09.077Z</time></trkpt><trkpt lat="44.5275072" lon="10.5126787"><ele>415.0</ele><time>2026-04-04T08:04:10.08Z</time></trkpt><trkpt lat="44.5274145" lon="10.5125535"><ele>415.0</ele><time>2026-04-04T08:04:11.098Z</time></trkpt><trkpt lat="44.5273349" lon="10.5124248"><ele>415.0</ele><time>2026-04-04T08:04:12.099Z</time></trkpt><trkpt lat="44.5272906" lon="10.5122928"><ele>415.0</ele><time>2026-04-04T08:04:13.117Z</time></trkpt><trkpt lat="44.5272707" lon="10.5121586"><ele>415.33333333333337</ele><time>2026-04-04T08:04:14.101Z</time></trkpt><trkpt lat="44.5272728" lon="10.5120328"><ele>415.6666666666667</ele><time>2026-04-04T08:04:15.105Z</time></trkpt><trkpt lat="44.5272638" lon="10.5119104"><ele>416.0</ele><time>2026-04-04T08:04:16.101Z</time></trkpt><trkpt lat="44.527233" lon="10.5118106"><ele>416.33333333333337</ele><time>2026-04-04T08:04:17.129Z</time></trkpt><trkpt lat="44.527162" lon="10.51176"><ele>416.6666666666667</ele><time>2026-04-04T08:04:18.112Z</time></trkpt><trkpt lat="44.5270659" lon="10.5117159"><ele>417.0</ele><time>2026-04-04T08:04:19.117Z</time></trkpt><trkpt lat="44.526961" lon="10.5116267"><ele>418.66666666666663</ele><time>2026-04-04T08:04:20.116Z</time></trkpt><trkpt lat="44.5268461" lon="10.5114759"><ele>420.3333333333333</ele><time>2026-04-04T08:04:21.116Z</time></trkpt><trkpt lat="44.5267114" lon="10.5112165"><ele>422.0</ele><time>2026-04-04T08:04:22.116Z</time></trkpt><trkpt lat="44.5265994" lon="10.5109622"><ele>422.0</ele><time>2026-04-04T08:04:23.114Z</time></trkpt><trkpt lat="44.5264876" lon="10.51073"><ele>422.0</ele><time>2026-04-04T08:04:24.109Z</time></trkpt><trkpt lat="44.5263607" lon="10.5104845"><ele>422.0</ele><time>2026-04-04T08:04:25.096Z</time></trkpt><trkpt lat="44.52624" lon="10.510225"><ele>423.3333333333333</ele><time>2026-04-04T08:04:26.098Z</time></trkpt><trkpt lat="44.5261429" lon="10.5099637"><ele>424.66666666666663</ele><time>2026-04-04T08:04:27.086Z</time></trkpt><trkpt lat="44.5260376" lon="10.5097439"><ele>426.0</ele><time>2026-04-04T08:04:28.104Z</time></trkpt><trkpt lat="44.5259424" lon="10.509501"><ele>428.0</ele><time>2026-04-04T08:04:29.105Z</time></trkpt><trkpt lat="44.5258547" lon="10.5092294"><ele>430.0</ele><time>2026-04-04T08:04:30.091Z</time></trkpt><trkpt lat="44.5257735" lon="10.5089528"><ele>432.0</ele><time>2026-04-04T08:04:31.102Z</time></trkpt><trkpt lat="44.5257018" lon="10.5086673"><ele>437.0</ele><time>2026-04-04T08:04:32.092Z</time></trkpt><trkpt lat="44.5256392" lon="10.5083796"><ele>442.0</ele><time>2026-04-04T08:04:33.084Z</time></trkpt><trkpt lat="44.525586" lon="10.5080955"><ele>447.0</ele><time>2026-04-04T08:04:34.079Z</time></trkpt><trkpt lat="44.5255503" lon="10.50781"><ele>450.0</ele><time>2026-04-04T08:04:35.069Z</time></trkpt><trkpt lat="44.5255349" lon="10.5075485"><ele>453.0</ele><time>2026-04-04T08:04:36.052Z</time></trkpt><trkpt lat="44.5254605" lon="10.5072417"><ele>456.0</ele><time>2026-04-04T08:04:37.013Z</time></trkpt><trkpt lat="44.5253867" lon="10.5069276"><ele>456.0</ele><time>2026-04-04T08:04:37.976Z</time></trkpt><trkpt lat="44.5253129" lon="10.5066135"><ele>456.0</ele><time>2026-04-04T08:04:38.982Z</time></trkpt><trkpt lat="44.5249764" lon="10.5042304"><ele>456.66666666666663</ele><time>2026-04-04T08:04:49.073Z</time></trkpt><trkpt lat="44.5249852" lon="10.5040726"><ele>457.3333333333333</ele><time>2026-04-04T08:04:50.066Z</time></trkpt><trkpt lat="44.5248661" lon="10.5038726"><ele>458.0</ele><time>2026-04-04T08:04:51.088Z</time></trkpt><trkpt lat="44.5247838" lon="10.5036537"><ele>458.0</ele><time>2026-04-04T08:04:52.082Z</time></trkpt><trkpt lat="44.5246795" lon="10.5034439"><ele>458.0</ele><time>2026-04-04T08:04:53.102Z</time></trkpt><trkpt lat="44.5245736" lon="10.5032497"><ele>458.0</ele><time>2026-04-04T08:04:54.09Z</time></trkpt><trkpt lat="44.5244543" lon="10.50309"><ele>458.0</ele><time>2026-04-04T08:04:55.087Z</time></trkpt><trkpt lat="44.5243274" lon="10.5029343"><ele>458.0</ele><time>2026-04-04T08:04:56.09Z</time></trkpt><trkpt lat="44.5242121" lon="10.5027919"><ele>458.0</ele><time>2026-04-04T08:04:57.081Z</time></trkpt><trkpt lat="44.5240937" lon="10.5026505"><ele>459.66666666666663</ele><time>2026-04-04T08:04:58.079Z</time></trkpt><trkpt lat="44.5239659" lon="10.5025004"><ele>461.33333333333337</ele><time>2026-04-04T08:04:59.087Z</time></trkpt><trkpt lat="44.5238315" lon="10.5023524"><ele>463.0</ele><time>2026-04-04T08:05:00.08Z</time></trkpt><trkpt lat="44.5236932" lon="10.5022085"><ele>468.6666666666667</ele><time>2026-04-04T08:05:01.08Z</time></trkpt><trkpt lat="44.5235725" lon="10.5020752"><ele>474.33333333333337</ele><time>2026-04-04T08:05:02.068Z</time></trkpt><trkpt lat="44.5234368" lon="10.501934"><ele>480.0</ele><time>2026-04-04T08:05:03.057Z</time></trkpt><trkpt lat="44.5233069" lon="10.5018009"><ele>480.0</ele><time>2026-04-04T08:05:04.03Z</time></trkpt><trkpt lat="44.5231813" lon="10.5016654"><ele>480.0</ele><time>2026-04-04T08:05:05.038Z</time></trkpt><trkpt lat="44.5230518" lon="10.5015407"><ele>480.0</ele><time>2026-04-04T08:05:06.027Z</time></trkpt><trkpt lat="44.5229245" lon="10.5014091"><ele>482.33333333333337</ele><time>2026-04-04T08:05:07.013Z</time></trkpt><trkpt lat="44.5227974" lon="10.5012731"><ele>484.6666666666667</ele><time>2026-04-04T08:05:08.015Z</time></trkpt><trkpt lat="44.5226705" lon="10.5011365"><ele>487.0</ele><time>2026-04-04T08:05:08.98Z</time></trkpt><trkpt lat="44.5225435" lon="10.5009998"><ele>486.0</ele><time>2026-04-04T08:05:09.944Z</time></trkpt><trkpt lat="44.5204812" lon="10.4987588"><ele>485.0</ele><time>2026-04-04T08:05:25.08Z</time></trkpt><trkpt lat="44.5203294" lon="10.4985903"><ele>484.0</ele><time>2026-04-04T08:05:26.08Z</time></trkpt><trkpt lat="44.5201857" lon="10.4984347"><ele>483.0</ele><time>2026-04-04T08:05:27.098Z</time></trkpt><trkpt lat="44.5200505" lon="10.4982902"><ele>483.0</ele><time>2026-04-04T08:05:28.102Z</time></trkpt><trkpt lat="44.5199128" lon="10.4981537"><ele>483.0</ele><time>2026-04-04T08:05:29.105Z</time></trkpt><trkpt lat="44.5197722" lon="10.4980189"><ele>483.0</ele><time>2026-04-04T08:05:30.094Z</time></trkpt><trkpt lat="44.5196241" lon="10.497875"><ele>489.66666666666663</ele><time>2026-04-04T08:05:31.097Z</time></trkpt><trkpt lat="44.5194642" lon="10.4977321"><ele>496.3333333333333</ele><time>2026-04-04T08:05:32.095Z</time></trkpt><trkpt lat="44.5193027" lon="10.4975952"><ele>503.0</ele><time>2026-04-04T08:05:33.093Z</time></trkpt><trkpt lat="44.5191369" lon="10.4974546"><ele>503.0</ele><time>2026-04-04T08:05:34.084Z</time></trkpt><trkpt lat="44.5189658" lon="10.4973114"><ele>503.0</ele><time>2026-04-04T08:05:35.068Z</time></trkpt><trkpt lat="44.5187895" lon="10.4971926"><ele>503.0</ele><time>2026-04-04T08:05:36.056Z</time></trkpt><trkpt lat="44.5186205" lon="10.4970571"><ele>515.0</ele><time>2026-04-04T08:05:37.046Z</time></trkpt><trkpt lat="44.5184541" lon="10.4969212"><ele>527.0</ele><time>2026-04-04T08:05:38.026Z</time></trkpt><trkpt lat="44.5182869" lon="10.496783"><ele>539.0</ele><time>2026-04-04T08:05:39.001Z</time></trkpt><trkpt lat="44.5181196" lon="10.4966448"><ele>531.0</ele><time>2026-04-04T08:05:39.966Z</time></trkpt><trkpt lat="44.5163837" lon="10.4952918"><ele>528.0</ele><time>2026-04-04T08:05:47.063Z</time></trkpt><trkpt lat="44.5160903" lon="10.495237"><ele>525.0</ele><time>2026-04-04T08:05:48.068Z</time></trkpt><trkpt lat="44.51579" lon="10.495143"><ele>525.0</ele><time>2026-04-04T08:05:49.089Z</time></trkpt><trkpt lat="44.5155271" lon="10.4950408"><ele>525.0</ele><time>2026-04-04T08:05:50.117Z</time></trkpt><trkpt lat="44.515292" lon="10.4949447"><ele>528.3333333333334</ele><time>2026-04-04T08:05:51.09Z</time></trkpt><trkpt lat="44.515092" lon="10.4948538"><ele>531.6666666666667</ele><time>2026-04-04T08:05:52.074Z</time></trkpt><trkpt lat="44.5149064" lon="10.4947706"><ele>535.0</ele><time>2026-04-04T08:05:53.071Z</time></trkpt><trkpt lat="44.5147168" lon="10.4946695"><ele>544.3333333333334</ele><time>2026-04-04T08:05:54.073Z</time></trkpt><trkpt lat="44.5145187" lon="10.4945836"><ele>553.6666666666666</ele><time>2026-04-04T08:05:55.057Z</time></trkpt><trkpt lat="44.5143191" lon="10.4944994"><ele>563.0</ele><time>2026-04-04T08:05:56.025Z</time></trkpt><trkpt lat="44.5141214" lon="10.4944146"><ele>543.0</ele><time>2026-04-04T08:05:56.992Z</time></trkpt><trkpt lat="44.5110018" lon="10.493085"><ele>543.0</ele><time>2026-04-04T08:06:10.082Z</time></trkpt><trkpt lat="44.5107522" lon="10.49307"><ele>543.0</ele><time>2026-04-04T08:06:11.071Z</time></trkpt><trkpt lat="44.5105185" lon="10.4930769"><ele>540.5</ele><time>2026-04-04T08:06:12.1Z</time></trkpt><trkpt lat="44.5102853" lon="10.4931094"><ele>538.0</ele><time>2026-04-04T08:06:13.102Z</time></trkpt><trkpt lat="44.5100658" lon="10.4931352"><ele>538.0</ele><time>2026-04-04T08:06:14.122Z</time></trkpt><trkpt lat="44.5098495" lon="10.493155"><ele>538.0</ele><time>2026-04-04T08:06:15.11Z</time></trkpt><trkpt lat="44.5096426" lon="10.4931725"><ele>538.0</ele><time>2026-04-04T08:06:16.113Z</time></trkpt><trkpt lat="44.5094396" lon="10.4931921"><ele>538.6666666666667</ele><time>2026-04-04T08:06:17.113Z</time></trkpt><trkpt lat="44.5092378" lon="10.4932055"><ele>539.3333333333334</ele><time>2026-04-04T08:06:18.105Z</time></trkpt><trkpt lat="44.509035" lon="10.4932172"><ele>540.0</ele><time>2026-04-04T08:06:19.114Z</time></trkpt><trkpt lat="44.5088343" lon="10.4932263"><ele>548.0</ele><time>2026-04-04T08:06:20.114Z</time></trkpt><trkpt lat="44.5086285" lon="10.4932219"><ele>556.0</ele><time>2026-04-04T08:06:21.122Z</time></trkpt><trkpt lat="44.5084161" lon="10.4932008"><ele>564.0</ele><time>2026-04-04T08:06:22.101Z</time></trkpt><trkpt lat="44.508207" lon="10.4931807"><ele>564.0</ele><time>2026-04-04T08:06:23.093Z</time></trkpt><trkpt lat="44.5079905" lon="10.4931474"><ele>564.0</ele><time>2026-04-04T08:06:24.082Z</time></trkpt><trkpt lat="44.507768" lon="10.4931176"><ele>564.0</ele><time>2026-04-04T08:06:25.069Z</time></trkpt><trkpt lat="44.5075373" lon="10.4930845"><ele>578.5</ele><time>2026-04-04T08:06:26.053Z</time></trkpt><trkpt lat="44.5073057" lon="10.4930646"><ele>593.0</ele><time>2026-04-04T08:06:27.047Z</time></trkpt><trkpt lat="44.5070746" lon="10.4930397"><ele>593.0</ele><time>2026-04-04T08:06:28.043Z</time></trkpt><trkpt lat="44.5068798" lon="10.4930184"><ele>593.0</ele><time>2026-04-04T08:06:29.019Z</time></trkpt><trkpt lat="44.506647" lon="10.4929715"><ele>593.0</ele><time>2026-04-04T08:06:30.006Z</time></trkpt><trkpt lat="44.5064238" lon="10.4929307"><ele>605.0</ele><time>2026-04-04T08:06:30.949Z</time></trkpt><trkpt lat="44.4990706" lon="10.4883405"><ele>605.0</ele><time>2026-04-04T08:07:00.08Z</time></trkpt><trkpt lat="44.4988892" lon="10.4883505"><ele>605.0</ele><time>2026-04-04T08:07:01.076Z</time></trkpt><trkpt lat="44.4987259" lon="10.4883626"><ele>605.0</ele><time>2026-04-04T08:07:02.095Z</time></trkpt><trkpt lat="44.4985841" lon="10.4883686"><ele>605.0</ele><time>2026-04-04T08:07:03.096Z</time></trkpt><trkpt lat="44.498435" lon="10.4883851"><ele>605.0</ele><time>2026-04-04T08:07:04.095Z</time></trkpt><trkpt lat="44.4982773" lon="10.4884017"><ele>605.0</ele><time>2026-04-04T08:07:05.102Z</time></trkpt><trkpt lat="44.4981152" lon="10.4884194"><ele>605.0</ele><time>2026-04-04T08:07:06.095Z</time></trkpt><trkpt lat="44.4979372" lon="10.4884271"><ele>605.0</ele><time>2026-04-04T08:07:07.108Z</time></trkpt><trkpt lat="44.4977623" lon="10.4884294"><ele>605.0</ele><time>2026-04-04T08:07:08.106Z</time></trkpt><trkpt lat="44.4975816" lon="10.4884305"><ele>608.3333333333333</ele><time>2026-04-04T08:07:09.103Z</time></trkpt><trkpt lat="44.4973989" lon="10.4884414"><ele>611.6666666666666</ele><time>2026-04-04T08:07:10.094Z</time></trkpt><trkpt lat="44.4972058" lon="10.4884465"><ele>615.0</ele><time>2026-04-04T08:07:11.099Z</time></trkpt><trkpt lat="44.4970115" lon="10.4884489"><ele>615.0</ele><time>2026-04-04T08:07:12.094Z</time></trkpt><trkpt lat="44.4968203" lon="10.4884267"><ele>615.0</ele><time>2026-04-04T08:07:13.095Z</time></trkpt><trkpt lat="44.496631" lon="10.4883988"><ele>615.0</ele><time>2026-04-04T08:07:14.086Z</time></trkpt><trkpt lat="44.4964279" lon="10.4883632"><ele>615.0</ele><time>2026-04-04T08:07:15.099Z</time></trkpt><trkpt lat="44.4962345" lon="10.4883351"><ele>615.0</ele><time>2026-04-04T08:07:16.102Z</time></trkpt><trkpt lat="44.4960301" lon="10.4883029"><ele>615.0</ele><time>2026-04-04T08:07:17.1Z</time></trkpt><trkpt lat="44.495825" lon="10.4882647"><ele>615.0</ele><time>2026-04-04T08:07:18.102Z</time></trkpt><trkpt lat="44.4956159" lon="10.4882159"><ele>615.0</ele><time>2026-04-04T08:07:19.095Z</time></trkpt><trkpt lat="44.495407" lon="10.4881485"><ele>615.0</ele><time>2026-04-04T08:07:20.098Z</time></trkpt><trkpt lat="44.4952029" lon="10.4880819"><ele>616.0</ele><time>2026-04-04T08:07:21.104Z</time></trkpt><trkpt lat="44.4949869" lon="10.4880091"><ele>617.0</ele><time>2026-04-04T08:07:22.101Z</time></trkpt><trkpt lat="44.4947651" lon="10.4879292"><ele>635.0</ele><time>2026-04-04T08:07:23.114Z</time></trkpt><trkpt lat="44.4945391" lon="10.4878597"><ele>653.0</ele><time>2026-04-04T08:07:24.089Z</time></trkpt><trkpt lat="44.4943175" lon="10.4877736"><ele>653.0</ele><time>2026-04-04T08:07:25.064Z</time></trkpt><trkpt lat="44.4940958" lon="10.4876907"><ele>653.0</ele><time>2026-04-04T08:07:26.063Z</time></trkpt><trkpt lat="44.4938771" lon="10.4876067"><ele>658.0</ele><time>2026-04-04T08:07:27.046Z</time></trkpt><trkpt lat="44.4936505" lon="10.4875237"><ele>663.0</ele><time>2026-04-04T08:07:28.035Z</time></trkpt><trkpt lat="44.4934305" lon="10.4874457"><ele>663.0</ele><time>2026-04-04T08:07:29.029Z</time></trkpt><trkpt lat="44.4932115" lon="10.4873587"><ele>663.0</ele><time>2026-04-04T08:07:30.009Z</time></trkpt><trkpt lat="44.4929927" lon="10.4872719"><ele>700.0</ele><time>2026-04-04T08:07:30.979Z</time></trkpt><trkpt lat="44.4722155" lon="10.4904412"><ele>698.0</ele><time>2026-04-04T08:09:17.065Z</time></trkpt><trkpt lat="44.4720438" lon="10.4903841"><ele>696.0</ele><time>2026-04-04T08:09:18.076Z</time></trkpt><trkpt lat="44.4718178" lon="10.4903031"><ele>694.0</ele><time>2026-04-04T08:09:19.101Z</time></trkpt><trkpt lat="44.4716199" lon="10.4902172"><ele>694.0</ele><time>2026-04-04T08:09:20.097Z</time></trkpt><trkpt lat="44.4714345" lon="10.4901265"><ele>694.0</ele><time>2026-04-04T08:09:21.107Z</time></trkpt><trkpt lat="44.4712377" lon="10.4900363"><ele>694.0</ele><time>2026-04-04T08:09:22.105Z</time></trkpt><trkpt lat="44.4710368" lon="10.489941"><ele>693.6666666666667</ele><time>2026-04-04T08:09:23.107Z</time></trkpt><trkpt lat="44.4708283" lon="10.4898371"><ele>693.3333333333334</ele><time>2026-04-04T08:09:24.108Z</time></trkpt><trkpt lat="44.4706221" lon="10.4897379"><ele>693.0</ele><time>2026-04-04T08:09:25.114Z</time></trkpt><trkpt lat="44.4704095" lon="10.4896363"><ele>696.0</ele><time>2026-04-04T08:09:26.098Z</time></trkpt><trkpt lat="44.4701898" lon="10.4895253"><ele>699.0</ele><time>2026-04-04T08:09:27.14Z</time></trkpt><trkpt lat="44.4699676" lon="10.4894132"><ele>699.0</ele><time>2026-04-04T08:09:28.11Z</time></trkpt><trkpt lat="44.469754" lon="10.4892979"><ele>699.0</ele><time>2026-04-04T08:09:29.099Z</time></trkpt><trkpt lat="44.4695485" lon="10.4891886"><ele>699.0</ele><time>2026-04-04T08:09:30.104Z</time></trkpt><trkpt lat="44.4693398" lon="10.4890891"><ele>698.6666666666666</ele><time>2026-04-04T08:09:31.111Z</time></trkpt><trkpt lat="44.469136" lon="10.4889916"><ele>698.3333333333333</ele><time>2026-04-04T08:09:32.092Z</time></trkpt><trkpt lat="44.4689402" lon="10.4888884"><ele>698.0</ele><time>2026-04-04T08:09:33.111Z</time></trkpt><trkpt lat="44.4687432" lon="10.4888008"><ele>698.5</ele><time>2026-04-04T08:09:34.082Z</time></trkpt><trkpt lat="44.4685482" lon="10.4887138"><ele>699.0</ele><time>2026-04-04T08:09:35.35Z</time></trkpt><trkpt lat="44.4682264" lon="10.4884369"><ele>699.0</ele><time>2026-04-04T08:09:37.09Z</time></trkpt><trkpt lat="44.4681179" lon="10.4882127"><ele>699.0</ele><time>2026-04-04T08:09:38.107Z</time></trkpt><trkpt lat="44.4680444" lon="10.4879807"><ele>699.0</ele><time>2026-04-04T08:09:39.106Z</time></trkpt><trkpt lat="44.4679641" lon="10.4877595"><ele>697.6666666666666</ele><time>2026-04-04T08:09:40.097Z</time></trkpt><trkpt lat="44.467879" lon="10.4875716"><ele>696.3333333333333</ele><time>2026-04-04T08:09:41.106Z</time></trkpt><trkpt lat="44.4677756" lon="10.4874069"><ele>695.0</ele><time>2026-04-04T08:09:42.099Z</time></trkpt><trkpt lat="44.4676373" lon="10.4872748"><ele>695.0</ele><time>2026-04-04T08:09:43.091Z</time></trkpt><trkpt lat="44.4674936" lon="10.4871651"><ele>695.0</ele><time>2026-04-04T08:09:44.116Z</time></trkpt><trkpt lat="44.4673336" lon="10.4871167"><ele>695.0</ele><time>2026-04-04T08:09:45.104Z</time></trkpt><trkpt lat="44.4671482" lon="10.487103"><ele>694.3333333333333</ele><time>2026-04-04T08:09:46.086Z</time></trkpt><trkpt lat="44.4669394" lon="10.4871147"><ele>693.6666666666666</ele><time>2026-04-04T08:09:47.099Z</time></trkpt><trkpt lat="44.4667183" lon="10.4871187"><ele>693.0</ele><time>2026-04-04T08:09:48.101Z</time></trkpt><trkpt lat="44.4664962" lon="10.4871106"><ele>691.0</ele><time>2026-04-04T08:09:49.094Z</time></trkpt><trkpt lat="44.4662683" lon="10.487097"><ele>689.0</ele><time>2026-04-04T08:09:50.102Z</time></trkpt><trkpt lat="44.466029" lon="10.4870856"><ele>695.5</ele><time>2026-04-04T08:09:51.099Z</time></trkpt><trkpt lat="44.4657994" lon="10.4870712"><ele>702.0</ele><time>2026-04-04T08:09:52.094Z</time></trkpt><trkpt lat="44.4655719" lon="10.4870636"><ele>700.6666666666666</ele><time>2026-04-04T08:09:53.187Z</time></trkpt><trkpt lat="44.4653652" lon="10.4870487"><ele>699.3333333333333</ele><time>2026-04-04T08:09:54.116Z</time></trkpt><trkpt lat="44.4651602" lon="10.4870156"><ele>698.0</ele><time>2026-04-04T08:09:55.092Z</time></trkpt><trkpt lat="44.4649425" lon="10.4869507"><ele>698.0</ele><time>2026-04-04T08:09:56.109Z</time></trkpt><trkpt lat="44.4647343" lon="10.486866"><ele>698.0</ele><time>2026-04-04T08:09:57.115Z</time></trkpt><trkpt lat="44.4645536" lon="10.4867743"><ele>698.0</ele><time>2026-04-04T08:09:58.093Z</time></trkpt><trkpt lat="44.4643753" lon="10.4866948"><ele>695.3333333333333</ele><time>2026-04-04T08:09:59.106Z</time></trkpt><trkpt lat="44.4642177" lon="10.4866083"><ele>692.6666666666666</ele><time>2026-04-04T08:10:00.101Z</time></trkpt><trkpt lat="44.4640764" lon="10.4864842"><ele>690.0</ele><time>2026-04-04T08:10:01.095Z</time></trkpt><trkpt lat="44.4639571" lon="10.4862814"><ele>692.6666666666666</ele><time>2026-04-04T08:10:02.101Z</time></trkpt><trkpt lat="44.4638634" lon="10.486046"><ele>695.3333333333333</ele><time>2026-04-04T08:10:03.105Z</time></trkpt><trkpt lat="44.4638253" lon="10.4857911"><ele>698.0</ele><time>2026-04-04T08:10:04.086Z</time></trkpt><trkpt lat="44.4637604" lon="10.485525"><ele>693.3333333333333</ele><time>2026-04-04T08:10:05.1Z</time></trkpt><trkpt lat="44.4636971" lon="10.4852519"><ele>688.6666666666666</ele><time>2026-04-04T08:10:06.095Z</time></trkpt><trkpt lat="44.4636404" lon="10.4849844"><ele>684.0</ele><time>2026-04-04T08:10:07.095Z</time></trkpt><trkpt lat="44.4635897" lon="10.4847403"><ele>686.3333333333334</ele><time>2026-04-04T08:10:08.093Z</time></trkpt><trkpt lat="44.4635388" lon="10.4844963"><ele>688.6666666666667</ele><time>2026-04-04T08:10:09.085Z</time></trkpt><trkpt lat="44.4635037" lon="10.4842557"><ele>691.0</ele><time>2026-04-04T08:10:10.083Z</time></trkpt><trkpt lat="44.4635033" lon="10.4840154"><ele>691.0</ele><time>2026-04-04T08:10:11.094Z</time></trkpt><trkpt lat="44.4635247" lon="10.4837826"><ele>691.0</ele><time>2026-04-04T08:10:12.092Z</time></trkpt><trkpt lat="44.463561" lon="10.4835637"><ele>691.0</ele><time>2026-04-04T08:10:13.09Z</time></trkpt><trkpt lat="44.4635949" lon="10.4833699"><ele>690.5</ele><time>2026-04-04T08:10:14.106Z</time></trkpt><trkpt lat="44.463587" lon="10.4831786"><ele>690.0</ele><time>2026-04-04T08:10:15.098Z</time></trkpt><trkpt lat="44.4635537" lon="10.4829805"><ele>689.5</ele><time>2026-04-04T08:10:16.089Z</time></trkpt><trkpt lat="44.4635006" lon="10.4827923"><ele>689.0</ele><time>2026-04-04T08:10:17.108Z</time></trkpt><trkpt lat="44.4634106" lon="10.482639"><ele>690.6666666666666</ele><time>2026-04-04T08:10:18.105Z</time></trkpt><trkpt lat="44.463265" lon="10.4825199"><ele>692.3333333333334</ele><time>2026-04-04T08:10:19.107Z</time></trkpt><trkpt lat="44.4631106" lon="10.4824382"><ele>694.0</ele><time>2026-04-04T08:10:20.11Z</time></trkpt><trkpt lat="44.4629633" lon="10.4823458"><ele>693.0</ele><time>2026-04-04T08:10:21.105Z</time></trkpt><trkpt lat="44.4628336" lon="10.4822424"><ele>692.0</ele><time>2026-04-04T08:10:22.098Z</time></trkpt><trkpt lat="44.4627054" lon="10.4821261"><ele>691.0</ele><time>2026-04-04T08:10:23.109Z</time></trkpt><trkpt lat="44.4625816" lon="10.4819941"><ele>690.6666666666667</ele><time>2026-04-04T08:10:24.105Z</time></trkpt><trkpt lat="44.4624612" lon="10.4818416"><ele>690.3333333333334</ele><time>2026-04-04T08:10:25.095Z</time></trkpt><trkpt lat="44.4623322" lon="10.4816799"><ele>690.0</ele><time>2026-04-04T08:10:26.104Z</time></trkpt><trkpt lat="44.4621981" lon="10.481522"><ele>688.5</ele><time>2026-04-04T08:10:27.096Z</time></trkpt><trkpt lat="44.4620702" lon="10.4813762"><ele>687.0</ele><time>2026-04-04T08:10:28.106Z</time></trkpt><trkpt lat="44.4619618" lon="10.4812481"><ele>685.5</ele><time>2026-04-04T08:10:29.106Z</time></trkpt><trkpt lat="44.4618797" lon="10.4811203"><ele>684.0</ele><time>2026-04-04T08:10:30.105Z</time></trkpt><trkpt lat="44.4618185" lon="10.4809737"><ele>684.0</ele><time>2026-04-04T08:10:31.099Z</time></trkpt><trkpt lat="44.4617578" lon="10.4808065"><ele>684.0</ele><time>2026-04-04T08:10:32.115Z</time></trkpt><trkpt lat="44.4617048" lon="10.480601"><ele>684.0</ele><time>2026-04-04T08:10:33.098Z</time></trkpt><trkpt lat="44.461679" lon="10.4803803"><ele>684.0</ele><time>2026-04-04T08:10:34.1Z</time></trkpt><trkpt lat="44.4616783" lon="10.4801457"><ele>684.6666666666666</ele><time>2026-04-04T08:10:35.111Z</time></trkpt><trkpt lat="44.4617117" lon="10.4799007"><ele>685.3333333333333</ele><time>2026-04-04T08:10:36.113Z</time></trkpt><trkpt lat="44.4617613" lon="10.4796631"><ele>686.0</ele><time>2026-04-04T08:10:37.095Z</time></trkpt><trkpt lat="44.4618129" lon="10.479424"><ele>684.6666666666666</ele><time>2026-04-04T08:10:38.114Z</time></trkpt><trkpt lat="44.4618589" lon="10.4791892"><ele>683.3333333333334</ele><time>2026-04-04T08:10:39.111Z</time></trkpt><trkpt lat="44.4618955" lon="10.4789607"><ele>682.0</ele><time>2026-04-04T08:10:40.103Z</time></trkpt><trkpt lat="44.4619249" lon="10.4787367"><ele>681.3333333333334</ele><time>2026-04-04T08:10:41.114Z</time></trkpt><trkpt lat="44.4619536" lon="10.4785215"><ele>680.6666666666666</ele><time>2026-04-04T08:10:42.096Z</time></trkpt><trkpt lat="44.4619662" lon="10.4783034"><ele>680.0</ele><time>2026-04-04T08:10:43.093Z</time></trkpt><trkpt lat="44.4619529" lon="10.4780685"><ele>681.6666666666666</ele><time>2026-04-04T08:10:44.114Z</time></trkpt><trkpt lat="44.4618875" lon="10.4778516"><ele>683.3333333333334</ele><time>2026-04-04T08:10:45.096Z</time></trkpt><trkpt lat="44.4618229" lon="10.4776695"><ele>685.0</ele><time>2026-04-04T08:10:46.093Z</time></trkpt><trkpt lat="44.461776" lon="10.4774728"><ele>685.0</ele><time>2026-04-04T08:10:47.102Z</time></trkpt><trkpt lat="44.4617656" lon="10.4772729"><ele>685.0</ele><time>2026-04-04T08:10:48.111Z</time></trkpt><trkpt lat="44.4617978" lon="10.4770633"><ele>685.0</ele><time>2026-04-04T08:10:49.111Z</time></trkpt><trkpt lat="44.46184" lon="10.4768561"><ele>685.6666666666667</ele><time>2026-04-04T08:10:50.111Z</time></trkpt><trkpt lat="44.4619023" lon="10.4766407"><ele>686.3333333333334</ele><time>2026-04-04T08:10:51.111Z</time></trkpt><trkpt lat="44.4619787" lon="10.4764327"><ele>687.0</ele><time>2026-04-04T08:10:52.121Z</time></trkpt><trkpt lat="44.4620454" lon="10.4762155"><ele>687.3333333333334</ele><time>2026-04-04T08:10:53.127Z</time></trkpt><trkpt lat="44.4621044" lon="10.4760026"><ele>687.6666666666667</ele><time>2026-04-04T08:10:54.112Z</time></trkpt><trkpt lat="44.4621458" lon="10.4757997"><ele>688.0</ele><time>2026-04-04T08:10:55.119Z</time></trkpt><trkpt lat="44.4621709" lon="10.4755835"><ele>686.6666666666667</ele><time>2026-04-04T08:10:56.121Z</time></trkpt><trkpt lat="44.4621958" lon="10.4753608"><ele>685.3333333333334</ele><time>2026-04-04T08:10:57.107Z</time></trkpt><trkpt lat="44.4622067" lon="10.4751321"><ele>684.0</ele><time>2026-04-04T08:10:58.106Z</time></trkpt><trkpt lat="44.4622084" lon="10.474878"><ele>684.0</ele><time>2026-04-04T08:10:59.137Z</time></trkpt><trkpt lat="44.4621976" lon="10.4746255"><ele>684.0</ele><time>2026-04-04T08:11:00.098Z</time></trkpt><trkpt lat="44.4621705" lon="10.4743542"><ele>684.0</ele><time>2026-04-04T08:11:01.107Z</time></trkpt><trkpt lat="44.4621219" lon="10.4740788"><ele>680.6666666666666</ele><time>2026-04-04T08:11:02.111Z</time></trkpt><trkpt lat="44.4620633" lon="10.4738089"><ele>677.3333333333333</ele><time>2026-04-04T08:11:03.108Z</time></trkpt><trkpt lat="44.4620085" lon="10.4735536"><ele>674.0</ele><time>2026-04-04T08:11:04.099Z</time></trkpt><trkpt lat="44.4619574" lon="10.4733109"><ele>674.0</ele><time>2026-04-04T08:11:05.115Z</time></trkpt><trkpt lat="44.4619298" lon="10.4730718"><ele>674.0</ele><time>2026-04-04T08:11:06.1Z</time></trkpt><trkpt lat="44.4619149" lon="10.4728405"><ele>674.0</ele><time>2026-04-04T08:11:07.11Z</time></trkpt><trkpt lat="44.4619181" lon="10.4726197"><ele>674.3333333333333</ele><time>2026-04-04T08:11:08.107Z</time></trkpt><trkpt lat="44.4619397" lon="10.4724094"><ele>674.6666666666666</ele><time>2026-04-04T08:11:09.109Z</time></trkpt><trkpt lat="44.4619792" lon="10.4721953"><ele>675.0</ele><time>2026-04-04T08:11:10.11Z</time></trkpt><trkpt lat="44.4620467" lon="10.4719844"><ele>676.6666666666666</ele><time>2026-04-04T08:11:11.12Z</time></trkpt><trkpt lat="44.4621375" lon="10.4717554"><ele>678.3333333333333</ele><time>2026-04-04T08:11:12.109Z</time></trkpt><trkpt lat="44.4622676" lon="10.4714598"><ele>680.0</ele><time>2026-04-04T08:11:13.119Z</time></trkpt><trkpt lat="44.4624449" lon="10.4711378"><ele>680.0</ele><time>2026-04-04T08:11:14.113Z</time></trkpt><trkpt lat="44.4626184" lon="10.4708017"><ele>680.0</ele><time>2026-04-04T08:11:15.106Z</time></trkpt><trkpt lat="44.4627933" lon="10.470425"><ele>684.5</ele><time>2026-04-04T08:11:16.107Z</time></trkpt><trkpt lat="44.4629493" lon="10.4700626"><ele>689.0</ele><time>2026-04-04T08:11:17.109Z</time></trkpt><trkpt lat="44.4630959" lon="10.4697205"><ele>684.0</ele><time>2026-04-04T08:11:18.103Z</time></trkpt><trkpt lat="44.4632329" lon="10.4694044"><ele>679.0</ele><time>2026-04-04T08:11:19.105Z</time></trkpt><trkpt lat="44.4633509" lon="10.4690694"><ele>676.5</ele><time>2026-04-04T08:11:20.115Z</time></trkpt><trkpt lat="44.4634448" lon="10.4687308"><ele>674.0</ele><time>2026-04-04T08:11:21.099Z</time></trkpt><trkpt lat="44.4635234" lon="10.4684206"><ele>674.0</ele><time>2026-04-04T08:11:22.116Z</time></trkpt><trkpt lat="44.4635921" lon="10.4681264"><ele>674.0</ele><time>2026-04-04T08:11:23.123Z</time></trkpt><trkpt lat="44.4636359" lon="10.4678391"><ele>674.0</ele><time>2026-04-04T08:11:24.111Z</time></trkpt><trkpt lat="44.4636379" lon="10.4675622"><ele>674.0</ele><time>2026-04-04T08:11:25.116Z</time></trkpt><trkpt lat="44.4635769" lon="10.4672711"><ele>674.0</ele><time>2026-04-04T08:11:26.11Z</time></trkpt><trkpt lat="44.4634938" lon="10.4669693"><ele>674.0</ele><time>2026-04-04T08:11:27.106Z</time></trkpt><trkpt lat="44.463401" lon="10.4666984"><ele>674.0</ele><time>2026-04-04T08:11:28.107Z</time></trkpt><trkpt lat="44.4632815" lon="10.4664249"><ele>674.0</ele><time>2026-04-04T08:11:29.104Z</time></trkpt><trkpt lat="44.4631377" lon="10.4661426"><ele>670.5</ele><time>2026-04-04T08:11:30.118Z</time></trkpt><trkpt lat="44.4629303" lon="10.4658488"><ele>667.0</ele><time>2026-04-04T08:11:31.103Z</time></trkpt><trkpt lat="44.4626651" lon="10.465523"><ele>666.0</ele><time>2026-04-04T08:11:32.093Z</time></trkpt><trkpt lat="44.4623837" lon="10.4651721"><ele>665.0</ele><time>2026-04-04T08:11:33.103Z</time></trkpt><trkpt lat="44.4620919" lon="10.4647902"><ele>665.5</ele><time>2026-04-04T08:11:34.114Z</time></trkpt><trkpt lat="44.4618143" lon="10.4643589"><ele>666.0</ele><time>2026-04-04T08:11:35.121Z</time></trkpt><trkpt lat="44.461581" lon="10.4639221"><ele>667.0</ele><time>2026-04-04T08:11:36.107Z</time></trkpt><trkpt lat="44.4613889" lon="10.4635125"><ele>668.0</ele><time>2026-04-04T08:11:37.108Z</time></trkpt><trkpt lat="44.4612033" lon="10.4631039"><ele>667.0</ele><time>2026-04-04T08:11:38.115Z</time></trkpt><trkpt lat="44.461012" lon="10.4626917"><ele>666.0</ele><time>2026-04-04T08:11:39.123Z</time></trkpt><trkpt lat="44.4608157" lon="10.4622759"><ele>666.0</ele><time>2026-04-04T08:11:40.111Z</time></trkpt><trkpt lat="44.4606504" lon="10.4618579"><ele>666.0</ele><time>2026-04-04T08:11:41.123Z</time></trkpt><trkpt lat="44.4605067" lon="10.4614694"><ele>663.0</ele><time>2026-04-04T08:11:42.118Z</time></trkpt><trkpt lat="44.4603551" lon="10.4610955"><ele>660.0</ele><time>2026-04-04T08:11:43.109Z</time></trkpt><trkpt lat="44.460207" lon="10.4607521"><ele>660.0</ele><time>2026-04-04T08:11:44.13Z</time></trkpt><trkpt lat="44.460052" lon="10.4604537"><ele>660.0</ele><time>2026-04-04T08:11:45.121Z</time></trkpt><trkpt lat="44.4598554" lon="10.4601947"><ele>660.5</ele><time>2026-04-04T08:11:46.12Z</time></trkpt><trkpt lat="44.4596322" lon="10.4599756"><ele>661.0</ele><time>2026-04-04T08:11:47.12Z</time></trkpt><trkpt lat="44.4593864" lon="10.4597806"><ele>659.5</ele><time>2026-04-04T08:11:48.112Z</time></trkpt><trkpt lat="44.4590928" lon="10.4596479"><ele>658.0</ele><time>2026-04-04T08:11:49.114Z</time></trkpt><trkpt lat="44.4587564" lon="10.4595454"><ele>656.5</ele><time>2026-04-04T08:11:50.112Z</time></trkpt><trkpt lat="44.4584233" lon="10.4594614"><ele>655.0</ele><time>2026-04-04T08:11:51.12Z</time></trkpt><trkpt lat="44.4581505" lon="10.4593693"><ele>654.6666666666667</ele><time>2026-04-04T08:11:52.113Z</time></trkpt><trkpt lat="44.4579351" lon="10.4592903"><ele>654.3333333333334</ele><time>2026-04-04T08:11:53.123Z</time></trkpt><trkpt lat="44.45775" lon="10.4592139"><ele>654.0</ele><time>2026-04-04T08:11:54.115Z</time></trkpt><trkpt lat="44.4575458" lon="10.4591449"><ele>654.0</ele><time>2026-04-04T08:11:55.1Z</time></trkpt><trkpt lat="44.4573347" lon="10.4590547"><ele>654.0</ele><time>2026-04-04T08:11:56.115Z</time></trkpt><trkpt lat="44.4571025" lon="10.4589297"><ele>652.5</ele><time>2026-04-04T08:11:57.124Z</time></trkpt><trkpt lat="44.4568632" lon="10.4587564"><ele>651.0</ele><time>2026-04-04T08:11:58.093Z</time></trkpt><trkpt lat="44.4566169" lon="10.4585683"><ele>651.0</ele><time>2026-04-04T08:11:59.123Z</time></trkpt><trkpt lat="44.4563877" lon="10.4583944"><ele>651.0</ele><time>2026-04-04T08:12:00.111Z</time></trkpt><trkpt lat="44.456178" lon="10.45823"><ele>651.3333333333334</ele><time>2026-04-04T08:12:01.107Z</time></trkpt><trkpt lat="44.4559929" lon="10.458083"><ele>651.6666666666667</ele><time>2026-04-04T08:12:02.11Z</time></trkpt><trkpt lat="44.4558123" lon="10.4579325"><ele>652.0</ele><time>2026-04-04T08:12:03.101Z</time></trkpt><trkpt lat="44.455636" lon="10.4577967"><ele>652.0</ele><time>2026-04-04T08:12:04.099Z</time></trkpt><trkpt lat="44.4554598" lon="10.4576519"><ele>652.0</ele><time>2026-04-04T08:12:05.111Z</time></trkpt><trkpt lat="44.4552859" lon="10.4575111"><ele>652.0</ele><time>2026-04-04T08:12:06.116Z</time></trkpt><trkpt lat="44.4551142" lon="10.4573748"><ele>652.0</ele><time>2026-04-04T08:12:07.095Z</time></trkpt><trkpt lat="44.4549429" lon="10.4572374"><ele>652.0</ele><time>2026-04-04T08:12:08.114Z</time></trkpt><trkpt lat="44.4547831" lon="10.457108"><ele>652.0</ele><time>2026-04-04T08:12:09.111Z</time></trkpt><trkpt lat="44.4546168" lon="10.4569908"><ele>650.3333333333334</ele><time>2026-04-04T08:12:10.097Z</time></trkpt><trkpt lat="44.4544579" lon="10.4568692"><ele>648.6666666666666</ele><time>2026-04-04T08:12:11.112Z</time></trkpt><trkpt lat="44.4543074" lon="10.4567455"><ele>647.0</ele><time>2026-04-04T08:12:12.115Z</time></trkpt><trkpt lat="44.4541554" lon="10.4566245"><ele>647.0</ele><time>2026-04-04T08:12:13.095Z</time></trkpt><trkpt lat="44.4539978" lon="10.4564942"><ele>647.0</ele><time>2026-04-04T08:12:14.119Z</time></trkpt><trkpt lat="44.4538393" lon="10.4563664"><ele>647.0</ele><time>2026-04-04T08:12:15.111Z</time></trkpt><trkpt lat="44.4536828" lon="10.4562295"><ele>647.0</ele><time>2026-04-04T08:12:16.096Z</time></trkpt><trkpt lat="44.4535229" lon="10.4560812"><ele>647.0</ele><time>2026-04-04T08:12:17.111Z</time></trkpt><trkpt lat="44.4533734" lon="10.4559104"><ele>647.0</ele><time>2026-04-04T08:12:18.116Z</time></trkpt><trkpt lat="44.4532251" lon="10.4557288"><ele>647.0</ele><time>2026-04-04T08:12:19.098Z</time></trkpt><trkpt lat="44.4530729" lon="10.4555392"><ele>647.0</ele><time>2026-04-04T08:12:20.121Z</time></trkpt><trkpt lat="44.4529212" lon="10.4553388"><ele>647.0</ele><time>2026-04-04T08:12:21.115Z</time></trkpt><trkpt lat="44.4527858" lon="10.4551204"><ele>646.3333333333333</ele><time>2026-04-04T08:12:22.098Z</time></trkpt><trkpt lat="44.4526499" lon="10.4548936"><ele>645.6666666666666</ele><time>2026-04-04T08:12:23.116Z</time></trkpt><trkpt lat="44.4525235" lon="10.4546582"><ele>645.0</ele><time>2026-04-04T08:12:24.111Z</time></trkpt><trkpt lat="44.4524084" lon="10.4544138"><ele>643.6666666666666</ele><time>2026-04-04T08:12:25.103Z</time></trkpt><trkpt lat="44.4522937" lon="10.4541634"><ele>642.3333333333333</ele><time>2026-04-04T08:12:26.112Z</time></trkpt><trkpt lat="44.4521772" lon="10.4539127"><ele>641.0</ele><time>2026-04-04T08:12:27.126Z</time></trkpt><trkpt lat="44.4520628" lon="10.4536686"><ele>641.0</ele><time>2026-04-04T08:12:28.1Z</time></trkpt><trkpt lat="44.4519488" lon="10.4534118"><ele>641.0</ele><time>2026-04-04T08:12:29.118Z</time></trkpt><trkpt lat="44.4518268" lon="10.4531524"><ele>641.0</ele><time>2026-04-04T08:12:30.111Z</time></trkpt><trkpt lat="44.4517098" lon="10.4528965"><ele>643.3333333333333</ele><time>2026-04-04T08:12:31.087Z</time></trkpt><trkpt lat="44.4515863" lon="10.4526403"><ele>645.6666666666666</ele><time>2026-04-04T08:12:32.109Z</time></trkpt><trkpt lat="44.4514647" lon="10.45239"><ele>648.0</ele><time>2026-04-04T08:12:33.095Z</time></trkpt><trkpt lat="44.4513459" lon="10.4521488"><ele>647.6666666666666</ele><time>2026-04-04T08:12:34.065Z</time></trkpt><trkpt lat="44.4512277" lon="10.4519106"><ele>647.3333333333333</ele><time>2026-04-04T08:12:35.177Z</time></trkpt><trkpt lat="44.4511067" lon="10.4516824"><ele>647.0</ele><time>2026-04-04T08:12:36.083Z</time></trkpt><trkpt lat="44.4509827" lon="10.4514466"><ele>645.6666666666666</ele><time>2026-04-04T08:12:37.08Z</time></trkpt><trkpt lat="44.4508586" lon="10.4512093"><ele>644.3333333333334</ele><time>2026-04-04T08:12:38.095Z</time></trkpt><trkpt lat="44.4507192" lon="10.4509863"><ele>643.0</ele><time>2026-04-04T08:12:39.089Z</time></trkpt><trkpt lat="44.4505678" lon="10.4507711"><ele>642.3333333333334</ele><time>2026-04-04T08:12:40.083Z</time></trkpt><trkpt lat="44.4504097" lon="10.4505696"><ele>641.6666666666666</ele><time>2026-04-04T08:12:41.095Z</time></trkpt><trkpt lat="44.4502401" lon="10.4503904"><ele>641.0</ele><time>2026-04-04T08:12:42.092Z</time></trkpt><trkpt lat="44.4500672" lon="10.4502286"><ele>641.0</ele><time>2026-04-04T08:12:43.087Z</time></trkpt><trkpt lat="44.4499028" lon="10.4500726"><ele>641.0</ele><time>2026-04-04T08:12:44.096Z</time></trkpt><trkpt lat="44.4497379" lon="10.4499243"><ele>641.0</ele><time>2026-04-04T08:12:45.092Z</time></trkpt><trkpt lat="44.4495669" lon="10.4497872"><ele>640.3333333333333</ele><time>2026-04-04T08:12:46.085Z</time></trkpt><trkpt lat="44.4494054" lon="10.4496728"><ele>639.6666666666666</ele><time>2026-04-04T08:12:47.092Z</time></trkpt><trkpt lat="44.4492497" lon="10.4495673"><ele>639.0</ele><time>2026-04-04T08:12:48.092Z</time></trkpt><trkpt lat="44.4491106" lon="10.4494767"><ele>639.0</ele><time>2026-04-04T08:12:49.081Z</time></trkpt><trkpt lat="44.44899" lon="10.4493813"><ele>639.0</ele><time>2026-04-04T08:12:50.166Z</time></trkpt><trkpt lat="44.448862" lon="10.4492911"><ele>639.0</ele><time>2026-04-04T08:12:51.084Z</time></trkpt><trkpt lat="44.4487339" lon="10.4492202"><ele>639.0</ele><time>2026-04-04T08:12:52.079Z</time></trkpt><trkpt lat="44.4486135" lon="10.4491595"><ele>634.5</ele><time>2026-04-04T08:12:53.094Z</time></trkpt><trkpt lat="44.4484965" lon="10.4491149"><ele>630.0</ele><time>2026-04-04T08:12:54.081Z</time></trkpt><trkpt lat="44.4483768" lon="10.44907"><ele>625.5</ele><time>2026-04-04T08:12:55.063Z</time></trkpt><trkpt lat="44.4482639" lon="10.4490149"><ele>621.0</ele><time>2026-04-04T08:12:56.081Z</time></trkpt><trkpt lat="44.44816" lon="10.4489451"><ele>621.0</ele><time>2026-04-04T08:12:57.081Z</time></trkpt><trkpt lat="44.4480636" lon="10.4488714"><ele>621.0</ele><time>2026-04-04T08:12:58.066Z</time></trkpt><trkpt lat="44.4479732" lon="10.4488053"><ele>621.0</ele><time>2026-04-04T08:12:59.092Z</time></trkpt><trkpt lat="44.4478883" lon="10.4487526"><ele>621.0</ele><time>2026-04-04T08:13:00.089Z</time></trkpt><trkpt lat="44.4478125" lon="10.4487141"><ele>621.0</ele><time>2026-04-04T08:13:01.086Z</time></trkpt><trkpt lat="44.4477237" lon="10.4486427"><ele>621.6</ele><time>2026-04-04T08:13:03.106Z</time></trkpt><trkpt lat="44.4476389" lon="10.4485967"><ele>622.2</ele><time>2026-04-04T08:13:05.093Z</time></trkpt><trkpt lat="44.4475778" lon="10.448529"><ele>622.8</ele><time>2026-04-04T08:13:19.084Z</time></trkpt><trkpt lat="44.4474781" lon="10.4484421"><ele>623.4</ele><time>2026-04-04T08:13:21.095Z</time></trkpt><trkpt lat="44.4474043" lon="10.4483922"><ele>624.0</ele><time>2026-04-04T08:13:22.078Z</time></trkpt><trkpt lat="44.4472937" lon="10.4483068"><ele>624.0</ele><time>2026-04-04T08:13:24.098Z</time></trkpt><trkpt lat="44.4472297" lon="10.4482618"><ele>624.0</ele><time>2026-04-04T08:13:26.093Z</time></trkpt><trkpt lat="44.4471697" lon="10.4482159"><ele>624.0</ele><time>2026-04-04T08:13:29.112Z</time></trkpt><trkpt lat="44.4471051" lon="10.4481522"><ele>624.0</ele><time>2026-04-04T08:13:32.109Z</time></trkpt><trkpt lat="44.4470457" lon="10.4481045"><ele>624.0</ele><time>2026-04-04T08:13:34.11Z</time></trkpt><trkpt lat="44.4469903" lon="10.4480466"><ele>624.0</ele><time>2026-04-04T08:13:36.11Z</time></trkpt><trkpt lat="44.4469451" lon="10.447915"><ele>625.0</ele><time>2026-04-04T08:13:39.105Z</time></trkpt><trkpt lat="44.4469476" lon="10.4477322"><ele>626.0</ele><time>2026-04-04T08:13:41.107Z</time></trkpt><trkpt lat="44.4469717" lon="10.4476249"><ele>627.0</ele><time>2026-04-04T08:13:42.102Z</time></trkpt><trkpt lat="44.4470056" lon="10.4475118"><ele>628.0</ele><time>2026-04-04T08:13:43.084Z</time></trkpt><trkpt lat="44.4470636" lon="10.4473914"><ele>629.0</ele><time>2026-04-04T08:13:44.107Z</time></trkpt><trkpt lat="44.4471472" lon="10.4472722"><ele>630.75</ele><time>2026-04-04T08:13:45.099Z</time></trkpt><trkpt lat="44.4472402" lon="10.4471749"><ele>632.5</ele><time>2026-04-04T08:13:46.071Z</time></trkpt><trkpt lat="44.4473443" lon="10.4471335"><ele>634.25</ele><time>2026-04-04T08:13:47.175Z</time></trkpt><trkpt lat="44.4474574" lon="10.4471637"><ele>636.0</ele><time>2026-04-04T08:13:48.092Z</time></trkpt><trkpt lat="44.4475775" lon="10.4472446"><ele>636.0</ele><time>2026-04-04T08:13:49.072Z</time></trkpt><trkpt lat="44.4476903" lon="10.4473863"><ele>636.0</ele><time>2026-04-04T08:13:50.092Z</time></trkpt><trkpt lat="44.4477538" lon="10.4475496"><ele>636.0</ele><time>2026-04-04T08:13:51.077Z</time></trkpt><trkpt lat="44.4477606" lon="10.4477328"><ele>636.0</ele><time>2026-04-04T08:13:52.065Z</time></trkpt><trkpt lat="44.4477425" lon="10.4478987"><ele>633.0</ele><time>2026-04-04T08:13:53.073Z</time></trkpt><trkpt lat="44.4476867" lon="10.4480582"><ele>630.0</ele><time>2026-04-04T08:13:54.083Z</time></trkpt><trkpt lat="44.4476033" lon="10.4481847"><ele>627.0</ele><time>2026-04-04T08:13:55.063Z</time></trkpt><trkpt lat="44.4474766" lon="10.4482676"><ele>624.0</ele><time>2026-04-04T08:13:56.084Z</time></trkpt><trkpt lat="44.4473633" lon="10.4483294"><ele>624.0</ele><time>2026-04-04T08:13:57.083Z</time></trkpt><trkpt lat="44.4472608" lon="10.4483924"><ele>624.0</ele><time>2026-04-04T08:13:58.076Z</time></trkpt><trkpt lat="44.4471502" lon="10.4484378"><ele>624.0</ele><time>2026-04-04T08:13:59.083Z</time></trkpt><trkpt lat="44.4470332" lon="10.448473"><ele>624.0</ele><time>2026-04-04T08:14:00.081Z</time></trkpt><trkpt lat="44.4469173" lon="10.4485046"><ele>621.75</ele><time>2026-04-04T08:14:01.075Z</time></trkpt><trkpt lat="44.4467919" lon="10.4485304"><ele>619.5</ele><time>2026-04-04T08:14:02.087Z</time></trkpt><trkpt lat="44.4466633" lon="10.4485465"><ele>617.25</ele><time>2026-04-04T08:14:03.086Z</time></trkpt><trkpt lat="44.4465327" lon="10.4485645"><ele>615.0</ele><time>2026-04-04T08:14:04.082Z</time></trkpt><trkpt lat="44.4463953" lon="10.4485835"><ele>613.0</ele><time>2026-04-04T08:14:05.116Z</time></trkpt><trkpt lat="44.4462494" lon="10.4486048"><ele>611.0</ele><time>2026-04-04T08:14:06.088Z</time></trkpt><trkpt lat="44.4460891" lon="10.4486176"><ele>609.0</ele><time>2026-04-04T08:14:07.088Z</time></trkpt><trkpt lat="44.4459182" lon="10.4486403"><ele>609.0</ele><time>2026-04-04T08:14:08.098Z</time></trkpt><trkpt lat="44.4457679" lon="10.4486641"><ele>609.0</ele><time>2026-04-04T08:14:09.101Z</time></trkpt><trkpt lat="44.4456183" lon="10.4486889"><ele>609.0</ele><time>2026-04-04T08:14:10.081Z</time></trkpt><trkpt lat="44.4454791" lon="10.4487092"><ele>609.0</ele><time>2026-04-04T08:14:11.092Z</time></trkpt><trkpt lat="44.4453414" lon="10.4487284"><ele>608.5</ele><time>2026-04-04T08:14:12.093Z</time></trkpt><trkpt lat="44.445203" lon="10.4487509"><ele>608.0</ele><time>2026-04-04T08:14:13.08Z</time></trkpt><trkpt lat="44.4450682" lon="10.4487746"><ele>607.5</ele><time>2026-04-04T08:14:14.095Z</time></trkpt><trkpt lat="44.4449348" lon="10.4487955"><ele>607.0</ele><time>2026-04-04T08:14:15.097Z</time></trkpt><trkpt lat="44.4447991" lon="10.4488156"><ele>606.0</ele><time>2026-04-04T08:14:16.077Z</time></trkpt><trkpt lat="44.4446736" lon="10.4488127"><ele>605.0</ele><time>2026-04-04T08:14:17.095Z</time></trkpt><trkpt lat="44.4445531" lon="10.4487835"><ele>604.0</ele><time>2026-04-04T08:14:18.085Z</time></trkpt><trkpt lat="44.4444278" lon="10.4487297"><ele>603.0</ele><time>2026-04-04T08:14:19.084Z</time></trkpt><trkpt lat="44.4443066" lon="10.4486677"><ele>603.0</ele><time>2026-04-04T08:14:20.09Z</time></trkpt><trkpt lat="44.4442041" lon="10.4485973"><ele>603.0</ele><time>2026-04-04T08:14:21.088Z</time></trkpt><trkpt lat="44.4441209" lon="10.4485024"><ele>603.0</ele><time>2026-04-04T08:14:22.078Z</time></trkpt><trkpt lat="44.4440488" lon="10.4483801"><ele>603.0</ele><time>2026-04-04T08:14:23.098Z</time></trkpt><trkpt lat="44.4439931" lon="10.4482623"><ele>603.0</ele><time>2026-04-04T08:14:24.083Z</time></trkpt><trkpt lat="44.4439322" lon="10.4481469"><ele>603.0</ele><time>2026-04-04T08:14:25.083Z</time></trkpt><trkpt lat="44.4438625" lon="10.4480566"><ele>603.0</ele><time>2026-04-04T08:14:26.092Z</time></trkpt><trkpt lat="44.4437769" lon="10.4480177"><ele>603.0</ele><time>2026-04-04T08:14:27.099Z</time></trkpt><trkpt lat="44.4436807" lon="10.4480347"><ele>603.0</ele><time>2026-04-04T08:14:28.085Z</time></trkpt><trkpt lat="44.4435802" lon="10.448135"><ele>603.0</ele><time>2026-04-04T08:14:29.099Z</time></trkpt><trkpt lat="44.4434855" lon="10.4483067"><ele>601.75</ele><time>2026-04-04T08:14:30.085Z</time></trkpt><trkpt lat="44.4434043" lon="10.4484843"><ele>600.5</ele><time>2026-04-04T08:14:31.068Z</time></trkpt><trkpt lat="44.4433297" lon="10.4486509"><ele>599.25</ele><time>2026-04-04T08:14:32.084Z</time></trkpt><trkpt lat="44.4432493" lon="10.448809"><ele>598.0</ele><time>2026-04-04T08:14:33.075Z</time></trkpt><trkpt lat="44.4431576" lon="10.4489628"><ele>595.25</ele><time>2026-04-04T08:14:34.073Z</time></trkpt><trkpt lat="44.4430554" lon="10.4491071"><ele>592.5</ele><time>2026-04-04T08:14:35.08Z</time></trkpt><trkpt lat="44.4429392" lon="10.4492182"><ele>589.75</ele><time>2026-04-04T08:14:36.101Z</time></trkpt><trkpt lat="44.4428166" lon="10.449311"><ele>587.0</ele><time>2026-04-04T08:14:37.077Z</time></trkpt><trkpt lat="44.4426772" lon="10.4494013"><ele>586.3333333333333</ele><time>2026-04-04T08:14:38.088Z</time></trkpt><trkpt lat="44.4424963" lon="10.4494785"><ele>585.6666666666666</ele><time>2026-04-04T08:14:39.084Z</time></trkpt><trkpt lat="44.4422658" lon="10.4495223"><ele>585.0</ele><time>2026-04-04T08:14:40.065Z</time></trkpt><trkpt lat="44.4420197" lon="10.4495681"><ele>582.5</ele><time>2026-04-04T08:14:41.264Z</time></trkpt><trkpt lat="44.4417781" lon="10.4496213"><ele>580.0</ele><time>2026-04-04T08:14:42.091Z</time></trkpt><trkpt lat="44.4415563" lon="10.4496629"><ele>578.3333333333334</ele><time>2026-04-04T08:14:43.084Z</time></trkpt><trkpt lat="44.4413321" lon="10.4496779"><ele>576.6666666666666</ele><time>2026-04-04T08:14:44.098Z</time></trkpt><trkpt lat="44.441127" lon="10.44969"><ele>575.0</ele><time>2026-04-04T08:14:45.098Z</time></trkpt><trkpt lat="44.4409364" lon="10.4497354"><ele>572.6666666666666</ele><time>2026-04-04T08:14:46.084Z</time></trkpt><trkpt lat="44.4407812" lon="10.4498011"><ele>570.3333333333334</ele><time>2026-04-04T08:14:47.096Z</time></trkpt><trkpt lat="44.4406337" lon="10.4498673"><ele>568.0</ele><time>2026-04-04T08:14:48.165Z</time></trkpt><trkpt lat="44.4404965" lon="10.4498985"><ele>567.25</ele><time>2026-04-04T08:14:49.09Z</time></trkpt><trkpt lat="44.4403699" lon="10.4498588"><ele>566.5</ele><time>2026-04-04T08:14:50.093Z</time></trkpt><trkpt lat="44.4402449" lon="10.4497795"><ele>565.75</ele><time>2026-04-04T08:14:51.091Z</time></trkpt><trkpt lat="44.4401271" lon="10.4497032"><ele>565.0</ele><time>2026-04-04T08:14:52.089Z</time></trkpt><trkpt lat="44.4400153" lon="10.4496148"><ele>565.0</ele><time>2026-04-04T08:14:53.096Z</time></trkpt><trkpt lat="44.439904" lon="10.449533"><ele>565.0</ele><time>2026-04-04T08:14:54.099Z</time></trkpt><trkpt lat="44.4397869" lon="10.4494621"><ele>565.0</ele><time>2026-04-04T08:14:55.08Z</time></trkpt><trkpt lat="44.4396683" lon="10.449418"><ele>565.0</ele><time>2026-04-04T08:14:56.096Z</time></trkpt><trkpt lat="44.4395378" lon="10.449396"><ele>563.25</ele><time>2026-04-04T08:14:57.092Z</time></trkpt><trkpt lat="44.4394092" lon="10.449397"><ele>561.5</ele><time>2026-04-04T08:14:58.089Z</time></trkpt><trkpt lat="44.4392811" lon="10.4494243"><ele>559.75</ele><time>2026-04-04T08:14:59.1Z</time></trkpt><trkpt lat="44.4391535" lon="10.4494427"><ele>558.0</ele><time>2026-04-04T08:15:00.093Z</time></trkpt><trkpt lat="44.4390227" lon="10.449441"><ele>558.0</ele><time>2026-04-04T08:15:01.086Z</time></trkpt><trkpt lat="44.4388917" lon="10.449401"><ele>558.0</ele><time>2026-04-04T08:15:02.088Z</time></trkpt><trkpt lat="44.4387716" lon="10.4493331"><ele>558.0</ele><time>2026-04-04T08:15:03.096Z</time></trkpt><trkpt lat="44.438662" lon="10.4492639"><ele>558.0</ele><time>2026-04-04T08:15:04.081Z</time></trkpt><trkpt lat="44.4385624" lon="10.4491879"><ele>555.8</ele><time>2026-04-04T08:15:05.099Z</time></trkpt><trkpt lat="44.4384707" lon="10.4490941"><ele>553.5999999999999</ele><time>2026-04-04T08:15:06.089Z</time></trkpt><trkpt lat="44.4383877" lon="10.4489976"><ele>551.4000000000001</ele><time>2026-04-04T08:15:07.092Z</time></trkpt><trkpt lat="44.4383153" lon="10.448895"><ele>549.2</ele><time>2026-04-04T08:15:08.1Z</time></trkpt><trkpt lat="44.4382366" lon="10.4488129"><ele>547.0</ele><time>2026-04-04T08:15:09.102Z</time></trkpt><trkpt lat="44.4381554" lon="10.4487748"><ele>547.0</ele><time>2026-04-04T08:15:10.099Z</time></trkpt><trkpt lat="44.4380571" lon="10.4487914"><ele>547.0</ele><time>2026-04-04T08:15:11.099Z</time></trkpt><trkpt lat="44.4379559" lon="10.4488685"><ele>547.0</ele><time>2026-04-04T08:15:12.109Z</time></trkpt><trkpt lat="44.4378512" lon="10.4489792"><ele>547.0</ele><time>2026-04-04T08:15:13.09Z</time></trkpt><trkpt lat="44.4377309" lon="10.4490957"><ele>545.0</ele><time>2026-04-04T08:15:14.104Z</time></trkpt><trkpt lat="44.4375876" lon="10.4492276"><ele>543.0</ele><time>2026-04-04T08:15:15.092Z</time></trkpt><trkpt lat="44.4374123" lon="10.4493311"><ele>541.0</ele><time>2026-04-04T08:15:16.091Z</time></trkpt><trkpt lat="44.4372007" lon="10.4493738"><ele>539.0</ele><time>2026-04-04T08:15:17.099Z</time></trkpt><trkpt lat="44.436963" lon="10.4493649"><ele>537.0</ele><time>2026-04-04T08:15:18.104Z</time></trkpt><trkpt lat="44.4367206" lon="10.4493398"><ele>537.0</ele><time>2026-04-04T08:15:19.082Z</time></trkpt><trkpt lat="44.4364776" lon="10.4493515"><ele>537.0</ele><time>2026-04-04T08:15:20.102Z</time></trkpt><trkpt lat="44.4362332" lon="10.4493751"><ele>534.5</ele><time>2026-04-04T08:15:21.109Z</time></trkpt><trkpt lat="44.4359937" lon="10.4493897"><ele>532.0</ele><time>2026-04-04T08:15:22.091Z</time></trkpt><trkpt lat="44.4357558" lon="10.449407"><ele>532.0</ele><time>2026-04-04T08:15:23.113Z</time></trkpt><trkpt lat="44.4355269" lon="10.449421"><ele>532.0</ele><time>2026-04-04T08:15:24.112Z</time></trkpt><trkpt lat="44.4353047" lon="10.449461"><ele>531.3333333333334</ele><time>2026-04-04T08:15:25.092Z</time></trkpt><trkpt lat="44.4350913" lon="10.4495183"><ele>530.6666666666666</ele><time>2026-04-04T08:15:26.105Z</time></trkpt><trkpt lat="44.4348824" lon="10.4495969"><ele>530.0</ele><time>2026-04-04T08:15:27.112Z</time></trkpt><trkpt lat="44.4346887" lon="10.4497374"><ele>525.0</ele><time>2026-04-04T08:15:28.094Z</time></trkpt><trkpt lat="44.434523" lon="10.4499102"><ele>520.0</ele><time>2026-04-04T08:15:29.111Z</time></trkpt><trkpt lat="44.4343693" lon="10.4500763"><ele>515.0</ele><time>2026-04-04T08:15:30.108Z</time></trkpt><trkpt lat="44.4342682" lon="10.4502531"><ele>514.3333333333333</ele><time>2026-04-04T08:15:31.088Z</time></trkpt><trkpt lat="44.4342007" lon="10.4504729"><ele>513.6666666666666</ele><time>2026-04-04T08:15:32.112Z</time></trkpt><trkpt lat="44.4341905" lon="10.4507228"><ele>513.0</ele><time>2026-04-04T08:15:33.104Z</time></trkpt><trkpt lat="44.4342201" lon="10.4510066"><ele>513.0</ele><time>2026-04-04T08:15:34.088Z</time></trkpt><trkpt lat="44.4342175" lon="10.4512791"><ele>513.0</ele><time>2026-04-04T08:15:35.099Z</time></trkpt><trkpt lat="44.4341914" lon="10.4515031"><ele>513.0</ele><time>2026-04-04T08:15:36.104Z</time></trkpt><trkpt lat="44.4341356" lon="10.4516745"><ele>512.25</ele><time>2026-04-04T08:15:37.09Z</time></trkpt><trkpt lat="44.4340371" lon="10.4517704"><ele>511.5</ele><time>2026-04-04T08:15:38.107Z</time></trkpt><trkpt lat="44.4339025" lon="10.4518087"><ele>510.75</ele><time>2026-04-04T08:15:39.103Z</time></trkpt><trkpt lat="44.4337534" lon="10.4517863"><ele>510.0</ele><time>2026-04-04T08:15:40.088Z</time></trkpt><trkpt lat="44.4336072" lon="10.4518102"><ele>511.0</ele><time>2026-04-04T08:15:41.093Z</time></trkpt><trkpt lat="44.4334775" lon="10.4518684"><ele>512.0</ele><time>2026-04-04T08:15:42.103Z</time></trkpt><trkpt lat="44.4333912" lon="10.452022"><ele>513.0</ele><time>2026-04-04T08:15:43.084Z</time></trkpt><trkpt lat="44.4333317" lon="10.4522303"><ele>514.0</ele><time>2026-04-04T08:15:44.101Z</time></trkpt><trkpt lat="44.4332828" lon="10.4523912"><ele>514.0</ele><time>2026-04-04T08:15:45.1Z</time></trkpt><trkpt lat="44.4332234" lon="10.4525187"><ele>514.0</ele><time>2026-04-04T08:15:46.078Z</time></trkpt><trkpt lat="44.4331389" lon="10.4526394"><ele>514.0</ele><time>2026-04-04T08:15:47.097Z</time></trkpt><trkpt lat="44.4330465" lon="10.4527474"><ele>514.0</ele><time>2026-04-04T08:15:48.095Z</time></trkpt><trkpt lat="44.4329629" lon="10.4528531"><ele>513.5</ele><time>2026-04-04T08:15:49.075Z</time></trkpt><trkpt lat="44.4328729" lon="10.4529508"><ele>513.0</ele><time>2026-04-04T08:15:50.1Z</time></trkpt><trkpt lat="44.432783" lon="10.453053"><ele>512.5</ele><time>2026-04-04T08:15:51.103Z</time></trkpt><trkpt lat="44.4326928" lon="10.4531593"><ele>512.0</ele><time>2026-04-04T08:15:52.09Z</time></trkpt><trkpt lat="44.4325926" lon="10.4532609"><ele>512.0</ele><time>2026-04-04T08:15:53.114Z</time></trkpt><trkpt lat="44.4324803" lon="10.4533549"><ele>512.0</ele><time>2026-04-04T08:15:54.117Z</time></trkpt><trkpt lat="44.4323509" lon="10.4534104"><ele>512.0</ele><time>2026-04-04T08:15:55.091Z</time></trkpt><trkpt lat="44.4321925" lon="10.453416"><ele>512.0</ele><time>2026-04-04T08:15:56.109Z</time></trkpt><trkpt lat="44.4320367" lon="10.4534363"><ele>513.0</ele><time>2026-04-04T08:15:57.107Z</time></trkpt><trkpt lat="44.4318899" lon="10.4534955"><ele>514.0</ele><time>2026-04-04T08:15:58.099Z</time></trkpt><trkpt lat="44.4317394" lon="10.4536193"><ele>515.0</ele><time>2026-04-04T08:15:59.11Z</time></trkpt><trkpt lat="44.4315918" lon="10.4537601"><ele>514.0</ele><time>2026-04-04T08:16:00.102Z</time></trkpt><trkpt lat="44.4314725" lon="10.4538746"><ele>513.0</ele><time>2026-04-04T08:16:01.084Z</time></trkpt><trkpt lat="44.4313601" lon="10.4539636"><ele>512.0</ele><time>2026-04-04T08:16:02.101Z</time></trkpt><trkpt lat="44.43126" lon="10.4540379"><ele>511.0</ele><time>2026-04-04T08:16:03.099Z</time></trkpt><trkpt lat="44.4311644" lon="10.4541042"><ele>511.0</ele><time>2026-04-04T08:16:04.083Z</time></trkpt><trkpt lat="44.4310766" lon="10.4541658"><ele>511.0</ele><time>2026-04-04T08:16:05.104Z</time></trkpt><trkpt lat="44.4309899" lon="10.4542267"><ele>511.0</ele><time>2026-04-04T08:16:06.103Z</time></trkpt><trkpt lat="44.4309058" lon="10.4542885"><ele>511.0</ele><time>2026-04-04T08:16:07.085Z</time></trkpt><trkpt lat="44.4307932" lon="10.4543676"><ele>511.0</ele><time>2026-04-04T08:16:08.102Z</time></trkpt><trkpt lat="44.4306747" lon="10.4544691"><ele>511.0</ele><time>2026-04-04T08:16:09.121Z</time></trkpt><trkpt lat="44.4305513" lon="10.4545896"><ele>511.0</ele><time>2026-04-04T08:16:10.087Z</time></trkpt><trkpt lat="44.4304088" lon="10.4547586"><ele>511.0</ele><time>2026-04-04T08:16:11.113Z</time></trkpt><trkpt lat="44.4302821" lon="10.4548898"><ele>512.0</ele><time>2026-04-04T08:16:12.102Z</time></trkpt><trkpt lat="44.4301563" lon="10.4550076"><ele>513.0</ele><time>2026-04-04T08:16:13.071Z</time></trkpt><trkpt lat="44.4300476" lon="10.4551137"><ele>514.0</ele><time>2026-04-04T08:16:14.097Z</time></trkpt><trkpt lat="44.4299556" lon="10.4552162"><ele>515.0</ele><time>2026-04-04T08:16:15.09Z</time></trkpt><trkpt lat="44.4298816" lon="10.4553235"><ele>515.0</ele><time>2026-04-04T08:16:16.076Z</time></trkpt><trkpt lat="44.4298265" lon="10.4554523"><ele>515.0</ele><time>2026-04-04T08:16:17.098Z</time></trkpt><trkpt lat="44.4297721" lon="10.4555844"><ele>515.0</ele><time>2026-04-04T08:16:18.091Z</time></trkpt><trkpt lat="44.4297087" lon="10.4557224"><ele>515.0</ele><time>2026-04-04T08:16:19.076Z</time></trkpt><trkpt lat="44.4296387" lon="10.4558521"><ele>515.0</ele><time>2026-04-04T08:16:20.094Z</time></trkpt><trkpt lat="44.4295639" lon="10.4559786"><ele>513.75</ele><time>2026-04-04T08:16:21.105Z</time></trkpt><trkpt lat="44.4294711" lon="10.4560812"><ele>512.5</ele><time>2026-04-04T08:16:22.077Z</time></trkpt><trkpt lat="44.4293496" lon="10.4561269"><ele>511.25</ele><time>2026-04-04T08:16:23.104Z</time></trkpt><trkpt lat="44.4292125" lon="10.4561038"><ele>510.0</ele><time>2026-04-04T08:16:24.09Z</time></trkpt><trkpt lat="44.4290751" lon="10.4560647"><ele>510.0</ele><time>2026-04-04T08:16:25.059Z</time></trkpt><trkpt lat="44.4289406" lon="10.4560411"><ele>510.0</ele><time>2026-04-04T08:16:26.077Z</time></trkpt><trkpt lat="44.4288133" lon="10.4560827"><ele>510.0</ele><time>2026-04-04T08:16:27.082Z</time></trkpt><trkpt lat="44.4286929" lon="10.4562237"><ele>510.0</ele><time>2026-04-04T08:16:28.065Z</time></trkpt><trkpt lat="44.4285879" lon="10.4564765"><ele>507.0</ele><time>2026-04-04T08:16:29.072Z</time></trkpt><trkpt lat="44.4285036" lon="10.4566673"><ele>504.0</ele><time>2026-04-04T08:16:30.067Z</time></trkpt><trkpt lat="44.4284231" lon="10.4568248"><ele>501.0</ele><time>2026-04-04T08:16:31.073Z</time></trkpt><trkpt lat="44.4283288" lon="10.4569474"><ele>498.0</ele><time>2026-04-04T08:16:32.089Z</time></trkpt><trkpt lat="44.4282116" lon="10.4569971"><ele>498.0</ele><time>2026-04-04T08:16:33.104Z</time></trkpt><trkpt lat="44.4280839" lon="10.4570163"><ele>498.0</ele><time>2026-04-04T08:16:34.076Z</time></trkpt><trkpt lat="44.4279463" lon="10.4570296"><ele>498.0</ele><time>2026-04-04T08:16:35.104Z</time></trkpt><trkpt lat="44.4278215" lon="10.4570487"><ele>498.0</ele><time>2026-04-04T08:16:36.088Z</time></trkpt><trkpt lat="44.4276813" lon="10.4570865"><ele>500.33333333333337</ele><time>2026-04-04T08:16:37.084Z</time></trkpt><trkpt lat="44.4275017" lon="10.4571165"><ele>502.6666666666667</ele><time>2026-04-04T08:16:38.094Z</time></trkpt><trkpt lat="44.4272714" lon="10.4571538"><ele>505.0</ele><time>2026-04-04T08:16:39.085Z</time></trkpt><trkpt lat="44.427064" lon="10.4572149"><ele>498.0</ele><time>2026-04-04T08:16:40.094Z</time></trkpt><trkpt lat="44.4268763" lon="10.4572956"><ele>491.0</ele><time>2026-04-04T08:16:41.085Z</time></trkpt><trkpt lat="44.4266874" lon="10.4573811"><ele>484.0</ele><time>2026-04-04T08:16:42.09Z</time></trkpt><trkpt lat="44.4265023" lon="10.4574559"><ele>486.6666666666667</ele><time>2026-04-04T08:16:43.08Z</time></trkpt><trkpt lat="44.4263104" lon="10.4575322"><ele>489.33333333333337</ele><time>2026-04-04T08:16:44.091Z</time></trkpt><trkpt lat="44.4261157" lon="10.4576019"><ele>492.0</ele><time>2026-04-04T08:16:45.084Z</time></trkpt><trkpt lat="44.4259173" lon="10.4576801"><ele>492.0</ele><time>2026-04-04T08:16:46.07Z</time></trkpt><trkpt lat="44.4257291" lon="10.457751"><ele>492.0</ele><time>2026-04-04T08:16:47.083Z</time></trkpt><trkpt lat="44.4255428" lon="10.4578023"><ele>492.0</ele><time>2026-04-04T08:16:48.073Z</time></trkpt><trkpt lat="44.4253574" lon="10.4578259"><ele>492.66666666666663</ele><time>2026-04-04T08:16:49.058Z</time></trkpt><trkpt lat="44.4251786" lon="10.4578354"><ele>493.3333333333333</ele><time>2026-04-04T08:16:50.077Z</time></trkpt><trkpt lat="44.4250064" lon="10.4578723"><ele>494.0</ele><time>2026-04-04T08:16:51.077Z</time></trkpt><trkpt lat="44.4248406" lon="10.4579931"><ele>486.66666666666663</ele><time>2026-04-04T08:16:52.067Z</time></trkpt><trkpt lat="44.4246866" lon="10.4581767"><ele>479.33333333333337</ele><time>2026-04-04T08:16:53.079Z</time></trkpt><trkpt lat="44.4245497" lon="10.4582988"><ele>472.0</ele><time>2026-04-04T08:16:54.076Z</time></trkpt><trkpt lat="44.4243927" lon="10.4583764"><ele>472.0</ele><time>2026-04-04T08:16:55.06Z</time></trkpt><trkpt lat="44.4241787" lon="10.4583668"><ele>472.0</ele><time>2026-04-04T08:16:56.074Z</time></trkpt><trkpt lat="44.4239418" lon="10.4583377"><ele>468.0</ele><time>2026-04-04T08:16:57.072Z</time></trkpt><trkpt lat="44.4236901" lon="10.4583418"><ele>464.0</ele><time>2026-04-04T08:16:58.08Z</time></trkpt><trkpt lat="44.4234416" lon="10.458346"><ele>464.0</ele><time>2026-04-04T08:16:59.086Z</time></trkpt><trkpt lat="44.4232117" lon="10.4583369"><ele>464.0</ele><time>2026-04-04T08:17:00.081Z</time></trkpt><trkpt lat="44.422989" lon="10.4583237"><ele>462.66666666666663</ele><time>2026-04-04T08:17:01.081Z</time></trkpt><trkpt lat="44.4227852" lon="10.4583027"><ele>461.33333333333337</ele><time>2026-04-04T08:17:02.082Z</time></trkpt><trkpt lat="44.4225772" lon="10.4582865"><ele>460.0</ele><time>2026-04-04T08:17:03.08Z</time></trkpt><trkpt lat="44.4223794" lon="10.4582716"><ele>460.0</ele><time>2026-04-04T08:17:04.083Z</time></trkpt><trkpt lat="44.4221987" lon="10.4581893"><ele>460.0</ele><time>2026-04-04T08:17:05.085Z</time></trkpt><trkpt lat="44.4220522" lon="10.4580375"><ele>460.0</ele><time>2026-04-04T08:17:06.068Z</time></trkpt><trkpt lat="44.4219219" lon="10.457863"><ele>458.33333333333337</ele><time>2026-04-04T08:17:07.086Z</time></trkpt><trkpt lat="44.4217784" lon="10.4577081"><ele>456.66666666666663</ele><time>2026-04-04T08:17:08.083Z</time></trkpt><trkpt lat="44.4216232" lon="10.4575879"><ele>455.0</ele><time>2026-04-04T08:17:09.081Z</time></trkpt><trkpt lat="44.4214763" lon="10.4574599"><ele>455.0</ele><time>2026-04-04T08:17:10.067Z</time></trkpt><trkpt lat="44.4213905" lon="10.4572902"><ele>455.0</ele><time>2026-04-04T08:17:11.101Z</time></trkpt><trkpt lat="44.4213359" lon="10.4570952"><ele>455.0</ele><time>2026-04-04T08:17:12.078Z</time></trkpt><trkpt lat="44.4212981" lon="10.456931"><ele>455.0</ele><time>2026-04-04T08:17:13.074Z</time></trkpt><trkpt lat="44.4212297" lon="10.4567963"><ele>453.6</ele><time>2026-04-04T08:17:14.088Z</time></trkpt><trkpt lat="44.4211378" lon="10.4567036"><ele>452.2</ele><time>2026-04-04T08:17:15.081Z</time></trkpt><trkpt lat="44.4210497" lon="10.4566307"><ele>450.79999999999995</ele><time>2026-04-04T08:17:16.071Z</time></trkpt><trkpt lat="44.420959" lon="10.4565651"><ele>449.4</ele><time>2026-04-04T08:17:17.075Z</time></trkpt><trkpt lat="44.4208631" lon="10.4565057"><ele>448.0</ele><time>2026-04-04T08:17:18.073Z</time></trkpt><trkpt lat="44.4207621" lon="10.4564553"><ele>448.0</ele><time>2026-04-04T08:17:19.075Z</time></trkpt><trkpt lat="44.4206576" lon="10.4564265"><ele>447.99999999999994</ele><time>2026-04-04T08:17:20.085Z</time></trkpt><trkpt lat="44.4205533" lon="10.4564427"><ele>447.99999999999994</ele><time>2026-04-04T08:17:21.083Z</time></trkpt><trkpt lat="44.4204557" lon="10.4564879"><ele>448.0</ele><time>2026-04-04T08:17:22.056Z</time></trkpt><trkpt lat="44.4203656" lon="10.4565492"><ele>448.0</ele><time>2026-04-04T08:17:23.168Z</time></trkpt><trkpt lat="44.4202727" lon="10.4566003"><ele>445.0</ele><time>2026-04-04T08:17:24.078Z</time></trkpt><trkpt lat="44.4201809" lon="10.4566474"><ele>441.99999999999994</ele><time>2026-04-04T08:17:25.067Z</time></trkpt><trkpt lat="44.4200917" lon="10.456689"><ele>438.99999999999994</ele><time>2026-04-04T08:17:26.079Z</time></trkpt><trkpt lat="44.4200008" lon="10.4566932"><ele>436.0</ele><time>2026-04-04T08:17:27.086Z</time></trkpt><trkpt lat="44.4199146" lon="10.4566529"><ele>433.0</ele><time>2026-04-04T08:17:28.073Z</time></trkpt><trkpt lat="44.4198296" lon="10.4565645"><ele>433.0</ele><time>2026-04-04T08:17:29.074Z</time></trkpt><trkpt lat="44.4197445" lon="10.4564761"><ele>433.0</ele><time>2026-04-04T08:17:30.084Z</time></trkpt><trkpt lat="44.4196457" lon="10.456405"><ele>433.0</ele><time>2026-04-04T08:17:31.082Z</time></trkpt><trkpt lat="44.4195331" lon="10.4563501"><ele>433.0</ele><time>2026-04-04T08:17:32.094Z</time></trkpt><trkpt lat="44.4194183" lon="10.456304"><ele>432.0</ele><time>2026-04-04T08:17:33.092Z</time></trkpt><trkpt lat="44.4193058" lon="10.4562715"><ele>430.99999999999994</ele><time>2026-04-04T08:17:34.091Z</time></trkpt><trkpt lat="44.4192001" lon="10.4562393"><ele>429.99999999999994</ele><time>2026-04-04T08:17:35.091Z</time></trkpt><trkpt lat="44.4190984" lon="10.4562029"><ele>429.0</ele><time>2026-04-04T08:17:36.093Z</time></trkpt><trkpt lat="44.4190032" lon="10.4561562"><ele>428.0</ele><time>2026-04-04T08:17:37.083Z</time></trkpt><trkpt lat="44.418911" lon="10.4560898"><ele>428.75</ele><time>2026-04-04T08:17:38.092Z</time></trkpt><trkpt lat="44.4188064" lon="10.4560198"><ele>429.5</ele><time>2026-04-04T08:17:39.088Z</time></trkpt><trkpt lat="44.4186972" lon="10.4559529"><ele>430.25</ele><time>2026-04-04T08:17:40.068Z</time></trkpt><trkpt lat="44.4185781" lon="10.455904"><ele>431.0</ele><time>2026-04-04T08:17:41.084Z</time></trkpt><trkpt lat="44.4184496" lon="10.4558694"><ele>431.0</ele><time>2026-04-04T08:17:42.101Z</time></trkpt><trkpt lat="44.4183163" lon="10.4558459"><ele>431.0</ele><time>2026-04-04T08:17:43.077Z</time></trkpt><trkpt lat="44.4181786" lon="10.4558273"><ele>431.0</ele><time>2026-04-04T08:17:44.094Z</time></trkpt><trkpt lat="44.4180506" lon="10.4558168"><ele>431.0</ele><time>2026-04-04T08:17:45.091Z</time></trkpt><trkpt lat="44.4179294" lon="10.4558198"><ele>430.4</ele><time>2026-04-04T08:17:46.076Z</time></trkpt><trkpt lat="44.4178168" lon="10.455831"><ele>429.8</ele><time>2026-04-04T08:17:47.095Z</time></trkpt><trkpt lat="44.4177162" lon="10.4558666"><ele>429.19999999999993</ele><time>2026-04-04T08:17:48.089Z</time></trkpt><trkpt lat="44.4176234" lon="10.4559292"><ele>428.59999999999997</ele><time>2026-04-04T08:17:49.079Z</time></trkpt><trkpt lat="44.4175318" lon="10.4560266"><ele>428.0</ele><time>2026-04-04T08:17:50.098Z</time></trkpt><trkpt lat="44.4174457" lon="10.4561498"><ele>428.0</ele><time>2026-04-04T08:17:51.092Z</time></trkpt><trkpt lat="44.4173628" lon="10.4562796"><ele>428.0</ele><time>2026-04-04T08:17:52.085Z</time></trkpt><trkpt lat="44.41729" lon="10.4564076"><ele>428.0</ele><time>2026-04-04T08:17:53.105Z</time></trkpt><trkpt lat="44.4172204" lon="10.4565364"><ele>428.0</ele><time>2026-04-04T08:17:54.081Z</time></trkpt><trkpt lat="44.4171505" lon="10.4566713"><ele>426.66666666666663</ele><time>2026-04-04T08:17:55.084Z</time></trkpt><trkpt lat="44.4170914" lon="10.4568515"><ele>425.33333333333337</ele><time>2026-04-04T08:17:56.101Z</time></trkpt><trkpt lat="44.417046" lon="10.457078"><ele>424.0</ele><time>2026-04-04T08:17:57.099Z</time></trkpt><trkpt lat="44.4169949" lon="10.4573187"><ele>424.0</ele><time>2026-04-04T08:17:58.083Z</time></trkpt><trkpt lat="44.4169203" lon="10.4575197"><ele>424.0</ele><time>2026-04-04T08:17:59.102Z</time></trkpt><trkpt lat="44.4168308" lon="10.4576841"><ele>424.0</ele><time>2026-04-04T08:18:00.086Z</time></trkpt><trkpt lat="44.4167461" lon="10.4578252"><ele>424.0</ele><time>2026-04-04T08:18:01.081Z</time></trkpt><trkpt lat="44.4166669" lon="10.4579478"><ele>424.25</ele><time>2026-04-04T08:18:02.097Z</time></trkpt><trkpt lat="44.416578" lon="10.4580576"><ele>424.5</ele><time>2026-04-04T08:18:03.092Z</time></trkpt><trkpt lat="44.4164888" lon="10.4581433"><ele>424.75</ele><time>2026-04-04T08:18:04.087Z</time></trkpt><trkpt lat="44.4163841" lon="10.4581907"><ele>425.0</ele><time>2026-04-04T08:18:05.094Z</time></trkpt><trkpt lat="44.4162705" lon="10.458231"><ele>425.0</ele><time>2026-04-04T08:18:06.088Z</time></trkpt><trkpt lat="44.4161533" lon="10.4582386"><ele>425.0</ele><time>2026-04-04T08:18:07.088Z</time></trkpt><trkpt lat="44.4160352" lon="10.4582282"><ele>425.0</ele><time>2026-04-04T08:18:08.09Z</time></trkpt><trkpt lat="44.4159183" lon="10.458215"><ele>425.0</ele><time>2026-04-04T08:18:09.089Z</time></trkpt><trkpt lat="44.415799" lon="10.4582044"><ele>425.0</ele><time>2026-04-04T08:18:10.075Z</time></trkpt><trkpt lat="44.4156776" lon="10.4581998"><ele>425.0</ele><time>2026-04-04T08:18:11.097Z</time></trkpt><trkpt lat="44.4155515" lon="10.4582109"><ele>425.0</ele><time>2026-04-04T08:18:12.093Z</time></trkpt><trkpt lat="44.4154217" lon="10.4582534"><ele>425.0</ele><time>2026-04-04T08:18:13.106Z</time></trkpt><trkpt lat="44.4152971" lon="10.4583529"><ele>425.25</ele><time>2026-04-04T08:18:14.103Z</time></trkpt><trkpt lat="44.4151931" lon="10.4584871"><ele>425.5</ele><time>2026-04-04T08:18:15.086Z</time></trkpt><trkpt lat="44.4151181" lon="10.4586227"><ele>425.75</ele><time>2026-04-04T08:18:16.085Z</time></trkpt><trkpt lat="44.4150423" lon="10.4587555"><ele>426.0</ele><time>2026-04-04T08:18:17.087Z</time></trkpt><trkpt lat="44.4149706" lon="10.4588766"><ele>426.0</ele><time>2026-04-04T08:18:18.081Z</time></trkpt><trkpt lat="44.4148926" lon="10.4589862"><ele>426.0</ele><time>2026-04-04T08:18:19.078Z</time></trkpt><trkpt lat="44.414814" lon="10.4590904"><ele>426.0</ele><time>2026-04-04T08:18:20.09Z</time></trkpt><trkpt lat="44.4147264" lon="10.4591729"><ele>426.0</ele><time>2026-04-04T08:18:21.084Z</time></trkpt><trkpt lat="44.4146325" lon="10.4592302"><ele>426.0</ele><time>2026-04-04T08:18:22.09Z</time></trkpt><trkpt lat="44.4145281" lon="10.4592595"><ele>424.0</ele><time>2026-04-04T08:18:23.096Z</time></trkpt><trkpt lat="44.4144165" lon="10.4592597"><ele>422.0</ele><time>2026-04-04T08:18:24.095Z</time></trkpt><trkpt lat="44.4143105" lon="10.4592638"><ele>420.0</ele><time>2026-04-04T08:18:25.089Z</time></trkpt><trkpt lat="44.4141944" lon="10.4592561"><ele>418.0</ele><time>2026-04-04T08:18:26.09Z</time></trkpt><trkpt lat="44.4140783" lon="10.4592554"><ele>418.0</ele><time>2026-04-04T08:18:27.096Z</time></trkpt><trkpt lat="44.4139556" lon="10.459268"><ele>418.0</ele><time>2026-04-04T08:18:28.085Z</time></trkpt><trkpt lat="44.4138229" lon="10.4593013"><ele>418.0</ele><time>2026-04-04T08:18:29.098Z</time></trkpt><trkpt lat="44.4136944" lon="10.4593481"><ele>418.0</ele><time>2026-04-04T08:18:30.088Z</time></trkpt><trkpt lat="44.4135753" lon="10.4593975"><ele>418.0</ele><time>2026-04-04T08:18:31.085Z</time></trkpt><trkpt lat="44.4134576" lon="10.459448"><ele>418.0</ele><time>2026-04-04T08:18:32.091Z</time></trkpt><trkpt lat="44.4133469" lon="10.4595057"><ele>418.0</ele><time>2026-04-04T08:18:33.09Z</time></trkpt><trkpt lat="44.4132484" lon="10.4595889"><ele>418.0</ele><time>2026-04-04T08:18:34.093Z</time></trkpt><trkpt lat="44.4131697" lon="10.4597228"><ele>418.0</ele><time>2026-04-04T08:18:35.086Z</time></trkpt><trkpt lat="44.4131009" lon="10.4598955"><ele>418.0</ele><time>2026-04-04T08:18:36.094Z</time></trkpt><trkpt lat="44.4130237" lon="10.46005"><ele>418.0</ele><time>2026-04-04T08:18:37.079Z</time></trkpt><trkpt lat="44.4129312" lon="10.4601785"><ele>418.0</ele><time>2026-04-04T08:18:38.091Z</time></trkpt><trkpt lat="44.412827" lon="10.4602946"><ele>418.25</ele><time>2026-04-04T08:18:39.082Z</time></trkpt><trkpt lat="44.4127202" lon="10.4604011"><ele>418.5</ele><time>2026-04-04T08:18:40.08Z</time></trkpt><trkpt lat="44.4126138" lon="10.4604948"><ele>418.75</ele><time>2026-04-04T08:18:41.091Z</time></trkpt><trkpt lat="44.4125051" lon="10.4605843"><ele>419.0</ele><time>2026-04-04T08:18:42.086Z</time></trkpt><trkpt lat="44.4123963" lon="10.4606653"><ele>419.0</ele><time>2026-04-04T08:18:43.078Z</time></trkpt><trkpt lat="44.4122884" lon="10.4607411"><ele>419.0</ele><time>2026-04-04T08:18:44.123Z</time></trkpt><trkpt lat="44.4121776" lon="10.4608207"><ele>419.0</ele><time>2026-04-04T08:18:45.085Z</time></trkpt><trkpt lat="44.4120673" lon="10.460907"><ele>419.0</ele><time>2026-04-04T08:18:46.085Z</time></trkpt><trkpt lat="44.4119481" lon="10.4609976"><ele>417.0</ele><time>2026-04-04T08:18:47.092Z</time></trkpt><trkpt lat="44.4118317" lon="10.4610978"><ele>415.0</ele><time>2026-04-04T08:18:48.087Z</time></trkpt><trkpt lat="44.4117223" lon="10.4612134"><ele>413.0</ele><time>2026-04-04T08:18:49.09Z</time></trkpt><trkpt lat="44.4116269" lon="10.4613498"><ele>411.0</ele><time>2026-04-04T08:18:50.085Z</time></trkpt><trkpt lat="44.4115417" lon="10.4615003"><ele>411.0</ele><time>2026-04-04T08:18:51.097Z</time></trkpt><trkpt lat="44.4114646" lon="10.4616495"><ele>411.0</ele><time>2026-04-04T08:18:52.083Z</time></trkpt><trkpt lat="44.4113866" lon="10.4617841"><ele>411.0</ele><time>2026-04-04T08:18:53.101Z</time></trkpt><trkpt lat="44.4112986" lon="10.4619053"><ele>411.0</ele><time>2026-04-04T08:18:54.09Z</time></trkpt><trkpt lat="44.4112047" lon="10.4620059"><ele>411.0</ele><time>2026-04-04T08:18:55.079Z</time></trkpt><trkpt lat="44.4110996" lon="10.4620865"><ele>411.0</ele><time>2026-04-04T08:18:56.08Z</time></trkpt><trkpt lat="44.4109956" lon="10.4621546"><ele>411.0</ele><time>2026-04-04T08:18:57.093Z</time></trkpt><trkpt lat="44.4108912" lon="10.4622243"><ele>411.0</ele><time>2026-04-04T08:18:58.089Z</time></trkpt><trkpt lat="44.4107898" lon="10.4622908"><ele>412.4</ele><time>2026-04-04T08:18:59.092Z</time></trkpt><trkpt lat="44.4106998" lon="10.46238"><ele>413.8</ele><time>2026-04-04T08:19:00.098Z</time></trkpt><trkpt lat="44.410626" lon="10.4624987"><ele>415.2</ele><time>2026-04-04T08:19:01.081Z</time></trkpt><trkpt lat="44.4105681" lon="10.4626326"><ele>416.59999999999997</ele><time>2026-04-04T08:19:02.083Z</time></trkpt><trkpt lat="44.4105093" lon="10.4627695"><ele>418.0</ele><time>2026-04-04T08:19:03.101Z</time></trkpt><trkpt lat="44.410441" lon="10.4628991"><ele>415.0</ele><time>2026-04-04T08:19:04.092Z</time></trkpt><trkpt lat="44.4103708" lon="10.4630332"><ele>412.0</ele><time>2026-04-04T08:19:05.103Z</time></trkpt><trkpt lat="44.4102966" lon="10.4631624"><ele>409.0</ele><time>2026-04-04T08:19:06.099Z</time></trkpt><trkpt lat="44.4102211" lon="10.4632816"><ele>406.0</ele><time>2026-04-04T08:19:07.094Z</time></trkpt><trkpt lat="44.4101263" lon="10.4633922"><ele>406.0</ele><time>2026-04-04T08:19:08.084Z</time></trkpt><trkpt lat="44.4100229" lon="10.4634931"><ele>406.0</ele><time>2026-04-04T08:19:09.095Z</time></trkpt><trkpt lat="44.4099101" lon="10.4635898"><ele>406.0</ele><time>2026-04-04T08:19:10.082Z</time></trkpt><trkpt lat="44.409788" lon="10.4636715"><ele>406.0</ele><time>2026-04-04T08:19:11.102Z</time></trkpt><trkpt lat="44.409666" lon="10.4637485"><ele>404.5</ele><time>2026-04-04T08:19:12.096Z</time></trkpt><trkpt lat="44.4095541" lon="10.4638223"><ele>403.0</ele><time>2026-04-04T08:19:13.081Z</time></trkpt><trkpt lat="44.409444" lon="10.4638915"><ele>401.5</ele><time>2026-04-04T08:19:14.115Z</time></trkpt><trkpt lat="44.4093323" lon="10.4639523"><ele>400.0</ele><time>2026-04-04T08:19:15.095Z</time></trkpt><trkpt lat="44.4092177" lon="10.4640031"><ele>400.0</ele><time>2026-04-04T08:19:16.077Z</time></trkpt><trkpt lat="44.4090902" lon="10.464027"><ele>400.0</ele><time>2026-04-04T08:19:17.09Z</time></trkpt><trkpt lat="44.408963" lon="10.4640324"><ele>400.0</ele><time>2026-04-04T08:19:18.086Z</time></trkpt><trkpt lat="44.4088385" lon="10.4640497"><ele>400.0</ele><time>2026-04-04T08:19:19.075Z</time></trkpt><trkpt lat="44.4087135" lon="10.4640982"><ele>401.5</ele><time>2026-04-04T08:19:20.089Z</time></trkpt><trkpt lat="44.4086079" lon="10.4641867"><ele>403.0</ele><time>2026-04-04T08:19:21.09Z</time></trkpt><trkpt lat="44.408503" lon="10.464296"><ele>404.5</ele><time>2026-04-04T08:19:22.062Z</time></trkpt><trkpt lat="44.4084027" lon="10.4644244"><ele>406.0</ele><time>2026-04-04T08:19:23.094Z</time></trkpt><trkpt lat="44.4083074" lon="10.4645499"><ele>406.0</ele><time>2026-04-04T08:19:24.085Z</time></trkpt><trkpt lat="44.4082117" lon="10.4646711"><ele>406.0</ele><time>2026-04-04T08:19:25.081Z</time></trkpt><trkpt lat="44.4081209" lon="10.4647889"><ele>406.0</ele><time>2026-04-04T08:19:26.09Z</time></trkpt><trkpt lat="44.4080307" lon="10.4649093"><ele>406.0</ele><time>2026-04-04T08:19:27.096Z</time></trkpt><trkpt lat="44.4079398" lon="10.4650297"><ele>406.0</ele><time>2026-04-04T08:19:28.091Z</time></trkpt><trkpt lat="44.4078491" lon="10.4651449"><ele>406.0</ele><time>2026-04-04T08:19:29.115Z</time></trkpt><trkpt lat="44.4077537" lon="10.4652488"><ele>406.0</ele><time>2026-04-04T08:19:30.094Z</time></trkpt><trkpt lat="44.4076604" lon="10.4653489"><ele>406.0</ele><time>2026-04-04T08:19:31.094Z</time></trkpt><trkpt lat="44.4075667" lon="10.4654456"><ele>405.0</ele><time>2026-04-04T08:19:32.099Z</time></trkpt><trkpt lat="44.407474" lon="10.4655263"><ele>404.0</ele><time>2026-04-04T08:19:33.095Z</time></trkpt><trkpt lat="44.4073874" lon="10.465601"><ele>403.0</ele><time>2026-04-04T08:19:34.088Z</time></trkpt><trkpt lat="44.4073024" lon="10.4656587"><ele>402.0</ele><time>2026-04-04T08:19:35.102Z</time></trkpt><trkpt lat="44.4072107" lon="10.4656945"><ele>401.0</ele><time>2026-04-04T08:19:36.098Z</time></trkpt><trkpt lat="44.4071201" lon="10.4657204"><ele>401.0</ele><time>2026-04-04T08:19:37.086Z</time></trkpt><trkpt lat="44.4070195" lon="10.4657328"><ele>401.0</ele><time>2026-04-04T08:19:38.082Z</time></trkpt><trkpt lat="44.4069223" lon="10.4657426"><ele>401.0</ele><time>2026-04-04T08:19:39.091Z</time></trkpt><trkpt lat="44.4068275" lon="10.4657554"><ele>401.0</ele><time>2026-04-04T08:19:40.08Z</time></trkpt><trkpt lat="44.4067233" lon="10.4657842"><ele>401.0</ele><time>2026-04-04T08:19:41.081Z</time></trkpt><trkpt lat="44.4066111" lon="10.4658283"><ele>401.0</ele><time>2026-04-04T08:19:42.084Z</time></trkpt><trkpt lat="44.4064949" lon="10.4658804"><ele>401.0</ele><time>2026-04-04T08:19:43.076Z</time></trkpt><trkpt lat="44.4063686" lon="10.4659342"><ele>401.0</ele><time>2026-04-04T08:19:44.089Z</time></trkpt><trkpt lat="44.4062316" lon="10.465995"><ele>401.0</ele><time>2026-04-04T08:19:45.098Z</time></trkpt><trkpt lat="44.4060906" lon="10.4660658"><ele>402.3333333333333</ele><time>2026-04-04T08:19:46.078Z</time></trkpt><trkpt lat="44.4059316" lon="10.4661666"><ele>403.66666666666663</ele><time>2026-04-04T08:19:47.106Z</time></trkpt><trkpt lat="44.4057552" lon="10.4662895"><ele>405.0</ele><time>2026-04-04T08:19:48.099Z</time></trkpt><trkpt lat="44.4055943" lon="10.4663881"><ele>401.0</ele><time>2026-04-04T08:19:49.084Z</time></trkpt><trkpt lat="44.4054464" lon="10.4664495"><ele>397.0</ele><time>2026-04-04T08:19:50.108Z</time></trkpt><trkpt lat="44.4053125" lon="10.4664993"><ele>393.0</ele><time>2026-04-04T08:19:51.1Z</time></trkpt><trkpt lat="44.4051802" lon="10.4665125"><ele>389.0</ele><time>2026-04-04T08:19:52.088Z</time></trkpt><trkpt lat="44.4050436" lon="10.4664676"><ele>389.0</ele><time>2026-04-04T08:19:53.102Z</time></trkpt><trkpt lat="44.4049042" lon="10.4663684"><ele>389.0</ele><time>2026-04-04T08:19:54.1Z</time></trkpt><trkpt lat="44.4047931" lon="10.4662415"><ele>389.0</ele><time>2026-04-04T08:19:55.082Z</time></trkpt><trkpt lat="44.4046797" lon="10.466104"><ele>391.0</ele><time>2026-04-04T08:19:56.099Z</time></trkpt><trkpt lat="44.4045527" lon="10.4659561"><ele>393.0</ele><time>2026-04-04T08:19:57.096Z</time></trkpt><trkpt lat="44.4044256" lon="10.4658362"><ele>395.0</ele><time>2026-04-04T08:19:58.067Z</time></trkpt><trkpt lat="44.4043048" lon="10.4657235"><ele>395.0</ele><time>2026-04-04T08:19:59.085Z</time></trkpt><trkpt lat="44.4041896" lon="10.4656322"><ele>395.0</ele><time>2026-04-04T08:20:00.072Z</time></trkpt><trkpt lat="44.404069" lon="10.4655773"><ele>395.0</ele><time>2026-04-04T08:20:01.058Z</time></trkpt><trkpt lat="44.4039361" lon="10.4655737"><ele>395.0</ele><time>2026-04-04T08:20:02.066Z</time></trkpt><trkpt lat="44.4037879" lon="10.465582"><ele>392.25</ele><time>2026-04-04T08:20:03.078Z</time></trkpt><trkpt lat="44.403643" lon="10.4655871"><ele>389.5</ele><time>2026-04-04T08:20:04.085Z</time></trkpt><trkpt lat="44.4035057" lon="10.4656002"><ele>386.75</ele><time>2026-04-04T08:20:05.083Z</time></trkpt><trkpt lat="44.4033859" lon="10.4656389"><ele>384.0</ele><time>2026-04-04T08:20:06.1Z</time></trkpt><trkpt lat="44.4032734" lon="10.465741"><ele>384.0</ele><time>2026-04-04T08:20:07.072Z</time></trkpt><trkpt lat="44.4031596" lon="10.4658532"><ele>384.0</ele><time>2026-04-04T08:20:08.091Z</time></trkpt><trkpt lat="44.4030242" lon="10.4660098"><ele>384.0</ele><time>2026-04-04T08:20:09.1Z</time></trkpt><trkpt lat="44.4028711" lon="10.466167"><ele>384.0</ele><time>2026-04-04T08:20:10.088Z</time></trkpt><trkpt lat="44.4027179" lon="10.4662982"><ele>384.0</ele><time>2026-04-04T08:20:11.099Z</time></trkpt><trkpt lat="44.4025648" lon="10.466423"><ele>384.0</ele><time>2026-04-04T08:20:12.09Z</time></trkpt><trkpt lat="44.4024184" lon="10.4665674"><ele>384.0</ele><time>2026-04-04T08:20:13.095Z</time></trkpt><trkpt lat="44.4022662" lon="10.4667231"><ele>384.0</ele><time>2026-04-04T08:20:14.105Z</time></trkpt><trkpt lat="44.4021144" lon="10.4668497"><ele>384.0</ele><time>2026-04-04T08:20:15.106Z</time></trkpt><trkpt lat="44.4019757" lon="10.4669635"><ele>386.25</ele><time>2026-04-04T08:20:16.106Z</time></trkpt><trkpt lat="44.4018537" lon="10.4670685"><ele>388.5</ele><time>2026-04-04T08:20:17.093Z</time></trkpt><trkpt lat="44.401764" lon="10.4672045"><ele>390.75</ele><time>2026-04-04T08:20:18.105Z</time></trkpt><trkpt lat="44.4017031" lon="10.4673749"><ele>393.0</ele><time>2026-04-04T08:20:19.093Z</time></trkpt><trkpt lat="44.4016866" lon="10.4675655"><ele>394.5</ele><time>2026-04-04T08:20:20.094Z</time></trkpt><trkpt lat="44.4016888" lon="10.467737"><ele>396.0</ele><time>2026-04-04T08:20:21.097Z</time></trkpt><trkpt lat="44.4017152" lon="10.4679029"><ele>397.5</ele><time>2026-04-04T08:20:22.076Z</time></trkpt><trkpt lat="44.4017562" lon="10.4680502"><ele>399.0</ele><time>2026-04-04T08:20:23.107Z</time></trkpt><trkpt lat="44.4017852" lon="10.4681905"><ele>398.75</ele><time>2026-04-04T08:20:24.089Z</time></trkpt><trkpt lat="44.4018" lon="10.4683336"><ele>398.5</ele><time>2026-04-04T08:20:25.082Z</time></trkpt><trkpt lat="44.4017993" lon="10.4684926"><ele>398.25</ele><time>2026-04-04T08:20:26.091Z</time></trkpt><trkpt lat="44.4017832" lon="10.4686535"><ele>398.0</ele><time>2026-04-04T08:20:27.099Z</time></trkpt><trkpt lat="44.4017533" lon="10.4688122"><ele>398.0</ele><time>2026-04-04T08:20:28.088Z</time></trkpt><trkpt lat="44.4017015" lon="10.4689647"><ele>398.0</ele><time>2026-04-04T08:20:29.098Z</time></trkpt><trkpt lat="44.4016431" lon="10.4691226"><ele>398.0</ele><time>2026-04-04T08:20:30.099Z</time></trkpt><trkpt lat="44.4015823" lon="10.4692778"><ele>398.0</ele><time>2026-04-04T08:20:31.091Z</time></trkpt><trkpt lat="44.4015108" lon="10.4694283"><ele>398.0</ele><time>2026-04-04T08:20:32.105Z</time></trkpt><trkpt lat="44.4014462" lon="10.4695771"><ele>398.0</ele><time>2026-04-04T08:20:33.095Z</time></trkpt><trkpt lat="44.4013914" lon="10.4697091"><ele>398.0</ele><time>2026-04-04T08:20:34.083Z</time></trkpt><trkpt lat="44.401345" lon="10.469821"><ele>398.0</ele><time>2026-04-04T08:20:35.104Z</time></trkpt><trkpt lat="44.4013039" lon="10.4699262"><ele>398.0</ele><time>2026-04-04T08:20:36.1Z</time></trkpt><trkpt lat="44.4012543" lon="10.4700195"><ele>398.99999999999994</ele><time>2026-04-04T08:20:37.087Z</time></trkpt><trkpt lat="44.4011993" lon="10.4701044"><ele>400.0</ele><time>2026-04-04T08:20:38.1Z</time></trkpt><trkpt lat="44.4011359" lon="10.4701764"><ele>401.0</ele><time>2026-04-04T08:20:39.105Z</time></trkpt><trkpt lat="44.4010578" lon="10.4702233"><ele>402.0</ele><time>2026-04-04T08:20:40.099Z</time></trkpt><trkpt lat="44.4009728" lon="10.4702263"><ele>402.99999999999994</ele><time>2026-04-04T08:20:41.105Z</time></trkpt><trkpt lat="44.4008893" lon="10.4702187"><ele>404.0</ele><time>2026-04-04T08:20:42.093Z</time></trkpt><trkpt lat="44.4007874" lon="10.4701956"><ele>404.0</ele><time>2026-04-04T08:20:43.088Z</time></trkpt><trkpt lat="44.4006665" lon="10.4701605"><ele>404.0</ele><time>2026-04-04T08:20:44.096Z</time></trkpt><trkpt lat="44.4005378" lon="10.4701264"><ele>404.0</ele><time>2026-04-04T08:20:45.09Z</time></trkpt><trkpt lat="44.4004157" lon="10.4700875"><ele>404.0</ele><time>2026-04-04T08:20:46.074Z</time></trkpt><trkpt lat="44.4003064" lon="10.4700452"><ele>402.75</ele><time>2026-04-04T08:20:47.105Z</time></trkpt><trkpt lat="44.4002077" lon="10.4699871"><ele>401.5</ele><time>2026-04-04T08:20:48.077Z</time></trkpt><trkpt lat="44.4001141" lon="10.4699016"><ele>400.25</ele><time>2026-04-04T08:20:49.075Z</time></trkpt><trkpt lat="44.4000287" lon="10.4697804"><ele>399.0</ele><time>2026-04-04T08:20:50.082Z</time></trkpt><trkpt lat="44.3999453" lon="10.4696487"><ele>404.25</ele><time>2026-04-04T08:20:51.08Z</time></trkpt><trkpt lat="44.399864" lon="10.4695124"><ele>409.5</ele><time>2026-04-04T08:20:52.077Z</time></trkpt><trkpt lat="44.3997808" lon="10.4693894"><ele>414.75</ele><time>2026-04-04T08:20:53.078Z</time></trkpt><trkpt lat="44.3996902" lon="10.4692888"><ele>420.0</ele><time>2026-04-04T08:20:54.069Z</time></trkpt><trkpt lat="44.3995759" lon="10.4692251"><ele>420.0</ele><time>2026-04-04T08:20:55.073Z</time></trkpt><trkpt lat="44.3994368" lon="10.4692157"><ele>420.0</ele><time>2026-04-04T08:20:56.07Z</time></trkpt><trkpt lat="44.3992654" lon="10.4692518"><ele>420.0</ele><time>2026-04-04T08:20:57.073Z</time></trkpt><trkpt lat="44.3990476" lon="10.4692922"><ele>420.66666666666663</ele><time>2026-04-04T08:20:58.066Z</time></trkpt><trkpt lat="44.3988185" lon="10.4692935"><ele>421.3333333333333</ele><time>2026-04-04T08:20:59.095Z</time></trkpt><trkpt lat="44.3986326" lon="10.4692975"><ele>422.0</ele><time>2026-04-04T08:21:00.069Z</time></trkpt><trkpt lat="44.3984778" lon="10.4693007"><ele>422.0</ele><time>2026-04-04T08:21:01.078Z</time></trkpt><trkpt lat="44.3983374" lon="10.4692638"><ele>422.0</ele><time>2026-04-04T08:21:02.077Z</time></trkpt><trkpt lat="44.3982056" lon="10.4691651"><ele>422.0</ele><time>2026-04-04T08:21:03.073Z</time></trkpt><trkpt lat="44.3980774" lon="10.4689936"><ele>418.66666666666663</ele><time>2026-04-04T08:21:04.081Z</time></trkpt><trkpt lat="44.3979562" lon="10.4687819"><ele>415.33333333333337</ele><time>2026-04-04T08:21:05.07Z</time></trkpt><trkpt lat="44.3978357" lon="10.4685716"><ele>412.0</ele><time>2026-04-04T08:21:06.078Z</time></trkpt><trkpt lat="44.3977095" lon="10.4683661"><ele>419.6666666666667</ele><time>2026-04-04T08:21:07.071Z</time></trkpt><trkpt lat="44.3976037" lon="10.468185"><ele>427.33333333333337</ele><time>2026-04-04T08:21:08.077Z</time></trkpt><trkpt lat="44.3974947" lon="10.4680431"><ele>435.0</ele><time>2026-04-04T08:21:09.057Z</time></trkpt><trkpt lat="44.3973561" lon="10.4679904"><ele>435.0</ele><time>2026-04-04T08:21:10.079Z</time></trkpt><trkpt lat="44.3972193" lon="10.4679843"><ele>435.0</ele><time>2026-04-04T08:21:11.072Z</time></trkpt><trkpt lat="44.3970739" lon="10.4680767"><ele>435.0</ele><time>2026-04-04T08:21:12.068Z</time></trkpt><trkpt lat="44.396944" lon="10.4682178"><ele>435.75</ele><time>2026-04-04T08:21:13.067Z</time></trkpt><trkpt lat="44.3968206" lon="10.4683119"><ele>436.5</ele><time>2026-04-04T08:21:14.084Z</time></trkpt><trkpt lat="44.3967102" lon="10.4683192"><ele>437.25</ele><time>2026-04-04T08:21:15.074Z</time></trkpt><trkpt lat="44.3965742" lon="10.4682102"><ele>438.0</ele><time>2026-04-04T08:21:16.083Z</time></trkpt><trkpt lat="44.3964109" lon="10.4680878"><ele>439.33333333333337</ele><time>2026-04-04T08:21:17.069Z</time></trkpt><trkpt lat="44.3962068" lon="10.468011"><ele>440.6666666666667</ele><time>2026-04-04T08:21:18.064Z</time></trkpt><trkpt lat="44.3959892" lon="10.4679621"><ele>442.0</ele><time>2026-04-04T08:21:19.057Z</time></trkpt><trkpt lat="44.3957957" lon="10.4679297"><ele>445.6666666666667</ele><time>2026-04-04T08:21:20.063Z</time></trkpt><trkpt lat="44.395622" lon="10.4679264"><ele>449.33333333333337</ele><time>2026-04-04T08:21:21.056Z</time></trkpt><trkpt lat="44.3954798" lon="10.4680126"><ele>453.0</ele><time>2026-04-04T08:21:22.072Z</time></trkpt><trkpt lat="44.3953283" lon="10.468176"><ele>453.0</ele><time>2026-04-04T08:21:23.072Z</time></trkpt><trkpt lat="44.3951306" lon="10.4683319"><ele>453.0</ele><time>2026-04-04T08:21:24.076Z</time></trkpt><trkpt lat="44.3949045" lon="10.4684476"><ele>453.0</ele><time>2026-04-04T08:21:25.075Z</time></trkpt><trkpt lat="44.3946907" lon="10.4685712"><ele>453.0</ele><time>2026-04-04T08:21:26.102Z</time></trkpt><trkpt lat="44.3945437" lon="10.4686776"><ele>453.0</ele><time>2026-04-04T08:21:27.091Z</time></trkpt><trkpt lat="44.394431" lon="10.4687333"><ele>452.75</ele><time>2026-04-04T08:21:28.114Z</time></trkpt><trkpt lat="44.3943273" lon="10.4687363"><ele>452.5</ele><time>2026-04-04T08:21:29.108Z</time></trkpt><trkpt lat="44.3942577" lon="10.4686225"><ele>452.25</ele><time>2026-04-04T08:21:30.087Z</time></trkpt><trkpt lat="44.3941947" lon="10.4684356"><ele>452.0</ele><time>2026-04-04T08:21:31.105Z</time></trkpt><trkpt lat="44.3941207" lon="10.4682224"><ele>452.0</ele><time>2026-04-04T08:21:32.086Z</time></trkpt><trkpt lat="44.3940426" lon="10.4679894"><ele>452.0</ele><time>2026-04-04T08:21:33.078Z</time></trkpt><trkpt lat="44.3939484" lon="10.467733"><ele>452.0</ele><time>2026-04-04T08:21:34.084Z</time></trkpt><trkpt lat="44.3938526" lon="10.4674734"><ele>456.66666666666663</ele><time>2026-04-04T08:21:35.086Z</time></trkpt><trkpt lat="44.3937696" lon="10.4672288"><ele>461.33333333333337</ele><time>2026-04-04T08:21:36.064Z</time></trkpt><trkpt lat="44.3936963" lon="10.4670208"><ele>466.0</ele><time>2026-04-04T08:21:37.066Z</time></trkpt><trkpt lat="44.3936033" lon="10.466845"><ele>471.33333333333337</ele><time>2026-04-04T08:21:38.069Z</time></trkpt><trkpt lat="44.39348" lon="10.466763"><ele>476.66666666666663</ele><time>2026-04-04T08:21:39.061Z</time></trkpt><trkpt lat="44.3933208" lon="10.4667709"><ele>482.0</ele><time>2026-04-04T08:21:40.071Z</time></trkpt><trkpt lat="44.3931872" lon="10.4668869"><ele>482.0</ele><time>2026-04-04T08:21:41.068Z</time></trkpt><trkpt lat="44.3930206" lon="10.4670579"><ele>482.0</ele><time>2026-04-04T08:21:42.063Z</time></trkpt><trkpt lat="44.3928358" lon="10.4672467"><ele>482.0</ele><time>2026-04-04T08:21:43.068Z</time></trkpt><trkpt lat="44.3926328" lon="10.4674145"><ele>480.3333333333333</ele><time>2026-04-04T08:21:44.077Z</time></trkpt><trkpt lat="44.392459" lon="10.4675942"><ele>478.66666666666663</ele><time>2026-04-04T08:21:45.074Z</time></trkpt><trkpt lat="44.3923571" lon="10.4677671"><ele>477.0</ele><time>2026-04-04T08:21:46.104Z</time></trkpt><trkpt lat="44.3922619" lon="10.4678865"><ele>477.0</ele><time>2026-04-04T08:21:47.085Z</time></trkpt><trkpt lat="44.392184" lon="10.4679605"><ele>477.00000000000006</ele><time>2026-04-04T08:21:48.092Z</time></trkpt><trkpt lat="44.3920948" lon="10.4679387"><ele>477.00000000000006</ele><time>2026-04-04T08:21:49.113Z</time></trkpt><trkpt lat="44.392053" lon="10.4678162"><ele>477.0</ele><time>2026-04-04T08:21:50.109Z</time></trkpt><trkpt lat="44.3920908" lon="10.4676721"><ele>477.0</ele><time>2026-04-04T08:21:51.096Z</time></trkpt><trkpt lat="44.3921821" lon="10.4675166"><ele>477.0</ele><time>2026-04-04T08:21:52.096Z</time></trkpt><trkpt lat="44.3922986" lon="10.4673225"><ele>477.0</ele><time>2026-04-04T08:21:53.106Z</time></trkpt><trkpt lat="44.3924564" lon="10.4670888"><ele>477.0</ele><time>2026-04-04T08:21:54.095Z</time></trkpt><trkpt lat="44.3925739" lon="10.4668336"><ele>480.33333333333337</ele><time>2026-04-04T08:21:55.096Z</time></trkpt><trkpt lat="44.3927086" lon="10.4665895"><ele>483.6666666666667</ele><time>2026-04-04T08:21:56.095Z</time></trkpt><trkpt lat="44.3928374" lon="10.4664085"><ele>487.0</ele><time>2026-04-04T08:21:57.094Z</time></trkpt><trkpt lat="44.3929357" lon="10.4663061"><ele>489.6</ele><time>2026-04-04T08:21:58.096Z</time></trkpt><trkpt lat="44.3929604" lon="10.4661772"><ele>492.20000000000005</ele><time>2026-04-04T08:21:59.089Z</time></trkpt><trkpt lat="44.3929313" lon="10.4660482"><ele>494.8</ele><time>2026-04-04T08:22:00.083Z</time></trkpt><trkpt lat="44.3928257" lon="10.4659445"><ele>497.4</ele><time>2026-04-04T08:22:01.088Z</time></trkpt><trkpt lat="44.3927417" lon="10.4658768"><ele>500.0</ele><time>2026-04-04T08:22:02.067Z</time></trkpt><trkpt lat="44.3925863" lon="10.4659534"><ele>500.0</ele><time>2026-04-04T08:22:03.069Z</time></trkpt><trkpt lat="44.3924041" lon="10.4661333"><ele>500.0</ele><time>2026-04-04T08:22:04.068Z</time></trkpt><trkpt lat="44.3922708" lon="10.4663165"><ele>500.0</ele><time>2026-04-04T08:22:05.076Z</time></trkpt><trkpt lat="44.3921711" lon="10.4664315"><ele>499.0</ele><time>2026-04-04T08:22:06.069Z</time></trkpt><trkpt lat="44.3920775" lon="10.466543"><ele>498.0</ele><time>2026-04-04T08:22:07.088Z</time></trkpt><trkpt lat="44.3919891" lon="10.4666375"><ele>497.0</ele><time>2026-04-04T08:22:08.088Z</time></trkpt><trkpt lat="44.391913" lon="10.466719"><ele>496.0</ele><time>2026-04-04T08:22:09.085Z</time></trkpt><trkpt lat="44.391836" lon="10.4667802"><ele>495.0</ele><time>2026-04-04T08:22:10.1Z</time></trkpt><trkpt lat="44.3917429" lon="10.466798"><ele>495.0</ele><time>2026-04-04T08:22:11.112Z</time></trkpt><trkpt lat="44.3916357" lon="10.4667427"><ele>495.0</ele><time>2026-04-04T08:22:12.086Z</time></trkpt><trkpt lat="44.391541" lon="10.4666579"><ele>495.0</ele><time>2026-04-04T08:22:13.104Z</time></trkpt><trkpt lat="44.3914361" lon="10.4665698"><ele>495.0</ele><time>2026-04-04T08:22:14.102Z</time></trkpt><trkpt lat="44.3913249" lon="10.4664844"><ele>495.25</ele><time>2026-04-04T08:22:15.08Z</time></trkpt><trkpt lat="44.3912074" lon="10.4664019"><ele>495.5</ele><time>2026-04-04T08:22:16.098Z</time></trkpt><trkpt lat="44.3910966" lon="10.4663207"><ele>495.75</ele><time>2026-04-04T08:22:17.105Z</time></trkpt><trkpt lat="44.3909846" lon="10.4662393"><ele>496.0</ele><time>2026-04-04T08:22:18.087Z</time></trkpt><trkpt lat="44.3908779" lon="10.4661647"><ele>498.0</ele><time>2026-04-04T08:22:19.104Z</time></trkpt><trkpt lat="44.3907617" lon="10.4661005"><ele>500.0</ele><time>2026-04-04T08:22:20.12Z</time></trkpt><trkpt lat="44.3906296" lon="10.4660806"><ele>502.0</ele><time>2026-04-04T08:22:21.091Z</time></trkpt><trkpt lat="44.3904996" lon="10.46613"><ele>504.0</ele><time>2026-04-04T08:22:22.112Z</time></trkpt><trkpt lat="44.3903793" lon="10.4662356"><ele>503.75</ele><time>2026-04-04T08:22:23.106Z</time></trkpt><trkpt lat="44.3902681" lon="10.4663294"><ele>503.5</ele><time>2026-04-04T08:22:24.091Z</time></trkpt><trkpt lat="44.3901703" lon="10.466402"><ele>503.25</ele><time>2026-04-04T08:22:25.105Z</time></trkpt><trkpt lat="44.3900737" lon="10.466466"><ele>503.0</ele><time>2026-04-04T08:22:26.091Z</time></trkpt><trkpt lat="44.3899776" lon="10.4665325"><ele>503.0</ele><time>2026-04-04T08:22:27.088Z</time></trkpt><trkpt lat="44.3898853" lon="10.4665992"><ele>502.99999999999994</ele><time>2026-04-04T08:22:28.103Z</time></trkpt><trkpt lat="44.3897974" lon="10.4666683"><ele>502.99999999999994</ele><time>2026-04-04T08:22:29.109Z</time></trkpt><trkpt lat="44.3897121" lon="10.4667332"><ele>503.0</ele><time>2026-04-04T08:22:30.101Z</time></trkpt><trkpt lat="44.3896233" lon="10.4667994"><ele>503.0</ele><time>2026-04-04T08:22:31.1Z</time></trkpt><trkpt lat="44.3895343" lon="10.4668645"><ele>504.59999999999997</ele><time>2026-04-04T08:22:32.106Z</time></trkpt><trkpt lat="44.3894421" lon="10.4669251"><ele>506.19999999999993</ele><time>2026-04-04T08:22:33.092Z</time></trkpt><trkpt lat="44.3893484" lon="10.4669823"><ele>507.8</ele><time>2026-04-04T08:22:34.106Z</time></trkpt><trkpt lat="44.3892523" lon="10.4670322"><ele>509.4</ele><time>2026-04-04T08:22:35.107Z</time></trkpt><trkpt lat="44.3891555" lon="10.4670699"><ele>511.0</ele><time>2026-04-04T08:22:36.104Z</time></trkpt><trkpt lat="44.3890518" lon="10.4670692"><ele>511.0</ele><time>2026-04-04T08:22:37.106Z</time></trkpt><trkpt lat="44.3889484" lon="10.4670118"><ele>511.0</ele><time>2026-04-04T08:22:38.11Z</time></trkpt><trkpt lat="44.3888543" lon="10.4669614"><ele>511.0</ele><time>2026-04-04T08:22:39.101Z</time></trkpt><trkpt lat="44.3887616" lon="10.4668934"><ele>511.0</ele><time>2026-04-04T08:22:40.109Z</time></trkpt><trkpt lat="44.3886844" lon="10.4667865"><ele>511.0</ele><time>2026-04-04T08:22:41.11Z</time></trkpt><trkpt lat="44.3886482" lon="10.4666507"><ele>511.0</ele><time>2026-04-04T08:22:42.083Z</time></trkpt><trkpt lat="44.3886512" lon="10.466481"><ele>511.0</ele><time>2026-04-04T08:22:43.09Z</time></trkpt><trkpt lat="44.3886572" lon="10.4663173"><ele>511.0</ele><time>2026-04-04T08:22:44.096Z</time></trkpt><trkpt lat="44.3886651" lon="10.4661625"><ele>511.0</ele><time>2026-04-04T08:22:45.084Z</time></trkpt><trkpt lat="44.3886673" lon="10.4660102"><ele>511.0</ele><time>2026-04-04T08:22:46.085Z</time></trkpt><trkpt lat="44.3886696" lon="10.46586"><ele>511.0</ele><time>2026-04-04T08:22:47.105Z</time></trkpt><trkpt lat="44.388674" lon="10.4657092"><ele>511.0</ele><time>2026-04-04T08:22:48.078Z</time></trkpt><trkpt lat="44.3886767" lon="10.4655574"><ele>511.0</ele><time>2026-04-04T08:22:49.103Z</time></trkpt><trkpt lat="44.3886744" lon="10.4654141"><ele>511.0</ele><time>2026-04-04T08:22:50.093Z</time></trkpt><trkpt lat="44.3886723" lon="10.4652726"><ele>512.3333333333334</ele><time>2026-04-04T08:22:51.098Z</time></trkpt><trkpt lat="44.3886499" lon="10.4651539"><ele>513.6666666666667</ele><time>2026-04-04T08:22:52.102Z</time></trkpt><trkpt lat="44.3885881" lon="10.4650765"><ele>515.0</ele><time>2026-04-04T08:22:53.107Z</time></trkpt><trkpt lat="44.3885165" lon="10.4650486"><ele>516.3333333333334</ele><time>2026-04-04T08:22:54.095Z</time></trkpt><trkpt lat="44.388429" lon="10.4650557"><ele>517.6666666666666</ele><time>2026-04-04T08:22:55.107Z</time></trkpt><trkpt lat="44.3883384" lon="10.4650863"><ele>519.0</ele><time>2026-04-04T08:22:56.103Z</time></trkpt><trkpt lat="44.3882423" lon="10.4651174"><ele>519.0</ele><time>2026-04-04T08:22:57.094Z</time></trkpt><trkpt lat="44.3881425" lon="10.4651515"><ele>519.0</ele><time>2026-04-04T08:22:58.115Z</time></trkpt><trkpt lat="44.3880343" lon="10.4651904"><ele>519.0</ele><time>2026-04-04T08:22:59.102Z</time></trkpt><trkpt lat="44.3879167" lon="10.4652211"><ele>519.0</ele><time>2026-04-04T08:23:00.095Z</time></trkpt><trkpt lat="44.3877944" lon="10.4652521"><ele>520.5</ele><time>2026-04-04T08:23:01.105Z</time></trkpt><trkpt lat="44.3876711" lon="10.4652746"><ele>522.0</ele><time>2026-04-04T08:23:02.11Z</time></trkpt><trkpt lat="44.3875454" lon="10.4652882"><ele>523.5</ele><time>2026-04-04T08:23:03.087Z</time></trkpt><trkpt lat="44.3874143" lon="10.4652869"><ele>525.0</ele><time>2026-04-04T08:23:04.109Z</time></trkpt><trkpt lat="44.3872796" lon="10.4652691"><ele>525.0</ele><time>2026-04-04T08:23:05.1Z</time></trkpt><trkpt lat="44.3871414" lon="10.4652276"><ele>525.0</ele><time>2026-04-04T08:23:06.095Z</time></trkpt><trkpt lat="44.3869898" lon="10.4651726"><ele>525.0</ele><time>2026-04-04T08:23:07.09Z</time></trkpt><trkpt lat="44.3868466" lon="10.4651119"><ele>525.0</ele><time>2026-04-04T08:23:08.101Z</time></trkpt><trkpt lat="44.3867417" lon="10.4649872"><ele>525.0</ele><time>2026-04-04T08:23:09.091Z</time></trkpt><trkpt lat="44.3866818" lon="10.4648216"><ele>525.0</ele><time>2026-04-04T08:23:10.099Z</time></trkpt><trkpt lat="44.3866361" lon="10.464634"><ele>525.0</ele><time>2026-04-04T08:23:11.097Z</time></trkpt><trkpt lat="44.3865801" lon="10.4644726"><ele>525.0</ele><time>2026-04-04T08:23:12.078Z</time></trkpt><trkpt lat="44.3865031" lon="10.464355"><ele>528.0</ele><time>2026-04-04T08:23:13.103Z</time></trkpt><trkpt lat="44.3863756" lon="10.4642943"><ele>531.0</ele><time>2026-04-04T08:23:14.098Z</time></trkpt><trkpt lat="44.3862378" lon="10.4643044"><ele>534.0</ele><time>2026-04-04T08:23:15.095Z</time></trkpt><trkpt lat="44.3861001" lon="10.4643645"><ele>537.0</ele><time>2026-04-04T08:23:16.092Z</time></trkpt><trkpt lat="44.3859806" lon="10.4644163"><ele>537.0</ele><time>2026-04-04T08:23:17.09Z</time></trkpt><trkpt lat="44.3858892" lon="10.4644588"><ele>537.0</ele><time>2026-04-04T08:23:18.09Z</time></trkpt><trkpt lat="44.3857947" lon="10.4644409"><ele>537.0</ele><time>2026-04-04T08:23:19.095Z</time></trkpt><trkpt lat="44.3856906" lon="10.4643722"><ele>537.0</ele><time>2026-04-04T08:23:20.101Z</time></trkpt><trkpt lat="44.38559" lon="10.4642791"><ele>537.0</ele><time>2026-04-04T08:23:21.087Z</time></trkpt><trkpt lat="44.3854945" lon="10.4641926"><ele>536.5</ele><time>2026-04-04T08:23:22.113Z</time></trkpt><trkpt lat="44.3853922" lon="10.4640907"><ele>536.0</ele><time>2026-04-04T08:23:23.107Z</time></trkpt><trkpt lat="44.3853003" lon="10.4639645"><ele>535.5</ele><time>2026-04-04T08:23:24.09Z</time></trkpt><trkpt lat="44.3852193" lon="10.4638129"><ele>535.0</ele><time>2026-04-04T08:23:25.098Z</time></trkpt><trkpt lat="44.3851481" lon="10.4636479"><ele>537.0</ele><time>2026-04-04T08:23:26.094Z</time></trkpt><trkpt lat="44.3850806" lon="10.4634872"><ele>539.0</ele><time>2026-04-04T08:23:27.094Z</time></trkpt><trkpt lat="44.3850136" lon="10.4633314"><ele>541.0</ele><time>2026-04-04T08:23:28.107Z</time></trkpt><trkpt lat="44.3849549" lon="10.4631677"><ele>543.0</ele><time>2026-04-04T08:23:29.102Z</time></trkpt><trkpt lat="44.3848885" lon="10.4629999"><ele>544.3333333333334</ele><time>2026-04-04T08:23:30.09Z</time></trkpt><trkpt lat="44.3848134" lon="10.4628128"><ele>545.6666666666667</ele><time>2026-04-04T08:23:31.1Z</time></trkpt><trkpt lat="44.3847233" lon="10.4625854"><ele>547.0</ele><time>2026-04-04T08:23:32.095Z</time></trkpt><trkpt lat="44.3846345" lon="10.4623468"><ele>546.3333333333334</ele><time>2026-04-04T08:23:33.094Z</time></trkpt><trkpt lat="44.3845474" lon="10.4621199"><ele>545.6666666666666</ele><time>2026-04-04T08:23:34.102Z</time></trkpt><trkpt lat="44.384463" lon="10.4619083"><ele>545.0</ele><time>2026-04-04T08:23:35.095Z</time></trkpt><trkpt lat="44.3843785" lon="10.4617081"><ele>545.0</ele><time>2026-04-04T08:23:36.087Z</time></trkpt><trkpt lat="44.3842843" lon="10.4614967"><ele>545.0</ele><time>2026-04-04T08:23:37.097Z</time></trkpt><trkpt lat="44.3842004" lon="10.4612835"><ele>545.0</ele><time>2026-04-04T08:23:38.094Z</time></trkpt><trkpt lat="44.3841205" lon="10.4610662"><ele>545.6666666666666</ele><time>2026-04-04T08:23:39.089Z</time></trkpt><trkpt lat="44.3840352" lon="10.4608707"><ele>546.3333333333334</ele><time>2026-04-04T08:23:40.098Z</time></trkpt><trkpt lat="44.3839274" lon="10.4607063"><ele>547.0</ele><time>2026-04-04T08:23:41.103Z</time></trkpt><trkpt lat="44.3837888" lon="10.4605652"><ele>547.0</ele><time>2026-04-04T08:23:42.085Z</time></trkpt><trkpt lat="44.3836273" lon="10.4604709"><ele>547.0</ele><time>2026-04-04T08:23:43.125Z</time></trkpt><trkpt lat="44.3834616" lon="10.4603888"><ele>547.0</ele><time>2026-04-04T08:23:44.102Z</time></trkpt><trkpt lat="44.3832968" lon="10.4603061"><ele>551.6666666666667</ele><time>2026-04-04T08:23:45.085Z</time></trkpt><trkpt lat="44.3831316" lon="10.4602248"><ele>556.3333333333334</ele><time>2026-04-04T08:23:46.091Z</time></trkpt><trkpt lat="44.3829548" lon="10.4601504"><ele>561.0</ele><time>2026-04-04T08:23:47.092Z</time></trkpt><trkpt lat="44.3827893" lon="10.4600692"><ele>561.0</ele><time>2026-04-04T08:23:48.077Z</time></trkpt><trkpt lat="44.3826248" lon="10.4599832"><ele>561.0</ele><time>2026-04-04T08:23:49.105Z</time></trkpt><trkpt lat="44.3824567" lon="10.4598925"><ele>561.0</ele><time>2026-04-04T08:23:50.099Z</time></trkpt><trkpt lat="44.3822818" lon="10.4597934"><ele>562.6666666666666</ele><time>2026-04-04T08:23:51.087Z</time></trkpt><trkpt lat="44.3820808" lon="10.4596731"><ele>564.3333333333333</ele><time>2026-04-04T08:23:52.102Z</time></trkpt><trkpt lat="44.3818873" lon="10.4595363"><ele>566.0</ele><time>2026-04-04T08:23:53.112Z</time></trkpt><trkpt lat="44.3817163" lon="10.4594046"><ele>566.0</ele><time>2026-04-04T08:23:54.09Z</time></trkpt><trkpt lat="44.3815695" lon="10.4592817"><ele>566.0</ele><time>2026-04-04T08:23:55.096Z</time></trkpt><trkpt lat="44.3814287" lon="10.4591466"><ele>566.0</ele><time>2026-04-04T08:23:56.104Z</time></trkpt><trkpt lat="44.3812845" lon="10.459017"><ele>565.0</ele><time>2026-04-04T08:23:57.087Z</time></trkpt><trkpt lat="44.3811402" lon="10.4589048"><ele>564.0</ele><time>2026-04-04T08:23:58.105Z</time></trkpt><trkpt lat="44.3809934" lon="10.4588163"><ele>563.0</ele><time>2026-04-04T08:23:59.09Z</time></trkpt><trkpt lat="44.3808427" lon="10.4587381"><ele>564.3333333333333</ele><time>2026-04-04T08:24:00.086Z</time></trkpt><trkpt lat="44.3807022" lon="10.4586493"><ele>565.6666666666666</ele><time>2026-04-04T08:24:01.097Z</time></trkpt><trkpt lat="44.3805717" lon="10.458533"><ele>567.0</ele><time>2026-04-04T08:24:02.096Z</time></trkpt><trkpt lat="44.3804523" lon="10.4584072"><ele>567.0</ele><time>2026-04-04T08:24:03.083Z</time></trkpt><trkpt lat="44.3803315" lon="10.4582812"><ele>567.0</ele><time>2026-04-04T08:24:04.097Z</time></trkpt><trkpt lat="44.3802004" lon="10.4581685"><ele>567.0</ele><time>2026-04-04T08:24:05.094Z</time></trkpt><trkpt lat="44.3800607" lon="10.4580725"><ele>567.0</ele><time>2026-04-04T08:24:06.085Z</time></trkpt><trkpt lat="44.3799101" lon="10.4579981"><ele>567.0</ele><time>2026-04-04T08:24:07.093Z</time></trkpt><trkpt lat="44.3797572" lon="10.4579513"><ele>567.0</ele><time>2026-04-04T08:24:08.099Z</time></trkpt><trkpt lat="44.3796139" lon="10.4579024"><ele>571.0</ele><time>2026-04-04T08:24:09.083Z</time></trkpt><trkpt lat="44.3794698" lon="10.4578587"><ele>575.0</ele><time>2026-04-04T08:24:10.104Z</time></trkpt><trkpt lat="44.3793185" lon="10.4578374"><ele>579.0</ele><time>2026-04-04T08:24:11.098Z</time></trkpt><trkpt lat="44.3791942" lon="10.4578718"><ele>583.0</ele><time>2026-04-04T08:24:12.085Z</time></trkpt><trkpt lat="44.3790753" lon="10.4578947"><ele>583.0</ele><time>2026-04-04T08:24:13.107Z</time></trkpt><trkpt lat="44.3789634" lon="10.4579004"><ele>583.0</ele><time>2026-04-04T08:24:14.099Z</time></trkpt><trkpt lat="44.3788471" lon="10.4578867"><ele>583.0</ele><time>2026-04-04T08:24:15.102Z</time></trkpt><trkpt lat="44.3787395" lon="10.4578403"><ele>583.0</ele><time>2026-04-04T08:24:16.098Z</time></trkpt><trkpt lat="44.3786436" lon="10.4577451"><ele>584.0</ele><time>2026-04-04T08:24:17.112Z</time></trkpt><trkpt lat="44.3785938" lon="10.4575975"><ele>585.0</ele><time>2026-04-04T08:24:18.102Z</time></trkpt><trkpt lat="44.3785699" lon="10.4574428"><ele>586.0</ele><time>2026-04-04T08:24:19.095Z</time></trkpt><trkpt lat="44.3785273" lon="10.4573055"><ele>587.0</ele><time>2026-04-04T08:24:20.1Z</time></trkpt><trkpt lat="44.3784656" lon="10.4571762"><ele>588.0</ele><time>2026-04-04T08:24:21.104Z</time></trkpt><trkpt lat="44.3783764" lon="10.4570745"><ele>588.0</ele><time>2026-04-04T08:24:22.102Z</time></trkpt><trkpt lat="44.3782538" lon="10.4570012"><ele>588.0</ele><time>2026-04-04T08:24:23.105Z</time></trkpt><trkpt lat="44.3781134" lon="10.456953"><ele>588.0</ele><time>2026-04-04T08:24:24.117Z</time></trkpt><trkpt lat="44.3779385" lon="10.4569203"><ele>586.5</ele><time>2026-04-04T08:24:25.096Z</time></trkpt><trkpt lat="44.3776753" lon="10.456844"><ele>585.0</ele><time>2026-04-04T08:24:26.105Z</time></trkpt><trkpt lat="44.3774528" lon="10.4568097"><ele>585.0</ele><time>2026-04-04T08:24:27.094Z</time></trkpt><trkpt lat="44.3772506" lon="10.4568018"><ele>585.0</ele><time>2026-04-04T08:24:28.093Z</time></trkpt><trkpt lat="44.3770509" lon="10.4568639"><ele>585.0</ele><time>2026-04-04T08:24:29.105Z</time></trkpt><trkpt lat="44.3768661" lon="10.4569857"><ele>583.6666666666666</ele><time>2026-04-04T08:24:30.099Z</time></trkpt><trkpt lat="44.3767231" lon="10.4570488"><ele>582.3333333333333</ele><time>2026-04-04T08:24:31.091Z</time></trkpt><trkpt lat="44.3765653" lon="10.4570597"><ele>581.0</ele><time>2026-04-04T08:24:32.099Z</time></trkpt><trkpt lat="44.3764178" lon="10.4569969"><ele>576.3333333333333</ele><time>2026-04-04T08:24:33.094Z</time></trkpt><trkpt lat="44.3762981" lon="10.4568569"><ele>571.6666666666666</ele><time>2026-04-04T08:24:34.083Z</time></trkpt><trkpt lat="44.3761868" lon="10.4566522"><ele>567.0</ele><time>2026-04-04T08:24:35.088Z</time></trkpt><trkpt lat="44.3760987" lon="10.4564519"><ele>572.6666666666666</ele><time>2026-04-04T08:24:36.086Z</time></trkpt><trkpt lat="44.3760057" lon="10.4562623"><ele>578.3333333333333</ele><time>2026-04-04T08:24:37.091Z</time></trkpt><trkpt lat="44.3759228" lon="10.4560847"><ele>584.0</ele><time>2026-04-04T08:24:38.084Z</time></trkpt><trkpt lat="44.3758154" lon="10.4559534"><ele>584.0</ele><time>2026-04-04T08:24:39.086Z</time></trkpt><trkpt lat="44.3756779" lon="10.4558939"><ele>584.0</ele><time>2026-04-04T08:24:40.085Z</time></trkpt><trkpt lat="44.3755112" lon="10.4559305"><ele>584.0</ele><time>2026-04-04T08:24:41.091Z</time></trkpt><trkpt lat="44.3753565" lon="10.4560102"><ele>581.5</ele><time>2026-04-04T08:24:42.079Z</time></trkpt><trkpt lat="44.375214" lon="10.4560556"><ele>579.0</ele><time>2026-04-04T08:24:43.091Z</time></trkpt><trkpt lat="44.375073" lon="10.4560589"><ele>576.5</ele><time>2026-04-04T08:24:44.104Z</time></trkpt><trkpt lat="44.3749297" lon="10.4560325"><ele>574.0</ele><time>2026-04-04T08:24:45.088Z</time></trkpt><trkpt lat="44.3747849" lon="10.455955"><ele>571.3333333333334</ele><time>2026-04-04T08:24:46.096Z</time></trkpt><trkpt lat="44.3746123" lon="10.4558493"><ele>568.6666666666666</ele><time>2026-04-04T08:24:47.093Z</time></trkpt><trkpt lat="44.3744345" lon="10.45576"><ele>566.0</ele><time>2026-04-04T08:24:48.081Z</time></trkpt><trkpt lat="44.3742434" lon="10.4556758"><ele>566.0</ele><time>2026-04-04T08:24:49.077Z</time></trkpt><trkpt lat="44.3740406" lon="10.4555883"><ele>566.0</ele><time>2026-04-04T08:24:50.083Z</time></trkpt><trkpt lat="44.3738286" lon="10.4554825"><ele>566.0</ele><time>2026-04-04T08:24:51.084Z</time></trkpt><trkpt lat="44.373616" lon="10.4553693"><ele>567.6666666666666</ele><time>2026-04-04T08:24:52.085Z</time></trkpt><trkpt lat="44.3734048" lon="10.4552517"><ele>569.3333333333334</ele><time>2026-04-04T08:24:53.093Z</time></trkpt><trkpt lat="44.3732012" lon="10.455133"><ele>571.0</ele><time>2026-04-04T08:24:54.092Z</time></trkpt><trkpt lat="44.3729915" lon="10.4550327"><ele>567.0</ele><time>2026-04-04T08:24:55.104Z</time></trkpt><trkpt lat="44.3727867" lon="10.4549462"><ele>563.0</ele><time>2026-04-04T08:24:56.102Z</time></trkpt><trkpt lat="44.3725944" lon="10.4548645"><ele>559.0</ele><time>2026-04-04T08:24:57.095Z</time></trkpt><trkpt lat="44.3723933" lon="10.4547892"><ele>559.0</ele><time>2026-04-04T08:24:58.097Z</time></trkpt><trkpt lat="44.3722176" lon="10.4547166"><ele>559.0</ele><time>2026-04-04T08:24:59.1Z</time></trkpt><trkpt lat="44.372044" lon="10.4546454"><ele>559.0</ele><time>2026-04-04T08:25:00.088Z</time></trkpt><trkpt lat="44.3718793" lon="10.4545868"><ele>562.6666666666667</ele><time>2026-04-04T08:25:01.097Z</time></trkpt><trkpt lat="44.3717292" lon="10.4545358"><ele>566.3333333333334</ele><time>2026-04-04T08:25:02.099Z</time></trkpt><trkpt lat="44.3715801" lon="10.4544803"><ele>570.0</ele><time>2026-04-04T08:25:03.088Z</time></trkpt><trkpt lat="44.3714341" lon="10.4544294"><ele>567.75</ele><time>2026-04-04T08:25:04.101Z</time></trkpt><trkpt lat="44.371293" lon="10.4543773"><ele>565.5</ele><time>2026-04-04T08:25:05.097Z</time></trkpt><trkpt lat="44.3711588" lon="10.4543221"><ele>563.25</ele><time>2026-04-04T08:25:06.081Z</time></trkpt><trkpt lat="44.3710291" lon="10.4542794"><ele>561.0</ele><time>2026-04-04T08:25:07.095Z</time></trkpt><trkpt lat="44.370901" lon="10.4542555"><ele>561.0</ele><time>2026-04-04T08:25:08.093Z</time></trkpt><trkpt lat="44.3707687" lon="10.4542742"><ele>561.0</ele><time>2026-04-04T08:25:09.089Z</time></trkpt><trkpt lat="44.3706251" lon="10.4543617"><ele>561.0</ele><time>2026-04-04T08:25:10.094Z</time></trkpt><trkpt lat="44.3704662" lon="10.4544664"><ele>559.3333333333334</ele><time>2026-04-04T08:25:11.092Z</time></trkpt><trkpt lat="44.3702946" lon="10.454569"><ele>557.6666666666667</ele><time>2026-04-04T08:25:12.087Z</time></trkpt><trkpt lat="44.3701431" lon="10.4546468"><ele>556.0</ele><time>2026-04-04T08:25:13.086Z</time></trkpt><trkpt lat="44.3700216" lon="10.4547155"><ele>556.0</ele><time>2026-04-04T08:25:14.1Z</time></trkpt><trkpt lat="44.3699231" lon="10.4547869"><ele>556.0</ele><time>2026-04-04T08:25:15.096Z</time></trkpt><trkpt lat="44.3698547" lon="10.454874"><ele>556.0</ele><time>2026-04-04T08:25:16.095Z</time></trkpt><trkpt lat="44.3698118" lon="10.4549835"><ele>556.0</ele><time>2026-04-04T08:25:17.106Z</time></trkpt><trkpt lat="44.3698007" lon="10.4551193"><ele>556.0</ele><time>2026-04-04T08:25:18.091Z</time></trkpt><trkpt lat="44.3698127" lon="10.4552653"><ele>556.0</ele><time>2026-04-04T08:25:19.106Z</time></trkpt><trkpt lat="44.3698582" lon="10.4554175"><ele>556.0</ele><time>2026-04-04T08:25:20.093Z</time></trkpt><trkpt lat="44.3699119" lon="10.4555598"><ele>556.0</ele><time>2026-04-04T08:25:21.089Z</time></trkpt><trkpt lat="44.369948" lon="10.4557319"><ele>556.0</ele><time>2026-04-04T08:25:22.189Z</time></trkpt><trkpt lat="44.3699609" lon="10.4558957"><ele>557.75</ele><time>2026-04-04T08:25:23.106Z</time></trkpt><trkpt lat="44.3699429" lon="10.4560548"><ele>559.5</ele><time>2026-04-04T08:25:24.09Z</time></trkpt><trkpt lat="44.3699116" lon="10.4562142"><ele>561.25</ele><time>2026-04-04T08:25:25.092Z</time></trkpt><trkpt lat="44.3698924" lon="10.4563735"><ele>563.0</ele><time>2026-04-04T08:25:26.092Z</time></trkpt><trkpt lat="44.3699039" lon="10.4565253"><ele>566.75</ele><time>2026-04-04T08:25:27.083Z</time></trkpt><trkpt lat="44.3699746" lon="10.4566701"><ele>570.5</ele><time>2026-04-04T08:25:28.095Z</time></trkpt><trkpt lat="44.3700769" lon="10.4567898"><ele>574.25</ele><time>2026-04-04T08:25:29.095Z</time></trkpt><trkpt lat="44.3701741" lon="10.4569034"><ele>578.0</ele><time>2026-04-04T08:25:30.074Z</time></trkpt><trkpt lat="44.3702712" lon="10.4570278"><ele>583.25</ele><time>2026-04-04T08:25:31.089Z</time></trkpt><trkpt lat="44.3703533" lon="10.4571611"><ele>588.5</ele><time>2026-04-04T08:25:32.092Z</time></trkpt><trkpt lat="44.3704211" lon="10.4572984"><ele>593.75</ele><time>2026-04-04T08:25:33.075Z</time></trkpt><trkpt lat="44.3704738" lon="10.4574397"><ele>599.0</ele><time>2026-04-04T08:25:34.096Z</time></trkpt><trkpt lat="44.3705107" lon="10.4575863"><ele>591.75</ele><time>2026-04-04T08:25:35.097Z</time></trkpt><trkpt lat="44.3705408" lon="10.4577471"><ele>584.5</ele><time>2026-04-04T08:25:36.085Z</time></trkpt><trkpt lat="44.3705571" lon="10.4579092"><ele>577.25</ele><time>2026-04-04T08:25:37.095Z</time></trkpt><trkpt lat="44.370572" lon="10.4580728"><ele>570.0</ele><time>2026-04-04T08:25:38.099Z</time></trkpt><trkpt lat="44.370586" lon="10.4582301"><ele>570.0</ele><time>2026-04-04T08:25:39.086Z</time></trkpt><trkpt lat="44.3705993" lon="10.4583838"><ele>570.0</ele><time>2026-04-04T08:25:40.096Z</time></trkpt><trkpt lat="44.3706159" lon="10.4585346"><ele>570.0</ele><time>2026-04-04T08:25:41.095Z</time></trkpt><trkpt lat="44.3706416" lon="10.4586837"><ele>570.0</ele><time>2026-04-04T08:25:42.075Z</time></trkpt><trkpt lat="44.3706823" lon="10.4588272"><ele>570.0</ele><time>2026-04-04T08:25:43.086Z</time></trkpt><trkpt lat="44.3707635" lon="10.4589406"><ele>575.0</ele><time>2026-04-04T08:25:44.094Z</time></trkpt><trkpt lat="44.3708687" lon="10.4590008"><ele>580.0</ele><time>2026-04-04T08:25:45.085Z</time></trkpt><trkpt lat="44.370995" lon="10.4590245"><ele>585.0</ele><time>2026-04-04T08:25:46.092Z</time></trkpt><trkpt lat="44.3711144" lon="10.4590473"><ele>590.0</ele><time>2026-04-04T08:25:47.085Z</time></trkpt><trkpt lat="44.3712188" lon="10.4590865"><ele>590.0</ele><time>2026-04-04T08:25:48.097Z</time></trkpt><trkpt lat="44.371308" lon="10.4591523"><ele>590.0</ele><time>2026-04-04T08:25:49.095Z</time></trkpt><trkpt lat="44.3713839" lon="10.4592538"><ele>590.0</ele><time>2026-04-04T08:25:50.113Z</time></trkpt><trkpt lat="44.3714411" lon="10.4593753"><ele>590.0</ele><time>2026-04-04T08:25:51.096Z</time></trkpt><trkpt lat="44.3714732" lon="10.4595104"><ele>590.0</ele><time>2026-04-04T08:25:52.099Z</time></trkpt><trkpt lat="44.3714782" lon="10.4596647"><ele>593.0</ele><time>2026-04-04T08:25:53.118Z</time></trkpt><trkpt lat="44.3714642" lon="10.45983"><ele>596.0</ele><time>2026-04-04T08:25:54.103Z</time></trkpt><trkpt lat="44.3714388" lon="10.4600059"><ele>599.0</ele><time>2026-04-04T08:25:55.105Z</time></trkpt><trkpt lat="44.3713975" lon="10.4601867"><ele>602.0</ele><time>2026-04-04T08:25:56.112Z</time></trkpt><trkpt lat="44.3713481" lon="10.4603638"><ele>601.0</ele><time>2026-04-04T08:25:57.122Z</time></trkpt><trkpt lat="44.3713004" lon="10.4605201"><ele>600.0</ele><time>2026-04-04T08:25:58.112Z</time></trkpt><trkpt lat="44.3712465" lon="10.4606685"><ele>599.0</ele><time>2026-04-04T08:25:59.113Z</time></trkpt><trkpt lat="44.371189" lon="10.4608068"><ele>598.0</ele><time>2026-04-04T08:26:00.104Z</time></trkpt><trkpt lat="44.3711202" lon="10.46092"><ele>598.0</ele><time>2026-04-04T08:26:01.103Z</time></trkpt><trkpt lat="44.3710349" lon="10.4609848"><ele>598.0</ele><time>2026-04-04T08:26:02.118Z</time></trkpt><trkpt lat="44.3709393" lon="10.4609987"><ele>598.0</ele><time>2026-04-04T08:26:03.107Z</time></trkpt><trkpt lat="44.3708305" lon="10.4609591"><ele>598.0</ele><time>2026-04-04T08:26:04.104Z</time></trkpt><trkpt lat="44.370718" lon="10.46092"><ele>598.0</ele><time>2026-04-04T08:26:05.107Z</time></trkpt><trkpt lat="44.3706086" lon="10.460902"><ele>600.6</ele><time>2026-04-04T08:26:06.094Z</time></trkpt><trkpt lat="44.3705042" lon="10.4608968"><ele>603.1999999999999</ele><time>2026-04-04T08:26:07.107Z</time></trkpt><trkpt lat="44.3704047" lon="10.4609228"><ele>605.8</ele><time>2026-04-04T08:26:08.097Z</time></trkpt><trkpt lat="44.3703074" lon="10.4609726"><ele>608.4</ele><time>2026-04-04T08:26:09.088Z</time></trkpt><trkpt lat="44.3702094" lon="10.4610345"><ele>611.0</ele><time>2026-04-04T08:26:10.098Z</time></trkpt><trkpt lat="44.3701212" lon="10.4611299"><ele>611.0</ele><time>2026-04-04T08:26:11.113Z</time></trkpt><trkpt lat="44.3700521" lon="10.4612683"><ele>611.0</ele><time>2026-04-04T08:26:12.11Z</time></trkpt><trkpt lat="44.3700091" lon="10.4614141"><ele>611.0</ele><time>2026-04-04T08:26:13.106Z</time></trkpt><trkpt lat="44.3699589" lon="10.4615187"><ele>611.0</ele><time>2026-04-04T08:26:14.114Z</time></trkpt><trkpt lat="44.3699025" lon="10.461582"><ele>611.0</ele><time>2026-04-04T08:26:15.111Z</time></trkpt><trkpt lat="44.3698173" lon="10.4615759"><ele>611.2</ele><time>2026-04-04T08:26:16.111Z</time></trkpt><trkpt lat="44.3697266" lon="10.4615225"><ele>611.4000000000001</ele><time>2026-04-04T08:26:17.103Z</time></trkpt><trkpt lat="44.3696502" lon="10.4614505"><ele>611.6</ele><time>2026-04-04T08:26:18.094Z</time></trkpt><trkpt lat="44.369559" lon="10.4613916"><ele>611.8000000000001</ele><time>2026-04-04T08:26:19.111Z</time></trkpt><trkpt lat="44.3694643" lon="10.4613663"><ele>612.0</ele><time>2026-04-04T08:26:20.115Z</time></trkpt><trkpt lat="44.3693635" lon="10.4614141"><ele>612.0</ele><time>2026-04-04T08:26:21.102Z</time></trkpt><trkpt lat="44.3692718" lon="10.4614777"><ele>612.0</ele><time>2026-04-04T08:26:22.109Z</time></trkpt><trkpt lat="44.369177" lon="10.4615688"><ele>612.0</ele><time>2026-04-04T08:26:23.126Z</time></trkpt><trkpt lat="44.3690742" lon="10.46168"><ele>612.0</ele><time>2026-04-04T08:26:24.112Z</time></trkpt><trkpt lat="44.3689544" lon="10.4618363"><ele>613.0</ele><time>2026-04-04T08:26:25.106Z</time></trkpt><trkpt lat="44.3688114" lon="10.4620363"><ele>614.0</ele><time>2026-04-04T08:26:26.11Z</time></trkpt><trkpt lat="44.3686768" lon="10.4621857"><ele>615.0</ele><time>2026-04-04T08:26:27.096Z</time></trkpt><trkpt lat="44.3685631" lon="10.4623112"><ele>615.0</ele><time>2026-04-04T08:26:28.137Z</time></trkpt><trkpt lat="44.3684872" lon="10.4624084"><ele>615.0</ele><time>2026-04-04T08:26:29.112Z</time></trkpt><trkpt lat="44.368415" lon="10.462495"><ele>615.0</ele><time>2026-04-04T08:26:30.102Z</time></trkpt><trkpt lat="44.3683617" lon="10.46258"><ele>615.0</ele><time>2026-04-04T08:26:31.11Z</time></trkpt><trkpt lat="44.3683603" lon="10.4627416"><ele>615.0</ele><time>2026-04-04T08:26:33.1Z</time></trkpt><trkpt lat="44.3683741" lon="10.4628491"><ele>615.8</ele><time>2026-04-04T08:26:34.106Z</time></trkpt><trkpt lat="44.3683948" lon="10.4629795"><ele>616.6</ele><time>2026-04-04T08:26:35.112Z</time></trkpt><trkpt lat="44.3684229" lon="10.4631245"><ele>617.4</ele><time>2026-04-04T08:26:36.107Z</time></trkpt><trkpt lat="44.3684517" lon="10.4632499"><ele>618.2</ele><time>2026-04-04T08:26:37.102Z</time></trkpt><trkpt lat="44.3684982" lon="10.4633606"><ele>619.0</ele><time>2026-04-04T08:26:38.112Z</time></trkpt><trkpt lat="44.3685868" lon="10.4634287"><ele>619.0</ele><time>2026-04-04T08:26:39.111Z</time></trkpt><trkpt lat="44.3686938" lon="10.4634146"><ele>619.0</ele><time>2026-04-04T08:26:40.109Z</time></trkpt><trkpt lat="44.3688559" lon="10.4633102"><ele>619.0</ele><time>2026-04-04T08:26:41.116Z</time></trkpt><trkpt lat="44.3690522" lon="10.4631898"><ele>616.3333333333334</ele><time>2026-04-04T08:26:42.101Z</time></trkpt><trkpt lat="44.3692321" lon="10.463076"><ele>613.6666666666666</ele><time>2026-04-04T08:26:43.09Z</time></trkpt><trkpt lat="44.3693935" lon="10.4629579"><ele>611.0</ele><time>2026-04-04T08:26:44.101Z</time></trkpt><trkpt lat="44.3695248" lon="10.4629058"><ele>611.0</ele><time>2026-04-04T08:26:45.096Z</time></trkpt><trkpt lat="44.369645" lon="10.4629077"><ele>611.0</ele><time>2026-04-04T08:26:46.083Z</time></trkpt><trkpt lat="44.3697672" lon="10.462937"><ele>611.0</ele><time>2026-04-04T08:26:47.091Z</time></trkpt><trkpt lat="44.3698878" lon="10.4629636"><ele>611.0</ele><time>2026-04-04T08:26:48.088Z</time></trkpt><trkpt lat="44.3699981" lon="10.4629985"><ele>616.75</ele><time>2026-04-04T08:26:49.091Z</time></trkpt><trkpt lat="44.3701037" lon="10.4630366"><ele>622.5</ele><time>2026-04-04T08:26:50.108Z</time></trkpt><trkpt lat="44.3702048" lon="10.463078"><ele>628.25</ele><time>2026-04-04T08:26:51.102Z</time></trkpt><trkpt lat="44.3703111" lon="10.4631468"><ele>634.0</ele><time>2026-04-04T08:26:52.094Z</time></trkpt><trkpt lat="44.3704129" lon="10.4632784"><ele>634.0</ele><time>2026-04-04T08:26:53.096Z</time></trkpt><trkpt lat="44.3704953" lon="10.4634199"><ele>634.0</ele><time>2026-04-04T08:26:54.102Z</time></trkpt><trkpt lat="44.3705484" lon="10.4635781"><ele>634.0</ele><time>2026-04-04T08:26:55.111Z</time></trkpt><trkpt lat="44.3705794" lon="10.4637327"><ele>634.0</ele><time>2026-04-04T08:26:56.114Z</time></trkpt><trkpt lat="44.3705787" lon="10.4638755"><ele>636.25</ele><time>2026-04-04T08:26:57.101Z</time></trkpt><trkpt lat="44.370546" lon="10.4640188"><ele>638.5</ele><time>2026-04-04T08:26:58.11Z</time></trkpt><trkpt lat="44.3704753" lon="10.4641575"><ele>640.75</ele><time>2026-04-04T08:26:59.129Z</time></trkpt><trkpt lat="44.3703805" lon="10.4642701"><ele>643.0</ele><time>2026-04-04T08:27:00.095Z</time></trkpt><trkpt lat="44.370281" lon="10.4643556"><ele>643.0</ele><time>2026-04-04T08:27:01.091Z</time></trkpt><trkpt lat="44.3701772" lon="10.4644215"><ele>643.0</ele><time>2026-04-04T08:27:02.105Z</time></trkpt><trkpt lat="44.3700725" lon="10.464475"><ele>643.0</ele><time>2026-04-04T08:27:03.106Z</time></trkpt><trkpt lat="44.3699576" lon="10.4644722"><ele>643.0</ele><time>2026-04-04T08:27:04.107Z</time></trkpt><trkpt lat="44.3698414" lon="10.4644138"><ele>643.0</ele><time>2026-04-04T08:27:05.103Z</time></trkpt><trkpt lat="44.3697337" lon="10.4643579"><ele>643.0</ele><time>2026-04-04T08:27:06.091Z</time></trkpt><trkpt lat="44.3696231" lon="10.4643046"><ele>643.0</ele><time>2026-04-04T08:27:07.09Z</time></trkpt><trkpt lat="44.369519" lon="10.4642494"><ele>643.0</ele><time>2026-04-04T08:27:08.108Z</time></trkpt><trkpt lat="44.3694176" lon="10.4641923"><ele>643.75</ele><time>2026-04-04T08:27:09.097Z</time></trkpt><trkpt lat="44.3693055" lon="10.4641514"><ele>644.5</ele><time>2026-04-04T08:27:10.101Z</time></trkpt><trkpt lat="44.3691963" lon="10.4641673"><ele>645.25</ele><time>2026-04-04T08:27:11.109Z</time></trkpt><trkpt lat="44.369098" lon="10.4642574"><ele>646.0</ele><time>2026-04-04T08:27:12.098Z</time></trkpt><trkpt lat="44.3690181" lon="10.4644373"><ele>647.6666666666667</ele><time>2026-04-04T08:27:13.114Z</time></trkpt><trkpt lat="44.3689158" lon="10.4646855"><ele>649.3333333333334</ele><time>2026-04-04T08:27:14.11Z</time></trkpt><trkpt lat="44.3687694" lon="10.4649351"><ele>651.0</ele><time>2026-04-04T08:27:15.1Z</time></trkpt><trkpt lat="44.3686213" lon="10.4651057"><ele>651.0</ele><time>2026-04-04T08:27:16.111Z</time></trkpt><trkpt lat="44.3684382" lon="10.4651758"><ele>651.0</ele><time>2026-04-04T08:27:17.111Z</time></trkpt><trkpt lat="44.3682632" lon="10.4651958"><ele>651.0</ele><time>2026-04-04T08:27:18.1Z</time></trkpt><trkpt lat="44.3680867" lon="10.4652344"><ele>650.3333333333334</ele><time>2026-04-04T08:27:19.1Z</time></trkpt><trkpt lat="44.3679488" lon="10.4653203"><ele>649.6666666666667</ele><time>2026-04-04T08:27:20.111Z</time></trkpt><trkpt lat="44.3678639" lon="10.465508"><ele>649.0</ele><time>2026-04-04T08:27:21.097Z</time></trkpt><trkpt lat="44.3677504" lon="10.4657583"><ele>653.3333333333334</ele><time>2026-04-04T08:27:22.098Z</time></trkpt><trkpt lat="44.3676372" lon="10.465948"><ele>657.6666666666666</ele><time>2026-04-04T08:27:23.122Z</time></trkpt><trkpt lat="44.3675076" lon="10.4660305"><ele>662.0</ele><time>2026-04-04T08:27:24.11Z</time></trkpt><trkpt lat="44.3673614" lon="10.4660358"><ele>664.0</ele><time>2026-04-04T08:27:25.109Z</time></trkpt><trkpt lat="44.3671676" lon="10.4660209"><ele>666.0</ele><time>2026-04-04T08:27:26.118Z</time></trkpt><trkpt lat="44.3669091" lon="10.4660385"><ele>666.0</ele><time>2026-04-04T08:27:27.105Z</time></trkpt><trkpt lat="44.3666276" lon="10.4660674"><ele>666.0</ele><time>2026-04-04T08:27:28.101Z</time></trkpt><trkpt lat="44.3664019" lon="10.4660719"><ele>667.0</ele><time>2026-04-04T08:27:29.117Z</time></trkpt><trkpt lat="44.366251" lon="10.46608"><ele>668.0</ele><time>2026-04-04T08:27:30.123Z</time></trkpt><trkpt lat="44.3661103" lon="10.4660925"><ele>669.0</ele><time>2026-04-04T08:27:31.106Z</time></trkpt><trkpt lat="44.3660109" lon="10.4661476"><ele>670.0</ele><time>2026-04-04T08:27:32.103Z</time></trkpt><trkpt lat="44.365925" lon="10.4661874"><ele>670.0</ele><time>2026-04-04T08:27:33.102Z</time></trkpt><trkpt lat="44.3658588" lon="10.4662261"><ele>670.0</ele><time>2026-04-04T08:27:34.102Z</time></trkpt><trkpt lat="44.3657671" lon="10.4662651"><ele>670.0</ele><time>2026-04-04T08:27:36.101Z</time></trkpt><trkpt lat="44.3656772" lon="10.466299"><ele>670.0</ele><time>2026-04-04T08:27:38.106Z</time></trkpt><trkpt lat="44.3655799" lon="10.4663529"><ele>670.0</ele><time>2026-04-04T08:27:40.116Z</time></trkpt><trkpt lat="44.3654625" lon="10.4664073"><ele>671.3333333333334</ele><time>2026-04-04T08:27:42.105Z</time></trkpt><trkpt lat="44.36539" lon="10.4664314"><ele>672.6666666666667</ele><time>2026-04-04T08:27:43.105Z</time></trkpt><trkpt lat="44.3653175" lon="10.4664682"><ele>674.0</ele><time>2026-04-04T08:27:44.109Z</time></trkpt><trkpt lat="44.3652472" lon="10.4665044"><ele>675.3333333333334</ele><time>2026-04-04T08:27:45.09Z</time></trkpt><trkpt lat="44.3651856" lon="10.4665339"><ele>676.6666666666666</ele><time>2026-04-04T08:27:46.108Z</time></trkpt><trkpt lat="44.3650764" lon="10.4665825"><ele>678.0</ele><time>2026-04-04T08:27:48.101Z</time></trkpt><trkpt lat="44.3649797" lon="10.4666205"><ele>678.0</ele><time>2026-04-04T08:27:50.112Z</time></trkpt><trkpt lat="44.3649122" lon="10.4666542"><ele>678.0</ele><time>2026-04-04T08:27:54.105Z</time></trkpt><trkpt lat="44.3647947" lon="10.4667169"><ele>678.0</ele><time>2026-04-04T08:27:58.108Z</time></trkpt><trkpt lat="44.3647055" lon="10.4667451"><ele>678.0</ele><time>2026-04-04T08:27:59.109Z</time></trkpt><trkpt lat="44.3646133" lon="10.4667807"><ele>678.0</ele><time>2026-04-04T08:28:00.093Z</time></trkpt><trkpt lat="44.3645226" lon="10.46681"><ele>677.1666666666666</ele><time>2026-04-04T08:28:01.133Z</time></trkpt><trkpt lat="44.3644467" lon="10.4668456"><ele>676.3333333333334</ele><time>2026-04-04T08:28:02.096Z</time></trkpt><trkpt lat="44.3643761" lon="10.4668811"><ele>675.5</ele><time>2026-04-04T08:28:03.1Z</time></trkpt><trkpt lat="44.3643068" lon="10.4668939"><ele>674.6666666666667</ele><time>2026-04-04T08:28:04.103Z</time></trkpt><trkpt lat="44.3642298" lon="10.466885"><ele>673.8333333333334</ele><time>2026-04-04T08:28:05.105Z</time></trkpt><trkpt lat="44.3641517" lon="10.4668455"><ele>673.0</ele><time>2026-04-04T08:28:06.098Z</time></trkpt><trkpt lat="44.3640719" lon="10.4667823"><ele>673.0</ele><time>2026-04-04T08:28:07.11Z</time></trkpt><trkpt lat="44.3639931" lon="10.4667072"><ele>673.0</ele><time>2026-04-04T08:28:08.105Z</time></trkpt><trkpt lat="44.3639289" lon="10.4666236"><ele>673.0</ele><time>2026-04-04T08:28:09.104Z</time></trkpt><trkpt lat="44.3638605" lon="10.466543"><ele>673.0</ele><time>2026-04-04T08:28:10.109Z</time></trkpt><trkpt lat="44.3637969" lon="10.466486"><ele>673.0</ele><time>2026-04-04T08:28:11.121Z</time></trkpt><trkpt lat="44.3637136" lon="10.4665051"><ele>673.0</ele><time>2026-04-04T08:28:12.104Z</time></trkpt><trkpt lat="44.3635993" lon="10.4665332"><ele>672.0</ele><time>2026-04-04T08:28:13.112Z</time></trkpt><trkpt lat="44.3634675" lon="10.4665438"><ele>671.0</ele><time>2026-04-04T08:28:14.11Z</time></trkpt><trkpt lat="44.3633351" lon="10.4665543"><ele>670.0</ele><time>2026-04-04T08:28:15.099Z</time></trkpt><trkpt lat="44.3631979" lon="10.4665701"><ele>669.0</ele><time>2026-04-04T08:28:16.102Z</time></trkpt><trkpt lat="44.3630607" lon="10.4665803"><ele>668.75</ele><time>2026-04-04T08:28:17.121Z</time></trkpt><trkpt lat="44.3629271" lon="10.4665885"><ele>668.5</ele><time>2026-04-04T08:28:18.102Z</time></trkpt><trkpt lat="44.3627941" lon="10.4666099"><ele>668.25</ele><time>2026-04-04T08:28:19.116Z</time></trkpt><trkpt lat="44.362669" lon="10.4666664"><ele>668.0</ele><time>2026-04-04T08:28:20.118Z</time></trkpt><trkpt lat="44.3625468" lon="10.4667437"><ele>668.0</ele><time>2026-04-04T08:28:21.101Z</time></trkpt><trkpt lat="44.362432" lon="10.466827"><ele>668.0</ele><time>2026-04-04T08:28:22.108Z</time></trkpt><trkpt lat="44.3623285" lon="10.4668989"><ele>668.0</ele><time>2026-04-04T08:28:23.121Z</time></trkpt><trkpt lat="44.3622269" lon="10.4669623"><ele>668.0</ele><time>2026-04-04T08:28:24.108Z</time></trkpt><trkpt lat="44.3621276" lon="10.4669905"><ele>666.2</ele><time>2026-04-04T08:28:25.115Z</time></trkpt><trkpt lat="44.3620257" lon="10.4669862"><ele>664.4</ele><time>2026-04-04T08:28:26.109Z</time></trkpt><trkpt lat="44.3619326" lon="10.4669486"><ele>662.6</ele><time>2026-04-04T08:28:27.103Z</time></trkpt><trkpt lat="44.3618384" lon="10.4668844"><ele>660.8000000000001</ele><time>2026-04-04T08:28:28.118Z</time></trkpt><trkpt lat="44.3617525" lon="10.466788"><ele>659.0</ele><time>2026-04-04T08:28:29.108Z</time></trkpt><trkpt lat="44.3616781" lon="10.4666801"><ele>659.0</ele><time>2026-04-04T08:28:30.102Z</time></trkpt><trkpt lat="44.3615928" lon="10.4665606"><ele>659.0</ele><time>2026-04-04T08:28:31.118Z</time></trkpt><trkpt lat="44.361506" lon="10.4664419"><ele>659.0</ele><time>2026-04-04T08:28:32.112Z</time></trkpt><trkpt lat="44.361414" lon="10.4663225"><ele>659.0</ele><time>2026-04-04T08:28:33.096Z</time></trkpt><trkpt lat="44.36132" lon="10.4662002"><ele>658.25</ele><time>2026-04-04T08:28:34.104Z</time></trkpt><trkpt lat="44.3612133" lon="10.4660822"><ele>657.5</ele><time>2026-04-04T08:28:35.105Z</time></trkpt><trkpt lat="44.3610992" lon="10.4659801"><ele>656.75</ele><time>2026-04-04T08:28:36.107Z</time></trkpt><trkpt lat="44.3609642" lon="10.465898"><ele>656.0</ele><time>2026-04-04T08:28:37.107Z</time></trkpt><trkpt lat="44.3608178" lon="10.4658448"><ele>656.0</ele><time>2026-04-04T08:28:38.11Z</time></trkpt><trkpt lat="44.3606641" lon="10.465803"><ele>656.0</ele><time>2026-04-04T08:28:39.096Z</time></trkpt><trkpt lat="44.3605087" lon="10.4657575"><ele>656.0</ele><time>2026-04-04T08:28:40.098Z</time></trkpt><trkpt lat="44.3603599" lon="10.4657255"><ele>655.25</ele><time>2026-04-04T08:28:41.106Z</time></trkpt><trkpt lat="44.3602143" lon="10.4656833"><ele>654.5</ele><time>2026-04-04T08:28:42.092Z</time></trkpt><trkpt lat="44.3600734" lon="10.4655992"><ele>653.75</ele><time>2026-04-04T08:28:43.107Z</time></trkpt><trkpt lat="44.3599606" lon="10.4654789"><ele>653.0</ele><time>2026-04-04T08:28:44.107Z</time></trkpt><trkpt lat="44.359841" lon="10.4653623"><ele>653.0</ele><time>2026-04-04T08:28:45.088Z</time></trkpt><trkpt lat="44.3597341" lon="10.4652703"><ele>653.0</ele><time>2026-04-04T08:28:46.111Z</time></trkpt><trkpt lat="44.3596432" lon="10.4651805"><ele>653.0</ele><time>2026-04-04T08:28:47.099Z</time></trkpt><trkpt lat="44.359539" lon="10.4651191"><ele>653.0</ele><time>2026-04-04T08:28:48.105Z</time></trkpt><trkpt lat="44.3594291" lon="10.4651309"><ele>652.5999999999999</ele><time>2026-04-04T08:28:49.1Z</time></trkpt><trkpt lat="44.3593313" lon="10.4651943"><ele>652.1999999999999</ele><time>2026-04-04T08:28:50.106Z</time></trkpt><trkpt lat="44.3592458" lon="10.4653064"><ele>651.8</ele><time>2026-04-04T08:28:51.092Z</time></trkpt><trkpt lat="44.3591792" lon="10.4654216"><ele>651.4</ele><time>2026-04-04T08:28:52.099Z</time></trkpt><trkpt lat="44.3591075" lon="10.4655423"><ele>651.0</ele><time>2026-04-04T08:28:53.103Z</time></trkpt><trkpt lat="44.3590348" lon="10.4656602"><ele>649.0</ele><time>2026-04-04T08:28:54.093Z</time></trkpt><trkpt lat="44.3589598" lon="10.4657673"><ele>647.0</ele><time>2026-04-04T08:28:55.104Z</time></trkpt><trkpt lat="44.3588761" lon="10.4658441"><ele>645.0</ele><time>2026-04-04T08:28:56.108Z</time></trkpt><trkpt lat="44.358778" lon="10.4658579"><ele>643.0</ele><time>2026-04-04T08:28:57.087Z</time></trkpt><trkpt lat="44.3586711" lon="10.4658078"><ele>641.0</ele><time>2026-04-04T08:28:58.115Z</time></trkpt><trkpt lat="44.3585884" lon="10.4657061"><ele>639.0</ele><time>2026-04-04T08:28:59.099Z</time></trkpt><trkpt lat="44.3585363" lon="10.4655618"><ele>637.0</ele><time>2026-04-04T08:29:00.085Z</time></trkpt><trkpt lat="44.3584809" lon="10.4654067"><ele>635.0</ele><time>2026-04-04T08:29:01.093Z</time></trkpt><trkpt lat="44.3584159" lon="10.465267"><ele>633.0</ele><time>2026-04-04T08:29:02.102Z</time></trkpt><trkpt lat="44.3583438" lon="10.4651275"><ele>632.75</ele><time>2026-04-04T08:29:03.1Z</time></trkpt><trkpt lat="44.3582624" lon="10.4650017"><ele>632.5</ele><time>2026-04-04T08:29:04.099Z</time></trkpt><trkpt lat="44.3581765" lon="10.4648969"><ele>632.25</ele><time>2026-04-04T08:29:05.102Z</time></trkpt><trkpt lat="44.3580797" lon="10.4648113"><ele>632.0</ele><time>2026-04-04T08:29:06.089Z</time></trkpt><trkpt lat="44.3579715" lon="10.4647332"><ele>632.0</ele><time>2026-04-04T08:29:07.097Z</time></trkpt><trkpt lat="44.3578721" lon="10.4646713"><ele>632.0</ele><time>2026-04-04T08:29:08.1Z</time></trkpt><trkpt lat="44.3577708" lon="10.4646145"><ele>632.0</ele><time>2026-04-04T08:29:09.091Z</time></trkpt><trkpt lat="44.3576717" lon="10.4645489"><ele>632.0</ele><time>2026-04-04T08:29:10.107Z</time></trkpt><trkpt lat="44.3575937" lon="10.4644473"><ele>632.0</ele><time>2026-04-04T08:29:11.107Z</time></trkpt><trkpt lat="44.3575644" lon="10.4643038"><ele>633.8</ele><time>2026-04-04T08:29:12.094Z</time></trkpt><trkpt lat="44.3575726" lon="10.4641495"><ele>635.6</ele><time>2026-04-04T08:29:13.096Z</time></trkpt><trkpt lat="44.3576056" lon="10.464008"><ele>637.4</ele><time>2026-04-04T08:29:14.101Z</time></trkpt><trkpt lat="44.3576539" lon="10.4638695"><ele>639.1999999999999</ele><time>2026-04-04T08:29:15.089Z</time></trkpt><trkpt lat="44.3577134" lon="10.4637266"><ele>641.0</ele><time>2026-04-04T08:29:16.095Z</time></trkpt><trkpt lat="44.3577715" lon="10.4635692"><ele>641.0</ele><time>2026-04-04T08:29:17.1Z</time></trkpt><trkpt lat="44.3578273" lon="10.4633863"><ele>641.0</ele><time>2026-04-04T08:29:18.089Z</time></trkpt><trkpt lat="44.3578758" lon="10.4631908"><ele>641.0</ele><time>2026-04-04T08:29:19.098Z</time></trkpt><trkpt lat="44.3579148" lon="10.4629926"><ele>641.0</ele><time>2026-04-04T08:29:20.101Z</time></trkpt><trkpt lat="44.3579429" lon="10.4627834"><ele>642.25</ele><time>2026-04-04T08:29:21.092Z</time></trkpt><trkpt lat="44.3579476" lon="10.4625726"><ele>643.5</ele><time>2026-04-04T08:29:22.102Z</time></trkpt><trkpt lat="44.3579381" lon="10.4623657"><ele>644.75</ele><time>2026-04-04T08:29:23.111Z</time></trkpt><trkpt lat="44.3579274" lon="10.4621807"><ele>646.0</ele><time>2026-04-04T08:29:24.091Z</time></trkpt><trkpt lat="44.3578993" lon="10.4620033"><ele>647.5</ele><time>2026-04-04T08:29:25.105Z</time></trkpt><trkpt lat="44.3578815" lon="10.4618328"><ele>649.0</ele><time>2026-04-04T08:29:26.1Z</time></trkpt><trkpt lat="44.3578498" lon="10.4616586"><ele>650.5</ele><time>2026-04-04T08:29:27.092Z</time></trkpt><trkpt lat="44.3577883" lon="10.4614937"><ele>652.0</ele><time>2026-04-04T08:29:28.091Z</time></trkpt><trkpt lat="44.3577009" lon="10.4613541"><ele>653.8</ele><time>2026-04-04T08:29:29.11Z</time></trkpt><trkpt lat="44.3576016" lon="10.4612699"><ele>655.6</ele><time>2026-04-04T08:29:30.089Z</time></trkpt><trkpt lat="44.3575052" lon="10.461203"><ele>657.4</ele><time>2026-04-04T08:29:31.102Z</time></trkpt><trkpt lat="44.3574109" lon="10.4611279"><ele>659.1999999999999</ele><time>2026-04-04T08:29:32.096Z</time></trkpt><trkpt lat="44.3573214" lon="10.4610339"><ele>661.0</ele><time>2026-04-04T08:29:33.108Z</time></trkpt><trkpt lat="44.357245" lon="10.4609137"><ele>660.5</ele><time>2026-04-04T08:29:34.111Z</time></trkpt><trkpt lat="44.3571857" lon="10.460756"><ele>660.0</ele><time>2026-04-04T08:29:35.102Z</time></trkpt><trkpt lat="44.3571378" lon="10.4605909"><ele>659.5</ele><time>2026-04-04T08:29:36.095Z</time></trkpt><trkpt lat="44.3570945" lon="10.4604226"><ele>659.0</ele><time>2026-04-04T08:29:37.104Z</time></trkpt><trkpt lat="44.3570587" lon="10.4602585"><ele>659.0</ele><time>2026-04-04T08:29:38.102Z</time></trkpt><trkpt lat="44.3570448" lon="10.4600919"><ele>659.0</ele><time>2026-04-04T08:29:39.09Z</time></trkpt><trkpt lat="44.3570514" lon="10.4599299"><ele>659.0</ele><time>2026-04-04T08:29:40.103Z</time></trkpt><trkpt lat="44.3570651" lon="10.459765"><ele>659.0</ele><time>2026-04-04T08:29:41.108Z</time></trkpt><trkpt lat="44.3570823" lon="10.459596"><ele>661.0</ele><time>2026-04-04T08:29:42.095Z</time></trkpt><trkpt lat="44.3570802" lon="10.459431"><ele>663.0</ele><time>2026-04-04T08:29:43.102Z</time></trkpt><trkpt lat="44.3570459" lon="10.459279"><ele>665.0</ele><time>2026-04-04T08:29:44.113Z</time></trkpt><trkpt lat="44.356971" lon="10.4591709"><ele>667.0</ele><time>2026-04-04T08:29:45.091Z</time></trkpt><trkpt lat="44.3568733" lon="10.4590866"><ele>667.0</ele><time>2026-04-04T08:29:46.107Z</time></trkpt><trkpt lat="44.3567659" lon="10.4590267"><ele>667.0</ele><time>2026-04-04T08:29:47.108Z</time></trkpt><trkpt lat="44.3566522" lon="10.4590051"><ele>667.0</ele><time>2026-04-04T08:29:48.087Z</time></trkpt><trkpt lat="44.3565414" lon="10.4589986"><ele>667.0</ele><time>2026-04-04T08:29:49.101Z</time></trkpt><trkpt lat="44.3564387" lon="10.4589532"><ele>667.0</ele><time>2026-04-04T08:29:50.102Z</time></trkpt><trkpt lat="44.3563467" lon="10.4588736"><ele>669.0</ele><time>2026-04-04T08:29:51.1Z</time></trkpt><trkpt lat="44.3562583" lon="10.4587568"><ele>671.0</ele><time>2026-04-04T08:29:52.099Z</time></trkpt><trkpt lat="44.3561723" lon="10.458636"><ele>673.0</ele><time>2026-04-04T08:29:53.112Z</time></trkpt><trkpt lat="44.3560866" lon="10.4585238"><ele>675.0</ele><time>2026-04-04T08:29:54.09Z</time></trkpt><trkpt lat="44.356002" lon="10.4584113"><ele>675.0</ele><time>2026-04-04T08:29:55.114Z</time></trkpt><trkpt lat="44.3559114" lon="10.4583071"><ele>675.0</ele><time>2026-04-04T08:29:56.102Z</time></trkpt><trkpt lat="44.3558088" lon="10.4582175"><ele>675.0</ele><time>2026-04-04T08:29:57.106Z</time></trkpt><trkpt lat="44.3556998" lon="10.4581673"><ele>675.0</ele><time>2026-04-04T08:29:58.11Z</time></trkpt><trkpt lat="44.3555904" lon="10.4581383"><ele>674.2</ele><time>2026-04-04T08:29:59.107Z</time></trkpt><trkpt lat="44.3554856" lon="10.4581141"><ele>673.4</ele><time>2026-04-04T08:30:00.107Z</time></trkpt><trkpt lat="44.3553965" lon="10.4580829"><ele>672.5999999999999</ele><time>2026-04-04T08:30:01.112Z</time></trkpt><trkpt lat="44.3553065" lon="10.4580358"><ele>671.8</ele><time>2026-04-04T08:30:02.11Z</time></trkpt><trkpt lat="44.3552203" lon="10.4579583"><ele>671.0</ele><time>2026-04-04T08:30:03.103Z</time></trkpt><trkpt lat="44.3551347" lon="10.4578402"><ele>674.6666666666666</ele><time>2026-04-04T08:30:04.121Z</time></trkpt><trkpt lat="44.3550426" lon="10.4576911"><ele>678.3333333333334</ele><time>2026-04-04T08:30:05.105Z</time></trkpt><trkpt lat="44.3549472" lon="10.4575283"><ele>682.0</ele><time>2026-04-04T08:30:06.089Z</time></trkpt><trkpt lat="44.3548461" lon="10.4573538"><ele>682.0</ele><time>2026-04-04T08:30:07.1Z</time></trkpt><trkpt lat="44.3547479" lon="10.4571756"><ele>682.0</ele><time>2026-04-04T08:30:08.093Z</time></trkpt><trkpt lat="44.3546099" lon="10.457015"><ele>682.0</ele><time>2026-04-04T08:30:09.113Z</time></trkpt><trkpt lat="44.3544158" lon="10.456859"><ele>682.0</ele><time>2026-04-04T08:30:10.098Z</time></trkpt><trkpt lat="44.3542112" lon="10.4566696"><ele>682.0</ele><time>2026-04-04T08:30:11.095Z</time></trkpt><trkpt lat="44.3540044" lon="10.456488"><ele>683.6666666666667</ele><time>2026-04-04T08:30:12.098Z</time></trkpt><trkpt lat="44.3537978" lon="10.456327"><ele>685.3333333333334</ele><time>2026-04-04T08:30:13.101Z</time></trkpt><trkpt lat="44.3536115" lon="10.4561838"><ele>687.0</ele><time>2026-04-04T08:30:14.099Z</time></trkpt><trkpt lat="44.3534492" lon="10.4560393"><ele>689.75</ele><time>2026-04-04T08:30:15.088Z</time></trkpt><trkpt lat="44.3533082" lon="10.4559236"><ele>692.5</ele><time>2026-04-04T08:30:16.086Z</time></trkpt><trkpt lat="44.3531815" lon="10.4558717"><ele>695.25</ele><time>2026-04-04T08:30:17.103Z</time></trkpt><trkpt lat="44.3530645" lon="10.4558807"><ele>698.0</ele><time>2026-04-04T08:30:18.09Z</time></trkpt><trkpt lat="44.3529507" lon="10.455969"><ele>698.0</ele><time>2026-04-04T08:30:19.102Z</time></trkpt><trkpt lat="44.3528553" lon="10.4561161"><ele>698.0</ele><time>2026-04-04T08:30:20.095Z</time></trkpt><trkpt lat="44.3528035" lon="10.4563061"><ele>698.0</ele><time>2026-04-04T08:30:21.088Z</time></trkpt><trkpt lat="44.3528027" lon="10.456573"><ele>698.0</ele><time>2026-04-04T08:30:22.094Z</time></trkpt><trkpt lat="44.3528153" lon="10.4568357"><ele>698.0</ele><time>2026-04-04T08:30:23.103Z</time></trkpt><trkpt lat="44.3528166" lon="10.4570798"><ele>698.0</ele><time>2026-04-04T08:30:24.09Z</time></trkpt><trkpt lat="44.3527715" lon="10.4573074"><ele>697.75</ele><time>2026-04-04T08:30:25.116Z</time></trkpt><trkpt lat="44.3526772" lon="10.4574644"><ele>697.5</ele><time>2026-04-04T08:30:26.113Z</time></trkpt><trkpt lat="44.3525645" lon="10.4575483"><ele>697.25</ele><time>2026-04-04T08:30:27.093Z</time></trkpt><trkpt lat="44.3524133" lon="10.4575189"><ele>697.0</ele><time>2026-04-04T08:30:28.103Z</time></trkpt><trkpt lat="44.3522442" lon="10.4573932"><ele>697.6666666666667</ele><time>2026-04-04T08:30:29.112Z</time></trkpt><trkpt lat="44.3520584" lon="10.4572269"><ele>698.3333333333334</ele><time>2026-04-04T08:30:30.09Z</time></trkpt><trkpt lat="44.3518699" lon="10.4570881"><ele>699.0</ele><time>2026-04-04T08:30:31.087Z</time></trkpt><trkpt lat="44.3517086" lon="10.4569742"><ele>700.6666666666666</ele><time>2026-04-04T08:30:32.11Z</time></trkpt><trkpt lat="44.3515475" lon="10.4568893"><ele>702.3333333333333</ele><time>2026-04-04T08:30:33.091Z</time></trkpt><trkpt lat="44.3513925" lon="10.4568957"><ele>704.0</ele><time>2026-04-04T08:30:34.101Z</time></trkpt><trkpt lat="44.3512512" lon="10.4569974"><ele>703.3333333333333</ele><time>2026-04-04T08:30:35.118Z</time></trkpt><trkpt lat="44.3511213" lon="10.4571846"><ele>702.6666666666666</ele><time>2026-04-04T08:30:36.096Z</time></trkpt><trkpt lat="44.3510043" lon="10.4574086"><ele>702.0</ele><time>2026-04-04T08:30:37.091Z</time></trkpt><trkpt lat="44.3508924" lon="10.4575674"><ele>702.0</ele><time>2026-04-04T08:30:38.096Z</time></trkpt><trkpt lat="44.3507733" lon="10.4576385"><ele>702.0</ele><time>2026-04-04T08:30:39.079Z</time></trkpt><trkpt lat="44.3506181" lon="10.4576211"><ele>702.0</ele><time>2026-04-04T08:30:40.093Z</time></trkpt><trkpt lat="44.3504509" lon="10.4575118"><ele>704.6666666666666</ele><time>2026-04-04T08:30:41.092Z</time></trkpt><trkpt lat="44.3502561" lon="10.4574588"><ele>707.3333333333333</ele><time>2026-04-04T08:30:42.097Z</time></trkpt><trkpt lat="44.3500195" lon="10.4574656"><ele>710.0</ele><time>2026-04-04T08:30:43.094Z</time></trkpt><trkpt lat="44.3497767" lon="10.4575737"><ele>718.0</ele><time>2026-04-04T08:30:44.083Z</time></trkpt><trkpt lat="44.3495316" lon="10.4577189"><ele>726.0</ele><time>2026-04-04T08:30:45.076Z</time></trkpt><trkpt lat="44.3493112" lon="10.4578753"><ele>726.3333333333334</ele><time>2026-04-04T08:30:46.086Z</time></trkpt><trkpt lat="44.3490967" lon="10.4579928"><ele>726.6666666666667</ele><time>2026-04-04T08:30:47.086Z</time></trkpt><trkpt lat="44.3488974" lon="10.458047"><ele>727.0</ele><time>2026-04-04T08:30:48.071Z</time></trkpt><trkpt lat="44.3487114" lon="10.4580763"><ele>727.0</ele><time>2026-04-04T08:30:49.085Z</time></trkpt><trkpt lat="44.34854" lon="10.4581489"><ele>727.0</ele><time>2026-04-04T08:30:50.085Z</time></trkpt><trkpt lat="44.3483918" lon="10.4582589"><ele>727.0</ele><time>2026-04-04T08:30:51.084Z</time></trkpt><trkpt lat="44.3482937" lon="10.4584746"><ele>727.0</ele><time>2026-04-04T08:30:52.084Z</time></trkpt><trkpt lat="44.3482323" lon="10.4587378"><ele>727.0</ele><time>2026-04-04T08:30:53.075Z</time></trkpt><trkpt lat="44.3481658" lon="10.4589774"><ele>727.0</ele><time>2026-04-04T08:30:54.083Z</time></trkpt><trkpt lat="44.3480695" lon="10.4591673"><ele>728.0</ele><time>2026-04-04T08:30:55.096Z</time></trkpt><trkpt lat="44.347924" lon="10.4593089"><ele>729.0</ele><time>2026-04-04T08:30:56.098Z</time></trkpt><trkpt lat="44.347746" lon="10.4594246"><ele>730.0</ele><time>2026-04-04T08:30:57.087Z</time></trkpt><trkpt lat="44.3475318" lon="10.4594565"><ele>730.0</ele><time>2026-04-04T08:30:58.098Z</time></trkpt><trkpt lat="44.347321" lon="10.4594673"><ele>730.0</ele><time>2026-04-04T08:30:59.095Z</time></trkpt><trkpt lat="44.3471271" lon="10.4594169"><ele>730.0</ele><time>2026-04-04T08:31:00.085Z</time></trkpt><trkpt lat="44.3469658" lon="10.4593487"><ele>732.3333333333334</ele><time>2026-04-04T08:31:01.09Z</time></trkpt><trkpt lat="44.3468031" lon="10.4593407"><ele>734.6666666666666</ele><time>2026-04-04T08:31:02.084Z</time></trkpt><trkpt lat="44.346647" lon="10.4594716"><ele>737.0</ele><time>2026-04-04T08:31:03.083Z</time></trkpt><trkpt lat="44.3465063" lon="10.4596805"><ele>735.3333333333333</ele><time>2026-04-04T08:31:04.072Z</time></trkpt><trkpt lat="44.3463704" lon="10.4598775"><ele>733.6666666666666</ele><time>2026-04-04T08:31:05.088Z</time></trkpt><trkpt lat="44.3462383" lon="10.4600262"><ele>732.0</ele><time>2026-04-04T08:31:06.089Z</time></trkpt><trkpt lat="44.3461074" lon="10.4601472"><ele>732.0</ele><time>2026-04-04T08:31:07.081Z</time></trkpt><trkpt lat="44.345968" lon="10.4602216"><ele>732.0</ele><time>2026-04-04T08:31:08.089Z</time></trkpt><trkpt lat="44.3458249" lon="10.4602265"><ele>732.0</ele><time>2026-04-04T08:31:09.074Z</time></trkpt><trkpt lat="44.3456796" lon="10.4601723"><ele>732.0</ele><time>2026-04-04T08:31:10.085Z</time></trkpt><trkpt lat="44.3455398" lon="10.4600682"><ele>733.0</ele><time>2026-04-04T08:31:11.083Z</time></trkpt><trkpt lat="44.3454166" lon="10.4599735"><ele>734.0</ele><time>2026-04-04T08:31:12.087Z</time></trkpt><trkpt lat="44.3452857" lon="10.459915"><ele>735.0</ele><time>2026-04-04T08:31:13.092Z</time></trkpt><trkpt lat="44.3451517" lon="10.4598928"><ele>736.0</ele><time>2026-04-04T08:31:14.108Z</time></trkpt><trkpt lat="44.3450152" lon="10.4599442"><ele>736.0</ele><time>2026-04-04T08:31:15.077Z</time></trkpt><trkpt lat="44.3449051" lon="10.4600597"><ele>736.0</ele><time>2026-04-04T08:31:16.107Z</time></trkpt><trkpt lat="44.34482" lon="10.4602001"><ele>736.0</ele><time>2026-04-04T08:31:17.086Z</time></trkpt><trkpt lat="44.3447307" lon="10.4603257"><ele>736.0</ele><time>2026-04-04T08:31:18.083Z</time></trkpt><trkpt lat="44.3446251" lon="10.4604316"><ele>738.5</ele><time>2026-04-04T08:31:19.098Z</time></trkpt><trkpt lat="44.344491" lon="10.4604915"><ele>741.0</ele><time>2026-04-04T08:31:20.105Z</time></trkpt><trkpt lat="44.3443554" lon="10.4605031"><ele>743.5</ele><time>2026-04-04T08:31:21.083Z</time></trkpt><trkpt lat="44.3442197" lon="10.4604517"><ele>746.0</ele><time>2026-04-04T08:31:22.102Z</time></trkpt><trkpt lat="44.3440769" lon="10.4603928"><ele>746.0</ele><time>2026-04-04T08:31:23.112Z</time></trkpt><trkpt lat="44.3439514" lon="10.4603186"><ele>746.0</ele><time>2026-04-04T08:31:24.083Z</time></trkpt><trkpt lat="44.3438185" lon="10.4602238"><ele>746.0</ele><time>2026-04-04T08:31:25.094Z</time></trkpt><trkpt lat="44.3436957" lon="10.4601309"><ele>746.0</ele><time>2026-04-04T08:31:26.077Z</time></trkpt><trkpt lat="44.3435624" lon="10.4600545"><ele>740.75</ele><time>2026-04-04T08:31:27.077Z</time></trkpt><trkpt lat="44.343425" lon="10.4600098"><ele>735.5</ele><time>2026-04-04T08:31:28.084Z</time></trkpt><trkpt lat="44.3432996" lon="10.4599432"><ele>730.25</ele><time>2026-04-04T08:31:29.095Z</time></trkpt><trkpt lat="44.3432078" lon="10.4598166"><ele>725.0</ele><time>2026-04-04T08:31:30.075Z</time></trkpt><trkpt lat="44.3431306" lon="10.4596566"><ele>728.5</ele><time>2026-04-04T08:31:31.092Z</time></trkpt><trkpt lat="44.3430733" lon="10.4594883"><ele>732.0</ele><time>2026-04-04T08:31:32.089Z</time></trkpt><trkpt lat="44.3430427" lon="10.4593059"><ele>735.5</ele><time>2026-04-04T08:31:33.081Z</time></trkpt><trkpt lat="44.3430203" lon="10.4591094"><ele>739.0</ele><time>2026-04-04T08:31:34.105Z</time></trkpt><trkpt lat="44.3430113" lon="10.4588374"><ele>721.5</ele><time>2026-04-04T08:31:35.083Z</time></trkpt><trkpt lat="44.3430159" lon="10.4584603"><ele>704.0</ele><time>2026-04-04T08:31:36.077Z</time></trkpt><trkpt lat="44.3430311" lon="10.4581506"><ele>716.0</ele><time>2026-04-04T08:31:37.099Z</time></trkpt><trkpt lat="44.3430564" lon="10.4578919"><ele>728.0</ele><time>2026-04-04T08:31:38.084Z</time></trkpt><trkpt lat="44.3430662" lon="10.4576596"><ele>740.0</ele><time>2026-04-04T08:31:39.084Z</time></trkpt><trkpt lat="44.3430619" lon="10.457444"><ele>727.3333333333333</ele><time>2026-04-04T08:31:40.087Z</time></trkpt><trkpt lat="44.3430465" lon="10.4572321"><ele>714.6666666666666</ele><time>2026-04-04T08:31:41.085Z</time></trkpt><trkpt lat="44.3430174" lon="10.4570209"><ele>702.0</ele><time>2026-04-04T08:31:42.083Z</time></trkpt><trkpt lat="44.3429689" lon="10.4568136"><ele>702.0</ele><time>2026-04-04T08:31:43.088Z</time></trkpt><trkpt lat="44.3429232" lon="10.4566096"><ele>702.0</ele><time>2026-04-04T08:31:44.094Z</time></trkpt><trkpt lat="44.3428749" lon="10.4564176"><ele>702.0</ele><time>2026-04-04T08:31:45.084Z</time></trkpt><trkpt lat="44.3428191" lon="10.4562255"><ele>702.0</ele><time>2026-04-04T08:31:46.088Z</time></trkpt><trkpt lat="44.3427726" lon="10.4560311"><ele>703.5</ele><time>2026-04-04T08:31:47.096Z</time></trkpt><trkpt lat="44.3427316" lon="10.4558425"><ele>705.0</ele><time>2026-04-04T08:31:48.085Z</time></trkpt><trkpt lat="44.3427014" lon="10.4556635"><ele>706.5</ele><time>2026-04-04T08:31:49.097Z</time></trkpt><trkpt lat="44.3427025" lon="10.4554686"><ele>708.0</ele><time>2026-04-04T08:31:50.094Z</time></trkpt><trkpt lat="44.3427339" lon="10.4552642"><ele>708.3333333333334</ele><time>2026-04-04T08:31:51.085Z</time></trkpt><trkpt lat="44.3428035" lon="10.4550355"><ele>708.6666666666667</ele><time>2026-04-04T08:31:52.094Z</time></trkpt><trkpt lat="44.3429256" lon="10.4547629"><ele>709.0</ele><time>2026-04-04T08:31:53.099Z</time></trkpt><trkpt lat="44.3430451" lon="10.4545151"><ele>714.0</ele><time>2026-04-04T08:31:54.083Z</time></trkpt><trkpt lat="44.3431449" lon="10.4542943"><ele>719.0</ele><time>2026-04-04T08:31:55.095Z</time></trkpt><trkpt lat="44.3431996" lon="10.4540853"><ele>724.0</ele><time>2026-04-04T08:31:56.081Z</time></trkpt><trkpt lat="44.3432341" lon="10.4538814"><ele>723.6666666666667</ele><time>2026-04-04T08:31:57.084Z</time></trkpt><trkpt lat="44.3431983" lon="10.4536672"><ele>723.3333333333334</ele><time>2026-04-04T08:31:58.091Z</time></trkpt><trkpt lat="44.3431104" lon="10.4534832"><ele>723.0</ele><time>2026-04-04T08:31:59.098Z</time></trkpt><trkpt lat="44.3429591" lon="10.4533497"><ele>719.6666666666666</ele><time>2026-04-04T08:32:00.084Z</time></trkpt><trkpt lat="44.3427831" lon="10.4532963"><ele>716.3333333333333</ele><time>2026-04-04T08:32:01.095Z</time></trkpt><trkpt lat="44.3426" lon="10.4532484"><ele>713.0</ele><time>2026-04-04T08:32:02.095Z</time></trkpt><trkpt lat="44.3424279" lon="10.4531152"><ele>714.0</ele><time>2026-04-04T08:32:03.08Z</time></trkpt><trkpt lat="44.342277" lon="10.452907"><ele>715.0</ele><time>2026-04-04T08:32:04.078Z</time></trkpt><trkpt lat="44.3421512" lon="10.4527026"><ele>716.0</ele><time>2026-04-04T08:32:05.092Z</time></trkpt><trkpt lat="44.3420265" lon="10.4525536"><ele>713.8</ele><time>2026-04-04T08:32:06.072Z</time></trkpt><trkpt lat="44.3419076" lon="10.4524758"><ele>711.5999999999999</ele><time>2026-04-04T08:32:07.095Z</time></trkpt><trkpt lat="44.3417977" lon="10.4524236"><ele>709.4</ele><time>2026-04-04T08:32:08.093Z</time></trkpt><trkpt lat="44.3417021" lon="10.4523759"><ele>707.2</ele><time>2026-04-04T08:32:09.085Z</time></trkpt><trkpt lat="44.3416261" lon="10.4523369"><ele>705.0</ele><time>2026-04-04T08:32:11.089Z</time></trkpt><trkpt lat="44.3415269" lon="10.4523098"><ele>705.0</ele><time>2026-04-04T08:32:13.092Z</time></trkpt><trkpt lat="44.341437" lon="10.4522674"><ele>705.0</ele><time>2026-04-04T08:32:15.091Z</time></trkpt><trkpt lat="44.3413571" lon="10.452223"><ele>705.0</ele><time>2026-04-04T08:32:17.095Z</time></trkpt><trkpt lat="44.3412961" lon="10.4521825"><ele>705.0</ele><time>2026-04-04T08:32:19.099Z</time></trkpt><trkpt lat="44.3412337" lon="10.4521387"><ele>705.0</ele><time>2026-04-04T08:33:36.098Z</time></trkpt><trkpt lat="44.3410859" lon="10.452189"><ele>704.25</ele><time>2026-04-04T08:33:38.103Z</time></trkpt><trkpt lat="44.3409652" lon="10.4522235"><ele>703.5</ele><time>2026-04-04T08:33:39.082Z</time></trkpt><trkpt lat="44.3408383" lon="10.4522794"><ele>702.75</ele><time>2026-04-04T08:33:40.097Z</time></trkpt><trkpt lat="44.3407277" lon="10.4523345"><ele>702.0</ele><time>2026-04-04T08:33:41.109Z</time></trkpt><trkpt lat="44.3406385" lon="10.4524309"><ele>702.0</ele><time>2026-04-04T08:33:42.085Z</time></trkpt><trkpt lat="44.3405916" lon="10.452546"><ele>702.0</ele><time>2026-04-04T08:33:43.096Z</time></trkpt><trkpt lat="44.3405503" lon="10.4526871"><ele>702.0</ele><time>2026-04-04T08:33:44.105Z</time></trkpt><trkpt lat="44.3405021" lon="10.4528081"><ele>702.0</ele><time>2026-04-04T08:33:45.086Z</time></trkpt><trkpt lat="44.3404459" lon="10.452918"><ele>702.0</ele><time>2026-04-04T08:33:46.1Z</time></trkpt><trkpt lat="44.3403804" lon="10.453015"><ele>700.6</ele><time>2026-04-04T08:33:47.091Z</time></trkpt><trkpt lat="44.3403019" lon="10.4530993"><ele>699.2</ele><time>2026-04-04T08:33:48.096Z</time></trkpt><trkpt lat="44.3402068" lon="10.4531634"><ele>697.8</ele><time>2026-04-04T08:33:49.108Z</time></trkpt><trkpt lat="44.3401006" lon="10.4532274"><ele>696.4</ele><time>2026-04-04T08:33:50.108Z</time></trkpt><trkpt lat="44.3399832" lon="10.4532959"><ele>695.0</ele><time>2026-04-04T08:33:51.103Z</time></trkpt><trkpt lat="44.3398507" lon="10.453376"><ele>693.0</ele><time>2026-04-04T08:33:52.099Z</time></trkpt><trkpt lat="44.3397092" lon="10.453449"><ele>691.0</ele><time>2026-04-04T08:33:53.116Z</time></trkpt><trkpt lat="44.3395656" lon="10.4534639"><ele>689.0</ele><time>2026-04-04T08:33:54.105Z</time></trkpt><trkpt lat="44.3394467" lon="10.4533837"><ele>687.0</ele><time>2026-04-04T08:33:55.108Z</time></trkpt><trkpt lat="44.3393503" lon="10.4532191"><ele>687.0</ele><time>2026-04-04T08:33:56.107Z</time></trkpt><trkpt lat="44.3393127" lon="10.4530128"><ele>687.0</ele><time>2026-04-04T08:33:57.104Z</time></trkpt><trkpt lat="44.339259" lon="10.4527639"><ele>687.0</ele><time>2026-04-04T08:33:58.099Z</time></trkpt><trkpt lat="44.3391663" lon="10.4525132"><ele>691.0</ele><time>2026-04-04T08:33:59.104Z</time></trkpt><trkpt lat="44.339041" lon="10.4522732"><ele>695.0</ele><time>2026-04-04T08:34:00.085Z</time></trkpt><trkpt lat="44.3389146" lon="10.4520507"><ele>699.0</ele><time>2026-04-04T08:34:01.089Z</time></trkpt><trkpt lat="44.3387785" lon="10.4518548"><ele>700.0</ele><time>2026-04-04T08:34:02.086Z</time></trkpt><trkpt lat="44.338636" lon="10.4517451"><ele>701.0</ele><time>2026-04-04T08:34:03.081Z</time></trkpt><trkpt lat="44.33849" lon="10.4517321"><ele>702.0</ele><time>2026-04-04T08:34:04.087Z</time></trkpt><trkpt lat="44.3383361" lon="10.4518084"><ele>702.0</ele><time>2026-04-04T08:34:05.1Z</time></trkpt><trkpt lat="44.3381429" lon="10.4519194"><ele>702.0</ele><time>2026-04-04T08:34:06.082Z</time></trkpt><trkpt lat="44.3379301" lon="10.4520052"><ele>702.0</ele><time>2026-04-04T08:34:07.089Z</time></trkpt><trkpt lat="44.3377024" lon="10.4520922"><ele>695.5</ele><time>2026-04-04T08:34:08.099Z</time></trkpt><trkpt lat="44.3374738" lon="10.4521827"><ele>689.0</ele><time>2026-04-04T08:34:09.091Z</time></trkpt><trkpt lat="44.3372512" lon="10.4522609"><ele>687.6666666666666</ele><time>2026-04-04T08:34:10.085Z</time></trkpt><trkpt lat="44.3370562" lon="10.4523274"><ele>686.3333333333334</ele><time>2026-04-04T08:34:11.101Z</time></trkpt><trkpt lat="44.3368759" lon="10.4523158"><ele>685.0</ele><time>2026-04-04T08:34:12.095Z</time></trkpt><trkpt lat="44.3366814" lon="10.4522483"><ele>691.5</ele><time>2026-04-04T08:34:13.088Z</time></trkpt><trkpt lat="44.3364736" lon="10.4521148"><ele>698.0</ele><time>2026-04-04T08:34:14.078Z</time></trkpt><trkpt lat="44.3362538" lon="10.4519765"><ele>698.0</ele><time>2026-04-04T08:34:15.087Z</time></trkpt><trkpt lat="44.3360222" lon="10.451891"><ele>698.0</ele><time>2026-04-04T08:34:16.085Z</time></trkpt><trkpt lat="44.3358042" lon="10.4518783"><ele>698.0</ele><time>2026-04-04T08:34:17.096Z</time></trkpt><trkpt lat="44.3355814" lon="10.4518757"><ele>698.0</ele><time>2026-04-04T08:34:18.088Z</time></trkpt><trkpt lat="44.3353906" lon="10.4518341"><ele>698.0</ele><time>2026-04-04T08:34:19.097Z</time></trkpt><trkpt lat="44.3352143" lon="10.4517119"><ele>699.3333333333333</ele><time>2026-04-04T08:34:20.097Z</time></trkpt><trkpt lat="44.335063" lon="10.4515143"><ele>700.6666666666666</ele><time>2026-04-04T08:34:21.081Z</time></trkpt><trkpt lat="44.3349357" lon="10.4513182"><ele>702.0</ele><time>2026-04-04T08:34:22.087Z</time></trkpt><trkpt lat="44.3347789" lon="10.4511688"><ele>698.6666666666666</ele><time>2026-04-04T08:34:23.103Z</time></trkpt><trkpt lat="44.3346181" lon="10.4511223"><ele>695.3333333333333</ele><time>2026-04-04T08:34:24.089Z</time></trkpt><trkpt lat="44.3344441" lon="10.4511619"><ele>692.0</ele><time>2026-04-04T08:34:25.093Z</time></trkpt><trkpt lat="44.3342544" lon="10.4512724"><ele>694.0</ele><time>2026-04-04T08:34:26.095Z</time></trkpt><trkpt lat="44.3340535" lon="10.451418"><ele>696.0</ele><time>2026-04-04T08:34:27.097Z</time></trkpt><trkpt lat="44.3338769" lon="10.4515507"><ele>698.0</ele><time>2026-04-04T08:34:28.093Z</time></trkpt><trkpt lat="44.333722" lon="10.4517375"><ele>698.0</ele><time>2026-04-04T08:34:29.108Z</time></trkpt><trkpt lat="44.3335852" lon="10.4520069"><ele>698.0</ele><time>2026-04-04T08:34:30.083Z</time></trkpt><trkpt lat="44.3334167" lon="10.4523269"><ele>692.5</ele><time>2026-04-04T08:34:31.082Z</time></trkpt><trkpt lat="44.3332425" lon="10.4526941"><ele>687.0</ele><time>2026-04-04T08:34:32.091Z</time></trkpt><trkpt lat="44.3330798" lon="10.4530271"><ele>692.5</ele><time>2026-04-04T08:34:33.093Z</time></trkpt><trkpt lat="44.3329572" lon="10.4533293"><ele>698.0</ele><time>2026-04-04T08:34:34.081Z</time></trkpt><trkpt lat="44.3328451" lon="10.453564"><ele>696.3333333333333</ele><time>2026-04-04T08:34:35.092Z</time></trkpt><trkpt lat="44.3327451" lon="10.4537935"><ele>694.6666666666666</ele><time>2026-04-04T08:34:36.091Z</time></trkpt><trkpt lat="44.3327106" lon="10.4540509"><ele>693.0</ele><time>2026-04-04T08:34:37.092Z</time></trkpt><trkpt lat="44.332748" lon="10.4543606"><ele>687.5</ele><time>2026-04-04T08:34:38.099Z</time></trkpt><trkpt lat="44.3327784" lon="10.4547102"><ele>682.0</ele><time>2026-04-04T08:34:39.081Z</time></trkpt><trkpt lat="44.3327977" lon="10.4550229"><ele>682.0</ele><time>2026-04-04T08:34:40.082Z</time></trkpt><trkpt lat="44.332789" lon="10.4552563"><ele>682.0</ele><time>2026-04-04T08:34:41.098Z</time></trkpt><trkpt lat="44.332753" lon="10.4554226"><ele>682.0</ele><time>2026-04-04T08:34:42.077Z</time></trkpt><trkpt lat="44.3326719" lon="10.4555456"><ele>682.0</ele><time>2026-04-04T08:34:43.099Z</time></trkpt><trkpt lat="44.3325413" lon="10.4556176"><ele>674.0</ele><time>2026-04-04T08:34:44.102Z</time></trkpt><trkpt lat="44.3323836" lon="10.4556256"><ele>666.0</ele><time>2026-04-04T08:34:45.088Z</time></trkpt><trkpt lat="44.3322071" lon="10.4555773"><ele>658.0</ele><time>2026-04-04T08:34:46.098Z</time></trkpt><trkpt lat="44.3320153" lon="10.4554657"><ele>663.0</ele><time>2026-04-04T08:34:47.095Z</time></trkpt><trkpt lat="44.3318352" lon="10.4553046"><ele>668.0</ele><time>2026-04-04T08:34:48.096Z</time></trkpt><trkpt lat="44.3316973" lon="10.4551126"><ele>673.0</ele><time>2026-04-04T08:34:49.088Z</time></trkpt><trkpt lat="44.3315729" lon="10.4549916"><ele>673.0</ele><time>2026-04-04T08:34:50.098Z</time></trkpt><trkpt lat="44.3314603" lon="10.4549341"><ele>673.0</ele><time>2026-04-04T08:34:51.096Z</time></trkpt><trkpt lat="44.3313544" lon="10.4549752"><ele>673.0</ele><time>2026-04-04T08:34:52.094Z</time></trkpt><trkpt lat="44.331253" lon="10.4551242"><ele>673.0</ele><time>2026-04-04T08:34:53.098Z</time></trkpt><trkpt lat="44.3311592" lon="10.4552555"><ele>677.0</ele><time>2026-04-04T08:34:54.082Z</time></trkpt><trkpt lat="44.3311351" lon="10.4555011"><ele>681.0</ele><time>2026-04-04T08:34:55.077Z</time></trkpt><trkpt lat="44.3311661" lon="10.4557804"><ele>685.0</ele><time>2026-04-04T08:34:56.085Z</time></trkpt><trkpt lat="44.3311844" lon="10.4561048"><ele>681.6666666666667</ele><time>2026-04-04T08:34:57.081Z</time></trkpt><trkpt lat="44.3311823" lon="10.456338"><ele>678.3333333333334</ele><time>2026-04-04T08:34:58.094Z</time></trkpt><trkpt lat="44.3311369" lon="10.4565236"><ele>675.0</ele><time>2026-04-04T08:34:59.109Z</time></trkpt><trkpt lat="44.3310237" lon="10.4567033"><ele>675.0</ele><time>2026-04-04T08:35:00.081Z</time></trkpt><trkpt lat="44.3308588" lon="10.4568423"><ele>675.0</ele><time>2026-04-04T08:35:01.073Z</time></trkpt><trkpt lat="44.3306422" lon="10.4569843"><ele>675.0</ele><time>2026-04-04T08:35:02.081Z</time></trkpt><trkpt lat="44.3304235" lon="10.4571294"><ele>679.0</ele><time>2026-04-04T08:35:03.07Z</time></trkpt><trkpt lat="44.3302401" lon="10.4572632"><ele>683.0</ele><time>2026-04-04T08:35:04.082Z</time></trkpt><trkpt lat="44.3300843" lon="10.4574337"><ele>687.0</ele><time>2026-04-04T08:35:05.092Z</time></trkpt><trkpt lat="44.3299729" lon="10.457656"><ele>687.0</ele><time>2026-04-04T08:35:06.074Z</time></trkpt><trkpt lat="44.3299078" lon="10.4579119"><ele>687.0</ele><time>2026-04-04T08:35:07.081Z</time></trkpt><trkpt lat="44.3298424" lon="10.45816"><ele>687.0</ele><time>2026-04-04T08:35:08.082Z</time></trkpt><trkpt lat="44.3297519" lon="10.4583562"><ele>688.3333333333334</ele><time>2026-04-04T08:35:09.085Z</time></trkpt><trkpt lat="44.3296284" lon="10.4584717"><ele>689.6666666666667</ele><time>2026-04-04T08:35:10.088Z</time></trkpt><trkpt lat="44.3294609" lon="10.4585543"><ele>691.0</ele><time>2026-04-04T08:35:11.089Z</time></trkpt><trkpt lat="44.3292827" lon="10.4586186"><ele>691.0</ele><time>2026-04-04T08:35:12.079Z</time></trkpt><trkpt lat="44.3291213" lon="10.4586769"><ele>691.0</ele><time>2026-04-04T08:35:13.072Z</time></trkpt><trkpt lat="44.3289707" lon="10.4587357"><ele>691.0</ele><time>2026-04-04T08:35:14.097Z</time></trkpt><trkpt lat="44.3288341" lon="10.4587825"><ele>690.5</ele><time>2026-04-04T08:35:15.081Z</time></trkpt><trkpt lat="44.3287042" lon="10.4588289"><ele>690.0</ele><time>2026-04-04T08:35:16.073Z</time></trkpt><trkpt lat="44.3285889" lon="10.4588718"><ele>689.5</ele><time>2026-04-04T08:35:17.079Z</time></trkpt><trkpt lat="44.3284756" lon="10.4589124"><ele>689.0</ele><time>2026-04-04T08:35:18.072Z</time></trkpt><trkpt lat="44.3283818" lon="10.4589679"><ele>689.0</ele><time>2026-04-04T08:35:19.074Z</time></trkpt><trkpt lat="44.3283018" lon="10.4590471"><ele>689.0</ele><time>2026-04-04T08:35:20.081Z</time></trkpt><trkpt lat="44.3282167" lon="10.4591283"><ele>689.0</ele><time>2026-04-04T08:35:21.073Z</time></trkpt><trkpt lat="44.3281443" lon="10.4592203"><ele>689.0</ele><time>2026-04-04T08:35:22.078Z</time></trkpt><trkpt lat="44.3280697" lon="10.4593057"><ele>689.0</ele><time>2026-04-04T08:35:23.084Z</time></trkpt><trkpt lat="44.3279928" lon="10.4593857"><ele>688.6</ele><time>2026-04-04T08:35:24.08Z</time></trkpt><trkpt lat="44.3279178" lon="10.4594662"><ele>688.2</ele><time>2026-04-04T08:35:25.076Z</time></trkpt><trkpt lat="44.3278409" lon="10.4595419"><ele>687.8000000000001</ele><time>2026-04-04T08:35:26.084Z</time></trkpt><trkpt lat="44.3277608" lon="10.459614"><ele>687.4000000000001</ele><time>2026-04-04T08:35:27.091Z</time></trkpt><trkpt lat="44.3276822" lon="10.4596837"><ele>687.0</ele><time>2026-04-04T08:35:28.078Z</time></trkpt><trkpt lat="44.3276048" lon="10.4597586"><ele>687.0</ele><time>2026-04-04T08:35:29.092Z</time></trkpt><trkpt lat="44.3275231" lon="10.4598348"><ele>687.0</ele><time>2026-04-04T08:35:30.086Z</time></trkpt><trkpt lat="44.3274435" lon="10.4599152"><ele>687.0</ele><time>2026-04-04T08:35:31.084Z</time></trkpt><trkpt lat="44.3273624" lon="10.4599923"><ele>687.0</ele><time>2026-04-04T08:35:32.087Z</time></trkpt><trkpt lat="44.3272725" lon="10.4600618"><ele>687.0</ele><time>2026-04-04T08:35:33.082Z</time></trkpt><trkpt lat="44.3271652" lon="10.4601188"><ele>692.6666666666666</ele><time>2026-04-04T08:35:34.08Z</time></trkpt><trkpt lat="44.3270376" lon="10.4601709"><ele>698.3333333333333</ele><time>2026-04-04T08:35:35.089Z</time></trkpt><trkpt lat="44.3268601" lon="10.4602097"><ele>704.0</ele><time>2026-04-04T08:35:36.083Z</time></trkpt><trkpt lat="44.3265838" lon="10.4602392"><ele>706.5</ele><time>2026-04-04T08:35:37.092Z</time></trkpt><trkpt lat="44.3262734" lon="10.4602795"><ele>709.0</ele><time>2026-04-04T08:35:38.089Z</time></trkpt><trkpt lat="44.3260195" lon="10.4603001"><ele>709.0</ele><time>2026-04-04T08:35:39.076Z</time></trkpt><trkpt lat="44.3257848" lon="10.4602655"><ele>709.0</ele><time>2026-04-04T08:35:40.078Z</time></trkpt><trkpt lat="44.3255607" lon="10.4601763"><ele>710.6666666666667</ele><time>2026-04-04T08:35:41.076Z</time></trkpt><trkpt lat="44.3253763" lon="10.4600763"><ele>712.3333333333334</ele><time>2026-04-04T08:35:42.073Z</time></trkpt><trkpt lat="44.3252157" lon="10.4600131"><ele>714.0</ele><time>2026-04-04T08:35:43.065Z</time></trkpt><trkpt lat="44.3250362" lon="10.4600189"><ele>714.0</ele><time>2026-04-04T08:35:44.074Z</time></trkpt><trkpt lat="44.3248272" lon="10.4601214"><ele>714.0</ele><time>2026-04-04T08:35:45.084Z</time></trkpt><trkpt lat="44.3245809" lon="10.4602846"><ele>707.0</ele><time>2026-04-04T08:35:46.07Z</time></trkpt><trkpt lat="44.3243063" lon="10.4604508"><ele>700.0</ele><time>2026-04-04T08:35:47.077Z</time></trkpt><trkpt lat="44.3240237" lon="10.4606111"><ele>712.5</ele><time>2026-04-04T08:35:48.071Z</time></trkpt><trkpt lat="44.323778" lon="10.4607748"><ele>725.0</ele><time>2026-04-04T08:35:49.084Z</time></trkpt><trkpt lat="44.3235782" lon="10.4609342"><ele>725.0</ele><time>2026-04-04T08:35:50.08Z</time></trkpt><trkpt lat="44.3234012" lon="10.4611064"><ele>725.0</ele><time>2026-04-04T08:35:51.08Z</time></trkpt><trkpt lat="44.3232427" lon="10.4612569"><ele>725.0</ele><time>2026-04-04T08:35:52.085Z</time></trkpt><trkpt lat="44.3230687" lon="10.4613318"><ele>728.6666666666666</ele><time>2026-04-04T08:35:53.085Z</time></trkpt><trkpt lat="44.3228815" lon="10.4613273"><ele>732.3333333333334</ele><time>2026-04-04T08:35:54.094Z</time></trkpt><trkpt lat="44.3227106" lon="10.4612627"><ele>736.0</ele><time>2026-04-04T08:35:55.085Z</time></trkpt><trkpt lat="44.3225498" lon="10.4611084"><ele>736.0</ele><time>2026-04-04T08:35:56.092Z</time></trkpt><trkpt lat="44.3224258" lon="10.4609416"><ele>736.0</ele><time>2026-04-04T08:35:57.078Z</time></trkpt><trkpt lat="44.3223162" lon="10.460851"><ele>736.0</ele><time>2026-04-04T08:35:58.08Z</time></trkpt><trkpt lat="44.3222037" lon="10.4608569"><ele>736.0</ele><time>2026-04-04T08:35:59.072Z</time></trkpt><trkpt lat="44.3221089" lon="10.4609543"><ele>734.6666666666667</ele><time>2026-04-04T08:36:00.071Z</time></trkpt><trkpt lat="44.3220749" lon="10.4611374"><ele>733.3333333333334</ele><time>2026-04-04T08:36:01.068Z</time></trkpt><trkpt lat="44.322026" lon="10.4613916"><ele>732.0</ele><time>2026-04-04T08:36:02.077Z</time></trkpt><trkpt lat="44.3219595" lon="10.4616203"><ele>732.0</ele><time>2026-04-04T08:36:03.057Z</time></trkpt><trkpt lat="44.3218563" lon="10.4617951"><ele>732.0</ele><time>2026-04-04T08:36:04.157Z</time></trkpt><trkpt lat="44.3216994" lon="10.4619156"><ele>732.0</ele><time>2026-04-04T08:36:05.083Z</time></trkpt><trkpt lat="44.3214538" lon="10.4620279"><ele>737.5</ele><time>2026-04-04T08:36:06.064Z</time></trkpt><trkpt lat="44.3211565" lon="10.4620988"><ele>743.0</ele><time>2026-04-04T08:36:07.067Z</time></trkpt><trkpt lat="44.3208804" lon="10.4621393"><ele>743.0</ele><time>2026-04-04T08:36:08.063Z</time></trkpt><trkpt lat="44.3206399" lon="10.4621138"><ele>743.0</ele><time>2026-04-04T08:36:09.056Z</time></trkpt><trkpt lat="44.3203983" lon="10.4620306"><ele>736.5</ele><time>2026-04-04T08:36:10.065Z</time></trkpt><trkpt lat="44.3201862" lon="10.4619236"><ele>730.0</ele><time>2026-04-04T08:36:11.055Z</time></trkpt><trkpt lat="44.3199868" lon="10.4617731"><ele>730.0</ele><time>2026-04-04T08:36:12.054Z</time></trkpt><trkpt lat="44.3198075" lon="10.461584"><ele>730.0</ele><time>2026-04-04T08:36:13.061Z</time></trkpt><trkpt lat="44.3196033" lon="10.4614691"><ele>730.0</ele><time>2026-04-04T08:36:14.063Z</time></trkpt><trkpt lat="44.3193913" lon="10.4614071"><ele>725.5</ele><time>2026-04-04T08:36:15.054Z</time></trkpt><trkpt lat="44.3191543" lon="10.4614248"><ele>721.0</ele><time>2026-04-04T08:36:16.073Z</time></trkpt><trkpt lat="44.3189302" lon="10.4614832"><ele>726.3333333333334</ele><time>2026-04-04T08:36:17.06Z</time></trkpt><trkpt lat="44.3187327" lon="10.461582"><ele>731.6666666666666</ele><time>2026-04-04T08:36:18.055Z</time></trkpt><trkpt lat="44.3185749" lon="10.4617416"><ele>737.0</ele><time>2026-04-04T08:36:19.058Z</time></trkpt><trkpt lat="44.3184182" lon="10.4619711"><ele>732.0</ele><time>2026-04-04T08:36:20.057Z</time></trkpt><trkpt lat="44.3182744" lon="10.4621699"><ele>727.0</ele><time>2026-04-04T08:36:21.071Z</time></trkpt><trkpt lat="44.3181082" lon="10.4623232"><ele>722.0</ele><time>2026-04-04T08:36:22.074Z</time></trkpt><trkpt lat="44.3178721" lon="10.4624217"><ele>722.0</ele><time>2026-04-04T08:36:23.09Z</time></trkpt><trkpt lat="44.3176227" lon="10.4624651"><ele>722.0</ele><time>2026-04-04T08:36:24.081Z</time></trkpt><trkpt lat="44.3174061" lon="10.4624381"><ele>722.0</ele><time>2026-04-04T08:36:25.069Z</time></trkpt><trkpt lat="44.3172447" lon="10.4624339"><ele>722.0</ele><time>2026-04-04T08:36:26.083Z</time></trkpt><trkpt lat="44.3171309" lon="10.4624447"><ele>722.0</ele><time>2026-04-04T08:36:27.067Z</time></trkpt><trkpt lat="44.3170639" lon="10.4624635"><ele>722.0</ele><time>2026-04-04T08:36:28.079Z</time></trkpt><trkpt lat="44.3170072" lon="10.4625412"><ele>722.0</ele><time>2026-04-04T08:36:59.088Z</time></trkpt><trkpt lat="44.3169433" lon="10.4626075"><ele>720.25</ele><time>2026-04-04T08:37:01.081Z</time></trkpt><trkpt lat="44.3168897" lon="10.4626766"><ele>718.5</ele><time>2026-04-04T08:37:02.086Z</time></trkpt><trkpt lat="44.3168204" lon="10.4627763"><ele>716.75</ele><time>2026-04-04T08:37:03.074Z</time></trkpt><trkpt lat="44.3167412" lon="10.4629347"><ele>715.0</ele><time>2026-04-04T08:37:04.062Z</time></trkpt><trkpt lat="44.3166335" lon="10.4631446"><ele>715.0</ele><time>2026-04-04T08:37:05.075Z</time></trkpt><trkpt lat="44.3165177" lon="10.4633928"><ele>715.0</ele><time>2026-04-04T08:37:06.067Z</time></trkpt><trkpt lat="44.3164354" lon="10.4635989"><ele>715.0</ele><time>2026-04-04T08:37:07.078Z</time></trkpt><trkpt lat="44.3163504" lon="10.4637943"><ele>717.3333333333334</ele><time>2026-04-04T08:37:08.094Z</time></trkpt><trkpt lat="44.3162471" lon="10.4639836"><ele>719.6666666666666</ele><time>2026-04-04T08:37:09.091Z</time></trkpt><trkpt lat="44.3161338" lon="10.4641708"><ele>722.0</ele><time>2026-04-04T08:37:10.095Z</time></trkpt><trkpt lat="44.3160002" lon="10.4643081"><ele>722.0</ele><time>2026-04-04T08:37:11.098Z</time></trkpt><trkpt lat="44.3158664" lon="10.4644093"><ele>722.0</ele><time>2026-04-04T08:37:12.087Z</time></trkpt><trkpt lat="44.3157219" lon="10.4644677"><ele>722.0</ele><time>2026-04-04T08:37:13.096Z</time></trkpt><trkpt lat="44.3155548" lon="10.4644448"><ele>725.3333333333333</ele><time>2026-04-04T08:37:14.106Z</time></trkpt><trkpt lat="44.3153868" lon="10.4643863"><ele>728.6666666666666</ele><time>2026-04-04T08:37:15.088Z</time></trkpt><trkpt lat="44.3152256" lon="10.4642757"><ele>732.0</ele><time>2026-04-04T08:37:16.091Z</time></trkpt><trkpt lat="44.3150812" lon="10.4641023"><ele>732.0</ele><time>2026-04-04T08:37:17.089Z</time></trkpt><trkpt lat="44.3149523" lon="10.4639185"><ele>732.0</ele><time>2026-04-04T08:37:18.109Z</time></trkpt><trkpt lat="44.3148161" lon="10.4637353"><ele>732.0</ele><time>2026-04-04T08:37:19.089Z</time></trkpt><trkpt lat="44.3146852" lon="10.4635538"><ele>739.3333333333334</ele><time>2026-04-04T08:37:20.09Z</time></trkpt><trkpt lat="44.3145966" lon="10.4633463"><ele>746.6666666666667</ele><time>2026-04-04T08:37:21.094Z</time></trkpt><trkpt lat="44.3145528" lon="10.4631014"><ele>754.0</ele><time>2026-04-04T08:37:22.084Z</time></trkpt><trkpt lat="44.3145577" lon="10.4628578"><ele>754.0</ele><time>2026-04-04T08:37:23.092Z</time></trkpt><trkpt lat="44.3145321" lon="10.4626092"><ele>754.0</ele><time>2026-04-04T08:37:24.106Z</time></trkpt><trkpt lat="44.314476" lon="10.462347"><ele>754.0</ele><time>2026-04-04T08:37:25.102Z</time></trkpt><trkpt lat="44.3143362" lon="10.4620578"><ele>749.0</ele><time>2026-04-04T08:37:26.092Z</time></trkpt><trkpt lat="44.3142026" lon="10.4618001"><ele>744.0</ele><time>2026-04-04T08:37:27.092Z</time></trkpt><trkpt lat="44.3140617" lon="10.4615613"><ele>739.0</ele><time>2026-04-04T08:37:28.087Z</time></trkpt><trkpt lat="44.313917" lon="10.4613504"><ele>739.6666666666667</ele><time>2026-04-04T08:37:29.103Z</time></trkpt><trkpt lat="44.3137628" lon="10.4611804"><ele>740.3333333333334</ele><time>2026-04-04T08:37:30.091Z</time></trkpt><trkpt lat="44.3136179" lon="10.4610173"><ele>741.0</ele><time>2026-04-04T08:37:31.085Z</time></trkpt><trkpt lat="44.3134743" lon="10.4608914"><ele>741.0</ele><time>2026-04-04T08:37:32.105Z</time></trkpt><trkpt lat="44.3133014" lon="10.4608268"><ele>741.0</ele><time>2026-04-04T08:37:33.092Z</time></trkpt><trkpt lat="44.313114" lon="10.4608276"><ele>741.0</ele><time>2026-04-04T08:37:34.088Z</time></trkpt><trkpt lat="44.3129152" lon="10.4608732"><ele>744.3333333333334</ele><time>2026-04-04T08:37:35.091Z</time></trkpt><trkpt lat="44.3127142" lon="10.4609302"><ele>747.6666666666667</ele><time>2026-04-04T08:37:36.084Z</time></trkpt><trkpt lat="44.3125119" lon="10.4610024"><ele>751.0</ele><time>2026-04-04T08:37:37.079Z</time></trkpt><trkpt lat="44.3123173" lon="10.4610567"><ele>757.6666666666667</ele><time>2026-04-04T08:37:38.087Z</time></trkpt><trkpt lat="44.3121445" lon="10.4610898"><ele>764.3333333333334</ele><time>2026-04-04T08:37:39.08Z</time></trkpt><trkpt lat="44.3119949" lon="10.4610624"><ele>771.0</ele><time>2026-04-04T08:37:40.094Z</time></trkpt><trkpt lat="44.3118703" lon="10.4609656"><ele>771.0</ele><time>2026-04-04T08:37:41.096Z</time></trkpt><trkpt lat="44.3117687" lon="10.4607995"><ele>771.0</ele><time>2026-04-04T08:37:42.087Z</time></trkpt><trkpt lat="44.3117162" lon="10.460572"><ele>771.0</ele><time>2026-04-04T08:37:43.087Z</time></trkpt><trkpt lat="44.3116441" lon="10.460327"><ele>766.3333333333334</ele><time>2026-04-04T08:37:44.098Z</time></trkpt><trkpt lat="44.3115745" lon="10.4600791"><ele>761.6666666666667</ele><time>2026-04-04T08:37:45.093Z</time></trkpt><trkpt lat="44.3114873" lon="10.459828"><ele>757.0</ele><time>2026-04-04T08:37:46.093Z</time></trkpt><trkpt lat="44.3113795" lon="10.4595684"><ele>766.6666666666667</ele><time>2026-04-04T08:37:47.095Z</time></trkpt><trkpt lat="44.3112664" lon="10.4593153"><ele>776.3333333333334</ele><time>2026-04-04T08:37:48.11Z</time></trkpt><trkpt lat="44.3111566" lon="10.4590715"><ele>786.0</ele><time>2026-04-04T08:37:49.095Z</time></trkpt><trkpt lat="44.3110564" lon="10.4588218"><ele>782.6666666666667</ele><time>2026-04-04T08:37:50.098Z</time></trkpt><trkpt lat="44.3109579" lon="10.4585679"><ele>779.3333333333334</ele><time>2026-04-04T08:37:51.096Z</time></trkpt><trkpt lat="44.3108683" lon="10.45832"><ele>776.0</ele><time>2026-04-04T08:37:52.084Z</time></trkpt><trkpt lat="44.3107793" lon="10.4580478"><ele>776.0</ele><time>2026-04-04T08:37:53.1Z</time></trkpt><trkpt lat="44.3107329" lon="10.4577478"><ele>776.0</ele><time>2026-04-04T08:37:54.082Z</time></trkpt><trkpt lat="44.3107074" lon="10.4574175"><ele>776.5</ele><time>2026-04-04T08:37:55.082Z</time></trkpt><trkpt lat="44.3106736" lon="10.4570872"><ele>777.0</ele><time>2026-04-04T08:37:56.093Z</time></trkpt><trkpt lat="44.3106348" lon="10.4567729"><ele>777.0</ele><time>2026-04-04T08:37:57.083Z</time></trkpt><trkpt lat="44.3105807" lon="10.4564848"><ele>777.0</ele><time>2026-04-04T08:37:58.093Z</time></trkpt><trkpt lat="44.310503" lon="10.4562352"><ele>777.0</ele><time>2026-04-04T08:37:59.096Z</time></trkpt><trkpt lat="44.3104224" lon="10.456013"><ele>778.75</ele><time>2026-04-04T08:38:00.095Z</time></trkpt><trkpt lat="44.3103551" lon="10.4558369"><ele>780.5</ele><time>2026-04-04T08:38:01.105Z</time></trkpt><trkpt lat="44.3102811" lon="10.4557257"><ele>782.25</ele><time>2026-04-04T08:38:02.099Z</time></trkpt><trkpt lat="44.3101752" lon="10.4556866"><ele>784.0</ele><time>2026-04-04T08:38:03.108Z</time></trkpt><trkpt lat="44.3100698" lon="10.4557454"><ele>784.0</ele><time>2026-04-04T08:38:04.093Z</time></trkpt><trkpt lat="44.3100001" lon="10.4558947"><ele>784.0</ele><time>2026-04-04T08:38:05.107Z</time></trkpt><trkpt lat="44.3099831" lon="10.4560998"><ele>784.0</ele><time>2026-04-04T08:38:06.097Z</time></trkpt><trkpt lat="44.3100017" lon="10.4563767"><ele>792.0</ele><time>2026-04-04T08:38:07.087Z</time></trkpt><trkpt lat="44.3100226" lon="10.4567026"><ele>800.0</ele><time>2026-04-04T08:38:08.095Z</time></trkpt><trkpt lat="44.3100347" lon="10.4570857"><ele>804.0</ele><time>2026-04-04T08:38:09.096Z</time></trkpt><trkpt lat="44.3100638" lon="10.4575456"><ele>808.0</ele><time>2026-04-04T08:38:10.088Z</time></trkpt><trkpt lat="44.3100914" lon="10.458008"><ele>812.5</ele><time>2026-04-04T08:38:11.103Z</time></trkpt><trkpt lat="44.3101272" lon="10.4584026"><ele>817.0</ele><time>2026-04-04T08:38:12.104Z</time></trkpt><trkpt lat="44.3101415" lon="10.4587411"><ele>819.6666666666666</ele><time>2026-04-04T08:38:13.087Z</time></trkpt><trkpt lat="44.3101324" lon="10.459042"><ele>822.3333333333333</ele><time>2026-04-04T08:38:14.1Z</time></trkpt><trkpt lat="44.3101272" lon="10.4593063"><ele>825.0</ele><time>2026-04-04T08:38:15.09Z</time></trkpt><trkpt lat="44.3101645" lon="10.4595231"><ele>828.6666666666667</ele><time>2026-04-04T08:38:16.089Z</time></trkpt><trkpt lat="44.3102649" lon="10.4597353"><ele>832.3333333333334</ele><time>2026-04-04T08:38:17.079Z</time></trkpt><trkpt lat="44.3103538" lon="10.4599342"><ele>836.0</ele><time>2026-04-04T08:38:18.082Z</time></trkpt><trkpt lat="44.3103859" lon="10.4601609"><ele>836.0</ele><time>2026-04-04T08:38:19.101Z</time></trkpt><trkpt lat="44.3103533" lon="10.4604001"><ele>836.0</ele><time>2026-04-04T08:38:20.084Z</time></trkpt><trkpt lat="44.3103533" lon="10.4606326"><ele>836.0</ele><time>2026-04-04T08:38:21.093Z</time></trkpt><trkpt lat="44.3104033" lon="10.4608198"><ele>837.25</ele><time>2026-04-04T08:38:22.077Z</time></trkpt><trkpt lat="44.3105234" lon="10.4609655"><ele>838.5</ele><time>2026-04-04T08:38:23.1Z</time></trkpt><trkpt lat="44.3106473" lon="10.4610792"><ele>839.75</ele><time>2026-04-04T08:38:24.091Z</time></trkpt><trkpt lat="44.3107239" lon="10.461222"><ele>841.0</ele><time>2026-04-04T08:38:25.093Z</time></trkpt><trkpt lat="44.3107354" lon="10.4614193"><ele>841.6666666666666</ele><time>2026-04-04T08:38:26.109Z</time></trkpt><trkpt lat="44.3106747" lon="10.4616396"><ele>842.3333333333333</ele><time>2026-04-04T08:38:27.111Z</time></trkpt><trkpt lat="44.3106057" lon="10.4618616"><ele>843.0</ele><time>2026-04-04T08:38:28.094Z</time></trkpt><trkpt lat="44.3105494" lon="10.4620717"><ele>843.6666666666667</ele><time>2026-04-04T08:38:29.11Z</time></trkpt><trkpt lat="44.3105401" lon="10.462298"><ele>844.3333333333334</ele><time>2026-04-04T08:38:30.098Z</time></trkpt><trkpt lat="44.3106142" lon="10.4625517"><ele>845.0</ele><time>2026-04-04T08:38:31.095Z</time></trkpt><trkpt lat="44.31072" lon="10.4628143"><ele>843.6666666666667</ele><time>2026-04-04T08:38:32.105Z</time></trkpt><trkpt lat="44.3108159" lon="10.463073"><ele>842.3333333333333</ele><time>2026-04-04T08:38:33.083Z</time></trkpt><trkpt lat="44.3108923" lon="10.4633166"><ele>841.0</ele><time>2026-04-04T08:38:34.092Z</time></trkpt><trkpt lat="44.3109674" lon="10.4635574"><ele>845.0</ele><time>2026-04-04T08:38:35.103Z</time></trkpt><trkpt lat="44.3110481" lon="10.4637957"><ele>849.0</ele><time>2026-04-04T08:38:36.082Z</time></trkpt><trkpt lat="44.3111447" lon="10.4639971"><ele>853.0</ele><time>2026-04-04T08:38:37.098Z</time></trkpt><trkpt lat="44.3112876" lon="10.4641287"><ele>849.6666666666666</ele><time>2026-04-04T08:38:38.09Z</time></trkpt><trkpt lat="44.3114817" lon="10.4641688"><ele>846.3333333333333</ele><time>2026-04-04T08:38:39.083Z</time></trkpt><trkpt lat="44.3116961" lon="10.4641809"><ele>843.0</ele><time>2026-04-04T08:38:40.093Z</time></trkpt><trkpt lat="44.3118817" lon="10.4641702"><ele>843.0</ele><time>2026-04-04T08:38:41.107Z</time></trkpt><trkpt lat="44.3120304" lon="10.4641765"><ele>843.0</ele><time>2026-04-04T08:38:42.087Z</time></trkpt><trkpt lat="44.3121369" lon="10.4642673"><ele>843.0</ele><time>2026-04-04T08:38:43.102Z</time></trkpt><trkpt lat="44.3121998" lon="10.4644131"><ele>843.0</ele><time>2026-04-04T08:38:44.099Z</time></trkpt><trkpt lat="44.3121949" lon="10.4645802"><ele>846.75</ele><time>2026-04-04T08:38:45.089Z</time></trkpt><trkpt lat="44.3121135" lon="10.4647119"><ele>850.5</ele><time>2026-04-04T08:38:46.091Z</time></trkpt><trkpt lat="44.3120017" lon="10.464819"><ele>854.25</ele><time>2026-04-04T08:38:47.111Z</time></trkpt><trkpt lat="44.3118681" lon="10.4648411"><ele>858.0</ele><time>2026-04-04T08:38:48.098Z</time></trkpt><trkpt lat="44.3117129" lon="10.4647997"><ele>858.0</ele><time>2026-04-04T08:38:49.101Z</time></trkpt><trkpt lat="44.3115504" lon="10.4647308"><ele>858.0</ele><time>2026-04-04T08:38:50.107Z</time></trkpt><trkpt lat="44.3113518" lon="10.4646487"><ele>858.0</ele><time>2026-04-04T08:38:51.081Z</time></trkpt><trkpt lat="44.3111438" lon="10.4645896"><ele>856.3333333333333</ele><time>2026-04-04T08:38:52.087Z</time></trkpt><trkpt lat="44.3109514" lon="10.46456"><ele>854.6666666666666</ele><time>2026-04-04T08:38:53.108Z</time></trkpt><trkpt lat="44.3107937" lon="10.4645926"><ele>853.0</ele><time>2026-04-04T08:38:54.088Z</time></trkpt><trkpt lat="44.3106614" lon="10.4647187"><ele>855.3333333333333</ele><time>2026-04-04T08:38:55.095Z</time></trkpt><trkpt lat="44.3105632" lon="10.464926"><ele>857.6666666666667</ele><time>2026-04-04T08:38:56.093Z</time></trkpt><trkpt lat="44.3104694" lon="10.4652109"><ele>860.0</ele><time>2026-04-04T08:38:57.087Z</time></trkpt><trkpt lat="44.3103853" lon="10.4655467"><ele>863.0</ele><time>2026-04-04T08:38:58.093Z</time></trkpt><trkpt lat="44.3102657" lon="10.4658328"><ele>866.0</ele><time>2026-04-04T08:38:59.104Z</time></trkpt><trkpt lat="44.3101215" lon="10.4660614"><ele>866.0</ele><time>2026-04-04T08:39:00.081Z</time></trkpt><trkpt lat="44.309927" lon="10.4662339"><ele>866.0</ele><time>2026-04-04T08:39:01.088Z</time></trkpt><trkpt lat="44.3097167" lon="10.4663584"><ele>872.0</ele><time>2026-04-04T08:39:02.097Z</time></trkpt><trkpt lat="44.3095121" lon="10.4664047"><ele>878.0</ele><time>2026-04-04T08:39:03.088Z</time></trkpt><trkpt lat="44.309265" lon="10.4663734"><ele>878.0</ele><time>2026-04-04T08:39:04.084Z</time></trkpt><trkpt lat="44.3090315" lon="10.4663297"><ele>878.0</ele><time>2026-04-04T08:39:05.095Z</time></trkpt><trkpt lat="44.3088334" lon="10.4662702"><ele>878.0</ele><time>2026-04-04T08:39:06.079Z</time></trkpt><trkpt lat="44.3086579" lon="10.4661585"><ele>878.3333333333334</ele><time>2026-04-04T08:39:07.089Z</time></trkpt><trkpt lat="44.308515" lon="10.4659653"><ele>878.6666666666667</ele><time>2026-04-04T08:39:08.088Z</time></trkpt><trkpt lat="44.3084021" lon="10.4657166"><ele>879.0</ele><time>2026-04-04T08:39:09.084Z</time></trkpt><trkpt lat="44.3082819" lon="10.4654352"><ele>879.0</ele><time>2026-04-04T08:39:10.098Z</time></trkpt><trkpt lat="44.3081739" lon="10.4651122"><ele>879.0</ele><time>2026-04-04T08:39:11.098Z</time></trkpt><trkpt lat="44.3081074" lon="10.4647714"><ele>878.0</ele><time>2026-04-04T08:39:12.091Z</time></trkpt><trkpt lat="44.3080827" lon="10.4644479"><ele>877.0</ele><time>2026-04-04T08:39:13.098Z</time></trkpt><trkpt lat="44.3080466" lon="10.4641501"><ele>876.0</ele><time>2026-04-04T08:39:14.106Z</time></trkpt><trkpt lat="44.3079771" lon="10.463879"><ele>883.0</ele><time>2026-04-04T08:39:15.095Z</time></trkpt><trkpt lat="44.3078393" lon="10.4636341"><ele>890.0</ele><time>2026-04-04T08:39:16.1Z</time></trkpt><trkpt lat="44.3076752" lon="10.4633866"><ele>890.0</ele><time>2026-04-04T08:39:17.106Z</time></trkpt><trkpt lat="44.3075118" lon="10.4631594"><ele>890.0</ele><time>2026-04-04T08:39:18.098Z</time></trkpt><trkpt lat="44.3073756" lon="10.4629465"><ele>890.0</ele><time>2026-04-04T08:39:19.102Z</time></trkpt><trkpt lat="44.3072598" lon="10.4627219"><ele>895.0</ele><time>2026-04-04T08:39:20.112Z</time></trkpt><trkpt lat="44.3071673" lon="10.4624884"><ele>900.0</ele><time>2026-04-04T08:39:21.11Z</time></trkpt><trkpt lat="44.3071056" lon="10.4622456"><ele>905.0</ele><time>2026-04-04T08:39:22.107Z</time></trkpt><trkpt lat="44.3070737" lon="10.4620028"><ele>905.0</ele><time>2026-04-04T08:39:23.113Z</time></trkpt><trkpt lat="44.3070236" lon="10.4617786"><ele>905.0</ele><time>2026-04-04T08:39:24.105Z</time></trkpt><trkpt lat="44.3069482" lon="10.4615838"><ele>905.0</ele><time>2026-04-04T08:39:25.106Z</time></trkpt><trkpt lat="44.3068658" lon="10.461413"><ele>904.0</ele><time>2026-04-04T08:39:26.116Z</time></trkpt><trkpt lat="44.3067967" lon="10.4612543"><ele>903.0</ele><time>2026-04-04T08:39:27.106Z</time></trkpt><trkpt lat="44.3066964" lon="10.4611435"><ele>902.0</ele><time>2026-04-04T08:39:28.116Z</time></trkpt><trkpt lat="44.3065646" lon="10.4611019"><ele>901.0</ele><time>2026-04-04T08:39:29.119Z</time></trkpt><trkpt lat="44.3064103" lon="10.4611036"><ele>899.5</ele><time>2026-04-04T08:39:30.106Z</time></trkpt><trkpt lat="44.3062527" lon="10.4611098"><ele>898.0</ele><time>2026-04-04T08:39:31.097Z</time></trkpt><trkpt lat="44.3061112" lon="10.4611326"><ele>896.5</ele><time>2026-04-04T08:39:32.099Z</time></trkpt><trkpt lat="44.3059914" lon="10.4611813"><ele>895.0</ele><time>2026-04-04T08:39:33.096Z</time></trkpt><trkpt lat="44.3059007" lon="10.4612715"><ele>897.0</ele><time>2026-04-04T08:39:34.091Z</time></trkpt><trkpt lat="44.3058073" lon="10.4613676"><ele>899.0</ele><time>2026-04-04T08:39:35.099Z</time></trkpt><trkpt lat="44.3057144" lon="10.4614685"><ele>901.0</ele><time>2026-04-04T08:39:36.117Z</time></trkpt><trkpt lat="44.3056311" lon="10.461583"><ele>903.0</ele><time>2026-04-04T08:39:37.111Z</time></trkpt><trkpt lat="44.3055454" lon="10.4616911"><ele>903.0</ele><time>2026-04-04T08:39:38.114Z</time></trkpt><trkpt lat="44.3054604" lon="10.4617887"><ele>903.0</ele><time>2026-04-04T08:39:39.112Z</time></trkpt><trkpt lat="44.305375" lon="10.4618697"><ele>903.0</ele><time>2026-04-04T08:39:40.111Z</time></trkpt><trkpt lat="44.3052879" lon="10.4619263"><ele>903.0</ele><time>2026-04-04T08:39:41.12Z</time></trkpt><trkpt lat="44.3051906" lon="10.4619447"><ele>903.0</ele><time>2026-04-04T08:39:42.117Z</time></trkpt><trkpt lat="44.3050868" lon="10.4619178"><ele>903.0</ele><time>2026-04-04T08:39:43.126Z</time></trkpt><trkpt lat="44.3049814" lon="10.4618422"><ele>903.0</ele><time>2026-04-04T08:39:44.124Z</time></trkpt><trkpt lat="44.3048835" lon="10.4617565"><ele>903.0</ele><time>2026-04-04T08:39:45.122Z</time></trkpt><trkpt lat="44.3047834" lon="10.4616795"><ele>903.0</ele><time>2026-04-04T08:39:46.115Z</time></trkpt><trkpt lat="44.3046834" lon="10.4616031"><ele>905.25</ele><time>2026-04-04T08:39:47.12Z</time></trkpt><trkpt lat="44.3045767" lon="10.4615274"><ele>907.5</ele><time>2026-04-04T08:39:48.115Z</time></trkpt><trkpt lat="44.3044688" lon="10.4614539"><ele>909.75</ele><time>2026-04-04T08:39:49.124Z</time></trkpt><trkpt lat="44.3043627" lon="10.4613847"><ele>912.0</ele><time>2026-04-04T08:39:50.119Z</time></trkpt><trkpt lat="44.3042509" lon="10.4613149"><ele>913.75</ele><time>2026-04-04T08:39:51.113Z</time></trkpt><trkpt lat="44.3041423" lon="10.4612511"><ele>915.5</ele><time>2026-04-04T08:39:52.119Z</time></trkpt><trkpt lat="44.3040362" lon="10.4611933"><ele>917.25</ele><time>2026-04-04T08:39:53.121Z</time></trkpt><trkpt lat="44.3039308" lon="10.4611278"><ele>919.0</ele><time>2026-04-04T08:39:54.111Z</time></trkpt><trkpt lat="44.3038371" lon="10.4610478"><ele>919.0</ele><time>2026-04-04T08:39:55.108Z</time></trkpt><trkpt lat="44.303761" lon="10.4609384"><ele>919.0000000000001</ele><time>2026-04-04T08:39:56.118Z</time></trkpt><trkpt lat="44.3037043" lon="10.4608102"><ele>919.0000000000001</ele><time>2026-04-04T08:39:57.114Z</time></trkpt><trkpt lat="44.303662" lon="10.4606824"><ele>919.0</ele><time>2026-04-04T08:39:58.113Z</time></trkpt><trkpt lat="44.3036163" lon="10.460559"><ele>919.0</ele><time>2026-04-04T08:39:59.119Z</time></trkpt><trkpt lat="44.3035801" lon="10.4604368"><ele>918.2</ele><time>2026-04-04T08:40:00.115Z</time></trkpt><trkpt lat="44.3035366" lon="10.4603151"><ele>917.4000000000001</ele><time>2026-04-04T08:40:01.106Z</time></trkpt><trkpt lat="44.3034897" lon="10.4601907"><ele>916.6</ele><time>2026-04-04T08:40:02.109Z</time></trkpt><trkpt lat="44.3034348" lon="10.4600762"><ele>915.8</ele><time>2026-04-04T08:40:03.113Z</time></trkpt><trkpt lat="44.3033596" lon="10.4599844"><ele>915.0</ele><time>2026-04-04T08:40:04.112Z</time></trkpt><trkpt lat="44.3032671" lon="10.4599305"><ele>915.0</ele><time>2026-04-04T08:40:05.123Z</time></trkpt><trkpt lat="44.303161" lon="10.4598922"><ele>915.0</ele><time>2026-04-04T08:40:06.114Z</time></trkpt><trkpt lat="44.3030555" lon="10.4598535"><ele>915.0</ele><time>2026-04-04T08:40:07.106Z</time></trkpt><trkpt lat="44.3029528" lon="10.4598101"><ele>915.0</ele><time>2026-04-04T08:40:08.112Z</time></trkpt><trkpt lat="44.3028469" lon="10.4597734"><ele>915.0</ele><time>2026-04-04T08:40:09.105Z</time></trkpt><trkpt lat="44.3027405" lon="10.4597339"><ele>915.4</ele><time>2026-04-04T08:40:10.103Z</time></trkpt><trkpt lat="44.3026339" lon="10.4596969"><ele>915.8</ele><time>2026-04-04T08:40:11.107Z</time></trkpt><trkpt lat="44.3025275" lon="10.4596567"><ele>916.2</ele><time>2026-04-04T08:40:12.107Z</time></trkpt><trkpt lat="44.3024212" lon="10.45961"><ele>916.6</ele><time>2026-04-04T08:40:13.101Z</time></trkpt><trkpt lat="44.3023166" lon="10.4595523"><ele>917.0</ele><time>2026-04-04T08:40:14.115Z</time></trkpt><trkpt lat="44.3022239" lon="10.4594766"><ele>919.0</ele><time>2026-04-04T08:40:15.103Z</time></trkpt><trkpt lat="44.3021496" lon="10.4593656"><ele>921.0</ele><time>2026-04-04T08:40:16.104Z</time></trkpt><trkpt lat="44.3020821" lon="10.4592391"><ele>923.0</ele><time>2026-04-04T08:40:17.112Z</time></trkpt><trkpt lat="44.3020163" lon="10.4591145"><ele>925.0</ele><time>2026-04-04T08:40:18.112Z</time></trkpt><trkpt lat="44.3019493" lon="10.4589908"><ele>927.0</ele><time>2026-04-04T08:40:19.113Z</time></trkpt><trkpt lat="44.3018826" lon="10.4588688"><ele>927.0</ele><time>2026-04-04T08:40:20.135Z</time></trkpt><trkpt lat="44.301818" lon="10.4587546"><ele>927.0</ele><time>2026-04-04T08:40:21.116Z</time></trkpt><trkpt lat="44.3017509" lon="10.4586437"><ele>927.0</ele><time>2026-04-04T08:40:22.114Z</time></trkpt><trkpt lat="44.3016891" lon="10.4585358"><ele>927.0</ele><time>2026-04-04T08:40:23.134Z</time></trkpt><trkpt lat="44.3016304" lon="10.4584302"><ele>927.0</ele><time>2026-04-04T08:40:24.121Z</time></trkpt><trkpt lat="44.3015693" lon="10.4583226"><ele>927.0</ele><time>2026-04-04T08:40:25.115Z</time></trkpt><trkpt lat="44.3015065" lon="10.458214"><ele>927.0</ele><time>2026-04-04T08:40:26.124Z</time></trkpt><trkpt lat="44.3014419" lon="10.4581088"><ele>927.0</ele><time>2026-04-04T08:40:27.117Z</time></trkpt><trkpt lat="44.3013715" lon="10.4580099"><ele>927.0</ele><time>2026-04-04T08:40:28.109Z</time></trkpt><trkpt lat="44.3012978" lon="10.4579379"><ele>927.0</ele><time>2026-04-04T08:40:29.118Z</time></trkpt><trkpt lat="44.3012295" lon="10.4578858"><ele>927.8333333333334</ele><time>2026-04-04T08:40:30.109Z</time></trkpt><trkpt lat="44.3011644" lon="10.4578498"><ele>928.6666666666667</ele><time>2026-04-04T08:40:31.11Z</time></trkpt><trkpt lat="44.3011015" lon="10.4578412"><ele>929.5</ele><time>2026-04-04T08:40:32.121Z</time></trkpt><trkpt lat="44.3009894" lon="10.457856"><ele>930.3333333333334</ele><time>2026-04-04T08:40:34.107Z</time></trkpt><trkpt lat="44.3008714" lon="10.4578814"><ele>931.1666666666667</ele><time>2026-04-04T08:40:36.115Z</time></trkpt><trkpt lat="44.3008075" lon="10.4578964"><ele>932.0</ele><time>2026-04-04T08:40:37.109Z</time></trkpt><trkpt lat="44.3007432" lon="10.4579116"><ele>932.0</ele><time>2026-04-04T08:40:38.124Z</time></trkpt><trkpt lat="44.3006797" lon="10.4579273"><ele>932.0</ele><time>2026-04-04T08:40:39.107Z</time></trkpt><trkpt lat="44.3006136" lon="10.4579436"><ele>932.0</ele><time>2026-04-04T08:40:40.107Z</time></trkpt><trkpt lat="44.3005455" lon="10.4579604"><ele>932.0</ele><time>2026-04-04T08:40:41.117Z</time></trkpt><trkpt lat="44.3004767" lon="10.4579783"><ele>932.0</ele><time>2026-04-04T08:40:42.106Z</time></trkpt><trkpt lat="44.3004048" lon="10.4579975"><ele>932.0</ele><time>2026-04-04T08:40:43.115Z</time></trkpt><trkpt lat="44.3003252" lon="10.4580225"><ele>932.0</ele><time>2026-04-04T08:40:44.108Z</time></trkpt><trkpt lat="44.3002349" lon="10.4580428"><ele>935.75</ele><time>2026-04-04T08:40:45.102Z</time></trkpt><trkpt lat="44.3001304" lon="10.4580605"><ele>939.5</ele><time>2026-04-04T08:40:46.102Z</time></trkpt><trkpt lat="44.3000113" lon="10.4580561"><ele>943.25</ele><time>2026-04-04T08:40:47.116Z</time></trkpt><trkpt lat="44.299875" lon="10.4580056"><ele>947.0</ele><time>2026-04-04T08:40:48.092Z</time></trkpt><trkpt lat="44.2997371" lon="10.4578741"><ele>948.6666666666667</ele><time>2026-04-04T08:40:49.093Z</time></trkpt><trkpt lat="44.2996167" lon="10.4576292"><ele>950.3333333333333</ele><time>2026-04-04T08:40:50.086Z</time></trkpt><trkpt lat="44.299502" lon="10.4574363"><ele>952.0</ele><time>2026-04-04T08:40:51.107Z</time></trkpt><trkpt lat="44.2993853" lon="10.4572322"><ele>950.75</ele><time>2026-04-04T08:40:52.082Z</time></trkpt><trkpt lat="44.2992807" lon="10.4570534"><ele>949.5</ele><time>2026-04-04T08:40:53.103Z</time></trkpt><trkpt lat="44.2991606" lon="10.4569226"><ele>948.25</ele><time>2026-04-04T08:40:54.113Z</time></trkpt><trkpt lat="44.2990355" lon="10.4569056"><ele>947.0</ele><time>2026-04-04T08:40:55.1Z</time></trkpt><trkpt lat="44.2989296" lon="10.4569641"><ele>950.25</ele><time>2026-04-04T08:40:56.106Z</time></trkpt><trkpt lat="44.2988658" lon="10.4571073"><ele>953.5</ele><time>2026-04-04T08:40:57.103Z</time></trkpt><trkpt lat="44.2988294" lon="10.4572732"><ele>956.75</ele><time>2026-04-04T08:40:58.086Z</time></trkpt><trkpt lat="44.2988257" lon="10.4575506"><ele>960.0</ele><time>2026-04-04T08:40:59.094Z</time></trkpt><trkpt lat="44.2987882" lon="10.4578157"><ele>961.3333333333333</ele><time>2026-04-04T08:41:00.09Z</time></trkpt><trkpt lat="44.2987225" lon="10.4580751"><ele>962.6666666666666</ele><time>2026-04-04T08:41:01.078Z</time></trkpt><trkpt lat="44.2986045" lon="10.4582912"><ele>964.0</ele><time>2026-04-04T08:41:02.109Z</time></trkpt><trkpt lat="44.2984882" lon="10.4584699"><ele>964.0</ele><time>2026-04-04T08:41:03.108Z</time></trkpt><trkpt lat="44.2983692" lon="10.4585805"><ele>964.0</ele><time>2026-04-04T08:41:04.1Z</time></trkpt><trkpt lat="44.2982429" lon="10.4586134"><ele>964.0</ele><time>2026-04-04T08:41:05.122Z</time></trkpt><trkpt lat="44.2981189" lon="10.4585706"><ele>964.0</ele><time>2026-04-04T08:41:06.105Z</time></trkpt><trkpt lat="44.2980431" lon="10.4584418"><ele>966.75</ele><time>2026-04-04T08:41:07.113Z</time></trkpt><trkpt lat="44.2979937" lon="10.4582764"><ele>969.5</ele><time>2026-04-04T08:41:08.115Z</time></trkpt><trkpt lat="44.2979531" lon="10.4580811"><ele>972.25</ele><time>2026-04-04T08:41:09.11Z</time></trkpt><trkpt lat="44.2979123" lon="10.4578614"><ele>975.0</ele><time>2026-04-04T08:41:10.107Z</time></trkpt><trkpt lat="44.2978582" lon="10.457625"><ele>975.0</ele><time>2026-04-04T08:41:11.107Z</time></trkpt><trkpt lat="44.2978085" lon="10.4573853"><ele>975.0</ele><time>2026-04-04T08:41:12.09Z</time></trkpt><trkpt lat="44.2977499" lon="10.4571506"><ele>975.0</ele><time>2026-04-04T08:41:13.105Z</time></trkpt><trkpt lat="44.2976869" lon="10.4569206"><ele>975.3333333333333</ele><time>2026-04-04T08:41:14.118Z</time></trkpt><trkpt lat="44.2976184" lon="10.4566999"><ele>975.6666666666666</ele><time>2026-04-04T08:41:15.104Z</time></trkpt><trkpt lat="44.2975427" lon="10.4564898"><ele>976.0</ele><time>2026-04-04T08:41:16.111Z</time></trkpt><trkpt lat="44.2974541" lon="10.4562891"><ele>976.0</ele><time>2026-04-04T08:41:17.113Z</time></trkpt><trkpt lat="44.2973636" lon="10.4561054"><ele>976.0</ele><time>2026-04-04T08:41:18.098Z</time></trkpt><trkpt lat="44.2972866" lon="10.455944"><ele>976.0</ele><time>2026-04-04T08:41:19.108Z</time></trkpt><trkpt lat="44.2972161" lon="10.4558032"><ele>976.0</ele><time>2026-04-04T08:41:20.115Z</time></trkpt><trkpt lat="44.297137" lon="10.4556787"><ele>978.75</ele><time>2026-04-04T08:41:21.114Z</time></trkpt><trkpt lat="44.297027" lon="10.4556058"><ele>981.5</ele><time>2026-04-04T08:41:22.104Z</time></trkpt><trkpt lat="44.2969068" lon="10.4555994"><ele>984.25</ele><time>2026-04-04T08:41:23.122Z</time></trkpt><trkpt lat="44.2967837" lon="10.455673"><ele>987.0</ele><time>2026-04-04T08:41:24.107Z</time></trkpt><trkpt lat="44.2967069" lon="10.4557991"><ele>987.0</ele><time>2026-04-04T08:41:25.128Z</time></trkpt><trkpt lat="44.2966503" lon="10.4559493"><ele>987.0</ele><time>2026-04-04T08:41:26.1Z</time></trkpt><trkpt lat="44.2966004" lon="10.4561134"><ele>987.0</ele><time>2026-04-04T08:41:27.115Z</time></trkpt><trkpt lat="44.2965548" lon="10.4563027"><ele>987.0</ele><time>2026-04-04T08:41:28.117Z</time></trkpt><trkpt lat="44.2964987" lon="10.4564971"><ele>986.3333333333333</ele><time>2026-04-04T08:41:29.123Z</time></trkpt><trkpt lat="44.2964276" lon="10.456688"><ele>985.6666666666666</ele><time>2026-04-04T08:41:30.121Z</time></trkpt><trkpt lat="44.2963326" lon="10.4568662"><ele>985.0</ele><time>2026-04-04T08:41:31.115Z</time></trkpt><trkpt lat="44.2962192" lon="10.4570137"><ele>987.3333333333333</ele><time>2026-04-04T08:41:32.12Z</time></trkpt><trkpt lat="44.2961032" lon="10.4571724"><ele>989.6666666666667</ele><time>2026-04-04T08:41:33.118Z</time></trkpt><trkpt lat="44.2959871" lon="10.4573295"><ele>992.0</ele><time>2026-04-04T08:41:34.111Z</time></trkpt><trkpt lat="44.2958445" lon="10.4574484"><ele>992.0</ele><time>2026-04-04T08:41:35.115Z</time></trkpt><trkpt lat="44.2957059" lon="10.45754"><ele>992.0</ele><time>2026-04-04T08:41:36.114Z</time></trkpt><trkpt lat="44.2955729" lon="10.4576285"><ele>992.0</ele><time>2026-04-04T08:41:37.1Z</time></trkpt><trkpt lat="44.2954691" lon="10.4577344"><ele>992.0</ele><time>2026-04-04T08:41:38.105Z</time></trkpt><trkpt lat="44.2953936" lon="10.4578776"><ele>998.6666666666667</ele><time>2026-04-04T08:41:39.109Z</time></trkpt><trkpt lat="44.2953578" lon="10.4580824"><ele>1005.3333333333333</ele><time>2026-04-04T08:41:40.102Z</time></trkpt><trkpt lat="44.2953267" lon="10.4583063"><ele>1012.0</ele><time>2026-04-04T08:41:41.106Z</time></trkpt><trkpt lat="44.2953014" lon="10.4585423"><ele>1011.0</ele><time>2026-04-04T08:41:42.106Z</time></trkpt><trkpt lat="44.2952741" lon="10.4587922"><ele>1010.0</ele><time>2026-04-04T08:41:43.108Z</time></trkpt><trkpt lat="44.2952484" lon="10.4590457"><ele>1009.0</ele><time>2026-04-04T08:41:44.116Z</time></trkpt><trkpt lat="44.2952159" lon="10.4592773"><ele>1009.0</ele><time>2026-04-04T08:41:45.11Z</time></trkpt><trkpt lat="44.2951875" lon="10.4594904"><ele>1009.0</ele><time>2026-04-04T08:41:46.098Z</time></trkpt><trkpt lat="44.2951643" lon="10.4597021"><ele>1009.0</ele><time>2026-04-04T08:41:47.113Z</time></trkpt><trkpt lat="44.2951821" lon="10.459917"><ele>1010.3333333333333</ele><time>2026-04-04T08:41:48.109Z</time></trkpt><trkpt lat="44.2952587" lon="10.4601292"><ele>1011.6666666666667</ele><time>2026-04-04T08:41:49.114Z</time></trkpt><trkpt lat="44.2953971" lon="10.4603232"><ele>1013.0</ele><time>2026-04-04T08:41:50.106Z</time></trkpt><trkpt lat="44.2955151" lon="10.4604733"><ele>1012.5</ele><time>2026-04-04T08:41:51.11Z</time></trkpt><trkpt lat="44.2956184" lon="10.4606092"><ele>1012.0</ele><time>2026-04-04T08:41:52.112Z</time></trkpt><trkpt lat="44.2957063" lon="10.4607461"><ele>1011.5</ele><time>2026-04-04T08:41:53.118Z</time></trkpt><trkpt lat="44.2957662" lon="10.4609034"><ele>1011.0</ele><time>2026-04-04T08:41:54.119Z</time></trkpt><trkpt lat="44.2957957" lon="10.4610756"><ele>1011.0</ele><time>2026-04-04T08:41:55.116Z</time></trkpt><trkpt lat="44.295802" lon="10.4612541"><ele>1011.0</ele><time>2026-04-04T08:41:56.128Z</time></trkpt><trkpt lat="44.2957882" lon="10.4614389"><ele>1011.0</ele><time>2026-04-04T08:41:57.115Z</time></trkpt><trkpt lat="44.2957668" lon="10.4616141"><ele>1011.0</ele><time>2026-04-04T08:41:58.117Z</time></trkpt><trkpt lat="44.2957395" lon="10.4617828"><ele>1011.75</ele><time>2026-04-04T08:41:59.125Z</time></trkpt><trkpt lat="44.2957034" lon="10.4619568"><ele>1012.5</ele><time>2026-04-04T08:42:00.108Z</time></trkpt><trkpt lat="44.295657" lon="10.4621126"><ele>1013.25</ele><time>2026-04-04T08:42:01.112Z</time></trkpt><trkpt lat="44.2956115" lon="10.4622677"><ele>1014.0</ele><time>2026-04-04T08:42:02.116Z</time></trkpt><trkpt lat="44.2955936" lon="10.4624369"><ele>1014.6666666666667</ele><time>2026-04-04T08:42:03.108Z</time></trkpt><trkpt lat="44.2956008" lon="10.4626433"><ele>1015.3333333333334</ele><time>2026-04-04T08:42:04.109Z</time></trkpt><trkpt lat="44.2956871" lon="10.4629393"><ele>1016.0</ele><time>2026-04-04T08:42:05.108Z</time></trkpt><trkpt lat="44.295786" lon="10.4632488"><ele>1020.5</ele><time>2026-04-04T08:42:06.099Z</time></trkpt><trkpt lat="44.2958972" lon="10.4635845"><ele>1025.0</ele><time>2026-04-04T08:42:07.097Z</time></trkpt><trkpt lat="44.296019" lon="10.4639222"><ele>1026.0</ele><time>2026-04-04T08:42:08.122Z</time></trkpt><trkpt lat="44.2961316" lon="10.4642791"><ele>1027.0</ele><time>2026-04-04T08:42:09.093Z</time></trkpt><trkpt lat="44.2962259" lon="10.4646357"><ele>1032.5</ele><time>2026-04-04T08:42:10.121Z</time></trkpt><trkpt lat="44.2963035" lon="10.4649895"><ele>1038.0</ele><time>2026-04-04T08:42:11.113Z</time></trkpt><trkpt lat="44.2963866" lon="10.4653136"><ele>1037.0</ele><time>2026-04-04T08:42:12.106Z</time></trkpt><trkpt lat="44.2964675" lon="10.4655954"><ele>1036.0</ele><time>2026-04-04T08:42:13.109Z</time></trkpt><trkpt lat="44.2965312" lon="10.4658162"><ele>1035.0</ele><time>2026-04-04T08:42:14.098Z</time></trkpt><trkpt lat="44.2965827" lon="10.4660045"><ele>1035.0</ele><time>2026-04-04T08:42:15.091Z</time></trkpt><trkpt lat="44.2966536" lon="10.4661542"><ele>1035.0</ele><time>2026-04-04T08:42:16.097Z</time></trkpt><trkpt lat="44.2967404" lon="10.4662813"><ele>1035.0</ele><time>2026-04-04T08:42:17.106Z</time></trkpt><trkpt lat="44.2968749" lon="10.4663359"><ele>1035.0</ele><time>2026-04-04T08:42:18.105Z</time></trkpt><trkpt lat="44.297021" lon="10.4663451"><ele>1036.6</ele><time>2026-04-04T08:42:19.099Z</time></trkpt><trkpt lat="44.2971508" lon="10.4663622"><ele>1038.2</ele><time>2026-04-04T08:42:20.106Z</time></trkpt><trkpt lat="44.2972462" lon="10.4664152"><ele>1039.8</ele><time>2026-04-04T08:42:21.106Z</time></trkpt><trkpt lat="44.2972901" lon="10.4665235"><ele>1041.4</ele><time>2026-04-04T08:42:22.115Z</time></trkpt><trkpt lat="44.2972849" lon="10.4666314"><ele>1043.0</ele><time>2026-04-04T08:42:23.122Z</time></trkpt><trkpt lat="44.297241" lon="10.4667456"><ele>1044.0</ele><time>2026-04-04T08:42:24.101Z</time></trkpt><trkpt lat="44.297191" lon="10.4668238"><ele>1045.0</ele><time>2026-04-04T08:42:25.104Z</time></trkpt><trkpt lat="44.2971162" lon="10.4668398"><ele>1046.0</ele><time>2026-04-04T08:42:26.101Z</time></trkpt><trkpt lat="44.2970118" lon="10.4668133"><ele>1047.0</ele><time>2026-04-04T08:42:27.114Z</time></trkpt><trkpt lat="44.2968815" lon="10.4667625"><ele>1048.0</ele><time>2026-04-04T08:42:28.094Z</time></trkpt><trkpt lat="44.296743" lon="10.4667102"><ele>1048.0</ele><time>2026-04-04T08:42:29.102Z</time></trkpt><trkpt lat="44.2965953" lon="10.4666552"><ele>1048.0</ele><time>2026-04-04T08:42:30.089Z</time></trkpt><trkpt lat="44.2964394" lon="10.4665806"><ele>1048.0</ele><time>2026-04-04T08:42:31.091Z</time></trkpt><trkpt lat="44.2962692" lon="10.4664432"><ele>1047.6666666666665</ele><time>2026-04-04T08:42:32.09Z</time></trkpt><trkpt lat="44.2961261" lon="10.4662742"><ele>1047.3333333333333</ele><time>2026-04-04T08:42:33.093Z</time></trkpt><trkpt lat="44.2959994" lon="10.4661539"><ele>1047.0</ele><time>2026-04-04T08:42:34.097Z</time></trkpt><trkpt lat="44.295848" lon="10.466087"><ele>1047.0</ele><time>2026-04-04T08:42:35.11Z</time></trkpt><trkpt lat="44.2956751" lon="10.466086"><ele>1047.0</ele><time>2026-04-04T08:42:36.094Z</time></trkpt><trkpt lat="44.2954667" lon="10.4661481"><ele>1047.0</ele><time>2026-04-04T08:42:37.105Z</time></trkpt><trkpt lat="44.2953083" lon="10.4661896"><ele>1047.5</ele><time>2026-04-04T08:42:38.101Z</time></trkpt><trkpt lat="44.2951676" lon="10.4662311"><ele>1048.0</ele><time>2026-04-04T08:42:39.101Z</time></trkpt><trkpt lat="44.2950377" lon="10.4662637"><ele>1048.5</ele><time>2026-04-04T08:42:40.093Z</time></trkpt><trkpt lat="44.294928" lon="10.4662774"><ele>1049.0</ele><time>2026-04-04T08:42:41.122Z</time></trkpt><trkpt lat="44.2948162" lon="10.4662881"><ele>1050.75</ele><time>2026-04-04T08:42:42.105Z</time></trkpt><trkpt lat="44.2946881" lon="10.4663111"><ele>1052.5</ele><time>2026-04-04T08:42:43.116Z</time></trkpt><trkpt lat="44.2945376" lon="10.4663264"><ele>1054.25</ele><time>2026-04-04T08:42:44.12Z</time></trkpt><trkpt lat="44.2943813" lon="10.4663246"><ele>1056.0</ele><time>2026-04-04T08:42:45.115Z</time></trkpt><trkpt lat="44.2942184" lon="10.4662693"><ele>1056.0</ele><time>2026-04-04T08:42:46.107Z</time></trkpt><trkpt lat="44.294058" lon="10.4661831"><ele>1056.0</ele><time>2026-04-04T08:42:47.123Z</time></trkpt><trkpt lat="44.2939236" lon="10.4660832"><ele>1056.0</ele><time>2026-04-04T08:42:48.098Z</time></trkpt><trkpt lat="44.2938327" lon="10.4660067"><ele>1056.0</ele><time>2026-04-04T08:42:49.111Z</time></trkpt><trkpt lat="44.293752" lon="10.4659141"><ele>1057.8</ele><time>2026-04-04T08:42:51.099Z</time></trkpt><trkpt lat="44.2936709" lon="10.4658567"><ele>1059.6</ele><time>2026-04-04T08:44:33.113Z</time></trkpt><trkpt lat="44.2936111" lon="10.4657848"><ele>1061.4</ele><time>2026-04-04T08:44:34.101Z</time></trkpt><trkpt lat="44.293536" lon="10.4656722"><ele>1063.2</ele><time>2026-04-04T08:44:35.102Z</time></trkpt><trkpt lat="44.2934814" lon="10.4655675"><ele>1065.0</ele><time>2026-04-04T08:44:36.094Z</time></trkpt><trkpt lat="44.2934295" lon="10.4654266"><ele>1065.0</ele><time>2026-04-04T08:44:37.093Z</time></trkpt><trkpt lat="44.2933633" lon="10.4652648"><ele>1065.0</ele><time>2026-04-04T08:44:38.097Z</time></trkpt><trkpt lat="44.2932825" lon="10.4650794"><ele>1065.0</ele><time>2026-04-04T08:44:39.094Z</time></trkpt><trkpt lat="44.2932011" lon="10.4649219"><ele>1065.0</ele><time>2026-04-04T08:44:40.1Z</time></trkpt><trkpt lat="44.2931247" lon="10.4648041"><ele>1067.0</ele><time>2026-04-04T08:44:41.116Z</time></trkpt><trkpt lat="44.2930302" lon="10.464739"><ele>1069.0</ele><time>2026-04-04T08:44:42.107Z</time></trkpt><trkpt lat="44.2929168" lon="10.464716"><ele>1071.0</ele><time>2026-04-04T08:44:43.112Z</time></trkpt><trkpt lat="44.2927959" lon="10.464772"><ele>1073.0</ele><time>2026-04-04T08:44:44.122Z</time></trkpt><trkpt lat="44.2926924" lon="10.4648977"><ele>1073.0</ele><time>2026-04-04T08:44:45.093Z</time></trkpt><trkpt lat="44.2926092" lon="10.4650448"><ele>1073.0</ele><time>2026-04-04T08:44:46.099Z</time></trkpt><trkpt lat="44.2925446" lon="10.4651737"><ele>1073.0</ele><time>2026-04-04T08:44:47.104Z</time></trkpt><trkpt lat="44.2924849" lon="10.4652829"><ele>1073.0</ele><time>2026-04-04T08:44:48.101Z</time></trkpt><trkpt lat="44.2924276" lon="10.4653778"><ele>1073.0</ele><time>2026-04-04T08:44:49.208Z</time></trkpt><trkpt lat="44.292321" lon="10.4654892"><ele>1072.2</ele><time>2026-04-04T08:44:51.109Z</time></trkpt><trkpt lat="44.2922472" lon="10.4654459"><ele>1071.4</ele><time>2026-04-04T08:44:55.101Z</time></trkpt><trkpt lat="44.292185" lon="10.4653942"><ele>1070.6000000000001</ele><time>2026-04-04T08:47:39.108Z</time></trkpt><trkpt lat="44.2921324" lon="10.4653386"><ele>1069.8</ele><time>2026-04-04T08:47:40.096Z</time></trkpt><trkpt lat="44.292076" lon="10.4652372"><ele>1069.0</ele><time>2026-04-04T08:47:41.101Z</time></trkpt><trkpt lat="44.2919888" lon="10.4650768"><ele>1069.0</ele><time>2026-04-04T08:47:42.094Z</time></trkpt><trkpt lat="44.291891" lon="10.4649472"><ele>1069.0</ele><time>2026-04-04T08:47:43.099Z</time></trkpt><trkpt lat="44.2917726" lon="10.4648642"><ele>1069.0</ele><time>2026-04-04T08:47:44.114Z</time></trkpt><trkpt lat="44.2916267" lon="10.4648592"><ele>1069.0</ele><time>2026-04-04T08:47:45.086Z</time></trkpt><trkpt lat="44.2914559" lon="10.4649043"><ele>1068.0</ele><time>2026-04-04T08:47:46.1Z</time></trkpt><trkpt lat="44.2912706" lon="10.464905"><ele>1067.0</ele><time>2026-04-04T08:47:47.102Z</time></trkpt><trkpt lat="44.2910746" lon="10.4649207"><ele>1066.0</ele><time>2026-04-04T08:47:48.093Z</time></trkpt><trkpt lat="44.2908612" lon="10.4649346"><ele>1066.0</ele><time>2026-04-04T08:47:49.104Z</time></trkpt><trkpt lat="44.2906337" lon="10.4649876"><ele>1066.0</ele><time>2026-04-04T08:47:50.099Z</time></trkpt><trkpt lat="44.2903993" lon="10.4650927"><ele>1064.3333333333333</ele><time>2026-04-04T08:47:51.103Z</time></trkpt><trkpt lat="44.2901893" lon="10.4651952"><ele>1062.6666666666667</ele><time>2026-04-04T08:47:52.103Z</time></trkpt><trkpt lat="44.28999" lon="10.4653003"><ele>1061.0</ele><time>2026-04-04T08:47:53.119Z</time></trkpt><trkpt lat="44.2897799" lon="10.4653806"><ele>1063.0</ele><time>2026-04-04T08:47:54.105Z</time></trkpt><trkpt lat="44.2895432" lon="10.465429"><ele>1065.0</ele><time>2026-04-04T08:47:55.107Z</time></trkpt><trkpt lat="44.2893111" lon="10.4654467"><ele>1065.0</ele><time>2026-04-04T08:47:56.096Z</time></trkpt><trkpt lat="44.2890697" lon="10.4654149"><ele>1065.0</ele><time>2026-04-04T08:47:57.106Z</time></trkpt><trkpt lat="44.288853" lon="10.4654025"><ele>1064.0</ele><time>2026-04-04T08:47:58.102Z</time></trkpt><trkpt lat="44.2886626" lon="10.4653626"><ele>1063.0</ele><time>2026-04-04T08:47:59.358Z</time></trkpt><trkpt lat="44.2883543" lon="10.4652123"><ele>1063.0</ele><time>2026-04-04T08:48:01.091Z</time></trkpt><trkpt lat="44.2882316" lon="10.4650559"><ele>1063.0</ele><time>2026-04-04T08:48:02.093Z</time></trkpt><trkpt lat="44.2880944" lon="10.4649183"><ele>1063.0</ele><time>2026-04-04T08:48:03.095Z</time></trkpt><trkpt lat="44.2879504" lon="10.4648496"><ele>1063.25</ele><time>2026-04-04T08:48:04.086Z</time></trkpt><trkpt lat="44.2877989" lon="10.464869"><ele>1063.5</ele><time>2026-04-04T08:48:05.094Z</time></trkpt><trkpt lat="44.2876599" lon="10.4649392"><ele>1063.75</ele><time>2026-04-04T08:48:06.1Z</time></trkpt><trkpt lat="44.2875294" lon="10.464987"><ele>1064.0</ele><time>2026-04-04T08:48:07.099Z</time></trkpt><trkpt lat="44.2873999" lon="10.4649982"><ele>1064.0</ele><time>2026-04-04T08:48:08.095Z</time></trkpt><trkpt lat="44.2872717" lon="10.4649536"><ele>1064.0</ele><time>2026-04-04T08:48:09.105Z</time></trkpt><trkpt lat="44.2871333" lon="10.4648753"><ele>1064.0</ele><time>2026-04-04T08:48:10.078Z</time></trkpt><trkpt lat="44.2869946" lon="10.4647787"><ele>1064.0</ele><time>2026-04-04T08:48:11.106Z</time></trkpt><trkpt lat="44.286875" lon="10.4646965"><ele>1063.3333333333335</ele><time>2026-04-04T08:48:12.109Z</time></trkpt><trkpt lat="44.2867679" lon="10.4645895"><ele>1062.6666666666667</ele><time>2026-04-04T08:48:13.093Z</time></trkpt><trkpt lat="44.2866636" lon="10.4644255"><ele>1062.0</ele><time>2026-04-04T08:48:14.117Z</time></trkpt><trkpt lat="44.2865721" lon="10.4642157"><ele>1062.0</ele><time>2026-04-04T08:48:15.108Z</time></trkpt><trkpt lat="44.2864956" lon="10.464031"><ele>1062.0</ele><time>2026-04-04T08:48:16.088Z</time></trkpt><trkpt lat="44.2864295" lon="10.4638831"><ele>1062.0</ele><time>2026-04-04T08:48:17.101Z</time></trkpt><trkpt lat="44.2863333" lon="10.4637592"><ele>1062.0</ele><time>2026-04-04T08:48:18.108Z</time></trkpt><trkpt lat="44.2862109" lon="10.4636847"><ele>1063.75</ele><time>2026-04-04T08:48:19.099Z</time></trkpt><trkpt lat="44.2860699" lon="10.4637084"><ele>1065.5</ele><time>2026-04-04T08:48:20.108Z</time></trkpt><trkpt lat="44.2859373" lon="10.4637737"><ele>1067.25</ele><time>2026-04-04T08:48:21.093Z</time></trkpt><trkpt lat="44.2857955" lon="10.4637867"><ele>1069.0</ele><time>2026-04-04T08:48:22.082Z</time></trkpt><trkpt lat="44.2856535" lon="10.4637355"><ele>1063.3333333333333</ele><time>2026-04-04T08:48:23.103Z</time></trkpt><trkpt lat="44.285519" lon="10.4636135"><ele>1057.6666666666667</ele><time>2026-04-04T08:48:24.091Z</time></trkpt><trkpt lat="44.2853855" lon="10.4634764"><ele>1052.0</ele><time>2026-04-04T08:48:25.078Z</time></trkpt><trkpt lat="44.285244" lon="10.4633291"><ele>1052.0</ele><time>2026-04-04T08:48:26.094Z</time></trkpt><trkpt lat="44.2850769" lon="10.4631589"><ele>1052.0</ele><time>2026-04-04T08:48:27.092Z</time></trkpt><trkpt lat="44.2848955" lon="10.4629666"><ele>1052.0</ele><time>2026-04-04T08:48:28.079Z</time></trkpt><trkpt lat="44.2847234" lon="10.4627256"><ele>1053.3333333333335</ele><time>2026-04-04T08:48:29.093Z</time></trkpt><trkpt lat="44.2845575" lon="10.4624854"><ele>1054.6666666666667</ele><time>2026-04-04T08:48:30.092Z</time></trkpt><trkpt lat="44.2844107" lon="10.4622909"><ele>1056.0</ele><time>2026-04-04T08:48:31.086Z</time></trkpt><trkpt lat="44.284278" lon="10.462139"><ele>1056.6666666666667</ele><time>2026-04-04T08:48:32.093Z</time></trkpt><trkpt lat="44.2841434" lon="10.4620387"><ele>1057.3333333333335</ele><time>2026-04-04T08:48:33.085Z</time></trkpt><trkpt lat="44.2839819" lon="10.4620185"><ele>1058.0</ele><time>2026-04-04T08:48:34.076Z</time></trkpt><trkpt lat="44.2838033" lon="10.462046"><ele>1058.0</ele><time>2026-04-04T08:48:35.098Z</time></trkpt><trkpt lat="44.2836261" lon="10.4620461"><ele>1058.0</ele><time>2026-04-04T08:48:36.106Z</time></trkpt><trkpt lat="44.2834713" lon="10.4619775"><ele>1058.0</ele><time>2026-04-04T08:48:37.102Z</time></trkpt><trkpt lat="44.2833661" lon="10.4618497"><ele>1058.0</ele><time>2026-04-04T08:48:38.124Z</time></trkpt><trkpt lat="44.2832997" lon="10.461642"><ele>1058.0</ele><time>2026-04-04T08:48:39.107Z</time></trkpt><trkpt lat="44.2832772" lon="10.4613943"><ele>1058.0</ele><time>2026-04-04T08:48:40.093Z</time></trkpt><trkpt lat="44.2832446" lon="10.4611611"><ele>1060.25</ele><time>2026-04-04T08:48:41.09Z</time></trkpt><trkpt lat="44.2832307" lon="10.4609452"><ele>1062.5</ele><time>2026-04-04T08:48:42.075Z</time></trkpt><trkpt lat="44.2832183" lon="10.4607455"><ele>1064.75</ele><time>2026-04-04T08:48:43.086Z</time></trkpt><trkpt lat="44.283165" lon="10.4605621"><ele>1067.0</ele><time>2026-04-04T08:48:44.092Z</time></trkpt><trkpt lat="44.2830843" lon="10.460447"><ele>1067.0</ele><time>2026-04-04T08:48:45.083Z</time></trkpt><trkpt lat="44.2829453" lon="10.4603804"><ele>1067.0</ele><time>2026-04-04T08:48:46.087Z</time></trkpt><trkpt lat="44.2828096" lon="10.4603662"><ele>1067.0</ele><time>2026-04-04T08:48:47.083Z</time></trkpt><trkpt lat="44.2827112" lon="10.460402"><ele>1067.0</ele><time>2026-04-04T08:48:48.065Z</time></trkpt><trkpt lat="44.2826587" lon="10.4604535"><ele>1067.0</ele><time>2026-04-04T08:49:19.104Z</time></trkpt><trkpt lat="44.2825927" lon="10.4605115"><ele>1067.0</ele><time>2026-04-04T08:49:21.089Z</time></trkpt><trkpt lat="44.2825372" lon="10.4605774"><ele>1067.0</ele><time>2026-04-04T08:49:22.092Z</time></trkpt><trkpt lat="44.2824812" lon="10.460711"><ele>1067.0</ele><time>2026-04-04T08:49:23.092Z</time></trkpt><trkpt lat="44.2824427" lon="10.4608785"><ele>1067.0</ele><time>2026-04-04T08:49:24.08Z</time></trkpt><trkpt lat="44.2824094" lon="10.461055"><ele>1067.0</ele><time>2026-04-04T08:49:25.079Z</time></trkpt><trkpt lat="44.2823604" lon="10.461222"><ele>1068.5</ele><time>2026-04-04T08:49:26.082Z</time></trkpt><trkpt lat="44.2823083" lon="10.4613822"><ele>1070.0</ele><time>2026-04-04T08:49:27.086Z</time></trkpt><trkpt lat="44.2822379" lon="10.461513"><ele>1071.5</ele><time>2026-04-04T08:49:28.082Z</time></trkpt><trkpt lat="44.2821511" lon="10.461626"><ele>1073.0</ele><time>2026-04-04T08:49:29.096Z</time></trkpt><trkpt lat="44.2820529" lon="10.4617186"><ele>1073.0</ele><time>2026-04-04T08:49:30.077Z</time></trkpt><trkpt lat="44.2819536" lon="10.4617981"><ele>1073.0</ele><time>2026-04-04T08:49:31.094Z</time></trkpt><trkpt lat="44.281868" lon="10.4619161"><ele>1073.0</ele><time>2026-04-04T08:49:32.093Z</time></trkpt><trkpt lat="44.2818214" lon="10.4620831"><ele>1073.0</ele><time>2026-04-04T08:49:33.089Z</time></trkpt><trkpt lat="44.2818178" lon="10.4622955"><ele>1069.6666666666667</ele><time>2026-04-04T08:49:34.091Z</time></trkpt><trkpt lat="44.2818548" lon="10.4625404"><ele>1066.3333333333333</ele><time>2026-04-04T08:49:35.071Z</time></trkpt><trkpt lat="44.2818939" lon="10.4627689"><ele>1063.0</ele><time>2026-04-04T08:49:36.094Z</time></trkpt><trkpt lat="44.2819072" lon="10.4629724"><ele>1060.5</ele><time>2026-04-04T08:49:37.099Z</time></trkpt><trkpt lat="44.2818786" lon="10.4631495"><ele>1058.0</ele><time>2026-04-04T08:49:38.086Z</time></trkpt><trkpt lat="44.2818054" lon="10.4633069"><ele>1055.5</ele><time>2026-04-04T08:49:39.098Z</time></trkpt><trkpt lat="44.281683" lon="10.4634712"><ele>1053.0</ele><time>2026-04-04T08:49:40.105Z</time></trkpt><trkpt lat="44.2815698" lon="10.4636424"><ele>1053.6666666666667</ele><time>2026-04-04T08:49:41.094Z</time></trkpt><trkpt lat="44.2814572" lon="10.463821"><ele>1054.3333333333335</ele><time>2026-04-04T08:49:42.095Z</time></trkpt><trkpt lat="44.2813338" lon="10.464003"><ele>1055.0</ele><time>2026-04-04T08:49:43.176Z</time></trkpt><trkpt lat="44.2812036" lon="10.4642038"><ele>1055.0</ele><time>2026-04-04T08:49:44.193Z</time></trkpt><trkpt lat="44.2810768" lon="10.4644201"><ele>1055.0</ele><time>2026-04-04T08:49:45.095Z</time></trkpt><trkpt lat="44.280961" lon="10.4646261"><ele>1055.0</ele><time>2026-04-04T08:49:46.092Z</time></trkpt><trkpt lat="44.2808519" lon="10.4648087"><ele>1052.0</ele><time>2026-04-04T08:49:47.173Z</time></trkpt><trkpt lat="44.2807487" lon="10.4649762"><ele>1049.0</ele><time>2026-04-04T08:49:48.178Z</time></trkpt><trkpt lat="44.2806608" lon="10.4651503"><ele>1046.0</ele><time>2026-04-04T08:49:49.097Z</time></trkpt><trkpt lat="44.2806122" lon="10.4653438"><ele>1044.0</ele><time>2026-04-04T08:49:50.089Z</time></trkpt><trkpt lat="44.2806294" lon="10.4655838"><ele>1042.0</ele><time>2026-04-04T08:49:51.171Z</time></trkpt><trkpt lat="44.2806387" lon="10.4658187"><ele>1040.0</ele><time>2026-04-04T08:49:52.094Z</time></trkpt><trkpt lat="44.2806611" lon="10.4660834"><ele>1038.0</ele><time>2026-04-04T08:49:53.104Z</time></trkpt><trkpt lat="44.280668" lon="10.4663421"><ele>1036.0</ele><time>2026-04-04T08:49:54.1Z</time></trkpt><trkpt lat="44.2806682" lon="10.4665764"><ele>1034.0</ele><time>2026-04-04T08:49:55.092Z</time></trkpt><trkpt lat="44.2806622" lon="10.4667589"><ele>1034.0</ele><time>2026-04-04T08:49:56.098Z</time></trkpt><trkpt lat="44.2806146" lon="10.4669164"><ele>1034.0</ele><time>2026-04-04T08:49:57.1Z</time></trkpt><trkpt lat="44.280523" lon="10.4670053"><ele>1034.0</ele><time>2026-04-04T08:49:58.11Z</time></trkpt><trkpt lat="44.2803919" lon="10.4670624"><ele>1034.0</ele><time>2026-04-04T08:49:59.091Z</time></trkpt><trkpt lat="44.2802558" lon="10.4671218"><ele>1033.0</ele><time>2026-04-04T08:50:00.096Z</time></trkpt><trkpt lat="44.280109" lon="10.4671985"><ele>1032.0</ele><time>2026-04-04T08:50:01.098Z</time></trkpt><trkpt lat="44.2799548" lon="10.4672682"><ele>1031.0</ele><time>2026-04-04T08:50:02.089Z</time></trkpt><trkpt lat="44.2798059" lon="10.4673392"><ele>1031.6666666666667</ele><time>2026-04-04T08:50:03.098Z</time></trkpt><trkpt lat="44.2796596" lon="10.4674178"><ele>1032.3333333333333</ele><time>2026-04-04T08:50:04.165Z</time></trkpt><trkpt lat="44.2795242" lon="10.4675163"><ele>1033.0</ele><time>2026-04-04T08:50:05.266Z</time></trkpt><trkpt lat="44.2793621" lon="10.4677108"><ele>1033.0</ele><time>2026-04-04T08:50:07.089Z</time></trkpt><trkpt lat="44.2793049" lon="10.4677837"><ele>1033.0</ele><time>2026-04-04T08:51:11.117Z</time></trkpt><trkpt lat="44.2792041" lon="10.4678644"><ele>1033.0</ele><time>2026-04-04T08:51:13.132Z</time></trkpt><trkpt lat="44.2791113" lon="10.4678781"><ele>1033.0</ele><time>2026-04-04T08:51:14.115Z</time></trkpt><trkpt lat="44.2790026" lon="10.467851"><ele>1033.0</ele><time>2026-04-04T08:51:15.116Z</time></trkpt><trkpt lat="44.2788752" lon="10.4677657"><ele>1031.3333333333333</ele><time>2026-04-04T08:51:16.1Z</time></trkpt><trkpt lat="44.278754" lon="10.4676223"><ele>1029.6666666666667</ele><time>2026-04-04T08:51:17.112Z</time></trkpt><trkpt lat="44.2786469" lon="10.4673944"><ele>1028.0</ele><time>2026-04-04T08:51:18.098Z</time></trkpt><trkpt lat="44.278563" lon="10.4671686"><ele>1030.5</ele><time>2026-04-04T08:51:19.096Z</time></trkpt><trkpt lat="44.2784727" lon="10.4669849"><ele>1033.0</ele><time>2026-04-04T08:51:20.093Z</time></trkpt><trkpt lat="44.2783769" lon="10.4668244"><ele>1035.5</ele><time>2026-04-04T08:51:21.084Z</time></trkpt><trkpt lat="44.2783005" lon="10.4666838"><ele>1038.0</ele><time>2026-04-04T08:51:22.075Z</time></trkpt><trkpt lat="44.2782363" lon="10.4666051"><ele>1038.0</ele><time>2026-04-04T08:51:23.095Z</time></trkpt><trkpt lat="44.278152" lon="10.4665776"><ele>1038.0</ele><time>2026-04-04T08:51:24.085Z</time></trkpt><trkpt lat="44.2780592" lon="10.4666361"><ele>1038.0</ele><time>2026-04-04T08:51:25.081Z</time></trkpt><trkpt lat="44.2779741" lon="10.4667503"><ele>1038.0</ele><time>2026-04-04T08:51:26.089Z</time></trkpt><trkpt lat="44.2779393" lon="10.466909"><ele>1038.0</ele><time>2026-04-04T08:51:27.081Z</time></trkpt><trkpt lat="44.2779546" lon="10.4670659"><ele>1036.0</ele><time>2026-04-04T08:51:28.088Z</time></trkpt><trkpt lat="44.2779902" lon="10.467219"><ele>1034.0</ele><time>2026-04-04T08:51:29.082Z</time></trkpt><trkpt lat="44.2780288" lon="10.4673493"><ele>1032.0</ele><time>2026-04-04T08:51:30.094Z</time></trkpt><trkpt lat="44.2780718" lon="10.4674765"><ele>1030.0</ele><time>2026-04-04T08:51:31.084Z</time></trkpt><trkpt lat="44.2781075" lon="10.4675994"><ele>1028.0</ele><time>2026-04-04T08:51:32.089Z</time></trkpt><trkpt lat="44.2781275" lon="10.4677275"><ele>1028.0</ele><time>2026-04-04T08:51:33.097Z</time></trkpt><trkpt lat="44.2781296" lon="10.467862"><ele>1028.0</ele><time>2026-04-04T08:51:34.089Z</time></trkpt><trkpt lat="44.2780961" lon="10.4680017"><ele>1028.0</ele><time>2026-04-04T08:51:35.104Z</time></trkpt><trkpt lat="44.278047" lon="10.4681543"><ele>1028.0</ele><time>2026-04-04T08:51:36.11Z</time></trkpt><trkpt lat="44.2779974" lon="10.4683118"><ele>1028.0</ele><time>2026-04-04T08:51:37.122Z</time></trkpt><trkpt lat="44.2779569" lon="10.4684768"><ele>1028.75</ele><time>2026-04-04T08:51:38.092Z</time></trkpt><trkpt lat="44.2779312" lon="10.4686477"><ele>1029.5</ele><time>2026-04-04T08:51:39.108Z</time></trkpt><trkpt lat="44.2779124" lon="10.4688319"><ele>1030.25</ele><time>2026-04-04T08:51:40.112Z</time></trkpt><trkpt lat="44.2778845" lon="10.4690248"><ele>1031.0</ele><time>2026-04-04T08:51:41.1Z</time></trkpt><trkpt lat="44.2778468" lon="10.4692254"><ele>1031.0</ele><time>2026-04-04T08:51:42.115Z</time></trkpt><trkpt lat="44.2777995" lon="10.4694283"><ele>1031.0</ele><time>2026-04-04T08:51:43.122Z</time></trkpt><trkpt lat="44.2777497" lon="10.4696146"><ele>1031.0</ele><time>2026-04-04T08:51:44.097Z</time></trkpt><trkpt lat="44.2776919" lon="10.4697785"><ele>1031.0</ele><time>2026-04-04T08:51:45.086Z</time></trkpt><trkpt lat="44.2776102" lon="10.4699099"><ele>1032.5</ele><time>2026-04-04T08:51:46.094Z</time></trkpt><trkpt lat="44.2774933" lon="10.4699567"><ele>1034.0</ele><time>2026-04-04T08:51:47.093Z</time></trkpt><trkpt lat="44.2773601" lon="10.4699961"><ele>1035.5</ele><time>2026-04-04T08:51:48.073Z</time></trkpt><trkpt lat="44.2772244" lon="10.4700461"><ele>1037.0</ele><time>2026-04-04T08:51:49.095Z</time></trkpt><trkpt lat="44.2771342" lon="10.470158"><ele>1037.0</ele><time>2026-04-04T08:51:50.089Z</time></trkpt><trkpt lat="44.2770915" lon="10.4702874"><ele>1037.0</ele><time>2026-04-04T08:51:51.077Z</time></trkpt><trkpt lat="44.2770864" lon="10.4704487"><ele>1037.0</ele><time>2026-04-04T08:51:52.086Z</time></trkpt><trkpt lat="44.2771099" lon="10.4706195"><ele>1037.0</ele><time>2026-04-04T08:51:53.096Z</time></trkpt><trkpt lat="44.2771754" lon="10.4707949"><ele>1033.75</ele><time>2026-04-04T08:51:54.103Z</time></trkpt><trkpt lat="44.2771995" lon="10.4709829"><ele>1030.5</ele><time>2026-04-04T08:51:55.089Z</time></trkpt><trkpt lat="44.2771848" lon="10.471165"><ele>1027.25</ele><time>2026-04-04T08:51:56.095Z</time></trkpt><trkpt lat="44.2771317" lon="10.4713545"><ele>1024.0</ele><time>2026-04-04T08:51:57.101Z</time></trkpt><trkpt lat="44.2770593" lon="10.4715183"><ele>1019.5</ele><time>2026-04-04T08:51:58.109Z</time></trkpt><trkpt lat="44.2769711" lon="10.4716432"><ele>1015.0</ele><time>2026-04-04T08:51:59.104Z</time></trkpt><trkpt lat="44.2768656" lon="10.4717176"><ele>1010.5</ele><time>2026-04-04T08:52:00.084Z</time></trkpt><trkpt lat="44.2767377" lon="10.4717295"><ele>1006.0</ele><time>2026-04-04T08:52:01.099Z</time></trkpt><trkpt lat="44.2765926" lon="10.4717081"><ele>1006.0</ele><time>2026-04-04T08:52:02.093Z</time></trkpt><trkpt lat="44.2764599" lon="10.4717278"><ele>1006.0</ele><time>2026-04-04T08:52:03.08Z</time></trkpt><trkpt lat="44.2763545" lon="10.4718014"><ele>1006.0</ele><time>2026-04-04T08:52:04.093Z</time></trkpt><trkpt lat="44.2762924" lon="10.4719391"><ele>1006.0</ele><time>2026-04-04T08:52:05.096Z</time></trkpt><trkpt lat="44.2762764" lon="10.4720971"><ele>1005.5</ele><time>2026-04-04T08:52:06.1Z</time></trkpt><trkpt lat="44.2763345" lon="10.4722463"><ele>1005.0</ele><time>2026-04-04T08:52:07.09Z</time></trkpt><trkpt lat="44.2764373" lon="10.4723887"><ele>1004.5</ele><time>2026-04-04T08:52:08.084Z</time></trkpt><trkpt lat="44.2765499" lon="10.4725131"><ele>1004.0</ele><time>2026-04-04T08:52:09.057Z</time></trkpt><trkpt lat="44.2766655" lon="10.4726381"><ele>1004.0</ele><time>2026-04-04T08:52:10.072Z</time></trkpt><trkpt lat="44.2767681" lon="10.4727687"><ele>1004.0</ele><time>2026-04-04T08:52:11.083Z</time></trkpt><trkpt lat="44.2768533" lon="10.4728986"><ele>1004.0</ele><time>2026-04-04T08:52:12.095Z</time></trkpt><trkpt lat="44.2769145" lon="10.4730428"><ele>1004.0</ele><time>2026-04-04T08:52:13.101Z</time></trkpt><trkpt lat="44.2769246" lon="10.4732"><ele>1003.5</ele><time>2026-04-04T08:52:14.107Z</time></trkpt><trkpt lat="44.2768888" lon="10.4733656"><ele>1003.0</ele><time>2026-04-04T08:52:15.111Z</time></trkpt><trkpt lat="44.2768183" lon="10.4735416"><ele>1002.5</ele><time>2026-04-04T08:52:16.098Z</time></trkpt><trkpt lat="44.276737" lon="10.4737332"><ele>1002.0</ele><time>2026-04-04T08:52:17.105Z</time></trkpt><trkpt lat="44.2766435" lon="10.4739423"><ele>1000.0</ele><time>2026-04-04T08:52:18.092Z</time></trkpt><trkpt lat="44.2765554" lon="10.4741656"><ele>998.0</ele><time>2026-04-04T08:52:19.096Z</time></trkpt><trkpt lat="44.2765414" lon="10.4744062"><ele>996.0</ele><time>2026-04-04T08:52:20.088Z</time></trkpt><trkpt lat="44.2765712" lon="10.4746335"><ele>996.0</ele><time>2026-04-04T08:52:21.083Z</time></trkpt><trkpt lat="44.276606" lon="10.4748444"><ele>996.0</ele><time>2026-04-04T08:52:22.094Z</time></trkpt><trkpt lat="44.276647" lon="10.4750334"><ele>996.0</ele><time>2026-04-04T08:52:23.094Z</time></trkpt><trkpt lat="44.2767072" lon="10.47522"><ele>996.0</ele><time>2026-04-04T08:52:24.079Z</time></trkpt><trkpt lat="44.2767856" lon="10.4753412"><ele>996.0</ele><time>2026-04-04T08:52:25.095Z</time></trkpt><trkpt lat="44.2768904" lon="10.4754255"><ele>996.0</ele><time>2026-04-04T08:52:26.098Z</time></trkpt><trkpt lat="44.2769687" lon="10.4755377"><ele>996.0</ele><time>2026-04-04T08:52:27.082Z</time></trkpt><trkpt lat="44.2770165" lon="10.4756765"><ele>996.0</ele><time>2026-04-04T08:52:28.105Z</time></trkpt><trkpt lat="44.2770128" lon="10.4758316"><ele>996.0</ele><time>2026-04-04T08:52:29.109Z</time></trkpt><trkpt lat="44.2769648" lon="10.4759927"><ele>996.0</ele><time>2026-04-04T08:52:30.093Z</time></trkpt><trkpt lat="44.2768799" lon="10.4761145"><ele>996.0</ele><time>2026-04-04T08:52:31.104Z</time></trkpt><trkpt lat="44.2767534" lon="10.4762252"><ele>996.0</ele><time>2026-04-04T08:52:32.1Z</time></trkpt><trkpt lat="44.2766252" lon="10.4763449"><ele>993.25</ele><time>2026-04-04T08:52:33.083Z</time></trkpt><trkpt lat="44.2764798" lon="10.4764556"><ele>990.5</ele><time>2026-04-04T08:52:34.102Z</time></trkpt><trkpt lat="44.2763384" lon="10.4765267"><ele>987.75</ele><time>2026-04-04T08:52:35.1Z</time></trkpt><trkpt lat="44.2762121" lon="10.4765616"><ele>985.0</ele><time>2026-04-04T08:52:36.077Z</time></trkpt><trkpt lat="44.2761045" lon="10.4766152"><ele>991.0</ele><time>2026-04-04T08:52:37.089Z</time></trkpt><trkpt lat="44.2760068" lon="10.4766788"><ele>997.0</ele><time>2026-04-04T08:52:38.092Z</time></trkpt><trkpt lat="44.2759215" lon="10.4767614"><ele>1003.0</ele><time>2026-04-04T08:52:39.078Z</time></trkpt><trkpt lat="44.2758567" lon="10.4768512"><ele>1009.0</ele><time>2026-04-04T08:52:40.09Z</time></trkpt><trkpt lat="44.2757978" lon="10.4769618"><ele>1015.0</ele><time>2026-04-04T08:52:41.082Z</time></trkpt><trkpt lat="44.2757495" lon="10.4770943"><ele>1011.6666666666666</ele><time>2026-04-04T08:52:42.08Z</time></trkpt><trkpt lat="44.2757165" lon="10.4772815"><ele>1008.3333333333333</ele><time>2026-04-04T08:52:43.09Z</time></trkpt><trkpt lat="44.2757125" lon="10.4775156"><ele>1005.0</ele><time>2026-04-04T08:52:44.098Z</time></trkpt><trkpt lat="44.2757979" lon="10.4777263"><ele>1005.0</ele><time>2026-04-04T08:52:45.101Z</time></trkpt><trkpt lat="44.2758804" lon="10.4778602"><ele>1005.0</ele><time>2026-04-04T08:52:46.085Z</time></trkpt><trkpt lat="44.2759057" lon="10.4779788"><ele>1005.0</ele><time>2026-04-04T08:52:47.087Z</time></trkpt><trkpt lat="44.2758775" lon="10.4780999"><ele>1005.0</ele><time>2026-04-04T08:52:48.095Z</time></trkpt><trkpt lat="44.2758008" lon="10.478183"><ele>1005.0</ele><time>2026-04-04T08:52:49.1Z</time></trkpt><trkpt lat="44.2757115" lon="10.4782343"><ele>1004.1666666666666</ele><time>2026-04-04T08:52:50.1Z</time></trkpt><trkpt lat="44.2756368" lon="10.478292"><ele>1003.3333333333333</ele><time>2026-04-04T08:52:51.094Z</time></trkpt><trkpt lat="44.2755582" lon="10.4783367"><ele>1002.5</ele><time>2026-04-04T08:52:52.099Z</time></trkpt><trkpt lat="44.2754863" lon="10.4783888"><ele>1001.6666666666666</ele><time>2026-04-04T08:52:53.107Z</time></trkpt><trkpt lat="44.2754146" lon="10.4784461"><ele>1000.8333333333333</ele><time>2026-04-04T08:52:54.097Z</time></trkpt><trkpt lat="44.2753351" lon="10.4785033"><ele>1000.0</ele><time>2026-04-04T08:52:55.101Z</time></trkpt><trkpt lat="44.2752509" lon="10.4785719"><ele>1002.5</ele><time>2026-04-04T08:52:56.1Z</time></trkpt><trkpt lat="44.2751658" lon="10.478658"><ele>1005.0</ele><time>2026-04-04T08:52:57.093Z</time></trkpt><trkpt lat="44.2750928" lon="10.4787744"><ele>1007.5</ele><time>2026-04-04T08:52:58.103Z</time></trkpt><trkpt lat="44.2750485" lon="10.4789443"><ele>1010.0</ele><time>2026-04-04T08:52:59.103Z</time></trkpt><trkpt lat="44.2750286" lon="10.4791421"><ele>1010.0</ele><time>2026-04-04T08:53:00.086Z</time></trkpt><trkpt lat="44.275023" lon="10.4793532"><ele>1010.0</ele><time>2026-04-04T08:53:01.101Z</time></trkpt><trkpt lat="44.2750176" lon="10.479558"><ele>1010.0</ele><time>2026-04-04T08:53:02.098Z</time></trkpt><trkpt lat="44.2750096" lon="10.479747"><ele>1010.0</ele><time>2026-04-04T08:53:03.088Z</time></trkpt><trkpt lat="44.2749992" lon="10.4799282"><ele>1008.25</ele><time>2026-04-04T08:53:04.1Z</time></trkpt><trkpt lat="44.2749733" lon="10.4800955"><ele>1006.5</ele><time>2026-04-04T08:53:05.102Z</time></trkpt><trkpt lat="44.2749315" lon="10.4802566"><ele>1004.75</ele><time>2026-04-04T08:53:06.078Z</time></trkpt><trkpt lat="44.274871" lon="10.4804106"><ele>1003.0</ele><time>2026-04-04T08:53:07.098Z</time></trkpt><trkpt lat="44.2747793" lon="10.480541"><ele>1005.0</ele><time>2026-04-04T08:53:08.1Z</time></trkpt><trkpt lat="44.2746569" lon="10.480645"><ele>1007.0</ele><time>2026-04-04T08:53:09.082Z</time></trkpt><trkpt lat="44.2745325" lon="10.4807502"><ele>1009.0</ele><time>2026-04-04T08:53:10.1Z</time></trkpt><trkpt lat="44.2744084" lon="10.4808678"><ele>1011.0</ele><time>2026-04-04T08:53:11.102Z</time></trkpt><trkpt lat="44.2742812" lon="10.4809866"><ele>1011.0</ele><time>2026-04-04T08:53:12.087Z</time></trkpt><trkpt lat="44.2741782" lon="10.4811297"><ele>1011.0</ele><time>2026-04-04T08:53:13.115Z</time></trkpt><trkpt lat="44.2740896" lon="10.4812933"><ele>1011.0</ele><time>2026-04-04T08:53:14.104Z</time></trkpt><trkpt lat="44.2740096" lon="10.4814626"><ele>1011.0</ele><time>2026-04-04T08:53:15.093Z</time></trkpt><trkpt lat="44.2739436" lon="10.4816232"><ele>1011.75</ele><time>2026-04-04T08:53:16.114Z</time></trkpt><trkpt lat="44.273875" lon="10.4817885"><ele>1012.5</ele><time>2026-04-04T08:53:17.115Z</time></trkpt><trkpt lat="44.2738125" lon="10.4819599"><ele>1013.25</ele><time>2026-04-04T08:53:18.086Z</time></trkpt><trkpt lat="44.2737613" lon="10.4821367"><ele>1014.0</ele><time>2026-04-04T08:53:19.106Z</time></trkpt><trkpt lat="44.2737184" lon="10.4823283"><ele>1014.0</ele><time>2026-04-04T08:53:20.1Z</time></trkpt><trkpt lat="44.2736789" lon="10.4825276"><ele>1014.0</ele><time>2026-04-04T08:53:21.088Z</time></trkpt><trkpt lat="44.2736458" lon="10.482734"><ele>1014.0</ele><time>2026-04-04T08:53:22.112Z</time></trkpt><trkpt lat="44.2736046" lon="10.4829388"><ele>1013.25</ele><time>2026-04-04T08:53:23.119Z</time></trkpt><trkpt lat="44.2735604" lon="10.4831379"><ele>1012.5</ele><time>2026-04-04T08:53:24.095Z</time></trkpt><trkpt lat="44.2735149" lon="10.4833369"><ele>1011.75</ele><time>2026-04-04T08:53:25.118Z</time></trkpt><trkpt lat="44.273474" lon="10.4835173"><ele>1011.0</ele><time>2026-04-04T08:53:26.109Z</time></trkpt><trkpt lat="44.2734464" lon="10.4836931"><ele>1009.75</ele><time>2026-04-04T08:53:27.099Z</time></trkpt><trkpt lat="44.2734236" lon="10.4838639"><ele>1008.5</ele><time>2026-04-04T08:53:28.108Z</time></trkpt><trkpt lat="44.2733957" lon="10.4840269"><ele>1007.25</ele><time>2026-04-04T08:53:29.118Z</time></trkpt><trkpt lat="44.2733646" lon="10.4841737"><ele>1006.0</ele><time>2026-04-04T08:53:30.093Z</time></trkpt><trkpt lat="44.2733355" lon="10.4843283"><ele>1006.0</ele><time>2026-04-04T08:53:31.116Z</time></trkpt><trkpt lat="44.2733138" lon="10.484476"><ele>1005.9999999999999</ele><time>2026-04-04T08:53:32.108Z</time></trkpt><trkpt lat="44.2733009" lon="10.4846294"><ele>1005.9999999999999</ele><time>2026-04-04T08:53:33.095Z</time></trkpt><trkpt lat="44.2732984" lon="10.484787"><ele>1006.0</ele><time>2026-04-04T08:53:34.104Z</time></trkpt><trkpt lat="44.2733021" lon="10.4849427"><ele>1006.0</ele><time>2026-04-04T08:53:35.108Z</time></trkpt><trkpt lat="44.273309" lon="10.485106"><ele>1005.4</ele><time>2026-04-04T08:53:36.096Z</time></trkpt><trkpt lat="44.2733119" lon="10.4852669"><ele>1004.8</ele><time>2026-04-04T08:53:37.116Z</time></trkpt><trkpt lat="44.2733114" lon="10.4854211"><ele>1004.1999999999999</ele><time>2026-04-04T08:53:38.106Z</time></trkpt><trkpt lat="44.2733059" lon="10.4855634"><ele>1003.5999999999999</ele><time>2026-04-04T08:53:39.103Z</time></trkpt><trkpt lat="44.2733011" lon="10.4856956"><ele>1003.0</ele><time>2026-04-04T08:53:40.103Z</time></trkpt><trkpt lat="44.2732973" lon="10.4858215"><ele>1003.0</ele><time>2026-04-04T08:53:41.111Z</time></trkpt><trkpt lat="44.2732831" lon="10.4859435"><ele>1003.0</ele><time>2026-04-04T08:53:42.104Z</time></trkpt><trkpt lat="44.2732458" lon="10.4860543"><ele>1003.0</ele><time>2026-04-04T08:53:43.109Z</time></trkpt><trkpt lat="44.2731798" lon="10.486121"><ele>1003.0</ele><time>2026-04-04T08:53:44.112Z</time></trkpt><trkpt lat="44.2730863" lon="10.4861401"><ele>1003.0</ele><time>2026-04-04T08:53:45.092Z</time></trkpt><trkpt lat="44.2729839" lon="10.4861266"><ele>1003.8</ele><time>2026-04-04T08:53:46.086Z</time></trkpt><trkpt lat="44.2728756" lon="10.4861008"><ele>1004.5999999999999</ele><time>2026-04-04T08:53:47.113Z</time></trkpt><trkpt lat="44.2727685" lon="10.486081"><ele>1005.4000000000001</ele><time>2026-04-04T08:53:48.105Z</time></trkpt><trkpt lat="44.2726618" lon="10.486064"><ele>1006.2</ele><time>2026-04-04T08:53:49.096Z</time></trkpt><trkpt lat="44.272553" lon="10.4860563"><ele>1007.0</ele><time>2026-04-04T08:53:50.112Z</time></trkpt><trkpt lat="44.2724435" lon="10.4860539"><ele>1007.0</ele><time>2026-04-04T08:53:51.087Z</time></trkpt><trkpt lat="44.2723336" lon="10.4860434"><ele>1007.0</ele><time>2026-04-04T08:53:52.1Z</time></trkpt><trkpt lat="44.2722192" lon="10.4860403"><ele>1007.0</ele><time>2026-04-04T08:53:53.113Z</time></trkpt><trkpt lat="44.2721034" lon="10.4860475"><ele>1007.0</ele><time>2026-04-04T08:53:54.086Z</time></trkpt><trkpt lat="44.2719946" lon="10.4860916"><ele>1008.5</ele><time>2026-04-04T08:53:55.103Z</time></trkpt><trkpt lat="44.2719058" lon="10.4861816"><ele>1010.0</ele><time>2026-04-04T08:53:56.096Z</time></trkpt><trkpt lat="44.2718259" lon="10.4863206"><ele>1011.5</ele><time>2026-04-04T08:53:57.106Z</time></trkpt><trkpt lat="44.2717414" lon="10.486467"><ele>1013.0</ele><time>2026-04-04T08:53:58.101Z</time></trkpt><trkpt lat="44.2716592" lon="10.4866157"><ele>1009.0</ele><time>2026-04-04T08:53:59.108Z</time></trkpt><trkpt lat="44.2715815" lon="10.4867695"><ele>1005.0</ele><time>2026-04-04T08:54:00.11Z</time></trkpt><trkpt lat="44.271504" lon="10.4869093"><ele>1001.0</ele><time>2026-04-04T08:54:01.12Z</time></trkpt><trkpt lat="44.2714229" lon="10.4870401"><ele>997.0</ele><time>2026-04-04T08:54:02.092Z</time></trkpt><trkpt lat="44.2713457" lon="10.4871578"><ele>994.0</ele><time>2026-04-04T08:54:03.125Z</time></trkpt><trkpt lat="44.2712723" lon="10.4872831"><ele>991.0</ele><time>2026-04-04T08:54:04.115Z</time></trkpt><trkpt lat="44.2711993" lon="10.4873942"><ele>988.0</ele><time>2026-04-04T08:54:05.099Z</time></trkpt><trkpt lat="44.2711264" lon="10.4874966"><ele>985.0</ele><time>2026-04-04T08:54:06.12Z</time></trkpt><trkpt lat="44.2710432" lon="10.4875575"><ele>982.0</ele><time>2026-04-04T08:54:07.104Z</time></trkpt><trkpt lat="44.2709541" lon="10.4875608"><ele>982.0</ele><time>2026-04-04T08:54:08.106Z</time></trkpt><trkpt lat="44.2708625" lon="10.4875017"><ele>982.0</ele><time>2026-04-04T08:54:09.09Z</time></trkpt><trkpt lat="44.2707996" lon="10.4874057"><ele>982.0</ele><time>2026-04-04T08:54:10.095Z</time></trkpt><trkpt lat="44.270767" lon="10.4872667"><ele>982.0</ele><time>2026-04-04T08:54:11.096Z</time></trkpt><trkpt lat="44.2707467" lon="10.4871205"><ele>982.0</ele><time>2026-04-04T08:54:12.08Z</time></trkpt><trkpt lat="44.2707275" lon="10.4869764"><ele>981.2</ele><time>2026-04-04T08:54:13.08Z</time></trkpt><trkpt lat="44.270702" lon="10.4868385"><ele>980.4000000000001</ele><time>2026-04-04T08:54:14.083Z</time></trkpt><trkpt lat="44.2706576" lon="10.4867188"><ele>979.5999999999999</ele><time>2026-04-04T08:54:15.08Z</time></trkpt><trkpt lat="44.2705959" lon="10.4866234"><ele>978.8</ele><time>2026-04-04T08:54:16.079Z</time></trkpt><trkpt lat="44.270523" lon="10.4865582"><ele>978.0</ele><time>2026-04-04T08:54:17.096Z</time></trkpt><trkpt lat="44.2704404" lon="10.4865242"><ele>978.0</ele><time>2026-04-04T08:54:18.09Z</time></trkpt><trkpt lat="44.2703517" lon="10.4865108"><ele>978.0</ele><time>2026-04-04T08:54:19.086Z</time></trkpt><trkpt lat="44.2702571" lon="10.4865202"><ele>978.0</ele><time>2026-04-04T08:54:20.083Z</time></trkpt><trkpt lat="44.270159" lon="10.4865186"><ele>978.0</ele><time>2026-04-04T08:54:21.071Z</time></trkpt><trkpt lat="44.2700589" lon="10.4864953"><ele>978.0</ele><time>2026-04-04T08:54:22.154Z</time></trkpt><trkpt lat="44.269962" lon="10.4864417"><ele>978.0</ele><time>2026-04-04T08:54:23.087Z</time></trkpt><trkpt lat="44.2698722" lon="10.4863637"><ele>978.0</ele><time>2026-04-04T08:54:24.072Z</time></trkpt><trkpt lat="44.2697871" lon="10.4862838"><ele>978.0</ele><time>2026-04-04T08:54:25.073Z</time></trkpt><trkpt lat="44.2697021" lon="10.4862065"><ele>978.0</ele><time>2026-04-04T08:54:26.079Z</time></trkpt><trkpt lat="44.2696157" lon="10.4861353"><ele>978.0</ele><time>2026-04-04T08:54:27.084Z</time></trkpt><trkpt lat="44.269525" lon="10.4860761"><ele>979.8</ele><time>2026-04-04T08:54:28.091Z</time></trkpt><trkpt lat="44.2694273" lon="10.4860437"><ele>981.5999999999999</ele><time>2026-04-04T08:54:29.089Z</time></trkpt><trkpt lat="44.2693258" lon="10.4860323"><ele>983.4000000000001</ele><time>2026-04-04T08:54:30.084Z</time></trkpt><trkpt lat="44.2692186" lon="10.4860335"><ele>985.2</ele><time>2026-04-04T08:54:31.088Z</time></trkpt><trkpt lat="44.2691066" lon="10.486028"><ele>987.0</ele><time>2026-04-04T08:54:32.086Z</time></trkpt><trkpt lat="44.2689985" lon="10.4859901"><ele>987.25</ele><time>2026-04-04T08:54:33.082Z</time></trkpt><trkpt lat="44.268895" lon="10.485926"><ele>987.5</ele><time>2026-04-04T08:54:34.079Z</time></trkpt><trkpt lat="44.2687935" lon="10.4858708"><ele>987.75</ele><time>2026-04-04T08:54:35.084Z</time></trkpt><trkpt lat="44.2686819" lon="10.4858413"><ele>988.0</ele><time>2026-04-04T08:54:36.074Z</time></trkpt><trkpt lat="44.2685648" lon="10.4858306"><ele>988.0</ele><time>2026-04-04T08:54:37.075Z</time></trkpt><trkpt lat="44.2684509" lon="10.4858337"><ele>988.0</ele><time>2026-04-04T08:54:38.087Z</time></trkpt><trkpt lat="44.2683423" lon="10.4858445"><ele>988.0</ele><time>2026-04-04T08:54:39.081Z</time></trkpt><trkpt lat="44.2682323" lon="10.4858638"><ele>988.0</ele><time>2026-04-04T08:54:40.094Z</time></trkpt><trkpt lat="44.268124" lon="10.4858828"><ele>988.0</ele><time>2026-04-04T08:54:41.093Z</time></trkpt><trkpt lat="44.2680184" lon="10.4859058"><ele>995.2</ele><time>2026-04-04T08:54:42.085Z</time></trkpt><trkpt lat="44.2679148" lon="10.4859264"><ele>1002.4</ele><time>2026-04-04T08:54:43.098Z</time></trkpt><trkpt lat="44.2678102" lon="10.4859603"><ele>1009.6000000000001</ele><time>2026-04-04T08:54:44.089Z</time></trkpt><trkpt lat="44.2677096" lon="10.4860109"><ele>1016.8000000000001</ele><time>2026-04-04T08:54:45.099Z</time></trkpt><trkpt lat="44.2676052" lon="10.486086"><ele>1024.0</ele><time>2026-04-04T08:54:46.087Z</time></trkpt><trkpt lat="44.2674992" lon="10.4862071"><ele>1014.0</ele><time>2026-04-04T08:54:47.082Z</time></trkpt><trkpt lat="44.2673812" lon="10.4863589"><ele>1004.0</ele><time>2026-04-04T08:54:48.062Z</time></trkpt><trkpt lat="44.2672569" lon="10.4865153"><ele>994.0</ele><time>2026-04-04T08:54:49.093Z</time></trkpt><trkpt lat="44.2671631" lon="10.4867094"><ele>994.0</ele><time>2026-04-04T08:54:50.087Z</time></trkpt><trkpt lat="44.2670804" lon="10.4869042"><ele>994.0</ele><time>2026-04-04T08:54:51.077Z</time></trkpt><trkpt lat="44.2670205" lon="10.4870502"><ele>994.0</ele><time>2026-04-04T08:54:52.086Z</time></trkpt><trkpt lat="44.2669582" lon="10.4871891"><ele>994.0</ele><time>2026-04-04T08:54:53.092Z</time></trkpt><trkpt lat="44.2669096" lon="10.4873275"><ele>987.9999999999999</ele><time>2026-04-04T08:54:54.09Z</time></trkpt><trkpt lat="44.2668645" lon="10.4874192"><ele>982.0</ele><time>2026-04-04T08:54:55.102Z</time></trkpt><trkpt lat="44.2668282" lon="10.487493"><ele>976.0</ele><time>2026-04-04T08:54:56.084Z</time></trkpt><trkpt lat="44.2667352" lon="10.4875613"><ele>970.0</ele><time>2026-04-04T08:54:58.105Z</time></trkpt><trkpt lat="44.2666204" lon="10.4875494"><ele>963.9999999999999</ele><time>2026-04-04T08:55:00.09Z</time></trkpt><trkpt lat="44.2665589" lon="10.4875073"><ele>958.0</ele><time>2026-04-04T08:55:01.094Z</time></trkpt><trkpt lat="44.2665177" lon="10.4874268"><ele>957.9999999999999</ele><time>2026-04-04T08:55:02.075Z</time></trkpt><trkpt lat="44.2664922" lon="10.4873282"><ele>958.0</ele><time>2026-04-04T08:55:03.06Z</time></trkpt><trkpt lat="44.2664827" lon="10.4872148"><ele>958.0</ele><time>2026-04-04T08:55:04.072Z</time></trkpt><trkpt lat="44.266482" lon="10.4871005"><ele>958.0</ele><time>2026-04-04T08:55:05.065Z</time></trkpt><trkpt lat="44.2664837" lon="10.4869827"><ele>957.9999999999999</ele><time>2026-04-04T08:55:06.066Z</time></trkpt><trkpt lat="44.2664816" lon="10.4868798"><ele>958.0</ele><time>2026-04-04T08:55:07.065Z</time></trkpt><trkpt lat="44.2664746" lon="10.4867758"><ele>958.8333333333333</ele><time>2026-04-04T08:55:08.066Z</time></trkpt><trkpt lat="44.2664555" lon="10.486667"><ele>959.6666666666666</ele><time>2026-04-04T08:55:09.065Z</time></trkpt><trkpt lat="44.2664245" lon="10.4865645"><ele>960.5</ele><time>2026-04-04T08:55:10.059Z</time></trkpt><trkpt lat="44.266368" lon="10.4864824"><ele>961.3333333333333</ele><time>2026-04-04T08:55:11.145Z</time></trkpt><trkpt lat="44.2662987" lon="10.4864209"><ele>962.1666666666666</ele><time>2026-04-04T08:55:12.058Z</time></trkpt><trkpt lat="44.266218" lon="10.4863723"><ele>963.0</ele><time>2026-04-04T08:55:13.07Z</time></trkpt><trkpt lat="44.2661333" lon="10.4863364"><ele>963.0</ele><time>2026-04-04T08:55:14.059Z</time></trkpt><trkpt lat="44.2660474" lon="10.4863016"><ele>963.0</ele><time>2026-04-04T08:55:15.062Z</time></trkpt><trkpt lat="44.2659832" lon="10.4862319"><ele>963.0</ele><time>2026-04-04T08:55:16.059Z</time></trkpt><trkpt lat="44.2659262" lon="10.4861634"><ele>963.0</ele><time>2026-04-04T08:55:17.054Z</time></trkpt><trkpt lat="44.2658691" lon="10.4860894"><ele>963.0</ele><time>2026-04-04T08:55:18.034Z</time></trkpt><trkpt lat="44.2658125" lon="10.4860162"><ele>963.0</ele><time>2026-04-04T08:55:19.035Z</time></trkpt><trkpt lat="44.2657555" lon="10.4859422"><ele>971.0</ele><time>2026-04-04T08:55:20.034Z</time></trkpt><trkpt lat="44.2656983" lon="10.4858685"><ele>979.0</ele><time>2026-04-04T08:55:20.995Z</time></trkpt><trkpt lat="44.2650264" lon="10.4849995"><ele>979.0</ele><time>2026-04-04T08:55:27.062Z</time></trkpt><trkpt lat="44.2649188" lon="10.4848812"><ele>979.0</ele><time>2026-04-04T08:55:28.067Z</time></trkpt><trkpt lat="44.2648678" lon="10.4847722"><ele>979.0</ele><time>2026-04-04T08:55:29.066Z</time></trkpt><trkpt lat="44.2647895" lon="10.4845974"><ele>979.0</ele><time>2026-04-04T08:55:31.073Z</time></trkpt><trkpt lat="44.2647787" lon="10.4844686"><ele>975.2</ele><time>2026-04-04T08:55:32.07Z</time></trkpt><trkpt lat="44.2647723" lon="10.4843284"><ele>971.4000000000001</ele><time>2026-04-04T08:55:33.069Z</time></trkpt><trkpt lat="44.2647555" lon="10.4841947"><ele>967.6</ele><time>2026-04-04T08:55:34.071Z</time></trkpt><trkpt lat="44.2647297" lon="10.4840735"><ele>963.8</ele><time>2026-04-04T08:55:35.076Z</time></trkpt><trkpt lat="44.2646827" lon="10.4839759"><ele>960.0</ele><time>2026-04-04T08:55:36.075Z</time></trkpt><trkpt lat="44.2646198" lon="10.4839044"><ele>960.0</ele><time>2026-04-04T08:55:37.08Z</time></trkpt><trkpt lat="44.2645382" lon="10.4838709"><ele>960.0</ele><time>2026-04-04T08:55:38.077Z</time></trkpt><trkpt lat="44.2644586" lon="10.4838612"><ele>960.0</ele><time>2026-04-04T08:55:39.092Z</time></trkpt><trkpt lat="44.2643813" lon="10.4838694"><ele>960.0</ele><time>2026-04-04T08:55:40.08Z</time></trkpt><trkpt lat="44.2642955" lon="10.4838687"><ele>960.0</ele><time>2026-04-04T08:55:41.088Z</time></trkpt><trkpt lat="44.2642225" lon="10.4838305"><ele>960.0</ele><time>2026-04-04T08:55:42.088Z</time></trkpt><trkpt lat="44.2641647" lon="10.4837735"><ele>960.0</ele><time>2026-04-04T08:55:43.077Z</time></trkpt><trkpt lat="44.2641246" lon="10.4836938"><ele>960.0</ele><time>2026-04-04T08:55:44.085Z</time></trkpt><trkpt lat="44.2640943" lon="10.4835942"><ele>960.0</ele><time>2026-04-04T08:55:45.077Z</time></trkpt><trkpt lat="44.2640676" lon="10.4834772"><ele>960.0</ele><time>2026-04-04T08:55:46.061Z</time></trkpt><trkpt lat="44.264034" lon="10.4833419"><ele>960.0</ele><time>2026-04-04T08:55:47.167Z</time></trkpt><trkpt lat="44.263992" lon="10.4832231"><ele>960.0</ele><time>2026-04-04T08:55:48.083Z</time></trkpt><trkpt lat="44.2639234" lon="10.4831348"><ele>960.0</ele><time>2026-04-04T08:55:49.076Z</time></trkpt><trkpt lat="44.2638376" lon="10.4830775"><ele>960.0</ele><time>2026-04-04T08:55:50.081Z</time></trkpt><trkpt lat="44.2637526" lon="10.483042"><ele>960.0</ele><time>2026-04-04T08:55:51.095Z</time></trkpt><trkpt lat="44.2636687" lon="10.4830328"><ele>960.0</ele><time>2026-04-04T08:55:52.086Z</time></trkpt><trkpt lat="44.2635808" lon="10.4830421"><ele>960.0</ele><time>2026-04-04T08:55:53.101Z</time></trkpt><trkpt lat="44.2634989" lon="10.4830464"><ele>960.0</ele><time>2026-04-04T08:55:54.091Z</time></trkpt><trkpt lat="44.2634227" lon="10.483031"><ele>960.0</ele><time>2026-04-04T08:55:55.077Z</time></trkpt><trkpt lat="44.2633489" lon="10.4830112"><ele>960.0</ele><time>2026-04-04T08:55:56.082Z</time></trkpt><trkpt lat="44.2632896" lon="10.4829538"><ele>960.0</ele><time>2026-04-04T08:55:57.088Z</time></trkpt><trkpt lat="44.2632419" lon="10.4828833"><ele>960.0</ele><time>2026-04-04T08:55:58.073Z</time></trkpt><trkpt lat="44.263206" lon="10.4827853"><ele>960.0</ele><time>2026-04-04T08:55:59.08Z</time></trkpt><trkpt lat="44.2631846" lon="10.4826609"><ele>960.0</ele><time>2026-04-04T08:56:00.087Z</time></trkpt><trkpt lat="44.2631604" lon="10.4825323"><ele>966.8</ele><time>2026-04-04T08:56:01.083Z</time></trkpt><trkpt lat="44.2631215" lon="10.4824115"><ele>973.6</ele><time>2026-04-04T08:56:02.079Z</time></trkpt><trkpt lat="44.2630574" lon="10.4823099"><ele>980.4000000000001</ele><time>2026-04-04T08:56:03.078Z</time></trkpt><trkpt lat="44.2629724" lon="10.4822378"><ele>987.2</ele><time>2026-04-04T08:56:04.06Z</time></trkpt><trkpt lat="44.2628841" lon="10.4822138"><ele>994.0</ele><time>2026-04-04T08:56:05.175Z</time></trkpt><trkpt lat="44.2627989" lon="10.4822073"><ele>994.75</ele><time>2026-04-04T08:56:06.088Z</time></trkpt><trkpt lat="44.2627138" lon="10.4822264"><ele>995.5</ele><time>2026-04-04T08:56:07.072Z</time></trkpt><trkpt lat="44.2626189" lon="10.4822965"><ele>996.25</ele><time>2026-04-04T08:56:08.079Z</time></trkpt><trkpt lat="44.2625184" lon="10.482406"><ele>997.0</ele><time>2026-04-04T08:56:09.075Z</time></trkpt><trkpt lat="44.2623723" lon="10.4825794"><ele>997.3333333333333</ele><time>2026-04-04T08:56:10.063Z</time></trkpt><trkpt lat="44.2622214" lon="10.4827787"><ele>997.6666666666667</ele><time>2026-04-04T08:56:11.08Z</time></trkpt><trkpt lat="44.262076" lon="10.4829543"><ele>998.0</ele><time>2026-04-04T08:56:12.07Z</time></trkpt><trkpt lat="44.2618947" lon="10.4831076"><ele>998.0</ele><time>2026-04-04T08:56:13.067Z</time></trkpt><trkpt lat="44.2617079" lon="10.4832957"><ele>998.0</ele><time>2026-04-04T08:56:14.067Z</time></trkpt><trkpt lat="44.2615305" lon="10.4834742"><ele>998.0</ele><time>2026-04-04T08:56:15.072Z</time></trkpt><trkpt lat="44.2613621" lon="10.4836832"><ele>995.3333333333334</ele><time>2026-04-04T08:56:16.067Z</time></trkpt><trkpt lat="44.2612259" lon="10.4839092"><ele>992.6666666666667</ele><time>2026-04-04T08:56:17.089Z</time></trkpt><trkpt lat="44.2611027" lon="10.4840905"><ele>990.0</ele><time>2026-04-04T08:56:18.085Z</time></trkpt><trkpt lat="44.2609835" lon="10.4842287"><ele>990.0</ele><time>2026-04-04T08:56:19.087Z</time></trkpt><trkpt lat="44.2608651" lon="10.4843384"><ele>990.0</ele><time>2026-04-04T08:56:20.088Z</time></trkpt><trkpt lat="44.2607116" lon="10.4843649"><ele>990.0</ele><time>2026-04-04T08:56:21.088Z</time></trkpt><trkpt lat="44.260571" lon="10.4843751"><ele>990.0</ele><time>2026-04-04T08:56:22.095Z</time></trkpt><trkpt lat="44.2604235" lon="10.4843917"><ele>989.3333333333333</ele><time>2026-04-04T08:56:23.089Z</time></trkpt><trkpt lat="44.260268" lon="10.4843815"><ele>988.6666666666666</ele><time>2026-04-04T08:56:24.071Z</time></trkpt><trkpt lat="44.2601149" lon="10.4843607"><ele>988.0</ele><time>2026-04-04T08:56:25.068Z</time></trkpt><trkpt lat="44.2599746" lon="10.4843278"><ele>988.0</ele><time>2026-04-04T08:56:26.08Z</time></trkpt><trkpt lat="44.2598475" lon="10.4842777"><ele>988.0</ele><time>2026-04-04T08:56:27.08Z</time></trkpt><trkpt lat="44.2597283" lon="10.4842134"><ele>988.0</ele><time>2026-04-04T08:56:28.069Z</time></trkpt><trkpt lat="44.2596282" lon="10.4841006"><ele>988.0</ele><time>2026-04-04T08:56:29.162Z</time></trkpt><trkpt lat="44.2595535" lon="10.4839406"><ele>986.5</ele><time>2026-04-04T08:56:30.083Z</time></trkpt><trkpt lat="44.2594874" lon="10.483768"><ele>985.0</ele><time>2026-04-04T08:56:31.074Z</time></trkpt><trkpt lat="44.2594107" lon="10.4836065"><ele>983.5</ele><time>2026-04-04T08:56:32.078Z</time></trkpt><trkpt lat="44.2593289" lon="10.4834463"><ele>982.0</ele><time>2026-04-04T08:56:33.079Z</time></trkpt><trkpt lat="44.2592391" lon="10.4832835"><ele>982.0</ele><time>2026-04-04T08:56:34.081Z</time></trkpt><trkpt lat="44.259149" lon="10.4831161"><ele>982.0</ele><time>2026-04-04T08:56:35.085Z</time></trkpt><trkpt lat="44.2590625" lon="10.4829438"><ele>982.0</ele><time>2026-04-04T08:56:36.082Z</time></trkpt><trkpt lat="44.2589846" lon="10.482767"><ele>982.0</ele><time>2026-04-04T08:56:37.087Z</time></trkpt><trkpt lat="44.2589084" lon="10.482592"><ele>977.3333333333333</ele><time>2026-04-04T08:56:38.089Z</time></trkpt><trkpt lat="44.2588454" lon="10.4823929"><ele>972.6666666666667</ele><time>2026-04-04T08:56:39.087Z</time></trkpt><trkpt lat="44.2588087" lon="10.4821816"><ele>968.0</ele><time>2026-04-04T08:56:40.067Z</time></trkpt><trkpt lat="44.2587641" lon="10.4819677"><ele>968.0</ele><time>2026-04-04T08:56:41.329Z</time></trkpt><trkpt lat="44.2586668" lon="10.4815451"><ele>968.0</ele><time>2026-04-04T08:56:43.087Z</time></trkpt><trkpt lat="44.2586205" lon="10.4813321"><ele>971.25</ele><time>2026-04-04T08:56:44.09Z</time></trkpt><trkpt lat="44.2585917" lon="10.4811341"><ele>974.5</ele><time>2026-04-04T08:56:45.085Z</time></trkpt><trkpt lat="44.2586051" lon="10.480943"><ele>977.75</ele><time>2026-04-04T08:56:46.097Z</time></trkpt><trkpt lat="44.258686" lon="10.4807543"><ele>981.0</ele><time>2026-04-04T08:56:47.102Z</time></trkpt><trkpt lat="44.2588054" lon="10.4806005"><ele>981.0</ele><time>2026-04-04T08:56:48.097Z</time></trkpt><trkpt lat="44.2589038" lon="10.4804721"><ele>981.0</ele><time>2026-04-04T08:56:49.105Z</time></trkpt><trkpt lat="44.2589579" lon="10.4803228"><ele>981.0</ele><time>2026-04-04T08:56:50.088Z</time></trkpt><trkpt lat="44.258944" lon="10.4801599"><ele>981.0</ele><time>2026-04-04T08:56:51.087Z</time></trkpt><trkpt lat="44.258864" lon="10.4799963"><ele>985.25</ele><time>2026-04-04T08:56:52.087Z</time></trkpt><trkpt lat="44.258776" lon="10.4798524"><ele>989.5</ele><time>2026-04-04T08:56:53.106Z</time></trkpt><trkpt lat="44.2586757" lon="10.47974"><ele>993.75</ele><time>2026-04-04T08:56:54.091Z</time></trkpt><trkpt lat="44.258559" lon="10.4796787"><ele>998.0</ele><time>2026-04-04T08:56:55.095Z</time></trkpt><trkpt lat="44.2584266" lon="10.4796565"><ele>998.0</ele><time>2026-04-04T08:56:56.094Z</time></trkpt><trkpt lat="44.258281" lon="10.4796715"><ele>998.0</ele><time>2026-04-04T08:56:57.101Z</time></trkpt><trkpt lat="44.2581377" lon="10.4797345"><ele>998.0</ele><time>2026-04-04T08:56:58.086Z</time></trkpt><trkpt lat="44.258004" lon="10.4798581"><ele>1000.3333333333334</ele><time>2026-04-04T08:56:59.352Z</time></trkpt><trkpt lat="44.2577637" lon="10.480066"><ele>1002.6666666666667</ele><time>2026-04-04T08:57:01.1Z</time></trkpt><trkpt lat="44.2576494" lon="10.4801606"><ele>1005.0</ele><time>2026-04-04T08:57:02.105Z</time></trkpt><trkpt lat="44.2575299" lon="10.4801685"><ele>1005.0</ele><time>2026-04-04T08:57:03.102Z</time></trkpt><trkpt lat="44.2574031" lon="10.4800887"><ele>1005.0</ele><time>2026-04-04T08:57:04.096Z</time></trkpt><trkpt lat="44.2572819" lon="10.4799754"><ele>1005.0</ele><time>2026-04-04T08:57:05.093Z</time></trkpt><trkpt lat="44.2571655" lon="10.4798694"><ele>1005.0</ele><time>2026-04-04T08:57:06.098Z</time></trkpt><trkpt lat="44.257068" lon="10.47975"><ele>1005.6</ele><time>2026-04-04T08:57:07.101Z</time></trkpt><trkpt lat="44.2569921" lon="10.4796532"><ele>1006.2</ele><time>2026-04-04T08:57:08.097Z</time></trkpt><trkpt lat="44.256902" lon="10.4796317"><ele>1006.8</ele><time>2026-04-04T08:57:09.104Z</time></trkpt><trkpt lat="44.2568334" lon="10.4797109"><ele>1007.4</ele><time>2026-04-04T08:57:10.096Z</time></trkpt><trkpt lat="44.2567915" lon="10.4798339"><ele>1008.0</ele><time>2026-04-04T08:57:11.102Z</time></trkpt><trkpt lat="44.2567901" lon="10.4800331"><ele>1008.0</ele><time>2026-04-04T08:57:12.089Z</time></trkpt><trkpt lat="44.2567898" lon="10.4801918"><ele>1008.0</ele><time>2026-04-04T08:57:13.093Z</time></trkpt><trkpt lat="44.25676" lon="10.4803425"><ele>1008.0</ele><time>2026-04-04T08:57:14.103Z</time></trkpt><trkpt lat="44.2567007" lon="10.4804443"><ele>1008.0</ele><time>2026-04-04T08:57:15.095Z</time></trkpt><trkpt lat="44.2566156" lon="10.4804671"><ele>1008.0</ele><time>2026-04-04T08:57:16.068Z</time></trkpt><trkpt lat="44.2564993" lon="10.480392"><ele>1001.0</ele><time>2026-04-04T08:57:17.341Z</time></trkpt><trkpt lat="44.2563551" lon="10.4800451"><ele>994.0</ele><time>2026-04-04T08:57:19.086Z</time></trkpt><trkpt lat="44.2562883" lon="10.4798405"><ele>987.0</ele><time>2026-04-04T08:57:20.076Z</time></trkpt><trkpt lat="44.256216" lon="10.4796207"><ele>993.3333333333333</ele><time>2026-04-04T08:57:21.077Z</time></trkpt><trkpt lat="44.2561375" lon="10.4793972"><ele>999.6666666666666</ele><time>2026-04-04T08:57:22.088Z</time></trkpt><trkpt lat="44.2560518" lon="10.4792047"><ele>1006.0</ele><time>2026-04-04T08:57:23.09Z</time></trkpt><trkpt lat="44.2559674" lon="10.4790193"><ele>1006.0</ele><time>2026-04-04T08:57:24.102Z</time></trkpt><trkpt lat="44.2558949" lon="10.4788372"><ele>1006.0</ele><time>2026-04-04T08:57:25.094Z</time></trkpt><trkpt lat="44.2558049" lon="10.4786767"><ele>1006.0</ele><time>2026-04-04T08:57:26.097Z</time></trkpt><trkpt lat="44.2556907" lon="10.4785612"><ele>1006.0</ele><time>2026-04-04T08:57:27.093Z</time></trkpt><trkpt lat="44.2556011" lon="10.4784519"><ele>1003.5</ele><time>2026-04-04T08:57:28.098Z</time></trkpt><trkpt lat="44.2555604" lon="10.4783026"><ele>1001.0</ele><time>2026-04-04T08:57:29.107Z</time></trkpt><trkpt lat="44.2556065" lon="10.478118"><ele>998.5</ele><time>2026-04-04T08:57:30.103Z</time></trkpt><trkpt lat="44.2556768" lon="10.4779683"><ele>996.0</ele><time>2026-04-04T08:57:31.1Z</time></trkpt><trkpt lat="44.2557658" lon="10.4778051"><ele>1001.0</ele><time>2026-04-04T08:57:32.09Z</time></trkpt><trkpt lat="44.2558343" lon="10.4776377"><ele>1006.0</ele><time>2026-04-04T08:57:33.093Z</time></trkpt><trkpt lat="44.2559017" lon="10.4774661"><ele>1011.0</ele><time>2026-04-04T08:57:34.072Z</time></trkpt><trkpt lat="44.2559617" lon="10.4772985"><ele>1016.0</ele><time>2026-04-04T08:57:35.332Z</time></trkpt><trkpt lat="44.2560036" lon="10.476994"><ele>1017.5999999999999</ele><time>2026-04-04T08:57:37.081Z</time></trkpt><trkpt lat="44.2559635" lon="10.4768461"><ele>1019.1999999999999</ele><time>2026-04-04T08:57:38.082Z</time></trkpt><trkpt lat="44.2559177" lon="10.476712"><ele>1020.8000000000001</ele><time>2026-04-04T08:57:39.082Z</time></trkpt><trkpt lat="44.2558482" lon="10.4765959"><ele>1022.4000000000001</ele><time>2026-04-04T08:57:40.091Z</time></trkpt><trkpt lat="44.2557641" lon="10.4764971"><ele>1024.0</ele><time>2026-04-04T08:57:41.099Z</time></trkpt><trkpt lat="44.255691" lon="10.476394"><ele>1023.8000000000001</ele><time>2026-04-04T08:57:42.098Z</time></trkpt><trkpt lat="44.255619" lon="10.4762891"><ele>1023.6000000000001</ele><time>2026-04-04T08:57:43.1Z</time></trkpt><trkpt lat="44.2555543" lon="10.4761873"><ele>1023.4</ele><time>2026-04-04T08:57:44.099Z</time></trkpt><trkpt lat="44.2554919" lon="10.4760957"><ele>1023.2</ele><time>2026-04-04T08:57:45.097Z</time></trkpt><trkpt lat="44.2554296" lon="10.4760226"><ele>1023.0</ele><time>2026-04-04T08:57:46.099Z</time></trkpt><trkpt lat="44.2553612" lon="10.4759624"><ele>1023.0</ele><time>2026-04-04T08:57:47.104Z</time></trkpt><trkpt lat="44.2552887" lon="10.4759115"><ele>1023.0</ele><time>2026-04-04T08:57:48.101Z</time></trkpt><trkpt lat="44.2552095" lon="10.4758783"><ele>1023.0</ele><time>2026-04-04T08:57:49.11Z</time></trkpt><trkpt lat="44.2551317" lon="10.4758397"><ele>1023.0</ele><time>2026-04-04T08:57:50.1Z</time></trkpt><trkpt lat="44.2550507" lon="10.4758089"><ele>1023.0</ele><time>2026-04-04T08:57:51.112Z</time></trkpt><trkpt lat="44.2549697" lon="10.4757657"><ele>1023.0</ele><time>2026-04-04T08:57:52.082Z</time></trkpt><trkpt lat="44.2548861" lon="10.4756988"><ele>1023.25</ele><time>2026-04-04T08:57:53.27Z</time></trkpt><trkpt lat="44.2547382" lon="10.4755077"><ele>1023.5</ele><time>2026-04-04T08:57:55.106Z</time></trkpt><trkpt lat="44.2546674" lon="10.4753943"><ele>1023.75</ele><time>2026-04-04T08:57:56.098Z</time></trkpt><trkpt lat="44.2546058" lon="10.4752632"><ele>1024.0</ele><time>2026-04-04T08:57:57.096Z</time></trkpt><trkpt lat="44.2545476" lon="10.4751281"><ele>1024.0</ele><time>2026-04-04T08:57:58.097Z</time></trkpt><trkpt lat="44.2544906" lon="10.4749917"><ele>1024.0</ele><time>2026-04-04T08:57:59.1Z</time></trkpt><trkpt lat="44.2544382" lon="10.4748532"><ele>1024.0</ele><time>2026-04-04T08:58:00.091Z</time></trkpt><trkpt lat="44.2543795" lon="10.4747292"><ele>1024.0</ele><time>2026-04-04T08:58:01.088Z</time></trkpt><trkpt lat="44.2543105" lon="10.4746348"><ele>1024.0</ele><time>2026-04-04T08:58:02.09Z</time></trkpt><trkpt lat="44.2542299" lon="10.4745682"><ele>1023.1666666666666</ele><time>2026-04-04T08:58:03.091Z</time></trkpt><trkpt lat="44.2541407" lon="10.4745238"><ele>1022.3333333333333</ele><time>2026-04-04T08:58:04.093Z</time></trkpt><trkpt lat="44.2540487" lon="10.4745003"><ele>1021.5</ele><time>2026-04-04T08:58:05.093Z</time></trkpt><trkpt lat="44.2539635" lon="10.4744939"><ele>1020.6666666666667</ele><time>2026-04-04T08:58:06.093Z</time></trkpt><trkpt lat="44.2538789" lon="10.4744887"><ele>1019.8333333333334</ele><time>2026-04-04T08:58:07.099Z</time></trkpt><trkpt lat="44.2537936" lon="10.4744678"><ele>1019.0</ele><time>2026-04-04T08:58:08.09Z</time></trkpt><trkpt lat="44.2537115" lon="10.4744212"><ele>1019.0</ele><time>2026-04-04T08:58:09.098Z</time></trkpt><trkpt lat="44.2536423" lon="10.4743357"><ele>1019.0</ele><time>2026-04-04T08:58:10.082Z</time></trkpt><trkpt lat="44.2536034" lon="10.4742216"><ele>1019.0</ele><time>2026-04-04T08:58:11.339Z</time></trkpt><trkpt lat="44.253563" lon="10.4739445"><ele>1019.0</ele><time>2026-04-04T08:58:13.09Z</time></trkpt><trkpt lat="44.2535448" lon="10.4737975"><ele>1020.8000000000001</ele><time>2026-04-04T08:58:14.086Z</time></trkpt><trkpt lat="44.2535254" lon="10.4736523"><ele>1022.6000000000001</ele><time>2026-04-04T08:58:15.085Z</time></trkpt><trkpt lat="44.2535035" lon="10.4735099"><ele>1024.4</ele><time>2026-04-04T08:58:16.087Z</time></trkpt><trkpt lat="44.2534798" lon="10.4733663"><ele>1026.2</ele><time>2026-04-04T08:58:17.087Z</time></trkpt><trkpt lat="44.2534551" lon="10.4732409"><ele>1028.0</ele><time>2026-04-04T08:58:18.072Z</time></trkpt><trkpt lat="44.2534347" lon="10.4731277"><ele>1028.0</ele><time>2026-04-04T08:58:19.096Z</time></trkpt><trkpt lat="44.253413" lon="10.4730196"><ele>1028.0</ele><time>2026-04-04T08:58:20.077Z</time></trkpt><trkpt lat="44.2534049" lon="10.4729229"><ele>1028.0</ele><time>2026-04-04T08:58:21.08Z</time></trkpt><trkpt lat="44.2534229" lon="10.4727889"><ele>1028.0</ele><time>2026-04-04T08:58:23.079Z</time></trkpt><trkpt lat="44.2533777" lon="10.4729258"><ele>1028.0</ele><time>2026-04-04T08:58:26.108Z</time></trkpt><trkpt lat="44.2533986" lon="10.473081"><ele>1028.0</ele><time>2026-04-04T08:58:27.098Z</time></trkpt><trkpt lat="44.2534364" lon="10.4732866"><ele>1028.0</ele><time>2026-04-04T08:58:28.08Z</time></trkpt><trkpt lat="44.2534795" lon="10.4735646"><ele>1028.0</ele><time>2026-04-04T08:58:29.254Z</time></trkpt><trkpt lat="44.2535667" lon="10.4740184"><ele>1026.5</ele><time>2026-04-04T08:58:31.1Z</time></trkpt><trkpt lat="44.2535987" lon="10.4741342"><ele>1025.0</ele><time>2026-04-04T08:58:32.091Z</time></trkpt><trkpt lat="44.2535863" lon="10.474237"><ele>1023.5</ele><time>2026-04-04T08:58:34.09Z</time></trkpt><trkpt lat="44.2535057" lon="10.4742338"><ele>1022.0</ele><time>2026-04-04T08:58:37.091Z</time></trkpt><trkpt lat="44.2534514" lon="10.4741531"><ele>1020.5000000000001</ele><time>2026-04-04T08:58:38.09Z</time></trkpt><trkpt lat="44.2534364" lon="10.4740288"><ele>1019.0</ele><time>2026-04-04T08:58:39.088Z</time></trkpt><trkpt lat="44.2534168" lon="10.4738889"><ele>1021.25</ele><time>2026-04-04T08:58:40.088Z</time></trkpt><trkpt lat="44.2533909" lon="10.4737394"><ele>1023.5</ele><time>2026-04-04T08:58:41.085Z</time></trkpt><trkpt lat="44.2533547" lon="10.4735772"><ele>1025.75</ele><time>2026-04-04T08:58:42.074Z</time></trkpt><trkpt lat="44.2533178" lon="10.4734141"><ele>1028.0</ele><time>2026-04-04T08:58:43.076Z</time></trkpt><trkpt lat="44.2532721" lon="10.4732529"><ele>1028.0</ele><time>2026-04-04T08:58:44.082Z</time></trkpt><trkpt lat="44.2532239" lon="10.4730937"><ele>1028.0</ele><time>2026-04-04T08:58:45.074Z</time></trkpt><trkpt lat="44.2531705" lon="10.4729426"><ele>1028.0</ele><time>2026-04-04T08:58:46.064Z</time></trkpt><trkpt lat="44.2531139" lon="10.4728002"><ele>1028.0</ele><time>2026-04-04T08:58:47.327Z</time></trkpt><trkpt lat="44.2529926" lon="10.4725215"><ele>1026.0</ele><time>2026-04-04T08:58:49.089Z</time></trkpt><trkpt lat="44.2529354" lon="10.4723835"><ele>1024.0</ele><time>2026-04-04T08:58:50.079Z</time></trkpt><trkpt lat="44.2528799" lon="10.472245"><ele>1022.0</ele><time>2026-04-04T08:58:51.077Z</time></trkpt><trkpt lat="44.2528194" lon="10.472123"><ele>1020.0</ele><time>2026-04-04T08:58:52.077Z</time></trkpt><trkpt lat="44.252753" lon="10.4720359"><ele>1018.0</ele><time>2026-04-04T08:58:53.092Z</time></trkpt><trkpt lat="44.2526945" lon="10.471985"><ele>1018.0</ele><time>2026-04-04T08:58:54.086Z</time></trkpt><trkpt lat="44.2526503" lon="10.471915"><ele>1018.0</ele><time>2026-04-04T08:58:55.087Z</time></trkpt><trkpt lat="44.252614" lon="10.4718059"><ele>1018.0</ele><time>2026-04-04T08:58:56.085Z</time></trkpt><trkpt lat="44.2525752" lon="10.4716349"><ele>1018.0</ele><time>2026-04-04T08:58:57.091Z</time></trkpt><trkpt lat="44.252527" lon="10.471437"><ele>1018.0</ele><time>2026-04-04T08:58:58.08Z</time></trkpt><trkpt lat="44.2524841" lon="10.4712301"><ele>1021.6666666666666</ele><time>2026-04-04T08:58:59.077Z</time></trkpt><trkpt lat="44.2524363" lon="10.4710203"><ele>1025.3333333333333</ele><time>2026-04-04T08:59:00.069Z</time></trkpt><trkpt lat="44.2523552" lon="10.4708335"><ele>1029.0</ele><time>2026-04-04T08:59:01.083Z</time></trkpt><trkpt lat="44.2522208" lon="10.4706801"><ele>1026.0</ele><time>2026-04-04T08:59:02.082Z</time></trkpt><trkpt lat="44.2520734" lon="10.4705254"><ele>1023.0</ele><time>2026-04-04T08:59:03.085Z</time></trkpt><trkpt lat="44.2519426" lon="10.4703668"><ele>1020.0</ele><time>2026-04-04T08:59:04.07Z</time></trkpt><trkpt lat="44.2518306" lon="10.4702001"><ele>1020.0</ele><time>2026-04-04T08:59:05.317Z</time></trkpt><trkpt lat="44.2516416" lon="10.4699614"><ele>1020.0</ele><time>2026-04-04T08:59:07.08Z</time></trkpt><trkpt lat="44.2515065" lon="10.4699437"><ele>1020.0</ele><time>2026-04-04T08:59:08.083Z</time></trkpt><trkpt lat="44.251378" lon="10.4698828"><ele>1022.6666666666667</ele><time>2026-04-04T08:59:09.081Z</time></trkpt><trkpt lat="44.2512671" lon="10.4697286"><ele>1025.3333333333335</ele><time>2026-04-04T08:59:10.081Z</time></trkpt><trkpt lat="44.2511401" lon="10.4696028"><ele>1028.0</ele><time>2026-04-04T08:59:11.08Z</time></trkpt><trkpt lat="44.2510035" lon="10.4695389"><ele>1028.0</ele><time>2026-04-04T08:59:12.089Z</time></trkpt><trkpt lat="44.2508476" lon="10.4695472"><ele>1028.0</ele><time>2026-04-04T08:59:13.074Z</time></trkpt><trkpt lat="44.2507052" lon="10.4694927"><ele>1028.0</ele><time>2026-04-04T08:59:14.089Z</time></trkpt><trkpt lat="44.2505386" lon="10.4693958"><ele>1025.6666666666667</ele><time>2026-04-04T08:59:15.083Z</time></trkpt><trkpt lat="44.2503974" lon="10.4692863"><ele>1023.3333333333333</ele><time>2026-04-04T08:59:16.08Z</time></trkpt><trkpt lat="44.2502395" lon="10.4692191"><ele>1021.0</ele><time>2026-04-04T08:59:17.095Z</time></trkpt><trkpt lat="44.2500734" lon="10.4692365"><ele>1021.0</ele><time>2026-04-04T08:59:18.094Z</time></trkpt><trkpt lat="44.2499472" lon="10.4692975"><ele>1020.9999999999999</ele><time>2026-04-04T08:59:19.093Z</time></trkpt><trkpt lat="44.2498727" lon="10.4693715"><ele>1020.9999999999999</ele><time>2026-04-04T08:59:20.091Z</time></trkpt><trkpt lat="44.2498337" lon="10.4694655"><ele>1021.0</ele><time>2026-04-04T08:59:21.084Z</time></trkpt><trkpt lat="44.2498393" lon="10.4695868"><ele>1021.0</ele><time>2026-04-04T08:59:22.071Z</time></trkpt><trkpt lat="44.2498887" lon="10.4696958"><ele>1016.5</ele><time>2026-04-04T08:59:23.172Z</time></trkpt><trkpt lat="44.2499971" lon="10.4697993"><ele>1012.0</ele><time>2026-04-04T08:59:24.092Z</time></trkpt><trkpt lat="44.2500903" lon="10.4698573"><ele>1007.5</ele><time>2026-04-04T08:59:25.08Z</time></trkpt><trkpt lat="44.2502087" lon="10.4698303"><ele>1003.0</ele><time>2026-04-04T08:59:26.075Z</time></trkpt><trkpt lat="44.2503104" lon="10.4698493"><ele>1003.0</ele><time>2026-04-04T08:59:27.085Z</time></trkpt><trkpt lat="44.2503738" lon="10.4699222"><ele>1003.0</ele><time>2026-04-04T08:59:28.108Z</time></trkpt><trkpt lat="44.2503829" lon="10.4700304"><ele>1003.0</ele><time>2026-04-04T08:59:29.094Z</time></trkpt><trkpt lat="44.2503347" lon="10.4701508"><ele>1003.0</ele><time>2026-04-04T08:59:30.088Z</time></trkpt><trkpt lat="44.2502237" lon="10.4702412"><ele>1003.0</ele><time>2026-04-04T08:59:31.083Z</time></trkpt><trkpt lat="44.2500452" lon="10.4703133"><ele>1003.0</ele><time>2026-04-04T08:59:32.076Z</time></trkpt><trkpt lat="44.2498625" lon="10.4703758"><ele>1003.0</ele><time>2026-04-04T08:59:33.084Z</time></trkpt><trkpt lat="44.2496994" lon="10.4704757"><ele>1003.0</ele><time>2026-04-04T08:59:34.094Z</time></trkpt><trkpt lat="44.2496007" lon="10.4706233"><ele>1008.3333333333333</ele><time>2026-04-04T08:59:35.087Z</time></trkpt><trkpt lat="44.2495913" lon="10.470839"><ele>1013.6666666666667</ele><time>2026-04-04T08:59:36.071Z</time></trkpt><trkpt lat="44.2496004" lon="10.4710694"><ele>1019.0</ele><time>2026-04-04T08:59:37.07Z</time></trkpt><trkpt lat="44.2496441" lon="10.4713137"><ele>1024.0</ele><time>2026-04-04T08:59:38.068Z</time></trkpt><trkpt lat="44.2497542" lon="10.4714858"><ele>1029.0</ele><time>2026-04-04T08:59:39.069Z</time></trkpt><trkpt lat="44.2498754" lon="10.4716557"><ele>1034.0</ele><time>2026-04-04T08:59:40.063Z</time></trkpt><trkpt lat="44.2499736" lon="10.4717911"><ele>1028.5</ele><time>2026-04-04T08:59:41.324Z</time></trkpt><trkpt lat="44.2499379" lon="10.4720829"><ele>1023.0</ele><time>2026-04-04T08:59:43.074Z</time></trkpt><trkpt lat="44.2498706" lon="10.4722154"><ele>1017.5</ele><time>2026-04-04T08:59:44.082Z</time></trkpt><trkpt lat="44.2498363" lon="10.4723504"><ele>1012.0</ele><time>2026-04-04T08:59:45.081Z</time></trkpt><trkpt lat="44.2498499" lon="10.4724685"><ele>1011.9999999999999</ele><time>2026-04-04T08:59:46.081Z</time></trkpt><trkpt lat="44.2499044" lon="10.4725735"><ele>1012.0</ele><time>2026-04-04T08:59:47.079Z</time></trkpt><trkpt lat="44.2499531" lon="10.4726677"><ele>1012.0</ele><time>2026-04-04T08:59:48.082Z</time></trkpt><trkpt lat="44.2500056" lon="10.4727491"><ele>1012.0</ele><time>2026-04-04T08:59:49.079Z</time></trkpt><trkpt lat="44.2500546" lon="10.4728238"><ele>1011.9999999999999</ele><time>2026-04-04T08:59:50.072Z</time></trkpt><trkpt lat="44.250112" lon="10.4728965"><ele>1012.0</ele><time>2026-04-04T08:59:51.077Z</time></trkpt><trkpt lat="44.2501662" lon="10.4729777"><ele>1014.8333333333333</ele><time>2026-04-04T08:59:52.077Z</time></trkpt><trkpt lat="44.2502158" lon="10.4730632"><ele>1017.6666666666666</ele><time>2026-04-04T08:59:53.078Z</time></trkpt><trkpt lat="44.2502611" lon="10.4731563"><ele>1020.5</ele><time>2026-04-04T08:59:54.076Z</time></trkpt><trkpt lat="44.2503127" lon="10.4732463"><ele>1023.3333333333333</ele><time>2026-04-04T08:59:55.084Z</time></trkpt><trkpt lat="44.2503731" lon="10.4733432"><ele>1026.1666666666667</ele><time>2026-04-04T08:59:56.075Z</time></trkpt><trkpt lat="44.2504379" lon="10.4734498"><ele>1029.0</ele><time>2026-04-04T08:59:57.046Z</time></trkpt><trkpt lat="44.2504826" lon="10.4735723"><ele>1029.0</ele><time>2026-04-04T08:59:58.049Z</time></trkpt><trkpt lat="44.2505033" lon="10.4737117"><ele>1029.0</ele><time>2026-04-04T08:59:59.306Z</time></trkpt><trkpt lat="44.2505111" lon="10.4738836"><ele>1029.0</ele><time>2026-04-04T09:00:00.37Z</time></trkpt><trkpt lat="44.2505206" lon="10.4740637"><ele>1029.0</ele><time>2026-04-04T09:00:01.37Z</time></trkpt><trkpt lat="44.2505391" lon="10.4742631"><ele>1034.3333333333333</ele><time>2026-04-04T09:00:02.372Z</time></trkpt><trkpt lat="44.2505749" lon="10.4744666"><ele>1039.6666666666665</ele><time>2026-04-04T09:00:03.531Z</time></trkpt><trkpt lat="44.2506406" lon="10.4748494"><ele>1045.0</ele><time>2026-04-04T09:00:05.496Z</time></trkpt><trkpt lat="44.2506665" lon="10.4751362"><ele>1042.5</ele><time>2026-04-04T09:00:06.521Z</time></trkpt><trkpt lat="44.2506856" lon="10.4753285"><ele>1040.0</ele><time>2026-04-04T09:00:07.534Z</time></trkpt><trkpt lat="44.2506825" lon="10.4754916"><ele>1037.5</ele><time>2026-04-04T09:00:08.539Z</time></trkpt><trkpt lat="44.2505922" lon="10.4756527"><ele>1035.0</ele><time>2026-04-04T09:00:10.38Z</time></trkpt><trkpt lat="44.2504576" lon="10.4756875"><ele>1035.0</ele><time>2026-04-04T09:00:12.215Z</time></trkpt><trkpt lat="44.250383" lon="10.4757094"><ele>1035.0</ele><time>2026-04-04T09:00:13.207Z</time></trkpt><trkpt lat="44.2503053" lon="10.4757354"><ele>1035.0</ele><time>2026-04-04T09:00:14.212Z</time></trkpt><trkpt lat="44.2502152" lon="10.4757568"><ele>1035.0</ele><time>2026-04-04T09:00:15.219Z</time></trkpt><trkpt lat="44.250129" lon="10.4758107"><ele>1035.0</ele><time>2026-04-04T09:00:16.222Z</time></trkpt><trkpt lat="44.2500403" lon="10.4758821"><ele>1035.0</ele><time>2026-04-04T09:00:17.217Z</time></trkpt><trkpt lat="44.2499788" lon="10.4759687"><ele>1035.0</ele><time>2026-04-04T09:00:18.213Z</time></trkpt><trkpt lat="44.2499249" lon="10.47605"><ele>1035.0</ele><time>2026-04-04T09:00:19.211Z</time></trkpt><trkpt lat="44.2498762" lon="10.47613"><ele>1035.0</ele><time>2026-04-04T09:00:20.215Z</time></trkpt><trkpt lat="44.2498218" lon="10.4762002"><ele>1035.0</ele><time>2026-04-04T09:00:21.211Z</time></trkpt><trkpt lat="44.2497537" lon="10.4762522"><ele>1035.0</ele><time>2026-04-04T09:00:22.223Z</time></trkpt><trkpt lat="44.2496612" lon="10.4762632"><ele>1035.0</ele><time>2026-04-04T09:00:23.218Z</time></trkpt><trkpt lat="44.2495617" lon="10.4762227"><ele>1040.5</ele><time>2026-04-04T09:00:24.384Z</time></trkpt><trkpt lat="44.2494365" lon="10.476143"><ele>1046.0</ele><time>2026-04-04T09:00:25.379Z</time></trkpt><trkpt lat="44.2491178" lon="10.4760316"><ele>1054.5</ele><time>2026-04-04T09:00:27.373Z</time></trkpt><trkpt lat="44.2489447" lon="10.4760415"><ele>1063.0</ele><time>2026-04-04T09:00:28.54Z</time></trkpt><trkpt lat="44.2486728" lon="10.4762082"><ele>1060.75</ele><time>2026-04-04T09:00:30.238Z</time></trkpt><trkpt lat="44.2485871" lon="10.4763252"><ele>1058.5</ele><time>2026-04-04T09:00:31.21Z</time></trkpt><trkpt lat="44.2485505" lon="10.4764574"><ele>1056.25</ele><time>2026-04-04T09:00:32.218Z</time></trkpt><trkpt lat="44.2485657" lon="10.4766467"><ele>1054.0</ele><time>2026-04-04T09:00:33.21Z</time></trkpt><trkpt lat="44.2485917" lon="10.4768792"><ele>1053.5</ele><time>2026-04-04T09:00:34.37Z</time></trkpt><trkpt lat="44.2485933" lon="10.4771451"><ele>1053.0</ele><time>2026-04-04T09:00:35.538Z</time></trkpt><trkpt lat="44.248531" lon="10.4777662"><ele>1051.0</ele><time>2026-04-04T09:00:37.54Z</time></trkpt><trkpt lat="44.2485114" lon="10.4780641"><ele>1049.0</ele><time>2026-04-04T09:00:38.57Z</time></trkpt><trkpt lat="44.2484257" lon="10.4784595"><ele>1049.0</ele><time>2026-04-04T09:00:40.38Z</time></trkpt><trkpt lat="44.248339" lon="10.478585"><ele>1049.0</ele><time>2026-04-04T09:00:41.379Z</time></trkpt><trkpt lat="44.2480459" lon="10.478922"><ele>1050.0</ele><time>2026-04-04T09:00:43.057Z</time></trkpt><trkpt lat="44.2478678" lon="10.47908"><ele>1051.0</ele><time>2026-04-04T09:00:44.211Z</time></trkpt><trkpt lat="44.2476985" lon="10.4792217"><ele>1052.0</ele><time>2026-04-04T09:00:45.377Z</time></trkpt><trkpt lat="44.2474503" lon="10.4795058"><ele>1051.25</ele><time>2026-04-04T09:00:47.371Z</time></trkpt><trkpt lat="44.2473591" lon="10.4796695"><ele>1050.5</ele><time>2026-04-04T09:00:48.387Z</time></trkpt><trkpt lat="44.2472471" lon="10.4797521"><ele>1049.75</ele><time>2026-04-04T09:00:49.389Z</time></trkpt><trkpt lat="44.2471332" lon="10.4797108"><ele>1049.0</ele><time>2026-04-04T09:00:50.468Z</time></trkpt><trkpt lat="44.2470359" lon="10.479578"><ele>1053.6666666666667</ele><time>2026-04-04T09:00:51.554Z</time></trkpt><trkpt lat="44.2469189" lon="10.4794246"><ele>1058.3333333333333</ele><time>2026-04-04T09:00:52.572Z</time></trkpt><trkpt lat="44.2467992" lon="10.4792482"><ele>1063.0</ele><time>2026-04-04T09:00:53.576Z</time></trkpt><trkpt lat="44.2467091" lon="10.4790758"><ele>1063.0</ele><time>2026-04-04T09:00:54.573Z</time></trkpt><trkpt lat="44.2466628" lon="10.4788623"><ele>1063.0</ele><time>2026-04-04T09:00:55.579Z</time></trkpt><trkpt lat="44.2466457" lon="10.4783457"><ele>1063.6666666666665</ele><time>2026-04-04T09:00:57.364Z</time></trkpt><trkpt lat="44.2466382" lon="10.4781285"><ele>1064.3333333333333</ele><time>2026-04-04T09:00:58.372Z</time></trkpt><trkpt lat="44.2466607" lon="10.4779379"><ele>1065.0</ele><time>2026-04-04T09:00:59.387Z</time></trkpt><trkpt lat="44.2467666" lon="10.477742"><ele>1067.0</ele><time>2026-04-04T09:01:00.391Z</time></trkpt><trkpt lat="44.2469263" lon="10.4775686"><ele>1069.0</ele><time>2026-04-04T09:01:01.398Z</time></trkpt><trkpt lat="44.2470933" lon="10.4773765"><ele>1071.0</ele><time>2026-04-04T09:01:02.377Z</time></trkpt><trkpt lat="44.2472697" lon="10.4771748"><ele>1070.3333333333333</ele><time>2026-04-04T09:01:03.379Z</time></trkpt><trkpt lat="44.2474108" lon="10.4769695"><ele>1069.6666666666665</ele><time>2026-04-04T09:01:04.384Z</time></trkpt><trkpt lat="44.2475039" lon="10.4768208"><ele>1069.0</ele><time>2026-04-04T09:01:05.385Z</time></trkpt><trkpt lat="44.2475599" lon="10.4766968"><ele>1069.0</ele><time>2026-04-04T09:01:06.377Z</time></trkpt><trkpt lat="44.2475655" lon="10.4765699"><ele>1069.0</ele><time>2026-04-04T09:01:07.369Z</time></trkpt><trkpt lat="44.2474944" lon="10.476466"><ele>1069.0</ele><time>2026-04-04T09:01:08.379Z</time></trkpt><trkpt lat="44.2473807" lon="10.4764194"><ele>1069.0</ele><time>2026-04-04T09:01:09.38Z</time></trkpt><trkpt lat="44.2472699" lon="10.4764716"><ele>1069.0</ele><time>2026-04-04T09:01:10.385Z</time></trkpt><trkpt lat="44.2471576" lon="10.4765906"><ele>1072.0</ele><time>2026-04-04T09:01:11.389Z</time></trkpt><trkpt lat="44.2469964" lon="10.4767619"><ele>1075.0</ele><time>2026-04-04T09:01:12.376Z</time></trkpt><trkpt lat="44.2467913" lon="10.4769354"><ele>1078.0</ele><time>2026-04-04T09:01:13.381Z</time></trkpt><trkpt lat="44.2465648" lon="10.4770971"><ele>1081.0</ele><time>2026-04-04T09:01:14.383Z</time></trkpt><trkpt lat="44.2463673" lon="10.4772082"><ele>1084.0</ele><time>2026-04-04T09:01:15.381Z</time></trkpt><trkpt lat="44.2460396" lon="10.4774034"><ele>1084.0</ele><time>2026-04-04T09:01:17.107Z</time></trkpt><trkpt lat="44.2459456" lon="10.4775339"><ele>1084.0</ele><time>2026-04-04T09:01:18.107Z</time></trkpt><trkpt lat="44.2459106" lon="10.4776892"><ele>1084.0</ele><time>2026-04-04T09:01:19.088Z</time></trkpt><trkpt lat="44.2459627" lon="10.4778854"><ele>1084.0</ele><time>2026-04-04T09:01:20.106Z</time></trkpt><trkpt lat="44.2460566" lon="10.4781001"><ele>1084.5</ele><time>2026-04-04T09:01:21.093Z</time></trkpt><trkpt lat="44.2460802" lon="10.4782952"><ele>1085.0</ele><time>2026-04-04T09:01:22.105Z</time></trkpt><trkpt lat="44.246039" lon="10.4784851"><ele>1085.5</ele><time>2026-04-04T09:01:23.092Z</time></trkpt><trkpt lat="44.2459246" lon="10.4786142"><ele>1086.0</ele><time>2026-04-04T09:01:24.09Z</time></trkpt><trkpt lat="44.2457665" lon="10.4787031"><ele>1091.6666666666667</ele><time>2026-04-04T09:01:25.089Z</time></trkpt><trkpt lat="44.2455677" lon="10.4787718"><ele>1097.3333333333335</ele><time>2026-04-04T09:01:26.07Z</time></trkpt><trkpt lat="44.2453595" lon="10.4788097"><ele>1103.0</ele><time>2026-04-04T09:01:27.099Z</time></trkpt><trkpt lat="44.245203" lon="10.4788618"><ele>1103.0</ele><time>2026-04-04T09:01:28.361Z</time></trkpt><trkpt lat="44.2450778" lon="10.4789538"><ele>1103.0</ele><time>2026-04-04T09:01:29.372Z</time></trkpt><trkpt lat="44.2450108" lon="10.4792875"><ele>1103.0</ele><time>2026-04-04T09:01:31.37Z</time></trkpt><trkpt lat="44.2450633" lon="10.4795101"><ele>1103.0</ele><time>2026-04-04T09:01:32.378Z</time></trkpt><trkpt lat="44.2452305" lon="10.4801296"><ele>1103.0</ele><time>2026-04-04T09:01:35.147Z</time></trkpt><trkpt lat="44.2452454" lon="10.4803059"><ele>1103.0</ele><time>2026-04-04T09:01:36.171Z</time></trkpt><trkpt lat="44.2451417" lon="10.4804024"><ele>1103.0</ele><time>2026-04-04T09:01:37.169Z</time></trkpt><trkpt lat="44.2450168" lon="10.4804546"><ele>1103.0</ele><time>2026-04-04T09:01:38.158Z</time></trkpt><trkpt lat="44.2448611" lon="10.4804442"><ele>1106.0</ele><time>2026-04-04T09:01:39.168Z</time></trkpt><trkpt lat="44.2447001" lon="10.4803786"><ele>1109.0</ele><time>2026-04-04T09:01:40.07Z</time></trkpt><trkpt lat="44.2445202" lon="10.4803132"><ele>1112.0</ele><time>2026-04-04T09:01:41.071Z</time></trkpt><trkpt lat="44.2443242" lon="10.480257"><ele>1112.0</ele><time>2026-04-04T09:01:42.078Z</time></trkpt><trkpt lat="44.2441508" lon="10.4801836"><ele>1112.0</ele><time>2026-04-04T09:01:43.075Z</time></trkpt><trkpt lat="44.2440079" lon="10.4801303"><ele>1112.0</ele><time>2026-04-04T09:01:43.977Z</time></trkpt><trkpt lat="44.2438781" lon="10.4801044"><ele>1111.6666666666667</ele><time>2026-04-04T09:01:44.882Z</time></trkpt><trkpt lat="44.2437524" lon="10.4801124"><ele>1111.3333333333333</ele><time>2026-04-04T09:01:45.783Z</time></trkpt><trkpt lat="44.2435583" lon="10.4803136"><ele>1111.0</ele><time>2026-04-04T09:01:47.578Z</time></trkpt><trkpt lat="44.2434959" lon="10.4805099"><ele>1111.0</ele><time>2026-04-04T09:01:48.478Z</time></trkpt><trkpt lat="44.2433169" lon="10.4809877"><ele>1111.0</ele><time>2026-04-04T09:01:50.54Z</time></trkpt><trkpt lat="44.2431905" lon="10.4812148"><ele>1115.5</ele><time>2026-04-04T09:01:51.561Z</time></trkpt><trkpt lat="44.2430824" lon="10.4814039"><ele>1120.0</ele><time>2026-04-04T09:01:52.575Z</time></trkpt><trkpt lat="44.2428199" lon="10.4815731"><ele>1120.0</ele><time>2026-04-04T09:01:54.384Z</time></trkpt><trkpt lat="44.2426895" lon="10.4815826"><ele>1120.0</ele><time>2026-04-04T09:01:55.385Z</time></trkpt><trkpt lat="44.2425629" lon="10.481614"><ele>1120.0</ele><time>2026-04-04T09:01:56.383Z</time></trkpt><trkpt lat="44.2424671" lon="10.4817238"><ele>1120.0</ele><time>2026-04-04T09:01:57.387Z</time></trkpt><trkpt lat="44.2423999" lon="10.4819272"><ele>1121.5</ele><time>2026-04-04T09:01:58.528Z</time></trkpt><trkpt lat="44.2421886" lon="10.4822263"><ele>1123.0</ele><time>2026-04-04T09:02:00.383Z</time></trkpt><trkpt lat="44.2420097" lon="10.4822821"><ele>1123.0</ele><time>2026-04-04T09:02:01.384Z</time></trkpt><trkpt lat="44.2418634" lon="10.4823377"><ele>1123.0</ele><time>2026-04-04T09:02:02.395Z</time></trkpt><trkpt lat="44.2417667" lon="10.4823595"><ele>1123.0</ele><time>2026-04-04T09:02:03.382Z</time></trkpt><trkpt lat="44.2416779" lon="10.4823897"><ele>1123.0</ele><time>2026-04-04T09:02:05.378Z</time></trkpt><trkpt lat="44.2415865" lon="10.482421"><ele>1123.0</ele><time>2026-04-04T09:02:27.11Z</time></trkpt><trkpt lat="44.2415118" lon="10.4824481"><ele>1123.6666666666665</ele><time>2026-04-04T09:02:29.119Z</time></trkpt><trkpt lat="44.2414356" lon="10.4825238"><ele>1124.3333333333333</ele><time>2026-04-04T09:02:31.119Z</time></trkpt><trkpt lat="44.2413926" lon="10.4826847"><ele>1125.0</ele><time>2026-04-04T09:02:33.093Z</time></trkpt><trkpt lat="44.2413917" lon="10.4827845"><ele>1125.6666666666667</ele><time>2026-04-04T09:02:34.109Z</time></trkpt><trkpt lat="44.2414146" lon="10.4828825"><ele>1126.3333333333335</ele><time>2026-04-04T09:02:35.111Z</time></trkpt><trkpt lat="44.241469" lon="10.4829648"><ele>1127.0</ele><time>2026-04-04T09:02:36.105Z</time></trkpt><trkpt lat="44.2415353" lon="10.4830393"><ele>1127.0</ele><time>2026-04-04T09:02:37.108Z</time></trkpt><trkpt lat="44.241613" lon="10.4831266"><ele>1127.0</ele><time>2026-04-04T09:02:38.109Z</time></trkpt><trkpt lat="44.2417006" lon="10.4832275"><ele>1127.0</ele><time>2026-04-04T09:02:39.113Z</time></trkpt><trkpt lat="44.241792" lon="10.483344"><ele>1127.0</ele><time>2026-04-04T09:02:40.114Z</time></trkpt><trkpt lat="44.2418783" lon="10.4834877"><ele>1127.0</ele><time>2026-04-04T09:02:41.108Z</time></trkpt><trkpt lat="44.2419407" lon="10.4836597"><ele>1127.0</ele><time>2026-04-04T09:02:42.109Z</time></trkpt><trkpt lat="44.2419546" lon="10.4838418"><ele>1127.0</ele><time>2026-04-04T09:02:43.106Z</time></trkpt><trkpt lat="44.2419125" lon="10.4840184"><ele>1127.0</ele><time>2026-04-04T09:02:44.105Z</time></trkpt><trkpt lat="44.2418321" lon="10.4841612"><ele>1126.75</ele><time>2026-04-04T09:02:45.093Z</time></trkpt><trkpt lat="44.2417282" lon="10.4842659"><ele>1126.5</ele><time>2026-04-04T09:02:46.104Z</time></trkpt><trkpt lat="44.2415947" lon="10.4843171"><ele>1126.25</ele><time>2026-04-04T09:02:47.106Z</time></trkpt><trkpt lat="44.2414488" lon="10.4843023"><ele>1126.0</ele><time>2026-04-04T09:02:48.101Z</time></trkpt><trkpt lat="44.2412948" lon="10.484261"><ele>1129.75</ele><time>2026-04-04T09:02:49.101Z</time></trkpt><trkpt lat="44.2411369" lon="10.484227"><ele>1133.5</ele><time>2026-04-04T09:02:50.104Z</time></trkpt><trkpt lat="44.2409894" lon="10.4842134"><ele>1137.25</ele><time>2026-04-04T09:02:51.078Z</time></trkpt><trkpt lat="44.2408562" lon="10.4842426"><ele>1141.0</ele><time>2026-04-04T09:02:52.058Z</time></trkpt><trkpt lat="44.2407409" lon="10.4843071"><ele>1138.75</ele><time>2026-04-04T09:02:53.069Z</time></trkpt><trkpt lat="44.2406303" lon="10.4843872"><ele>1136.5</ele><time>2026-04-04T09:02:54.089Z</time></trkpt><trkpt lat="44.2405151" lon="10.4844884"><ele>1134.25</ele><time>2026-04-04T09:02:55.095Z</time></trkpt><trkpt lat="44.2403955" lon="10.4845942"><ele>1132.0</ele><time>2026-04-04T09:02:56.1Z</time></trkpt><trkpt lat="44.2402672" lon="10.4846952"><ele>1132.0</ele><time>2026-04-04T09:02:57.089Z</time></trkpt><trkpt lat="44.2401196" lon="10.4847718"><ele>1132.0</ele><time>2026-04-04T09:02:58.1Z</time></trkpt><trkpt lat="44.2399478" lon="10.4848088"><ele>1132.0</ele><time>2026-04-04T09:02:59.104Z</time></trkpt><trkpt lat="44.2397737" lon="10.484833"><ele>1135.6666666666665</ele><time>2026-04-04T09:03:00.105Z</time></trkpt><trkpt lat="44.2396093" lon="10.4848563"><ele>1139.3333333333333</ele><time>2026-04-04T09:03:01.106Z</time></trkpt><trkpt lat="44.2394492" lon="10.4849012"><ele>1143.0</ele><time>2026-04-04T09:03:02.102Z</time></trkpt><trkpt lat="44.2393005" lon="10.4849917"><ele>1143.0</ele><time>2026-04-04T09:03:03.104Z</time></trkpt><trkpt lat="44.2391758" lon="10.4850717"><ele>1143.0</ele><time>2026-04-04T09:03:04.111Z</time></trkpt><trkpt lat="44.2390678" lon="10.4850935"><ele>1143.0</ele><time>2026-04-04T09:03:05.106Z</time></trkpt><trkpt lat="44.2389419" lon="10.4850857"><ele>1143.0</ele><time>2026-04-04T09:03:06.098Z</time></trkpt><trkpt lat="44.2388024" lon="10.4850322"><ele>1144.75</ele><time>2026-04-04T09:03:07.065Z</time></trkpt><trkpt lat="44.2386564" lon="10.4849747"><ele>1146.5</ele><time>2026-04-04T09:03:08.091Z</time></trkpt><trkpt lat="44.2385267" lon="10.4848917"><ele>1148.25</ele><time>2026-04-04T09:03:09.089Z</time></trkpt><trkpt lat="44.2384152" lon="10.484806"><ele>1150.0</ele><time>2026-04-04T09:03:10.09Z</time></trkpt><trkpt lat="44.2383093" lon="10.4847602"><ele>1150.0</ele><time>2026-04-04T09:03:11.09Z</time></trkpt><trkpt lat="44.2381934" lon="10.484768"><ele>1150.0</ele><time>2026-04-04T09:03:12.093Z</time></trkpt><trkpt lat="44.2381026" lon="10.4848542"><ele>1150.0</ele><time>2026-04-04T09:03:13.068Z</time></trkpt><trkpt lat="44.2380401" lon="10.48497"><ele>1150.0</ele><time>2026-04-04T09:03:14.076Z</time></trkpt><trkpt lat="44.2380119" lon="10.4851227"><ele>1150.0</ele><time>2026-04-04T09:03:15.078Z</time></trkpt><trkpt lat="44.2380272" lon="10.4852824"><ele>1149.75</ele><time>2026-04-04T09:03:16.097Z</time></trkpt><trkpt lat="44.2380753" lon="10.485437"><ele>1149.5</ele><time>2026-04-04T09:03:17.096Z</time></trkpt><trkpt lat="44.2381568" lon="10.4855559"><ele>1149.25</ele><time>2026-04-04T09:03:18.086Z</time></trkpt><trkpt lat="44.2382454" lon="10.4856551"><ele>1149.0</ele><time>2026-04-04T09:03:19.085Z</time></trkpt><trkpt lat="44.2383505" lon="10.4857477"><ele>1149.0</ele><time>2026-04-04T09:03:20.088Z</time></trkpt><trkpt lat="44.2384568" lon="10.4858533"><ele>1149.0</ele><time>2026-04-04T09:03:21.086Z</time></trkpt><trkpt lat="44.2385387" lon="10.4860099"><ele>1149.0</ele><time>2026-04-04T09:03:22.101Z</time></trkpt><trkpt lat="44.2386295" lon="10.4861544"><ele>1149.0</ele><time>2026-04-04T09:03:23.097Z</time></trkpt><trkpt lat="44.2387232" lon="10.4862815"><ele>1150.5</ele><time>2026-04-04T09:03:24.108Z</time></trkpt><trkpt lat="44.238799" lon="10.4864382"><ele>1152.0</ele><time>2026-04-04T09:03:25.108Z</time></trkpt><trkpt lat="44.2388372" lon="10.4866373"><ele>1153.5</ele><time>2026-04-04T09:03:26.098Z</time></trkpt><trkpt lat="44.2388581" lon="10.4868094"><ele>1155.0</ele><time>2026-04-04T09:03:27.093Z</time></trkpt><trkpt lat="44.2388457" lon="10.4869648"><ele>1155.0</ele><time>2026-04-04T09:03:28.102Z</time></trkpt><trkpt lat="44.238794" lon="10.4870898"><ele>1155.0</ele><time>2026-04-04T09:03:29.092Z</time></trkpt><trkpt lat="44.2387068" lon="10.4872077"><ele>1155.0</ele><time>2026-04-04T09:03:30.11Z</time></trkpt><trkpt lat="44.2385989" lon="10.4872961"><ele>1155.0</ele><time>2026-04-04T09:03:31.099Z</time></trkpt><trkpt lat="44.2384979" lon="10.4873622"><ele>1155.6666666666667</ele><time>2026-04-04T09:03:32.069Z</time></trkpt><trkpt lat="44.2384311" lon="10.4874451"><ele>1156.3333333333333</ele><time>2026-04-04T09:03:33.084Z</time></trkpt><trkpt lat="44.2384122" lon="10.4875468"><ele>1157.0</ele><time>2026-04-04T09:03:34.091Z</time></trkpt><trkpt lat="44.2384546" lon="10.4876457"><ele>1157.6666666666665</ele><time>2026-04-04T09:03:35.117Z</time></trkpt><trkpt lat="44.2385258" lon="10.4877088"><ele>1158.3333333333333</ele><time>2026-04-04T09:03:36.101Z</time></trkpt><trkpt lat="44.2386159" lon="10.4877382"><ele>1159.0</ele><time>2026-04-04T09:03:37.094Z</time></trkpt><trkpt lat="44.238732" lon="10.4877483"><ele>1159.0</ele><time>2026-04-04T09:03:38.1Z</time></trkpt><trkpt lat="44.2388639" lon="10.4877316"><ele>1159.0</ele><time>2026-04-04T09:03:39.094Z</time></trkpt><trkpt lat="44.2389952" lon="10.4876813"><ele>1159.0</ele><time>2026-04-04T09:03:40.098Z</time></trkpt><trkpt lat="44.2391269" lon="10.4876232"><ele>1159.0</ele><time>2026-04-04T09:03:41.099Z</time></trkpt><trkpt lat="44.2392482" lon="10.4875801"><ele>1156.75</ele><time>2026-04-04T09:03:42.108Z</time></trkpt><trkpt lat="44.2393771" lon="10.4875818"><ele>1154.5</ele><time>2026-04-04T09:03:43.103Z</time></trkpt><trkpt lat="44.239509" lon="10.4876367"><ele>1152.25</ele><time>2026-04-04T09:03:44.113Z</time></trkpt><trkpt lat="44.2396401" lon="10.4877393"><ele>1150.0</ele><time>2026-04-04T09:03:45.11Z</time></trkpt><trkpt lat="44.2397636" lon="10.4878708"><ele>1150.6666666666665</ele><time>2026-04-04T09:03:46.11Z</time></trkpt><trkpt lat="44.239885" lon="10.4880259"><ele>1151.3333333333333</ele><time>2026-04-04T09:03:47.11Z</time></trkpt><trkpt lat="44.2399942" lon="10.4881993"><ele>1152.0</ele><time>2026-04-04T09:03:48.108Z</time></trkpt><trkpt lat="44.2400586" lon="10.4883889"><ele>1152.0</ele><time>2026-04-04T09:03:49.104Z</time></trkpt><trkpt lat="44.2400916" lon="10.4885659"><ele>1152.0</ele><time>2026-04-04T09:03:50.103Z</time></trkpt><trkpt lat="44.2400902" lon="10.488742"><ele>1152.0</ele><time>2026-04-04T09:03:51.119Z</time></trkpt><trkpt lat="44.2400401" lon="10.488921"><ele>1152.0</ele><time>2026-04-04T09:03:52.116Z</time></trkpt><trkpt lat="44.2399674" lon="10.4890865"><ele>1152.25</ele><time>2026-04-04T09:03:53.101Z</time></trkpt><trkpt lat="44.2398817" lon="10.4892405"><ele>1152.5</ele><time>2026-04-04T09:03:54.134Z</time></trkpt><trkpt lat="44.239787" lon="10.4893887"><ele>1152.75</ele><time>2026-04-04T09:03:55.11Z</time></trkpt><trkpt lat="44.2396868" lon="10.4895258"><ele>1153.0</ele><time>2026-04-04T09:03:56.103Z</time></trkpt><trkpt lat="44.2395767" lon="10.4896481"><ele>1155.5</ele><time>2026-04-04T09:03:57.101Z</time></trkpt><trkpt lat="44.2394575" lon="10.4897484"><ele>1158.0</ele><time>2026-04-04T09:03:58.109Z</time></trkpt><trkpt lat="44.2393198" lon="10.4898106"><ele>1160.5</ele><time>2026-04-04T09:03:59.111Z</time></trkpt><trkpt lat="44.2391619" lon="10.4898308"><ele>1163.0</ele><time>2026-04-04T09:04:00.113Z</time></trkpt><trkpt lat="44.2390163" lon="10.4898624"><ele>1165.75</ele><time>2026-04-04T09:04:01.108Z</time></trkpt><trkpt lat="44.2388595" lon="10.4898784"><ele>1168.5</ele><time>2026-04-04T09:04:02.108Z</time></trkpt><trkpt lat="44.2387052" lon="10.4898608"><ele>1171.25</ele><time>2026-04-04T09:04:03.102Z</time></trkpt><trkpt lat="44.238573" lon="10.4898416"><ele>1174.0</ele><time>2026-04-04T09:04:04.081Z</time></trkpt><trkpt lat="44.238458" lon="10.489833"><ele>1174.0</ele><time>2026-04-04T09:04:05.079Z</time></trkpt><trkpt lat="44.238378" lon="10.4898656"><ele>1174.0</ele><time>2026-04-04T09:04:06.089Z</time></trkpt><trkpt lat="44.2383184" lon="10.4899464"><ele>1174.0</ele><time>2026-04-04T09:04:07.079Z</time></trkpt><trkpt lat="44.2383131" lon="10.4900454"><ele>1174.0</ele><time>2026-04-04T09:04:08.101Z</time></trkpt><trkpt lat="44.2383391" lon="10.4901739"><ele>1174.0</ele><time>2026-04-04T09:04:09.074Z</time></trkpt><trkpt lat="44.2383811" lon="10.4903039"><ele>1174.0</ele><time>2026-04-04T09:04:10.088Z</time></trkpt><trkpt lat="44.2384505" lon="10.4904348"><ele>1178.3333333333333</ele><time>2026-04-04T09:04:11.103Z</time></trkpt><trkpt lat="44.2385623" lon="10.490522"><ele>1182.6666666666667</ele><time>2026-04-04T09:04:12.103Z</time></trkpt><trkpt lat="44.2387134" lon="10.4905895"><ele>1187.0</ele><time>2026-04-04T09:04:13.099Z</time></trkpt><trkpt lat="44.2388686" lon="10.4906664"><ele>1182.5</ele><time>2026-04-04T09:04:14.113Z</time></trkpt><trkpt lat="44.2389913" lon="10.4907808"><ele>1178.0</ele><time>2026-04-04T09:04:15.114Z</time></trkpt><trkpt lat="44.2390969" lon="10.4908955"><ele>1173.5</ele><time>2026-04-04T09:04:16.107Z</time></trkpt><trkpt lat="44.2392075" lon="10.4909636"><ele>1169.0</ele><time>2026-04-04T09:04:17.103Z</time></trkpt><trkpt lat="44.2393479" lon="10.4910163"><ele>1169.0</ele><time>2026-04-04T09:04:18.093Z</time></trkpt><trkpt lat="44.2394898" lon="10.4910561"><ele>1169.0</ele><time>2026-04-04T09:04:19.121Z</time></trkpt><trkpt lat="44.2396347" lon="10.4911032"><ele>1169.0</ele><time>2026-04-04T09:04:20.121Z</time></trkpt><trkpt lat="44.2397713" lon="10.491109"><ele>1169.0</ele><time>2026-04-04T09:04:21.115Z</time></trkpt><trkpt lat="44.2398908" lon="10.491101"><ele>1168.25</ele><time>2026-04-04T09:04:22.131Z</time></trkpt><trkpt lat="44.2400071" lon="10.4911529"><ele>1167.5</ele><time>2026-04-04T09:04:23.122Z</time></trkpt><trkpt lat="44.2401022" lon="10.491275"><ele>1166.75</ele><time>2026-04-04T09:04:24.124Z</time></trkpt><trkpt lat="44.2401469" lon="10.4914243"><ele>1166.0</ele><time>2026-04-04T09:04:25.123Z</time></trkpt><trkpt lat="44.2401396" lon="10.4915774"><ele>1166.0</ele><time>2026-04-04T09:04:26.118Z</time></trkpt><trkpt lat="44.2400895" lon="10.4917159"><ele>1166.0</ele><time>2026-04-04T09:04:27.112Z</time></trkpt><trkpt lat="44.2400073" lon="10.4918428"><ele>1166.0</ele><time>2026-04-04T09:04:28.117Z</time></trkpt><trkpt lat="44.2398997" lon="10.4919472"><ele>1166.0</ele><time>2026-04-04T09:04:29.404Z</time></trkpt><trkpt lat="44.2396864" lon="10.49211"><ele>1170.75</ele><time>2026-04-04T09:04:31.09Z</time></trkpt><trkpt lat="44.2396209" lon="10.4922336"><ele>1175.5</ele><time>2026-04-04T09:04:32.088Z</time></trkpt><trkpt lat="44.2395814" lon="10.4924005"><ele>1180.25</ele><time>2026-04-04T09:04:33.057Z</time></trkpt><trkpt lat="44.2395529" lon="10.4925891"><ele>1185.0</ele><time>2026-04-04T09:04:34.082Z</time></trkpt><trkpt lat="44.239527" lon="10.4927857"><ele>1184.3333333333333</ele><time>2026-04-04T09:04:35.125Z</time></trkpt><trkpt lat="44.2395029" lon="10.4929966"><ele>1183.6666666666665</ele><time>2026-04-04T09:04:36.128Z</time></trkpt><trkpt lat="44.2394712" lon="10.4932096"><ele>1183.0</ele><time>2026-04-04T09:04:37.137Z</time></trkpt><trkpt lat="44.2394227" lon="10.4934112"><ele>1183.0</ele><time>2026-04-04T09:04:38.127Z</time></trkpt><trkpt lat="44.2393596" lon="10.4935932"><ele>1183.0</ele><time>2026-04-04T09:04:39.106Z</time></trkpt><trkpt lat="44.2392968" lon="10.4937765"><ele>1183.0</ele><time>2026-04-04T09:04:40.056Z</time></trkpt><trkpt lat="44.2392479" lon="10.4939744"><ele>1183.0</ele><time>2026-04-04T09:04:41.055Z</time></trkpt><trkpt lat="44.2392108" lon="10.4941511"><ele>1182.75</ele><time>2026-04-04T09:04:42.08Z</time></trkpt><trkpt lat="44.2392151" lon="10.4943338"><ele>1182.5</ele><time>2026-04-04T09:04:43.05Z</time></trkpt><trkpt lat="44.239231" lon="10.4945387"><ele>1182.25</ele><time>2026-04-04T09:04:44.074Z</time></trkpt><trkpt lat="44.2392596" lon="10.4947265"><ele>1182.0</ele><time>2026-04-04T09:04:45.096Z</time></trkpt><trkpt lat="44.2393199" lon="10.4948999"><ele>1181.0</ele><time>2026-04-04T09:04:46.106Z</time></trkpt><trkpt lat="44.2393814" lon="10.4950793"><ele>1180.0</ele><time>2026-04-04T09:04:47.102Z</time></trkpt><trkpt lat="44.2394233" lon="10.4952511"><ele>1179.0</ele><time>2026-04-04T09:04:48.143Z</time></trkpt><trkpt lat="44.2394159" lon="10.4953969"><ele>1178.0</ele><time>2026-04-04T09:04:49.11Z</time></trkpt><trkpt lat="44.2393568" lon="10.4955335"><ele>1177.0</ele><time>2026-04-04T09:04:50.107Z</time></trkpt><trkpt lat="44.2392765" lon="10.4956703"><ele>1176.0</ele><time>2026-04-04T09:04:51.108Z</time></trkpt><trkpt lat="44.2391899" lon="10.4958105"><ele>1175.0</ele><time>2026-04-04T09:04:52.117Z</time></trkpt><trkpt lat="44.2390898" lon="10.4959638"><ele>1174.0</ele><time>2026-04-04T09:04:53.088Z</time></trkpt><trkpt lat="44.2389789" lon="10.4961044"><ele>1176.25</ele><time>2026-04-04T09:04:54.087Z</time></trkpt><trkpt lat="44.2388697" lon="10.4962308"><ele>1178.5</ele><time>2026-04-04T09:04:55.067Z</time></trkpt><trkpt lat="44.2387647" lon="10.4963419"><ele>1180.75</ele><time>2026-04-04T09:04:56.064Z</time></trkpt><trkpt lat="44.2386967" lon="10.4964725"><ele>1183.0</ele><time>2026-04-04T09:04:57.058Z</time></trkpt><trkpt lat="44.2386499" lon="10.4966251"><ele>1183.0</ele><time>2026-04-04T09:04:58.095Z</time></trkpt><trkpt lat="44.2386273" lon="10.4967873"><ele>1183.0</ele><time>2026-04-04T09:04:59.108Z</time></trkpt><trkpt lat="44.238586" lon="10.4969291"><ele>1183.0</ele><time>2026-04-04T09:05:00.081Z</time></trkpt><trkpt lat="44.238523" lon="10.4970394"><ele>1183.0</ele><time>2026-04-04T09:05:01.102Z</time></trkpt><trkpt lat="44.2384524" lon="10.4971189"><ele>1183.0</ele><time>2026-04-04T09:05:02.058Z</time></trkpt><trkpt lat="44.2383756" lon="10.4971893"><ele>1182.0</ele><time>2026-04-04T09:05:03.052Z</time></trkpt><trkpt lat="44.2383221" lon="10.4972854"><ele>1181.0</ele><time>2026-04-04T09:05:04.059Z</time></trkpt><trkpt lat="44.238299" lon="10.4974162"><ele>1180.0</ele><time>2026-04-04T09:05:05.066Z</time></trkpt><trkpt lat="44.2383175" lon="10.4975445"><ele>1179.0</ele><time>2026-04-04T09:05:06.049Z</time></trkpt><trkpt lat="44.2383892" lon="10.4976572"><ele>1178.0</ele><time>2026-04-04T09:05:07.058Z</time></trkpt><trkpt lat="44.2384973" lon="10.4977258"><ele>1178.0</ele><time>2026-04-04T09:05:08.127Z</time></trkpt><trkpt lat="44.2386192" lon="10.497725"><ele>1178.0</ele><time>2026-04-04T09:05:09.112Z</time></trkpt><trkpt lat="44.2387532" lon="10.4976626"><ele>1178.0</ele><time>2026-04-04T09:05:10.103Z</time></trkpt><trkpt lat="44.2388927" lon="10.4975822"><ele>1178.0</ele><time>2026-04-04T09:05:11.107Z</time></trkpt><trkpt lat="44.2390347" lon="10.497474"><ele>1177.0</ele><time>2026-04-04T09:05:12.13Z</time></trkpt><trkpt lat="44.2391698" lon="10.4973353"><ele>1176.0</ele><time>2026-04-04T09:05:13.143Z</time></trkpt><trkpt lat="44.2392989" lon="10.4972048"><ele>1175.0</ele><time>2026-04-04T09:05:14.117Z</time></trkpt><trkpt lat="44.2394335" lon="10.497143"><ele>1175.0</ele><time>2026-04-04T09:05:15.118Z</time></trkpt><trkpt lat="44.2395608" lon="10.4971516"><ele>1175.0</ele><time>2026-04-04T09:05:16.12Z</time></trkpt><trkpt lat="44.2396838" lon="10.4972299"><ele>1175.0</ele><time>2026-04-04T09:05:17.126Z</time></trkpt><trkpt lat="44.2398077" lon="10.497355"><ele>1175.0</ele><time>2026-04-04T09:05:18.117Z</time></trkpt><trkpt lat="44.2399266" lon="10.4974784"><ele>1175.3333333333335</ele><time>2026-04-04T09:05:19.109Z</time></trkpt><trkpt lat="44.2400646" lon="10.4975715"><ele>1175.6666666666667</ele><time>2026-04-04T09:05:20.119Z</time></trkpt><trkpt lat="44.2402254" lon="10.4976578"><ele>1176.0</ele><time>2026-04-04T09:05:21.114Z</time></trkpt><trkpt lat="44.2403769" lon="10.4977327"><ele>1176.0</ele><time>2026-04-04T09:05:22.124Z</time></trkpt><trkpt lat="44.2405155" lon="10.4978465"><ele>1176.0</ele><time>2026-04-04T09:05:23.114Z</time></trkpt><trkpt lat="44.2406403" lon="10.4980002"><ele>1176.0</ele><time>2026-04-04T09:05:24.116Z</time></trkpt><trkpt lat="44.2407603" lon="10.4981506"><ele>1178.6666666666667</ele><time>2026-04-04T09:05:25.117Z</time></trkpt><trkpt lat="44.2408974" lon="10.4982489"><ele>1181.3333333333335</ele><time>2026-04-04T09:05:26.093Z</time></trkpt><trkpt lat="44.241041" lon="10.4983077"><ele>1184.0</ele><time>2026-04-04T09:05:27.105Z</time></trkpt><trkpt lat="44.2411825" lon="10.4983809"><ele>1184.0</ele><time>2026-04-04T09:05:28.114Z</time></trkpt><trkpt lat="44.241303" lon="10.4984932"><ele>1184.0</ele><time>2026-04-04T09:05:29.116Z</time></trkpt><trkpt lat="44.2414014" lon="10.4986494"><ele>1184.0</ele><time>2026-04-04T09:05:30.121Z</time></trkpt><trkpt lat="44.2414853" lon="10.4988041"><ele>1184.0</ele><time>2026-04-04T09:05:31.104Z</time></trkpt><trkpt lat="44.2415687" lon="10.4989417"><ele>1186.5</ele><time>2026-04-04T09:05:32.108Z</time></trkpt><trkpt lat="44.2416645" lon="10.4990112"><ele>1189.0</ele><time>2026-04-04T09:05:33.108Z</time></trkpt><trkpt lat="44.2417952" lon="10.4990367"><ele>1191.5</ele><time>2026-04-04T09:05:34.106Z</time></trkpt><trkpt lat="44.2419225" lon="10.4990778"><ele>1194.0</ele><time>2026-04-04T09:05:35.101Z</time></trkpt><trkpt lat="44.242049" lon="10.4991514"><ele>1194.0</ele><time>2026-04-04T09:05:36.103Z</time></trkpt><trkpt lat="44.2421789" lon="10.4992385"><ele>1194.0</ele><time>2026-04-04T09:05:37.099Z</time></trkpt><trkpt lat="44.2422915" lon="10.4993218"><ele>1194.0</ele><time>2026-04-04T09:05:38.092Z</time></trkpt><trkpt lat="44.242398" lon="10.4993914"><ele>1194.0</ele><time>2026-04-04T09:05:39.106Z</time></trkpt><trkpt lat="44.2424966" lon="10.4994535"><ele>1192.0</ele><time>2026-04-04T09:05:40.09Z</time></trkpt><trkpt lat="44.2425845" lon="10.4995289"><ele>1190.0</ele><time>2026-04-04T09:05:41.377Z</time></trkpt><trkpt lat="44.2427315" lon="10.4997175"><ele>1188.0</ele><time>2026-04-04T09:05:43.072Z</time></trkpt><trkpt lat="44.242766" lon="10.499843"><ele>1186.0</ele><time>2026-04-04T09:05:44.071Z</time></trkpt><trkpt lat="44.2427816" lon="10.4999884"><ele>1190.3999999999999</ele><time>2026-04-04T09:05:45.075Z</time></trkpt><trkpt lat="44.2428033" lon="10.5001291"><ele>1194.8</ele><time>2026-04-04T09:05:46.089Z</time></trkpt><trkpt lat="44.2428493" lon="10.5002336"><ele>1199.1999999999998</ele><time>2026-04-04T09:05:47.096Z</time></trkpt><trkpt lat="44.2429106" lon="10.500313"><ele>1203.6</ele><time>2026-04-04T09:05:48.094Z</time></trkpt><trkpt lat="44.2429926" lon="10.5003283"><ele>1208.0</ele><time>2026-04-04T09:05:49.102Z</time></trkpt><trkpt lat="44.2430902" lon="10.5002985"><ele>1206.2</ele><time>2026-04-04T09:05:50.102Z</time></trkpt><trkpt lat="44.2431981" lon="10.5002767"><ele>1204.4</ele><time>2026-04-04T09:05:51.106Z</time></trkpt><trkpt lat="44.2433061" lon="10.5002866"><ele>1202.6000000000001</ele><time>2026-04-04T09:05:52.112Z</time></trkpt><trkpt lat="44.2433984" lon="10.5003644"><ele>1200.8</ele><time>2026-04-04T09:05:53.105Z</time></trkpt><trkpt lat="44.2434802" lon="10.5004918"><ele>1199.0</ele><time>2026-04-04T09:05:54.097Z</time></trkpt><trkpt lat="44.2435596" lon="10.5006301"><ele>1203.5</ele><time>2026-04-04T09:05:55.098Z</time></trkpt><trkpt lat="44.2436358" lon="10.5007829"><ele>1208.0</ele><time>2026-04-04T09:05:56.1Z</time></trkpt><trkpt lat="44.2436957" lon="10.5009472"><ele>1212.5</ele><time>2026-04-04T09:05:57.102Z</time></trkpt><trkpt lat="44.2437154" lon="10.5011367"><ele>1217.0</ele><time>2026-04-04T09:05:58.097Z</time></trkpt><trkpt lat="44.2437149" lon="10.5013238"><ele>1218.75</ele><time>2026-04-04T09:05:59.101Z</time></trkpt><trkpt lat="44.2437356" lon="10.5014973"><ele>1220.5</ele><time>2026-04-04T09:06:00.113Z</time></trkpt><trkpt lat="44.2438155" lon="10.5016349"><ele>1222.25</ele><time>2026-04-04T09:06:01.109Z</time></trkpt><trkpt lat="44.2439255" lon="10.5017194"><ele>1224.0</ele><time>2026-04-04T09:06:02.097Z</time></trkpt><trkpt lat="44.2440427" lon="10.5017429"><ele>1224.0</ele><time>2026-04-04T09:06:03.094Z</time></trkpt><trkpt lat="44.2441576" lon="10.5016928"><ele>1224.0</ele><time>2026-04-04T09:06:04.098Z</time></trkpt><trkpt lat="44.2442516" lon="10.5015934"><ele>1224.0</ele><time>2026-04-04T09:06:05.1Z</time></trkpt><trkpt lat="44.244341" lon="10.5014545"><ele>1224.0</ele><time>2026-04-04T09:06:06.091Z</time></trkpt><trkpt lat="44.2444322" lon="10.5012848"><ele>1219.0</ele><time>2026-04-04T09:06:07.093Z</time></trkpt><trkpt lat="44.2445411" lon="10.5011081"><ele>1214.0</ele><time>2026-04-04T09:06:08.094Z</time></trkpt><trkpt lat="44.2446498" lon="10.5009482"><ele>1209.0</ele><time>2026-04-04T09:06:09.093Z</time></trkpt><trkpt lat="44.2447798" lon="10.5008558"><ele>1213.6666666666667</ele><time>2026-04-04T09:06:10.106Z</time></trkpt><trkpt lat="44.2449344" lon="10.5007988"><ele>1218.3333333333335</ele><time>2026-04-04T09:06:11.095Z</time></trkpt><trkpt lat="44.2450968" lon="10.5008316"><ele>1223.0</ele><time>2026-04-04T09:06:12.09Z</time></trkpt><trkpt lat="44.2452514" lon="10.5008706"><ele>1223.0</ele><time>2026-04-04T09:06:13.096Z</time></trkpt><trkpt lat="44.2453999" lon="10.5008865"><ele>1223.0</ele><time>2026-04-04T09:06:14.103Z</time></trkpt><trkpt lat="44.2455617" lon="10.5009129"><ele>1223.0</ele><time>2026-04-04T09:06:15.103Z</time></trkpt><trkpt lat="44.2457281" lon="10.5009474"><ele>1225.25</ele><time>2026-04-04T09:06:16.105Z</time></trkpt><trkpt lat="44.2458733" lon="10.5009596"><ele>1227.5</ele><time>2026-04-04T09:06:17.108Z</time></trkpt><trkpt lat="44.2460033" lon="10.5010192"><ele>1229.75</ele><time>2026-04-04T09:06:18.122Z</time></trkpt><trkpt lat="44.2461063" lon="10.5011403"><ele>1232.0</ele><time>2026-04-04T09:06:19.123Z</time></trkpt><trkpt lat="44.2461808" lon="10.5012847"><ele>1233.8</ele><time>2026-04-04T09:06:20.12Z</time></trkpt><trkpt lat="44.2461735" lon="10.5014182"><ele>1235.6</ele><time>2026-04-04T09:06:21.117Z</time></trkpt><trkpt lat="44.2461148" lon="10.5015215"><ele>1237.3999999999999</ele><time>2026-04-04T09:06:22.116Z</time></trkpt><trkpt lat="44.2460197" lon="10.5016169"><ele>1239.2</ele><time>2026-04-04T09:06:23.107Z</time></trkpt><trkpt lat="44.2459177" lon="10.50173"><ele>1241.0</ele><time>2026-04-04T09:06:24.102Z</time></trkpt><trkpt lat="44.2458156" lon="10.5018523"><ele>1241.0</ele><time>2026-04-04T09:06:25.098Z</time></trkpt><trkpt lat="44.2457364" lon="10.5020038"><ele>1241.0</ele><time>2026-04-04T09:06:26.101Z</time></trkpt><trkpt lat="44.2456932" lon="10.5021931"><ele>1241.0</ele><time>2026-04-04T09:06:27.101Z</time></trkpt><trkpt lat="44.2456839" lon="10.5023971"><ele>1241.0</ele><time>2026-04-04T09:06:28.075Z</time></trkpt><trkpt lat="44.2457011" lon="10.5025926"><ele>1242.25</ele><time>2026-04-04T09:06:29.08Z</time></trkpt><trkpt lat="44.2457413" lon="10.5027929"><ele>1243.5</ele><time>2026-04-04T09:06:30.114Z</time></trkpt><trkpt lat="44.2458292" lon="10.5029527"><ele>1244.75</ele><time>2026-04-04T09:06:31.114Z</time></trkpt><trkpt lat="44.2459546" lon="10.5030393"><ele>1246.0</ele><time>2026-04-04T09:06:32.115Z</time></trkpt><trkpt lat="44.2460655" lon="10.5031399"><ele>1248.8</ele><time>2026-04-04T09:06:33.107Z</time></trkpt><trkpt lat="44.2461012" lon="10.5032742"><ele>1251.6</ele><time>2026-04-04T09:06:34.1Z</time></trkpt><trkpt lat="44.2461155" lon="10.5034216"><ele>1254.4</ele><time>2026-04-04T09:06:35.109Z</time></trkpt><trkpt lat="44.2461269" lon="10.5035808"><ele>1257.2</ele><time>2026-04-04T09:06:36.083Z</time></trkpt><trkpt lat="44.246131" lon="10.5037562"><ele>1260.0</ele><time>2026-04-04T09:06:37.075Z</time></trkpt><trkpt lat="44.2461134" lon="10.5039252"><ele>1261.25</ele><time>2026-04-04T09:06:38.077Z</time></trkpt><trkpt lat="44.2460695" lon="10.5040896"><ele>1262.5</ele><time>2026-04-04T09:06:39.101Z</time></trkpt><trkpt lat="44.2460127" lon="10.5042463"><ele>1263.75</ele><time>2026-04-04T09:06:40.1Z</time></trkpt><trkpt lat="44.2459428" lon="10.5043774"><ele>1265.0</ele><time>2026-04-04T09:06:41.078Z</time></trkpt><trkpt lat="44.2458647" lon="10.5044726"><ele>1264.5</ele><time>2026-04-04T09:06:42.073Z</time></trkpt><trkpt lat="44.2458058" lon="10.5045963"><ele>1264.0</ele><time>2026-04-04T09:06:43.096Z</time></trkpt><trkpt lat="44.2457742" lon="10.5047311"><ele>1263.5</ele><time>2026-04-04T09:06:44.112Z</time></trkpt><trkpt lat="44.2457952" lon="10.5048777"><ele>1263.0</ele><time>2026-04-04T09:06:45.103Z</time></trkpt><trkpt lat="44.24586" lon="10.5050438"><ele>1263.0</ele><time>2026-04-04T09:06:46.098Z</time></trkpt><trkpt lat="44.2459331" lon="10.5052253"><ele>1263.0</ele><time>2026-04-04T09:06:47.109Z</time></trkpt><trkpt lat="44.2460264" lon="10.5054231"><ele>1263.0</ele><time>2026-04-04T09:06:48.126Z</time></trkpt><trkpt lat="44.2460971" lon="10.505634"><ele>1266.25</ele><time>2026-04-04T09:06:49.129Z</time></trkpt><trkpt lat="44.2461584" lon="10.5058248"><ele>1269.5</ele><time>2026-04-04T09:06:50.084Z</time></trkpt><trkpt lat="44.2462174" lon="10.5060022"><ele>1272.75</ele><time>2026-04-04T09:06:51.077Z</time></trkpt><trkpt lat="44.2462842" lon="10.5061376"><ele>1276.0</ele><time>2026-04-04T09:06:52.09Z</time></trkpt><trkpt lat="44.2463472" lon="10.5062668"><ele>1275.5</ele><time>2026-04-04T09:06:53.082Z</time></trkpt><trkpt lat="44.2464556" lon="10.5063438"><ele>1275.0</ele><time>2026-04-04T09:06:54.099Z</time></trkpt><trkpt lat="44.2465924" lon="10.5064315"><ele>1274.5</ele><time>2026-04-04T09:06:55.105Z</time></trkpt><trkpt lat="44.2467289" lon="10.5065201"><ele>1274.0</ele><time>2026-04-04T09:06:56.103Z</time></trkpt><trkpt lat="44.2468734" lon="10.5066243"><ele>1274.0</ele><time>2026-04-04T09:06:57.105Z</time></trkpt><trkpt lat="44.2470011" lon="10.5066987"><ele>1274.0</ele><time>2026-04-04T09:06:58.098Z</time></trkpt><trkpt lat="44.2471315" lon="10.5067578"><ele>1274.0</ele><time>2026-04-04T09:06:59.105Z</time></trkpt><trkpt lat="44.2472332" lon="10.5068102"><ele>1274.0</ele><time>2026-04-04T09:07:00.109Z</time></trkpt><trkpt lat="44.2473223" lon="10.5069076"><ele>1275.0</ele><time>2026-04-04T09:07:01.113Z</time></trkpt><trkpt lat="44.2473561" lon="10.5070578"><ele>1276.0</ele><time>2026-04-04T09:07:02.139Z</time></trkpt><trkpt lat="44.2473835" lon="10.5072502"><ele>1277.0</ele><time>2026-04-04T09:07:03.132Z</time></trkpt><trkpt lat="44.2474197" lon="10.5074262"><ele>1278.0</ele><time>2026-04-04T09:07:04.115Z</time></trkpt><trkpt lat="44.2474852" lon="10.5076001"><ele>1278.0</ele><time>2026-04-04T09:07:05.105Z</time></trkpt><trkpt lat="44.2475795" lon="10.5077743"><ele>1278.0</ele><time>2026-04-04T09:07:06.098Z</time></trkpt><trkpt lat="44.2476805" lon="10.5079374"><ele>1278.0</ele><time>2026-04-04T09:07:07.105Z</time></trkpt><trkpt lat="44.2477874" lon="10.5080978"><ele>1279.6666666666667</ele><time>2026-04-04T09:07:08.132Z</time></trkpt><trkpt lat="44.2478851" lon="10.5082582"><ele>1281.3333333333335</ele><time>2026-04-04T09:07:09.125Z</time></trkpt><trkpt lat="44.2479846" lon="10.5084244"><ele>1283.0</ele><time>2026-04-04T09:07:10.115Z</time></trkpt><trkpt lat="44.2480743" lon="10.5085905"><ele>1283.5</ele><time>2026-04-04T09:07:11.112Z</time></trkpt><trkpt lat="44.248148" lon="10.5087551"><ele>1284.0</ele><time>2026-04-04T09:07:12.119Z</time></trkpt><trkpt lat="44.2481975" lon="10.5089167"><ele>1284.5</ele><time>2026-04-04T09:07:13.116Z</time></trkpt><trkpt lat="44.2482352" lon="10.5090692"><ele>1285.0</ele><time>2026-04-04T09:07:14.118Z</time></trkpt><trkpt lat="44.2482508" lon="10.5092202"><ele>1285.0</ele><time>2026-04-04T09:07:15.123Z</time></trkpt><trkpt lat="44.2482308" lon="10.509333"><ele>1285.0</ele><time>2026-04-04T09:07:16.123Z</time></trkpt><trkpt lat="44.2481521" lon="10.5094046"><ele>1285.0</ele><time>2026-04-04T09:07:17.129Z</time></trkpt><trkpt lat="44.2480583" lon="10.5094497"><ele>1285.0</ele><time>2026-04-04T09:07:18.127Z</time></trkpt><trkpt lat="44.2479553" lon="10.5094642"><ele>1285.0</ele><time>2026-04-04T09:07:19.133Z</time></trkpt><trkpt lat="44.2478322" lon="10.5094398"><ele>1282.25</ele><time>2026-04-04T09:07:20.123Z</time></trkpt><trkpt lat="44.2477088" lon="10.5093996"><ele>1279.5</ele><time>2026-04-04T09:07:21.119Z</time></trkpt><trkpt lat="44.2475782" lon="10.5093303"><ele>1276.75</ele><time>2026-04-04T09:07:22.124Z</time></trkpt><trkpt lat="44.2474468" lon="10.5092361"><ele>1274.0</ele><time>2026-04-04T09:07:23.123Z</time></trkpt><trkpt lat="44.2473177" lon="10.50913"><ele>1273.5</ele><time>2026-04-04T09:07:24.124Z</time></trkpt><trkpt lat="44.2471836" lon="10.5090267"><ele>1273.0</ele><time>2026-04-04T09:07:25.114Z</time></trkpt><trkpt lat="44.2470535" lon="10.5089632"><ele>1272.5</ele><time>2026-04-04T09:07:26.103Z</time></trkpt><trkpt lat="44.246921" lon="10.5089437"><ele>1272.0</ele><time>2026-04-04T09:07:27.099Z</time></trkpt><trkpt lat="44.2468002" lon="10.5089856"><ele>1272.0</ele><time>2026-04-04T09:07:28.106Z</time></trkpt><trkpt lat="44.2466986" lon="10.5090999"><ele>1272.0</ele><time>2026-04-04T09:07:29.102Z</time></trkpt><trkpt lat="44.2466183" lon="10.5092552"><ele>1272.0</ele><time>2026-04-04T09:07:30.102Z</time></trkpt><trkpt lat="44.2465432" lon="10.5094164"><ele>1272.0</ele><time>2026-04-04T09:07:31.101Z</time></trkpt><trkpt lat="44.2464681" lon="10.5095682"><ele>1272.5</ele><time>2026-04-04T09:07:32.098Z</time></trkpt><trkpt lat="44.2463964" lon="10.5097142"><ele>1273.0</ele><time>2026-04-04T09:07:33.056Z</time></trkpt><trkpt lat="44.2463254" lon="10.5098552"><ele>1273.5</ele><time>2026-04-04T09:07:34.052Z</time></trkpt><trkpt lat="44.2462574" lon="10.5099896"><ele>1274.0</ele><time>2026-04-04T09:07:35.074Z</time></trkpt><trkpt lat="44.2461918" lon="10.5101288"><ele>1274.0</ele><time>2026-04-04T09:07:36.077Z</time></trkpt><trkpt lat="44.2461271" lon="10.5102586"><ele>1274.0</ele><time>2026-04-04T09:07:37.086Z</time></trkpt><trkpt lat="44.2460595" lon="10.5103852"><ele>1274.0</ele><time>2026-04-04T09:07:38.083Z</time></trkpt><trkpt lat="44.2459961" lon="10.5105074"><ele>1274.0</ele><time>2026-04-04T09:07:39.084Z</time></trkpt><trkpt lat="44.2459344" lon="10.5106314"><ele>1274.0</ele><time>2026-04-04T09:07:40.081Z</time></trkpt><trkpt lat="44.2458713" lon="10.5107535"><ele>1274.2</ele><time>2026-04-04T09:07:41.112Z</time></trkpt><trkpt lat="44.2458029" lon="10.5108645"><ele>1274.4</ele><time>2026-04-04T09:07:42.11Z</time></trkpt><trkpt lat="44.2457184" lon="10.5109474"><ele>1274.6</ele><time>2026-04-04T09:07:43.124Z</time></trkpt><trkpt lat="44.2456105" lon="10.5109901"><ele>1274.8</ele><time>2026-04-04T09:07:44.114Z</time></trkpt><trkpt lat="44.2454867" lon="10.5110056"><ele>1275.0</ele><time>2026-04-04T09:07:45.11Z</time></trkpt><trkpt lat="44.2453668" lon="10.5110375"><ele>1275.0</ele><time>2026-04-04T09:07:46.106Z</time></trkpt><trkpt lat="44.2452504" lon="10.5111034"><ele>1275.0</ele><time>2026-04-04T09:07:47.107Z</time></trkpt><trkpt lat="44.2451494" lon="10.5112004"><ele>1275.0</ele><time>2026-04-04T09:07:48.083Z</time></trkpt><trkpt lat="44.2450467" lon="10.5113271"><ele>1275.0</ele><time>2026-04-04T09:07:49.082Z</time></trkpt><trkpt lat="44.2449444" lon="10.5114651"><ele>1276.0</ele><time>2026-04-04T09:07:50.099Z</time></trkpt><trkpt lat="44.2448425" lon="10.5116153"><ele>1277.0</ele><time>2026-04-04T09:07:51.098Z</time></trkpt><trkpt lat="44.2447462" lon="10.5117842"><ele>1278.0</ele><time>2026-04-04T09:07:52.105Z</time></trkpt><trkpt lat="44.2446734" lon="10.5119656"><ele>1274.0</ele><time>2026-04-04T09:07:53.099Z</time></trkpt><trkpt lat="44.244587" lon="10.5121525"><ele>1270.0</ele><time>2026-04-04T09:07:54.099Z</time></trkpt><trkpt lat="44.2444848" lon="10.5123189"><ele>1266.0</ele><time>2026-04-04T09:07:55.098Z</time></trkpt><trkpt lat="44.2443718" lon="10.5124548"><ele>1266.0</ele><time>2026-04-04T09:07:56.108Z</time></trkpt><trkpt lat="44.2442516" lon="10.5125454"><ele>1266.0</ele><time>2026-04-04T09:07:57.109Z</time></trkpt><trkpt lat="44.2441357" lon="10.5126106"><ele>1266.0</ele><time>2026-04-04T09:07:58.108Z</time></trkpt><trkpt lat="44.2440123" lon="10.5126376"><ele>1266.0</ele><time>2026-04-04T09:07:59.119Z</time></trkpt><trkpt lat="44.2439193" lon="10.5125938"><ele>1264.2</ele><time>2026-04-04T09:08:00.11Z</time></trkpt><trkpt lat="44.2438734" lon="10.5124955"><ele>1262.3999999999999</ele><time>2026-04-04T09:08:01.116Z</time></trkpt><trkpt lat="44.2438322" lon="10.5123463"><ele>1260.6</ele><time>2026-04-04T09:08:02.109Z</time></trkpt><trkpt lat="44.2437894" lon="10.5122182"><ele>1258.8</ele><time>2026-04-04T09:08:03.104Z</time></trkpt><trkpt lat="44.2437466" lon="10.5120834"><ele>1257.0</ele><time>2026-04-04T09:08:04.099Z</time></trkpt><trkpt lat="44.2437113" lon="10.5119285"><ele>1257.0</ele><time>2026-04-04T09:08:05.101Z</time></trkpt><trkpt lat="44.2436722" lon="10.511759"><ele>1257.0</ele><time>2026-04-04T09:08:06.102Z</time></trkpt><trkpt lat="44.2436347" lon="10.5115874"><ele>1257.0</ele><time>2026-04-04T09:08:07.106Z</time></trkpt><trkpt lat="44.2435988" lon="10.5114037"><ele>1257.0</ele><time>2026-04-04T09:08:08.108Z</time></trkpt><trkpt lat="44.2435736" lon="10.5112105"><ele>1258.25</ele><time>2026-04-04T09:08:09.111Z</time></trkpt><trkpt lat="44.2435647" lon="10.511019"><ele>1259.5</ele><time>2026-04-04T09:08:10.115Z</time></trkpt><trkpt lat="44.2435584" lon="10.51085"><ele>1260.75</ele><time>2026-04-04T09:08:11.105Z</time></trkpt><trkpt lat="44.2435368" lon="10.5106729"><ele>1262.0</ele><time>2026-04-04T09:08:12.112Z</time></trkpt><trkpt lat="44.2434919" lon="10.5105076"><ele>1264.5</ele><time>2026-04-04T09:08:13.115Z</time></trkpt><trkpt lat="44.2433994" lon="10.5103977"><ele>1267.0</ele><time>2026-04-04T09:08:14.116Z</time></trkpt><trkpt lat="44.2432651" lon="10.5103444"><ele>1269.5</ele><time>2026-04-04T09:08:15.103Z</time></trkpt><trkpt lat="44.2431052" lon="10.5103309"><ele>1272.0</ele><time>2026-04-04T09:08:16.104Z</time></trkpt><trkpt lat="44.2429538" lon="10.5103046"><ele>1273.3333333333333</ele><time>2026-04-04T09:08:17.126Z</time></trkpt><trkpt lat="44.2428025" lon="10.5102789"><ele>1274.6666666666665</ele><time>2026-04-04T09:08:18.104Z</time></trkpt><trkpt lat="44.2426381" lon="10.5102459"><ele>1276.0</ele><time>2026-04-04T09:08:19.107Z</time></trkpt><trkpt lat="44.242465" lon="10.5102219"><ele>1280.0</ele><time>2026-04-04T09:08:20.103Z</time></trkpt><trkpt lat="44.2422925" lon="10.5101959"><ele>1284.0</ele><time>2026-04-04T09:08:21.101Z</time></trkpt><trkpt lat="44.2421171" lon="10.5101917"><ele>1288.0</ele><time>2026-04-04T09:08:22.085Z</time></trkpt><trkpt lat="44.2419318" lon="10.510203"><ele>1288.0</ele><time>2026-04-04T09:08:23.069Z</time></trkpt><trkpt lat="44.241742" lon="10.5102357"><ele>1288.0</ele><time>2026-04-04T09:08:24.072Z</time></trkpt><trkpt lat="44.2415536" lon="10.5102787"><ele>1288.0</ele><time>2026-04-04T09:08:25.094Z</time></trkpt><trkpt lat="44.2413665" lon="10.5103164"><ele>1287.3333333333333</ele><time>2026-04-04T09:08:26.1Z</time></trkpt><trkpt lat="44.2411775" lon="10.510343"><ele>1286.6666666666667</ele><time>2026-04-04T09:08:27.102Z</time></trkpt><trkpt lat="44.2409873" lon="10.5103735"><ele>1286.0</ele><time>2026-04-04T09:08:28.101Z</time></trkpt><trkpt lat="44.2407931" lon="10.5103947"><ele>1282.0</ele><time>2026-04-04T09:08:29.107Z</time></trkpt><trkpt lat="44.240604" lon="10.5104146"><ele>1278.0</ele><time>2026-04-04T09:08:30.107Z</time></trkpt><trkpt lat="44.2404165" lon="10.5104388"><ele>1274.0</ele><time>2026-04-04T09:08:31.106Z</time></trkpt><trkpt lat="44.2402407" lon="10.510464"><ele>1274.0</ele><time>2026-04-04T09:08:32.109Z</time></trkpt><trkpt lat="44.2400797" lon="10.5104916"><ele>1274.0</ele><time>2026-04-04T09:08:33.105Z</time></trkpt><trkpt lat="44.2399205" lon="10.5105048"><ele>1274.0</ele><time>2026-04-04T09:08:34.106Z</time></trkpt><trkpt lat="44.2397608" lon="10.5105187"><ele>1277.3333333333335</ele><time>2026-04-04T09:08:35.111Z</time></trkpt><trkpt lat="44.2396096" lon="10.5105543"><ele>1280.6666666666667</ele><time>2026-04-04T09:08:36.107Z</time></trkpt><trkpt lat="44.2394681" lon="10.5106574"><ele>1284.0</ele><time>2026-04-04T09:08:37.108Z</time></trkpt><trkpt lat="44.239342" lon="10.5107983"><ele>1284.0</ele><time>2026-04-04T09:08:38.105Z</time></trkpt><trkpt lat="44.2392265" lon="10.5109347"><ele>1284.0</ele><time>2026-04-04T09:08:39.1Z</time></trkpt><trkpt lat="44.2391144" lon="10.5110431"><ele>1284.0</ele><time>2026-04-04T09:08:40.1Z</time></trkpt><trkpt lat="44.238983" lon="10.5111081"><ele>1284.0</ele><time>2026-04-04T09:08:41.389Z</time></trkpt><trkpt lat="44.2386939" lon="10.5110119"><ele>1283.3333333333333</ele><time>2026-04-04T09:08:43.066Z</time></trkpt><trkpt lat="44.2385491" lon="10.5109332"><ele>1282.6666666666665</ele><time>2026-04-04T09:08:44.069Z</time></trkpt><trkpt lat="44.238405" lon="10.5108605"><ele>1282.0</ele><time>2026-04-04T09:08:45.082Z</time></trkpt><trkpt lat="44.2382473" lon="10.5107845"><ele>1279.3333333333333</ele><time>2026-04-04T09:08:46.073Z</time></trkpt><trkpt lat="44.2380946" lon="10.5107202"><ele>1276.6666666666667</ele><time>2026-04-04T09:08:47.073Z</time></trkpt><trkpt lat="44.2379454" lon="10.5106654"><ele>1274.0</ele><time>2026-04-04T09:08:48.08Z</time></trkpt><trkpt lat="44.2378145" lon="10.5106045"><ele>1274.0</ele><time>2026-04-04T09:08:49.071Z</time></trkpt><trkpt lat="44.237713" lon="10.5105062"><ele>1274.0</ele><time>2026-04-04T09:08:50.091Z</time></trkpt><trkpt lat="44.237675" lon="10.5103358"><ele>1274.0</ele><time>2026-04-04T09:08:51.097Z</time></trkpt><trkpt lat="44.2376763" lon="10.5101507"><ele>1274.0</ele><time>2026-04-04T09:08:52.094Z</time></trkpt><trkpt lat="44.2376606" lon="10.5099531"><ele>1278.6666666666667</ele><time>2026-04-04T09:08:53.082Z</time></trkpt><trkpt lat="44.2376029" lon="10.5097549"><ele>1283.3333333333333</ele><time>2026-04-04T09:08:54.089Z</time></trkpt><trkpt lat="44.2374901" lon="10.5095791"><ele>1288.0</ele><time>2026-04-04T09:08:55.083Z</time></trkpt><trkpt lat="44.237347" lon="10.5094551"><ele>1288.75</ele><time>2026-04-04T09:08:56.087Z</time></trkpt><trkpt lat="44.2372199" lon="10.5093478"><ele>1289.5</ele><time>2026-04-04T09:08:57.089Z</time></trkpt><trkpt lat="44.2370879" lon="10.5092549"><ele>1290.25</ele><time>2026-04-04T09:08:58.093Z</time></trkpt><trkpt lat="44.2369417" lon="10.5092188"><ele>1291.0</ele><time>2026-04-04T09:08:59.466Z</time></trkpt><trkpt lat="44.2367991" lon="10.5092478"><ele>1291.0</ele><time>2026-04-04T09:09:00.549Z</time></trkpt><trkpt lat="44.2366506" lon="10.5093057"><ele>1291.0</ele><time>2026-04-04T09:09:01.567Z</time></trkpt><trkpt lat="44.2365075" lon="10.509347"><ele>1291.0</ele><time>2026-04-04T09:09:02.581Z</time></trkpt><trkpt lat="44.2363629" lon="10.5093756"><ele>1291.0</ele><time>2026-04-04T09:09:03.59Z</time></trkpt><trkpt lat="44.2360918" lon="10.509476"><ele>1291.5</ele><time>2026-04-04T09:09:05.501Z</time></trkpt><trkpt lat="44.235945" lon="10.5095527"><ele>1292.0</ele><time>2026-04-04T09:09:06.521Z</time></trkpt><trkpt lat="44.2357879" lon="10.5096209"><ele>1292.5</ele><time>2026-04-04T09:09:07.53Z</time></trkpt><trkpt lat="44.2356746" lon="10.509631"><ele>1293.0</ele><time>2026-04-04T09:09:08.53Z</time></trkpt><trkpt lat="44.2355905" lon="10.5095762"><ele>1290.0</ele><time>2026-04-04T09:09:09.53Z</time></trkpt><trkpt lat="44.2355469" lon="10.5094538"><ele>1287.0</ele><time>2026-04-04T09:09:10.536Z</time></trkpt><trkpt lat="44.2355397" lon="10.5092697"><ele>1284.0</ele><time>2026-04-04T09:09:11.551Z</time></trkpt><trkpt lat="44.235509" lon="10.509108"><ele>1281.0</ele><time>2026-04-04T09:09:12.533Z</time></trkpt><trkpt lat="44.2354619" lon="10.5089276"><ele>1281.0</ele><time>2026-04-04T09:09:13.531Z</time></trkpt><trkpt lat="44.2353934" lon="10.508767"><ele>1281.0</ele><time>2026-04-04T09:09:14.533Z</time></trkpt><trkpt lat="44.2353137" lon="10.508625"><ele>1281.0</ele><time>2026-04-04T09:09:15.541Z</time></trkpt><trkpt lat="44.2352135" lon="10.5085122"><ele>1281.0</ele><time>2026-04-04T09:09:16.57Z</time></trkpt><trkpt lat="44.2350844" lon="10.5084494"><ele>1281.3333333333333</ele><time>2026-04-04T09:09:17.574Z</time></trkpt><trkpt lat="44.2349428" lon="10.5084064"><ele>1281.6666666666665</ele><time>2026-04-04T09:09:18.595Z</time></trkpt><trkpt lat="44.2347846" lon="10.5083723"><ele>1282.0</ele><time>2026-04-04T09:09:19.614Z</time></trkpt><trkpt lat="44.2346267" lon="10.5083123"><ele>1282.0</ele><time>2026-04-04T09:09:20.625Z</time></trkpt><trkpt lat="44.2343358" lon="10.5080417"><ele>1282.0</ele><time>2026-04-04T09:09:22.545Z</time></trkpt><trkpt lat="44.2342153" lon="10.5078369"><ele>1283.0</ele><time>2026-04-04T09:09:23.557Z</time></trkpt><trkpt lat="44.2340918" lon="10.5076214"><ele>1284.0</ele><time>2026-04-04T09:09:24.558Z</time></trkpt><trkpt lat="44.2339955" lon="10.5074307"><ele>1285.0</ele><time>2026-04-04T09:09:25.562Z</time></trkpt><trkpt lat="44.2338993" lon="10.5072324"><ele>1289.0</ele><time>2026-04-04T09:09:26.569Z</time></trkpt><trkpt lat="44.2337061" lon="10.5068609"><ele>1293.0</ele><time>2026-04-04T09:09:28.094Z</time></trkpt><trkpt lat="44.233607" lon="10.5066707"><ele>1293.0</ele><time>2026-04-04T09:09:29.102Z</time></trkpt><trkpt lat="44.2335131" lon="10.5064846"><ele>1293.0</ele><time>2026-04-04T09:09:30.107Z</time></trkpt><trkpt lat="44.2334196" lon="10.5063123"><ele>1293.0</ele><time>2026-04-04T09:09:31.112Z</time></trkpt><trkpt lat="44.2333295" lon="10.5061696"><ele>1295.25</ele><time>2026-04-04T09:09:32.109Z</time></trkpt><trkpt lat="44.2332412" lon="10.5060754"><ele>1297.5</ele><time>2026-04-04T09:09:33.102Z</time></trkpt><trkpt lat="44.2331426" lon="10.5060246"><ele>1299.75</ele><time>2026-04-04T09:09:34.095Z</time></trkpt><trkpt lat="44.233024" lon="10.506024"><ele>1302.0</ele><time>2026-04-04T09:09:35.464Z</time></trkpt><trkpt lat="44.232906" lon="10.5060875"><ele>1302.5</ele><time>2026-04-04T09:09:36.543Z</time></trkpt><trkpt lat="44.2327868" lon="10.5061492"><ele>1303.0</ele><time>2026-04-04T09:09:37.573Z</time></trkpt><trkpt lat="44.2326636" lon="10.5062085"><ele>1303.5</ele><time>2026-04-04T09:09:38.602Z</time></trkpt><trkpt lat="44.2325377" lon="10.5062697"><ele>1304.0</ele><time>2026-04-04T09:09:39.626Z</time></trkpt><trkpt lat="44.2322721" lon="10.5064576"><ele>1304.0</ele><time>2026-04-04T09:09:41.508Z</time></trkpt><trkpt lat="44.2319307" lon="10.5066031"><ele>1304.0</ele><time>2026-04-04T09:09:43.533Z</time></trkpt><trkpt lat="44.2317747" lon="10.5066652"><ele>1305.5</ele><time>2026-04-04T09:09:44.538Z</time></trkpt><trkpt lat="44.2314688" lon="10.5068331"><ele>1307.0</ele><time>2026-04-04T09:09:46.548Z</time></trkpt><trkpt lat="44.2313105" lon="10.5069005"><ele>1307.0</ele><time>2026-04-04T09:09:47.597Z</time></trkpt><trkpt lat="44.2311734" lon="10.5069575"><ele>1307.0</ele><time>2026-04-04T09:09:48.625Z</time></trkpt><trkpt lat="44.2310403" lon="10.507021"><ele>1307.0</ele><time>2026-04-04T09:09:49.646Z</time></trkpt><trkpt lat="44.2309093" lon="10.5070988"><ele>1307.0</ele><time>2026-04-04T09:09:50.674Z</time></trkpt><trkpt lat="44.2308159" lon="10.5072218"><ele>1306.5</ele><time>2026-04-04T09:09:52.54Z</time></trkpt><trkpt lat="44.2308266" lon="10.5076775"><ele>1306.0</ele><time>2026-04-04T09:09:54.554Z</time></trkpt><trkpt lat="44.2308795" lon="10.5078457"><ele>1305.3333333333333</ele><time>2026-04-04T09:09:55.596Z</time></trkpt><trkpt lat="44.2309857" lon="10.5082234"><ele>1304.6666666666667</ele><time>2026-04-04T09:09:57.553Z</time></trkpt><trkpt lat="44.231035" lon="10.5084123"><ele>1304.0</ele><time>2026-04-04T09:09:58.596Z</time></trkpt><trkpt lat="44.2310089" lon="10.5086693"><ele>1301.75</ele><time>2026-04-04T09:10:00.387Z</time></trkpt><trkpt lat="44.2309426" lon="10.5087438"><ele>1299.5</ele><time>2026-04-04T09:10:01.55Z</time></trkpt><trkpt lat="44.2308438" lon="10.5087959"><ele>1297.25</ele><time>2026-04-04T09:10:02.59Z</time></trkpt><trkpt lat="44.2307189" lon="10.5088269"><ele>1295.0</ele><time>2026-04-04T09:10:03.621Z</time></trkpt><trkpt lat="44.2305748" lon="10.5088396"><ele>1295.0</ele><time>2026-04-04T09:10:04.642Z</time></trkpt><trkpt lat="44.2304233" lon="10.5088211"><ele>1295.0</ele><time>2026-04-04T09:10:05.655Z</time></trkpt><trkpt lat="44.2302786" lon="10.5087436"><ele>1295.0</ele><time>2026-04-04T09:10:06.669Z</time></trkpt><trkpt lat="44.2301196" lon="10.508606"><ele>1299.0</ele><time>2026-04-04T09:10:07.683Z</time></trkpt><trkpt lat="44.229957" lon="10.5084797"><ele>1303.0</ele><time>2026-04-04T09:10:09.521Z</time></trkpt><trkpt lat="44.2297926" lon="10.5083324"><ele>1307.0</ele><time>2026-04-04T09:10:10.532Z</time></trkpt><trkpt lat="44.229521" lon="10.5079946"><ele>1307.0</ele><time>2026-04-04T09:10:11.571Z</time></trkpt><trkpt lat="44.2294467" lon="10.5078615"><ele>1307.0</ele><time>2026-04-04T09:10:12.59Z</time></trkpt><trkpt lat="44.2293696" lon="10.5077798"><ele>1307.0</ele><time>2026-04-04T09:10:13.604Z</time></trkpt><trkpt lat="44.2292747" lon="10.5077583"><ele>1307.0</ele><time>2026-04-04T09:10:14.613Z</time></trkpt><trkpt lat="44.2292158" lon="10.5078236"><ele>1307.0</ele><time>2026-04-04T09:10:15.625Z</time></trkpt><trkpt lat="44.2291801" lon="10.5079427"><ele>1307.0</ele><time>2026-04-04T09:10:16.642Z</time></trkpt><trkpt lat="44.2291424" lon="10.5081101"><ele>1307.0</ele><time>2026-04-04T09:10:17.657Z</time></trkpt><trkpt lat="44.2291064" lon="10.5082899"><ele>1307.0</ele><time>2026-04-04T09:10:18.676Z</time></trkpt><trkpt lat="44.2290713" lon="10.5084672"><ele>1307.0</ele><time>2026-04-04T09:10:20.532Z</time></trkpt><trkpt lat="44.2290299" lon="10.5086411"><ele>1311.0</ele><time>2026-04-04T09:10:21.539Z</time></trkpt><trkpt lat="44.2288755" lon="10.5089329"><ele>1315.0</ele><time>2026-04-04T09:10:22.575Z</time></trkpt><trkpt lat="44.2287945" lon="10.5090608"><ele>1319.0</ele><time>2026-04-04T09:10:23.599Z</time></trkpt><trkpt lat="44.2287061" lon="10.5091918"><ele>1319.0</ele><time>2026-04-04T09:10:24.627Z</time></trkpt><trkpt lat="44.2286138" lon="10.5093328"><ele>1319.0</ele><time>2026-04-04T09:10:25.641Z</time></trkpt><trkpt lat="44.2285191" lon="10.5094929"><ele>1319.0</ele><time>2026-04-04T09:10:26.667Z</time></trkpt><trkpt lat="44.2284316" lon="10.5096876"><ele>1315.6666666666667</ele><time>2026-04-04T09:10:27.686Z</time></trkpt><trkpt lat="44.2283136" lon="10.5100726"><ele>1312.3333333333333</ele><time>2026-04-04T09:10:29.41Z</time></trkpt><trkpt lat="44.2282804" lon="10.510235"><ele>1309.0</ele><time>2026-04-04T09:10:30.395Z</time></trkpt><trkpt lat="44.2282864" lon="10.5104131"><ele>1308.75</ele><time>2026-04-04T09:10:31.397Z</time></trkpt><trkpt lat="44.2283356" lon="10.5105588"><ele>1308.5</ele><time>2026-04-04T09:10:32.553Z</time></trkpt><trkpt lat="44.2284156" lon="10.5107068"><ele>1308.25</ele><time>2026-04-04T09:10:33.581Z</time></trkpt><trkpt lat="44.2284595" lon="10.5108657"><ele>1308.0</ele><time>2026-04-04T09:10:34.61Z</time></trkpt><trkpt lat="44.2284598" lon="10.511047"><ele>1308.0</ele><time>2026-04-04T09:10:35.637Z</time></trkpt><trkpt lat="44.2284219" lon="10.511219"><ele>1308.0</ele><time>2026-04-04T09:10:36.663Z</time></trkpt><trkpt lat="44.2283824" lon="10.5114124"><ele>1308.0</ele><time>2026-04-04T09:10:37.685Z</time></trkpt><trkpt lat="44.2283584" lon="10.5116078"><ele>1308.0</ele><time>2026-04-04T09:10:39.538Z</time></trkpt><trkpt lat="44.2284176" lon="10.511977"><ele>1305.0</ele><time>2026-04-04T09:10:40.564Z</time></trkpt><trkpt lat="44.2284333" lon="10.5121497"><ele>1302.0</ele><time>2026-04-04T09:10:41.576Z</time></trkpt><trkpt lat="44.2283884" lon="10.5123207"><ele>1299.0</ele><time>2026-04-04T09:10:42.607Z</time></trkpt><trkpt lat="44.2282883" lon="10.51245"><ele>1296.0</ele><time>2026-04-04T09:10:43.627Z</time></trkpt><trkpt lat="44.228181" lon="10.5125722"><ele>1295.6666666666667</ele><time>2026-04-04T09:10:44.639Z</time></trkpt><trkpt lat="44.2279879" lon="10.5128375"><ele>1295.3333333333335</ele><time>2026-04-04T09:10:46.386Z</time></trkpt><trkpt lat="44.2279091" lon="10.5129882"><ele>1295.0</ele><time>2026-04-04T09:10:47.548Z</time></trkpt><trkpt lat="44.2278378" lon="10.513144"><ele>1295.0</ele><time>2026-04-04T09:10:48.598Z</time></trkpt><trkpt lat="44.2277719" lon="10.5133104"><ele>1295.0</ele><time>2026-04-04T09:10:49.626Z</time></trkpt><trkpt lat="44.2277136" lon="10.5134975"><ele>1295.0</ele><time>2026-04-04T09:10:50.65Z</time></trkpt><trkpt lat="44.2276539" lon="10.5137017"><ele>1295.0</ele><time>2026-04-04T09:10:51.668Z</time></trkpt><trkpt lat="44.2275871" lon="10.5139191"><ele>1288.0</ele><time>2026-04-04T09:10:53.552Z</time></trkpt><trkpt lat="44.2274388" lon="10.5143706"><ele>1281.0</ele><time>2026-04-04T09:10:54.596Z</time></trkpt><trkpt lat="44.2273693" lon="10.5145861"><ele>1278.6666666666667</ele><time>2026-04-04T09:10:55.623Z</time></trkpt><trkpt lat="44.2273078" lon="10.5148009"><ele>1276.3333333333335</ele><time>2026-04-04T09:10:56.653Z</time></trkpt><trkpt lat="44.2272542" lon="10.5149779"><ele>1274.0</ele><time>2026-04-04T09:10:57.684Z</time></trkpt><trkpt lat="44.2271327" lon="10.5151828"><ele>1274.0</ele><time>2026-04-04T09:10:59.584Z</time></trkpt><trkpt lat="44.2270252" lon="10.5152223"><ele>1274.0</ele><time>2026-04-04T09:11:00.624Z</time></trkpt><trkpt lat="44.226898" lon="10.5152199"><ele>1274.0</ele><time>2026-04-04T09:11:01.647Z</time></trkpt><trkpt lat="44.2267645" lon="10.515254"><ele>1274.0</ele><time>2026-04-04T09:11:02.691Z</time></trkpt><trkpt lat="44.2265391" lon="10.5154629"><ele>1267.6666666666667</ele><time>2026-04-04T09:11:04.584Z</time></trkpt><trkpt lat="44.2264095" lon="10.515541"><ele>1261.3333333333333</ele><time>2026-04-04T09:11:05.609Z</time></trkpt><trkpt lat="44.2262436" lon="10.5155679"><ele>1255.0</ele><time>2026-04-04T09:11:06.624Z</time></trkpt><trkpt lat="44.2260864" lon="10.5155778"><ele>1255.0</ele><time>2026-04-04T09:11:07.642Z</time></trkpt><trkpt lat="44.2259302" lon="10.5156129"><ele>1255.0</ele><time>2026-04-04T09:11:08.657Z</time></trkpt><trkpt lat="44.2257694" lon="10.5156472"><ele>1255.0</ele><time>2026-04-04T09:11:09.67Z</time></trkpt><trkpt lat="44.2256099" lon="10.5156886"><ele>1254.3333333333333</ele><time>2026-04-04T09:11:10.692Z</time></trkpt><trkpt lat="44.2253188" lon="10.5157574"><ele>1253.6666666666667</ele><time>2026-04-04T09:11:12.553Z</time></trkpt><trkpt lat="44.2251911" lon="10.5157815"><ele>1253.0</ele><time>2026-04-04T09:11:13.582Z</time></trkpt><trkpt lat="44.2249874" lon="10.5157738"><ele>1253.0</ele><time>2026-04-04T09:11:15.217Z</time></trkpt><trkpt lat="44.2249125" lon="10.5157854"><ele>1253.0</ele><time>2026-04-04T09:11:16.386Z</time></trkpt><trkpt lat="44.2248435" lon="10.5159412"><ele>1253.0</ele><time>2026-04-04T09:11:18.546Z</time></trkpt><trkpt lat="44.2249139" lon="10.5162105"><ele>1253.0</ele><time>2026-04-04T09:11:20.545Z</time></trkpt><trkpt lat="44.2250817" lon="10.5164686"><ele>1249.75</ele><time>2026-04-04T09:11:22.389Z</time></trkpt><trkpt lat="44.2251675" lon="10.5165936"><ele>1246.5</ele><time>2026-04-04T09:11:23.384Z</time></trkpt><trkpt lat="44.2252635" lon="10.5166891"><ele>1243.25</ele><time>2026-04-04T09:11:24.55Z</time></trkpt><trkpt lat="44.2253709" lon="10.5167428"><ele>1240.0</ele><time>2026-04-04T09:11:25.567Z</time></trkpt><trkpt lat="44.2254844" lon="10.5167486"><ele>1240.0</ele><time>2026-04-04T09:11:26.589Z</time></trkpt><trkpt lat="44.2255985" lon="10.5167175"><ele>1240.0</ele><time>2026-04-04T09:11:27.598Z</time></trkpt><trkpt lat="44.2257122" lon="10.5166741"><ele>1240.0</ele><time>2026-04-04T09:11:28.612Z</time></trkpt><trkpt lat="44.2258246" lon="10.5166308"><ele>1240.0</ele><time>2026-04-04T09:11:29.632Z</time></trkpt><trkpt lat="44.2259393" lon="10.5165944"><ele>1239.5</ele><time>2026-04-04T09:11:30.658Z</time></trkpt><trkpt lat="44.2260526" lon="10.5165661"><ele>1239.0</ele><time>2026-04-04T09:11:31.68Z</time></trkpt><trkpt lat="44.2262539" lon="10.516536"><ele>1238.5</ele><time>2026-04-04T09:11:33.569Z</time></trkpt><trkpt lat="44.2263313" lon="10.5165554"><ele>1238.0</ele><time>2026-04-04T09:11:34.579Z</time></trkpt><trkpt lat="44.2263902" lon="10.5166204"><ele>1238.0</ele><time>2026-04-04T09:11:35.592Z</time></trkpt><trkpt lat="44.226406" lon="10.5167117"><ele>1238.0</ele><time>2026-04-04T09:11:36.613Z</time></trkpt><trkpt lat="44.2263671" lon="10.5168174"><ele>1238.0</ele><time>2026-04-04T09:11:37.624Z</time></trkpt><trkpt lat="44.2262854" lon="10.5169201"><ele>1238.0</ele><time>2026-04-04T09:11:38.643Z</time></trkpt><trkpt lat="44.2261821" lon="10.5170241"><ele>1238.0</ele><time>2026-04-04T09:11:39.652Z</time></trkpt><trkpt lat="44.2260766" lon="10.517127"><ele>1232.3333333333335</ele><time>2026-04-04T09:11:40.666Z</time></trkpt><trkpt lat="44.2259616" lon="10.5172258"><ele>1226.6666666666667</ele><time>2026-04-04T09:11:41.678Z</time></trkpt><trkpt lat="44.2258383" lon="10.5173172"><ele>1221.0</ele><time>2026-04-04T09:11:42.694Z</time></trkpt><trkpt lat="44.2255617" lon="10.5174478"><ele>1221.0</ele><time>2026-04-04T09:11:44.567Z</time></trkpt><trkpt lat="44.2254232" lon="10.5175066"><ele>1221.0</ele><time>2026-04-04T09:11:45.578Z</time></trkpt><trkpt lat="44.2252852" lon="10.5175621"><ele>1221.0</ele><time>2026-04-04T09:11:46.591Z</time></trkpt><trkpt lat="44.2251448" lon="10.5176111"><ele>1221.0</ele><time>2026-04-04T09:11:47.606Z</time></trkpt><trkpt lat="44.2250108" lon="10.517636"><ele>1221.0</ele><time>2026-04-04T09:11:48.616Z</time></trkpt><trkpt lat="44.2248815" lon="10.5176119"><ele>1221.0</ele><time>2026-04-04T09:11:49.632Z</time></trkpt><trkpt lat="44.2247709" lon="10.5175699"><ele>1221.0</ele><time>2026-04-04T09:11:50.652Z</time></trkpt><trkpt lat="44.2246755" lon="10.5175466"><ele>1221.0</ele><time>2026-04-04T09:11:51.661Z</time></trkpt><trkpt lat="44.2245991" lon="10.5175575"><ele>1221.0</ele><time>2026-04-04T09:11:52.673Z</time></trkpt><trkpt lat="44.2245109" lon="10.5176637"><ele>1219.6</ele><time>2026-04-04T09:11:54.539Z</time></trkpt><trkpt lat="44.2244651" lon="10.517755"><ele>1218.1999999999998</ele><time>2026-04-04T09:11:56.577Z</time></trkpt><trkpt lat="44.224361" lon="10.5176625"><ele>1216.8000000000002</ele><time>2026-04-04T09:11:59.621Z</time></trkpt><trkpt lat="44.2243039" lon="10.5175563"><ele>1215.4</ele><time>2026-04-04T09:12:00.635Z</time></trkpt><trkpt lat="44.2242611" lon="10.5174332"><ele>1214.0</ele><time>2026-04-04T09:12:01.648Z</time></trkpt><trkpt lat="44.2242222" lon="10.5172889"><ele>1214.0</ele><time>2026-04-04T09:12:02.646Z</time></trkpt><trkpt lat="44.224196" lon="10.5171446"><ele>1214.0</ele><time>2026-04-04T09:12:03.664Z</time></trkpt><trkpt lat="44.2241691" lon="10.5170029"><ele>1214.0</ele><time>2026-04-04T09:12:04.666Z</time></trkpt><trkpt lat="44.2241431" lon="10.516862"><ele>1214.0</ele><time>2026-04-04T09:12:05.668Z</time></trkpt><trkpt lat="44.2241114" lon="10.5167178"><ele>1214.0</ele><time>2026-04-04T09:12:06.669Z</time></trkpt><trkpt lat="44.2240673" lon="10.5165759"><ele>1215.8</ele><time>2026-04-04T09:12:07.672Z</time></trkpt><trkpt lat="44.2240175" lon="10.5164348"><ele>1217.6000000000001</ele><time>2026-04-04T09:12:08.658Z</time></trkpt><trkpt lat="44.2239658" lon="10.5162972"><ele>1219.4</ele><time>2026-04-04T09:12:09.644Z</time></trkpt><trkpt lat="44.2239083" lon="10.5161802"><ele>1221.2</ele><time>2026-04-04T09:12:10.643Z</time></trkpt><trkpt lat="44.2238282" lon="10.5161041"><ele>1223.0</ele><time>2026-04-04T09:12:11.638Z</time></trkpt><trkpt lat="44.2237253" lon="10.516077"><ele>1223.0</ele><time>2026-04-04T09:12:12.629Z</time></trkpt><trkpt lat="44.2236088" lon="10.5160941"><ele>1223.0</ele><time>2026-04-04T09:12:13.63Z</time></trkpt><trkpt lat="44.2234885" lon="10.516157"><ele>1223.0</ele><time>2026-04-04T09:12:14.638Z</time></trkpt><trkpt lat="44.22337" lon="10.5162468"><ele>1223.0</ele><time>2026-04-04T09:12:15.643Z</time></trkpt><trkpt lat="44.223249" lon="10.5163401"><ele>1224.6666666666667</ele><time>2026-04-04T09:12:16.657Z</time></trkpt><trkpt lat="44.223121" lon="10.5164251"><ele>1226.3333333333333</ele><time>2026-04-04T09:12:17.691Z</time></trkpt><trkpt lat="44.2228508" lon="10.5165404"><ele>1228.0</ele><time>2026-04-04T09:12:19.546Z</time></trkpt><trkpt lat="44.2227238" lon="10.5165886"><ele>1228.0</ele><time>2026-04-04T09:12:20.566Z</time></trkpt><trkpt lat="44.2224895" lon="10.5167474"><ele>1228.0</ele><time>2026-04-04T09:12:22.213Z</time></trkpt><trkpt lat="44.2223761" lon="10.5168268"><ele>1228.0</ele><time>2026-04-04T09:12:23.374Z</time></trkpt><trkpt lat="44.2222595" lon="10.5168879"><ele>1227.5</ele><time>2026-04-04T09:12:24.538Z</time></trkpt><trkpt lat="44.2221422" lon="10.5169148"><ele>1227.0</ele><time>2026-04-04T09:12:25.562Z</time></trkpt><trkpt lat="44.2220303" lon="10.5168846"><ele>1226.5</ele><time>2026-04-04T09:12:26.56Z</time></trkpt><trkpt lat="44.2219225" lon="10.516808"><ele>1226.0</ele><time>2026-04-04T09:12:27.555Z</time></trkpt><trkpt lat="44.2218116" lon="10.5167194"><ele>1226.0</ele><time>2026-04-04T09:12:28.555Z</time></trkpt><trkpt lat="44.2216987" lon="10.5166161"><ele>1226.0</ele><time>2026-04-04T09:12:29.551Z</time></trkpt><trkpt lat="44.2214746" lon="10.5164156"><ele>1226.0</ele><time>2026-04-04T09:12:31.384Z</time></trkpt><trkpt lat="44.2213512" lon="10.51633"><ele>1227.5</ele><time>2026-04-04T09:12:32.549Z</time></trkpt><trkpt lat="44.2212216" lon="10.516285"><ele>1229.0</ele><time>2026-04-04T09:12:33.568Z</time></trkpt><trkpt lat="44.2210979" lon="10.5162558"><ele>1230.5</ele><time>2026-04-04T09:12:34.57Z</time></trkpt><trkpt lat="44.2209739" lon="10.5161992"><ele>1232.0</ele><time>2026-04-04T09:12:35.575Z</time></trkpt><trkpt lat="44.2208581" lon="10.5161137"><ele>1232.0</ele><time>2026-04-04T09:12:36.574Z</time></trkpt><trkpt lat="44.2207553" lon="10.5160028"><ele>1232.0</ele><time>2026-04-04T09:12:37.592Z</time></trkpt><trkpt lat="44.2206552" lon="10.5158899"><ele>1232.0</ele><time>2026-04-04T09:12:38.602Z</time></trkpt><trkpt lat="44.2205626" lon="10.5157773"><ele>1232.0</ele><time>2026-04-04T09:12:39.622Z</time></trkpt><trkpt lat="44.2204784" lon="10.515681"><ele>1232.2</ele><time>2026-04-04T09:12:40.632Z</time></trkpt><trkpt lat="44.2203919" lon="10.5155882"><ele>1232.4</ele><time>2026-04-04T09:12:41.648Z</time></trkpt><trkpt lat="44.2203183" lon="10.5155017"><ele>1232.6</ele><time>2026-04-04T09:12:42.651Z</time></trkpt><trkpt lat="44.2202648" lon="10.5153979"><ele>1232.8</ele><time>2026-04-04T09:12:43.666Z</time></trkpt><trkpt lat="44.2202227" lon="10.5152792"><ele>1233.0</ele><time>2026-04-04T09:12:44.669Z</time></trkpt><trkpt lat="44.2201896" lon="10.5151505"><ele>1233.0</ele><time>2026-04-04T09:12:45.682Z</time></trkpt><trkpt lat="44.2201516" lon="10.5150234"><ele>1233.0</ele><time>2026-04-04T09:12:46.679Z</time></trkpt><trkpt lat="44.2201112" lon="10.5148983"><ele>1233.0</ele><time>2026-04-04T09:12:47.686Z</time></trkpt><trkpt lat="44.2200626" lon="10.5147716"><ele>1233.0</ele><time>2026-04-04T09:12:48.683Z</time></trkpt><trkpt lat="44.2200023" lon="10.514656"><ele>1233.0</ele><time>2026-04-04T09:12:49.683Z</time></trkpt><trkpt lat="44.2199347" lon="10.5145577"><ele>1233.0</ele><time>2026-04-04T09:12:51.532Z</time></trkpt><trkpt lat="44.2198527" lon="10.5145081"><ele>1233.0</ele><time>2026-04-04T09:12:52.556Z</time></trkpt><trkpt lat="44.2196314" lon="10.5144996"><ele>1233.0</ele><time>2026-04-04T09:12:53.578Z</time></trkpt><trkpt lat="44.2195175" lon="10.5145306"><ele>1233.0</ele><time>2026-04-04T09:12:54.587Z</time></trkpt><trkpt lat="44.2194109" lon="10.5145789"><ele>1233.0</ele><time>2026-04-04T09:12:55.598Z</time></trkpt><trkpt lat="44.2193149" lon="10.5146353"><ele>1233.0</ele><time>2026-04-04T09:12:56.597Z</time></trkpt><trkpt lat="44.2192202" lon="10.5146922"><ele>1233.0</ele><time>2026-04-04T09:12:57.599Z</time></trkpt><trkpt lat="44.2190387" lon="10.51474"><ele>1233.0</ele><time>2026-04-04T09:12:59.543Z</time></trkpt><trkpt lat="44.2189465" lon="10.5147092"><ele>1234.25</ele><time>2026-04-04T09:13:00.56Z</time></trkpt><trkpt lat="44.2187773" lon="10.5146489"><ele>1235.5</ele><time>2026-04-04T09:13:02.388Z</time></trkpt><trkpt lat="44.2186927" lon="10.5146741"><ele>1236.75</ele><time>2026-04-04T09:13:03.385Z</time></trkpt><trkpt lat="44.2186028" lon="10.5147523"><ele>1238.0</ele><time>2026-04-04T09:13:04.379Z</time></trkpt><trkpt lat="44.2185226" lon="10.514869"><ele>1238.0</ele><time>2026-04-04T09:13:05.38Z</time></trkpt><trkpt lat="44.2183948" lon="10.5151564"><ele>1238.0</ele><time>2026-04-04T09:13:07.378Z</time></trkpt><trkpt lat="44.218332" lon="10.5152938"><ele>1238.0</ele><time>2026-04-04T09:13:08.38Z</time></trkpt><trkpt lat="44.2182628" lon="10.5154148"><ele>1234.8</ele><time>2026-04-04T09:13:09.383Z</time></trkpt><trkpt lat="44.2181852" lon="10.5155091"><ele>1231.6</ele><time>2026-04-04T09:13:10.382Z</time></trkpt><trkpt lat="44.2180975" lon="10.5155793"><ele>1228.4</ele><time>2026-04-04T09:13:11.547Z</time></trkpt><trkpt lat="44.2179972" lon="10.5156123"><ele>1225.2</ele><time>2026-04-04T09:13:12.573Z</time></trkpt><trkpt lat="44.2178818" lon="10.5155973"><ele>1222.0</ele><time>2026-04-04T09:13:13.584Z</time></trkpt><trkpt lat="44.217767" lon="10.5155283"><ele>1221.5</ele><time>2026-04-04T09:13:14.592Z</time></trkpt><trkpt lat="44.2176566" lon="10.5154315"><ele>1221.0</ele><time>2026-04-04T09:13:15.597Z</time></trkpt><trkpt lat="44.2175618" lon="10.5153009"><ele>1220.5</ele><time>2026-04-04T09:13:16.611Z</time></trkpt><trkpt lat="44.217494" lon="10.5151616"><ele>1220.0</ele><time>2026-04-04T09:13:17.625Z</time></trkpt><trkpt lat="44.2174447" lon="10.5150355"><ele>1223.2</ele><time>2026-04-04T09:13:18.638Z</time></trkpt><trkpt lat="44.2173908" lon="10.5149359"><ele>1226.4</ele><time>2026-04-04T09:13:19.655Z</time></trkpt><trkpt lat="44.2173123" lon="10.5148924"><ele>1229.6</ele><time>2026-04-04T09:13:20.679Z</time></trkpt><trkpt lat="44.2172344" lon="10.5149112"><ele>1232.8</ele><time>2026-04-04T09:13:22.546Z</time></trkpt><trkpt lat="44.2171006" lon="10.5151079"><ele>1236.0</ele><time>2026-04-04T09:13:23.577Z</time></trkpt><trkpt lat="44.2169341" lon="10.5153855"><ele>1233.25</ele><time>2026-04-04T09:13:25.384Z</time></trkpt><trkpt lat="44.2168209" lon="10.5155187"><ele>1230.5</ele><time>2026-04-04T09:13:26.537Z</time></trkpt><trkpt lat="44.2167017" lon="10.5156232"><ele>1227.75</ele><time>2026-04-04T09:13:27.563Z</time></trkpt><trkpt lat="44.2165733" lon="10.5156788"><ele>1225.0</ele><time>2026-04-04T09:13:28.571Z</time></trkpt><trkpt lat="44.2164477" lon="10.5156664"><ele>1225.0</ele><time>2026-04-04T09:13:29.577Z</time></trkpt><trkpt lat="44.2163416" lon="10.5155898"><ele>1225.0</ele><time>2026-04-04T09:13:30.586Z</time></trkpt><trkpt lat="44.2162894" lon="10.5154723"><ele>1225.0</ele><time>2026-04-04T09:13:31.593Z</time></trkpt><trkpt lat="44.2162777" lon="10.5153248"><ele>1225.0</ele><time>2026-04-04T09:13:32.605Z</time></trkpt><trkpt lat="44.2162871" lon="10.5151518"><ele>1225.0</ele><time>2026-04-04T09:13:33.616Z</time></trkpt><trkpt lat="44.2163284" lon="10.5147919"><ele>1226.0</ele><time>2026-04-04T09:13:35.374Z</time></trkpt><trkpt lat="44.216331" lon="10.514617"><ele>1227.0</ele><time>2026-04-04T09:13:36.534Z</time></trkpt><trkpt lat="44.2162419" lon="10.5143404"><ele>1228.0</ele><time>2026-04-04T09:13:38.541Z</time></trkpt><trkpt lat="44.2161508" lon="10.5142686"><ele>1229.0</ele><time>2026-04-04T09:13:39.578Z</time></trkpt><trkpt lat="44.2160554" lon="10.5142582"><ele>1231.5</ele><time>2026-04-04T09:13:40.585Z</time></trkpt><trkpt lat="44.215941" lon="10.5142949"><ele>1234.0</ele><time>2026-04-04T09:13:41.589Z</time></trkpt><trkpt lat="44.2158072" lon="10.514367"><ele>1236.5</ele><time>2026-04-04T09:13:42.592Z</time></trkpt><trkpt lat="44.2156662" lon="10.5144612"><ele>1239.0</ele><time>2026-04-04T09:13:43.609Z</time></trkpt><trkpt lat="44.215523" lon="10.5145474"><ele>1237.0</ele><time>2026-04-04T09:13:44.62Z</time></trkpt><trkpt lat="44.2153556" lon="10.5146462"><ele>1235.0</ele><time>2026-04-04T09:13:45.633Z</time></trkpt><trkpt lat="44.2151958" lon="10.5147366"><ele>1233.0</ele><time>2026-04-04T09:13:46.641Z</time></trkpt><trkpt lat="44.2150444" lon="10.5148155"><ele>1233.0</ele><time>2026-04-04T09:13:47.656Z</time></trkpt><trkpt lat="44.2148979" lon="10.5148892"><ele>1233.0</ele><time>2026-04-04T09:13:48.677Z</time></trkpt><trkpt lat="44.2147516" lon="10.5149452"><ele>1233.0</ele><time>2026-04-04T09:13:50.551Z</time></trkpt><trkpt lat="44.2142824" lon="10.5149215"><ele>1232.75</ele><time>2026-04-04T09:13:52.553Z</time></trkpt><trkpt lat="44.2141328" lon="10.514896"><ele>1232.5</ele><time>2026-04-04T09:13:53.58Z</time></trkpt><trkpt lat="44.2139851" lon="10.5148649"><ele>1232.25</ele><time>2026-04-04T09:13:54.617Z</time></trkpt><trkpt lat="44.2138472" lon="10.5147893"><ele>1232.0</ele><time>2026-04-04T09:13:55.624Z</time></trkpt><trkpt lat="44.2137131" lon="10.5146677"><ele>1235.6666666666667</ele><time>2026-04-04T09:13:56.647Z</time></trkpt><trkpt lat="44.2135912" lon="10.5145237"><ele>1239.3333333333333</ele><time>2026-04-04T09:13:57.676Z</time></trkpt><trkpt lat="44.2134756" lon="10.5143805"><ele>1243.0</ele><time>2026-04-04T09:13:59.548Z</time></trkpt><trkpt lat="44.2132245" lon="10.5141184"><ele>1241.3333333333333</ele><time>2026-04-04T09:14:00.572Z</time></trkpt><trkpt lat="44.213068" lon="10.5140654"><ele>1239.6666666666667</ele><time>2026-04-04T09:14:01.59Z</time></trkpt><trkpt lat="44.2129072" lon="10.5140506"><ele>1238.0</ele><time>2026-04-04T09:14:02.611Z</time></trkpt><trkpt lat="44.2127633" lon="10.514041"><ele>1238.0</ele><time>2026-04-04T09:14:03.63Z</time></trkpt><trkpt lat="44.2126262" lon="10.5139923"><ele>1238.0</ele><time>2026-04-04T09:14:04.666Z</time></trkpt><trkpt lat="44.2124988" lon="10.5138901"><ele>1238.0</ele><time>2026-04-04T09:14:05.679Z</time></trkpt><trkpt lat="44.2123648" lon="10.5135659"><ele>1239.3333333333335</ele><time>2026-04-04T09:14:07.59Z</time></trkpt><trkpt lat="44.2123788" lon="10.5133433"><ele>1240.6666666666667</ele><time>2026-04-04T09:14:08.628Z</time></trkpt><trkpt lat="44.2124006" lon="10.5131298"><ele>1242.0</ele><time>2026-04-04T09:14:09.638Z</time></trkpt><trkpt lat="44.2124093" lon="10.5129395"><ele>1242.25</ele><time>2026-04-04T09:14:10.667Z</time></trkpt><trkpt lat="44.2124104" lon="10.5127568"><ele>1242.5</ele><time>2026-04-04T09:14:11.678Z</time></trkpt><trkpt lat="44.2124025" lon="10.5125998"><ele>1242.75</ele><time>2026-04-04T09:14:12.686Z</time></trkpt><trkpt lat="44.2122692" lon="10.5124074"><ele>1243.0</ele><time>2026-04-04T09:14:14.572Z</time></trkpt><trkpt lat="44.212166" lon="10.5124074"><ele>1243.0</ele><time>2026-04-04T09:14:15.591Z</time></trkpt><trkpt lat="44.2120784" lon="10.5124799"><ele>1243.0</ele><time>2026-04-04T09:14:16.612Z</time></trkpt><trkpt lat="44.2119953" lon="10.5125687"><ele>1243.0</ele><time>2026-04-04T09:14:17.633Z</time></trkpt><trkpt lat="44.2119017" lon="10.5126789"><ele>1243.0</ele><time>2026-04-04T09:14:18.649Z</time></trkpt><trkpt lat="44.2117901" lon="10.5127661"><ele>1243.0</ele><time>2026-04-04T09:14:19.666Z</time></trkpt><trkpt lat="44.2116688" lon="10.5128211"><ele>1243.0</ele><time>2026-04-04T09:14:20.665Z</time></trkpt><trkpt lat="44.2115558" lon="10.5127979"><ele>1243.0</ele><time>2026-04-04T09:14:21.69Z</time></trkpt><trkpt lat="44.2114119" lon="10.5125774"><ele>1241.75</ele><time>2026-04-04T09:14:23.556Z</time></trkpt><trkpt lat="44.2113406" lon="10.5124385"><ele>1240.5</ele><time>2026-04-04T09:14:24.575Z</time></trkpt><trkpt lat="44.2112579" lon="10.5122943"><ele>1239.25</ele><time>2026-04-04T09:14:25.597Z</time></trkpt><trkpt lat="44.211152" lon="10.5121697"><ele>1238.0</ele><time>2026-04-04T09:14:26.6Z</time></trkpt><trkpt lat="44.2110127" lon="10.5120864"><ele>1239.3333333333335</ele><time>2026-04-04T09:14:27.612Z</time></trkpt><trkpt lat="44.2108492" lon="10.5120661"><ele>1240.6666666666667</ele><time>2026-04-04T09:14:28.625Z</time></trkpt><trkpt lat="44.2106757" lon="10.5120629"><ele>1242.0</ele><time>2026-04-04T09:14:29.646Z</time></trkpt><trkpt lat="44.2105004" lon="10.5119988"><ele>1242.0</ele><time>2026-04-04T09:14:30.665Z</time></trkpt><trkpt lat="44.210369" lon="10.5118591"><ele>1242.0</ele><time>2026-04-04T09:14:31.679Z</time></trkpt><trkpt lat="44.2101495" lon="10.5115752"><ele>1242.0</ele><time>2026-04-04T09:14:33.556Z</time></trkpt><trkpt lat="44.2098705" lon="10.5113308"><ele>1242.0</ele><time>2026-04-04T09:14:35.379Z</time></trkpt><trkpt lat="44.2097253" lon="10.5112569"><ele>1243.25</ele><time>2026-04-04T09:14:36.376Z</time></trkpt><trkpt lat="44.2095958" lon="10.5111776"><ele>1244.5</ele><time>2026-04-04T09:14:37.376Z</time></trkpt><trkpt lat="44.2094799" lon="10.51112"><ele>1245.75</ele><time>2026-04-04T09:14:38.538Z</time></trkpt><trkpt lat="44.2093776" lon="10.5110604"><ele>1247.0</ele><time>2026-04-04T09:14:39.546Z</time></trkpt><trkpt lat="44.2092998" lon="10.5109955"><ele>1247.0</ele><time>2026-04-04T09:14:40.577Z</time></trkpt><trkpt lat="44.2092245" lon="10.5109224"><ele>1247.0</ele><time>2026-04-04T09:14:41.592Z</time></trkpt><trkpt lat="44.2091502" lon="10.5108459"><ele>1247.0</ele><time>2026-04-04T09:14:42.604Z</time></trkpt><trkpt lat="44.2090768" lon="10.5107556"><ele>1247.0</ele><time>2026-04-04T09:14:43.633Z</time></trkpt><trkpt lat="44.208995" lon="10.5106521"><ele>1247.0</ele><time>2026-04-04T09:14:44.651Z</time></trkpt><trkpt lat="44.208913" lon="10.5105418"><ele>1247.0</ele><time>2026-04-04T09:14:45.681Z</time></trkpt><trkpt lat="44.2087551" lon="10.5103362"><ele>1247.0</ele><time>2026-04-04T09:14:47.58Z</time></trkpt><trkpt lat="44.2086856" lon="10.5102329"><ele>1247.0</ele><time>2026-04-04T09:14:48.611Z</time></trkpt><trkpt lat="44.2086247" lon="10.5101165"><ele>1247.0</ele><time>2026-04-04T09:14:49.644Z</time></trkpt><trkpt lat="44.2085698" lon="10.50998"><ele>1247.0</ele><time>2026-04-04T09:14:50.665Z</time></trkpt><trkpt lat="44.2085244" lon="10.5098378"><ele>1247.0</ele><time>2026-04-04T09:14:52.557Z</time></trkpt><trkpt lat="44.2083817" lon="10.509609"><ele>1247.0</ele><time>2026-04-04T09:14:53.599Z</time></trkpt><trkpt lat="44.2082666" lon="10.5095593"><ele>1247.0</ele><time>2026-04-04T09:14:54.634Z</time></trkpt><trkpt lat="44.2081377" lon="10.5095616"><ele>1248.5</ele><time>2026-04-04T09:14:55.647Z</time></trkpt><trkpt lat="44.2080218" lon="10.5095478"><ele>1250.0</ele><time>2026-04-04T09:14:56.668Z</time></trkpt><trkpt lat="44.207916" lon="10.5094976"><ele>1251.5</ele><time>2026-04-04T09:14:57.697Z</time></trkpt><trkpt lat="44.2077527" lon="10.509333"><ele>1253.0</ele><time>2026-04-04T09:14:59.589Z</time></trkpt><trkpt lat="44.2076713" lon="10.5092387"><ele>1253.0</ele><time>2026-04-04T09:15:00.601Z</time></trkpt><trkpt lat="44.2075967" lon="10.5091406"><ele>1253.0</ele><time>2026-04-04T09:15:01.617Z</time></trkpt><trkpt lat="44.2075251" lon="10.5090531"><ele>1253.0</ele><time>2026-04-04T09:15:02.626Z</time></trkpt><trkpt lat="44.2074577" lon="10.5089692"><ele>1253.0</ele><time>2026-04-04T09:15:03.639Z</time></trkpt><trkpt lat="44.2073962" lon="10.5088886"><ele>1253.0</ele><time>2026-04-04T09:15:04.655Z</time></trkpt><trkpt lat="44.2073335" lon="10.5088047"><ele>1253.5</ele><time>2026-04-04T09:15:05.671Z</time></trkpt><trkpt lat="44.2072809" lon="10.5087062"><ele>1254.0</ele><time>2026-04-04T09:15:06.687Z</time></trkpt><trkpt lat="44.2072757" lon="10.5084094"><ele>1254.5</ele><time>2026-04-04T09:15:08.573Z</time></trkpt><trkpt lat="44.2073094" lon="10.5082261"><ele>1255.0</ele><time>2026-04-04T09:15:09.582Z</time></trkpt><trkpt lat="44.2073427" lon="10.5080403"><ele>1255.3333333333333</ele><time>2026-04-04T09:15:10.596Z</time></trkpt><trkpt lat="44.2073581" lon="10.5076976"><ele>1255.6666666666667</ele><time>2026-04-04T09:15:12.538Z</time></trkpt><trkpt lat="44.2073495" lon="10.5074996"><ele>1256.0</ele><time>2026-04-04T09:15:13.565Z</time></trkpt><trkpt lat="44.2073493" lon="10.5072945"><ele>1256.0</ele><time>2026-04-04T09:15:14.566Z</time></trkpt><trkpt lat="44.2073507" lon="10.5070985"><ele>1256.0</ele><time>2026-04-04T09:15:15.569Z</time></trkpt><trkpt lat="44.2073297" lon="10.5069029"><ele>1256.0</ele><time>2026-04-04T09:15:16.576Z</time></trkpt><trkpt lat="44.2072773" lon="10.5067263"><ele>1256.0</ele><time>2026-04-04T09:15:17.59Z</time></trkpt><trkpt lat="44.2071746" lon="10.5066157"><ele>1257.6666666666667</ele><time>2026-04-04T09:15:18.603Z</time></trkpt><trkpt lat="44.2070142" lon="10.5065795"><ele>1259.3333333333333</ele><time>2026-04-04T09:15:19.615Z</time></trkpt><trkpt lat="44.2068481" lon="10.5065584"><ele>1261.0</ele><time>2026-04-04T09:15:20.626Z</time></trkpt><trkpt lat="44.2067254" lon="10.5065943"><ele>1261.0</ele><time>2026-04-04T09:15:21.639Z</time></trkpt><trkpt lat="44.2066298" lon="10.5066498"><ele>1261.0</ele><time>2026-04-04T09:15:22.653Z</time></trkpt><trkpt lat="44.2065505" lon="10.506742"><ele>1261.0</ele><time>2026-04-04T09:15:23.651Z</time></trkpt><trkpt lat="44.2064839" lon="10.506864"><ele>1261.0</ele><time>2026-04-04T09:15:24.652Z</time></trkpt><trkpt lat="44.2064348" lon="10.5070002"><ele>1261.0</ele><time>2026-04-04T09:15:25.648Z</time></trkpt><trkpt lat="44.2063973" lon="10.5071394"><ele>1263.3999999999999</ele><time>2026-04-04T09:15:26.652Z</time></trkpt><trkpt lat="44.2063641" lon="10.5072741"><ele>1265.8</ele><time>2026-04-04T09:15:27.668Z</time></trkpt><trkpt lat="44.2063357" lon="10.5073982"><ele>1268.1999999999998</ele><time>2026-04-04T09:15:28.67Z</time></trkpt><trkpt lat="44.2063004" lon="10.5075163"><ele>1270.6</ele><time>2026-04-04T09:15:29.677Z</time></trkpt><trkpt lat="44.2062577" lon="10.5076192"><ele>1273.0</ele><time>2026-04-04T09:15:30.693Z</time></trkpt><trkpt lat="44.2061412" lon="10.5078032"><ele>1273.0</ele><time>2026-04-04T09:15:32.566Z</time></trkpt><trkpt lat="44.2060694" lon="10.507903"><ele>1273.0</ele><time>2026-04-04T09:15:33.576Z</time></trkpt><trkpt lat="44.205989" lon="10.5080164"><ele>1273.0</ele><time>2026-04-04T09:15:34.582Z</time></trkpt><trkpt lat="44.2059055" lon="10.508135"><ele>1273.0</ele><time>2026-04-04T09:15:35.588Z</time></trkpt><trkpt lat="44.205833" lon="10.5082502"><ele>1273.0</ele><time>2026-04-04T09:15:36.6Z</time></trkpt><trkpt lat="44.2057707" lon="10.5083591"><ele>1272.1666666666665</ele><time>2026-04-04T09:15:37.604Z</time></trkpt><trkpt lat="44.205707" lon="10.5084495"><ele>1271.3333333333333</ele><time>2026-04-04T09:15:38.614Z</time></trkpt><trkpt lat="44.2056353" lon="10.5085011"><ele>1270.5</ele><time>2026-04-04T09:15:39.616Z</time></trkpt><trkpt lat="44.20556" lon="10.5084888"><ele>1269.6666666666667</ele><time>2026-04-04T09:15:40.633Z</time></trkpt><trkpt lat="44.205496" lon="10.5084134"><ele>1268.8333333333335</ele><time>2026-04-04T09:15:41.643Z</time></trkpt><trkpt lat="44.2054716" lon="10.5083023"><ele>1268.0</ele><time>2026-04-04T09:15:42.66Z</time></trkpt><trkpt lat="44.2054988" lon="10.508168"><ele>1268.0</ele><time>2026-04-04T09:15:43.676Z</time></trkpt><trkpt lat="44.2055772" lon="10.5080283"><ele>1268.0</ele><time>2026-04-04T09:15:44.679Z</time></trkpt><trkpt lat="44.2056673" lon="10.5079007"><ele>1268.0</ele><time>2026-04-04T09:15:45.675Z</time></trkpt><trkpt lat="44.2057614" lon="10.5077861"><ele>1268.0</ele><time>2026-04-04T09:15:46.66Z</time></trkpt><trkpt lat="44.2058496" lon="10.5076684"><ele>1269.0</ele><time>2026-04-04T09:15:47.653Z</time></trkpt><trkpt lat="44.2059364" lon="10.5075543"><ele>1270.0</ele><time>2026-04-04T09:15:48.667Z</time></trkpt><trkpt lat="44.2060204" lon="10.507453"><ele>1271.0</ele><time>2026-04-04T09:15:49.669Z</time></trkpt><trkpt lat="44.2060938" lon="10.5073655"><ele>1272.0</ele><time>2026-04-04T09:15:50.672Z</time></trkpt><trkpt lat="44.2061512" lon="10.5072922"><ele>1273.0</ele><time>2026-04-04T09:15:51.689Z</time></trkpt><trkpt lat="44.2062222" lon="10.5071503"><ele>1273.0</ele><time>2026-04-04T09:15:53.562Z</time></trkpt><trkpt lat="44.2061952" lon="10.5069993"><ele>1273.0</ele><time>2026-04-04T09:15:55.59Z</time></trkpt><trkpt lat="44.2061362" lon="10.5069489"><ele>1273.0</ele><time>2026-04-04T09:15:56.607Z</time></trkpt><trkpt lat="44.2060594" lon="10.506947"><ele>1273.0</ele><time>2026-04-04T09:15:57.624Z</time></trkpt><trkpt lat="44.205981" lon="10.5070101"><ele>1273.0</ele><time>2026-04-04T09:15:58.65Z</time></trkpt><trkpt lat="44.2059025" lon="10.5071216"><ele>1273.0</ele><time>2026-04-04T09:15:59.659Z</time></trkpt><trkpt lat="44.2058224" lon="10.5072597"><ele>1273.0</ele><time>2026-04-04T09:16:00.657Z</time></trkpt><trkpt lat="44.2057411" lon="10.5074103"><ele>1273.0</ele><time>2026-04-04T09:16:01.658Z</time></trkpt><trkpt lat="44.2056552" lon="10.5075621"><ele>1273.0</ele><time>2026-04-04T09:16:02.66Z</time></trkpt><trkpt lat="44.2055706" lon="10.5077037"><ele>1275.0</ele><time>2026-04-04T09:16:03.661Z</time></trkpt><trkpt lat="44.2054944" lon="10.5078096"><ele>1277.0</ele><time>2026-04-04T09:16:04.673Z</time></trkpt><trkpt lat="44.2054148" lon="10.5078738"><ele>1279.0</ele><time>2026-04-04T09:16:05.673Z</time></trkpt><trkpt lat="44.205323" lon="10.5078852"><ele>1281.0</ele><time>2026-04-04T09:16:06.685Z</time></trkpt><trkpt lat="44.205228" lon="10.5078543"><ele>1283.0</ele><time>2026-04-04T09:16:07.692Z</time></trkpt><trkpt lat="44.2051307" lon="10.5078028"><ele>1283.0</ele><time>2026-04-04T09:16:08.691Z</time></trkpt><trkpt lat="44.2050307" lon="10.5077587"><ele>1283.0</ele><time>2026-04-04T09:16:10.54Z</time></trkpt><trkpt lat="44.2048175" lon="10.5077491"><ele>1283.0</ele><time>2026-04-04T09:16:11.561Z</time></trkpt><trkpt lat="44.2047088" lon="10.5077587"><ele>1283.0</ele><time>2026-04-04T09:16:12.572Z</time></trkpt><trkpt lat="44.2046043" lon="10.5077391"><ele>1282.3333333333335</ele><time>2026-04-04T09:16:13.575Z</time></trkpt><trkpt lat="44.2045115" lon="10.5076991"><ele>1281.6666666666667</ele><time>2026-04-04T09:16:14.58Z</time></trkpt><trkpt lat="44.2044349" lon="10.5076477"><ele>1281.0</ele><time>2026-04-04T09:16:15.582Z</time></trkpt><trkpt lat="44.2043682" lon="10.5075828"><ele>1280.3333333333333</ele><time>2026-04-04T09:16:16.594Z</time></trkpt><trkpt lat="44.2043176" lon="10.5074885"><ele>1279.6666666666665</ele><time>2026-04-04T09:16:17.607Z</time></trkpt><trkpt lat="44.2042899" lon="10.5073619"><ele>1279.0</ele><time>2026-04-04T09:16:18.62Z</time></trkpt><trkpt lat="44.204292" lon="10.5071825"><ele>1280.75</ele><time>2026-04-04T09:16:19.642Z</time></trkpt><trkpt lat="44.2043374" lon="10.5069831"><ele>1282.5</ele><time>2026-04-04T09:16:20.652Z</time></trkpt><trkpt lat="44.204398" lon="10.5068022"><ele>1284.25</ele><time>2026-04-04T09:16:21.673Z</time></trkpt><trkpt lat="44.2044473" lon="10.5066309"><ele>1286.0</ele><time>2026-04-04T09:16:22.687Z</time></trkpt><trkpt lat="44.2044816" lon="10.506466"><ele>1288.3333333333335</ele><time>2026-04-04T09:16:23.688Z</time></trkpt><trkpt lat="44.2045412" lon="10.5061684"><ele>1290.6666666666667</ele><time>2026-04-04T09:16:25.575Z</time></trkpt><trkpt lat="44.2045833" lon="10.5060181"><ele>1293.0</ele><time>2026-04-04T09:16:26.588Z</time></trkpt><trkpt lat="44.2046429" lon="10.5058801"><ele>1293.0</ele><time>2026-04-04T09:16:27.597Z</time></trkpt><trkpt lat="44.2047171" lon="10.5057471"><ele>1293.0</ele><time>2026-04-04T09:16:28.605Z</time></trkpt><trkpt lat="44.2047933" lon="10.5056226"><ele>1293.0</ele><time>2026-04-04T09:16:29.627Z</time></trkpt><trkpt lat="44.2048629" lon="10.5055037"><ele>1293.0</ele><time>2026-04-04T09:16:30.641Z</time></trkpt><trkpt lat="44.2049305" lon="10.5053883"><ele>1294.5</ele><time>2026-04-04T09:16:31.657Z</time></trkpt><trkpt lat="44.2049894" lon="10.5052742"><ele>1296.0</ele><time>2026-04-04T09:16:32.675Z</time></trkpt><trkpt lat="44.2050309" lon="10.5051605"><ele>1297.5</ele><time>2026-04-04T09:16:33.704Z</time></trkpt><trkpt lat="44.2050264" lon="10.5049336"><ele>1299.0</ele><time>2026-04-04T09:16:35.572Z</time></trkpt><trkpt lat="44.2049602" lon="10.504839"><ele>1299.0</ele><time>2026-04-04T09:16:36.591Z</time></trkpt><trkpt lat="44.2048614" lon="10.5047938"><ele>1299.0</ele><time>2026-04-04T09:16:37.59Z</time></trkpt><trkpt lat="44.2047301" lon="10.504818"><ele>1299.0</ele><time>2026-04-04T09:16:38.595Z</time></trkpt><trkpt lat="44.2045393" lon="10.5048803"><ele>1299.0</ele><time>2026-04-04T09:16:39.603Z</time></trkpt><trkpt lat="44.2042857" lon="10.5049548"><ele>1300.3333333333333</ele><time>2026-04-04T09:16:40.593Z</time></trkpt><trkpt lat="44.2040954" lon="10.5049833"><ele>1301.6666666666665</ele><time>2026-04-04T09:16:41.575Z</time></trkpt><trkpt lat="44.2039153" lon="10.5049704"><ele>1303.0</ele><time>2026-04-04T09:16:42.55Z</time></trkpt><trkpt lat="44.2037484" lon="10.5048734"><ele>1303.0</ele><time>2026-04-04T09:16:43.545Z</time></trkpt><trkpt lat="44.203589" lon="10.5046916"><ele>1303.0</ele><time>2026-04-04T09:16:44.534Z</time></trkpt><trkpt lat="44.203406" lon="10.5045141"><ele>1303.0</ele><time>2026-04-04T09:16:45.525Z</time></trkpt><trkpt lat="44.2031876" lon="10.5043796"><ele>1307.0</ele><time>2026-04-04T09:16:46.525Z</time></trkpt><trkpt lat="44.202953" lon="10.5043295"><ele>1311.0</ele><time>2026-04-04T09:16:47.518Z</time></trkpt><trkpt lat="44.2027454" lon="10.5042968"><ele>1315.0</ele><time>2026-04-04T09:16:48.521Z</time></trkpt><trkpt lat="44.2025689" lon="10.5042456"><ele>1315.0</ele><time>2026-04-04T09:16:49.517Z</time></trkpt><trkpt lat="44.2024184" lon="10.5041851"><ele>1315.0</ele><time>2026-04-04T09:16:50.529Z</time></trkpt><trkpt lat="44.2022765" lon="10.5041522"><ele>1315.0</ele><time>2026-04-04T09:16:51.532Z</time></trkpt><trkpt lat="44.2021601" lon="10.5041745"><ele>1315.0</ele><time>2026-04-04T09:16:52.54Z</time></trkpt><trkpt lat="44.2020553" lon="10.5042138"><ele>1315.25</ele><time>2026-04-04T09:16:53.531Z</time></trkpt><trkpt lat="44.2019728" lon="10.5043121"><ele>1315.5</ele><time>2026-04-04T09:16:54.55Z</time></trkpt><trkpt lat="44.2019251" lon="10.5044545"><ele>1315.75</ele><time>2026-04-04T09:16:55.544Z</time></trkpt><trkpt lat="44.2018945" lon="10.5046337"><ele>1316.0</ele><time>2026-04-04T09:16:56.541Z</time></trkpt><trkpt lat="44.2018757" lon="10.5048162"><ele>1316.0</ele><time>2026-04-04T09:16:57.539Z</time></trkpt><trkpt lat="44.2018553" lon="10.5050121"><ele>1316.0</ele><time>2026-04-04T09:16:58.529Z</time></trkpt><trkpt lat="44.2018199" lon="10.5052014"><ele>1316.0</ele><time>2026-04-04T09:16:59.53Z</time></trkpt><trkpt lat="44.2017772" lon="10.5053634"><ele>1316.0</ele><time>2026-04-04T09:17:00.549Z</time></trkpt><trkpt lat="44.2017071" lon="10.5054695"><ele>1317.5</ele><time>2026-04-04T09:17:01.56Z</time></trkpt><trkpt lat="44.2016198" lon="10.5055039"><ele>1319.0</ele><time>2026-04-04T09:17:02.565Z</time></trkpt><trkpt lat="44.2015111" lon="10.5054892"><ele>1320.5</ele><time>2026-04-04T09:17:03.566Z</time></trkpt><trkpt lat="44.2013993" lon="10.5054454"><ele>1322.0</ele><time>2026-04-04T09:17:04.561Z</time></trkpt><trkpt lat="44.2012722" lon="10.5053535"><ele>1322.0</ele><time>2026-04-04T09:17:05.541Z</time></trkpt><trkpt lat="44.2011463" lon="10.5052299"><ele>1322.0</ele><time>2026-04-04T09:17:06.535Z</time></trkpt><trkpt lat="44.2010008" lon="10.5051188"><ele>1322.0</ele><time>2026-04-04T09:17:07.521Z</time></trkpt><trkpt lat="44.2008509" lon="10.505048"><ele>1322.0</ele><time>2026-04-04T09:17:08.531Z</time></trkpt><trkpt lat="44.2007066" lon="10.5049841"><ele>1322.0</ele><time>2026-04-04T09:17:09.523Z</time></trkpt><trkpt lat="44.2005928" lon="10.5048822"><ele>1322.0</ele><time>2026-04-04T09:17:10.534Z</time></trkpt><trkpt lat="44.2005178" lon="10.5047232"><ele>1322.0</ele><time>2026-04-04T09:17:11.541Z</time></trkpt><trkpt lat="44.2004881" lon="10.5045475"><ele>1322.5</ele><time>2026-04-04T09:17:12.531Z</time></trkpt><trkpt lat="44.2004601" lon="10.504374"><ele>1323.0</ele><time>2026-04-04T09:17:13.528Z</time></trkpt><trkpt lat="44.2004284" lon="10.5041932"><ele>1323.5</ele><time>2026-04-04T09:17:14.533Z</time></trkpt><trkpt lat="44.2003769" lon="10.5040284"><ele>1324.0</ele><time>2026-04-04T09:17:15.539Z</time></trkpt><trkpt lat="44.2002805" lon="10.5039003"><ele>1324.0</ele><time>2026-04-04T09:17:16.544Z</time></trkpt><trkpt lat="44.2001759" lon="10.503788"><ele>1324.0</ele><time>2026-04-04T09:17:17.548Z</time></trkpt><trkpt lat="44.2000561" lon="10.5036969"><ele>1324.0</ele><time>2026-04-04T09:17:18.554Z</time></trkpt><trkpt lat="44.1999286" lon="10.5036148"><ele>1324.0</ele><time>2026-04-04T09:17:19.57Z</time></trkpt><trkpt lat="44.1997969" lon="10.5035361"><ele>1326.2</ele><time>2026-04-04T09:17:20.582Z</time></trkpt><trkpt lat="44.1996765" lon="10.5034645"><ele>1328.4</ele><time>2026-04-04T09:17:21.597Z</time></trkpt><trkpt lat="44.1995704" lon="10.5034071"><ele>1330.6</ele><time>2026-04-04T09:17:22.611Z</time></trkpt><trkpt lat="44.1994809" lon="10.5033495"><ele>1332.8</ele><time>2026-04-04T09:17:23.609Z</time></trkpt><trkpt lat="44.1993964" lon="10.5032925"><ele>1335.0</ele><time>2026-04-04T09:17:24.611Z</time></trkpt><trkpt lat="44.1993066" lon="10.5032327"><ele>1335.0</ele><time>2026-04-04T09:17:25.613Z</time></trkpt><trkpt lat="44.1992151" lon="10.5032067"><ele>1335.0</ele><time>2026-04-04T09:17:26.612Z</time></trkpt><trkpt lat="44.1991214" lon="10.5032163"><ele>1335.0</ele><time>2026-04-04T09:17:27.604Z</time></trkpt><trkpt lat="44.1990521" lon="10.5032794"><ele>1335.0</ele><time>2026-04-04T09:17:28.593Z</time></trkpt><trkpt lat="44.1990055" lon="10.5033974"><ele>1335.0</ele><time>2026-04-04T09:17:29.58Z</time></trkpt><trkpt lat="44.198971" lon="10.5035524"><ele>1338.6666666666667</ele><time>2026-04-04T09:17:30.56Z</time></trkpt><trkpt lat="44.1989467" lon="10.5037517"><ele>1342.3333333333335</ele><time>2026-04-04T09:17:31.57Z</time></trkpt><trkpt lat="44.198916" lon="10.5040137"><ele>1346.0</ele><time>2026-04-04T09:17:32.568Z</time></trkpt><trkpt lat="44.1988544" lon="10.5043071"><ele>1346.0</ele><time>2026-04-04T09:17:33.567Z</time></trkpt><trkpt lat="44.1987943" lon="10.504521"><ele>1346.0</ele><time>2026-04-04T09:17:34.567Z</time></trkpt><trkpt lat="44.1987218" lon="10.504664"><ele>1346.0</ele><time>2026-04-04T09:17:35.563Z</time></trkpt><trkpt lat="44.1986174" lon="10.504752"><ele>1346.0</ele><time>2026-04-04T09:17:36.567Z</time></trkpt><trkpt lat="44.1984809" lon="10.5047974"><ele>1346.3333333333335</ele><time>2026-04-04T09:17:37.572Z</time></trkpt><trkpt lat="44.1983186" lon="10.5047968"><ele>1346.6666666666667</ele><time>2026-04-04T09:17:38.555Z</time></trkpt><trkpt lat="44.1981674" lon="10.5048176"><ele>1347.0</ele><time>2026-04-04T09:17:39.545Z</time></trkpt><trkpt lat="44.1980039" lon="10.5048465"><ele>1347.0</ele><time>2026-04-04T09:17:40.55Z</time></trkpt><trkpt lat="44.1978346" lon="10.5048712"><ele>1347.0</ele><time>2026-04-04T09:17:41.553Z</time></trkpt><trkpt lat="44.1976643" lon="10.5049075"><ele>1347.0</ele><time>2026-04-04T09:17:42.552Z</time></trkpt><trkpt lat="44.1975072" lon="10.5049462"><ele>1347.0</ele><time>2026-04-04T09:17:43.557Z</time></trkpt><trkpt lat="44.1973729" lon="10.5049951"><ele>1347.0</ele><time>2026-04-04T09:17:44.558Z</time></trkpt><trkpt lat="44.1972669" lon="10.5050753"><ele>1347.0</ele><time>2026-04-04T09:17:45.562Z</time></trkpt><trkpt lat="44.1971858" lon="10.5052186"><ele>1347.0</ele><time>2026-04-04T09:17:46.568Z</time></trkpt><trkpt lat="44.1971121" lon="10.5054124"><ele>1351.25</ele><time>2026-04-04T09:17:47.572Z</time></trkpt><trkpt lat="44.1970432" lon="10.5056019"><ele>1355.5</ele><time>2026-04-04T09:17:48.569Z</time></trkpt><trkpt lat="44.1970024" lon="10.5058012"><ele>1359.75</ele><time>2026-04-04T09:17:49.574Z</time></trkpt><trkpt lat="44.1969812" lon="10.5059786"><ele>1364.0</ele><time>2026-04-04T09:17:50.577Z</time></trkpt><trkpt lat="44.1969484" lon="10.5061125"><ele>1364.0</ele><time>2026-04-04T09:17:51.586Z</time></trkpt><trkpt lat="44.1968529" lon="10.50615"><ele>1364.0</ele><time>2026-04-04T09:17:53.601Z</time></trkpt><trkpt lat="44.1968215" lon="10.5060474"><ele>1364.0</ele><time>2026-04-04T09:17:55.601Z</time></trkpt><trkpt lat="44.196833" lon="10.5058768"><ele>1364.0</ele><time>2026-04-04T09:17:57.587Z</time></trkpt><trkpt lat="44.1968387" lon="10.505783"><ele>1364.0</ele><time>2026-04-04T09:17:58.567Z</time></trkpt><trkpt lat="44.1968515" lon="10.5056036"><ele>1364.0</ele><time>2026-04-04T09:18:00.366Z</time></trkpt><trkpt lat="44.1968633" lon="10.5055092"><ele>1364.0</ele><time>2026-04-04T09:18:01.368Z</time></trkpt><trkpt lat="44.1968795" lon="10.5053997"><ele>1364.0</ele><time>2026-04-04T09:18:02.383Z</time></trkpt><trkpt lat="44.1968931" lon="10.5052998"><ele>1364.0</ele><time>2026-04-04T09:18:03.374Z</time></trkpt><trkpt lat="44.1969126" lon="10.5052073"><ele>1364.0</ele><time>2026-04-04T09:18:04.374Z</time></trkpt><trkpt lat="44.1969287" lon="10.5051138"><ele>1364.0</ele><time>2026-04-04T09:18:05.374Z</time></trkpt><trkpt lat="44.196943" lon="10.5050247"><ele>1364.0</ele><time>2026-04-04T09:18:06.369Z</time></trkpt><trkpt lat="44.1969793" lon="10.5048689"><ele>1366.0</ele><time>2026-04-04T09:18:08.367Z</time></trkpt><trkpt lat="44.1970063" lon="10.5047153"><ele>1368.0</ele><time>2026-04-04T09:18:10.362Z</time></trkpt><trkpt lat="44.1970337" lon="10.5045515"><ele>1370.0</ele><time>2026-04-04T09:18:12.37Z</time></trkpt><trkpt lat="44.1970497" lon="10.504458"><ele>1372.0</ele><time>2026-04-04T09:18:13.377Z</time></trkpt><trkpt lat="44.1970677" lon="10.5043669"><ele>1374.0</ele><time>2026-04-04T09:18:14.366Z</time></trkpt><trkpt lat="44.1970971" lon="10.5042068"><ele>1373.5</ele><time>2026-04-04T09:18:16.36Z</time></trkpt><trkpt lat="44.197121" lon="10.5040346"><ele>1373.0</ele><time>2026-04-04T09:18:18.366Z</time></trkpt><trkpt lat="44.1971484" lon="10.503947"><ele>1372.5</ele><time>2026-04-04T09:18:19.536Z</time></trkpt><trkpt lat="44.1971862" lon="10.5038558"><ele>1372.0</ele><time>2026-04-04T09:18:20.548Z</time></trkpt><trkpt lat="44.1972485" lon="10.5037801"><ele>1371.5</ele><time>2026-04-04T09:18:21.557Z</time></trkpt><trkpt lat="44.1973277" lon="10.5037302"><ele>1371.0</ele><time>2026-04-04T09:18:22.57Z</time></trkpt><trkpt lat="44.1974113" lon="10.5036991"><ele>1371.0</ele><time>2026-04-04T09:18:23.58Z</time></trkpt><trkpt lat="44.1974957" lon="10.50367"><ele>1371.0</ele><time>2026-04-04T09:18:24.588Z</time></trkpt><trkpt lat="44.1975803" lon="10.5036289"><ele>1371.0</ele><time>2026-04-04T09:18:25.607Z</time></trkpt><trkpt lat="44.1976697" lon="10.5035894"><ele>1371.0</ele><time>2026-04-04T09:18:26.622Z</time></trkpt><trkpt lat="44.1977599" lon="10.503531"><ele>1371.0</ele><time>2026-04-04T09:18:27.625Z</time></trkpt><trkpt lat="44.1978303" lon="10.503432"><ele>1371.0</ele><time>2026-04-04T09:18:28.638Z</time></trkpt><trkpt lat="44.1978668" lon="10.5032827"><ele>1371.0</ele><time>2026-04-04T09:18:29.654Z</time></trkpt><trkpt lat="44.1977578" lon="10.5029687"><ele>1371.0</ele><time>2026-04-04T09:18:31.553Z</time></trkpt><trkpt lat="44.1977049" lon="10.5028364"><ele>1373.5</ele><time>2026-04-04T09:18:32.571Z</time></trkpt><trkpt lat="44.1976876" lon="10.5027126"><ele>1376.0</ele><time>2026-04-04T09:18:33.589Z</time></trkpt><trkpt lat="44.1977161" lon="10.5026178"><ele>1378.5</ele><time>2026-04-04T09:18:34.6Z</time></trkpt><trkpt lat="44.1977889" lon="10.5025572"><ele>1381.0</ele><time>2026-04-04T09:18:35.6Z</time></trkpt><trkpt lat="44.1978648" lon="10.502497"><ele>1383.5</ele><time>2026-04-04T09:18:36.608Z</time></trkpt><trkpt lat="44.1979374" lon="10.5024121"><ele>1386.0</ele><time>2026-04-04T09:18:37.623Z</time></trkpt><trkpt lat="44.1979864" lon="10.5022716"><ele>1386.0</ele><time>2026-04-04T09:18:38.622Z</time></trkpt><trkpt lat="44.1980104" lon="10.5020872"><ele>1386.0</ele><time>2026-04-04T09:18:39.615Z</time></trkpt><trkpt lat="44.1980229" lon="10.50193"><ele>1386.0</ele><time>2026-04-04T09:18:40.603Z</time></trkpt><trkpt lat="44.1980453" lon="10.5017944"><ele>1386.0</ele><time>2026-04-04T09:18:41.609Z</time></trkpt><trkpt lat="44.1980944" lon="10.5016901"><ele>1386.0</ele><time>2026-04-04T09:18:42.607Z</time></trkpt><trkpt lat="44.1981885" lon="10.5016168"><ele>1383.6666666666667</ele><time>2026-04-04T09:18:43.608Z</time></trkpt><trkpt lat="44.198325" lon="10.5015775"><ele>1381.3333333333335</ele><time>2026-04-04T09:18:44.596Z</time></trkpt><trkpt lat="44.1984785" lon="10.5015209"><ele>1379.0</ele><time>2026-04-04T09:18:45.593Z</time></trkpt><trkpt lat="44.1986242" lon="10.5014326"><ele>1379.0</ele><time>2026-04-04T09:18:46.59Z</time></trkpt><trkpt lat="44.1987586" lon="10.5013043"><ele>1379.0</ele><time>2026-04-04T09:18:47.589Z</time></trkpt><trkpt lat="44.1988734" lon="10.5011136"><ele>1379.0</ele><time>2026-04-04T09:18:48.59Z</time></trkpt><trkpt lat="44.1989807" lon="10.5009703"><ele>1380.75</ele><time>2026-04-04T09:18:49.589Z</time></trkpt><trkpt lat="44.1990968" lon="10.5008948"><ele>1382.5</ele><time>2026-04-04T09:18:50.589Z</time></trkpt><trkpt lat="44.1992207" lon="10.5008255"><ele>1384.25</ele><time>2026-04-04T09:18:51.586Z</time></trkpt><trkpt lat="44.1993425" lon="10.5006937"><ele>1386.0</ele><time>2026-04-04T09:18:52.591Z</time></trkpt><trkpt lat="44.1994248" lon="10.500487"><ele>1393.6666666666667</ele><time>2026-04-04T09:18:53.587Z</time></trkpt><trkpt lat="44.1994904" lon="10.5002835"><ele>1401.3333333333335</ele><time>2026-04-04T09:18:54.579Z</time></trkpt><trkpt lat="44.1995302" lon="10.5000654"><ele>1409.0</ele><time>2026-04-04T09:18:55.554Z</time></trkpt><trkpt lat="44.1996772" lon="10.4996772"><ele>1409.5</ele><time>2026-04-04T09:18:57.531Z</time></trkpt><trkpt lat="44.199794" lon="10.4995246"><ele>1410.0</ele><time>2026-04-04T09:18:58.525Z</time></trkpt><trkpt lat="44.1999272" lon="10.4994112"><ele>1410.5</ele><time>2026-04-04T09:18:59.533Z</time></trkpt><trkpt lat="44.2000389" lon="10.49932"><ele>1411.0</ele><time>2026-04-04T09:19:00.528Z</time></trkpt><trkpt lat="44.2001394" lon="10.4991722"><ele>1411.0</ele><time>2026-04-04T09:19:01.525Z</time></trkpt><trkpt lat="44.2002283" lon="10.4990089"><ele>1411.0</ele><time>2026-04-04T09:19:02.538Z</time></trkpt><trkpt lat="44.2003516" lon="10.4988694"><ele>1411.0</ele><time>2026-04-04T09:19:03.546Z</time></trkpt><trkpt lat="44.200483" lon="10.4987899"><ele>1411.0</ele><time>2026-04-04T09:19:04.553Z</time></trkpt><trkpt lat="44.2006465" lon="10.4987598"><ele>1414.3333333333333</ele><time>2026-04-04T09:19:05.548Z</time></trkpt><trkpt lat="44.200802" lon="10.4987218"><ele>1417.6666666666667</ele><time>2026-04-04T09:19:06.541Z</time></trkpt><trkpt lat="44.2009339" lon="10.498634"><ele>1421.0</ele><time>2026-04-04T09:19:07.528Z</time></trkpt><trkpt lat="44.2010665" lon="10.4984883"><ele>1421.0</ele><time>2026-04-04T09:19:08.527Z</time></trkpt><trkpt lat="44.2012035" lon="10.4983527"><ele>1421.0</ele><time>2026-04-04T09:19:09.529Z</time></trkpt><trkpt lat="44.2013301" lon="10.4981815"><ele>1421.0</ele><time>2026-04-04T09:19:10.528Z</time></trkpt><trkpt lat="44.2014437" lon="10.4979899"><ele>1420.3333333333335</ele><time>2026-04-04T09:19:11.521Z</time></trkpt><trkpt lat="44.2015376" lon="10.4977769"><ele>1419.6666666666667</ele><time>2026-04-04T09:19:12.528Z</time></trkpt><trkpt lat="44.2016056" lon="10.4975839"><ele>1419.0</ele><time>2026-04-04T09:19:13.525Z</time></trkpt><trkpt lat="44.2016733" lon="10.4974107"><ele>1419.0</ele><time>2026-04-04T09:19:14.519Z</time></trkpt><trkpt lat="44.2017897" lon="10.4972817"><ele>1419.0</ele><time>2026-04-04T09:19:15.525Z</time></trkpt><trkpt lat="44.2019488" lon="10.4972133"><ele>1419.0</ele><time>2026-04-04T09:19:16.523Z</time></trkpt><trkpt lat="44.2021131" lon="10.4971163"><ele>1415.0</ele><time>2026-04-04T09:19:17.52Z</time></trkpt><trkpt lat="44.2022166" lon="10.497041"><ele>1411.0</ele><time>2026-04-04T09:19:18.527Z</time></trkpt><trkpt lat="44.2022923" lon="10.4969041"><ele>1407.0</ele><time>2026-04-04T09:19:19.534Z</time></trkpt><trkpt lat="44.202347" lon="10.4967476"><ele>1403.0</ele><time>2026-04-04T09:19:20.529Z</time></trkpt><trkpt lat="44.202333" lon="10.4963844"><ele>1409.75</ele><time>2026-04-04T09:19:22.524Z</time></trkpt><trkpt lat="44.2023206" lon="10.4962092"><ele>1416.5</ele><time>2026-04-04T09:19:23.533Z</time></trkpt><trkpt lat="44.202359" lon="10.4960799"><ele>1423.25</ele><time>2026-04-04T09:19:24.543Z</time></trkpt><trkpt lat="44.2024357" lon="10.495993"><ele>1430.0</ele><time>2026-04-04T09:19:25.565Z</time></trkpt><trkpt lat="44.2025593" lon="10.4959341"><ele>1430.0</ele><time>2026-04-04T09:19:26.561Z</time></trkpt><trkpt lat="44.2026912" lon="10.4958697"><ele>1430.0</ele><time>2026-04-04T09:19:27.563Z</time></trkpt><trkpt lat="44.2028276" lon="10.4957614"><ele>1430.0</ele><time>2026-04-04T09:19:28.56Z</time></trkpt><trkpt lat="44.2029542" lon="10.49561"><ele>1430.0</ele><time>2026-04-04T09:19:29.567Z</time></trkpt><trkpt lat="44.2030699" lon="10.4953991"><ele>1430.0</ele><time>2026-04-04T09:19:30.579Z</time></trkpt><trkpt lat="44.2031634" lon="10.4951705"><ele>1430.0</ele><time>2026-04-04T09:19:31.581Z</time></trkpt><trkpt lat="44.2032337" lon="10.4949246"><ele>1430.0</ele><time>2026-04-04T09:19:32.583Z</time></trkpt><trkpt lat="44.2033114" lon="10.4946883"><ele>1430.0</ele><time>2026-04-04T09:19:33.579Z</time></trkpt><trkpt lat="44.2034111" lon="10.4944803"><ele>1430.0</ele><time>2026-04-04T09:19:34.584Z</time></trkpt><trkpt lat="44.2035368" lon="10.4942946"><ele>1439.0</ele><time>2026-04-04T09:19:35.583Z</time></trkpt><trkpt lat="44.2036816" lon="10.4941325"><ele>1448.0</ele><time>2026-04-04T09:19:36.581Z</time></trkpt><trkpt lat="44.2038303" lon="10.4940165"><ele>1457.0</ele><time>2026-04-04T09:19:37.58Z</time></trkpt><trkpt lat="44.2039464" lon="10.4938958"><ele>1459.5</ele><time>2026-04-04T09:19:38.583Z</time></trkpt><trkpt lat="44.2040349" lon="10.4937635"><ele>1462.0</ele><time>2026-04-04T09:19:39.589Z</time></trkpt><trkpt lat="44.2041349" lon="10.4937016"><ele>1464.5</ele><time>2026-04-04T09:19:40.594Z</time></trkpt><trkpt lat="44.2042421" lon="10.4937053"><ele>1467.0</ele><time>2026-04-04T09:19:41.599Z</time></trkpt><trkpt lat="44.2043495" lon="10.4937815"><ele>1462.75</ele><time>2026-04-04T09:19:42.604Z</time></trkpt><trkpt lat="44.2044697" lon="10.4939075"><ele>1458.5</ele><time>2026-04-04T09:19:43.604Z</time></trkpt><trkpt lat="44.204595" lon="10.493998"><ele>1454.25</ele><time>2026-04-04T09:19:44.603Z</time></trkpt><trkpt lat="44.2047341" lon="10.494054"><ele>1450.0</ele><time>2026-04-04T09:19:45.597Z</time></trkpt><trkpt lat="44.204888" lon="10.4940617"><ele>1450.0</ele><time>2026-04-04T09:19:46.59Z</time></trkpt><trkpt lat="44.205051" lon="10.4940367"><ele>1450.0</ele><time>2026-04-04T09:19:47.591Z</time></trkpt><trkpt lat="44.20522" lon="10.4939747"><ele>1450.0</ele><time>2026-04-04T09:19:48.58Z</time></trkpt><trkpt lat="44.2053509" lon="10.4939688"><ele>1450.0</ele><time>2026-04-04T09:19:49.572Z</time></trkpt><trkpt lat="44.2054557" lon="10.4940291"><ele>1450.0</ele><time>2026-04-04T09:19:50.567Z</time></trkpt><trkpt lat="44.2055529" lon="10.4940993"><ele>1450.0</ele><time>2026-04-04T09:19:51.57Z</time></trkpt><trkpt lat="44.2056362" lon="10.4940908"><ele>1450.0</ele><time>2026-04-04T09:19:52.579Z</time></trkpt><trkpt lat="44.2057208" lon="10.493969"><ele>1450.0</ele><time>2026-04-04T09:19:53.586Z</time></trkpt><trkpt lat="44.2058242" lon="10.4938313"><ele>1459.6666666666665</ele><time>2026-04-04T09:19:54.587Z</time></trkpt><trkpt lat="44.2059618" lon="10.4936792"><ele>1469.3333333333333</ele><time>2026-04-04T09:19:55.579Z</time></trkpt><trkpt lat="44.2061289" lon="10.4935574"><ele>1479.0</ele><time>2026-04-04T09:19:56.571Z</time></trkpt><trkpt lat="44.2062939" lon="10.4934819"><ele>1479.0</ele><time>2026-04-04T09:19:57.564Z</time></trkpt><trkpt lat="44.2064079" lon="10.4934056"><ele>1479.0</ele><time>2026-04-04T09:19:58.567Z</time></trkpt><trkpt lat="44.2064452" lon="10.4932805"><ele>1479.0</ele><time>2026-04-04T09:19:59.579Z</time></trkpt><trkpt lat="44.2063281" lon="10.4929866"><ele>1478.6666666666667</ele><time>2026-04-04T09:20:01.552Z</time></trkpt><trkpt lat="44.206203" lon="10.4928222"><ele>1478.3333333333335</ele><time>2026-04-04T09:20:02.567Z</time></trkpt><trkpt lat="44.206069" lon="10.4926703"><ele>1478.0</ele><time>2026-04-04T09:20:03.579Z</time></trkpt><trkpt lat="44.2059338" lon="10.4925553"><ele>1478.0</ele><time>2026-04-04T09:20:04.581Z</time></trkpt><trkpt lat="44.2057887" lon="10.492511"><ele>1478.0</ele><time>2026-04-04T09:20:05.597Z</time></trkpt><trkpt lat="44.2054911" lon="10.4924883"><ele>1478.0</ele><time>2026-04-04T09:20:07.522Z</time></trkpt><trkpt lat="44.2053853" lon="10.4924303"><ele>1481.6666666666667</ele><time>2026-04-04T09:20:08.542Z</time></trkpt><trkpt lat="44.2053523" lon="10.4923255"><ele>1485.3333333333333</ele><time>2026-04-04T09:20:09.55Z</time></trkpt><trkpt lat="44.2053459" lon="10.4922161"><ele>1489.0</ele><time>2026-04-04T09:20:10.633Z</time></trkpt><trkpt lat="44.205452" lon="10.4916578"><ele>1491.3333333333333</ele><time>2026-04-04T09:20:14.195Z</time></trkpt><trkpt lat="44.2055212" lon="10.491508"><ele>1493.6666666666667</ele><time>2026-04-04T09:20:15.537Z</time></trkpt><trkpt lat="44.2056327" lon="10.4912972"><ele>1496.0</ele><time>2026-04-04T09:20:16.563Z</time></trkpt><trkpt lat="44.2057161" lon="10.4910535"><ele>1496.6666666666667</ele><time>2026-04-04T09:20:17.592Z</time></trkpt><trkpt lat="44.2058064" lon="10.490835"><ele>1497.3333333333333</ele><time>2026-04-04T09:20:18.607Z</time></trkpt><trkpt lat="44.2058902" lon="10.490637"><ele>1498.0</ele><time>2026-04-04T09:20:19.792Z</time></trkpt><trkpt lat="44.2061288" lon="10.49043"><ele>1504.25</ele><time>2026-04-04T09:20:21.125Z</time></trkpt><trkpt lat="44.2062305" lon="10.490353"><ele>1510.5</ele><time>2026-04-04T09:20:22.112Z</time></trkpt><trkpt lat="44.2063201" lon="10.4902743"><ele>1516.75</ele><time>2026-04-04T09:20:23.088Z</time></trkpt><trkpt lat="44.2063799" lon="10.490123"><ele>1523.0</ele><time>2026-04-04T09:20:24.094Z</time></trkpt><trkpt lat="44.2064445" lon="10.4899777"><ele>1518.0</ele><time>2026-04-04T09:20:25.117Z</time></trkpt><trkpt lat="44.2065313" lon="10.4898836"><ele>1513.0</ele><time>2026-04-04T09:20:26.122Z</time></trkpt><trkpt lat="44.2066599" lon="10.4898522"><ele>1508.0</ele><time>2026-04-04T09:20:27.09Z</time></trkpt><trkpt lat="44.2067839" lon="10.4898534"><ele>1503.0</ele><time>2026-04-04T09:20:28.089Z</time></trkpt><trkpt lat="44.2069081" lon="10.4898548"><ele>1503.0</ele><time>2026-04-04T09:20:29.095Z</time></trkpt><trkpt lat="44.2070409" lon="10.489824"><ele>1503.0</ele><time>2026-04-04T09:20:30.099Z</time></trkpt><trkpt lat="44.2071749" lon="10.4897314"><ele>1503.0</ele><time>2026-04-04T09:20:31.094Z</time></trkpt><trkpt lat="44.207274" lon="10.4895522"><ele>1503.0</ele><time>2026-04-04T09:20:32.082Z</time></trkpt><trkpt lat="44.2073506" lon="10.489379"><ele>1505.75</ele><time>2026-04-04T09:20:33.085Z</time></trkpt><trkpt lat="44.2074239" lon="10.4892158"><ele>1508.5</ele><time>2026-04-04T09:20:34.099Z</time></trkpt><trkpt lat="44.2075134" lon="10.489105"><ele>1511.25</ele><time>2026-04-04T09:20:35.098Z</time></trkpt><trkpt lat="44.2076385" lon="10.4890592"><ele>1514.0</ele><time>2026-04-04T09:20:36.108Z</time></trkpt><trkpt lat="44.20777" lon="10.4889736"><ele>1514.0</ele><time>2026-04-04T09:20:37.099Z</time></trkpt><trkpt lat="44.2079097" lon="10.4888533"><ele>1514.0</ele><time>2026-04-04T09:20:38.094Z</time></trkpt><trkpt lat="44.2080645" lon="10.4887806"><ele>1514.0</ele><time>2026-04-04T09:20:39.103Z</time></trkpt><trkpt lat="44.2082231" lon="10.4887702"><ele>1512.6666666666667</ele><time>2026-04-04T09:20:40.107Z</time></trkpt><trkpt lat="44.2083806" lon="10.4888092"><ele>1511.3333333333333</ele><time>2026-04-04T09:20:41.096Z</time></trkpt><trkpt lat="44.208539" lon="10.488862"><ele>1510.0</ele><time>2026-04-04T09:20:42.101Z</time></trkpt><trkpt lat="44.2086871" lon="10.4889404"><ele>1510.0</ele><time>2026-04-04T09:20:43.104Z</time></trkpt><trkpt lat="44.2088182" lon="10.4890194"><ele>1510.0</ele><time>2026-04-04T09:20:44.101Z</time></trkpt><trkpt lat="44.2089495" lon="10.4890549"><ele>1510.0</ele><time>2026-04-04T09:20:45.102Z</time></trkpt><trkpt lat="44.2090771" lon="10.4889959"><ele>1510.0</ele><time>2026-04-04T09:20:46.11Z</time></trkpt><trkpt lat="44.2091874" lon="10.4888959"><ele>1521.0</ele><time>2026-04-04T09:20:47.1Z</time></trkpt><trkpt lat="44.2092874" lon="10.4888206"><ele>1521.0</ele><time>2026-04-04T09:20:48.115Z</time></trkpt><trkpt lat="44.2093509" lon="10.4887949"><ele>1521.0</ele><time>2026-04-04T09:20:49.111Z</time></trkpt><trkpt lat="44.2094215" lon="10.4887556"><ele>1526.0</ele><time>2026-04-04T09:20:51.121Z</time></trkpt></trkseg><trkseg><trkpt lat="44.2067711" lon="10.4876147"><ele>1566.0</ele><time>2026-04-04T09:38:09.291Z</time></trkpt><trkpt lat="44.206695" lon="10.4876159"><ele>1566.0</ele><time>2026-04-04T09:38:10.279Z</time></trkpt><trkpt lat="44.2066074" lon="10.4876115"><ele>1566.0</ele><time>2026-04-04T09:38:11.284Z</time></trkpt><trkpt lat="44.2065023" lon="10.4875886"><ele>1566.0</ele><time>2026-04-04T09:38:12.279Z</time></trkpt><trkpt lat="44.2062443" lon="10.4874975"><ele>1568.25</ele><time>2026-04-04T09:38:14.282Z</time></trkpt><trkpt lat="44.2061159" lon="10.4874461"><ele>1570.5</ele><time>2026-04-04T09:38:15.281Z</time></trkpt><trkpt lat="44.2059839" lon="10.4874068"><ele>1572.75</ele><time>2026-04-04T09:38:16.275Z</time></trkpt><trkpt lat="44.205847" lon="10.4873927"><ele>1575.0</ele><time>2026-04-04T09:38:17.279Z</time></trkpt><trkpt lat="44.2057088" lon="10.4873822"><ele>1579.0</ele><time>2026-04-04T09:38:18.279Z</time></trkpt><trkpt lat="44.2055648" lon="10.4873503"><ele>1583.0</ele><time>2026-04-04T09:38:19.274Z</time></trkpt><trkpt lat="44.2054385" lon="10.4872783"><ele>1587.0</ele><time>2026-04-04T09:38:20.282Z</time></trkpt><trkpt lat="44.2053291" lon="10.4872391"><ele>1591.0</ele><time>2026-04-04T09:38:21.32Z</time></trkpt><trkpt lat="44.2052407" lon="10.487267"><ele>1591.0</ele><time>2026-04-04T09:38:22.301Z</time></trkpt><trkpt lat="44.2051513" lon="10.4873585"><ele>1591.0</ele><time>2026-04-04T09:38:23.295Z</time></trkpt><trkpt lat="44.2050492" lon="10.4874727"><ele>1591.0</ele><time>2026-04-04T09:38:24.304Z</time></trkpt><trkpt lat="44.2049271" lon="10.4875868"><ele>1591.0</ele><time>2026-04-04T09:38:25.307Z</time></trkpt><trkpt lat="44.2047897" lon="10.4876763"><ele>1596.3333333333335</ele><time>2026-04-04T09:38:26.302Z</time></trkpt><trkpt lat="44.2046318" lon="10.4877135"><ele>1601.6666666666665</ele><time>2026-04-04T09:38:27.302Z</time></trkpt><trkpt lat="44.2044468" lon="10.4877391"><ele>1607.0</ele><time>2026-04-04T09:38:28.298Z</time></trkpt><trkpt lat="44.20425" lon="10.4877668"><ele>1607.0</ele><time>2026-04-04T09:38:29.296Z</time></trkpt><trkpt lat="44.204071" lon="10.4877625"><ele>1607.0</ele><time>2026-04-04T09:38:30.303Z</time></trkpt><trkpt lat="44.2039081" lon="10.4877559"><ele>1607.0</ele><time>2026-04-04T09:38:31.291Z</time></trkpt><trkpt lat="44.2037546" lon="10.4877261"><ele>1606.0</ele><time>2026-04-04T09:38:32.298Z</time></trkpt><trkpt lat="44.2036146" lon="10.4876609"><ele>1605.0</ele><time>2026-04-04T09:38:33.3Z</time></trkpt><trkpt lat="44.2033407" lon="10.487423"><ele>1605.0</ele><time>2026-04-04T09:38:35.298Z</time></trkpt><trkpt lat="44.2031959" lon="10.4872924"><ele>1605.0</ele><time>2026-04-04T09:38:36.296Z</time></trkpt><trkpt lat="44.2030312" lon="10.487198"><ele>1605.0</ele><time>2026-04-04T09:38:37.296Z</time></trkpt><trkpt lat="44.2028513" lon="10.4871437"><ele>1604.6666666666665</ele><time>2026-04-04T09:38:38.303Z</time></trkpt><trkpt lat="44.2026562" lon="10.4871149"><ele>1604.3333333333333</ele><time>2026-04-04T09:38:39.314Z</time></trkpt><trkpt lat="44.2024704" lon="10.487103"><ele>1604.0</ele><time>2026-04-04T09:38:40.309Z</time></trkpt><trkpt lat="44.2023084" lon="10.4871105"><ele>1606.3333333333333</ele><time>2026-04-04T09:38:41.31Z</time></trkpt><trkpt lat="44.2021581" lon="10.4871785"><ele>1608.6666666666665</ele><time>2026-04-04T09:38:42.309Z</time></trkpt><trkpt lat="44.2019957" lon="10.4873063"><ele>1611.0</ele><time>2026-04-04T09:38:43.306Z</time></trkpt><trkpt lat="44.2018271" lon="10.4874424"><ele>1611.0</ele><time>2026-04-04T09:38:44.303Z</time></trkpt><trkpt lat="44.2016613" lon="10.4875761"><ele>1611.0</ele><time>2026-04-04T09:38:45.307Z</time></trkpt><trkpt lat="44.2015088" lon="10.4876978"><ele>1611.0</ele><time>2026-04-04T09:38:46.31Z</time></trkpt><trkpt lat="44.2013758" lon="10.4878264"><ele>1614.5</ele><time>2026-04-04T09:38:47.315Z</time></trkpt><trkpt lat="44.2012563" lon="10.4879443"><ele>1618.0</ele><time>2026-04-04T09:38:48.31Z</time></trkpt><trkpt lat="44.2011336" lon="10.4880273"><ele>1621.5</ele><time>2026-04-04T09:38:49.317Z</time></trkpt><trkpt lat="44.2010125" lon="10.4880483"><ele>1625.0</ele><time>2026-04-04T09:38:50.311Z</time></trkpt><trkpt lat="44.2008903" lon="10.4880325"><ele>1625.0</ele><time>2026-04-04T09:38:51.314Z</time></trkpt><trkpt lat="44.2007828" lon="10.4880266"><ele>1625.0</ele><time>2026-04-04T09:38:52.307Z</time></trkpt><trkpt lat="44.2006632" lon="10.4880438"><ele>1625.0</ele><time>2026-04-04T09:38:53.309Z</time></trkpt><trkpt lat="44.2005276" lon="10.4880568"><ele>1625.0</ele><time>2026-04-04T09:38:54.31Z</time></trkpt><trkpt lat="44.2002537" lon="10.4880772"><ele>1625.5</ele><time>2026-04-04T09:38:56.295Z</time></trkpt><trkpt lat="44.200143" lon="10.4880258"><ele>1626.0</ele><time>2026-04-04T09:38:57.318Z</time></trkpt><trkpt lat="44.2000161" lon="10.4879461"><ele>1626.5</ele><time>2026-04-04T09:38:58.295Z</time></trkpt><trkpt lat="44.1998822" lon="10.4878432"><ele>1627.0</ele><time>2026-04-04T09:38:59.291Z</time></trkpt><trkpt lat="44.1997464" lon="10.4877072"><ele>1627.0</ele><time>2026-04-04T09:39:00.3Z</time></trkpt><trkpt lat="44.1995961" lon="10.4875445"><ele>1627.0</ele><time>2026-04-04T09:39:01.298Z</time></trkpt><trkpt lat="44.1994391" lon="10.4873856"><ele>1627.0</ele><time>2026-04-04T09:39:02.296Z</time></trkpt><trkpt lat="44.1992804" lon="10.4872306"><ele>1625.0</ele><time>2026-04-04T09:39:03.292Z</time></trkpt><trkpt lat="44.199125" lon="10.4870743"><ele>1623.0</ele><time>2026-04-04T09:39:04.299Z</time></trkpt><trkpt lat="44.198984" lon="10.4869027"><ele>1621.0</ele><time>2026-04-04T09:39:05.299Z</time></trkpt><trkpt lat="44.1988727" lon="10.4867327"><ele>1621.0</ele><time>2026-04-04T09:39:06.302Z</time></trkpt><trkpt lat="44.1987548" lon="10.4865896"><ele>1621.0</ele><time>2026-04-04T09:39:07.301Z</time></trkpt><trkpt lat="44.1986239" lon="10.486473"><ele>1621.0</ele><time>2026-04-04T09:39:08.309Z</time></trkpt><trkpt lat="44.1984826" lon="10.4863625"><ele>1619.0</ele><time>2026-04-04T09:39:09.316Z</time></trkpt><trkpt lat="44.1983501" lon="10.4862398"><ele>1617.0</ele><time>2026-04-04T09:39:10.312Z</time></trkpt><trkpt lat="44.1982216" lon="10.48613"><ele>1615.0</ele><time>2026-04-04T09:39:11.305Z</time></trkpt><trkpt lat="44.1981159" lon="10.48604"><ele>1613.0</ele><time>2026-04-04T09:39:12.312Z</time></trkpt><trkpt lat="44.1980037" lon="10.4859838"><ele>1613.0</ele><time>2026-04-04T09:39:13.307Z</time></trkpt><trkpt lat="44.1978756" lon="10.485956"><ele>1613.0</ele><time>2026-04-04T09:39:14.305Z</time></trkpt><trkpt lat="44.1977343" lon="10.4859325"><ele>1613.0</ele><time>2026-04-04T09:39:15.314Z</time></trkpt><trkpt lat="44.19747" lon="10.4858291"><ele>1613.0</ele><time>2026-04-04T09:39:17.311Z</time></trkpt><trkpt lat="44.1973612" lon="10.4857402"><ele>1613.0</ele><time>2026-04-04T09:39:18.315Z</time></trkpt><trkpt lat="44.1972807" lon="10.4856473"><ele>1613.0</ele><time>2026-04-04T09:39:19.399Z</time></trkpt><trkpt lat="44.1972163" lon="10.4855562"><ele>1613.0</ele><time>2026-04-04T09:39:20.343Z</time></trkpt><trkpt lat="44.1971532" lon="10.4854661"><ele>1613.0</ele><time>2026-04-04T09:39:21.356Z</time></trkpt><trkpt lat="44.1970794" lon="10.4853867"><ele>1610.6000000000001</ele><time>2026-04-04T09:39:22.351Z</time></trkpt><trkpt lat="44.1970114" lon="10.4853049"><ele>1608.2</ele><time>2026-04-04T09:39:23.372Z</time></trkpt><trkpt lat="44.19695" lon="10.485216"><ele>1605.8</ele><time>2026-04-04T09:39:24.366Z</time></trkpt><trkpt lat="44.196887" lon="10.4851231"><ele>1603.4</ele><time>2026-04-04T09:39:25.359Z</time></trkpt><trkpt lat="44.196821" lon="10.4850247"><ele>1601.0</ele><time>2026-04-04T09:39:26.368Z</time></trkpt><trkpt lat="44.1967548" lon="10.484917"><ele>1601.0</ele><time>2026-04-04T09:39:27.375Z</time></trkpt><trkpt lat="44.1966771" lon="10.4848098"><ele>1601.0</ele><time>2026-04-04T09:39:28.367Z</time></trkpt><trkpt lat="44.1965935" lon="10.4847122"><ele>1601.0</ele><time>2026-04-04T09:39:29.363Z</time></trkpt><trkpt lat="44.196506" lon="10.4846339"><ele>1601.0</ele><time>2026-04-04T09:39:30.368Z</time></trkpt><trkpt lat="44.1964135" lon="10.4845721"><ele>1601.0</ele><time>2026-04-04T09:39:31.357Z</time></trkpt><trkpt lat="44.1963159" lon="10.4845374"><ele>1601.8</ele><time>2026-04-04T09:39:32.363Z</time></trkpt><trkpt lat="44.1962092" lon="10.484534"><ele>1602.6</ele><time>2026-04-04T09:39:33.348Z</time></trkpt><trkpt lat="44.1960983" lon="10.4845594"><ele>1603.4</ele><time>2026-04-04T09:39:34.354Z</time></trkpt><trkpt lat="44.1959902" lon="10.4845985"><ele>1604.2</ele><time>2026-04-04T09:39:35.345Z</time></trkpt><trkpt lat="44.1958794" lon="10.4846337"><ele>1605.0</ele><time>2026-04-04T09:39:36.346Z</time></trkpt><trkpt lat="44.1956714" lon="10.4846442"><ele>1607.2</ele><time>2026-04-04T09:39:38.336Z</time></trkpt><trkpt lat="44.1955709" lon="10.4846084"><ele>1609.4</ele><time>2026-04-04T09:39:39.339Z</time></trkpt><trkpt lat="44.1954747" lon="10.4845562"><ele>1611.6</ele><time>2026-04-04T09:39:40.344Z</time></trkpt><trkpt lat="44.1953714" lon="10.4844895"><ele>1613.8</ele><time>2026-04-04T09:39:41.336Z</time></trkpt><trkpt lat="44.1952724" lon="10.4844072"><ele>1616.0</ele><time>2026-04-04T09:39:42.333Z</time></trkpt><trkpt lat="44.1951901" lon="10.4843099"><ele>1611.6666666666665</ele><time>2026-04-04T09:39:43.333Z</time></trkpt><trkpt lat="44.1951189" lon="10.4842112"><ele>1607.3333333333333</ele><time>2026-04-04T09:39:44.334Z</time></trkpt><trkpt lat="44.1950591" lon="10.4841129"><ele>1603.0</ele><time>2026-04-04T09:39:45.341Z</time></trkpt><trkpt lat="44.1950074" lon="10.484015"><ele>1598.6666666666665</ele><time>2026-04-04T09:39:46.345Z</time></trkpt><trkpt lat="44.1949623" lon="10.48392"><ele>1594.3333333333333</ele><time>2026-04-04T09:39:47.338Z</time></trkpt><trkpt lat="44.1949252" lon="10.4838268"><ele>1590.0</ele><time>2026-04-04T09:39:48.371Z</time></trkpt><trkpt lat="44.1949021" lon="10.4837273"><ele>1587.142857142857</ele><time>2026-04-04T09:39:49.349Z</time></trkpt><trkpt lat="44.1948838" lon="10.483631"><ele>1584.2857142857142</ele><time>2026-04-04T09:39:50.343Z</time></trkpt><trkpt lat="44.1948682" lon="10.4835282"><ele>1581.4285714285716</ele><time>2026-04-04T09:39:51.353Z</time></trkpt><trkpt lat="44.1948637" lon="10.483423"><ele>1578.5714285714284</ele><time>2026-04-04T09:39:52.349Z</time></trkpt><trkpt lat="44.194861" lon="10.4833284"><ele>1575.7142857142856</ele><time>2026-04-04T09:39:53.345Z</time></trkpt><trkpt lat="44.1948603" lon="10.4832329"><ele>1572.857142857143</ele><time>2026-04-04T09:39:54.352Z</time></trkpt><trkpt lat="44.1948527" lon="10.4831377"><ele>1570.0</ele><time>2026-04-04T09:39:55.35Z</time></trkpt><trkpt lat="44.1948415" lon="10.4830426"><ele>1570.1666666666667</ele><time>2026-04-04T09:39:56.346Z</time></trkpt><trkpt lat="44.1948204" lon="10.4829571"><ele>1570.3333333333335</ele><time>2026-04-04T09:39:57.351Z</time></trkpt><trkpt lat="44.19473" lon="10.482815"><ele>1570.5</ele><time>2026-04-04T09:39:59.341Z</time></trkpt><trkpt lat="44.1946708" lon="10.482758"><ele>1570.6666666666665</ele><time>2026-04-04T09:40:00.353Z</time></trkpt><trkpt lat="44.1946" lon="10.4827083"><ele>1570.8333333333333</ele><time>2026-04-04T09:40:01.34Z</time></trkpt><trkpt lat="44.1945218" lon="10.4826712"><ele>1571.0</ele><time>2026-04-04T09:40:02.342Z</time></trkpt><trkpt lat="44.1944315" lon="10.482635"><ele>1571.0</ele><time>2026-04-04T09:40:03.339Z</time></trkpt><trkpt lat="44.1943317" lon="10.4825892"><ele>1571.0</ele><time>2026-04-04T09:40:04.342Z</time></trkpt><trkpt lat="44.1942321" lon="10.4825227"><ele>1571.0</ele><time>2026-04-04T09:40:05.338Z</time></trkpt><trkpt lat="44.1941463" lon="10.4824698"><ele>1571.0</ele><time>2026-04-04T09:40:06.345Z</time></trkpt><trkpt lat="44.1942061" lon="10.4825507"><ele>1571.0</ele><time>2026-04-04T09:40:28.356Z</time></trkpt><trkpt lat="44.1944667" lon="10.4827198"><ele>1571.0</ele><time>2026-04-04T09:40:30.363Z</time></trkpt><trkpt lat="44.194614" lon="10.482813"><ele>1571.0</ele><time>2026-04-04T09:40:31.352Z</time></trkpt><trkpt lat="44.1947589" lon="10.4829377"><ele>1571.0</ele><time>2026-04-04T09:40:32.348Z</time></trkpt><trkpt lat="44.194848" lon="10.4830946"><ele>1570.75</ele><time>2026-04-04T09:40:33.357Z</time></trkpt><trkpt lat="44.1948882" lon="10.4832473"><ele>1570.5</ele><time>2026-04-04T09:40:34.346Z</time></trkpt><trkpt lat="44.1948938" lon="10.4833981"><ele>1570.25</ele><time>2026-04-04T09:40:35.351Z</time></trkpt><trkpt lat="44.194902" lon="10.4835636"><ele>1570.0</ele><time>2026-04-04T09:40:36.352Z</time></trkpt><trkpt lat="44.1949305" lon="10.4837451"><ele>1575.0</ele><time>2026-04-04T09:40:37.345Z</time></trkpt><trkpt lat="44.1949812" lon="10.4839176"><ele>1580.0</ele><time>2026-04-04T09:40:38.343Z</time></trkpt><trkpt lat="44.1950505" lon="10.4840846"><ele>1585.0</ele><time>2026-04-04T09:40:39.341Z</time></trkpt><trkpt lat="44.1951415" lon="10.4842293"><ele>1590.0</ele><time>2026-04-04T09:40:40.343Z</time></trkpt><trkpt lat="44.195255" lon="10.4843473"><ele>1590.0</ele><time>2026-04-04T09:40:41.343Z</time></trkpt><trkpt lat="44.1953729" lon="10.4844615"><ele>1590.0</ele><time>2026-04-04T09:40:42.349Z</time></trkpt><trkpt lat="44.1954949" lon="10.4845704"><ele>1590.0</ele><time>2026-04-04T09:40:43.346Z</time></trkpt><trkpt lat="44.1956116" lon="10.4846391"><ele>1590.0</ele><time>2026-04-04T09:40:44.336Z</time></trkpt><trkpt lat="44.1957263" lon="10.4846867"><ele>1593.75</ele><time>2026-04-04T09:40:45.347Z</time></trkpt><trkpt lat="44.195847" lon="10.4847043"><ele>1597.5</ele><time>2026-04-04T09:40:46.343Z</time></trkpt><trkpt lat="44.1959679" lon="10.4846952"><ele>1601.25</ele><time>2026-04-04T09:40:47.35Z</time></trkpt><trkpt lat="44.196104" lon="10.4846639"><ele>1605.0</ele><time>2026-04-04T09:40:48.355Z</time></trkpt><trkpt lat="44.196229" lon="10.4846277"><ele>1605.0</ele><time>2026-04-04T09:40:49.355Z</time></trkpt><trkpt lat="44.1964728" lon="10.4846447"><ele>1605.0</ele><time>2026-04-04T09:40:51.365Z</time></trkpt><trkpt lat="44.1965828" lon="10.4847207"><ele>1605.0</ele><time>2026-04-04T09:40:52.36Z</time></trkpt><trkpt lat="44.196688" lon="10.484814"><ele>1604.0</ele><time>2026-04-04T09:40:53.364Z</time></trkpt><trkpt lat="44.1967841" lon="10.4849262"><ele>1603.0</ele><time>2026-04-04T09:40:54.354Z</time></trkpt><trkpt lat="44.1968753" lon="10.4850498"><ele>1602.0</ele><time>2026-04-04T09:40:55.357Z</time></trkpt><trkpt lat="44.1969523" lon="10.4851787"><ele>1601.0</ele><time>2026-04-04T09:40:56.369Z</time></trkpt><trkpt lat="44.1970279" lon="10.4852998"><ele>1600.9999999999998</ele><time>2026-04-04T09:40:57.372Z</time></trkpt><trkpt lat="44.1970998" lon="10.4854006"><ele>1601.0</ele><time>2026-04-04T09:40:58.371Z</time></trkpt><trkpt lat="44.1971586" lon="10.4854913"><ele>1601.0</ele><time>2026-04-04T09:40:59.37Z</time></trkpt><trkpt lat="44.1972111" lon="10.4855612"><ele>1601.0</ele><time>2026-04-04T09:41:00.37Z</time></trkpt><trkpt lat="44.1972785" lon="10.4856603"><ele>1600.9999999999998</ele><time>2026-04-04T09:41:02.366Z</time></trkpt><trkpt lat="44.1973218" lon="10.4857298"><ele>1601.0</ele><time>2026-04-04T09:41:05.37Z</time></trkpt><trkpt lat="44.1973746" lon="10.4858061"><ele>1601.0</ele><time>2026-04-04T09:41:09.372Z</time></trkpt><trkpt lat="44.1973714" lon="10.4856935"><ele>1601.0</ele><time>2026-04-04T09:41:24.37Z</time></trkpt><trkpt lat="44.1965223" lon="10.4846942"><ele>1601.6666666666665</ele><time>2026-04-04T09:47:39.663Z</time></trkpt><trkpt lat="44.1964587" lon="10.4846516"><ele>1602.3333333333333</ele><time>2026-04-04T09:47:40.642Z</time></trkpt><trkpt lat="44.1963917" lon="10.4846053"><ele>1603.0</ele><time>2026-04-04T09:47:41.678Z</time></trkpt><trkpt lat="44.1963247" lon="10.4845724"><ele>1603.6666666666665</ele><time>2026-04-04T09:47:42.639Z</time></trkpt><trkpt lat="44.1962465" lon="10.484558"><ele>1604.3333333333333</ele><time>2026-04-04T09:47:43.634Z</time></trkpt><trkpt lat="44.196153" lon="10.4845663"><ele>1605.0</ele><time>2026-04-04T09:47:44.628Z</time></trkpt><trkpt lat="44.1960502" lon="10.4845878"><ele>1605.0</ele><time>2026-04-04T09:47:45.611Z</time></trkpt><trkpt lat="44.1959388" lon="10.4846168"><ele>1605.0</ele><time>2026-04-04T09:47:46.619Z</time></trkpt><trkpt lat="44.195826" lon="10.4846398"><ele>1605.0</ele><time>2026-04-04T09:47:47.634Z</time></trkpt><trkpt lat="44.1957106" lon="10.4846406"><ele>1605.0</ele><time>2026-04-04T09:47:48.611Z</time></trkpt><trkpt lat="44.1955897" lon="10.4845987"><ele>1600.0</ele><time>2026-04-04T09:47:49.612Z</time></trkpt><trkpt lat="44.1954629" lon="10.48452"><ele>1595.0</ele><time>2026-04-04T09:47:50.604Z</time></trkpt><trkpt lat="44.1953317" lon="10.4844186"><ele>1590.0</ele><time>2026-04-04T09:47:51.602Z</time></trkpt><trkpt lat="44.1952074" lon="10.4842763"><ele>1590.0</ele><time>2026-04-04T09:47:52.635Z</time></trkpt><trkpt lat="44.1950935" lon="10.4841046"><ele>1590.0</ele><time>2026-04-04T09:47:53.613Z</time></trkpt><trkpt lat="44.1949914" lon="10.4839132"><ele>1590.0</ele><time>2026-04-04T09:47:54.614Z</time></trkpt><trkpt lat="44.1949147" lon="10.4837247"><ele>1593.25</ele><time>2026-04-04T09:47:55.613Z</time></trkpt><trkpt lat="44.1948659" lon="10.4835333"><ele>1596.5</ele><time>2026-04-04T09:47:56.611Z</time></trkpt><trkpt lat="44.1948442" lon="10.4833383"><ele>1599.75</ele><time>2026-04-04T09:47:57.641Z</time></trkpt><trkpt lat="44.1948364" lon="10.4831515"><ele>1603.0</ele><time>2026-04-04T09:47:58.617Z</time></trkpt><trkpt lat="44.1948196" lon="10.4829912"><ele>1595.0</ele><time>2026-04-04T09:47:59.637Z</time></trkpt><trkpt lat="44.194768" lon="10.4828567"><ele>1587.0</ele><time>2026-04-04T09:48:00.641Z</time></trkpt><trkpt lat="44.194678" lon="10.4827466"><ele>1579.0</ele><time>2026-04-04T09:48:01.633Z</time></trkpt><trkpt lat="44.1945486" lon="10.482665"><ele>1571.0</ele><time>2026-04-04T09:48:02.612Z</time></trkpt><trkpt lat="44.1943847" lon="10.482591"><ele>1571.0</ele><time>2026-04-04T09:48:03.635Z</time></trkpt><trkpt lat="44.1942109" lon="10.4825155"><ele>1571.0</ele><time>2026-04-04T09:48:04.627Z</time></trkpt><trkpt lat="44.1940245" lon="10.4824141"><ele>1571.0</ele><time>2026-04-04T09:48:05.612Z</time></trkpt><trkpt lat="44.1938304" lon="10.4822916"><ele>1570.3333333333333</ele><time>2026-04-04T09:48:06.616Z</time></trkpt><trkpt lat="44.1936518" lon="10.4821739"><ele>1569.6666666666665</ele><time>2026-04-04T09:48:07.609Z</time></trkpt><trkpt lat="44.1935019" lon="10.4820763"><ele>1569.0</ele><time>2026-04-04T09:48:08.605Z</time></trkpt><trkpt lat="44.1933951" lon="10.4820147"><ele>1569.0</ele><time>2026-04-04T09:48:09.617Z</time></trkpt><trkpt lat="44.1933382" lon="10.481936"><ele>1569.0</ele><time>2026-04-04T09:48:10.615Z</time></trkpt><trkpt lat="44.193326" lon="10.4818128"><ele>1569.0</ele><time>2026-04-04T09:48:11.61Z</time></trkpt><trkpt lat="44.1933271" lon="10.4816541"><ele>1569.0</ele><time>2026-04-04T09:48:12.61Z</time></trkpt><trkpt lat="44.1933277" lon="10.4814684"><ele>1569.0</ele><time>2026-04-04T09:48:13.608Z</time></trkpt><trkpt lat="44.1933231" lon="10.4812782"><ele>1565.0</ele><time>2026-04-04T09:48:14.611Z</time></trkpt><trkpt lat="44.1933005" lon="10.4811232"><ele>1561.0</ele><time>2026-04-04T09:48:15.637Z</time></trkpt><trkpt lat="44.1932627" lon="10.4810166"><ele>1557.0</ele><time>2026-04-04T09:48:16.636Z</time></trkpt><trkpt lat="44.1932048" lon="10.4809662"><ele>1553.0</ele><time>2026-04-04T09:48:17.652Z</time></trkpt><trkpt lat="44.1931241" lon="10.4809681"><ele>1549.0</ele><time>2026-04-04T09:48:18.63Z</time></trkpt><trkpt lat="44.1930096" lon="10.4810099"><ele>1549.0</ele><time>2026-04-04T09:48:19.626Z</time></trkpt><trkpt lat="44.1928694" lon="10.4810598"><ele>1549.0</ele><time>2026-04-04T09:48:20.613Z</time></trkpt><trkpt lat="44.1927027" lon="10.4811038"><ele>1549.0</ele><time>2026-04-04T09:48:21.608Z</time></trkpt><trkpt lat="44.1925105" lon="10.4811235"><ele>1545.3333333333335</ele><time>2026-04-04T09:48:22.612Z</time></trkpt><trkpt lat="44.1922954" lon="10.4811422"><ele>1541.6666666666665</ele><time>2026-04-04T09:48:23.619Z</time></trkpt><trkpt lat="44.1920766" lon="10.4811287"><ele>1538.0</ele><time>2026-04-04T09:48:24.61Z</time></trkpt><trkpt lat="44.1918751" lon="10.4811155"><ele>1538.0</ele><time>2026-04-04T09:48:25.609Z</time></trkpt><trkpt lat="44.191677" lon="10.4810892"><ele>1538.0</ele><time>2026-04-04T09:48:26.641Z</time></trkpt><trkpt lat="44.1915037" lon="10.4810297"><ele>1538.0</ele><time>2026-04-04T09:48:27.65Z</time></trkpt><trkpt lat="44.1913358" lon="10.48098"><ele>1533.6666666666665</ele><time>2026-04-04T09:48:28.633Z</time></trkpt><trkpt lat="44.191181" lon="10.4809403"><ele>1529.3333333333333</ele><time>2026-04-04T09:48:29.637Z</time></trkpt><trkpt lat="44.1910338" lon="10.4808976"><ele>1525.0</ele><time>2026-04-04T09:48:30.627Z</time></trkpt><trkpt lat="44.1908948" lon="10.4808525"><ele>1525.0</ele><time>2026-04-04T09:48:31.632Z</time></trkpt><trkpt lat="44.1907733" lon="10.4807942"><ele>1525.0</ele><time>2026-04-04T09:48:32.63Z</time></trkpt><trkpt lat="44.1906618" lon="10.4807405"><ele>1525.0</ele><time>2026-04-04T09:48:33.637Z</time></trkpt><trkpt lat="44.1905571" lon="10.4807057"><ele>1525.0</ele><time>2026-04-04T09:48:34.629Z</time></trkpt><trkpt lat="44.1904582" lon="10.4806834"><ele>1523.8333333333333</ele><time>2026-04-04T09:48:35.627Z</time></trkpt><trkpt lat="44.1903715" lon="10.4806531"><ele>1522.6666666666665</ele><time>2026-04-04T09:48:36.624Z</time></trkpt><trkpt lat="44.1902851" lon="10.4806241"><ele>1521.5</ele><time>2026-04-04T09:48:37.624Z</time></trkpt><trkpt lat="44.1902036" lon="10.480594"><ele>1520.3333333333333</ele><time>2026-04-04T09:48:38.628Z</time></trkpt><trkpt lat="44.1901226" lon="10.4805756"><ele>1519.1666666666667</ele><time>2026-04-04T09:48:39.628Z</time></trkpt><trkpt lat="44.1900441" lon="10.4805663"><ele>1518.0</ele><time>2026-04-04T09:48:40.622Z</time></trkpt><trkpt lat="44.1899709" lon="10.4805778"><ele>1518.0</ele><time>2026-04-04T09:48:41.634Z</time></trkpt><trkpt lat="44.1899061" lon="10.4805986"><ele>1518.0</ele><time>2026-04-04T09:48:42.627Z</time></trkpt><trkpt lat="44.1898015" lon="10.4806354"><ele>1518.0</ele><time>2026-04-04T09:48:44.621Z</time></trkpt><trkpt lat="44.1897159" lon="10.4806899"><ele>1518.0</ele><time>2026-04-04T09:48:46.624Z</time></trkpt><trkpt lat="44.189695" lon="10.4808129"><ele>1518.0</ele><time>2026-04-04T09:48:48.621Z</time></trkpt><trkpt lat="44.1897163" lon="10.4809071"><ele>1518.0</ele><time>2026-04-04T09:48:49.63Z</time></trkpt><trkpt lat="44.1897443" lon="10.480998"><ele>1514.2</ele><time>2026-04-04T09:48:50.617Z</time></trkpt><trkpt lat="44.1897623" lon="10.4810867"><ele>1510.4</ele><time>2026-04-04T09:48:51.617Z</time></trkpt><trkpt lat="44.1897154" lon="10.4811874"><ele>1506.6000000000001</ele><time>2026-04-04T09:48:53.621Z</time></trkpt><trkpt lat="44.1896016" lon="10.4811182"><ele>1502.8000000000002</ele><time>2026-04-04T09:48:55.619Z</time></trkpt><trkpt lat="44.1895005" lon="10.4810342"><ele>1499.0</ele><time>2026-04-04T09:48:56.619Z</time></trkpt><trkpt lat="44.1893966" lon="10.480936"><ele>1499.0</ele><time>2026-04-04T09:48:57.612Z</time></trkpt><trkpt lat="44.1892853" lon="10.4808155"><ele>1499.0</ele><time>2026-04-04T09:48:58.613Z</time></trkpt><trkpt lat="44.1891794" lon="10.4806829"><ele>1499.0</ele><time>2026-04-04T09:48:59.624Z</time></trkpt><trkpt lat="44.1890804" lon="10.4805551"><ele>1499.0</ele><time>2026-04-04T09:49:00.619Z</time></trkpt><trkpt lat="44.1889807" lon="10.4804336"><ele>1493.75</ele><time>2026-04-04T09:49:01.621Z</time></trkpt><trkpt lat="44.1888876" lon="10.4803104"><ele>1488.5</ele><time>2026-04-04T09:49:02.626Z</time></trkpt><trkpt lat="44.1887913" lon="10.4801846"><ele>1483.25</ele><time>2026-04-04T09:49:03.624Z</time></trkpt><trkpt lat="44.1887034" lon="10.4800582"><ele>1478.0</ele><time>2026-04-04T09:49:04.632Z</time></trkpt><trkpt lat="44.1886174" lon="10.4799289"><ele>1478.0</ele><time>2026-04-04T09:49:05.631Z</time></trkpt><trkpt lat="44.1885353" lon="10.4798018"><ele>1478.0</ele><time>2026-04-04T09:49:06.635Z</time></trkpt><trkpt lat="44.1884523" lon="10.479684"><ele>1478.0</ele><time>2026-04-04T09:49:07.63Z</time></trkpt><trkpt lat="44.1883697" lon="10.4795783"><ele>1478.0</ele><time>2026-04-04T09:49:08.632Z</time></trkpt><trkpt lat="44.1882789" lon="10.4795032"><ele>1476.1666666666667</ele><time>2026-04-04T09:49:09.629Z</time></trkpt><trkpt lat="44.1881882" lon="10.4794851"><ele>1474.3333333333335</ele><time>2026-04-04T09:49:10.622Z</time></trkpt><trkpt lat="44.1880968" lon="10.4794952"><ele>1472.5</ele><time>2026-04-04T09:49:11.636Z</time></trkpt><trkpt lat="44.1880105" lon="10.4795038"><ele>1470.6666666666667</ele><time>2026-04-04T09:49:12.637Z</time></trkpt><trkpt lat="44.1879352" lon="10.4795147"><ele>1468.8333333333333</ele><time>2026-04-04T09:49:13.638Z</time></trkpt><trkpt lat="44.187872" lon="10.4795318"><ele>1467.0</ele><time>2026-04-04T09:49:14.656Z</time></trkpt><trkpt lat="44.1878258" lon="10.4796373"><ele>1465.5</ele><time>2026-04-04T09:49:16.671Z</time></trkpt><trkpt lat="44.1878713" lon="10.4797191"><ele>1464.0</ele><time>2026-04-04T09:49:17.647Z</time></trkpt><trkpt lat="44.187939" lon="10.4797684"><ele>1462.5</ele><time>2026-04-04T09:49:18.637Z</time></trkpt><trkpt lat="44.1880209" lon="10.479809"><ele>1461.0</ele><time>2026-04-04T09:49:19.633Z</time></trkpt><trkpt lat="44.1880983" lon="10.4798566"><ele>1459.5</ele><time>2026-04-04T09:49:20.635Z</time></trkpt><trkpt lat="44.1881558" lon="10.4799128"><ele>1458.0</ele><time>2026-04-04T09:49:21.621Z</time></trkpt><trkpt lat="44.1881122" lon="10.4799907"><ele>1458.0</ele><time>2026-04-04T09:49:23.622Z</time></trkpt><trkpt lat="44.1879802" lon="10.4800031"><ele>1458.0</ele><time>2026-04-04T09:49:25.642Z</time></trkpt><trkpt lat="44.1878859" lon="10.4799681"><ele>1458.0</ele><time>2026-04-04T09:49:26.62Z</time></trkpt><trkpt lat="44.1877811" lon="10.4799287"><ele>1458.0</ele><time>2026-04-04T09:49:27.619Z</time></trkpt><trkpt lat="44.187677" lon="10.4798981"><ele>1458.0</ele><time>2026-04-04T09:49:28.623Z</time></trkpt><trkpt lat="44.1875844" lon="10.4798742"><ele>1458.0</ele><time>2026-04-04T09:49:29.627Z</time></trkpt><trkpt lat="44.1875054" lon="10.4798441"><ele>1458.0</ele><time>2026-04-04T09:49:30.628Z</time></trkpt><trkpt lat="44.1874363" lon="10.4798093"><ele>1458.0</ele><time>2026-04-04T09:49:31.626Z</time></trkpt><trkpt lat="44.1873706" lon="10.4797726"><ele>1458.0</ele><time>2026-04-04T09:49:32.629Z</time></trkpt><trkpt lat="44.1873085" lon="10.4797338"><ele>1458.0</ele><time>2026-04-04T09:49:33.63Z</time></trkpt><trkpt lat="44.1872555" lon="10.4796736"><ele>1458.0</ele><time>2026-04-04T09:49:34.628Z</time></trkpt><trkpt lat="44.1872075" lon="10.4796076"><ele>1458.0</ele><time>2026-04-04T09:49:35.638Z</time></trkpt><trkpt lat="44.1871674" lon="10.4795365"><ele>1453.0</ele><time>2026-04-04T09:49:36.635Z</time></trkpt><trkpt lat="44.1870685" lon="10.4794915"><ele>1448.0</ele><time>2026-04-04T09:49:38.663Z</time></trkpt><trkpt lat="44.1870081" lon="10.4796209"><ele>1443.0</ele><time>2026-04-04T09:49:40.628Z</time></trkpt><trkpt lat="44.1870159" lon="10.4797952"><ele>1438.0</ele><time>2026-04-04T09:49:42.631Z</time></trkpt><trkpt lat="44.18707" lon="10.4798721"><ele>1433.0</ele><time>2026-04-04T09:49:43.623Z</time></trkpt><trkpt lat="44.187139" lon="10.4799472"><ele>1432.8333333333335</ele><time>2026-04-04T09:49:44.621Z</time></trkpt><trkpt lat="44.187216" lon="10.4800135"><ele>1432.6666666666667</ele><time>2026-04-04T09:49:45.619Z</time></trkpt><trkpt lat="44.1872966" lon="10.4800842"><ele>1432.5</ele><time>2026-04-04T09:49:46.622Z</time></trkpt><trkpt lat="44.1873702" lon="10.4801414"><ele>1432.3333333333333</ele><time>2026-04-04T09:49:47.624Z</time></trkpt><trkpt lat="44.1874372" lon="10.4801805"><ele>1432.1666666666665</ele><time>2026-04-04T09:49:48.606Z</time></trkpt><trkpt lat="44.187497" lon="10.4802739"><ele>1432.0</ele><time>2026-04-04T09:49:50.62Z</time></trkpt><trkpt lat="44.1874102" lon="10.4802949"><ele>1432.0</ele><time>2026-04-04T09:49:52.629Z</time></trkpt><trkpt lat="44.1873398" lon="10.4802615"><ele>1432.0</ele><time>2026-04-04T09:49:53.619Z</time></trkpt><trkpt lat="44.1872547" lon="10.4802271"><ele>1432.0</ele><time>2026-04-04T09:49:54.61Z</time></trkpt><trkpt lat="44.1871601" lon="10.4801899"><ele>1432.0</ele><time>2026-04-04T09:49:55.603Z</time></trkpt><trkpt lat="44.1870478" lon="10.4801572"><ele>1432.0</ele><time>2026-04-04T09:49:56.625Z</time></trkpt><trkpt lat="44.1869204" lon="10.4801355"><ele>1432.0</ele><time>2026-04-04T09:49:57.613Z</time></trkpt><trkpt lat="44.1867784" lon="10.4801101"><ele>1432.0</ele><time>2026-04-04T09:49:58.611Z</time></trkpt><trkpt lat="44.1866328" lon="10.4800552"><ele>1432.0</ele><time>2026-04-04T09:49:59.617Z</time></trkpt><trkpt lat="44.1864831" lon="10.4799666"><ele>1424.0</ele><time>2026-04-04T09:50:00.599Z</time></trkpt><trkpt lat="44.1863461" lon="10.4798326"><ele>1416.0</ele><time>2026-04-04T09:50:01.603Z</time></trkpt><trkpt lat="44.1862455" lon="10.4796305"><ele>1408.0</ele><time>2026-04-04T09:50:02.61Z</time></trkpt><trkpt lat="44.1861639" lon="10.4794502"><ele>1408.0</ele><time>2026-04-04T09:50:03.615Z</time></trkpt><trkpt lat="44.1860975" lon="10.4792976"><ele>1408.0</ele><time>2026-04-04T09:50:04.623Z</time></trkpt><trkpt lat="44.1860184" lon="10.4791963"><ele>1408.0</ele><time>2026-04-04T09:50:05.645Z</time></trkpt><trkpt lat="44.1859427" lon="10.4791081"><ele>1408.0</ele><time>2026-04-04T09:50:06.633Z</time></trkpt><trkpt lat="44.1858985" lon="10.4790114"><ele>1408.0</ele><time>2026-04-04T09:50:07.653Z</time></trkpt><trkpt lat="44.1858905" lon="10.4789043"><ele>1408.0</ele><time>2026-04-04T09:50:08.632Z</time></trkpt><trkpt lat="44.1859199" lon="10.4787935"><ele>1408.0</ele><time>2026-04-04T09:50:09.626Z</time></trkpt><trkpt lat="44.1859491" lon="10.4787027"><ele>1408.0</ele><time>2026-04-04T09:50:10.62Z</time></trkpt><trkpt lat="44.1859198" lon="10.4785694"><ele>1408.0</ele><time>2026-04-04T09:50:12.629Z</time></trkpt><trkpt lat="44.1858413" lon="10.478544"><ele>1408.0</ele><time>2026-04-04T09:50:13.66Z</time></trkpt><trkpt lat="44.1857302" lon="10.4785256"><ele>1408.0</ele><time>2026-04-04T09:50:14.629Z</time></trkpt><trkpt lat="44.1856046" lon="10.478506"><ele>1402.75</ele><time>2026-04-04T09:50:15.628Z</time></trkpt><trkpt lat="44.1854634" lon="10.4784905"><ele>1397.5</ele><time>2026-04-04T09:50:16.636Z</time></trkpt><trkpt lat="44.1853194" lon="10.4784736"><ele>1392.25</ele><time>2026-04-04T09:50:17.635Z</time></trkpt><trkpt lat="44.1851784" lon="10.4784571"><ele>1387.0</ele><time>2026-04-04T09:50:18.632Z</time></trkpt><trkpt lat="44.1850423" lon="10.4784349"><ele>1387.0</ele><time>2026-04-04T09:50:19.628Z</time></trkpt><trkpt lat="44.184924" lon="10.4783687"><ele>1387.0</ele><time>2026-04-04T09:50:20.631Z</time></trkpt><trkpt lat="44.1848176" lon="10.4782503"><ele>1387.0</ele><time>2026-04-04T09:50:21.637Z</time></trkpt><trkpt lat="44.1847252" lon="10.4781047"><ele>1387.0</ele><time>2026-04-04T09:50:22.64Z</time></trkpt><trkpt lat="44.1846465" lon="10.4779455"><ele>1384.0</ele><time>2026-04-04T09:50:23.636Z</time></trkpt><trkpt lat="44.1845874" lon="10.4777892"><ele>1381.0</ele><time>2026-04-04T09:50:24.634Z</time></trkpt><trkpt lat="44.1845277" lon="10.4776486"><ele>1378.0</ele><time>2026-04-04T09:50:25.629Z</time></trkpt><trkpt lat="44.1844536" lon="10.4775141"><ele>1375.0</ele><time>2026-04-04T09:50:26.628Z</time></trkpt><trkpt lat="44.1843681" lon="10.4774103"><ele>1375.0</ele><time>2026-04-04T09:50:27.641Z</time></trkpt><trkpt lat="44.1842601" lon="10.477335"><ele>1375.0</ele><time>2026-04-04T09:50:28.63Z</time></trkpt><trkpt lat="44.1841386" lon="10.477274"><ele>1375.0</ele><time>2026-04-04T09:50:29.622Z</time></trkpt><trkpt lat="44.1840188" lon="10.4772439"><ele>1375.0</ele><time>2026-04-04T09:50:30.618Z</time></trkpt><trkpt lat="44.1838883" lon="10.4772352"><ele>1371.0</ele><time>2026-04-04T09:50:31.612Z</time></trkpt><trkpt lat="44.1837385" lon="10.4772392"><ele>1367.0</ele><time>2026-04-04T09:50:32.623Z</time></trkpt><trkpt lat="44.1835709" lon="10.4772482"><ele>1363.0</ele><time>2026-04-04T09:50:33.625Z</time></trkpt><trkpt lat="44.1833983" lon="10.477206"><ele>1363.0</ele><time>2026-04-04T09:50:34.635Z</time></trkpt><trkpt lat="44.1832552" lon="10.4771254"><ele>1363.0</ele><time>2026-04-04T09:50:35.629Z</time></trkpt><trkpt lat="44.1831337" lon="10.4770688"><ele>1363.0</ele><time>2026-04-04T09:50:36.636Z</time></trkpt><trkpt lat="44.1830199" lon="10.4770262"><ele>1363.0</ele><time>2026-04-04T09:50:37.639Z</time></trkpt><trkpt lat="44.1829255" lon="10.4769527"><ele>1354.75</ele><time>2026-04-04T09:50:38.639Z</time></trkpt><trkpt lat="44.1828462" lon="10.4768166"><ele>1346.5</ele><time>2026-04-04T09:50:39.639Z</time></trkpt><trkpt lat="44.1827619" lon="10.4766848"><ele>1338.25</ele><time>2026-04-04T09:50:40.632Z</time></trkpt><trkpt lat="44.1826852" lon="10.4765424"><ele>1330.0</ele><time>2026-04-04T09:50:41.637Z</time></trkpt><trkpt lat="44.1826118" lon="10.4763771"><ele>1335.0</ele><time>2026-04-04T09:50:42.632Z</time></trkpt><trkpt lat="44.1825216" lon="10.4761903"><ele>1340.0</ele><time>2026-04-04T09:50:43.628Z</time></trkpt><trkpt lat="44.1824444" lon="10.4759882"><ele>1345.0</ele><time>2026-04-04T09:50:44.633Z</time></trkpt><trkpt lat="44.1823752" lon="10.4757801"><ele>1336.6666666666665</ele><time>2026-04-04T09:50:45.632Z</time></trkpt><trkpt lat="44.1823166" lon="10.4755753"><ele>1328.3333333333333</ele><time>2026-04-04T09:50:46.628Z</time></trkpt><trkpt lat="44.1822614" lon="10.4753684"><ele>1320.0</ele><time>2026-04-04T09:50:47.632Z</time></trkpt><trkpt lat="44.1821777" lon="10.4751836"><ele>1320.0</ele><time>2026-04-04T09:50:48.623Z</time></trkpt><trkpt lat="44.1820729" lon="10.4750205"><ele>1320.0</ele><time>2026-04-04T09:50:49.613Z</time></trkpt><trkpt lat="44.1819452" lon="10.4748736"><ele>1320.0</ele><time>2026-04-04T09:50:50.615Z</time></trkpt><trkpt lat="44.1818068" lon="10.4747278"><ele>1323.3333333333333</ele><time>2026-04-04T09:50:51.616Z</time></trkpt><trkpt lat="44.1816662" lon="10.4745829"><ele>1326.6666666666665</ele><time>2026-04-04T09:50:52.633Z</time></trkpt><trkpt lat="44.1815373" lon="10.4744319"><ele>1330.0</ele><time>2026-04-04T09:50:53.623Z</time></trkpt><trkpt lat="44.1814109" lon="10.474273"><ele>1319.3333333333333</ele><time>2026-04-04T09:50:54.622Z</time></trkpt><trkpt lat="44.1812934" lon="10.4741071"><ele>1308.6666666666667</ele><time>2026-04-04T09:50:55.625Z</time></trkpt><trkpt lat="44.1811888" lon="10.4739538"><ele>1298.0</ele><time>2026-04-04T09:50:56.623Z</time></trkpt><trkpt lat="44.1810799" lon="10.4738269"><ele>1300.2</ele><time>2026-04-04T09:50:57.624Z</time></trkpt><trkpt lat="44.1809707" lon="10.4737278"><ele>1302.4</ele><time>2026-04-04T09:50:58.63Z</time></trkpt><trkpt lat="44.180853" lon="10.4736535"><ele>1304.6000000000001</ele><time>2026-04-04T09:50:59.642Z</time></trkpt><trkpt lat="44.1807561" lon="10.4735919"><ele>1306.8000000000002</ele><time>2026-04-04T09:51:00.638Z</time></trkpt><trkpt lat="44.1807003" lon="10.4735216"><ele>1309.0</ele><time>2026-04-04T09:51:01.628Z</time></trkpt><trkpt lat="44.1807101" lon="10.4733285"><ele>1309.0</ele><time>2026-04-04T09:51:03.639Z</time></trkpt><trkpt lat="44.1807673" lon="10.473199"><ele>1309.0</ele><time>2026-04-04T09:51:04.636Z</time></trkpt><trkpt lat="44.1808282" lon="10.4730605"><ele>1309.0</ele><time>2026-04-04T09:51:05.629Z</time></trkpt><trkpt lat="44.1808886" lon="10.4729016"><ele>1309.0</ele><time>2026-04-04T09:51:06.625Z</time></trkpt><trkpt lat="44.1809611" lon="10.4727445"><ele>1303.75</ele><time>2026-04-04T09:51:07.623Z</time></trkpt><trkpt lat="44.1810353" lon="10.4725879"><ele>1298.5</ele><time>2026-04-04T09:51:08.617Z</time></trkpt><trkpt lat="44.1811105" lon="10.4724254"><ele>1293.25</ele><time>2026-04-04T09:51:09.62Z</time></trkpt><trkpt lat="44.1811887" lon="10.4722653"><ele>1288.0</ele><time>2026-04-04T09:51:10.616Z</time></trkpt><trkpt lat="44.1812728" lon="10.4721016"><ele>1286.75</ele><time>2026-04-04T09:51:11.622Z</time></trkpt><trkpt lat="44.1813723" lon="10.471939"><ele>1285.5</ele><time>2026-04-04T09:51:12.625Z</time></trkpt><trkpt lat="44.1814765" lon="10.4718109"><ele>1284.25</ele><time>2026-04-04T09:51:13.622Z</time></trkpt><trkpt lat="44.1815918" lon="10.4716916"><ele>1283.0</ele><time>2026-04-04T09:51:14.628Z</time></trkpt><trkpt lat="44.1816992" lon="10.4715909"><ele>1283.0</ele><time>2026-04-04T09:51:15.63Z</time></trkpt><trkpt lat="44.181787" lon="10.4714635"><ele>1283.0</ele><time>2026-04-04T09:51:16.621Z</time></trkpt><trkpt lat="44.181837" lon="10.471291"><ele>1283.0</ele><time>2026-04-04T09:51:17.627Z</time></trkpt><trkpt lat="44.1818474" lon="10.4711084"><ele>1283.0</ele><time>2026-04-04T09:51:18.628Z</time></trkpt><trkpt lat="44.1818385" lon="10.4709234"><ele>1277.5</ele><time>2026-04-04T09:51:19.636Z</time></trkpt><trkpt lat="44.1817855" lon="10.4707555"><ele>1272.0</ele><time>2026-04-04T09:51:20.625Z</time></trkpt><trkpt lat="44.1817215" lon="10.4705742"><ele>1266.5</ele><time>2026-04-04T09:51:21.634Z</time></trkpt><trkpt lat="44.1816574" lon="10.4704015"><ele>1261.0</ele><time>2026-04-04T09:51:22.636Z</time></trkpt><trkpt lat="44.1815922" lon="10.4702311"><ele>1258.0</ele><time>2026-04-04T09:51:23.628Z</time></trkpt><trkpt lat="44.1815163" lon="10.4700661"><ele>1255.0</ele><time>2026-04-04T09:51:24.623Z</time></trkpt><trkpt lat="44.1814096" lon="10.4699239"><ele>1252.0</ele><time>2026-04-04T09:51:25.625Z</time></trkpt><trkpt lat="44.1812781" lon="10.4698154"><ele>1249.0</ele><time>2026-04-04T09:51:26.621Z</time></trkpt><trkpt lat="44.1811452" lon="10.469723"><ele>1249.75</ele><time>2026-04-04T09:51:27.63Z</time></trkpt><trkpt lat="44.1810199" lon="10.4696556"><ele>1250.5</ele><time>2026-04-04T09:51:28.625Z</time></trkpt><trkpt lat="44.1808963" lon="10.4696142"><ele>1251.25</ele><time>2026-04-04T09:51:29.632Z</time></trkpt><trkpt lat="44.1807688" lon="10.4695999"><ele>1252.0</ele><time>2026-04-04T09:51:30.645Z</time></trkpt><trkpt lat="44.1806524" lon="10.4695901"><ele>1246.4</ele><time>2026-04-04T09:51:31.622Z</time></trkpt><trkpt lat="44.1805554" lon="10.4695503"><ele>1240.8000000000002</ele><time>2026-04-04T09:51:32.621Z</time></trkpt><trkpt lat="44.18047" lon="10.4694806"><ele>1235.2</ele><time>2026-04-04T09:51:33.624Z</time></trkpt><trkpt lat="44.1804121" lon="10.4693552"><ele>1229.6000000000001</ele><time>2026-04-04T09:51:34.622Z</time></trkpt><trkpt lat="44.1803756" lon="10.4691831"><ele>1224.0</ele><time>2026-04-04T09:51:35.616Z</time></trkpt><trkpt lat="44.1803344" lon="10.4689985"><ele>1224.0</ele><time>2026-04-04T09:51:36.613Z</time></trkpt><trkpt lat="44.1802903" lon="10.4688108"><ele>1224.0</ele><time>2026-04-04T09:51:37.621Z</time></trkpt><trkpt lat="44.1802301" lon="10.4686305"><ele>1224.0</ele><time>2026-04-04T09:51:38.617Z</time></trkpt><trkpt lat="44.180136" lon="10.4684571"><ele>1224.0</ele><time>2026-04-04T09:51:39.618Z</time></trkpt><trkpt lat="44.1800241" lon="10.4682814"><ele>1227.75</ele><time>2026-04-04T09:51:40.612Z</time></trkpt><trkpt lat="44.1799142" lon="10.4681173"><ele>1231.5</ele><time>2026-04-04T09:51:41.613Z</time></trkpt><trkpt lat="44.1798113" lon="10.4679751"><ele>1235.25</ele><time>2026-04-04T09:51:42.618Z</time></trkpt><trkpt lat="44.1797262" lon="10.4678425"><ele>1239.0</ele><time>2026-04-04T09:51:43.63Z</time></trkpt><trkpt lat="44.1796926" lon="10.4676991"><ele>1226.5</ele><time>2026-04-04T09:51:44.629Z</time></trkpt><trkpt lat="44.1797072" lon="10.4675261"><ele>1214.0</ele><time>2026-04-04T09:51:45.622Z</time></trkpt><trkpt lat="44.179722" lon="10.4673518"><ele>1201.5</ele><time>2026-04-04T09:51:46.633Z</time></trkpt><trkpt lat="44.1797413" lon="10.4671866"><ele>1189.0</ele><time>2026-04-04T09:51:47.612Z</time></trkpt><trkpt lat="44.1798021" lon="10.4670347"><ele>1605.0</ele><time>2026-04-04T09:51:48.619Z</time></trkpt><trkpt lat="44.1964587" lon="10.4846516"><ele>1605.0</ele><time>2026-04-04T09:47:40.642Z</time></trkpt><trkpt lat="44.1963917" lon="10.4846053"><ele>1605.0</ele><time>2026-04-04T09:47:41.678Z</time></trkpt><trkpt lat="44.1963247" lon="10.4845724"><ele>1605.0</ele><time>2026-04-04T09:47:42.639Z</time></trkpt><trkpt lat="44.1962465" lon="10.484558"><ele>1605.0</ele><time>2026-04-04T09:47:43.634Z</time></trkpt><trkpt lat="44.196153" lon="10.4845663"><ele>1605.0</ele><time>2026-04-04T09:47:44.628Z</time></trkpt><trkpt lat="44.1960502" lon="10.4845878"><ele>1605.0</ele><time>2026-04-04T09:47:45.611Z</time></trkpt><trkpt lat="44.1959388" lon="10.4846168"><ele>1605.0</ele><time>2026-04-04T09:47:46.619Z</time></trkpt><trkpt lat="44.195826" lon="10.4846398"><ele>1605.0</ele><time>2026-04-04T09:47:47.634Z</time></trkpt><trkpt lat="44.1957106" lon="10.4846406"><ele>1605.0</ele><time>2026-04-04T09:47:48.611Z</time></trkpt><trkpt lat="44.1955897" lon="10.4845987"><ele>1605.0</ele><time>2026-04-04T09:47:49.612Z</time></trkpt><trkpt lat="44.1954629" lon="10.48452"><ele>1600.0</ele><time>2026-04-04T09:47:50.604Z</time></trkpt><trkpt lat="44.1953317" lon="10.4844186"><ele>1595.0</ele><time>2026-04-04T09:47:51.602Z</time></trkpt><trkpt lat="44.1952074" lon="10.4842763"><ele>1590.0</ele><time>2026-04-04T09:47:52.635Z</time></trkpt><trkpt lat="44.1950935" lon="10.4841046"><ele>1590.0</ele><time>2026-04-04T09:47:53.613Z</time></trkpt><trkpt lat="44.1949914" lon="10.4839132"><ele>1590.0</ele><time>2026-04-04T09:47:54.614Z</time></trkpt><trkpt lat="44.1949147" lon="10.4837247"><ele>1590.0</ele><time>2026-04-04T09:47:55.613Z</time></trkpt><trkpt lat="44.1948659" lon="10.4835333"><ele>1593.25</ele><time>2026-04-04T09:47:56.611Z</time></trkpt><trkpt lat="44.1948442" lon="10.4833383"><ele>1596.5</ele><time>2026-04-04T09:47:57.641Z</time></trkpt><trkpt lat="44.1948364" lon="10.4831515"><ele>1599.75</ele><time>2026-04-04T09:47:58.617Z</time></trkpt><trkpt lat="44.1948196" lon="10.4829912"><ele>1603.0</ele><time>2026-04-04T09:47:59.637Z</time></trkpt><trkpt lat="44.194768" lon="10.4828567"><ele>1595.0</ele><time>2026-04-04T09:48:00.641Z</time></trkpt><trkpt lat="44.194678" lon="10.4827466"><ele>1587.0</ele><time>2026-04-04T09:48:01.633Z</time></trkpt><trkpt lat="44.1945486" lon="10.482665"><ele>1579.0</ele><time>2026-04-04T09:48:02.612Z</time></trkpt><trkpt lat="44.1943847" lon="10.482591"><ele>1571.0</ele><time>2026-04-04T09:48:03.635Z</time></trkpt><trkpt lat="44.1942109" lon="10.4825155"><ele>1571.0</ele><time>2026-04-04T09:48:04.627Z</time></trkpt><trkpt lat="44.1940245" lon="10.4824141"><ele>1571.0</ele><time>2026-04-04T09:48:05.612Z</time></trkpt><trkpt lat="44.1938304" lon="10.4822916"><ele>1571.0</ele><time>2026-04-04T09:48:06.616Z</time></trkpt><trkpt lat="44.1936518" lon="10.4821739"><ele>1570.5</ele><time>2026-04-04T09:48:07.609Z</time></trkpt><trkpt lat="44.1935019" lon="10.4820763"><ele>1570.0</ele><time>2026-04-04T09:48:08.605Z</time></trkpt><trkpt lat="44.1933951" lon="10.4820147"><ele>1569.5</ele><time>2026-04-04T09:48:09.617Z</time></trkpt><trkpt lat="44.1933382" lon="10.481936"><ele>1569.0</ele><time>2026-04-04T09:48:10.615Z</time></trkpt><trkpt lat="44.193326" lon="10.4818128"><ele>1569.0</ele><time>2026-04-04T09:48:11.61Z</time></trkpt><trkpt lat="44.1933271" lon="10.4816541"><ele>1569.0</ele><time>2026-04-04T09:48:12.61Z</time></trkpt><trkpt lat="44.1933277" lon="10.4814684"><ele>1569.0</ele><time>2026-04-04T09:48:13.608Z</time></trkpt><trkpt lat="44.1933231" lon="10.4812782"><ele>1569.0</ele><time>2026-04-04T09:48:14.611Z</time></trkpt><trkpt lat="44.1933005" lon="10.4811232"><ele>1565.0</ele><time>2026-04-04T09:48:15.637Z</time></trkpt><trkpt lat="44.1932627" lon="10.4810166"><ele>1561.0</ele><time>2026-04-04T09:48:16.636Z</time></trkpt><trkpt lat="44.1932048" lon="10.4809662"><ele>1557.0</ele><time>2026-04-04T09:48:17.652Z</time></trkpt><trkpt lat="44.1931241" lon="10.4809681"><ele>1553.0</ele><time>2026-04-04T09:48:18.63Z</time></trkpt><trkpt lat="44.1930096" lon="10.4810099"><ele>1549.0</ele><time>2026-04-04T09:48:19.626Z</time></trkpt><trkpt lat="44.1928694" lon="10.4810598"><ele>1549.0</ele><time>2026-04-04T09:48:20.613Z</time></trkpt><trkpt lat="44.1927027" lon="10.4811038"><ele>1549.0</ele><time>2026-04-04T09:48:21.608Z</time></trkpt><trkpt lat="44.1925105" lon="10.4811235"><ele>1549.0</ele><time>2026-04-04T09:48:22.612Z</time></trkpt><trkpt lat="44.1922954" lon="10.4811422"><ele>1545.3333333333335</ele><time>2026-04-04T09:48:23.619Z</time></trkpt><trkpt lat="44.1920766" lon="10.4811287"><ele>1541.6666666666665</ele><time>2026-04-04T09:48:24.61Z</time></trkpt><trkpt lat="44.1918751" lon="10.4811155"><ele>1538.0</ele><time>2026-04-04T09:48:25.609Z</time></trkpt><trkpt lat="44.191677" lon="10.4810892"><ele>1533.6666666666665</ele><time>2026-04-04T09:48:26.641Z</time></trkpt><trkpt lat="44.1915037" lon="10.4810297"><ele>1529.3333333333333</ele><time>2026-04-04T09:48:27.65Z</time></trkpt><trkpt lat="44.1913358" lon="10.48098"><ele>1525.0</ele><time>2026-04-04T09:48:28.633Z</time></trkpt><trkpt lat="44.191181" lon="10.4809403"><ele>1525.0</ele><time>2026-04-04T09:48:29.637Z</time></trkpt><trkpt lat="44.1910338" lon="10.4808976"><ele>1525.0</ele><time>2026-04-04T09:48:30.627Z</time></trkpt><trkpt lat="44.1908948" lon="10.4808525"><ele>1525.0</ele><time>2026-04-04T09:48:31.632Z</time></trkpt><trkpt lat="44.1907733" lon="10.4807942"><ele>1525.0</ele><time>2026-04-04T09:48:32.63Z</time></trkpt><trkpt lat="44.1906618" lon="10.4807405"><ele>1523.6</ele><time>2026-04-04T09:48:33.637Z</time></trkpt><trkpt lat="44.1905571" lon="10.4807057"><ele>1522.2</ele><time>2026-04-04T09:48:34.629Z</time></trkpt><trkpt lat="44.1904582" lon="10.4806834"><ele>1520.8000000000002</ele><time>2026-04-04T09:48:35.627Z</time></trkpt><trkpt lat="44.1903715" lon="10.4806531"><ele>1519.4</ele><time>2026-04-04T09:48:36.624Z</time></trkpt><trkpt lat="44.1902851" lon="10.4806241"><ele>1518.0</ele><time>2026-04-04T09:48:37.624Z</time></trkpt><trkpt lat="44.1902036" lon="10.480594"><ele>1518.0</ele><time>2026-04-04T09:48:38.628Z</time></trkpt><trkpt lat="44.1901226" lon="10.4805756"><ele>1518.0</ele><time>2026-04-04T09:48:39.628Z</time></trkpt><trkpt lat="44.1900441" lon="10.4805663"><ele>1518.0</ele><time>2026-04-04T09:48:40.622Z</time></trkpt><trkpt lat="44.1899709" lon="10.4805778"><ele>1518.0</ele><time>2026-04-04T09:48:41.634Z</time></trkpt><trkpt lat="44.1899061" lon="10.4805986"><ele>1518.0</ele><time>2026-04-04T09:48:42.627Z</time></trkpt><trkpt lat="44.1898015" lon="10.4806354"><ele>1518.0</ele><time>2026-04-04T09:48:44.621Z</time></trkpt><trkpt lat="44.1897159" lon="10.4806899"><ele>1514.8333333333333</ele><time>2026-04-04T09:48:46.624Z</time></trkpt><trkpt lat="44.189695" lon="10.4808129"><ele>1511.6666666666667</ele><time>2026-04-04T09:48:48.621Z</time></trkpt><trkpt lat="44.1897163" lon="10.4809071"><ele>1508.5</ele><time>2026-04-04T09:48:49.63Z</time></trkpt><trkpt lat="44.1897443" lon="10.480998"><ele>1505.3333333333335</ele><time>2026-04-04T09:48:50.617Z</time></trkpt><trkpt lat="44.1897623" lon="10.4810867"><ele>1502.1666666666667</ele><time>2026-04-04T09:48:51.617Z</time></trkpt><trkpt lat="44.1897154" lon="10.4811874"><ele>1499.0</ele><time>2026-04-04T09:48:53.621Z</time></trkpt><trkpt lat="44.1896016" lon="10.4811182"><ele>1499.0</ele><time>2026-04-04T09:48:55.619Z</time></trkpt><trkpt lat="44.1895005" lon="10.4810342"><ele>1499.0</ele><time>2026-04-04T09:48:56.619Z</time></trkpt><trkpt lat="44.1893966" lon="10.480936"><ele>1499.0</ele><time>2026-04-04T09:48:57.612Z</time></trkpt><trkpt lat="44.1892853" lon="10.4808155"><ele>1499.0</ele><time>2026-04-04T09:48:58.613Z</time></trkpt><trkpt lat="44.1891794" lon="10.4806829"><ele>1499.0</ele><time>2026-04-04T09:48:59.624Z</time></trkpt><trkpt lat="44.1890804" lon="10.4805551"><ele>1499.0</ele><time>2026-04-04T09:49:00.619Z</time></trkpt><trkpt lat="44.1889807" lon="10.4804336"><ele>1499.0</ele><time>2026-04-04T09:49:01.621Z</time></trkpt><trkpt lat="44.1888876" lon="10.4803104"><ele>1499.0</ele><time>2026-04-04T09:49:02.626Z</time></trkpt><trkpt lat="44.1887913" lon="10.4801846"><ele>1493.75</ele><time>2026-04-04T09:49:03.624Z</time></trkpt><trkpt lat="44.1887034" lon="10.4800582"><ele>1488.5</ele><time>2026-04-04T09:49:04.632Z</time></trkpt><trkpt lat="44.1886174" lon="10.4799289"><ele>1483.25</ele><time>2026-04-04T09:49:05.631Z</time></trkpt><trkpt lat="44.1885353" lon="10.4798018"><ele>1478.0</ele><time>2026-04-04T09:49:06.635Z</time></trkpt><trkpt lat="44.1884523" lon="10.479684"><ele>1475.8000000000002</ele><time>2026-04-04T09:49:07.63Z</time></trkpt><trkpt lat="44.1883697" lon="10.4795783"><ele>1473.6</ele><time>2026-04-04T09:49:08.632Z</time></trkpt><trkpt lat="44.1882789" lon="10.4795032"><ele>1471.4</ele><time>2026-04-04T09:49:09.629Z</time></trkpt><trkpt lat="44.1881882" lon="10.4794851"><ele>1469.1999999999998</ele><time>2026-04-04T09:49:10.622Z</time></trkpt><trkpt lat="44.1880968" lon="10.4794952"><ele>1467.0</ele><time>2026-04-04T09:49:11.636Z</time></trkpt><trkpt lat="44.1880105" lon="10.4795038"><ele>1465.5</ele><time>2026-04-04T09:49:12.637Z</time></trkpt><trkpt lat="44.1879352" lon="10.4795147"><ele>1464.0</ele><time>2026-04-04T09:49:13.638Z</time></trkpt><trkpt lat="44.187872" lon="10.4795318"><ele>1462.5</ele><time>2026-04-04T09:49:14.656Z</time></trkpt><trkpt lat="44.1878258" lon="10.4796373"><ele>1461.0</ele><time>2026-04-04T09:49:16.671Z</time></trkpt><trkpt lat="44.1878713" lon="10.4797191"><ele>1459.5</ele><time>2026-04-04T09:49:17.647Z</time></trkpt><trkpt lat="44.187939" lon="10.4797684"><ele>1458.0</ele><time>2026-04-04T09:49:18.637Z</time></trkpt><trkpt lat="44.1880209" lon="10.479809"><ele>1458.0</ele><time>2026-04-04T09:49:19.633Z</time></trkpt><trkpt lat="44.1880983" lon="10.4798566"><ele>1458.0</ele><time>2026-04-04T09:49:20.635Z</time></trkpt><trkpt lat="44.1881558" lon="10.4799128"><ele>1458.0</ele><time>2026-04-04T09:49:21.621Z</time></trkpt><trkpt lat="44.1881122" lon="10.4799907"><ele>1458.0</ele><time>2026-04-04T09:49:23.622Z</time></trkpt><trkpt lat="44.1879802" lon="10.4800031"><ele>1458.0</ele><time>2026-04-04T09:49:25.642Z</time></trkpt><trkpt lat="44.1878859" lon="10.4799681"><ele>1458.0</ele><time>2026-04-04T09:49:26.62Z</time></trkpt><trkpt lat="44.1877811" lon="10.4799287"><ele>1458.0</ele><time>2026-04-04T09:49:27.619Z</time></trkpt><trkpt lat="44.187677" lon="10.4798981"><ele>1458.0</ele><time>2026-04-04T09:49:28.623Z</time></trkpt><trkpt lat="44.1875844" lon="10.4798742"><ele>1458.0</ele><time>2026-04-04T09:49:29.627Z</time></trkpt><trkpt lat="44.1875054" lon="10.4798441"><ele>1458.0</ele><time>2026-04-04T09:49:30.628Z</time></trkpt><trkpt lat="44.1874363" lon="10.4798093"><ele>1458.0</ele><time>2026-04-04T09:49:31.626Z</time></trkpt><trkpt lat="44.1873706" lon="10.4797726"><ele>1458.0</ele><time>2026-04-04T09:49:32.629Z</time></trkpt><trkpt lat="44.1873085" lon="10.4797338"><ele>1458.0</ele><time>2026-04-04T09:49:33.63Z</time></trkpt><trkpt lat="44.1872555" lon="10.4796736"><ele>1458.0</ele><time>2026-04-04T09:49:34.628Z</time></trkpt><trkpt lat="44.1872075" lon="10.4796076"><ele>1458.0</ele><time>2026-04-04T09:49:35.638Z</time></trkpt><trkpt lat="44.1871674" lon="10.4795365"><ele>1458.0</ele><time>2026-04-04T09:49:36.635Z</time></trkpt><trkpt lat="44.1870685" lon="10.4794915"><ele>1458.0</ele><time>2026-04-04T09:49:38.663Z</time></trkpt><trkpt lat="44.1870081" lon="10.4796209"><ele>1452.8000000000002</ele><time>2026-04-04T09:49:40.628Z</time></trkpt><trkpt lat="44.1870159" lon="10.4797952"><ele>1447.6</ele><time>2026-04-04T09:49:42.631Z</time></trkpt><trkpt lat="44.18707" lon="10.4798721"><ele>1442.4</ele><time>2026-04-04T09:49:43.623Z</time></trkpt><trkpt lat="44.187139" lon="10.4799472"><ele>1437.1999999999998</ele><time>2026-04-04T09:49:44.621Z</time></trkpt><trkpt lat="44.187216" lon="10.4800135"><ele>1432.0</ele><time>2026-04-04T09:49:45.619Z</time></trkpt><trkpt lat="44.1872966" lon="10.4800842"><ele>1432.0</ele><time>2026-04-04T09:49:46.622Z</time></trkpt><trkpt lat="44.1873702" lon="10.4801414"><ele>1432.0</ele><time>2026-04-04T09:49:47.624Z</time></trkpt><trkpt lat="44.1874372" lon="10.4801805"><ele>1432.0</ele><time>2026-04-04T09:49:48.606Z</time></trkpt><trkpt lat="44.187497" lon="10.4802739"><ele>1432.0</ele><time>2026-04-04T09:49:50.62Z</time></trkpt><trkpt lat="44.1874102" lon="10.4802949"><ele>1432.0</ele><time>2026-04-04T09:49:52.629Z</time></trkpt><trkpt lat="44.1873398" lon="10.4802615"><ele>1432.0</ele><time>2026-04-04T09:49:53.619Z</time></trkpt><trkpt lat="44.1872547" lon="10.4802271"><ele>1432.0</ele><time>2026-04-04T09:49:54.61Z</time></trkpt><trkpt lat="44.1871601" lon="10.4801899"><ele>1432.0</ele><time>2026-04-04T09:49:55.603Z</time></trkpt><trkpt lat="44.1870478" lon="10.4801572"><ele>1432.0</ele><time>2026-04-04T09:49:56.625Z</time></trkpt><trkpt lat="44.1869204" lon="10.4801355"><ele>1432.0</ele><time>2026-04-04T09:49:57.613Z</time></trkpt><trkpt lat="44.1867784" lon="10.4801101"><ele>1432.0</ele><time>2026-04-04T09:49:58.611Z</time></trkpt><trkpt lat="44.1866328" lon="10.4800552"><ele>1432.0</ele><time>2026-04-04T09:49:59.617Z</time></trkpt><trkpt lat="44.1864831" lon="10.4799666"><ele>1432.0</ele><time>2026-04-04T09:50:00.599Z</time></trkpt><trkpt lat="44.1863461" lon="10.4798326"><ele>1424.0</ele><time>2026-04-04T09:50:01.603Z</time></trkpt><trkpt lat="44.1862455" lon="10.4796305"><ele>1416.0</ele><time>2026-04-04T09:50:02.61Z</time></trkpt><trkpt lat="44.1861639" lon="10.4794502"><ele>1408.0</ele><time>2026-04-04T09:50:03.615Z</time></trkpt><trkpt lat="44.1860975" lon="10.4792976"><ele>1408.0</ele><time>2026-04-04T09:50:04.623Z</time></trkpt><trkpt lat="44.1860184" lon="10.4791963"><ele>1408.0</ele><time>2026-04-04T09:50:05.645Z</time></trkpt><trkpt lat="44.1859427" lon="10.4791081"><ele>1408.0</ele><time>2026-04-04T09:50:06.633Z</time></trkpt><trkpt lat="44.1858985" lon="10.4790114"><ele>1408.0</ele><time>2026-04-04T09:50:07.653Z</time></trkpt><trkpt lat="44.1858905" lon="10.4789043"><ele>1408.0</ele><time>2026-04-04T09:50:08.632Z</time></trkpt><trkpt lat="44.1859199" lon="10.4787935"><ele>1405.0</ele><time>2026-04-04T09:50:09.626Z</time></trkpt><trkpt lat="44.1859491" lon="10.4787027"><ele>1402.0</ele><time>2026-04-04T09:50:10.62Z</time></trkpt><trkpt lat="44.1859198" lon="10.4785694"><ele>1399.0</ele><time>2026-04-04T09:50:12.629Z</time></trkpt><trkpt lat="44.1858413" lon="10.478544"><ele>1396.0</ele><time>2026-04-04T09:50:13.66Z</time></trkpt><trkpt lat="44.1857302" lon="10.4785256"><ele>1393.0</ele><time>2026-04-04T09:50:14.629Z</time></trkpt><trkpt lat="44.1856046" lon="10.478506"><ele>1391.5</ele><time>2026-04-04T09:50:15.628Z</time></trkpt><trkpt lat="44.1854634" lon="10.4784905"><ele>1390.0</ele><time>2026-04-04T09:50:16.636Z</time></trkpt><trkpt lat="44.1853194" lon="10.4784736"><ele>1388.5</ele><time>2026-04-04T09:50:17.635Z</time></trkpt><trkpt lat="44.1851784" lon="10.4784571"><ele>1387.0</ele><time>2026-04-04T09:50:18.632Z</time></trkpt><trkpt lat="44.1850423" lon="10.4784349"><ele>1387.0</ele><time>2026-04-04T09:50:19.628Z</time></trkpt><trkpt lat="44.184924" lon="10.4783687"><ele>1387.0</ele><time>2026-04-04T09:50:20.631Z</time></trkpt><trkpt lat="44.1848176" lon="10.4782503"><ele>1387.0</ele><time>2026-04-04T09:50:21.637Z</time></trkpt><trkpt lat="44.1847252" lon="10.4781047"><ele>1387.0</ele><time>2026-04-04T09:50:22.64Z</time></trkpt><trkpt lat="44.1846465" lon="10.4779455"><ele>1384.0</ele><time>2026-04-04T09:50:23.636Z</time></trkpt><trkpt lat="44.1845874" lon="10.4777892"><ele>1381.0</ele><time>2026-04-04T09:50:24.634Z</time></trkpt><trkpt lat="44.1845277" lon="10.4776486"><ele>1378.0</ele><time>2026-04-04T09:50:25.629Z</time></trkpt><trkpt lat="44.1844536" lon="10.4775141"><ele>1375.0</ele><time>2026-04-04T09:50:26.628Z</time></trkpt><trkpt lat="44.1843681" lon="10.4774103"><ele>1375.0</ele><time>2026-04-04T09:50:27.641Z</time></trkpt><trkpt lat="44.1842601" lon="10.477335"><ele>1375.0</ele><time>2026-04-04T09:50:28.63Z</time></trkpt><trkpt lat="44.1841386" lon="10.477274"><ele>1375.0</ele><time>2026-04-04T09:50:29.622Z</time></trkpt><trkpt lat="44.1840188" lon="10.4772439"><ele>1375.0</ele><time>2026-04-04T09:50:30.618Z</time></trkpt><trkpt lat="44.1838883" lon="10.4772352"><ele>1371.0</ele><time>2026-04-04T09:50:31.612Z</time></trkpt><trkpt lat="44.1837385" lon="10.4772392"><ele>1367.0</ele><time>2026-04-04T09:50:32.623Z</time></trkpt><trkpt lat="44.1835709" lon="10.4772482"><ele>1363.0</ele><time>2026-04-04T09:50:33.625Z</time></trkpt><trkpt lat="44.1833983" lon="10.477206"><ele>1363.0</ele><time>2026-04-04T09:50:34.635Z</time></trkpt><trkpt lat="44.1832552" lon="10.4771254"><ele>1363.0</ele><time>2026-04-04T09:50:35.629Z</time></trkpt><trkpt lat="44.1831337" lon="10.4770688"><ele>1363.0</ele><time>2026-04-04T09:50:36.636Z</time></trkpt><trkpt lat="44.1830199" lon="10.4770262"><ele>1363.0</ele><time>2026-04-04T09:50:37.639Z</time></trkpt><trkpt lat="44.1829255" lon="10.4769527"><ele>1354.75</ele><time>2026-04-04T09:50:38.639Z</time></trkpt><trkpt lat="44.1828462" lon="10.4768166"><ele>1346.5</ele><time>2026-04-04T09:50:39.639Z</time></trkpt><trkpt lat="44.1827619" lon="10.4766848"><ele>1338.25</ele><time>2026-04-04T09:50:40.632Z</time></trkpt><trkpt lat="44.1826852" lon="10.4765424"><ele>1330.0</ele><time>2026-04-04T09:50:41.637Z</time></trkpt><trkpt lat="44.1826118" lon="10.4763771"><ele>1335.0</ele><time>2026-04-04T09:50:42.632Z</time></trkpt><trkpt lat="44.1825216" lon="10.4761903"><ele>1340.0</ele><time>2026-04-04T09:50:43.628Z</time></trkpt><trkpt lat="44.1824444" lon="10.4759882"><ele>1345.0</ele><time>2026-04-04T09:50:44.633Z</time></trkpt><trkpt lat="44.1823752" lon="10.4757801"><ele>1336.6666666666665</ele><time>2026-04-04T09:50:45.632Z</time></trkpt><trkpt lat="44.1823166" lon="10.4755753"><ele>1328.3333333333333</ele><time>2026-04-04T09:50:46.628Z</time></trkpt><trkpt lat="44.1822614" lon="10.4753684"><ele>1320.0</ele><time>2026-04-04T09:50:47.632Z</time></trkpt><trkpt lat="44.1821777" lon="10.4751836"><ele>1320.0</ele><time>2026-04-04T09:50:48.623Z</time></trkpt><trkpt lat="44.1820729" lon="10.4750205"><ele>1320.0</ele><time>2026-04-04T09:50:49.613Z</time></trkpt><trkpt lat="44.1819452" lon="10.4748736"><ele>1320.0</ele><time>2026-04-04T09:50:50.615Z</time></trkpt><trkpt lat="44.1818068" lon="10.4747278"><ele>1323.3333333333333</ele><time>2026-04-04T09:50:51.616Z</time></trkpt><trkpt lat="44.1816662" lon="10.4745829"><ele>1326.6666666666665</ele><time>2026-04-04T09:50:52.633Z</time></trkpt><trkpt lat="44.1815373" lon="10.4744319"><ele>1330.0</ele><time>2026-04-04T09:50:53.623Z</time></trkpt><trkpt lat="44.1814109" lon="10.474273"><ele>1319.3333333333333</ele><time>2026-04-04T09:50:54.622Z</time></trkpt><trkpt lat="44.1812934" lon="10.4741071"><ele>1308.6666666666667</ele><time>2026-04-04T09:50:55.625Z</time></trkpt><trkpt lat="44.1811888" lon="10.4739538"><ele>1298.0</ele><time>2026-04-04T09:50:56.623Z</time></trkpt><trkpt lat="44.1810799" lon="10.4738269"><ele>1300.2</ele><time>2026-04-04T09:50:57.624Z</time></trkpt><trkpt lat="44.1809707" lon="10.4737278"><ele>1302.4</ele><time>2026-04-04T09:50:58.63Z</time></trkpt><trkpt lat="44.180853" lon="10.4736535"><ele>1304.6000000000001</ele><time>2026-04-04T09:50:59.642Z</time></trkpt><trkpt lat="44.1807561" lon="10.4735919"><ele>1306.8000000000002</ele><time>2026-04-04T09:51:00.638Z</time></trkpt><trkpt lat="44.1807003" lon="10.4735216"><ele>1309.0</ele><time>2026-04-04T09:51:01.628Z</time></trkpt><trkpt lat="44.1807101" lon="10.4733285"><ele>1309.0</ele><time>2026-04-04T09:51:03.639Z</time></trkpt><trkpt lat="44.1807673" lon="10.473199"><ele>1309.0</ele><time>2026-04-04T09:51:04.636Z</time></trkpt><trkpt lat="44.1808282" lon="10.4730605"><ele>1309.0</ele><time>2026-04-04T09:51:05.629Z</time></trkpt><trkpt lat="44.1808886" lon="10.4729016"><ele>1309.0</ele><time>2026-04-04T09:51:06.625Z</time></trkpt><trkpt lat="44.1809611" lon="10.4727445"><ele>1303.75</ele><time>2026-04-04T09:51:07.623Z</time></trkpt><trkpt lat="44.1810353" lon="10.4725879"><ele>1298.5</ele><time>2026-04-04T09:51:08.617Z</time></trkpt><trkpt lat="44.1811105" lon="10.4724254"><ele>1293.25</ele><time>2026-04-04T09:51:09.62Z</time></trkpt><trkpt lat="44.1811887" lon="10.4722653"><ele>1288.0</ele><time>2026-04-04T09:51:10.616Z</time></trkpt><trkpt lat="44.1812728" lon="10.4721016"><ele>1286.75</ele><time>2026-04-04T09:51:11.622Z</time></trkpt><trkpt lat="44.1813723" lon="10.471939"><ele>1285.5</ele><time>2026-04-04T09:51:12.625Z</time></trkpt><trkpt lat="44.1814765" lon="10.4718109"><ele>1284.25</ele><time>2026-04-04T09:51:13.622Z</time></trkpt><trkpt lat="44.1815918" lon="10.4716916"><ele>1283.0</ele><time>2026-04-04T09:51:14.628Z</time></trkpt><trkpt lat="44.1816992" lon="10.4715909"><ele>1283.0</ele><time>2026-04-04T09:51:15.63Z</time></trkpt><trkpt lat="44.181787" lon="10.4714635"><ele>1283.0</ele><time>2026-04-04T09:51:16.621Z</time></trkpt><trkpt lat="44.181837" lon="10.471291"><ele>1283.0</ele><time>2026-04-04T09:51:17.627Z</time></trkpt><trkpt lat="44.1818474" lon="10.4711084"><ele>1283.0</ele><time>2026-04-04T09:51:18.628Z</time></trkpt><trkpt lat="44.1818385" lon="10.4709234"><ele>1277.5</ele><time>2026-04-04T09:51:19.636Z</time></trkpt><trkpt lat="44.1817855" lon="10.4707555"><ele>1272.0</ele><time>2026-04-04T09:51:20.625Z</time></trkpt><trkpt lat="44.1817215" lon="10.4705742"><ele>1266.5</ele><time>2026-04-04T09:51:21.634Z</time></trkpt><trkpt lat="44.1816574" lon="10.4704015"><ele>1261.0</ele><time>2026-04-04T09:51:22.636Z</time></trkpt><trkpt lat="44.1815922" lon="10.4702311"><ele>1258.0</ele><time>2026-04-04T09:51:23.628Z</time></trkpt><trkpt lat="44.1815163" lon="10.4700661"><ele>1255.0</ele><time>2026-04-04T09:51:24.623Z</time></trkpt><trkpt lat="44.1814096" lon="10.4699239"><ele>1252.0</ele><time>2026-04-04T09:51:25.625Z</time></trkpt><trkpt lat="44.1812781" lon="10.4698154"><ele>1249.0</ele><time>2026-04-04T09:51:26.621Z</time></trkpt><trkpt lat="44.1811452" lon="10.469723"><ele>1249.75</ele><time>2026-04-04T09:51:27.63Z</time></trkpt><trkpt lat="44.1810199" lon="10.4696556"><ele>1250.5</ele><time>2026-04-04T09:51:28.625Z</time></trkpt><trkpt lat="44.1808963" lon="10.4696142"><ele>1251.25</ele><time>2026-04-04T09:51:29.632Z</time></trkpt><trkpt lat="44.1807688" lon="10.4695999"><ele>1252.0</ele><time>2026-04-04T09:51:30.645Z</time></trkpt><trkpt lat="44.1806524" lon="10.4695901"><ele>1246.4</ele><time>2026-04-04T09:51:31.622Z</time></trkpt><trkpt lat="44.1805554" lon="10.4695503"><ele>1240.8000000000002</ele><time>2026-04-04T09:51:32.621Z</time></trkpt><trkpt lat="44.18047" lon="10.4694806"><ele>1235.2</ele><time>2026-04-04T09:51:33.624Z</time></trkpt><trkpt lat="44.1804121" lon="10.4693552"><ele>1229.6000000000001</ele><time>2026-04-04T09:51:34.622Z</time></trkpt><trkpt lat="44.1803756" lon="10.4691831"><ele>1224.0</ele><time>2026-04-04T09:51:35.616Z</time></trkpt><trkpt lat="44.1803344" lon="10.4689985"><ele>1224.0</ele><time>2026-04-04T09:51:36.613Z</time></trkpt><trkpt lat="44.1802903" lon="10.4688108"><ele>1224.0</ele><time>2026-04-04T09:51:37.621Z</time></trkpt><trkpt lat="44.1802301" lon="10.4686305"><ele>1224.0</ele><time>2026-04-04T09:51:38.617Z</time></trkpt><trkpt lat="44.180136" lon="10.4684571"><ele>1224.0</ele><time>2026-04-04T09:51:39.618Z</time></trkpt><trkpt lat="44.1800241" lon="10.4682814"><ele>1227.75</ele><time>2026-04-04T09:51:40.612Z</time></trkpt><trkpt lat="44.1799142" lon="10.4681173"><ele>1231.5</ele><time>2026-04-04T09:51:41.613Z</time></trkpt><trkpt lat="44.1798113" lon="10.4679751"><ele>1235.25</ele><time>2026-04-04T09:51:42.618Z</time></trkpt><trkpt lat="44.1797262" lon="10.4678425"><ele>1239.0</ele><time>2026-04-04T09:51:43.63Z</time></trkpt><trkpt lat="44.1796926" lon="10.4676991"><ele>1226.5</ele><time>2026-04-04T09:51:44.629Z</time></trkpt><trkpt lat="44.1797072" lon="10.4675261"><ele>1214.0</ele><time>2026-04-04T09:51:45.622Z</time></trkpt><trkpt lat="44.179722" lon="10.4673518"><ele>1201.5</ele><time>2026-04-04T09:51:46.633Z</time></trkpt><trkpt lat="44.1797413" lon="10.4671866"><ele>1189.0</ele><time>2026-04-04T09:51:47.612Z</time></trkpt><trkpt lat="44.1798021" lon="10.4670347"><ele>1199.75</ele><time>2026-04-04T09:51:48.619Z</time></trkpt><trkpt lat="44.1798718" lon="10.4668854"><ele>1210.5</ele><time>2026-04-04T09:51:49.618Z</time></trkpt><trkpt lat="44.1799323" lon="10.4667265"><ele>1221.25</ele><time>2026-04-04T09:51:50.612Z</time></trkpt><trkpt lat="44.1799766" lon="10.4665576"><ele>1232.0</ele><time>2026-04-04T09:51:51.62Z</time></trkpt><trkpt lat="44.1799909" lon="10.4663761"><ele>1230.0</ele><time>2026-04-04T09:51:52.615Z</time></trkpt><trkpt lat="44.179971" lon="10.4661752"><ele>1228.0</ele><time>2026-04-04T09:51:53.635Z</time></trkpt><trkpt lat="44.1799264" lon="10.4659615"><ele>1226.0</ele><time>2026-04-04T09:51:54.617Z</time></trkpt><trkpt lat="44.1798772" lon="10.4657668"><ele>1216.25</ele><time>2026-04-04T09:51:55.608Z</time></trkpt><trkpt lat="44.1798244" lon="10.4655717"><ele>1206.5</ele><time>2026-04-04T09:51:56.606Z</time></trkpt><trkpt lat="44.1797486" lon="10.4653953"><ele>1196.75</ele><time>2026-04-04T09:51:57.606Z</time></trkpt><trkpt lat="44.1796562" lon="10.465235"><ele>1187.0</ele><time>2026-04-04T09:51:58.621Z</time></trkpt><trkpt lat="44.179556" lon="10.4651159"><ele>1187.0</ele><time>2026-04-04T09:51:59.618Z</time></trkpt><trkpt lat="44.1794509" lon="10.465024"><ele>1187.0</ele><time>2026-04-04T09:52:00.635Z</time></trkpt><trkpt lat="44.1793773" lon="10.4649068"><ele>1187.0</ele><time>2026-04-04T09:52:01.615Z</time></trkpt><trkpt lat="44.1793453" lon="10.4647577"><ele>1187.0</ele><time>2026-04-04T09:52:02.627Z</time></trkpt><trkpt lat="44.179362" lon="10.4645972"><ele>1186.75</ele><time>2026-04-04T09:52:03.622Z</time></trkpt><trkpt lat="44.179402" lon="10.4644373"><ele>1186.5</ele><time>2026-04-04T09:52:04.621Z</time></trkpt><trkpt lat="44.1794355" lon="10.4642866"><ele>1186.25</ele><time>2026-04-04T09:52:05.621Z</time></trkpt><trkpt lat="44.1794626" lon="10.4641376"><ele>1186.0</ele><time>2026-04-04T09:52:06.638Z</time></trkpt><trkpt lat="44.1794692" lon="10.4639914"><ele>1186.0</ele><time>2026-04-04T09:52:07.625Z</time></trkpt><trkpt lat="44.179451" lon="10.4638643"><ele>1186.0</ele><time>2026-04-04T09:52:08.625Z</time></trkpt><trkpt lat="44.1794249" lon="10.463757"><ele>1186.0</ele><time>2026-04-04T09:52:09.639Z</time></trkpt><trkpt lat="44.1793712" lon="10.4636333"><ele>1186.0</ele><time>2026-04-04T09:52:11.623Z</time></trkpt><trkpt lat="44.1793236" lon="10.4634949"><ele>1186.0</ele><time>2026-04-04T09:52:13.626Z</time></trkpt><trkpt lat="44.1792698" lon="10.4633445"><ele>1184.3999999999999</ele><time>2026-04-04T09:52:15.619Z</time></trkpt><trkpt lat="44.1792227" lon="10.4632621"><ele>1182.8</ele><time>2026-04-04T09:52:16.624Z</time></trkpt><trkpt lat="44.1791483" lon="10.4631744"><ele>1181.1999999999998</ele><time>2026-04-04T09:52:17.623Z</time></trkpt><trkpt lat="44.1790438" lon="10.4630795"><ele>1179.6</ele><time>2026-04-04T09:52:18.62Z</time></trkpt><trkpt lat="44.1789376" lon="10.4629717"><ele>1178.0</ele><time>2026-04-04T09:52:19.622Z</time></trkpt><trkpt lat="44.1788391" lon="10.4628592"><ele>1178.0</ele><time>2026-04-04T09:52:20.617Z</time></trkpt><trkpt lat="44.1787448" lon="10.4627462"><ele>1178.0</ele><time>2026-04-04T09:52:21.609Z</time></trkpt><trkpt lat="44.1786664" lon="10.4626173"><ele>1178.0</ele><time>2026-04-04T09:52:22.632Z</time></trkpt><trkpt lat="44.1786093" lon="10.4624626"><ele>1178.0</ele><time>2026-04-04T09:52:23.619Z</time></trkpt><trkpt lat="44.1785706" lon="10.4623008"><ele>1178.0</ele><time>2026-04-04T09:52:24.628Z</time></trkpt><trkpt lat="44.1785122" lon="10.4621577"><ele>1178.0</ele><time>2026-04-04T09:52:25.629Z</time></trkpt><trkpt lat="44.1784257" lon="10.4620258"><ele>1178.0</ele><time>2026-04-04T09:52:26.64Z</time></trkpt><trkpt lat="44.1783023" lon="10.4619159"><ele>1178.0</ele><time>2026-04-04T09:52:27.638Z</time></trkpt><trkpt lat="44.178141" lon="10.4618435"><ele>1181.0</ele><time>2026-04-04T09:52:28.625Z</time></trkpt><trkpt lat="44.1779825" lon="10.4617658"><ele>1184.0</ele><time>2026-04-04T09:52:29.634Z</time></trkpt><trkpt lat="44.1778222" lon="10.4616919"><ele>1187.0</ele><time>2026-04-04T09:52:30.63Z</time></trkpt><trkpt lat="44.1776628" lon="10.4616133"><ele>1187.0</ele><time>2026-04-04T09:52:31.651Z</time></trkpt><trkpt lat="44.1775062" lon="10.461535"><ele>1187.0</ele><time>2026-04-04T09:52:32.632Z</time></trkpt><trkpt lat="44.1773607" lon="10.4614624"><ele>1187.0</ele><time>2026-04-04T09:52:33.627Z</time></trkpt><trkpt lat="44.1772254" lon="10.4614316"><ele>1191.3333333333335</ele><time>2026-04-04T09:52:34.631Z</time></trkpt><trkpt lat="44.1770674" lon="10.4614471"><ele>1195.6666666666667</ele><time>2026-04-04T09:52:35.621Z</time></trkpt><trkpt lat="44.1768939" lon="10.4614818"><ele>1200.0</ele><time>2026-04-04T09:52:36.62Z</time></trkpt><trkpt lat="44.1767014" lon="10.4615157"><ele>1200.3333333333333</ele><time>2026-04-04T09:52:37.628Z</time></trkpt><trkpt lat="44.1765093" lon="10.4615366"><ele>1200.6666666666665</ele><time>2026-04-04T09:52:38.627Z</time></trkpt><trkpt lat="44.1763204" lon="10.4615618"><ele>1201.0</ele><time>2026-04-04T09:52:39.625Z</time></trkpt><trkpt lat="44.1761426" lon="10.461596"><ele>1201.0</ele><time>2026-04-04T09:52:40.624Z</time></trkpt><trkpt lat="44.1759739" lon="10.4616095"><ele>1201.0</ele><time>2026-04-04T09:52:41.632Z</time></trkpt><trkpt lat="44.1758063" lon="10.4615881"><ele>1201.0</ele><time>2026-04-04T09:52:42.617Z</time></trkpt><trkpt lat="44.1756711" lon="10.4615714"><ele>1198.6</ele><time>2026-04-04T09:52:43.628Z</time></trkpt><trkpt lat="44.1755446" lon="10.4615751"><ele>1196.1999999999998</ele><time>2026-04-04T09:52:44.628Z</time></trkpt><trkpt lat="44.1754405" lon="10.4615389"><ele>1193.8000000000002</ele><time>2026-04-04T09:52:45.637Z</time></trkpt><trkpt lat="44.1753766" lon="10.4614454"><ele>1191.4</ele><time>2026-04-04T09:52:46.64Z</time></trkpt><trkpt lat="44.1753708" lon="10.4612992"><ele>1189.0</ele><time>2026-04-04T09:52:47.633Z</time></trkpt><trkpt lat="44.1753686" lon="10.4611385"><ele>1189.0</ele><time>2026-04-04T09:52:48.627Z</time></trkpt><trkpt lat="44.1753684" lon="10.4609647"><ele>1189.0</ele><time>2026-04-04T09:52:49.626Z</time></trkpt><trkpt lat="44.1753868" lon="10.4607854"><ele>1189.0</ele><time>2026-04-04T09:52:50.63Z</time></trkpt><trkpt lat="44.1754269" lon="10.4606151"><ele>1189.0</ele><time>2026-04-04T09:52:51.631Z</time></trkpt><trkpt lat="44.1754774" lon="10.4604472"><ele>1189.0</ele><time>2026-04-04T09:52:52.636Z</time></trkpt><trkpt lat="44.1755156" lon="10.4602634"><ele>1189.0</ele><time>2026-04-04T09:52:53.622Z</time></trkpt><trkpt lat="44.1755283" lon="10.4600745"><ele>1189.0</ele><time>2026-04-04T09:52:54.622Z</time></trkpt><trkpt lat="44.1754803" lon="10.4598806"><ele>1189.0</ele><time>2026-04-04T09:52:55.625Z</time></trkpt><trkpt lat="44.1753703" lon="10.4596618"><ele>1195.6666666666665</ele><time>2026-04-04T09:52:56.619Z</time></trkpt><trkpt lat="44.1752892" lon="10.4594584"><ele>1202.3333333333333</ele><time>2026-04-04T09:52:57.616Z</time></trkpt><trkpt lat="44.1752114" lon="10.4592679"><ele>1209.0</ele><time>2026-04-04T09:52:58.616Z</time></trkpt><trkpt lat="44.1751245" lon="10.4591085"><ele>1209.0</ele><time>2026-04-04T09:52:59.611Z</time></trkpt><trkpt lat="44.1750386" lon="10.4589832"><ele>1209.0</ele><time>2026-04-04T09:53:00.621Z</time></trkpt><trkpt lat="44.1749737" lon="10.4588397"><ele>1209.0</ele><time>2026-04-04T09:53:01.618Z</time></trkpt><trkpt lat="44.1749183" lon="10.4586702"><ele>1209.0</ele><time>2026-04-04T09:53:02.627Z</time></trkpt><trkpt lat="44.1748756" lon="10.4584803"><ele>1203.0</ele><time>2026-04-04T09:53:03.621Z</time></trkpt><trkpt lat="44.1748421" lon="10.4582914"><ele>1197.0</ele><time>2026-04-04T09:53:04.616Z</time></trkpt><trkpt lat="44.1748103" lon="10.4581183"><ele>1191.0</ele><time>2026-04-04T09:53:05.618Z</time></trkpt><trkpt lat="44.1747727" lon="10.4579439"><ele>1185.0</ele><time>2026-04-04T09:53:06.622Z</time></trkpt><trkpt lat="44.1747276" lon="10.4577677"><ele>1185.0</ele><time>2026-04-04T09:53:07.618Z</time></trkpt><trkpt lat="44.174671" lon="10.4575946"><ele>1185.0</ele><time>2026-04-04T09:53:08.621Z</time></trkpt><trkpt lat="44.1746079" lon="10.4574368"><ele>1185.0</ele><time>2026-04-04T09:53:09.617Z</time></trkpt><trkpt lat="44.1745327" lon="10.4572815"><ele>1185.0</ele><time>2026-04-04T09:53:10.624Z</time></trkpt><trkpt lat="44.174456" lon="10.4571356"><ele>1180.75</ele><time>2026-04-04T09:53:11.623Z</time></trkpt><trkpt lat="44.1743613" lon="10.4569955"><ele>1176.5</ele><time>2026-04-04T09:53:12.617Z</time></trkpt><trkpt lat="44.1742484" lon="10.4568589"><ele>1172.25</ele><time>2026-04-04T09:53:13.614Z</time></trkpt><trkpt lat="44.1741177" lon="10.4567469"><ele>1168.0</ele><time>2026-04-04T09:53:14.616Z</time></trkpt><trkpt lat="44.1739991" lon="10.4566336"><ele>1168.0</ele><time>2026-04-04T09:53:15.616Z</time></trkpt><trkpt lat="44.1738685" lon="10.4565127"><ele>1168.0</ele><time>2026-04-04T09:53:16.614Z</time></trkpt><trkpt lat="44.1737315" lon="10.4563682"><ele>1168.0</ele><time>2026-04-04T09:53:17.624Z</time></trkpt><trkpt lat="44.1735872" lon="10.4562165"><ele>1178.0</ele><time>2026-04-04T09:53:18.622Z</time></trkpt><trkpt lat="44.1734606" lon="10.4560854"><ele>1188.0</ele><time>2026-04-04T09:53:19.622Z</time></trkpt><trkpt lat="44.1733423" lon="10.4559583"><ele>1198.0</ele><time>2026-04-04T09:53:20.619Z</time></trkpt><trkpt lat="44.1732228" lon="10.4558446"><ele>1189.3333333333333</ele><time>2026-04-04T09:53:21.604Z</time></trkpt><trkpt lat="44.1730802" lon="10.4557649"><ele>1180.6666666666667</ele><time>2026-04-04T09:53:22.622Z</time></trkpt><trkpt lat="44.1729245" lon="10.4557046"><ele>1172.0</ele><time>2026-04-04T09:53:23.62Z</time></trkpt><trkpt lat="44.1727775" lon="10.4556536"><ele>1172.0</ele><time>2026-04-04T09:53:24.623Z</time></trkpt><trkpt lat="44.1726279" lon="10.4555996"><ele>1172.0</ele><time>2026-04-04T09:53:25.619Z</time></trkpt><trkpt lat="44.1724767" lon="10.4555254"><ele>1172.0</ele><time>2026-04-04T09:53:26.625Z</time></trkpt><trkpt lat="44.1723237" lon="10.4554079"><ele>1173.3333333333335</ele><time>2026-04-04T09:53:27.619Z</time></trkpt><trkpt lat="44.1721658" lon="10.4552763"><ele>1174.6666666666667</ele><time>2026-04-04T09:53:28.618Z</time></trkpt><trkpt lat="44.1720144" lon="10.4551469"><ele>1176.0</ele><time>2026-04-04T09:53:29.626Z</time></trkpt><trkpt lat="44.1718651" lon="10.4550248"><ele>1176.0</ele><time>2026-04-04T09:53:30.618Z</time></trkpt><trkpt lat="44.1717176" lon="10.4549034"><ele>1176.0</ele><time>2026-04-04T09:53:31.617Z</time></trkpt><trkpt lat="44.1715829" lon="10.4547975"><ele>1176.0</ele><time>2026-04-04T09:53:32.616Z</time></trkpt><trkpt lat="44.1714481" lon="10.4547369"><ele>1171.5</ele><time>2026-04-04T09:53:33.642Z</time></trkpt><trkpt lat="44.1713137" lon="10.4547452"><ele>1167.0</ele><time>2026-04-04T09:53:34.625Z</time></trkpt><trkpt lat="44.1711699" lon="10.4548424"><ele>1162.5</ele><time>2026-04-04T09:53:35.615Z</time></trkpt><trkpt lat="44.1710266" lon="10.4549144"><ele>1158.0</ele><time>2026-04-04T09:53:36.616Z</time></trkpt><trkpt lat="44.1708956" lon="10.4549233"><ele>1158.0</ele><time>2026-04-04T09:53:37.615Z</time></trkpt><trkpt lat="44.1707731" lon="10.4548637"><ele>1158.0</ele><time>2026-04-04T09:53:38.621Z</time></trkpt><trkpt lat="44.1706295" lon="10.4548291"><ele>1158.0</ele><time>2026-04-04T09:53:39.609Z</time></trkpt><trkpt lat="44.1704793" lon="10.4548217"><ele>1158.0</ele><time>2026-04-04T09:53:40.611Z</time></trkpt><trkpt lat="44.1703408" lon="10.4547894"><ele>1159.75</ele><time>2026-04-04T09:53:41.627Z</time></trkpt><trkpt lat="44.1702203" lon="10.4547043"><ele>1161.5</ele><time>2026-04-04T09:53:42.606Z</time></trkpt><trkpt lat="44.170078" lon="10.4546095"><ele>1163.25</ele><time>2026-04-04T09:53:43.617Z</time></trkpt><trkpt lat="44.1699401" lon="10.4545214"><ele>1165.0</ele><time>2026-04-04T09:53:44.614Z</time></trkpt><trkpt lat="44.169806" lon="10.4544827"><ele>1158.75</ele><time>2026-04-04T09:53:45.609Z</time></trkpt><trkpt lat="44.1696696" lon="10.4544555"><ele>1152.5</ele><time>2026-04-04T09:53:46.612Z</time></trkpt><trkpt lat="44.1695331" lon="10.4543954"><ele>1146.25</ele><time>2026-04-04T09:53:47.622Z</time></trkpt><trkpt lat="44.1694" lon="10.4542906"><ele>1140.0</ele><time>2026-04-04T09:53:48.619Z</time></trkpt><trkpt lat="44.1692711" lon="10.454192"><ele>1140.0</ele><time>2026-04-04T09:53:49.627Z</time></trkpt><trkpt lat="44.1691394" lon="10.4540784"><ele>1140.0</ele><time>2026-04-04T09:53:50.659Z</time></trkpt><trkpt lat="44.1690051" lon="10.4539403"><ele>1140.0</ele><time>2026-04-04T09:53:51.62Z</time></trkpt><trkpt lat="44.1688848" lon="10.4537941"><ele>1137.6666666666667</ele><time>2026-04-04T09:53:52.653Z</time></trkpt><trkpt lat="44.1687626" lon="10.4536422"><ele>1135.3333333333335</ele><time>2026-04-04T09:53:53.632Z</time></trkpt><trkpt lat="44.1686315" lon="10.4535099"><ele>1133.0</ele><time>2026-04-04T09:53:54.621Z</time></trkpt><trkpt lat="44.1684907" lon="10.4533937"><ele>1133.0</ele><time>2026-04-04T09:53:55.63Z</time></trkpt><trkpt lat="44.1683449" lon="10.4532942"><ele>1133.0</ele><time>2026-04-04T09:53:56.626Z</time></trkpt><trkpt lat="44.1681845" lon="10.4532172"><ele>1133.0</ele><time>2026-04-04T09:53:57.622Z</time></trkpt><trkpt lat="44.1680282" lon="10.4531262"><ele>1129.3333333333335</ele><time>2026-04-04T09:53:58.633Z</time></trkpt><trkpt lat="44.1678679" lon="10.4530392"><ele>1125.6666666666667</ele><time>2026-04-04T09:53:59.627Z</time></trkpt><trkpt lat="44.1677027" lon="10.4529488"><ele>1122.0</ele><time>2026-04-04T09:54:00.635Z</time></trkpt><trkpt lat="44.167543" lon="10.4528678"><ele>1122.0</ele><time>2026-04-04T09:54:01.631Z</time></trkpt><trkpt lat="44.1673821" lon="10.4528308"><ele>1122.0</ele><time>2026-04-04T09:54:02.626Z</time></trkpt><trkpt lat="44.1672211" lon="10.4528061"><ele>1122.0</ele><time>2026-04-04T09:54:03.635Z</time></trkpt><trkpt lat="44.1670724" lon="10.4527921"><ele>1120.6666666666667</ele><time>2026-04-04T09:54:04.632Z</time></trkpt><trkpt lat="44.1669063" lon="10.4527809"><ele>1119.3333333333335</ele><time>2026-04-04T09:54:05.623Z</time></trkpt><trkpt lat="44.1667471" lon="10.452826"><ele>1118.0</ele><time>2026-04-04T09:54:06.615Z</time></trkpt><trkpt lat="44.1666012" lon="10.4528951"><ele>1111.6666666666667</ele><time>2026-04-04T09:54:07.622Z</time></trkpt><trkpt lat="44.1664504" lon="10.4529776"><ele>1105.3333333333333</ele><time>2026-04-04T09:54:08.625Z</time></trkpt><trkpt lat="44.1663048" lon="10.4530416"><ele>1099.0</ele><time>2026-04-04T09:54:09.631Z</time></trkpt><trkpt lat="44.1661709" lon="10.4530728"><ele>1099.0</ele><time>2026-04-04T09:54:10.618Z</time></trkpt><trkpt lat="44.1660716" lon="10.4530341"><ele>1099.0</ele><time>2026-04-04T09:54:11.633Z</time></trkpt><trkpt lat="44.1659799" lon="10.4529219"><ele>1099.0</ele><time>2026-04-04T09:54:12.621Z</time></trkpt><trkpt lat="44.1659132" lon="10.4527419"><ele>1099.0</ele><time>2026-04-04T09:54:13.627Z</time></trkpt><trkpt lat="44.165864" lon="10.4525235"><ele>1098.3333333333333</ele><time>2026-04-04T09:54:14.629Z</time></trkpt><trkpt lat="44.1658056" lon="10.4522913"><ele>1097.6666666666667</ele><time>2026-04-04T09:54:15.634Z</time></trkpt><trkpt lat="44.1657416" lon="10.4520667"><ele>1097.0</ele><time>2026-04-04T09:54:16.632Z</time></trkpt><trkpt lat="44.1656985" lon="10.4518224"><ele>1094.3333333333335</ele><time>2026-04-04T09:54:17.628Z</time></trkpt><trkpt lat="44.165663" lon="10.4515809"><ele>1091.6666666666667</ele><time>2026-04-04T09:54:18.625Z</time></trkpt><trkpt lat="44.1656333" lon="10.4513218"><ele>1089.0</ele><time>2026-04-04T09:54:19.626Z</time></trkpt><trkpt lat="44.1655975" lon="10.4510538"><ele>1089.0</ele><time>2026-04-04T09:54:20.626Z</time></trkpt><trkpt lat="44.16556" lon="10.4507972"><ele>1089.0</ele><time>2026-04-04T09:54:21.631Z</time></trkpt><trkpt lat="44.1655089" lon="10.4505528"><ele>1089.0</ele><time>2026-04-04T09:54:22.634Z</time></trkpt><trkpt lat="44.1654527" lon="10.4502874"><ele>1087.3333333333333</ele><time>2026-04-04T09:54:23.627Z</time></trkpt><trkpt lat="44.1653896" lon="10.4500239"><ele>1085.6666666666665</ele><time>2026-04-04T09:54:24.623Z</time></trkpt><trkpt lat="44.1653265" lon="10.4497633"><ele>1084.0</ele><time>2026-04-04T09:54:25.625Z</time></trkpt><trkpt lat="44.1652599" lon="10.4494948"><ele>1084.3333333333333</ele><time>2026-04-04T09:54:26.626Z</time></trkpt><trkpt lat="44.1652217" lon="10.4492193"><ele>1084.6666666666667</ele><time>2026-04-04T09:54:27.63Z</time></trkpt><trkpt lat="44.1652117" lon="10.4489451"><ele>1085.0</ele><time>2026-04-04T09:54:28.631Z</time></trkpt><trkpt lat="44.1652128" lon="10.4486549"><ele>1085.0</ele><time>2026-04-04T09:54:29.634Z</time></trkpt><trkpt lat="44.1652097" lon="10.4483552"><ele>1085.0</ele><time>2026-04-04T09:54:30.629Z</time></trkpt><trkpt lat="44.1652051" lon="10.4480584"><ele>1085.0</ele><time>2026-04-04T09:54:31.627Z</time></trkpt><trkpt lat="44.1651964" lon="10.4477631"><ele>1084.0</ele><time>2026-04-04T09:54:32.631Z</time></trkpt><trkpt lat="44.1652037" lon="10.4474749"><ele>1083.0</ele><time>2026-04-04T09:54:33.634Z</time></trkpt><trkpt lat="44.1652432" lon="10.4471875"><ele>1082.0</ele><time>2026-04-04T09:54:34.624Z</time></trkpt><trkpt lat="44.1652913" lon="10.4469169"><ele>1081.3333333333335</ele><time>2026-04-04T09:54:35.669Z</time></trkpt><trkpt lat="44.1653446" lon="10.446642"><ele>1080.6666666666667</ele><time>2026-04-04T09:54:36.656Z</time></trkpt><trkpt lat="44.1653901" lon="10.446378"><ele>1080.0</ele><time>2026-04-04T09:54:37.625Z</time></trkpt><trkpt lat="44.165424" lon="10.4460944"><ele>1079.0</ele><time>2026-04-04T09:54:38.626Z</time></trkpt><trkpt lat="44.1654365" lon="10.4458122"><ele>1078.0</ele><time>2026-04-04T09:54:39.633Z</time></trkpt><trkpt lat="44.1654378" lon="10.4455313"><ele>1077.0</ele><time>2026-04-04T09:54:40.639Z</time></trkpt><trkpt lat="44.1654392" lon="10.4452624"><ele>1077.0</ele><time>2026-04-04T09:54:41.629Z</time></trkpt><trkpt lat="44.1654352" lon="10.4449937"><ele>1077.0</ele><time>2026-04-04T09:54:42.635Z</time></trkpt><trkpt lat="44.1654339" lon="10.4447201"><ele>1077.0</ele><time>2026-04-04T09:54:43.634Z</time></trkpt><trkpt lat="44.1654229" lon="10.4444409"><ele>1076.6666666666667</ele><time>2026-04-04T09:54:44.63Z</time></trkpt><trkpt lat="44.1654173" lon="10.4441533"><ele>1076.3333333333335</ele><time>2026-04-04T09:54:45.63Z</time></trkpt><trkpt lat="44.1654163" lon="10.443872"><ele>1076.0</ele><time>2026-04-04T09:54:46.638Z</time></trkpt><trkpt lat="44.1654037" lon="10.4436206"><ele>1073.3333333333335</ele><time>2026-04-04T09:54:47.635Z</time></trkpt><trkpt lat="44.1654268" lon="10.4433839"><ele>1070.6666666666667</ele><time>2026-04-04T09:54:48.63Z</time></trkpt><trkpt lat="44.1654922" lon="10.4431597"><ele>1068.0</ele><time>2026-04-04T09:54:49.644Z</time></trkpt><trkpt lat="44.1655926" lon="10.4429628"><ele>1061.0</ele><time>2026-04-04T09:54:50.649Z</time></trkpt><trkpt lat="44.1656846" lon="10.442793"><ele>1054.0</ele><time>2026-04-04T09:54:51.644Z</time></trkpt><trkpt lat="44.165757" lon="10.4426408"><ele>1047.0</ele><time>2026-04-04T09:54:52.657Z</time></trkpt><trkpt lat="44.1658113" lon="10.4424923"><ele>1040.0</ele><time>2026-04-04T09:54:53.667Z</time></trkpt><trkpt lat="44.1658142" lon="10.4423688"><ele>1040.0</ele><time>2026-04-04T09:54:54.669Z</time></trkpt><trkpt lat="44.1657504" lon="10.4422593"><ele>1040.0</ele><time>2026-04-04T09:54:55.654Z</time></trkpt><trkpt lat="44.1656453" lon="10.4421917"><ele>1040.0</ele><time>2026-04-04T09:54:56.642Z</time></trkpt><trkpt lat="44.1655284" lon="10.4421586"><ele>1040.0</ele><time>2026-04-04T09:54:57.638Z</time></trkpt><trkpt lat="44.1653987" lon="10.442164"><ele>1040.0</ele><time>2026-04-04T09:54:58.633Z</time></trkpt><trkpt lat="44.1652576" lon="10.4421819"><ele>1040.0</ele><time>2026-04-04T09:54:59.618Z</time></trkpt><trkpt lat="44.1651146" lon="10.4421877"><ele>1040.0</ele><time>2026-04-04T09:55:00.622Z</time></trkpt><trkpt lat="44.1649814" lon="10.4421798"><ele>1040.0</ele><time>2026-04-04T09:55:01.621Z</time></trkpt><trkpt lat="44.1648582" lon="10.4421906"><ele>1040.6</ele><time>2026-04-04T09:55:02.621Z</time></trkpt><trkpt lat="44.1647363" lon="10.4422416"><ele>1041.2</ele><time>2026-04-04T09:55:03.618Z</time></trkpt><trkpt lat="44.164625" lon="10.4423057"><ele>1041.8</ele><time>2026-04-04T09:55:04.648Z</time></trkpt><trkpt lat="44.1645243" lon="10.4423396"><ele>1042.4</ele><time>2026-04-04T09:55:05.647Z</time></trkpt><trkpt lat="44.164434" lon="10.4423056"><ele>1043.0</ele><time>2026-04-04T09:55:06.657Z</time></trkpt><trkpt lat="44.1643497" lon="10.4422026"><ele>1031.75</ele><time>2026-04-04T09:55:07.64Z</time></trkpt><trkpt lat="44.1642481" lon="10.4420934"><ele>1020.5</ele><time>2026-04-04T09:55:08.648Z</time></trkpt><trkpt lat="44.1641492" lon="10.442006"><ele>1009.25</ele><time>2026-04-04T09:55:09.624Z</time></trkpt><trkpt lat="44.1640419" lon="10.4419416"><ele>998.0</ele><time>2026-04-04T09:55:10.605Z</time></trkpt><trkpt lat="44.163925" lon="10.4419196"><ele>995.5</ele><time>2026-04-04T09:55:11.623Z</time></trkpt><trkpt lat="44.1637958" lon="10.4419541"><ele>993.0</ele><time>2026-04-04T09:55:12.621Z</time></trkpt><trkpt lat="44.1636538" lon="10.4420076"><ele>990.5</ele><time>2026-04-04T09:55:13.615Z</time></trkpt><trkpt lat="44.1634974" lon="10.4420276"><ele>988.0</ele><time>2026-04-04T09:55:14.621Z</time></trkpt><trkpt lat="44.1633339" lon="10.442023"><ele>987.25</ele><time>2026-04-04T09:55:15.617Z</time></trkpt><trkpt lat="44.1631955" lon="10.4420316"><ele>986.5</ele><time>2026-04-04T09:55:16.617Z</time></trkpt><trkpt lat="44.1630432" lon="10.4420343"><ele>985.75</ele><time>2026-04-04T09:55:17.631Z</time></trkpt><trkpt lat="44.1628952" lon="10.442015"><ele>985.0</ele><time>2026-04-04T09:55:18.621Z</time></trkpt><trkpt lat="44.1627579" lon="10.4419597"><ele>985.0</ele><time>2026-04-04T09:55:19.64Z</time></trkpt><trkpt lat="44.1626373" lon="10.4418682"><ele>985.0</ele><time>2026-04-04T09:55:20.632Z</time></trkpt><trkpt lat="44.1625178" lon="10.4417583"><ele>985.0</ele><time>2026-04-04T09:55:21.633Z</time></trkpt><trkpt lat="44.1623994" lon="10.4416509"><ele>985.0</ele><time>2026-04-04T09:55:22.648Z</time></trkpt><trkpt lat="44.1622775" lon="10.44155"><ele>980.6666666666666</ele><time>2026-04-04T09:55:23.639Z</time></trkpt><trkpt lat="44.162131" lon="10.4414791"><ele>976.3333333333333</ele><time>2026-04-04T09:55:24.637Z</time></trkpt><trkpt lat="44.1619711" lon="10.4414449"><ele>972.0</ele><time>2026-04-04T09:55:25.632Z</time></trkpt><trkpt lat="44.1617984" lon="10.4414307"><ele>972.0</ele><time>2026-04-04T09:55:26.634Z</time></trkpt><trkpt lat="44.161627" lon="10.4414121"><ele>972.0</ele><time>2026-04-04T09:55:27.635Z</time></trkpt><trkpt lat="44.161457" lon="10.4413669"><ele>972.0</ele><time>2026-04-04T09:55:28.632Z</time></trkpt><trkpt lat="44.1612995" lon="10.4412745"><ele>975.0</ele><time>2026-04-04T09:55:29.631Z</time></trkpt><trkpt lat="44.1611387" lon="10.4412057"><ele>978.0</ele><time>2026-04-04T09:55:30.609Z</time></trkpt><trkpt lat="44.1609836" lon="10.44114"><ele>981.0</ele><time>2026-04-04T09:55:31.628Z</time></trkpt><trkpt lat="44.1608324" lon="10.441074"><ele>977.75</ele><time>2026-04-04T09:55:32.628Z</time></trkpt><trkpt lat="44.1606879" lon="10.4410093"><ele>974.5</ele><time>2026-04-04T09:55:33.631Z</time></trkpt><trkpt lat="44.1605532" lon="10.4409261"><ele>971.25</ele><time>2026-04-04T09:55:34.628Z</time></trkpt><trkpt lat="44.1604311" lon="10.4408183"><ele>968.0</ele><time>2026-04-04T09:55:35.629Z</time></trkpt><trkpt lat="44.16032" lon="10.4407083"><ele>968.0</ele><time>2026-04-04T09:55:36.637Z</time></trkpt><trkpt lat="44.160215" lon="10.4405734"><ele>968.0</ele><time>2026-04-04T09:55:37.653Z</time></trkpt><trkpt lat="44.1601217" lon="10.4404115"><ele>968.0</ele><time>2026-04-04T09:55:38.642Z</time></trkpt><trkpt lat="44.1600369" lon="10.4402505"><ele>968.0</ele><time>2026-04-04T09:55:39.647Z</time></trkpt><trkpt lat="44.1599434" lon="10.4400915"><ele>965.6666666666667</ele><time>2026-04-04T09:55:40.641Z</time></trkpt><trkpt lat="44.1598157" lon="10.4399714"><ele>963.3333333333333</ele><time>2026-04-04T09:55:41.648Z</time></trkpt><trkpt lat="44.1596692" lon="10.439912"><ele>961.0</ele><time>2026-04-04T09:55:42.639Z</time></trkpt><trkpt lat="44.1595157" lon="10.4398626"><ele>961.0</ele><time>2026-04-04T09:55:43.645Z</time></trkpt><trkpt lat="44.1593609" lon="10.4398058"><ele>961.0</ele><time>2026-04-04T09:55:44.631Z</time></trkpt><trkpt lat="44.1592204" lon="10.4397248"><ele>961.0</ele><time>2026-04-04T09:55:45.631Z</time></trkpt><trkpt lat="44.159102" lon="10.4396131"><ele>959.25</ele><time>2026-04-04T09:55:46.638Z</time></trkpt><trkpt lat="44.1589946" lon="10.4394957"><ele>957.5</ele><time>2026-04-04T09:55:47.659Z</time></trkpt><trkpt lat="44.1588976" lon="10.4393962"><ele>955.75</ele><time>2026-04-04T09:55:48.671Z</time></trkpt><trkpt lat="44.1587769" lon="10.4393453"><ele>954.0</ele><time>2026-04-04T09:55:49.63Z</time></trkpt><trkpt lat="44.1586568" lon="10.4393042"><ele>954.0</ele><time>2026-04-04T09:55:50.635Z</time></trkpt><trkpt lat="44.1585207" lon="10.4392787"><ele>954.0</ele><time>2026-04-04T09:55:51.639Z</time></trkpt><trkpt lat="44.1583903" lon="10.4392348"><ele>954.0</ele><time>2026-04-04T09:55:52.64Z</time></trkpt><trkpt lat="44.1582575" lon="10.439208"><ele>954.0</ele><time>2026-04-04T09:55:53.639Z</time></trkpt><trkpt lat="44.1581403" lon="10.4391799"><ele>951.6</ele><time>2026-04-04T09:55:54.619Z</time></trkpt><trkpt lat="44.1580373" lon="10.4391512"><ele>949.2</ele><time>2026-04-04T09:55:55.626Z</time></trkpt><trkpt lat="44.157945" lon="10.4391306"><ele>946.8000000000001</ele><time>2026-04-04T09:55:56.626Z</time></trkpt><trkpt lat="44.1578556" lon="10.4391495"><ele>944.4000000000001</ele><time>2026-04-04T09:55:57.622Z</time></trkpt><trkpt lat="44.1577751" lon="10.4391803"><ele>942.0</ele><time>2026-04-04T09:55:58.613Z</time></trkpt><trkpt lat="44.1576814" lon="10.439176"><ele>942.0</ele><time>2026-04-04T09:55:59.621Z</time></trkpt><trkpt lat="44.1575821" lon="10.4391532"><ele>942.0</ele><time>2026-04-04T09:56:00.626Z</time></trkpt><trkpt lat="44.157458" lon="10.439114"><ele>942.0</ele><time>2026-04-04T09:56:01.613Z</time></trkpt><trkpt lat="44.1573214" lon="10.4390613"><ele>942.0</ele><time>2026-04-04T09:56:02.622Z</time></trkpt><trkpt lat="44.1571736" lon="10.439003"><ele>935.6666666666667</ele><time>2026-04-04T09:56:03.615Z</time></trkpt><trkpt lat="44.15702" lon="10.4389345"><ele>929.3333333333334</ele><time>2026-04-04T09:56:04.637Z</time></trkpt><trkpt lat="44.1568625" lon="10.4388881"><ele>923.0</ele><time>2026-04-04T09:56:05.631Z</time></trkpt><trkpt lat="44.1567118" lon="10.4388579"><ele>923.0</ele><time>2026-04-04T09:56:06.63Z</time></trkpt><trkpt lat="44.15658" lon="10.4388206"><ele>923.0</ele><time>2026-04-04T09:56:07.631Z</time></trkpt><trkpt lat="44.1564847" lon="10.4387867"><ele>923.0</ele><time>2026-04-04T09:56:08.642Z</time></trkpt><trkpt lat="44.1564011" lon="10.4387362"><ele>923.0</ele><time>2026-04-04T09:56:09.635Z</time></trkpt><trkpt lat="44.1563358" lon="10.4386351"><ele>923.0</ele><time>2026-04-04T09:56:10.635Z</time></trkpt><trkpt lat="44.1562879" lon="10.4384826"><ele>923.25</ele><time>2026-04-04T09:56:11.631Z</time></trkpt><trkpt lat="44.1562356" lon="10.4383416"><ele>923.5</ele><time>2026-04-04T09:56:12.631Z</time></trkpt><trkpt lat="44.1561589" lon="10.4382034"><ele>923.75</ele><time>2026-04-04T09:56:13.629Z</time></trkpt><trkpt lat="44.1560719" lon="10.4380816"><ele>924.0</ele><time>2026-04-04T09:56:14.629Z</time></trkpt><trkpt lat="44.1559751" lon="10.4379828"><ele>924.4000000000001</ele><time>2026-04-04T09:56:15.621Z</time></trkpt><trkpt lat="44.1558718" lon="10.4379054"><ele>924.8000000000001</ele><time>2026-04-04T09:56:16.636Z</time></trkpt><trkpt lat="44.1557631" lon="10.4378378"><ele>925.1999999999999</ele><time>2026-04-04T09:56:17.627Z</time></trkpt><trkpt lat="44.1556632" lon="10.4377817"><ele>925.5999999999999</ele><time>2026-04-04T09:56:18.621Z</time></trkpt><trkpt lat="44.1555808" lon="10.4377333"><ele>926.0</ele><time>2026-04-04T09:56:19.631Z</time></trkpt><trkpt lat="44.1554759" lon="10.4377798"><ele>922.5999999999999</ele><time>2026-04-04T09:56:21.637Z</time></trkpt><trkpt lat="44.1554482" lon="10.4378618"><ele>919.1999999999999</ele><time>2026-04-04T09:56:22.634Z</time></trkpt><trkpt lat="44.1554341" lon="10.437987"><ele>915.8000000000001</ele><time>2026-04-04T09:56:23.637Z</time></trkpt><trkpt lat="44.1554287" lon="10.4381652"><ele>912.4000000000001</ele><time>2026-04-04T09:56:24.639Z</time></trkpt><trkpt lat="44.1554262" lon="10.4383615"><ele>909.0</ele><time>2026-04-04T09:56:25.636Z</time></trkpt><trkpt lat="44.1554309" lon="10.4385565"><ele>908.5</ele><time>2026-04-04T09:56:26.632Z</time></trkpt><trkpt lat="44.1554369" lon="10.4387411"><ele>908.0</ele><time>2026-04-04T09:56:27.63Z</time></trkpt><trkpt lat="44.1554372" lon="10.4389088"><ele>907.5</ele><time>2026-04-04T09:56:28.631Z</time></trkpt><trkpt lat="44.1554357" lon="10.4390637"><ele>907.0</ele><time>2026-04-04T09:56:29.63Z</time></trkpt><trkpt lat="44.1554319" lon="10.4392188"><ele>905.4000000000001</ele><time>2026-04-04T09:56:30.631Z</time></trkpt><trkpt lat="44.155432" lon="10.4393716"><ele>903.8000000000001</ele><time>2026-04-04T09:56:31.638Z</time></trkpt><trkpt lat="44.1554497" lon="10.4395226"><ele>902.2</ele><time>2026-04-04T09:56:32.628Z</time></trkpt><trkpt lat="44.1554927" lon="10.439663"><ele>900.6</ele><time>2026-04-04T09:56:33.639Z</time></trkpt><trkpt lat="44.1555631" lon="10.4397684"><ele>899.0</ele><time>2026-04-04T09:56:34.633Z</time></trkpt><trkpt lat="44.1556563" lon="10.43985"><ele>897.0</ele><time>2026-04-04T09:56:35.632Z</time></trkpt><trkpt lat="44.1557651" lon="10.4398986"><ele>895.0</ele><time>2026-04-04T09:56:36.632Z</time></trkpt><trkpt lat="44.155886" lon="10.4399414"><ele>893.0</ele><time>2026-04-04T09:56:37.62Z</time></trkpt><trkpt lat="44.1560237" lon="10.4399793"><ele>891.0</ele><time>2026-04-04T09:56:38.623Z</time></trkpt><trkpt lat="44.1561648" lon="10.4400035"><ele>891.0</ele><time>2026-04-04T09:56:39.643Z</time></trkpt><trkpt lat="44.1563179" lon="10.4399985"><ele>891.0</ele><time>2026-04-04T09:56:40.626Z</time></trkpt><trkpt lat="44.1564769" lon="10.4399602"><ele>891.0</ele><time>2026-04-04T09:56:41.635Z</time></trkpt><trkpt lat="44.1566163" lon="10.4399324"><ele>893.0</ele><time>2026-04-04T09:56:42.622Z</time></trkpt><trkpt lat="44.1567417" lon="10.4399226"><ele>894.9999999999999</ele><time>2026-04-04T09:56:43.626Z</time></trkpt><trkpt lat="44.1568501" lon="10.4399562"><ele>896.9999999999999</ele><time>2026-04-04T09:56:44.619Z</time></trkpt><trkpt lat="44.1569239" lon="10.4400575"><ele>899.0</ele><time>2026-04-04T09:56:45.628Z</time></trkpt><trkpt lat="44.1569343" lon="10.4401908"><ele>901.0</ele><time>2026-04-04T09:56:46.631Z</time></trkpt><trkpt lat="44.1569436" lon="10.4402902"><ele>901.0</ele><time>2026-04-04T09:56:47.62Z</time></trkpt><trkpt lat="44.1568579" lon="10.4404298"><ele>901.0</ele><time>2026-04-04T09:56:48.616Z</time></trkpt><trkpt lat="44.1567373" lon="10.4405061"><ele>901.0</ele><time>2026-04-04T09:56:49.621Z</time></trkpt><trkpt lat="44.1566201" lon="10.4405747"><ele>901.0</ele><time>2026-04-04T09:56:50.613Z</time></trkpt><trkpt lat="44.1565161" lon="10.440674"><ele>895.25</ele><time>2026-04-04T09:56:51.632Z</time></trkpt><trkpt lat="44.1564154" lon="10.4408098"><ele>889.5</ele><time>2026-04-04T09:56:52.639Z</time></trkpt><trkpt lat="44.15631" lon="10.440962"><ele>883.75</ele><time>2026-04-04T09:56:53.623Z</time></trkpt><trkpt lat="44.1562024" lon="10.441086"><ele>878.0</ele><time>2026-04-04T09:56:54.626Z</time></trkpt><trkpt lat="44.156083" lon="10.441185"><ele>878.0</ele><time>2026-04-04T09:56:55.633Z</time></trkpt><trkpt lat="44.1559695" lon="10.4412497"><ele>878.0</ele><time>2026-04-04T09:56:56.631Z</time></trkpt><trkpt lat="44.1558742" lon="10.4413075"><ele>878.0</ele><time>2026-04-04T09:56:57.623Z</time></trkpt><trkpt lat="44.1558002" lon="10.4413832"><ele>878.0</ele><time>2026-04-04T09:56:58.626Z</time></trkpt><trkpt lat="44.1557452" lon="10.4415215"><ele>878.0</ele><time>2026-04-04T09:56:59.623Z</time></trkpt><trkpt lat="44.1556932" lon="10.4416773"><ele>875.5999999999999</ele><time>2026-04-04T09:57:00.628Z</time></trkpt><trkpt lat="44.1556446" lon="10.441815"><ele>873.1999999999999</ele><time>2026-04-04T09:57:01.611Z</time></trkpt><trkpt lat="44.1555952" lon="10.4419226"><ele>870.8</ele><time>2026-04-04T09:57:02.617Z</time></trkpt><trkpt lat="44.1555246" lon="10.4419928"><ele>868.4</ele><time>2026-04-04T09:57:03.626Z</time></trkpt><trkpt lat="44.1554363" lon="10.4420195"><ele>866.0</ele><time>2026-04-04T09:57:04.616Z</time></trkpt><trkpt lat="44.1553344" lon="10.4419969"><ele>866.0</ele><time>2026-04-04T09:57:05.617Z</time></trkpt><trkpt lat="44.1552087" lon="10.4419565"><ele>866.0</ele><time>2026-04-04T09:57:06.613Z</time></trkpt><trkpt lat="44.1550718" lon="10.4419088"><ele>866.0</ele><time>2026-04-04T09:57:07.615Z</time></trkpt><trkpt lat="44.1549284" lon="10.441847"><ele>866.0</ele><time>2026-04-04T09:57:08.615Z</time></trkpt><trkpt lat="44.1547851" lon="10.4417736"><ele>864.5</ele><time>2026-04-04T09:57:09.617Z</time></trkpt><trkpt lat="44.1546457" lon="10.4417142"><ele>863.0</ele><time>2026-04-04T09:57:10.635Z</time></trkpt><trkpt lat="44.1545133" lon="10.4416855"><ele>861.5</ele><time>2026-04-04T09:57:11.615Z</time></trkpt><trkpt lat="44.154383" lon="10.441715"><ele>860.0</ele><time>2026-04-04T09:57:12.619Z</time></trkpt><trkpt lat="44.1542535" lon="10.441783"><ele>860.0</ele><time>2026-04-04T09:57:13.608Z</time></trkpt><trkpt lat="44.1541225" lon="10.4418546"><ele>860.0</ele><time>2026-04-04T09:57:14.619Z</time></trkpt><trkpt lat="44.1539991" lon="10.4418501"><ele>860.0</ele><time>2026-04-04T09:57:15.604Z</time></trkpt><trkpt lat="44.153878" lon="10.44178"><ele>860.0</ele><time>2026-04-04T09:57:16.616Z</time></trkpt><trkpt lat="44.153751" lon="10.4417187"><ele>858.0</ele><time>2026-04-04T09:57:17.639Z</time></trkpt><trkpt lat="44.1536222" lon="10.4416478"><ele>856.0</ele><time>2026-04-04T09:57:18.633Z</time></trkpt><trkpt lat="44.1534899" lon="10.441562"><ele>854.0</ele><time>2026-04-04T09:57:19.645Z</time></trkpt><trkpt lat="44.1533554" lon="10.4414437"><ele>852.0</ele><time>2026-04-04T09:57:20.613Z</time></trkpt><trkpt lat="44.1532189" lon="10.4413324"><ele>838.3333333333333</ele><time>2026-04-04T09:57:21.618Z</time></trkpt><trkpt lat="44.1530806" lon="10.4412753"><ele>824.6666666666666</ele><time>2026-04-04T09:57:22.623Z</time></trkpt><trkpt lat="44.1529399" lon="10.4412475"><ele>811.0</ele><time>2026-04-04T09:57:23.615Z</time></trkpt><trkpt lat="44.152777" lon="10.4412782"><ele>808.3333333333333</ele><time>2026-04-04T09:57:24.619Z</time></trkpt><trkpt lat="44.152623" lon="10.4413056"><ele>805.6666666666667</ele><time>2026-04-04T09:57:25.625Z</time></trkpt><trkpt lat="44.152477" lon="10.4413164"><ele>803.0</ele><time>2026-04-04T09:57:26.609Z</time></trkpt><trkpt lat="44.1523219" lon="10.4412982"><ele>803.0</ele><time>2026-04-04T09:57:27.619Z</time></trkpt><trkpt lat="44.1522052" lon="10.4412861"><ele>803.0</ele><time>2026-04-04T09:57:28.626Z</time></trkpt><trkpt lat="44.152106" lon="10.4412675"><ele>803.0</ele><time>2026-04-04T09:57:29.619Z</time></trkpt><trkpt lat="44.1520271" lon="10.4412875"><ele>803.0</ele><time>2026-04-04T09:57:30.633Z</time></trkpt><trkpt lat="44.1519447" lon="10.4413568"><ele>803.0</ele><time>2026-04-04T09:57:31.639Z</time></trkpt><trkpt lat="44.1518956" lon="10.4414722"><ele>805.5</ele><time>2026-04-04T09:57:32.628Z</time></trkpt><trkpt lat="44.1518884" lon="10.4416222"><ele>808.0</ele><time>2026-04-04T09:57:33.638Z</time></trkpt><trkpt lat="44.151937" lon="10.4418132"><ele>810.5</ele><time>2026-04-04T09:57:34.629Z</time></trkpt><trkpt lat="44.1519829" lon="10.4419906"><ele>813.0</ele><time>2026-04-04T09:57:35.619Z</time></trkpt><trkpt lat="44.1520293" lon="10.4421602"><ele>817.25</ele><time>2026-04-04T09:57:36.625Z</time></trkpt><trkpt lat="44.1520831" lon="10.442308"><ele>821.5</ele><time>2026-04-04T09:57:37.624Z</time></trkpt><trkpt lat="44.1521554" lon="10.4424312"><ele>825.75</ele><time>2026-04-04T09:57:38.612Z</time></trkpt><trkpt lat="44.1522668" lon="10.4425206"><ele>830.0</ele><time>2026-04-04T09:57:39.632Z</time></trkpt><trkpt lat="44.1524153" lon="10.4425846"><ele>830.0</ele><time>2026-04-04T09:57:40.611Z</time></trkpt><trkpt lat="44.152569" lon="10.4426788"><ele>830.0</ele><time>2026-04-04T09:57:41.64Z</time></trkpt><trkpt lat="44.1527018" lon="10.4428438"><ele>830.0</ele><time>2026-04-04T09:57:42.619Z</time></trkpt><trkpt lat="44.1528063" lon="10.4429777"><ele>822.4</ele><time>2026-04-04T09:57:43.611Z</time></trkpt><trkpt lat="44.152905" lon="10.4430788"><ele>814.8</ele><time>2026-04-04T09:57:44.603Z</time></trkpt><trkpt lat="44.1529601" lon="10.4431611"><ele>807.2</ele><time>2026-04-04T09:57:45.614Z</time></trkpt><trkpt lat="44.1530013" lon="10.4432433"><ele>799.6</ele><time>2026-04-04T09:57:46.615Z</time></trkpt><trkpt lat="44.1529408" lon="10.4433503"><ele>792.0</ele><time>2026-04-04T09:57:48.62Z</time></trkpt><trkpt lat="44.1528281" lon="10.4432711"><ele>792.0</ele><time>2026-04-04T09:57:50.629Z</time></trkpt><trkpt lat="44.1527825" lon="10.4431729"><ele>792.0</ele><time>2026-04-04T09:57:51.616Z</time></trkpt><trkpt lat="44.1527182" lon="10.4430631"><ele>792.0</ele><time>2026-04-04T09:57:52.627Z</time></trkpt><trkpt lat="44.1526445" lon="10.4429492"><ele>792.0</ele><time>2026-04-04T09:57:53.618Z</time></trkpt><trkpt lat="44.1525506" lon="10.4428342"><ele>792.0</ele><time>2026-04-04T09:57:54.616Z</time></trkpt><trkpt lat="44.1524352" lon="10.4427224"><ele>790.75</ele><time>2026-04-04T09:57:55.621Z</time></trkpt><trkpt lat="44.1522936" lon="10.4426456"><ele>789.5</ele><time>2026-04-04T09:57:56.614Z</time></trkpt><trkpt lat="44.1521468" lon="10.442628"><ele>788.25</ele><time>2026-04-04T09:57:57.629Z</time></trkpt><trkpt lat="44.1520128" lon="10.4426066"><ele>787.0</ele><time>2026-04-04T09:57:58.62Z</time></trkpt><trkpt lat="44.1519032" lon="10.4425429"><ele>787.0</ele><time>2026-04-04T09:57:59.616Z</time></trkpt><trkpt lat="44.1518132" lon="10.442427"><ele>787.0</ele><time>2026-04-04T09:58:00.621Z</time></trkpt><trkpt lat="44.1517269" lon="10.4422886"><ele>787.0</ele><time>2026-04-04T09:58:01.624Z</time></trkpt><trkpt lat="44.151635" lon="10.4421353"><ele>787.0</ele><time>2026-04-04T09:58:02.61Z</time></trkpt><trkpt lat="44.1515437" lon="10.4419621"><ele>785.0</ele><time>2026-04-04T09:58:03.628Z</time></trkpt><trkpt lat="44.1514555" lon="10.4417987"><ele>783.0</ele><time>2026-04-04T09:58:04.618Z</time></trkpt><trkpt lat="44.1513541" lon="10.4416641"><ele>781.0</ele><time>2026-04-04T09:58:05.609Z</time></trkpt><trkpt lat="44.1512498" lon="10.4415416"><ele>779.0</ele><time>2026-04-04T09:58:06.62Z</time></trkpt><trkpt lat="44.1511491" lon="10.4413947"><ele>781.0</ele><time>2026-04-04T09:58:07.626Z</time></trkpt><trkpt lat="44.1510664" lon="10.4412373"><ele>783.0</ele><time>2026-04-04T09:58:08.625Z</time></trkpt><trkpt lat="44.1509831" lon="10.4411068"><ele>785.0</ele><time>2026-04-04T09:58:09.627Z</time></trkpt><trkpt lat="44.1508957" lon="10.4410094"><ele>787.0</ele><time>2026-04-04T09:58:10.629Z</time></trkpt><trkpt lat="44.1507722" lon="10.4409618"><ele>786.25</ele><time>2026-04-04T09:58:11.646Z</time></trkpt><trkpt lat="44.1506341" lon="10.440981"><ele>785.5</ele><time>2026-04-04T09:58:12.634Z</time></trkpt><trkpt lat="44.1505081" lon="10.4410349"><ele>784.75</ele><time>2026-04-04T09:58:13.634Z</time></trkpt><trkpt lat="44.1503774" lon="10.441073"><ele>784.0</ele><time>2026-04-04T09:58:14.629Z</time></trkpt><trkpt lat="44.1502441" lon="10.4410666"><ele>784.0</ele><time>2026-04-04T09:58:15.644Z</time></trkpt><trkpt lat="44.1501185" lon="10.4410105"><ele>784.0</ele><time>2026-04-04T09:58:16.643Z</time></trkpt><trkpt lat="44.1500094" lon="10.4409108"><ele>784.0</ele><time>2026-04-04T09:58:17.64Z</time></trkpt><trkpt lat="44.1499028" lon="10.4408091"><ele>784.0</ele><time>2026-04-04T09:58:18.634Z</time></trkpt><trkpt lat="44.1497937" lon="10.4407003"><ele>781.3333333333333</ele><time>2026-04-04T09:58:19.641Z</time></trkpt><trkpt lat="44.1496729" lon="10.4405785"><ele>778.6666666666667</ele><time>2026-04-04T09:58:20.641Z</time></trkpt><trkpt lat="44.1495423" lon="10.4404535"><ele>776.0</ele><time>2026-04-04T09:58:21.646Z</time></trkpt><trkpt lat="44.1494241" lon="10.4403406"><ele>774.0</ele><time>2026-04-04T09:58:22.643Z</time></trkpt><trkpt lat="44.1493137" lon="10.4402501"><ele>772.0</ele><time>2026-04-04T09:58:23.637Z</time></trkpt><trkpt lat="44.1491865" lon="10.4401888"><ele>770.0</ele><time>2026-04-04T09:58:24.638Z</time></trkpt><trkpt lat="44.1490485" lon="10.4401724"><ele>768.0</ele><time>2026-04-04T09:58:25.638Z</time></trkpt><trkpt lat="44.1488961" lon="10.4401767"><ele>767.6666666666666</ele><time>2026-04-04T09:58:26.644Z</time></trkpt><trkpt lat="44.148751" lon="10.4401809"><ele>767.3333333333333</ele><time>2026-04-04T09:58:27.627Z</time></trkpt><trkpt lat="44.1485995" lon="10.4401686"><ele>767.0</ele><time>2026-04-04T09:58:28.645Z</time></trkpt><trkpt lat="44.1484357" lon="10.4401443"><ele>767.0</ele><time>2026-04-04T09:58:29.642Z</time></trkpt><trkpt lat="44.1482712" lon="10.4401008"><ele>767.0</ele><time>2026-04-04T09:58:30.638Z</time></trkpt><trkpt lat="44.1481205" lon="10.4400592"><ele>767.0</ele><time>2026-04-04T09:58:31.636Z</time></trkpt><trkpt lat="44.147988" lon="10.4400123"><ele>766.75</ele><time>2026-04-04T09:58:32.637Z</time></trkpt><trkpt lat="44.1478534" lon="10.439967"><ele>766.5</ele><time>2026-04-04T09:58:33.64Z</time></trkpt><trkpt lat="44.1477205" lon="10.4399102"><ele>766.25</ele><time>2026-04-04T09:58:34.639Z</time></trkpt><trkpt lat="44.1475918" lon="10.4398416"><ele>766.0</ele><time>2026-04-04T09:58:35.643Z</time></trkpt><trkpt lat="44.1474757" lon="10.4397357"><ele>766.75</ele><time>2026-04-04T09:58:36.642Z</time></trkpt><trkpt lat="44.1473652" lon="10.4396055"><ele>767.5</ele><time>2026-04-04T09:58:37.642Z</time></trkpt><trkpt lat="44.1472601" lon="10.4394749"><ele>768.25</ele><time>2026-04-04T09:58:38.64Z</time></trkpt><trkpt lat="44.1471514" lon="10.4393354"><ele>769.0</ele><time>2026-04-04T09:58:39.645Z</time></trkpt><trkpt lat="44.1470378" lon="10.4391917"><ele>769.0</ele><time>2026-04-04T09:58:40.635Z</time></trkpt><trkpt lat="44.1469329" lon="10.4390405"><ele>769.0</ele><time>2026-04-04T09:58:41.635Z</time></trkpt><trkpt lat="44.1468323" lon="10.438918"><ele>769.0</ele><time>2026-04-04T09:58:42.652Z</time></trkpt><trkpt lat="44.1467337" lon="10.4388375"><ele>769.0</ele><time>2026-04-04T09:58:43.653Z</time></trkpt><trkpt lat="44.1466482" lon="10.4388179"><ele>766.8000000000001</ele><time>2026-04-04T09:58:44.644Z</time></trkpt><trkpt lat="44.1465911" lon="10.4387141"><ele>764.6</ele><time>2026-04-04T09:58:46.644Z</time></trkpt><trkpt lat="44.1467046" lon="10.4386688"><ele>762.4</ele><time>2026-04-04T09:58:48.652Z</time></trkpt><trkpt lat="44.1468013" lon="10.4387001"><ele>760.2</ele><time>2026-04-04T09:58:49.644Z</time></trkpt><trkpt lat="44.1469032" lon="10.438741"><ele>758.0</ele><time>2026-04-04T09:58:50.638Z</time></trkpt><trkpt lat="44.1470167" lon="10.4387948"><ele>759.25</ele><time>2026-04-04T09:58:51.642Z</time></trkpt><trkpt lat="44.1471404" lon="10.4388608"><ele>760.5</ele><time>2026-04-04T09:58:52.647Z</time></trkpt><trkpt lat="44.1472679" lon="10.4389417"><ele>761.75</ele><time>2026-04-04T09:58:53.626Z</time></trkpt><trkpt lat="44.147393" lon="10.4390453"><ele>763.0</ele><time>2026-04-04T09:58:54.637Z</time></trkpt><trkpt lat="44.1475218" lon="10.4391362"><ele>763.0</ele><time>2026-04-04T09:58:55.631Z</time></trkpt><trkpt lat="44.1476501" lon="10.4392102"><ele>763.0</ele><time>2026-04-04T09:58:56.625Z</time></trkpt><trkpt lat="44.1477644" lon="10.4392715"><ele>763.0</ele><time>2026-04-04T09:58:57.621Z</time></trkpt><trkpt lat="44.1478714" lon="10.439324"><ele>763.0</ele><time>2026-04-04T09:58:58.619Z</time></trkpt><trkpt lat="44.1479668" lon="10.4393668"><ele>763.0</ele><time>2026-04-04T09:58:59.623Z</time></trkpt><trkpt lat="44.1480426" lon="10.4394047"><ele>763.0</ele><time>2026-04-04T09:59:00.621Z</time></trkpt><trkpt lat="44.1481533" lon="10.4394341"><ele>763.0</ele><time>2026-04-04T09:59:02.623Z</time></trkpt><trkpt lat="44.1482377" lon="10.439373"><ele>763.0</ele><time>2026-04-04T09:59:04.617Z</time></trkpt><trkpt lat="44.1481639" lon="10.4392088"><ele>763.0</ele><time>2026-04-04T09:59:06.611Z</time></trkpt><trkpt lat="44.1480813" lon="10.4391043"><ele>763.0</ele><time>2026-04-04T09:59:07.621Z</time></trkpt><trkpt lat="44.1480009" lon="10.438999"><ele>763.0</ele><time>2026-04-04T09:59:08.622Z</time></trkpt><trkpt lat="44.1479277" lon="10.4389009"><ele>763.0</ele><time>2026-04-04T09:59:09.611Z</time></trkpt><trkpt lat="44.1478612" lon="10.4388104"><ele>763.0</ele><time>2026-04-04T09:59:10.626Z</time></trkpt><trkpt lat="44.1477948" lon="10.4387302"><ele>763.0</ele><time>2026-04-04T09:59:11.618Z</time></trkpt><trkpt lat="44.1477247" lon="10.4386532"><ele>762.1666666666667</ele><time>2026-04-04T09:59:12.623Z</time></trkpt><trkpt lat="44.1476509" lon="10.4385834"><ele>761.3333333333334</ele><time>2026-04-04T09:59:13.649Z</time></trkpt><trkpt lat="44.147582" lon="10.4385118"><ele>760.5</ele><time>2026-04-04T09:59:14.633Z</time></trkpt><trkpt lat="44.1475119" lon="10.4384406"><ele>759.6666666666666</ele><time>2026-04-04T09:59:15.636Z</time></trkpt><trkpt lat="44.1474428" lon="10.4383676"><ele>758.8333333333333</ele><time>2026-04-04T09:59:16.628Z</time></trkpt><trkpt lat="44.1473702" lon="10.438302"><ele>758.0</ele><time>2026-04-04T09:59:17.626Z</time></trkpt><trkpt lat="44.1472914" lon="10.4382492"><ele>758.0</ele><time>2026-04-04T09:59:18.627Z</time></trkpt><trkpt lat="44.1471975" lon="10.4382244"><ele>758.0</ele><time>2026-04-04T09:59:19.621Z</time></trkpt><trkpt lat="44.1470949" lon="10.4382246"><ele>758.0</ele><time>2026-04-04T09:59:20.622Z</time></trkpt><trkpt lat="44.1469916" lon="10.4382116"><ele>758.0</ele><time>2026-04-04T09:59:21.641Z</time></trkpt><trkpt lat="44.1469043" lon="10.438152"><ele>758.0</ele><time>2026-04-04T09:59:22.636Z</time></trkpt><trkpt lat="44.1468302" lon="10.4380538"><ele>754.2</ele><time>2026-04-04T09:59:23.619Z</time></trkpt><trkpt lat="44.1467765" lon="10.437942"><ele>750.4</ele><time>2026-04-04T09:59:24.613Z</time></trkpt><trkpt lat="44.1467373" lon="10.4378097"><ele>746.6</ele><time>2026-04-04T09:59:25.628Z</time></trkpt><trkpt lat="44.1467333" lon="10.4376744"><ele>742.8000000000001</ele><time>2026-04-04T09:59:26.628Z</time></trkpt><trkpt lat="44.1467459" lon="10.4375484"><ele>739.0</ele><time>2026-04-04T09:59:27.622Z</time></trkpt><trkpt lat="44.1467562" lon="10.4374289"><ele>739.0</ele><time>2026-04-04T09:59:28.612Z</time></trkpt><trkpt lat="44.1467514" lon="10.4373195"><ele>739.0</ele><time>2026-04-04T09:59:29.629Z</time></trkpt><trkpt lat="44.1467237" lon="10.4372251"><ele>739.0</ele><time>2026-04-04T09:59:30.629Z</time></trkpt><trkpt lat="44.1466711" lon="10.4371461"><ele>739.0</ele><time>2026-04-04T09:59:31.62Z</time></trkpt><trkpt lat="44.1466028" lon="10.437097"><ele>739.0</ele><time>2026-04-04T09:59:32.623Z</time></trkpt><trkpt lat="44.1465249" lon="10.4370709"><ele>739.0</ele><time>2026-04-04T09:59:33.626Z</time></trkpt><trkpt lat="44.146442" lon="10.437043"><ele>739.2</ele><time>2026-04-04T09:59:34.625Z</time></trkpt><trkpt lat="44.146363" lon="10.437"><ele>739.4000000000001</ele><time>2026-04-04T09:59:35.61Z</time></trkpt><trkpt lat="44.14629" lon="10.4369308"><ele>739.6</ele><time>2026-04-04T09:59:36.623Z</time></trkpt><trkpt lat="44.1462215" lon="10.436848"><ele>739.8</ele><time>2026-04-04T09:59:37.624Z</time></trkpt><trkpt lat="44.1461527" lon="10.4367402"><ele>740.0</ele><time>2026-04-04T09:59:38.626Z</time></trkpt><trkpt lat="44.1460845" lon="10.4366197"><ele>740.0</ele><time>2026-04-04T09:59:39.633Z</time></trkpt><trkpt lat="44.1460164" lon="10.4364876"><ele>740.0</ele><time>2026-04-04T09:59:40.63Z</time></trkpt><trkpt lat="44.1459534" lon="10.4363547"><ele>740.0</ele><time>2026-04-04T09:59:41.632Z</time></trkpt><trkpt lat="44.145899" lon="10.4362049"><ele>740.0</ele><time>2026-04-04T09:59:42.631Z</time></trkpt><trkpt lat="44.1458523" lon="10.4360318"><ele>735.25</ele><time>2026-04-04T09:59:43.624Z</time></trkpt><trkpt lat="44.1458289" lon="10.435823"><ele>730.5</ele><time>2026-04-04T09:59:44.634Z</time></trkpt><trkpt lat="44.1458168" lon="10.4356192"><ele>725.75</ele><time>2026-04-04T09:59:45.626Z</time></trkpt><trkpt lat="44.1458017" lon="10.4354272"><ele>721.0</ele><time>2026-04-04T09:59:46.616Z</time></trkpt><trkpt lat="44.1457548" lon="10.4352549"><ele>719.3333333333334</ele><time>2026-04-04T09:59:47.625Z</time></trkpt><trkpt lat="44.1456636" lon="10.4351167"><ele>717.6666666666666</ele><time>2026-04-04T09:59:48.62Z</time></trkpt><trkpt lat="44.1455269" lon="10.4350148"><ele>716.0</ele><time>2026-04-04T09:59:49.633Z</time></trkpt><trkpt lat="44.1453805" lon="10.4349179"><ele>716.0</ele><time>2026-04-04T09:59:50.635Z</time></trkpt><trkpt lat="44.1452562" lon="10.434846"><ele>716.0</ele><time>2026-04-04T09:59:51.638Z</time></trkpt><trkpt lat="44.1451375" lon="10.4347714"><ele>716.0</ele><time>2026-04-04T09:59:52.644Z</time></trkpt><trkpt lat="44.1450142" lon="10.4347314"><ele>716.0</ele><time>2026-04-04T09:59:53.632Z</time></trkpt><trkpt lat="44.1448989" lon="10.4347543"><ele>715.1999999999999</ele><time>2026-04-04T09:59:54.636Z</time></trkpt><trkpt lat="44.1447896" lon="10.4347665"><ele>714.4</ele><time>2026-04-04T09:59:55.63Z</time></trkpt><trkpt lat="44.1447086" lon="10.4347424"><ele>713.6</ele><time>2026-04-04T09:59:56.645Z</time></trkpt><trkpt lat="44.1446584" lon="10.4346544"><ele>712.8</ele><time>2026-04-04T09:59:57.638Z</time></trkpt><trkpt lat="44.144634" lon="10.4345186"><ele>712.0</ele><time>2026-04-04T09:59:58.639Z</time></trkpt><trkpt lat="44.1446082" lon="10.434346"><ele>709.0</ele><time>2026-04-04T09:59:59.632Z</time></trkpt><trkpt lat="44.1445622" lon="10.4341629"><ele>706.0</ele><time>2026-04-04T10:00:00.626Z</time></trkpt><trkpt lat="44.144498" lon="10.4339853"><ele>703.0</ele><time>2026-04-04T10:00:01.631Z</time></trkpt><trkpt lat="44.144421" lon="10.4338178"><ele>700.0</ele><time>2026-04-04T10:00:02.634Z</time></trkpt><trkpt lat="44.1443294" lon="10.4336815"><ele>694.25</ele><time>2026-04-04T10:00:03.644Z</time></trkpt><trkpt lat="44.144233" lon="10.4335861"><ele>688.5</ele><time>2026-04-04T10:00:04.644Z</time></trkpt><trkpt lat="44.1441227" lon="10.4335783"><ele>682.75</ele><time>2026-04-04T10:00:05.65Z</time></trkpt><trkpt lat="44.1440128" lon="10.4336513"><ele>677.0</ele><time>2026-04-04T10:00:06.655Z</time></trkpt><trkpt lat="44.1439216" lon="10.4337689"><ele>677.0</ele><time>2026-04-04T10:00:07.629Z</time></trkpt><trkpt lat="44.1438257" lon="10.4338238"><ele>677.0</ele><time>2026-04-04T10:00:08.647Z</time></trkpt><trkpt lat="44.1437207" lon="10.4338047"><ele>677.0</ele><time>2026-04-04T10:00:09.646Z</time></trkpt><trkpt lat="44.1436114" lon="10.4337398"><ele>677.0</ele><time>2026-04-04T10:00:10.644Z</time></trkpt><trkpt lat="44.1435" lon="10.4336558"><ele>677.0</ele><time>2026-04-04T10:00:11.645Z</time></trkpt><trkpt lat="44.1433941" lon="10.4335602"><ele>677.0</ele><time>2026-04-04T10:00:12.642Z</time></trkpt><trkpt lat="44.1433047" lon="10.4334195"><ele>677.0</ele><time>2026-04-04T10:00:13.649Z</time></trkpt><trkpt lat="44.1432408" lon="10.4332428"><ele>677.0</ele><time>2026-04-04T10:00:14.645Z</time></trkpt><trkpt lat="44.1431977" lon="10.4330645"><ele>673.5</ele><time>2026-04-04T10:00:15.655Z</time></trkpt><trkpt lat="44.1431428" lon="10.4328832"><ele>670.0</ele><time>2026-04-04T10:00:16.635Z</time></trkpt><trkpt lat="44.1430732" lon="10.4327042"><ele>666.5</ele><time>2026-04-04T10:00:17.632Z</time></trkpt><trkpt lat="44.1429858" lon="10.4325771"><ele>663.0</ele><time>2026-04-04T10:00:18.632Z</time></trkpt><trkpt lat="44.1429198" lon="10.4324791"><ele>663.0</ele><time>2026-04-04T10:00:19.638Z</time></trkpt><trkpt lat="44.1428853" lon="10.4324051"><ele>663.0</ele><time>2026-04-04T10:00:20.636Z</time></trkpt><trkpt lat="44.1429972" lon="10.4323285"><ele>663.0</ele><time>2026-04-04T10:00:22.65Z</time></trkpt><trkpt lat="44.143065" lon="10.4323618"><ele>663.0</ele><time>2026-04-04T10:00:23.651Z</time></trkpt><trkpt lat="44.1431148" lon="10.4324284"><ele>663.0</ele><time>2026-04-04T10:00:24.643Z</time></trkpt><trkpt lat="44.1431773" lon="10.432501"><ele>663.0</ele><time>2026-04-04T10:00:25.644Z</time></trkpt><trkpt lat="44.1432406" lon="10.4325906"><ele>663.0</ele><time>2026-04-04T10:00:26.643Z</time></trkpt><trkpt lat="44.1432981" lon="10.4326841"><ele>663.0</ele><time>2026-04-04T10:00:27.633Z</time></trkpt><trkpt lat="44.1433495" lon="10.4327477"><ele>663.0</ele><time>2026-04-04T10:00:28.63Z</time></trkpt><trkpt lat="44.1434395" lon="10.4326668"><ele>663.0</ele><time>2026-04-04T10:00:30.631Z</time></trkpt><trkpt lat="44.1434433" lon="10.4325481"><ele>663.0</ele><time>2026-04-04T10:00:31.638Z</time></trkpt><trkpt lat="44.1434096" lon="10.4323841"><ele>663.0</ele><time>2026-04-04T10:00:32.633Z</time></trkpt><trkpt lat="44.1433586" lon="10.432222"><ele>663.0</ele><time>2026-04-04T10:00:33.642Z</time></trkpt><trkpt lat="44.143287" lon="10.4320723"><ele>663.0</ele><time>2026-04-04T10:00:34.636Z</time></trkpt><trkpt lat="44.1431886" lon="10.431958"><ele>663.0</ele><time>2026-04-04T10:00:35.639Z</time></trkpt><trkpt lat="44.1430696" lon="10.4318867"><ele>657.75</ele><time>2026-04-04T10:00:36.636Z</time></trkpt><trkpt lat="44.1429385" lon="10.4318381"><ele>652.5</ele><time>2026-04-04T10:00:37.637Z</time></trkpt><trkpt lat="44.1428011" lon="10.4317876"><ele>647.25</ele><time>2026-04-04T10:00:38.641Z</time></trkpt><trkpt lat="44.1426641" lon="10.4317601"><ele>642.0</ele><time>2026-04-04T10:00:39.64Z</time></trkpt><trkpt lat="44.1425359" lon="10.4317665"><ele>642.0</ele><time>2026-04-04T10:00:40.65Z</time></trkpt><trkpt lat="44.1424136" lon="10.4318187"><ele>642.0</ele><time>2026-04-04T10:00:41.644Z</time></trkpt><trkpt lat="44.142289" lon="10.4318977"><ele>642.0</ele><time>2026-04-04T10:00:42.647Z</time></trkpt><trkpt lat="44.1421662" lon="10.4319868"><ele>642.0</ele><time>2026-04-04T10:00:43.645Z</time></trkpt><trkpt lat="44.1420455" lon="10.4320826"><ele>637.6</ele><time>2026-04-04T10:00:44.641Z</time></trkpt><trkpt lat="44.1419451" lon="10.4321944"><ele>633.2</ele><time>2026-04-04T10:00:45.639Z</time></trkpt><trkpt lat="44.1418748" lon="10.4323286"><ele>628.8</ele><time>2026-04-04T10:00:46.658Z</time></trkpt><trkpt lat="44.1418607" lon="10.4324596"><ele>624.4</ele><time>2026-04-04T10:00:47.644Z</time></trkpt><trkpt lat="44.1418942" lon="10.4325766"><ele>620.0</ele><time>2026-04-04T10:00:48.64Z</time></trkpt><trkpt lat="44.1419386" lon="10.4326502"><ele>620.0</ele><time>2026-04-04T10:00:49.641Z</time></trkpt><trkpt lat="44.141941" lon="10.4327698"><ele>620.0</ele><time>2026-04-04T10:00:51.636Z</time></trkpt><trkpt lat="44.1418623" lon="10.4326238"><ele>620.0</ele><time>2026-04-04T10:00:54.644Z</time></trkpt><trkpt lat="44.1418498" lon="10.432458"><ele>620.0</ele><time>2026-04-04T10:00:55.636Z</time></trkpt><trkpt lat="44.1418572" lon="10.4322885"><ele>617.75</ele><time>2026-04-04T10:00:56.635Z</time></trkpt><trkpt lat="44.1418872" lon="10.4321213"><ele>615.5</ele><time>2026-04-04T10:00:57.633Z</time></trkpt><trkpt lat="44.1419431" lon="10.4319521"><ele>613.25</ele><time>2026-04-04T10:00:58.636Z</time></trkpt><trkpt lat="44.1420041" lon="10.4317965"><ele>611.0</ele><time>2026-04-04T10:00:59.643Z</time></trkpt><trkpt lat="44.1420693" lon="10.4316646"><ele>611.0</ele><time>2026-04-04T10:01:00.643Z</time></trkpt><trkpt lat="44.1421316" lon="10.4315333"><ele>611.0</ele><time>2026-04-04T10:01:01.644Z</time></trkpt><trkpt lat="44.142153" lon="10.4313814"><ele>611.0</ele><time>2026-04-04T10:01:02.635Z</time></trkpt><trkpt lat="44.1421011" lon="10.4312447"><ele>611.0</ele><time>2026-04-04T10:01:03.638Z</time></trkpt><trkpt lat="44.1420228" lon="10.4310957"><ele>609.75</ele><time>2026-04-04T10:01:04.641Z</time></trkpt><trkpt lat="44.1419359" lon="10.4309479"><ele>608.5</ele><time>2026-04-04T10:01:05.636Z</time></trkpt><trkpt lat="44.1418552" lon="10.4308079"><ele>607.25</ele><time>2026-04-04T10:01:06.64Z</time></trkpt><trkpt lat="44.1417929" lon="10.4306744"><ele>606.0</ele><time>2026-04-04T10:01:07.642Z</time></trkpt><trkpt lat="44.1417569" lon="10.4305415"><ele>604.2</ele><time>2026-04-04T10:01:08.665Z</time></trkpt><trkpt lat="44.141775" lon="10.4304253"><ele>602.4000000000001</ele><time>2026-04-04T10:01:09.654Z</time></trkpt><trkpt lat="44.1418466" lon="10.4303198"><ele>600.6</ele><time>2026-04-04T10:01:10.642Z</time></trkpt><trkpt lat="44.141931" lon="10.4301981"><ele>598.8000000000001</ele><time>2026-04-04T10:01:11.644Z</time></trkpt><trkpt lat="44.1420099" lon="10.4300604"><ele>597.0</ele><time>2026-04-04T10:01:12.648Z</time></trkpt><trkpt lat="44.1420844" lon="10.4299322"><ele>597.0</ele><time>2026-04-04T10:01:13.65Z</time></trkpt><trkpt lat="44.1421595" lon="10.4298382"><ele>597.0</ele><time>2026-04-04T10:01:14.649Z</time></trkpt><trkpt lat="44.1422315" lon="10.4297872"><ele>597.0</ele><time>2026-04-04T10:01:15.634Z</time></trkpt><trkpt lat="44.1423116" lon="10.429804"><ele>597.0</ele><time>2026-04-04T10:01:16.655Z</time></trkpt><trkpt lat="44.1423695" lon="10.4298964"><ele>597.0</ele><time>2026-04-04T10:01:17.665Z</time></trkpt><trkpt lat="44.1424042" lon="10.4300212"><ele>597.0</ele><time>2026-04-04T10:01:18.637Z</time></trkpt><trkpt lat="44.1424451" lon="10.4301406"><ele>597.2</ele><time>2026-04-04T10:01:19.637Z</time></trkpt><trkpt lat="44.1424953" lon="10.4302569"><ele>597.4000000000001</ele><time>2026-04-04T10:01:20.641Z</time></trkpt><trkpt lat="44.1425528" lon="10.4303805"><ele>597.5999999999999</ele><time>2026-04-04T10:01:21.639Z</time></trkpt><trkpt lat="44.1426272" lon="10.4304869"><ele>597.8</ele><time>2026-04-04T10:01:22.641Z</time></trkpt><trkpt lat="44.1427247" lon="10.430542"><ele>598.0</ele><time>2026-04-04T10:01:23.616Z</time></trkpt><trkpt lat="44.142839" lon="10.4305654"><ele>596.0</ele><time>2026-04-04T10:01:24.632Z</time></trkpt><trkpt lat="44.1429728" lon="10.4305718"><ele>594.0</ele><time>2026-04-04T10:01:25.618Z</time></trkpt><trkpt lat="44.1431028" lon="10.430555"><ele>592.0</ele><time>2026-04-04T10:01:26.627Z</time></trkpt><trkpt lat="44.1432404" lon="10.4304992"><ele>590.0</ele><time>2026-04-04T10:01:27.627Z</time></trkpt><trkpt lat="44.1433752" lon="10.4304096"><ele>590.0</ele><time>2026-04-04T10:01:28.629Z</time></trkpt><trkpt lat="44.1435072" lon="10.4303095"><ele>590.0</ele><time>2026-04-04T10:01:29.626Z</time></trkpt><trkpt lat="44.1436369" lon="10.4302182"><ele>590.0</ele><time>2026-04-04T10:01:30.62Z</time></trkpt><trkpt lat="44.1437545" lon="10.4301315"><ele>590.0</ele><time>2026-04-04T10:01:31.623Z</time></trkpt><trkpt lat="44.1438482" lon="10.4300765"><ele>590.0</ele><time>2026-04-04T10:01:32.63Z</time></trkpt><trkpt lat="44.1439128" lon="10.4300646"><ele>590.0</ele><time>2026-04-04T10:01:33.636Z</time></trkpt><trkpt lat="44.1439812" lon="10.4299818"><ele>590.0</ele><time>2026-04-04T10:01:35.636Z</time></trkpt><trkpt lat="44.1439471" lon="10.4298749"><ele>590.0</ele><time>2026-04-04T10:01:36.629Z</time></trkpt><trkpt lat="44.1438646" lon="10.4298208"><ele>590.0</ele><time>2026-04-04T10:01:37.649Z</time></trkpt><trkpt lat="44.1437802" lon="10.4298489"><ele>590.0</ele><time>2026-04-04T10:01:38.633Z</time></trkpt><trkpt lat="44.1436869" lon="10.4299056"><ele>590.0</ele><time>2026-04-04T10:01:39.645Z</time></trkpt><trkpt lat="44.1435743" lon="10.4299671"><ele>590.0</ele><time>2026-04-04T10:01:40.639Z</time></trkpt><trkpt lat="44.1434409" lon="10.4300165"><ele>590.0</ele><time>2026-04-04T10:01:41.631Z</time></trkpt><trkpt lat="44.1432869" lon="10.430069"><ele>590.0</ele><time>2026-04-04T10:01:42.62Z</time></trkpt><trkpt lat="44.1431301" lon="10.4301189"><ele>592.0</ele><time>2026-04-04T10:01:43.62Z</time></trkpt><trkpt lat="44.1430073" lon="10.4301512"><ele>594.0</ele><time>2026-04-04T10:01:44.625Z</time></trkpt><trkpt lat="44.1429003" lon="10.4301393"><ele>596.0</ele><time>2026-04-04T10:01:45.64Z</time></trkpt><trkpt lat="44.1428345" lon="10.4300258"><ele>598.0</ele><time>2026-04-04T10:01:46.637Z</time></trkpt><trkpt lat="44.14281" lon="10.4298584"><ele>598.0</ele><time>2026-04-04T10:01:47.643Z</time></trkpt><trkpt lat="44.1428341" lon="10.429693"><ele>598.0</ele><time>2026-04-04T10:01:48.654Z</time></trkpt><trkpt lat="44.14286" lon="10.4295214"><ele>598.0</ele><time>2026-04-04T10:01:49.633Z</time></trkpt><trkpt lat="44.1428481" lon="10.4293527"><ele>598.0</ele><time>2026-04-04T10:01:50.635Z</time></trkpt><trkpt lat="44.1428168" lon="10.4291738"><ele>594.3333333333334</ele><time>2026-04-04T10:01:51.624Z</time></trkpt><trkpt lat="44.1427952" lon="10.4289715"><ele>590.6666666666666</ele><time>2026-04-04T10:01:52.639Z</time></trkpt><trkpt lat="44.1427847" lon="10.4287569"><ele>587.0</ele><time>2026-04-04T10:01:53.632Z</time></trkpt><trkpt lat="44.1427725" lon="10.4285393"><ele>584.0</ele><time>2026-04-04T10:01:54.706Z</time></trkpt><trkpt lat="44.1427549" lon="10.4283469"><ele>581.0</ele><time>2026-04-04T10:01:55.634Z</time></trkpt><trkpt lat="44.1427243" lon="10.4282078"><ele>578.0</ele><time>2026-04-04T10:01:56.628Z</time></trkpt><trkpt lat="44.1426925" lon="10.4280783"><ele>575.0</ele><time>2026-04-04T10:01:57.632Z</time></trkpt><trkpt lat="44.1426584" lon="10.4279714"><ele>572.0</ele><time>2026-04-04T10:01:58.633Z</time></trkpt><trkpt lat="44.1426565" lon="10.4278751"><ele>572.0</ele><time>2026-04-04T10:01:59.627Z</time></trkpt><trkpt lat="44.1426824" lon="10.4277907"><ele>572.0</ele><time>2026-04-04T10:02:00.639Z</time></trkpt><trkpt lat="44.1427854" lon="10.4277937"><ele>572.0</ele><time>2026-04-04T10:02:02.628Z</time></trkpt><trkpt lat="44.1428291" lon="10.4278805"><ele>572.0</ele><time>2026-04-04T10:02:03.63Z</time></trkpt><trkpt lat="44.1428627" lon="10.4279897"><ele>572.0</ele><time>2026-04-04T10:02:04.624Z</time></trkpt><trkpt lat="44.1428819" lon="10.4280835"><ele>572.0</ele><time>2026-04-04T10:02:05.655Z</time></trkpt><trkpt lat="44.142936" lon="10.4282024"><ele>572.0</ele><time>2026-04-04T10:02:07.63Z</time></trkpt><trkpt lat="44.1430104" lon="10.4281969"><ele>572.0</ele><time>2026-04-04T10:02:09.616Z</time></trkpt><trkpt lat="44.1430513" lon="10.4280821"><ele>572.0</ele><time>2026-04-04T10:02:11.635Z</time></trkpt><trkpt lat="44.143029" lon="10.4279114"><ele>572.0</ele><time>2026-04-04T10:02:13.638Z</time></trkpt><trkpt lat="44.1430139" lon="10.4278203"><ele>572.0</ele><time>2026-04-04T10:02:14.637Z</time></trkpt><trkpt lat="44.1430065" lon="10.4277267"><ele>572.0</ele><time>2026-04-04T10:02:15.64Z</time></trkpt><trkpt lat="44.1429918" lon="10.4276345"><ele>569.6666666666666</ele><time>2026-04-04T10:02:16.634Z</time></trkpt><trkpt lat="44.1429312" lon="10.427484"><ele>567.3333333333333</ele><time>2026-04-04T10:02:18.623Z</time></trkpt><trkpt lat="44.142881" lon="10.4274207"><ele>565.0</ele><time>2026-04-04T10:02:19.651Z</time></trkpt><trkpt lat="44.1428186" lon="10.427376"><ele>562.6666666666666</ele><time>2026-04-04T10:02:20.635Z</time></trkpt><trkpt lat="44.1427547" lon="10.4273263"><ele>560.3333333333334</ele><time>2026-04-04T10:02:21.643Z</time></trkpt><trkpt lat="44.1426956" lon="10.4272542"><ele>558.0</ele><time>2026-04-04T10:02:22.647Z</time></trkpt><trkpt lat="44.1426532" lon="10.427176"><ele>554.8</ele><time>2026-04-04T10:02:23.633Z</time></trkpt><trkpt lat="44.1426229" lon="10.4270948"><ele>551.5999999999999</ele><time>2026-04-04T10:02:24.638Z</time></trkpt><trkpt lat="44.1425529" lon="10.4269542"><ele>548.4000000000001</ele><time>2026-04-04T10:02:26.64Z</time></trkpt><trkpt lat="44.1424476" lon="10.4268613"><ele>545.2</ele><time>2026-04-04T10:02:28.647Z</time></trkpt><trkpt lat="44.142383" lon="10.4268245"><ele>542.0</ele><time>2026-04-04T10:02:29.642Z</time></trkpt><trkpt lat="44.1423152" lon="10.4267838"><ele>540.8000000000001</ele><time>2026-04-04T10:02:30.64Z</time></trkpt><trkpt lat="44.1422429" lon="10.4267362"><ele>539.6</ele><time>2026-04-04T10:02:31.648Z</time></trkpt><trkpt lat="44.1421749" lon="10.4266656"><ele>538.4000000000001</ele><time>2026-04-04T10:02:32.646Z</time></trkpt><trkpt lat="44.1421172" lon="10.4265599"><ele>537.2</ele><time>2026-04-04T10:02:33.652Z</time></trkpt><trkpt lat="44.1420703" lon="10.4264044"><ele>536.0</ele><time>2026-04-04T10:02:34.649Z</time></trkpt><trkpt lat="44.142018" lon="10.4262481"><ele>536.0</ele><time>2026-04-04T10:02:35.643Z</time></trkpt><trkpt lat="44.1419453" lon="10.4261304"><ele>536.0</ele><time>2026-04-04T10:02:36.651Z</time></trkpt><trkpt lat="44.1418376" lon="10.426052"><ele>536.0</ele><time>2026-04-04T10:02:37.648Z</time></trkpt><trkpt lat="44.1417051" lon="10.425999"><ele>536.0</ele><time>2026-04-04T10:02:38.644Z</time></trkpt><trkpt lat="44.1415739" lon="10.425935"><ele>532.4</ele><time>2026-04-04T10:02:39.645Z</time></trkpt><trkpt lat="44.1414534" lon="10.4258664"><ele>528.8</ele><time>2026-04-04T10:02:40.646Z</time></trkpt><trkpt lat="44.1413495" lon="10.4258076"><ele>525.1999999999999</ele><time>2026-04-04T10:02:41.642Z</time></trkpt><trkpt lat="44.1412666" lon="10.4257661"><ele>521.6</ele><time>2026-04-04T10:02:42.638Z</time></trkpt><trkpt lat="44.1411905" lon="10.4257607"><ele>518.0</ele><time>2026-04-04T10:02:43.651Z</time></trkpt><trkpt lat="44.1411237" lon="10.4258013"><ele>518.0</ele><time>2026-04-04T10:02:44.649Z</time></trkpt><trkpt lat="44.1411342" lon="10.4259105"><ele>518.0</ele><time>2026-04-04T10:02:45.629Z</time></trkpt><trkpt lat="44.141213" lon="10.4260331"><ele>518.0</ele><time>2026-04-04T10:02:46.633Z</time></trkpt><trkpt lat="44.1413325" lon="10.4261333"><ele>518.0</ele><time>2026-04-04T10:02:47.638Z</time></trkpt><trkpt lat="44.1414525" lon="10.4262229"><ele>520.6666666666666</ele><time>2026-04-04T10:02:48.636Z</time></trkpt><trkpt lat="44.1415615" lon="10.4262767"><ele>523.3333333333333</ele><time>2026-04-04T10:02:49.644Z</time></trkpt><trkpt lat="44.1416366" lon="10.4263298"><ele>526.0</ele><time>2026-04-04T10:02:50.652Z</time></trkpt><trkpt lat="44.1416921" lon="10.4264048"><ele>528.6666666666666</ele><time>2026-04-04T10:02:51.641Z</time></trkpt><trkpt lat="44.1417034" lon="10.4264998"><ele>531.3333333333334</ele><time>2026-04-04T10:02:52.651Z</time></trkpt><trkpt lat="44.1416644" lon="10.4266083"><ele>534.0</ele><time>2026-04-04T10:02:53.638Z</time></trkpt><trkpt lat="44.1415771" lon="10.4267216"><ele>527.6666666666666</ele><time>2026-04-04T10:02:54.644Z</time></trkpt><trkpt lat="44.1414604" lon="10.426829"><ele>521.3333333333333</ele><time>2026-04-04T10:02:55.636Z</time></trkpt><trkpt lat="44.1413205" lon="10.4269106"><ele>515.0</ele><time>2026-04-04T10:02:56.647Z</time></trkpt><trkpt lat="44.1411609" lon="10.4269426"><ele>515.0</ele><time>2026-04-04T10:02:57.639Z</time></trkpt><trkpt lat="44.1410093" lon="10.4269524"><ele>515.0</ele><time>2026-04-04T10:02:58.637Z</time></trkpt><trkpt lat="44.1408625" lon="10.4269853"><ele>515.0</ele><time>2026-04-04T10:02:59.641Z</time></trkpt><trkpt lat="44.140744" lon="10.4270742"><ele>515.0</ele><time>2026-04-04T10:03:00.634Z</time></trkpt><trkpt lat="44.1406383" lon="10.4271913"><ele>511.75</ele><time>2026-04-04T10:03:01.634Z</time></trkpt><trkpt lat="44.1405287" lon="10.4272882"><ele>508.5</ele><time>2026-04-04T10:03:02.629Z</time></trkpt><trkpt lat="44.1404128" lon="10.4273217"><ele>505.25</ele><time>2026-04-04T10:03:03.628Z</time></trkpt><trkpt lat="44.1402787" lon="10.4273027"><ele>502.0</ele><time>2026-04-04T10:03:04.638Z</time></trkpt><trkpt lat="44.1401439" lon="10.4272931"><ele>502.0</ele><time>2026-04-04T10:03:05.627Z</time></trkpt><trkpt lat="44.1400074" lon="10.427305"><ele>502.0</ele><time>2026-04-04T10:03:06.635Z</time></trkpt><trkpt lat="44.1398891" lon="10.4273401"><ele>502.0</ele><time>2026-04-04T10:03:07.644Z</time></trkpt><trkpt lat="44.1397863" lon="10.4273977"><ele>502.0</ele><time>2026-04-04T10:03:08.666Z</time></trkpt><trkpt lat="44.1397111" lon="10.4274543"><ele>497.5</ele><time>2026-04-04T10:03:09.643Z</time></trkpt><trkpt lat="44.13961" lon="10.4274031"><ele>493.0</ele><time>2026-04-04T10:03:11.651Z</time></trkpt><trkpt lat="44.1396689" lon="10.4272435"><ele>488.5</ele><time>2026-04-04T10:03:13.679Z</time></trkpt><trkpt lat="44.1397683" lon="10.4271975"><ele>484.0</ele><time>2026-04-04T10:03:14.665Z</time></trkpt><trkpt lat="44.1398825" lon="10.4271774"><ele>487.75</ele><time>2026-04-04T10:03:15.666Z</time></trkpt><trkpt lat="44.1400098" lon="10.4271431"><ele>491.5</ele><time>2026-04-04T10:03:16.636Z</time></trkpt><trkpt lat="44.1401412" lon="10.427094"><ele>495.25</ele><time>2026-04-04T10:03:17.632Z</time></trkpt><trkpt lat="44.1402701" lon="10.4270364"><ele>499.0</ele><time>2026-04-04T10:03:18.626Z</time></trkpt><trkpt lat="44.1403836" lon="10.4269779"><ele>499.00000000000006</ele><time>2026-04-04T10:03:19.622Z</time></trkpt><trkpt lat="44.1404651" lon="10.4269113"><ele>499.0</ele><time>2026-04-04T10:03:20.616Z</time></trkpt><trkpt lat="44.1405014" lon="10.4268218"><ele>499.0</ele><time>2026-04-04T10:03:21.637Z</time></trkpt><trkpt lat="44.1404769" lon="10.4267227"><ele>499.0</ele><time>2026-04-04T10:03:22.622Z</time></trkpt><trkpt lat="44.1404024" lon="10.4266612"><ele>499.00000000000006</ele><time>2026-04-04T10:03:23.626Z</time></trkpt><trkpt lat="44.140284" lon="10.4266602"><ele>499.0</ele><time>2026-04-04T10:03:24.637Z</time></trkpt><trkpt lat="44.1401406" lon="10.4266655"><ele>499.0</ele><time>2026-04-04T10:03:25.615Z</time></trkpt><trkpt lat="44.1399935" lon="10.4266335"><ele>499.0</ele><time>2026-04-04T10:03:26.631Z</time></trkpt><trkpt lat="44.1398337" lon="10.4265822"><ele>499.0</ele><time>2026-04-04T10:03:27.633Z</time></trkpt><trkpt lat="44.1396698" lon="10.4265243"><ele>493.0</ele><time>2026-04-04T10:03:28.628Z</time></trkpt><trkpt lat="44.1395139" lon="10.4264304"><ele>487.0</ele><time>2026-04-04T10:03:29.629Z</time></trkpt><trkpt lat="44.1393775" lon="10.4263037"><ele>481.0</ele><time>2026-04-04T10:03:30.637Z</time></trkpt><trkpt lat="44.1392524" lon="10.4261499"><ele>480.25</ele><time>2026-04-04T10:03:31.614Z</time></trkpt><trkpt lat="44.1391383" lon="10.4260264"><ele>479.5</ele><time>2026-04-04T10:03:32.639Z</time></trkpt><trkpt lat="44.1390536" lon="10.425895"><ele>478.75</ele><time>2026-04-04T10:03:33.625Z</time></trkpt><trkpt lat="44.1389972" lon="10.4257606"><ele>478.0</ele><time>2026-04-04T10:03:34.644Z</time></trkpt><trkpt lat="44.1389756" lon="10.4256264"><ele>477.5</ele><time>2026-04-04T10:03:35.646Z</time></trkpt><trkpt lat="44.1390003" lon="10.425481"><ele>477.0</ele><time>2026-04-04T10:03:36.643Z</time></trkpt><trkpt lat="44.1390497" lon="10.4253404"><ele>476.5</ele><time>2026-04-04T10:03:37.652Z</time></trkpt><trkpt lat="44.1391014" lon="10.4251914"><ele>476.0</ele><time>2026-04-04T10:03:38.644Z</time></trkpt><trkpt lat="44.139112" lon="10.4250179"><ele>476.0</ele><time>2026-04-04T10:03:39.648Z</time></trkpt><trkpt lat="44.1390734" lon="10.4248457"><ele>476.0</ele><time>2026-04-04T10:03:40.637Z</time></trkpt><trkpt lat="44.1390076" lon="10.4246684"><ele>476.0</ele><time>2026-04-04T10:03:41.64Z</time></trkpt><trkpt lat="44.1389467" lon="10.4245044"><ele>476.0</ele><time>2026-04-04T10:03:42.635Z</time></trkpt><trkpt lat="44.1389012" lon="10.424338"><ele>471.75</ele><time>2026-04-04T10:03:43.639Z</time></trkpt><trkpt lat="44.1388806" lon="10.4241755"><ele>467.5</ele><time>2026-04-04T10:03:44.635Z</time></trkpt><trkpt lat="44.1388862" lon="10.4240033"><ele>463.25</ele><time>2026-04-04T10:03:45.635Z</time></trkpt><trkpt lat="44.1389068" lon="10.4238174"><ele>459.0</ele><time>2026-04-04T10:03:46.637Z</time></trkpt><trkpt lat="44.1389304" lon="10.4236337"><ele>456.0</ele><time>2026-04-04T10:03:47.637Z</time></trkpt><trkpt lat="44.1389015" lon="10.4234267"><ele>453.0</ele><time>2026-04-04T10:03:48.645Z</time></trkpt><trkpt lat="44.138839" lon="10.4232197"><ele>450.0</ele><time>2026-04-04T10:03:49.635Z</time></trkpt><trkpt lat="44.1387653" lon="10.423036"><ele>447.2</ele><time>2026-04-04T10:03:50.635Z</time></trkpt><trkpt lat="44.1387169" lon="10.4228663"><ele>444.4</ele><time>2026-04-04T10:03:51.646Z</time></trkpt><trkpt lat="44.1386765" lon="10.4226986"><ele>441.6</ele><time>2026-04-04T10:03:52.654Z</time></trkpt><trkpt lat="44.138656" lon="10.4225489"><ele>438.8</ele><time>2026-04-04T10:03:53.642Z</time></trkpt><trkpt lat="44.1386491" lon="10.4224422"><ele>436.0</ele><time>2026-04-04T10:03:54.644Z</time></trkpt><trkpt lat="44.1386564" lon="10.4223465"><ele>436.00000000000006</ele><time>2026-04-04T10:03:55.637Z</time></trkpt><trkpt lat="44.1387043" lon="10.4222681"><ele>436.0</ele><time>2026-04-04T10:03:56.65Z</time></trkpt><trkpt lat="44.1387735" lon="10.4222257"><ele>436.0</ele><time>2026-04-04T10:03:57.638Z</time></trkpt><trkpt lat="44.1388634" lon="10.4222378"><ele>436.0</ele><time>2026-04-04T10:03:58.643Z</time></trkpt><trkpt lat="44.1389489" lon="10.4222875"><ele>436.00000000000006</ele><time>2026-04-04T10:03:59.628Z</time></trkpt><trkpt lat="44.139033" lon="10.4223552"><ele>436.0</ele><time>2026-04-04T10:04:00.635Z</time></trkpt><trkpt lat="44.1391072" lon="10.4224069"><ele>435.6666666666667</ele><time>2026-04-04T10:04:01.628Z</time></trkpt><trkpt lat="44.1391715" lon="10.4224463"><ele>435.33333333333337</ele><time>2026-04-04T10:04:02.624Z</time></trkpt><trkpt lat="44.1392294" lon="10.4224819"><ele>435.0</ele><time>2026-04-04T10:04:03.621Z</time></trkpt><trkpt lat="44.1393191" lon="10.422466"><ele>434.66666666666663</ele><time>2026-04-04T10:04:05.631Z</time></trkpt><trkpt lat="44.13935" lon="10.4223083"><ele>434.3333333333333</ele><time>2026-04-04T10:04:07.64Z</time></trkpt><trkpt lat="44.1393379" lon="10.4221692"><ele>434.0</ele><time>2026-04-04T10:04:08.636Z</time></trkpt><trkpt lat="44.139321" lon="10.4219935"><ele>434.0</ele><time>2026-04-04T10:04:09.643Z</time></trkpt><trkpt lat="44.1393102" lon="10.4218265"><ele>434.0</ele><time>2026-04-04T10:04:10.631Z</time></trkpt><trkpt lat="44.1393125" lon="10.4216594"><ele>434.0</ele><time>2026-04-04T10:04:11.639Z</time></trkpt><trkpt lat="44.1393432" lon="10.4215189"><ele>434.0</ele><time>2026-04-04T10:04:12.639Z</time></trkpt><trkpt lat="44.1393839" lon="10.4213843"><ele>432.8333333333333</ele><time>2026-04-04T10:04:13.635Z</time></trkpt><trkpt lat="44.1394277" lon="10.4212691"><ele>431.66666666666663</ele><time>2026-04-04T10:04:14.634Z</time></trkpt><trkpt lat="44.139477" lon="10.4211709"><ele>430.5</ele><time>2026-04-04T10:04:15.641Z</time></trkpt><trkpt lat="44.139509" lon="10.4210732"><ele>429.33333333333337</ele><time>2026-04-04T10:04:16.637Z</time></trkpt><trkpt lat="44.1395177" lon="10.4209709"><ele>428.1666666666667</ele><time>2026-04-04T10:04:17.652Z</time></trkpt><trkpt lat="44.139481" lon="10.420883"><ele>427.0</ele><time>2026-04-04T10:04:18.633Z</time></trkpt><trkpt lat="44.139407" lon="10.420805"><ele>427.0</ele><time>2026-04-04T10:04:19.649Z</time></trkpt><trkpt lat="44.139303" lon="10.4207669"><ele>427.0</ele><time>2026-04-04T10:04:20.633Z</time></trkpt><trkpt lat="44.1391766" lon="10.4207454"><ele>427.0</ele><time>2026-04-04T10:04:21.637Z</time></trkpt><trkpt lat="44.1390467" lon="10.4207353"><ele>427.0</ele><time>2026-04-04T10:04:22.641Z</time></trkpt><trkpt lat="44.1389311" lon="10.4207205"><ele>424.8</ele><time>2026-04-04T10:04:23.657Z</time></trkpt><trkpt lat="44.1388396" lon="10.4206773"><ele>422.6</ele><time>2026-04-04T10:04:24.641Z</time></trkpt><trkpt lat="44.138775" lon="10.4206029"><ele>420.40000000000003</ele><time>2026-04-04T10:04:25.639Z</time></trkpt><trkpt lat="44.1387641" lon="10.4205067"><ele>418.20000000000005</ele><time>2026-04-04T10:04:26.643Z</time></trkpt><trkpt lat="44.1388201" lon="10.4203995"><ele>416.0</ele><time>2026-04-04T10:04:27.651Z</time></trkpt><trkpt lat="44.1389273" lon="10.4203071"><ele>417.5</ele><time>2026-04-04T10:04:28.647Z</time></trkpt><trkpt lat="44.1390581" lon="10.4202105"><ele>419.0</ele><time>2026-04-04T10:04:29.64Z</time></trkpt><trkpt lat="44.1391534" lon="10.4200889"><ele>420.5</ele><time>2026-04-04T10:04:30.639Z</time></trkpt><trkpt lat="44.1392126" lon="10.4199385"><ele>422.0</ele><time>2026-04-04T10:04:31.633Z</time></trkpt><trkpt lat="44.139228" lon="10.4197763"><ele>420.0</ele><time>2026-04-04T10:04:32.638Z</time></trkpt><trkpt lat="44.1391972" lon="10.4196219"><ele>418.0</ele><time>2026-04-04T10:04:33.635Z</time></trkpt><trkpt lat="44.1391462" lon="10.4194699"><ele>416.0</ele><time>2026-04-04T10:04:34.634Z</time></trkpt><trkpt lat="44.1390964" lon="10.4193306"><ele>414.0</ele><time>2026-04-04T10:04:35.624Z</time></trkpt><trkpt lat="44.1390331" lon="10.4191947"><ele>413.25</ele><time>2026-04-04T10:04:36.63Z</time></trkpt><trkpt lat="44.1389342" lon="10.419074"><ele>412.5</ele><time>2026-04-04T10:04:37.635Z</time></trkpt><trkpt lat="44.1388038" lon="10.4189628"><ele>411.75</ele><time>2026-04-04T10:04:38.634Z</time></trkpt><trkpt lat="44.1386697" lon="10.4188501"><ele>411.0</ele><time>2026-04-04T10:04:39.64Z</time></trkpt><trkpt lat="44.1385185" lon="10.4187606"><ele>408.33333333333337</ele><time>2026-04-04T10:04:40.638Z</time></trkpt><trkpt lat="44.1383742" lon="10.4186824"><ele>405.6666666666667</ele><time>2026-04-04T10:04:41.643Z</time></trkpt><trkpt lat="44.1382346" lon="10.418556"><ele>403.0</ele><time>2026-04-04T10:04:42.638Z</time></trkpt><trkpt lat="44.1381121" lon="10.4183981"><ele>403.0</ele><time>2026-04-04T10:04:43.636Z</time></trkpt><trkpt lat="44.1380069" lon="10.4182116"><ele>403.0</ele><time>2026-04-04T10:04:44.641Z</time></trkpt><trkpt lat="44.1379164" lon="10.4180229"><ele>403.0</ele><time>2026-04-04T10:04:45.654Z</time></trkpt><trkpt lat="44.1377832" lon="10.4178512"><ele>402.25</ele><time>2026-04-04T10:04:46.639Z</time></trkpt><trkpt lat="44.1376589" lon="10.417683"><ele>401.5</ele><time>2026-04-04T10:04:47.641Z</time></trkpt><trkpt lat="44.137549" lon="10.4175482"><ele>400.75</ele><time>2026-04-04T10:04:48.635Z</time></trkpt><trkpt lat="44.1374534" lon="10.4174491"><ele>400.0</ele><time>2026-04-04T10:04:49.643Z</time></trkpt><trkpt lat="44.1373861" lon="10.4173811"><ele>399.33333333333337</ele><time>2026-04-04T10:04:50.63Z</time></trkpt><trkpt lat="44.1373406" lon="10.417301"><ele>398.6666666666667</ele><time>2026-04-04T10:04:53.643Z</time></trkpt><trkpt lat="44.1372913" lon="10.4172376"><ele>398.0</ele><time>2026-04-04T10:04:56.642Z</time></trkpt><trkpt lat="44.1372266" lon="10.4171305"><ele>397.33333333333337</ele><time>2026-04-04T10:04:58.645Z</time></trkpt><trkpt lat="44.1371638" lon="10.4170486"><ele>396.6666666666667</ele><time>2026-04-04T10:04:59.646Z</time></trkpt><trkpt lat="44.1370903" lon="10.4169585"><ele>396.0</ele><time>2026-04-04T10:05:00.644Z</time></trkpt><trkpt lat="44.1370105" lon="10.4168628"><ele>395.5</ele><time>2026-04-04T10:05:01.634Z</time></trkpt><trkpt lat="44.1369208" lon="10.4167667"><ele>395.0</ele><time>2026-04-04T10:05:02.633Z</time></trkpt><trkpt lat="44.1368257" lon="10.4166702"><ele>394.5</ele><time>2026-04-04T10:05:03.638Z</time></trkpt><trkpt lat="44.1367373" lon="10.4165706"><ele>394.0</ele><time>2026-04-04T10:05:04.628Z</time></trkpt><trkpt lat="44.1366403" lon="10.4164789"><ele>392.79999999999995</ele><time>2026-04-04T10:05:05.653Z</time></trkpt><trkpt lat="44.136545" lon="10.4163958"><ele>391.59999999999997</ele><time>2026-04-04T10:05:06.636Z</time></trkpt><trkpt lat="44.136448" lon="10.4163126"><ele>390.4</ele><time>2026-04-04T10:05:07.637Z</time></trkpt><trkpt lat="44.1363545" lon="10.4162304"><ele>389.2</ele><time>2026-04-04T10:05:08.638Z</time></trkpt><trkpt lat="44.1362607" lon="10.4161511"><ele>388.0</ele><time>2026-04-04T10:05:09.63Z</time></trkpt><trkpt lat="44.136167" lon="10.4160698"><ele>388.0</ele><time>2026-04-04T10:05:10.639Z</time></trkpt><trkpt lat="44.1360676" lon="10.4159982"><ele>388.0</ele><time>2026-04-04T10:05:11.639Z</time></trkpt><trkpt lat="44.1359638" lon="10.4159386"><ele>388.0</ele><time>2026-04-04T10:05:12.639Z</time></trkpt><trkpt lat="44.1358538" lon="10.4158873"><ele>388.0</ele><time>2026-04-04T10:05:13.641Z</time></trkpt><trkpt lat="44.1357355" lon="10.4158368"><ele>387.0</ele><time>2026-04-04T10:05:14.646Z</time></trkpt><trkpt lat="44.1356146" lon="10.4157926"><ele>386.0</ele><time>2026-04-04T10:05:15.647Z</time></trkpt><trkpt lat="44.1354998" lon="10.4157435"><ele>385.0</ele><time>2026-04-04T10:05:16.645Z</time></trkpt><trkpt lat="44.1353871" lon="10.415693"><ele>384.0</ele><time>2026-04-04T10:05:17.636Z</time></trkpt><trkpt lat="44.135272" lon="10.4156424"><ele>384.0</ele><time>2026-04-04T10:05:18.646Z</time></trkpt><trkpt lat="44.1351625" lon="10.4155924"><ele>384.0</ele><time>2026-04-04T10:05:19.646Z</time></trkpt><trkpt lat="44.1350513" lon="10.4155379"><ele>384.0</ele><time>2026-04-04T10:05:20.647Z</time></trkpt><trkpt lat="44.1349364" lon="10.4154786"><ele>384.0</ele><time>2026-04-04T10:05:21.653Z</time></trkpt><trkpt lat="44.1348219" lon="10.4154062"><ele>383.3333333333333</ele><time>2026-04-04T10:05:22.65Z</time></trkpt><trkpt lat="44.1347088" lon="10.4152955"><ele>382.66666666666663</ele><time>2026-04-04T10:05:23.64Z</time></trkpt><trkpt lat="44.1345953" lon="10.4151566"><ele>382.0</ele><time>2026-04-04T10:05:24.638Z</time></trkpt><trkpt lat="44.1344724" lon="10.4150103"><ele>382.0</ele><time>2026-04-04T10:05:25.658Z</time></trkpt><trkpt lat="44.1343537" lon="10.4148712"><ele>382.0</ele><time>2026-04-04T10:05:26.64Z</time></trkpt><trkpt lat="44.1342441" lon="10.4147435"><ele>382.0</ele><time>2026-04-04T10:05:27.638Z</time></trkpt><trkpt lat="44.1341442" lon="10.4146289"><ele>382.0</ele><time>2026-04-04T10:05:28.636Z</time></trkpt><trkpt lat="44.1340444" lon="10.4145192"><ele>381.0</ele><time>2026-04-04T10:05:29.64Z</time></trkpt><trkpt lat="44.133952" lon="10.4144269"><ele>380.0</ele><time>2026-04-04T10:05:30.635Z</time></trkpt><trkpt lat="44.1338563" lon="10.4143271"><ele>379.0</ele><time>2026-04-04T10:05:31.636Z</time></trkpt><trkpt lat="44.1337606" lon="10.4142231"><ele>378.0</ele><time>2026-04-04T10:05:32.635Z</time></trkpt><trkpt lat="44.1336613" lon="10.4141137"><ele>378.0</ele><time>2026-04-04T10:05:33.636Z</time></trkpt><trkpt lat="44.1335626" lon="10.4140068"><ele>378.0</ele><time>2026-04-04T10:05:34.632Z</time></trkpt><trkpt lat="44.1334628" lon="10.4139038"><ele>378.0</ele><time>2026-04-04T10:05:35.633Z</time></trkpt><trkpt lat="44.1333474" lon="10.4138212"><ele>378.0</ele><time>2026-04-04T10:05:36.63Z</time></trkpt><trkpt lat="44.133223" lon="10.413747"><ele>376.75</ele><time>2026-04-04T10:05:37.628Z</time></trkpt><trkpt lat="44.1330868" lon="10.4136852"><ele>375.5</ele><time>2026-04-04T10:05:38.642Z</time></trkpt><trkpt lat="44.1329503" lon="10.4136377"><ele>374.25</ele><time>2026-04-04T10:05:39.642Z</time></trkpt><trkpt lat="44.1328219" lon="10.4135922"><ele>373.0</ele><time>2026-04-04T10:05:40.642Z</time></trkpt><trkpt lat="44.1326919" lon="10.413547"><ele>373.0</ele><time>2026-04-04T10:05:41.642Z</time></trkpt><trkpt lat="44.1325641" lon="10.4134989"><ele>373.0</ele><time>2026-04-04T10:05:42.638Z</time></trkpt><trkpt lat="44.1324339" lon="10.4134446"><ele>373.0</ele><time>2026-04-04T10:05:43.641Z</time></trkpt><trkpt lat="44.13231" lon="10.4133883"><ele>373.0</ele><time>2026-04-04T10:05:44.643Z</time></trkpt><trkpt lat="44.1321831" lon="10.4133283"><ele>371.75</ele><time>2026-04-04T10:05:45.644Z</time></trkpt><trkpt lat="44.1320519" lon="10.4132759"><ele>370.5</ele><time>2026-04-04T10:05:46.638Z</time></trkpt><trkpt lat="44.1319224" lon="10.4132266"><ele>369.25</ele><time>2026-04-04T10:05:47.643Z</time></trkpt><trkpt lat="44.1317926" lon="10.41317"><ele>368.0</ele><time>2026-04-04T10:05:48.64Z</time></trkpt><trkpt lat="44.131669" lon="10.4131117"><ele>367.5</ele><time>2026-04-04T10:05:49.643Z</time></trkpt><trkpt lat="44.1315382" lon="10.413051"><ele>367.0</ele><time>2026-04-04T10:05:50.638Z</time></trkpt><trkpt lat="44.131404" lon="10.4129755"><ele>366.5</ele><time>2026-04-04T10:05:51.641Z</time></trkpt><trkpt lat="44.131264" lon="10.4128724"><ele>366.0</ele><time>2026-04-04T10:05:52.656Z</time></trkpt><trkpt lat="44.1311216" lon="10.4127617"><ele>365.3333333333333</ele><time>2026-04-04T10:05:53.631Z</time></trkpt><trkpt lat="44.130978" lon="10.4126531"><ele>364.66666666666663</ele><time>2026-04-04T10:05:54.631Z</time></trkpt><trkpt lat="44.1308321" lon="10.4125411"><ele>364.0</ele><time>2026-04-04T10:05:55.632Z</time></trkpt><trkpt lat="44.1306996" lon="10.4124441"><ele>363.66666666666663</ele><time>2026-04-04T10:05:56.654Z</time></trkpt><trkpt lat="44.1305586" lon="10.4123445"><ele>363.3333333333333</ele><time>2026-04-04T10:05:57.642Z</time></trkpt><trkpt lat="44.1304142" lon="10.412257"><ele>363.0</ele><time>2026-04-04T10:05:58.641Z</time></trkpt><trkpt lat="44.1302829" lon="10.4121683"><ele>362.5</ele><time>2026-04-04T10:05:59.642Z</time></trkpt><trkpt lat="44.1301503" lon="10.4120894"><ele>362.0</ele><time>2026-04-04T10:06:00.641Z</time></trkpt><trkpt lat="44.1300374" lon="10.4120173"><ele>361.5</ele><time>2026-04-04T10:06:01.636Z</time></trkpt><trkpt lat="44.1299149" lon="10.4119486"><ele>361.0</ele><time>2026-04-04T10:06:02.635Z</time></trkpt><trkpt lat="44.1297956" lon="10.4118758"><ele>359.5</ele><time>2026-04-04T10:06:03.636Z</time></trkpt><trkpt lat="44.1296661" lon="10.41181"><ele>358.0</ele><time>2026-04-04T10:06:04.637Z</time></trkpt><trkpt lat="44.1295395" lon="10.4117595"><ele>356.5</ele><time>2026-04-04T10:06:05.644Z</time></trkpt><trkpt lat="44.1294129" lon="10.4117169"><ele>355.0</ele><time>2026-04-04T10:06:06.643Z</time></trkpt><trkpt lat="44.1292869" lon="10.4116786"><ele>355.0</ele><time>2026-04-04T10:06:07.637Z</time></trkpt><trkpt lat="44.1291685" lon="10.4116369"><ele>355.0</ele><time>2026-04-04T10:06:08.636Z</time></trkpt><trkpt lat="44.1290606" lon="10.4115926"><ele>355.0</ele><time>2026-04-04T10:06:09.641Z</time></trkpt><trkpt lat="44.1289724" lon="10.4115466"><ele>355.0</ele><time>2026-04-04T10:06:10.64Z</time></trkpt><trkpt lat="44.1289162" lon="10.41148"><ele>355.0</ele><time>2026-04-04T10:06:11.643Z</time></trkpt><trkpt lat="44.1288978" lon="10.4113897"><ele>354.66666666666663</ele><time>2026-04-04T10:06:12.642Z</time></trkpt><trkpt lat="44.1288263" lon="10.4113284"><ele>354.3333333333333</ele><time>2026-04-04T10:06:14.646Z</time></trkpt><trkpt lat="44.1287404" lon="10.4113658"><ele>354.0</ele><time>2026-04-04T10:06:16.639Z</time></trkpt><trkpt lat="44.1286334" lon="10.4113698"><ele>353.6666666666667</ele><time>2026-04-04T10:06:18.643Z</time></trkpt><trkpt lat="44.1285659" lon="10.4113645"><ele>353.33333333333337</ele><time>2026-04-04T10:06:19.643Z</time></trkpt><trkpt lat="44.128494" lon="10.4113655"><ele>353.0</ele><time>2026-04-04T10:06:20.64Z</time></trkpt><trkpt lat="44.1284116" lon="10.411366"><ele>353.0</ele><time>2026-04-04T10:06:21.649Z</time></trkpt><trkpt lat="44.128321" lon="10.411354"><ele>353.0</ele><time>2026-04-04T10:06:22.639Z</time></trkpt><trkpt lat="44.128227" lon="10.411329"><ele>353.0</ele><time>2026-04-04T10:06:23.649Z</time></trkpt><trkpt lat="44.1281389" lon="10.4112983"><ele>353.0</ele><time>2026-04-04T10:06:24.64Z</time></trkpt><trkpt lat="44.1280576" lon="10.4112664"><ele>353.0</ele><time>2026-04-04T10:06:25.635Z</time></trkpt><trkpt lat="44.1279918" lon="10.4112406"><ele>353.0</ele><time>2026-04-04T10:06:26.634Z</time></trkpt><trkpt lat="44.127883" lon="10.4111928"><ele>352.4</ele><time>2026-04-04T10:06:28.645Z</time></trkpt><trkpt lat="44.1277912" lon="10.4111537"><ele>351.79999999999995</ele><time>2026-04-04T10:06:30.64Z</time></trkpt><trkpt lat="44.1276816" lon="10.4111153"><ele>351.2</ele><time>2026-04-04T10:06:32.643Z</time></trkpt><trkpt lat="44.1276011" lon="10.4110881"><ele>350.6</ele><time>2026-04-04T10:06:33.645Z</time></trkpt><trkpt lat="44.1275035" lon="10.4110594"><ele>350.0</ele><time>2026-04-04T10:06:34.633Z</time></trkpt><trkpt lat="44.1273957" lon="10.4110226"><ele>349.75</ele><time>2026-04-04T10:06:35.646Z</time></trkpt><trkpt lat="44.1272824" lon="10.4109845"><ele>349.5</ele><time>2026-04-04T10:06:36.64Z</time></trkpt><trkpt lat="44.1271689" lon="10.4109459"><ele>349.25</ele><time>2026-04-04T10:06:37.624Z</time></trkpt><trkpt lat="44.127048" lon="10.4109105"><ele>349.0</ele><time>2026-04-04T10:06:38.631Z</time></trkpt><trkpt lat="44.1269262" lon="10.4108873"><ele>349.0</ele><time>2026-04-04T10:06:39.636Z</time></trkpt><trkpt lat="44.1267972" lon="10.4108603"><ele>349.0</ele><time>2026-04-04T10:06:40.625Z</time></trkpt><trkpt lat="44.1266584" lon="10.410818"><ele>349.0</ele><time>2026-04-04T10:06:41.64Z</time></trkpt><trkpt lat="44.1264972" lon="10.4107642"><ele>349.0</ele><time>2026-04-04T10:06:42.631Z</time></trkpt><trkpt lat="44.1263144" lon="10.4107087"><ele>348.66666666666663</ele><time>2026-04-04T10:06:43.643Z</time></trkpt><trkpt lat="44.1261405" lon="10.4106519"><ele>348.3333333333333</ele><time>2026-04-04T10:06:44.643Z</time></trkpt><trkpt lat="44.12598" lon="10.4106032"><ele>348.0</ele><time>2026-04-04T10:06:45.634Z</time></trkpt><trkpt lat="44.1258249" lon="10.4105496"><ele>347.0</ele><time>2026-04-04T10:06:46.645Z</time></trkpt><trkpt lat="44.1256704" lon="10.4104912"><ele>346.0</ele><time>2026-04-04T10:06:47.638Z</time></trkpt><trkpt lat="44.1255289" lon="10.4104289"><ele>345.0</ele><time>2026-04-04T10:06:48.636Z</time></trkpt><trkpt lat="44.125398" lon="10.4103674"><ele>344.0</ele><time>2026-04-04T10:06:49.641Z</time></trkpt><trkpt lat="44.1252856" lon="10.4103186"><ele>344.0</ele><time>2026-04-04T10:06:50.635Z</time></trkpt><trkpt lat="44.1251816" lon="10.4102582"><ele>344.0</ele><time>2026-04-04T10:06:51.641Z</time></trkpt><trkpt lat="44.1250916" lon="10.4101762"><ele>344.0</ele><time>2026-04-04T10:06:52.65Z</time></trkpt><trkpt lat="44.1250323" lon="10.410059"><ele>344.0</ele><time>2026-04-04T10:06:53.645Z</time></trkpt><trkpt lat="44.1249762" lon="10.409954"><ele>344.0</ele><time>2026-04-04T10:06:54.641Z</time></trkpt><trkpt lat="44.1249048" lon="10.4098714"><ele>343.2</ele><time>2026-04-04T10:06:55.636Z</time></trkpt><trkpt lat="44.124825" lon="10.4098645"><ele>342.4</ele><time>2026-04-04T10:06:56.641Z</time></trkpt><trkpt lat="44.124743" lon="10.4099278"><ele>341.6</ele><time>2026-04-04T10:06:57.644Z</time></trkpt><trkpt lat="44.1246848" lon="10.4100624"><ele>340.8</ele><time>2026-04-04T10:06:58.665Z</time></trkpt><trkpt lat="44.1246749" lon="10.4102327"><ele>340.0</ele><time>2026-04-04T10:06:59.637Z</time></trkpt><trkpt lat="44.1246798" lon="10.4104137"><ele>341.0</ele><time>2026-04-04T10:07:00.628Z</time></trkpt><trkpt lat="44.1246738" lon="10.4105992"><ele>342.0</ele><time>2026-04-04T10:07:01.625Z</time></trkpt><trkpt lat="44.1246412" lon="10.4107718"><ele>343.0</ele><time>2026-04-04T10:07:02.627Z</time></trkpt><trkpt lat="44.1245936" lon="10.4109305"><ele>344.0</ele><time>2026-04-04T10:07:03.63Z</time></trkpt><trkpt lat="44.1245384" lon="10.4111087"><ele>344.0</ele><time>2026-04-04T10:07:04.628Z</time></trkpt><trkpt lat="44.1244682" lon="10.4112913"><ele>344.0</ele><time>2026-04-04T10:07:05.636Z</time></trkpt><trkpt lat="44.1243757" lon="10.4114891"><ele>344.0</ele><time>2026-04-04T10:07:06.638Z</time></trkpt><trkpt lat="44.1242742" lon="10.4116723"><ele>344.0</ele><time>2026-04-04T10:07:07.638Z</time></trkpt><trkpt lat="44.1241753" lon="10.4118373"><ele>344.0</ele><time>2026-04-04T10:07:08.636Z</time></trkpt><trkpt lat="44.1240717" lon="10.4120062"><ele>344.0</ele><time>2026-04-04T10:07:09.642Z</time></trkpt><trkpt lat="44.1239527" lon="10.4121781"><ele>342.6666666666667</ele><time>2026-04-04T10:07:10.633Z</time></trkpt><trkpt lat="44.123821" lon="10.4123359"><ele>341.3333333333333</ele><time>2026-04-04T10:07:11.633Z</time></trkpt><trkpt lat="44.1236827" lon="10.4124933"><ele>340.0</ele><time>2026-04-04T10:07:12.64Z</time></trkpt><trkpt lat="44.1235352" lon="10.4126503"><ele>340.0</ele><time>2026-04-04T10:07:13.629Z</time></trkpt><trkpt lat="44.1233675" lon="10.4127996"><ele>340.0</ele><time>2026-04-04T10:07:14.637Z</time></trkpt><trkpt lat="44.1231891" lon="10.4129446"><ele>340.0</ele><time>2026-04-04T10:07:15.636Z</time></trkpt><trkpt lat="44.1230028" lon="10.4130648"><ele>339.0</ele><time>2026-04-04T10:07:16.642Z</time></trkpt><trkpt lat="44.122812" lon="10.413163"><ele>338.0</ele><time>2026-04-04T10:07:17.635Z</time></trkpt><trkpt lat="44.1226127" lon="10.4132401"><ele>337.0</ele><time>2026-04-04T10:07:18.637Z</time></trkpt><trkpt lat="44.1224025" lon="10.4133069"><ele>334.3333333333333</ele><time>2026-04-04T10:07:19.636Z</time></trkpt><trkpt lat="44.1222021" lon="10.4133539"><ele>331.6666666666667</ele><time>2026-04-04T10:07:20.632Z</time></trkpt><trkpt lat="44.1220073" lon="10.4133812"><ele>329.0</ele><time>2026-04-04T10:07:21.637Z</time></trkpt><trkpt lat="44.1218119" lon="10.4133933"><ele>329.0</ele><time>2026-04-04T10:07:22.639Z</time></trkpt><trkpt lat="44.1216119" lon="10.4133962"><ele>329.0</ele><time>2026-04-04T10:07:23.635Z</time></trkpt><trkpt lat="44.1213956" lon="10.4133977"><ele>329.0</ele><time>2026-04-04T10:07:24.634Z</time></trkpt><trkpt lat="44.1211403" lon="10.4134157"><ele>328.5</ele><time>2026-04-04T10:07:25.641Z</time></trkpt><trkpt lat="44.1208344" lon="10.4134152"><ele>328.0</ele><time>2026-04-04T10:07:26.626Z</time></trkpt><trkpt lat="44.1205351" lon="10.4133969"><ele>328.0</ele><time>2026-04-04T10:07:27.638Z</time></trkpt><trkpt lat="44.1202695" lon="10.4133812"><ele>328.0</ele><time>2026-04-04T10:07:28.639Z</time></trkpt><trkpt lat="44.120011" lon="10.4133794"><ele>325.5</ele><time>2026-04-04T10:07:29.623Z</time></trkpt><trkpt lat="44.1197483" lon="10.4133769"><ele>323.0</ele><time>2026-04-04T10:07:30.622Z</time></trkpt><trkpt lat="44.1195001" lon="10.4133686"><ele>323.0</ele><time>2026-04-04T10:07:31.603Z</time></trkpt><trkpt lat="44.1192176" lon="10.4133872"><ele>323.0</ele><time>2026-04-04T10:07:32.589Z</time></trkpt><trkpt lat="44.1189646" lon="10.4134137"><ele>333.5</ele><time>2026-04-04T10:07:33.598Z</time></trkpt><trkpt lat="44.1187371" lon="10.4134588"><ele>344.0</ele><time>2026-04-04T10:07:34.596Z</time></trkpt><trkpt lat="44.1185049" lon="10.4135057"><ele>344.0</ele><time>2026-04-04T10:07:35.594Z</time></trkpt><trkpt lat="44.1182711" lon="10.4135461"><ele>344.0</ele><time>2026-04-04T10:07:36.592Z</time></trkpt><trkpt lat="44.1180292" lon="10.4135813"><ele>344.0</ele><time>2026-04-04T10:07:37.582Z</time></trkpt><trkpt lat="44.1177947" lon="10.4136219"><ele>344.0</ele><time>2026-04-04T10:07:38.569Z</time></trkpt><trkpt lat="44.117567" lon="10.4136634"><ele>343.5</ele><time>2026-04-04T10:07:39.555Z</time></trkpt><trkpt lat="44.1173401" lon="10.4137033"><ele>343.0</ele><time>2026-04-04T10:07:40.528Z</time></trkpt><trkpt lat="44.1146816" lon="10.4188808"><ele>329.2</ele><time>2026-04-04T10:08:03.605Z</time></trkpt><trkpt lat="44.1146465" lon="10.419044"><ele>315.4</ele><time>2026-04-04T10:08:04.621Z</time></trkpt><trkpt lat="44.1146011" lon="10.4191897"><ele>301.59999999999997</ele><time>2026-04-04T10:08:05.615Z</time></trkpt><trkpt lat="44.1145522" lon="10.4192889"><ele>287.79999999999995</ele><time>2026-04-04T10:08:06.603Z</time></trkpt><trkpt lat="44.1145079" lon="10.4193702"><ele>274.0</ele><time>2026-04-04T10:08:07.641Z</time></trkpt><trkpt lat="44.1144437" lon="10.4194119"><ele>274.0</ele><time>2026-04-04T10:08:08.616Z</time></trkpt><trkpt lat="44.1143693" lon="10.419414"><ele>274.0</ele><time>2026-04-04T10:08:09.614Z</time></trkpt><trkpt lat="44.1142899" lon="10.419365"><ele>274.0</ele><time>2026-04-04T10:08:10.613Z</time></trkpt><trkpt lat="44.1142085" lon="10.4192418"><ele>274.0</ele><time>2026-04-04T10:08:11.617Z</time></trkpt><trkpt lat="44.1141105" lon="10.4191043"><ele>274.0</ele><time>2026-04-04T10:08:12.614Z</time></trkpt><trkpt lat="44.1140031" lon="10.4189582"><ele>272.0</ele><time>2026-04-04T10:08:13.612Z</time></trkpt><trkpt lat="44.1138886" lon="10.4188117"><ele>270.0</ele><time>2026-04-04T10:08:14.609Z</time></trkpt><trkpt lat="44.113762" lon="10.4186648"><ele>268.0</ele><time>2026-04-04T10:08:15.617Z</time></trkpt><trkpt lat="44.1136228" lon="10.4185611"><ele>268.0</ele><time>2026-04-04T10:08:16.62Z</time></trkpt><trkpt lat="44.1134698" lon="10.4184996"><ele>268.0</ele><time>2026-04-04T10:08:17.614Z</time></trkpt><trkpt lat="44.1133091" lon="10.4184742"><ele>268.0</ele><time>2026-04-04T10:08:18.613Z</time></trkpt><trkpt lat="44.1131466" lon="10.4184898"><ele>270.3333333333333</ele><time>2026-04-04T10:08:19.613Z</time></trkpt><trkpt lat="44.1129738" lon="10.4185323"><ele>272.6666666666667</ele><time>2026-04-04T10:08:20.617Z</time></trkpt><trkpt lat="44.1128013" lon="10.4185949"><ele>275.0</ele><time>2026-04-04T10:08:21.607Z</time></trkpt><trkpt lat="44.1126028" lon="10.4186558"><ele>274.0</ele><time>2026-04-04T10:08:22.61Z</time></trkpt><trkpt lat="44.1123786" lon="10.4187144"><ele>273.0</ele><time>2026-04-04T10:08:23.605Z</time></trkpt><trkpt lat="44.112144" lon="10.4187303"><ele>273.0</ele><time>2026-04-04T10:08:24.612Z</time></trkpt><trkpt lat="44.1119024" lon="10.4187003"><ele>273.0</ele><time>2026-04-04T10:08:25.615Z</time></trkpt><trkpt lat="44.1116719" lon="10.4186506"><ele>273.0</ele><time>2026-04-04T10:08:26.611Z</time></trkpt><trkpt lat="44.1114512" lon="10.4186072"><ele>273.0</ele><time>2026-04-04T10:08:27.619Z</time></trkpt><trkpt lat="44.1112378" lon="10.4185648"><ele>273.0</ele><time>2026-04-04T10:08:28.618Z</time></trkpt><trkpt lat="44.1110364" lon="10.4185011"><ele>273.0</ele><time>2026-04-04T10:08:29.63Z</time></trkpt><trkpt lat="44.1108565" lon="10.4184193"><ele>273.0</ele><time>2026-04-04T10:08:30.632Z</time></trkpt><trkpt lat="44.110686" lon="10.4183495"><ele>273.0</ele><time>2026-04-04T10:08:31.618Z</time></trkpt><trkpt lat="44.1105358" lon="10.4182773"><ele>279.0</ele><time>2026-04-04T10:08:32.607Z</time></trkpt><trkpt lat="44.1104033" lon="10.4181875"><ele>285.0</ele><time>2026-04-04T10:08:33.62Z</time></trkpt><trkpt lat="44.1102649" lon="10.4180579"><ele>291.0</ele><time>2026-04-04T10:08:34.612Z</time></trkpt><trkpt lat="44.1101676" lon="10.4179206"><ele>291.0</ele><time>2026-04-04T10:08:35.608Z</time></trkpt><trkpt lat="44.1100984" lon="10.4177652"><ele>291.0</ele><time>2026-04-04T10:08:36.62Z</time></trkpt><trkpt lat="44.1100622" lon="10.4175782"><ele>291.0</ele><time>2026-04-04T10:08:37.625Z</time></trkpt><trkpt lat="44.1100617" lon="10.4173719"><ele>291.0</ele><time>2026-04-04T10:08:38.62Z</time></trkpt><trkpt lat="44.1100859" lon="10.4171658"><ele>287.6666666666667</ele><time>2026-04-04T10:08:39.611Z</time></trkpt><trkpt lat="44.1100965" lon="10.4169519"><ele>284.33333333333337</ele><time>2026-04-04T10:08:40.62Z</time></trkpt><trkpt lat="44.1100671" lon="10.4167458"><ele>281.0</ele><time>2026-04-04T10:08:41.622Z</time></trkpt><trkpt lat="44.1100014" lon="10.4165543"><ele>284.33333333333337</ele><time>2026-04-04T10:08:42.613Z</time></trkpt><trkpt lat="44.1099054" lon="10.4163841"><ele>287.6666666666667</ele><time>2026-04-04T10:08:43.62Z</time></trkpt><trkpt lat="44.1097942" lon="10.416231"><ele>291.0</ele><time>2026-04-04T10:08:44.617Z</time></trkpt><trkpt lat="44.1096965" lon="10.416078"><ele>291.0</ele><time>2026-04-04T10:08:45.621Z</time></trkpt><trkpt lat="44.1096009" lon="10.4159232"><ele>291.0</ele><time>2026-04-04T10:08:46.616Z</time></trkpt><trkpt lat="44.1095078" lon="10.4157756"><ele>291.0</ele><time>2026-04-04T10:08:47.617Z</time></trkpt><trkpt lat="44.1094338" lon="10.4156295"><ele>291.0</ele><time>2026-04-04T10:08:48.622Z</time></trkpt><trkpt lat="44.1093637" lon="10.4154663"><ele>289.0</ele><time>2026-04-04T10:08:49.63Z</time></trkpt><trkpt lat="44.1092906" lon="10.4153044"><ele>287.0</ele><time>2026-04-04T10:08:50.627Z</time></trkpt><trkpt lat="44.1092197" lon="10.4151649"><ele>285.0</ele><time>2026-04-04T10:08:51.627Z</time></trkpt><trkpt lat="44.1091591" lon="10.4150315"><ele>283.0</ele><time>2026-04-04T10:08:52.627Z</time></trkpt><trkpt lat="44.1091111" lon="10.4149051"><ele>289.6</ele><time>2026-04-04T10:08:53.62Z</time></trkpt><trkpt lat="44.1090753" lon="10.4147787"><ele>296.20000000000005</ele><time>2026-04-04T10:08:54.626Z</time></trkpt><trkpt lat="44.1090532" lon="10.4146527"><ele>302.8</ele><time>2026-04-04T10:08:55.624Z</time></trkpt><trkpt lat="44.1090435" lon="10.4145172"><ele>309.40000000000003</ele><time>2026-04-04T10:08:56.628Z</time></trkpt><trkpt lat="44.1090455" lon="10.414386"><ele>316.0</ele><time>2026-04-04T10:08:57.621Z</time></trkpt><trkpt lat="44.1090515" lon="10.4142566"><ele>316.0</ele><time>2026-04-04T10:08:58.639Z</time></trkpt><trkpt lat="44.1090658" lon="10.4141412"><ele>316.0</ele><time>2026-04-04T10:08:59.644Z</time></trkpt><trkpt lat="44.1090887" lon="10.4140386"><ele>316.0</ele><time>2026-04-04T10:09:00.632Z</time></trkpt><trkpt lat="44.1091132" lon="10.4139536"><ele>316.0</ele><time>2026-04-04T10:09:01.612Z</time></trkpt><trkpt lat="44.1091607" lon="10.4138163"><ele>316.0</ele><time>2026-04-04T10:09:03.618Z</time></trkpt><trkpt lat="44.1090949" lon="10.4137583"><ele>316.0</ele><time>2026-04-04T10:09:05.619Z</time></trkpt><trkpt lat="44.1090195" lon="10.4137581"><ele>313.16666666666663</ele><time>2026-04-04T10:09:06.612Z</time></trkpt><trkpt lat="44.1089441" lon="10.4137465"><ele>310.3333333333333</ele><time>2026-04-04T10:09:07.614Z</time></trkpt><trkpt lat="44.1088702" lon="10.4136918"><ele>307.5</ele><time>2026-04-04T10:09:08.62Z</time></trkpt><trkpt lat="44.1088232" lon="10.4136213"><ele>304.6666666666667</ele><time>2026-04-04T10:09:09.623Z</time></trkpt><trkpt lat="44.108791" lon="10.4135313"><ele>301.83333333333337</ele><time>2026-04-04T10:09:10.622Z</time></trkpt><trkpt lat="44.1087685" lon="10.4134485"><ele>299.0</ele><time>2026-04-04T10:09:11.621Z</time></trkpt><trkpt lat="44.108736" lon="10.4132806"><ele>299.0</ele><time>2026-04-04T10:09:13.618Z</time></trkpt><trkpt lat="44.1087178" lon="10.4131653"><ele>299.0</ele><time>2026-04-04T10:09:14.621Z</time></trkpt><trkpt lat="44.108694" lon="10.4130302"><ele>299.0</ele><time>2026-04-04T10:09:15.611Z</time></trkpt><trkpt lat="44.108665" lon="10.4128917"><ele>299.0</ele><time>2026-04-04T10:09:16.624Z</time></trkpt><trkpt lat="44.1086258" lon="10.4127428"><ele>299.0</ele><time>2026-04-04T10:09:17.621Z</time></trkpt><trkpt lat="44.1085858" lon="10.4125815"><ele>296.59999999999997</ele><time>2026-04-04T10:09:18.624Z</time></trkpt><trkpt lat="44.1085431" lon="10.412427"><ele>294.2</ele><time>2026-04-04T10:09:19.622Z</time></trkpt><trkpt lat="44.1085015" lon="10.4122795"><ele>291.79999999999995</ele><time>2026-04-04T10:09:20.62Z</time></trkpt><trkpt lat="44.108466" lon="10.4121402"><ele>289.4</ele><time>2026-04-04T10:09:21.618Z</time></trkpt><trkpt lat="44.1084325" lon="10.4120075"><ele>287.0</ele><time>2026-04-04T10:09:22.619Z</time></trkpt><trkpt lat="44.1084086" lon="10.4118808"><ele>285.83333333333337</ele><time>2026-04-04T10:09:23.623Z</time></trkpt><trkpt lat="44.1083917" lon="10.4117582"><ele>284.6666666666667</ele><time>2026-04-04T10:09:24.62Z</time></trkpt><trkpt lat="44.1083829" lon="10.4116302"><ele>283.5</ele><time>2026-04-04T10:09:25.619Z</time></trkpt><trkpt lat="44.1083807" lon="10.4115072"><ele>282.3333333333333</ele><time>2026-04-04T10:09:26.627Z</time></trkpt><trkpt lat="44.1083893" lon="10.4113885"><ele>281.16666666666663</ele><time>2026-04-04T10:09:27.628Z</time></trkpt><trkpt lat="44.1083921" lon="10.4112673"><ele>280.0</ele><time>2026-04-04T10:09:28.618Z</time></trkpt><trkpt lat="44.1083798" lon="10.4111527"><ele>280.0</ele><time>2026-04-04T10:09:29.619Z</time></trkpt><trkpt lat="44.1083374" lon="10.4110632"><ele>280.0</ele><time>2026-04-04T10:09:30.617Z</time></trkpt><trkpt lat="44.1082518" lon="10.411006"><ele>280.0</ele><time>2026-04-04T10:09:31.617Z</time></trkpt><trkpt lat="44.1081495" lon="10.4109743"><ele>280.0</ele><time>2026-04-04T10:09:32.619Z</time></trkpt><trkpt lat="44.1080416" lon="10.4109425"><ele>280.0</ele><time>2026-04-04T10:09:33.604Z</time></trkpt><trkpt lat="44.1079463" lon="10.4109067"><ele>280.0</ele><time>2026-04-04T10:09:34.611Z</time></trkpt><trkpt lat="44.1078502" lon="10.4108655"><ele>280.0</ele><time>2026-04-04T10:09:35.598Z</time></trkpt><trkpt lat="44.1077558" lon="10.4108169"><ele>280.0</ele><time>2026-04-04T10:09:36.617Z</time></trkpt><trkpt lat="44.1076556" lon="10.4107614"><ele>280.0</ele><time>2026-04-04T10:09:37.621Z</time></trkpt><trkpt lat="44.1075555" lon="10.4106974"><ele>280.0</ele><time>2026-04-04T10:09:38.621Z</time></trkpt><trkpt lat="44.1074572" lon="10.4106359"><ele>279.8</ele><time>2026-04-04T10:09:39.621Z</time></trkpt><trkpt lat="44.1073553" lon="10.4105716"><ele>279.6</ele><time>2026-04-04T10:09:40.622Z</time></trkpt><trkpt lat="44.1072558" lon="10.410504"><ele>279.4</ele><time>2026-04-04T10:09:41.606Z</time></trkpt><trkpt lat="44.1071552" lon="10.4104316"><ele>279.2</ele><time>2026-04-04T10:09:42.62Z</time></trkpt><trkpt lat="44.1070627" lon="10.4103539"><ele>279.0</ele><time>2026-04-04T10:09:43.621Z</time></trkpt><trkpt lat="44.1069805" lon="10.4102801"><ele>279.0</ele><time>2026-04-04T10:09:44.62Z</time></trkpt><trkpt lat="44.1069063" lon="10.4102142"><ele>279.0</ele><time>2026-04-04T10:09:45.626Z</time></trkpt><trkpt lat="44.1068283" lon="10.4101447"><ele>279.0</ele><time>2026-04-04T10:09:46.633Z</time></trkpt><trkpt lat="44.1067498" lon="10.4100737"><ele>279.0</ele><time>2026-04-04T10:09:47.632Z</time></trkpt><trkpt lat="44.1066755" lon="10.4100049"><ele>279.0</ele><time>2026-04-04T10:09:48.626Z</time></trkpt><trkpt lat="44.1065987" lon="10.4099363"><ele>279.0</ele><time>2026-04-04T10:09:49.63Z</time></trkpt><trkpt lat="44.1065287" lon="10.4098596"><ele>279.0</ele><time>2026-04-04T10:09:50.628Z</time></trkpt><trkpt lat="44.1064566" lon="10.4097818"><ele>279.0</ele><time>2026-04-04T10:09:51.633Z</time></trkpt><trkpt lat="44.1063834" lon="10.4097082"><ele>279.0</ele><time>2026-04-04T10:09:52.629Z</time></trkpt><trkpt lat="44.1063068" lon="10.4096343"><ele>279.0</ele><time>2026-04-04T10:09:53.623Z</time></trkpt><trkpt lat="44.1062375" lon="10.4095562"><ele>279.0</ele><time>2026-04-04T10:09:54.626Z</time></trkpt><trkpt lat="44.1061638" lon="10.409474"><ele>279.0</ele><time>2026-04-04T10:09:55.629Z</time></trkpt><trkpt lat="44.1060894" lon="10.4093988"><ele>279.0</ele><time>2026-04-04T10:09:56.627Z</time></trkpt><trkpt lat="44.106015" lon="10.4093223"><ele>279.0</ele><time>2026-04-04T10:09:57.63Z</time></trkpt><trkpt lat="44.1059406" lon="10.4092477"><ele>279.0</ele><time>2026-04-04T10:09:58.638Z</time></trkpt><trkpt lat="44.1058585" lon="10.4091758"><ele>279.0</ele><time>2026-04-04T10:09:59.634Z</time></trkpt><trkpt lat="44.1057724" lon="10.4090918"><ele>279.0</ele><time>2026-04-04T10:10:00.633Z</time></trkpt><trkpt lat="44.1056896" lon="10.4090019"><ele>279.0</ele><time>2026-04-04T10:10:01.626Z</time></trkpt><trkpt lat="44.1056082" lon="10.4089159"><ele>279.0</ele><time>2026-04-04T10:10:02.629Z</time></trkpt><trkpt lat="44.1055322" lon="10.4088358"><ele>279.0</ele><time>2026-04-04T10:10:03.639Z</time></trkpt><trkpt lat="44.1054582" lon="10.4087619"><ele>279.8</ele><time>2026-04-04T10:10:04.621Z</time></trkpt><trkpt lat="44.1053694" lon="10.4086875"><ele>280.59999999999997</ele><time>2026-04-04T10:10:05.625Z</time></trkpt><trkpt lat="44.1052744" lon="10.4086053"><ele>281.4</ele><time>2026-04-04T10:10:06.629Z</time></trkpt><trkpt lat="44.1051904" lon="10.4085251"><ele>282.2</ele><time>2026-04-04T10:10:07.618Z</time></trkpt><trkpt lat="44.1051075" lon="10.4084413"><ele>283.0</ele><time>2026-04-04T10:10:08.623Z</time></trkpt><trkpt lat="44.1050284" lon="10.4083674"><ele>283.0</ele><time>2026-04-04T10:10:09.629Z</time></trkpt><trkpt lat="44.1049495" lon="10.4082898"><ele>283.0</ele><time>2026-04-04T10:10:10.624Z</time></trkpt><trkpt lat="44.1048711" lon="10.4082099"><ele>283.0</ele><time>2026-04-04T10:10:11.626Z</time></trkpt><trkpt lat="44.1047931" lon="10.4081236"><ele>283.0</ele><time>2026-04-04T10:10:12.626Z</time></trkpt><trkpt lat="44.1047166" lon="10.4080454"><ele>283.0</ele><time>2026-04-04T10:10:13.625Z</time></trkpt><trkpt lat="44.1046417" lon="10.4079741"><ele>283.0</ele><time>2026-04-04T10:10:14.625Z</time></trkpt><trkpt lat="44.1045711" lon="10.4079023"><ele>283.0</ele><time>2026-04-04T10:10:15.623Z</time></trkpt><trkpt lat="44.1045062" lon="10.4078411"><ele>283.0</ele><time>2026-04-04T10:10:16.631Z</time></trkpt><trkpt lat="44.1044445" lon="10.4077879"><ele>283.0</ele><time>2026-04-04T10:10:17.631Z</time></trkpt><trkpt lat="44.1043801" lon="10.4077393"><ele>283.0</ele><time>2026-04-04T10:10:18.628Z</time></trkpt><trkpt lat="44.1043248" lon="10.4076914"><ele>283.0</ele><time>2026-04-04T10:10:19.632Z</time></trkpt><trkpt lat="44.1042725" lon="10.4076383"><ele>283.0</ele><time>2026-04-04T10:10:20.632Z</time></trkpt><trkpt lat="44.104198" lon="10.4075171"><ele>283.0</ele><time>2026-04-04T10:10:22.632Z</time></trkpt><trkpt lat="44.1041577" lon="10.4074079"><ele>283.0</ele><time>2026-04-04T10:10:24.626Z</time></trkpt><trkpt lat="44.1041603" lon="10.4072872"><ele>283.0</ele><time>2026-04-04T10:10:29.632Z</time></trkpt><trkpt lat="44.1041717" lon="10.4071429"><ele>283.0</ele><time>2026-04-04T10:10:31.629Z</time></trkpt><trkpt lat="44.10416" lon="10.4070535"><ele>283.0</ele><time>2026-04-04T10:10:32.627Z</time></trkpt><trkpt lat="44.1041268" lon="10.4069601"><ele>283.0</ele><time>2026-04-04T10:10:33.624Z</time></trkpt><trkpt lat="44.1040826" lon="10.406861"><ele>283.0</ele><time>2026-04-04T10:10:34.638Z</time></trkpt><trkpt lat="44.1040449" lon="10.4067351"><ele>283.0</ele><time>2026-04-04T10:10:35.632Z</time></trkpt><trkpt lat="44.1040139" lon="10.406571"><ele>283.0</ele><time>2026-04-04T10:10:36.627Z</time></trkpt><trkpt lat="44.1039876" lon="10.4063755"><ele>283.0</ele><time>2026-04-04T10:10:37.629Z</time></trkpt><trkpt lat="44.1039613" lon="10.406176"><ele>283.66666666666663</ele><time>2026-04-04T10:10:38.628Z</time></trkpt><trkpt lat="44.1039368" lon="10.4059592"><ele>284.3333333333333</ele><time>2026-04-04T10:10:39.622Z</time></trkpt><trkpt lat="44.1039121" lon="10.4056662"><ele>285.0</ele><time>2026-04-04T10:10:40.622Z</time></trkpt><trkpt lat="44.1038996" lon="10.4053528"><ele>284.6666666666667</ele><time>2026-04-04T10:10:41.621Z</time></trkpt><trkpt lat="44.1038839" lon="10.4050576"><ele>284.33333333333337</ele><time>2026-04-04T10:10:42.615Z</time></trkpt><trkpt lat="44.1038624" lon="10.4047877"><ele>284.0</ele><time>2026-04-04T10:10:43.618Z</time></trkpt><trkpt lat="44.1038385" lon="10.4045477"><ele>284.0</ele><time>2026-04-04T10:10:44.617Z</time></trkpt><trkpt lat="44.1038188" lon="10.4043192"><ele>284.0</ele><time>2026-04-04T10:10:45.614Z</time></trkpt><trkpt lat="44.1037948" lon="10.4040856"><ele>284.0</ele><time>2026-04-04T10:10:46.611Z</time></trkpt><trkpt lat="44.1037727" lon="10.403858"><ele>284.6666666666667</ele><time>2026-04-04T10:10:47.624Z</time></trkpt><trkpt lat="44.1037499" lon="10.4036364"><ele>285.3333333333333</ele><time>2026-04-04T10:10:48.632Z</time></trkpt><trkpt lat="44.1037136" lon="10.4034212"><ele>286.0</ele><time>2026-04-04T10:10:49.633Z</time></trkpt><trkpt lat="44.1036875" lon="10.4031892"><ele>285.0</ele><time>2026-04-04T10:10:50.634Z</time></trkpt><trkpt lat="44.1036616" lon="10.4029443"><ele>284.0</ele><time>2026-04-04T10:10:51.638Z</time></trkpt><trkpt lat="44.1036358" lon="10.4026891"><ele>283.0</ele><time>2026-04-04T10:10:52.632Z</time></trkpt><trkpt lat="44.1036076" lon="10.4024286"><ele>283.0</ele><time>2026-04-04T10:10:53.633Z</time></trkpt><trkpt lat="44.1035852" lon="10.4021776"><ele>283.0</ele><time>2026-04-04T10:10:54.629Z</time></trkpt><trkpt lat="44.1035668" lon="10.4019352"><ele>283.0</ele><time>2026-04-04T10:10:55.627Z</time></trkpt><trkpt lat="44.1035477" lon="10.4016903"><ele>282.66666666666663</ele><time>2026-04-04T10:10:56.625Z</time></trkpt><trkpt lat="44.1035233" lon="10.4014434"><ele>282.3333333333333</ele><time>2026-04-04T10:10:57.628Z</time></trkpt><trkpt lat="44.1034999" lon="10.4011975"><ele>282.0</ele><time>2026-04-04T10:10:58.629Z</time></trkpt><trkpt lat="44.103485" lon="10.4009537"><ele>282.0</ele><time>2026-04-04T10:10:59.629Z</time></trkpt><trkpt lat="44.1034673" lon="10.4007046"><ele>282.0</ele><time>2026-04-04T10:11:00.629Z</time></trkpt><trkpt lat="44.1034376" lon="10.4004468"><ele>282.0</ele><time>2026-04-04T10:11:01.634Z</time></trkpt><trkpt lat="44.1034126" lon="10.4001853"><ele>282.3333333333333</ele><time>2026-04-04T10:11:02.628Z</time></trkpt><trkpt lat="44.103389" lon="10.3999306"><ele>282.66666666666663</ele><time>2026-04-04T10:11:03.625Z</time></trkpt><trkpt lat="44.1033681" lon="10.3996761"><ele>283.0</ele><time>2026-04-04T10:11:04.626Z</time></trkpt><trkpt lat="44.1033484" lon="10.3994248"><ele>283.3333333333333</ele><time>2026-04-04T10:11:05.638Z</time></trkpt><trkpt lat="44.1033303" lon="10.3991718"><ele>283.6666666666667</ele><time>2026-04-04T10:11:06.626Z</time></trkpt><trkpt lat="44.1033083" lon="10.3989136"><ele>284.0</ele><time>2026-04-04T10:11:07.622Z</time></trkpt><trkpt lat="44.1032878" lon="10.3986582"><ele>284.6666666666667</ele><time>2026-04-04T10:11:08.61Z</time></trkpt><trkpt lat="44.1032536" lon="10.3983925"><ele>285.3333333333333</ele><time>2026-04-04T10:11:09.618Z</time></trkpt><trkpt lat="44.1032011" lon="10.3981319"><ele>286.0</ele><time>2026-04-04T10:11:10.622Z</time></trkpt><trkpt lat="44.1031563" lon="10.3978568"><ele>289.66666666666663</ele><time>2026-04-04T10:11:11.627Z</time></trkpt><trkpt lat="44.1031081" lon="10.3975789"><ele>293.3333333333333</ele><time>2026-04-04T10:11:12.629Z</time></trkpt><trkpt lat="44.1030582" lon="10.397297"><ele>297.0</ele><time>2026-04-04T10:11:13.628Z</time></trkpt><trkpt lat="44.1030051" lon="10.3970228"><ele>298.0</ele><time>2026-04-04T10:11:14.625Z</time></trkpt><trkpt lat="44.1029467" lon="10.3967483"><ele>299.0</ele><time>2026-04-04T10:11:15.629Z</time></trkpt><trkpt lat="44.1028986" lon="10.3964773"><ele>300.0</ele><time>2026-04-04T10:11:16.633Z</time></trkpt><trkpt lat="44.102858" lon="10.3962052"><ele>300.3333333333333</ele><time>2026-04-04T10:11:17.629Z</time></trkpt><trkpt lat="44.1028165" lon="10.3959398"><ele>300.66666666666663</ele><time>2026-04-04T10:11:18.625Z</time></trkpt><trkpt lat="44.1027691" lon="10.3956797"><ele>301.0</ele><time>2026-04-04T10:11:19.628Z</time></trkpt><trkpt lat="44.10272" lon="10.3954105"><ele>301.0</ele><time>2026-04-04T10:11:20.627Z</time></trkpt><trkpt lat="44.102671" lon="10.3951426"><ele>301.0</ele><time>2026-04-04T10:11:21.629Z</time></trkpt><trkpt lat="44.1026197" lon="10.3948739"><ele>301.0</ele><time>2026-04-04T10:11:22.63Z</time></trkpt><trkpt lat="44.1025692" lon="10.3946036"><ele>298.3333333333333</ele><time>2026-04-04T10:11:23.623Z</time></trkpt><trkpt lat="44.1025311" lon="10.3943368"><ele>295.6666666666667</ele><time>2026-04-04T10:11:24.621Z</time></trkpt><trkpt lat="44.102486" lon="10.3940713"><ele>293.0</ele><time>2026-04-04T10:11:25.616Z</time></trkpt><trkpt lat="44.1024368" lon="10.3938185"><ele>298.33333333333337</ele><time>2026-04-04T10:11:26.617Z</time></trkpt><trkpt lat="44.1023982" lon="10.3935666"><ele>303.6666666666667</ele><time>2026-04-04T10:11:27.615Z</time></trkpt><trkpt lat="44.1023617" lon="10.3933188"><ele>309.0</ele><time>2026-04-04T10:11:28.613Z</time></trkpt><trkpt lat="44.1023193" lon="10.3930633"><ele>304.6666666666667</ele><time>2026-04-04T10:11:29.62Z</time></trkpt><trkpt lat="44.1022724" lon="10.3928076"><ele>300.33333333333337</ele><time>2026-04-04T10:11:30.62Z</time></trkpt><trkpt lat="44.1022281" lon="10.3925582"><ele>296.0</ele><time>2026-04-04T10:11:31.617Z</time></trkpt><trkpt lat="44.1021837" lon="10.3923098"><ele>296.0</ele><time>2026-04-04T10:11:32.617Z</time></trkpt><trkpt lat="44.102151" lon="10.3920582"><ele>296.0</ele><time>2026-04-04T10:11:33.61Z</time></trkpt><trkpt lat="44.1021354" lon="10.3918091"><ele>296.0</ele><time>2026-04-04T10:11:34.607Z</time></trkpt><trkpt lat="44.1021418" lon="10.391557"><ele>297.0</ele><time>2026-04-04T10:11:35.617Z</time></trkpt><trkpt lat="44.1021734" lon="10.3913142"><ele>298.0</ele><time>2026-04-04T10:11:36.631Z</time></trkpt><trkpt lat="44.102214" lon="10.3910634"><ele>299.0</ele><time>2026-04-04T10:11:37.619Z</time></trkpt><trkpt lat="44.1022601" lon="10.3908024"><ele>299.0</ele><time>2026-04-04T10:11:38.62Z</time></trkpt><trkpt lat="44.1023141" lon="10.3905477"><ele>299.0</ele><time>2026-04-04T10:11:39.621Z</time></trkpt><trkpt lat="44.1023627" lon="10.3902818"><ele>299.0</ele><time>2026-04-04T10:11:40.617Z</time></trkpt><trkpt lat="44.102415" lon="10.3900193"><ele>298.33333333333337</ele><time>2026-04-04T10:11:41.614Z</time></trkpt><trkpt lat="44.10246" lon="10.3897515"><ele>297.6666666666667</ele><time>2026-04-04T10:11:42.622Z</time></trkpt><trkpt lat="44.102514" lon="10.3894706"><ele>297.0</ele><time>2026-04-04T10:11:43.62Z</time></trkpt><trkpt lat="44.1025593" lon="10.3891956"><ele>297.0</ele><time>2026-04-04T10:11:44.622Z</time></trkpt><trkpt lat="44.1026034" lon="10.3889071"><ele>297.0</ele><time>2026-04-04T10:11:45.62Z</time></trkpt><trkpt lat="44.1026592" lon="10.3886229"><ele>297.0</ele><time>2026-04-04T10:11:46.63Z</time></trkpt><trkpt lat="44.1027155" lon="10.3883387"><ele>298.3333333333333</ele><time>2026-04-04T10:11:47.622Z</time></trkpt><trkpt lat="44.1027673" lon="10.3880613"><ele>299.66666666666663</ele><time>2026-04-04T10:11:48.62Z</time></trkpt><trkpt lat="44.1028175" lon="10.3877945"><ele>301.0</ele><time>2026-04-04T10:11:49.617Z</time></trkpt><trkpt lat="44.1028485" lon="10.387525"><ele>302.66666666666663</ele><time>2026-04-04T10:11:50.611Z</time></trkpt><trkpt lat="44.1028449" lon="10.3872606"><ele>304.3333333333333</ele><time>2026-04-04T10:11:51.616Z</time></trkpt><trkpt lat="44.1028181" lon="10.3870216"><ele>306.0</ele><time>2026-04-04T10:11:52.619Z</time></trkpt><trkpt lat="44.1027728" lon="10.3868044"><ele>306.3333333333333</ele><time>2026-04-04T10:11:53.618Z</time></trkpt><trkpt lat="44.1027095" lon="10.3865728"><ele>306.66666666666663</ele><time>2026-04-04T10:11:54.609Z</time></trkpt><trkpt lat="44.1026468" lon="10.3863135"><ele>307.0</ele><time>2026-04-04T10:11:55.616Z</time></trkpt><trkpt lat="44.1025949" lon="10.3860681"><ele>307.0</ele><time>2026-04-04T10:11:56.608Z</time></trkpt><trkpt lat="44.1025462" lon="10.3858433"><ele>307.0</ele><time>2026-04-04T10:11:57.613Z</time></trkpt><trkpt lat="44.1024924" lon="10.3856465"><ele>307.0</ele><time>2026-04-04T10:11:58.609Z</time></trkpt><trkpt lat="44.1024437" lon="10.3854642"><ele>312.66666666666663</ele><time>2026-04-04T10:11:59.61Z</time></trkpt><trkpt lat="44.1023767" lon="10.3852848"><ele>318.3333333333333</ele><time>2026-04-04T10:12:00.605Z</time></trkpt><trkpt lat="44.1022741" lon="10.3851348"><ele>324.0</ele><time>2026-04-04T10:12:01.606Z</time></trkpt><trkpt lat="44.1021155" lon="10.3850195"><ele>324.0</ele><time>2026-04-04T10:12:02.605Z</time></trkpt><trkpt lat="44.1019372" lon="10.3849217"><ele>324.0</ele><time>2026-04-04T10:12:03.593Z</time></trkpt><trkpt lat="44.101751" lon="10.3848168"><ele>324.0</ele><time>2026-04-04T10:12:04.598Z</time></trkpt><trkpt lat="44.1015681" lon="10.3847092"><ele>322.6666666666667</ele><time>2026-04-04T10:12:05.604Z</time></trkpt><trkpt lat="44.1013896" lon="10.3845767"><ele>321.33333333333337</ele><time>2026-04-04T10:12:06.597Z</time></trkpt><trkpt lat="44.1012282" lon="10.3844295"><ele>320.0</ele><time>2026-04-04T10:12:07.611Z</time></trkpt><trkpt lat="44.101075" lon="10.3842647"><ele>320.0</ele><time>2026-04-04T10:12:08.595Z</time></trkpt><trkpt lat="44.1009315" lon="10.3840992"><ele>320.0</ele><time>2026-04-04T10:12:09.597Z</time></trkpt><trkpt lat="44.1007906" lon="10.3839359"><ele>320.0</ele><time>2026-04-04T10:12:10.593Z</time></trkpt><trkpt lat="44.100662" lon="10.383782"><ele>316.33333333333337</ele><time>2026-04-04T10:12:11.6Z</time></trkpt><trkpt lat="44.1005233" lon="10.3836477"><ele>312.6666666666667</ele><time>2026-04-04T10:12:12.597Z</time></trkpt><trkpt lat="44.1003736" lon="10.383543"><ele>309.0</ele><time>2026-04-04T10:12:13.592Z</time></trkpt><trkpt lat="44.1001977" lon="10.3834851"><ele>309.0</ele><time>2026-04-04T10:12:14.589Z</time></trkpt><trkpt lat="44.1000395" lon="10.3834196"><ele>309.0</ele><time>2026-04-04T10:12:15.597Z</time></trkpt><trkpt lat="44.0998896" lon="10.3833528"><ele>309.0</ele><time>2026-04-04T10:12:16.595Z</time></trkpt><trkpt lat="44.0997643" lon="10.3832583"><ele>311.25</ele><time>2026-04-04T10:12:17.597Z</time></trkpt><trkpt lat="44.0996642" lon="10.3831353"><ele>313.5</ele><time>2026-04-04T10:12:18.601Z</time></trkpt><trkpt lat="44.0995773" lon="10.3830196"><ele>315.75</ele><time>2026-04-04T10:12:19.598Z</time></trkpt><trkpt lat="44.099467" lon="10.3829819"><ele>318.0</ele><time>2026-04-04T10:12:20.607Z</time></trkpt><trkpt lat="44.0993277" lon="10.3830211"><ele>318.0</ele><time>2026-04-04T10:12:21.598Z</time></trkpt><trkpt lat="44.0991828" lon="10.3831566"><ele>318.0</ele><time>2026-04-04T10:12:22.606Z</time></trkpt><trkpt lat="44.0990209" lon="10.3832865"><ele>318.0</ele><time>2026-04-04T10:12:23.594Z</time></trkpt><trkpt lat="44.0988654" lon="10.3834239"><ele>324.0</ele><time>2026-04-04T10:12:24.604Z</time></trkpt><trkpt lat="44.0986919" lon="10.3835479"><ele>330.0</ele><time>2026-04-04T10:12:25.605Z</time></trkpt><trkpt lat="44.0985327" lon="10.3836491"><ele>336.0</ele><time>2026-04-04T10:12:26.597Z</time></trkpt><trkpt lat="44.0983784" lon="10.3837484"><ele>342.0</ele><time>2026-04-04T10:12:27.6Z</time></trkpt><trkpt lat="44.0982017" lon="10.3838157"><ele>348.0</ele><time>2026-04-04T10:12:28.605Z</time></trkpt><trkpt lat="44.0980325" lon="10.3838599"><ele>354.0</ele><time>2026-04-04T10:12:29.6Z</time></trkpt><trkpt lat="44.0978742" lon="10.3838789"><ele>350.0</ele><time>2026-04-04T10:12:30.598Z</time></trkpt><trkpt lat="44.0976852" lon="10.3838849"><ele>346.0</ele><time>2026-04-04T10:12:31.599Z</time></trkpt><trkpt lat="44.0974806" lon="10.3838899"><ele>342.0</ele><time>2026-04-04T10:12:32.595Z</time></trkpt><trkpt lat="44.0972753" lon="10.3839068"><ele>342.0</ele><time>2026-04-04T10:12:33.593Z</time></trkpt><trkpt lat="44.0970543" lon="10.3839855"><ele>342.0</ele><time>2026-04-04T10:12:34.588Z</time></trkpt><trkpt lat="44.096836" lon="10.3841186"><ele>342.0</ele><time>2026-04-04T10:12:35.591Z</time></trkpt><trkpt lat="44.0966533" lon="10.3842649"><ele>342.0</ele><time>2026-04-04T10:12:36.585Z</time></trkpt><trkpt lat="44.0964993" lon="10.3844286"><ele>342.0</ele><time>2026-04-04T10:12:37.585Z</time></trkpt><trkpt lat="44.0963513" lon="10.3845699"><ele>346.25</ele><time>2026-04-04T10:12:38.604Z</time></trkpt><trkpt lat="44.0962512" lon="10.3847073"><ele>350.5</ele><time>2026-04-04T10:12:39.608Z</time></trkpt><trkpt lat="44.0961759" lon="10.3848613"><ele>354.75</ele><time>2026-04-04T10:12:40.579Z</time></trkpt><trkpt lat="44.0961361" lon="10.3850518"><ele>359.0</ele><time>2026-04-04T10:12:41.58Z</time></trkpt><trkpt lat="44.0961585" lon="10.3852737"><ele>359.0</ele><time>2026-04-04T10:12:42.589Z</time></trkpt><trkpt lat="44.096173" lon="10.3854532"><ele>359.0</ele><time>2026-04-04T10:12:43.601Z</time></trkpt><trkpt lat="44.0961579" lon="10.385583"><ele>359.0</ele><time>2026-04-04T10:12:44.593Z</time></trkpt><trkpt lat="44.0961184" lon="10.385689"><ele>359.0</ele><time>2026-04-04T10:12:45.596Z</time></trkpt><trkpt lat="44.0960657" lon="10.385765"><ele>359.0</ele><time>2026-04-04T10:12:46.592Z</time></trkpt><trkpt lat="44.0960005" lon="10.3858315"><ele>358.25</ele><time>2026-04-04T10:12:47.596Z</time></trkpt><trkpt lat="44.0958941" lon="10.3858835"><ele>357.5</ele><time>2026-04-04T10:12:48.592Z</time></trkpt><trkpt lat="44.0957647" lon="10.3859401"><ele>356.75</ele><time>2026-04-04T10:12:49.597Z</time></trkpt><trkpt lat="44.0956207" lon="10.3859928"><ele>356.0</ele><time>2026-04-04T10:12:50.595Z</time></trkpt><trkpt lat="44.0954783" lon="10.3860378"><ele>356.0</ele><time>2026-04-04T10:12:51.592Z</time></trkpt><trkpt lat="44.0953196" lon="10.3860671"><ele>356.0</ele><time>2026-04-04T10:12:52.599Z</time></trkpt><trkpt lat="44.0951161" lon="10.386075"><ele>356.0</ele><time>2026-04-04T10:12:53.597Z</time></trkpt><trkpt lat="44.0948991" lon="10.3860757"><ele>351.0</ele><time>2026-04-04T10:12:54.599Z</time></trkpt><trkpt lat="44.0947059" lon="10.3860938"><ele>346.0</ele><time>2026-04-04T10:12:55.598Z</time></trkpt><trkpt lat="44.0945295" lon="10.3861024"><ele>341.0</ele><time>2026-04-04T10:12:56.63Z</time></trkpt><trkpt lat="44.0943601" lon="10.386068"><ele>341.0</ele><time>2026-04-04T10:12:57.62Z</time></trkpt><trkpt lat="44.0941576" lon="10.3860028"><ele>341.0</ele><time>2026-04-04T10:12:58.605Z</time></trkpt><trkpt lat="44.0939099" lon="10.3859071"><ele>337.5</ele><time>2026-04-04T10:12:59.595Z</time></trkpt><trkpt lat="44.0936522" lon="10.385831"><ele>334.0</ele><time>2026-04-04T10:13:00.624Z</time></trkpt><trkpt lat="44.0934134" lon="10.3857841"><ele>331.66666666666663</ele><time>2026-04-04T10:13:01.598Z</time></trkpt><trkpt lat="44.0932016" lon="10.3857568"><ele>329.3333333333333</ele><time>2026-04-04T10:13:02.625Z</time></trkpt><trkpt lat="44.093002" lon="10.3857203"><ele>327.0</ele><time>2026-04-04T10:13:03.607Z</time></trkpt><trkpt lat="44.0928185" lon="10.3856508"><ele>327.0</ele><time>2026-04-04T10:13:04.607Z</time></trkpt><trkpt lat="44.0926215" lon="10.3855584"><ele>327.0</ele><time>2026-04-04T10:13:05.604Z</time></trkpt><trkpt lat="44.0924379" lon="10.3854635"><ele>327.0</ele><time>2026-04-04T10:13:06.6Z</time></trkpt><trkpt lat="44.0922846" lon="10.3853784"><ele>328.3333333333333</ele><time>2026-04-04T10:13:07.61Z</time></trkpt><trkpt lat="44.0921298" lon="10.3852717"><ele>329.66666666666663</ele><time>2026-04-04T10:13:08.606Z</time></trkpt><trkpt lat="44.0919808" lon="10.3851162"><ele>331.0</ele><time>2026-04-04T10:13:09.626Z</time></trkpt><trkpt lat="44.0918238" lon="10.3849329"><ele>331.0</ele><time>2026-04-04T10:13:10.61Z</time></trkpt><trkpt lat="44.0916293" lon="10.3847795"><ele>331.0</ele><time>2026-04-04T10:13:11.601Z</time></trkpt><trkpt lat="44.0913886" lon="10.3846406"><ele>333.5</ele><time>2026-04-04T10:13:12.607Z</time></trkpt><trkpt lat="44.0911326" lon="10.3844933"><ele>336.0</ele><time>2026-04-04T10:13:13.612Z</time></trkpt><trkpt lat="44.0909116" lon="10.3843628"><ele>334.0</ele><time>2026-04-04T10:13:14.611Z</time></trkpt><trkpt lat="44.0907088" lon="10.3842623"><ele>332.0</ele><time>2026-04-04T10:13:15.604Z</time></trkpt><trkpt lat="44.0905158" lon="10.3841862"><ele>330.0</ele><time>2026-04-04T10:13:16.618Z</time></trkpt><trkpt lat="44.0903192" lon="10.3840963"><ele>330.0</ele><time>2026-04-04T10:13:17.624Z</time></trkpt><trkpt lat="44.0901245" lon="10.3839487"><ele>330.0</ele><time>2026-04-04T10:13:18.619Z</time></trkpt><trkpt lat="44.0899405" lon="10.3837846"><ele>330.0</ele><time>2026-04-04T10:13:19.615Z</time></trkpt><trkpt lat="44.0897745" lon="10.3836304"><ele>331.6666666666667</ele><time>2026-04-04T10:13:20.616Z</time></trkpt><trkpt lat="44.0896437" lon="10.3834655"><ele>333.33333333333337</ele><time>2026-04-04T10:13:21.619Z</time></trkpt><trkpt lat="44.0895294" lon="10.3832973"><ele>335.0</ele><time>2026-04-04T10:13:22.62Z</time></trkpt><trkpt lat="44.0894478" lon="10.3831042"><ele>334.6666666666667</ele><time>2026-04-04T10:13:23.617Z</time></trkpt><trkpt lat="44.0893924" lon="10.382892"><ele>334.3333333333333</ele><time>2026-04-04T10:13:24.618Z</time></trkpt><trkpt lat="44.0893711" lon="10.3826474"><ele>334.0</ele><time>2026-04-04T10:13:25.619Z</time></trkpt><trkpt lat="44.0893821" lon="10.3824219"><ele>336.0</ele><time>2026-04-04T10:13:26.644Z</time></trkpt><trkpt lat="44.0894386" lon="10.3821555"><ele>338.0</ele><time>2026-04-04T10:13:27.64Z</time></trkpt><trkpt lat="44.0894954" lon="10.3818522"><ele>340.0</ele><time>2026-04-04T10:13:28.611Z</time></trkpt><trkpt lat="44.0895463" lon="10.3815581"><ele>340.3333333333333</ele><time>2026-04-04T10:13:29.612Z</time></trkpt><trkpt lat="44.089593" lon="10.38129"><ele>340.6666666666667</ele><time>2026-04-04T10:13:30.606Z</time></trkpt><trkpt lat="44.0896398" lon="10.3810551"><ele>341.0</ele><time>2026-04-04T10:13:31.61Z</time></trkpt><trkpt lat="44.089709" lon="10.3808294"><ele>341.0</ele><time>2026-04-04T10:13:32.599Z</time></trkpt><trkpt lat="44.0898048" lon="10.3806161"><ele>341.0</ele><time>2026-04-04T10:13:33.604Z</time></trkpt><trkpt lat="44.0899004" lon="10.3804186"><ele>341.0</ele><time>2026-04-04T10:13:34.601Z</time></trkpt><trkpt lat="44.0899691" lon="10.3802332"><ele>339.75</ele><time>2026-04-04T10:13:35.608Z</time></trkpt><trkpt lat="44.089962" lon="10.380054"><ele>338.5</ele><time>2026-04-04T10:13:36.613Z</time></trkpt><trkpt lat="44.0899133" lon="10.3799046"><ele>337.25</ele><time>2026-04-04T10:13:37.607Z</time></trkpt><trkpt lat="44.0898463" lon="10.3797715"><ele>336.0</ele><time>2026-04-04T10:13:38.606Z</time></trkpt><trkpt lat="44.0897926" lon="10.3796339"><ele>338.4</ele><time>2026-04-04T10:13:39.601Z</time></trkpt><trkpt lat="44.0897554" lon="10.3794994"><ele>340.8</ele><time>2026-04-04T10:13:40.62Z</time></trkpt><trkpt lat="44.089713" lon="10.3793639"><ele>343.2</ele><time>2026-04-04T10:13:41.596Z</time></trkpt><trkpt lat="44.089643" lon="10.3792456"><ele>345.59999999999997</ele><time>2026-04-04T10:13:42.593Z</time></trkpt><trkpt lat="44.0895557" lon="10.3791412"><ele>348.0</ele><time>2026-04-04T10:13:43.595Z</time></trkpt><trkpt lat="44.0894543" lon="10.3790568"><ele>348.0</ele><time>2026-04-04T10:13:44.594Z</time></trkpt><trkpt lat="44.0893476" lon="10.3789883"><ele>348.0</ele><time>2026-04-04T10:13:45.597Z</time></trkpt><trkpt lat="44.0892225" lon="10.3789333"><ele>348.0</ele><time>2026-04-04T10:13:46.596Z</time></trkpt><trkpt lat="44.0890798" lon="10.3788951"><ele>348.0</ele><time>2026-04-04T10:13:47.603Z</time></trkpt><trkpt lat="44.088923" lon="10.3788851"><ele>345.0</ele><time>2026-04-04T10:13:48.601Z</time></trkpt><trkpt lat="44.0887437" lon="10.3789004"><ele>342.0</ele><time>2026-04-04T10:13:49.605Z</time></trkpt><trkpt lat="44.088574" lon="10.3789032"><ele>339.0</ele><time>2026-04-04T10:13:50.591Z</time></trkpt><trkpt lat="44.0884302" lon="10.3788756"><ele>342.0</ele><time>2026-04-04T10:13:51.6Z</time></trkpt><trkpt lat="44.0883381" lon="10.3788174"><ele>345.0</ele><time>2026-04-04T10:13:52.607Z</time></trkpt><trkpt lat="44.0883023" lon="10.3787039"><ele>348.0</ele><time>2026-04-04T10:13:53.605Z</time></trkpt><trkpt lat="44.0882858" lon="10.3785586"><ele>351.0</ele><time>2026-04-04T10:13:54.599Z</time></trkpt><trkpt lat="44.0883156" lon="10.378424"><ele>354.0</ele><time>2026-04-04T10:13:55.601Z</time></trkpt><trkpt lat="44.0883685" lon="10.3782732"><ele>354.0</ele><time>2026-04-04T10:13:56.603Z</time></trkpt><trkpt lat="44.0884471" lon="10.3781204"><ele>354.0</ele><time>2026-04-04T10:13:57.604Z</time></trkpt><trkpt lat="44.0885493" lon="10.3779613"><ele>354.0</ele><time>2026-04-04T10:13:58.607Z</time></trkpt><trkpt lat="44.0886727" lon="10.3778113"><ele>354.6666666666667</ele><time>2026-04-04T10:13:59.602Z</time></trkpt><trkpt lat="44.0888106" lon="10.3776226"><ele>355.33333333333337</ele><time>2026-04-04T10:14:00.596Z</time></trkpt><trkpt lat="44.0889279" lon="10.3773934"><ele>356.0</ele><time>2026-04-04T10:14:01.6Z</time></trkpt><trkpt lat="44.0890253" lon="10.3771547"><ele>356.33333333333337</ele><time>2026-04-04T10:14:02.6Z</time></trkpt><trkpt lat="44.0891021" lon="10.3769265"><ele>356.6666666666667</ele><time>2026-04-04T10:14:03.609Z</time></trkpt><trkpt lat="44.0891703" lon="10.3767212"><ele>357.0</ele><time>2026-04-04T10:14:04.603Z</time></trkpt><trkpt lat="44.0892255" lon="10.3765623"><ele>357.0</ele><time>2026-04-04T10:14:05.606Z</time></trkpt><trkpt lat="44.0892652" lon="10.376461"><ele>357.0</ele><time>2026-04-04T10:14:06.609Z</time></trkpt><trkpt lat="44.0892703" lon="10.376365"><ele>357.0</ele><time>2026-04-04T10:14:07.606Z</time></trkpt><trkpt lat="44.0892951" lon="10.3762521"><ele>357.0</ele><time>2026-04-04T10:14:09.61Z</time></trkpt><trkpt lat="44.0893601" lon="10.3761653"><ele>357.0</ele><time>2026-04-04T10:14:31.614Z</time></trkpt><trkpt lat="44.0894206" lon="10.3761203"><ele>357.0</ele><time>2026-04-04T10:14:32.609Z</time></trkpt><trkpt lat="44.0895037" lon="10.3760603"><ele>357.8</ele><time>2026-04-04T10:14:33.602Z</time></trkpt><trkpt lat="44.0895606" lon="10.3759523"><ele>358.6</ele><time>2026-04-04T10:14:34.602Z</time></trkpt><trkpt lat="44.0896016" lon="10.3758335"><ele>359.40000000000003</ele><time>2026-04-04T10:14:35.586Z</time></trkpt><trkpt lat="44.0896146" lon="10.375709"><ele>360.20000000000005</ele><time>2026-04-04T10:14:36.601Z</time></trkpt><trkpt lat="44.0895988" lon="10.3755932"><ele>361.0</ele><time>2026-04-04T10:14:37.601Z</time></trkpt><trkpt lat="44.0895681" lon="10.3754844"><ele>361.0</ele><time>2026-04-04T10:14:38.596Z</time></trkpt><trkpt lat="44.0895284" lon="10.3753791"><ele>361.0</ele><time>2026-04-04T10:14:39.612Z</time></trkpt><trkpt lat="44.0894779" lon="10.3753017"><ele>361.0</ele><time>2026-04-04T10:14:40.612Z</time></trkpt><trkpt lat="44.0894141" lon="10.3752485"><ele>361.0</ele><time>2026-04-04T10:14:41.603Z</time></trkpt><trkpt lat="44.0893239" lon="10.3751976"><ele>361.0</ele><time>2026-04-04T10:14:42.612Z</time></trkpt><trkpt lat="44.0892167" lon="10.3751455"><ele>361.0</ele><time>2026-04-04T10:14:43.602Z</time></trkpt><trkpt lat="44.0890908" lon="10.3750868"><ele>357.0</ele><time>2026-04-04T10:14:44.608Z</time></trkpt><trkpt lat="44.0889265" lon="10.3750278"><ele>353.0</ele><time>2026-04-04T10:14:45.596Z</time></trkpt><trkpt lat="44.0887276" lon="10.3749605"><ele>349.0</ele><time>2026-04-04T10:14:46.604Z</time></trkpt><trkpt lat="44.0885343" lon="10.3749108"><ele>349.0</ele><time>2026-04-04T10:14:47.601Z</time></trkpt><trkpt lat="44.0883579" lon="10.3748537"><ele>349.0</ele><time>2026-04-04T10:14:48.592Z</time></trkpt><trkpt lat="44.088214" lon="10.3747716"><ele>349.0</ele><time>2026-04-04T10:14:49.603Z</time></trkpt><trkpt lat="44.0880957" lon="10.3746317"><ele>344.3333333333333</ele><time>2026-04-04T10:14:50.605Z</time></trkpt><trkpt lat="44.0880185" lon="10.3744835"><ele>339.6666666666667</ele><time>2026-04-04T10:14:51.608Z</time></trkpt><trkpt lat="44.0879737" lon="10.3742633"><ele>335.0</ele><time>2026-04-04T10:14:52.611Z</time></trkpt><trkpt lat="44.0878991" lon="10.3739628"><ele>337.5</ele><time>2026-04-04T10:14:53.602Z</time></trkpt><trkpt lat="44.0877987" lon="10.3736593"><ele>340.0</ele><time>2026-04-04T10:14:54.608Z</time></trkpt><trkpt lat="44.0877086" lon="10.3733777"><ele>340.0</ele><time>2026-04-04T10:14:55.607Z</time></trkpt><trkpt lat="44.0876224" lon="10.3731307"><ele>340.0</ele><time>2026-04-04T10:14:56.608Z</time></trkpt><trkpt lat="44.0875443" lon="10.372901"><ele>340.0</ele><time>2026-04-04T10:14:57.604Z</time></trkpt><trkpt lat="44.0874349" lon="10.3726856"><ele>342.0</ele><time>2026-04-04T10:14:58.606Z</time></trkpt><trkpt lat="44.0872961" lon="10.3724726"><ele>344.0</ele><time>2026-04-04T10:14:59.607Z</time></trkpt><trkpt lat="44.0871294" lon="10.3722552"><ele>346.0</ele><time>2026-04-04T10:15:00.611Z</time></trkpt><trkpt lat="44.0869619" lon="10.372037"><ele>346.3333333333333</ele><time>2026-04-04T10:15:01.606Z</time></trkpt><trkpt lat="44.0868049" lon="10.3718498"><ele>346.6666666666667</ele><time>2026-04-04T10:15:02.598Z</time></trkpt><trkpt lat="44.0866774" lon="10.3716862"><ele>347.0</ele><time>2026-04-04T10:15:03.612Z</time></trkpt><trkpt lat="44.0865755" lon="10.3715218"><ele>353.0</ele><time>2026-04-04T10:15:04.617Z</time></trkpt><trkpt lat="44.0865035" lon="10.3713454"><ele>359.0</ele><time>2026-04-04T10:15:05.612Z</time></trkpt><trkpt lat="44.0864607" lon="10.3711607"><ele>365.0</ele><time>2026-04-04T10:15:06.607Z</time></trkpt><trkpt lat="44.0863928" lon="10.3710032"><ele>371.0</ele><time>2026-04-04T10:15:07.6Z</time></trkpt><trkpt lat="44.0863185" lon="10.370896"><ele>371.0</ele><time>2026-04-04T10:15:08.602Z</time></trkpt><trkpt lat="44.0862082" lon="10.3708269"><ele>371.0</ele><time>2026-04-04T10:15:09.605Z</time></trkpt><trkpt lat="44.0860671" lon="10.3708193"><ele>371.0</ele><time>2026-04-04T10:15:10.599Z</time></trkpt><trkpt lat="44.0858693" lon="10.3708471"><ele>363.6666666666667</ele><time>2026-04-04T10:15:11.601Z</time></trkpt><trkpt lat="44.0856746" lon="10.3709089"><ele>356.3333333333333</ele><time>2026-04-04T10:15:12.589Z</time></trkpt><trkpt lat="44.0855182" lon="10.3709878"><ele>349.0</ele><time>2026-04-04T10:15:13.612Z</time></trkpt><trkpt lat="44.0853817" lon="10.3710274"><ele>349.0</ele><time>2026-04-04T10:15:14.598Z</time></trkpt><trkpt lat="44.0852482" lon="10.371029"><ele>349.0</ele><time>2026-04-04T10:15:15.606Z</time></trkpt><trkpt lat="44.085104" lon="10.3709825"><ele>349.0</ele><time>2026-04-04T10:15:16.608Z</time></trkpt><trkpt lat="44.0849617" lon="10.3709073"><ele>349.0</ele><time>2026-04-04T10:15:17.592Z</time></trkpt><trkpt lat="44.084843" lon="10.3708177"><ele>350.2</ele><time>2026-04-04T10:15:18.602Z</time></trkpt><trkpt lat="44.0847554" lon="10.3707065"><ele>351.4</ele><time>2026-04-04T10:15:19.604Z</time></trkpt><trkpt lat="44.0847236" lon="10.3705724"><ele>352.6</ele><time>2026-04-04T10:15:20.604Z</time></trkpt><trkpt lat="44.084748" lon="10.3704159"><ele>353.8</ele><time>2026-04-04T10:15:21.595Z</time></trkpt><trkpt lat="44.0848033" lon="10.370288"><ele>355.0</ele><time>2026-04-04T10:15:22.599Z</time></trkpt><trkpt lat="44.0848547" lon="10.3701611"><ele>355.0</ele><time>2026-04-04T10:15:23.594Z</time></trkpt><trkpt lat="44.0849225" lon="10.3700221"><ele>355.0</ele><time>2026-04-04T10:15:24.596Z</time></trkpt><trkpt lat="44.0849968" lon="10.3698795"><ele>355.0</ele><time>2026-04-04T10:15:25.601Z</time></trkpt><trkpt lat="44.0850679" lon="10.3697269"><ele>355.0</ele><time>2026-04-04T10:15:26.602Z</time></trkpt><trkpt lat="44.085106" lon="10.3695779"><ele>353.0</ele><time>2026-04-04T10:15:27.595Z</time></trkpt><trkpt lat="44.0850843" lon="10.369449"><ele>351.0</ele><time>2026-04-04T10:15:28.599Z</time></trkpt><trkpt lat="44.0849925" lon="10.3693281"><ele>349.0</ele><time>2026-04-04T10:15:29.603Z</time></trkpt><trkpt lat="44.0848442" lon="10.3691961"><ele>347.0</ele><time>2026-04-04T10:15:30.593Z</time></trkpt><trkpt lat="44.0846148" lon="10.3690142"><ele>347.0</ele><time>2026-04-04T10:15:31.593Z</time></trkpt><trkpt lat="44.0843763" lon="10.3688613"><ele>347.0</ele><time>2026-04-04T10:15:32.589Z</time></trkpt><trkpt lat="44.0841688" lon="10.3687322"><ele>350.0</ele><time>2026-04-04T10:15:33.584Z</time></trkpt><trkpt lat="44.0840107" lon="10.3686156"><ele>353.0</ele><time>2026-04-04T10:15:34.597Z</time></trkpt><trkpt lat="44.0838982" lon="10.3684919"><ele>356.0</ele><time>2026-04-04T10:15:35.585Z</time></trkpt><trkpt lat="44.0838021" lon="10.3683318"><ele>356.0</ele><time>2026-04-04T10:15:36.582Z</time></trkpt><trkpt lat="44.0837103" lon="10.3681428"><ele>356.0</ele><time>2026-04-04T10:15:37.595Z</time></trkpt><trkpt lat="44.0836414" lon="10.3679742"><ele>356.0</ele><time>2026-04-04T10:15:38.596Z</time></trkpt><trkpt lat="44.0836252" lon="10.3678326"><ele>356.0</ele><time>2026-04-04T10:15:39.604Z</time></trkpt><trkpt lat="44.0836488" lon="10.3676964"><ele>355.33333333333337</ele><time>2026-04-04T10:15:40.592Z</time></trkpt><trkpt lat="44.0837305" lon="10.3675398"><ele>354.6666666666667</ele><time>2026-04-04T10:15:41.603Z</time></trkpt><trkpt lat="44.0838391" lon="10.3673478"><ele>354.0</ele><time>2026-04-04T10:15:42.599Z</time></trkpt><trkpt lat="44.0839255" lon="10.3671085"><ele>354.0</ele><time>2026-04-04T10:15:43.599Z</time></trkpt><trkpt lat="44.0839911" lon="10.3668383"><ele>354.0</ele><time>2026-04-04T10:15:44.616Z</time></trkpt><trkpt lat="44.0840222" lon="10.3665896"><ele>354.0</ele><time>2026-04-04T10:15:45.598Z</time></trkpt><trkpt lat="44.0840173" lon="10.3663626"><ele>356.0</ele><time>2026-04-04T10:15:46.607Z</time></trkpt><trkpt lat="44.0839503" lon="10.3661617"><ele>358.0</ele><time>2026-04-04T10:15:47.603Z</time></trkpt><trkpt lat="44.0838573" lon="10.365959"><ele>360.0</ele><time>2026-04-04T10:15:48.609Z</time></trkpt><trkpt lat="44.0837881" lon="10.3658145"><ele>360.0</ele><time>2026-04-04T10:15:49.607Z</time></trkpt><trkpt lat="44.0837164" lon="10.3657403"><ele>360.0</ele><time>2026-04-04T10:15:50.607Z</time></trkpt><trkpt lat="44.0836004" lon="10.3657608"><ele>360.0</ele><time>2026-04-04T10:15:51.605Z</time></trkpt><trkpt lat="44.0834538" lon="10.3657937"><ele>360.0</ele><time>2026-04-04T10:15:52.61Z</time></trkpt><trkpt lat="44.08327" lon="10.3658211"><ele>360.3333333333333</ele><time>2026-04-04T10:15:53.604Z</time></trkpt><trkpt lat="44.0830683" lon="10.3658614"><ele>360.66666666666663</ele><time>2026-04-04T10:15:54.611Z</time></trkpt><trkpt lat="44.08285" lon="10.3658675"><ele>361.0</ele><time>2026-04-04T10:15:55.606Z</time></trkpt><trkpt lat="44.0826572" lon="10.3658676"><ele>361.0</ele><time>2026-04-04T10:15:56.601Z</time></trkpt><trkpt lat="44.0825083" lon="10.3658302"><ele>361.0</ele><time>2026-04-04T10:15:57.607Z</time></trkpt><trkpt lat="44.0823451" lon="10.3657522"><ele>361.0</ele><time>2026-04-04T10:15:58.601Z</time></trkpt><trkpt lat="44.082173" lon="10.3656244"><ele>365.0</ele><time>2026-04-04T10:15:59.605Z</time></trkpt><trkpt lat="44.0819977" lon="10.3655076"><ele>369.0</ele><time>2026-04-04T10:16:00.606Z</time></trkpt><trkpt lat="44.0817972" lon="10.3653869"><ele>373.0</ele><time>2026-04-04T10:16:01.589Z</time></trkpt><trkpt lat="44.081611" lon="10.3652618"><ele>368.3333333333333</ele><time>2026-04-04T10:16:02.594Z</time></trkpt><trkpt lat="44.0814584" lon="10.3651487"><ele>363.6666666666667</ele><time>2026-04-04T10:16:03.605Z</time></trkpt><trkpt lat="44.0813381" lon="10.3650133"><ele>359.0</ele><time>2026-04-04T10:16:04.603Z</time></trkpt><trkpt lat="44.0812281" lon="10.3648138"><ele>361.6666666666667</ele><time>2026-04-04T10:16:05.602Z</time></trkpt><trkpt lat="44.0811235" lon="10.364556"><ele>364.3333333333333</ele><time>2026-04-04T10:16:06.6Z</time></trkpt><trkpt lat="44.081016" lon="10.3642749"><ele>367.0</ele><time>2026-04-04T10:16:07.596Z</time></trkpt><trkpt lat="44.0809142" lon="10.3639854"><ele>367.0</ele><time>2026-04-04T10:16:08.599Z</time></trkpt><trkpt lat="44.0808323" lon="10.3636917"><ele>367.0</ele><time>2026-04-04T10:16:09.6Z</time></trkpt><trkpt lat="44.0807562" lon="10.3634216"><ele>367.0</ele><time>2026-04-04T10:16:10.602Z</time></trkpt><trkpt lat="44.0807035" lon="10.3631783"><ele>371.0</ele><time>2026-04-04T10:16:11.603Z</time></trkpt><trkpt lat="44.0806811" lon="10.3629403"><ele>375.0</ele><time>2026-04-04T10:16:12.606Z</time></trkpt><trkpt lat="44.0806836" lon="10.362664"><ele>379.0</ele><time>2026-04-04T10:16:13.612Z</time></trkpt><trkpt lat="44.0806931" lon="10.3623608"><ele>379.0</ele><time>2026-04-04T10:16:14.6Z</time></trkpt><trkpt lat="44.0806834" lon="10.3620359"><ele>379.0</ele><time>2026-04-04T10:16:15.632Z</time></trkpt><trkpt lat="44.0806806" lon="10.3616951"><ele>379.0</ele><time>2026-04-04T10:16:16.603Z</time></trkpt><trkpt lat="44.0806798" lon="10.3613704"><ele>379.0</ele><time>2026-04-04T10:16:17.606Z</time></trkpt><trkpt lat="44.0806637" lon="10.3610734"><ele>379.0</ele><time>2026-04-04T10:16:18.607Z</time></trkpt><trkpt lat="44.080666" lon="10.3608092"><ele>379.66666666666663</ele><time>2026-04-04T10:16:19.604Z</time></trkpt><trkpt lat="44.0806657" lon="10.3605552"><ele>380.3333333333333</ele><time>2026-04-04T10:16:20.599Z</time></trkpt><trkpt lat="44.0806812" lon="10.3603105"><ele>381.0</ele><time>2026-04-04T10:16:21.603Z</time></trkpt><trkpt lat="44.080705" lon="10.3600665"><ele>379.6666666666667</ele><time>2026-04-04T10:16:22.597Z</time></trkpt><trkpt lat="44.0807713" lon="10.3598751"><ele>378.33333333333337</ele><time>2026-04-04T10:16:23.605Z</time></trkpt><trkpt lat="44.0808764" lon="10.3596816"><ele>377.0</ele><time>2026-04-04T10:16:24.597Z</time></trkpt><trkpt lat="44.0809808" lon="10.3594727"><ele>376.6666666666667</ele><time>2026-04-04T10:16:25.598Z</time></trkpt><trkpt lat="44.0810929" lon="10.3592459"><ele>376.3333333333333</ele><time>2026-04-04T10:16:26.594Z</time></trkpt><trkpt lat="44.0811946" lon="10.3590341"><ele>376.0</ele><time>2026-04-04T10:16:27.595Z</time></trkpt><trkpt lat="44.0812928" lon="10.3588286"><ele>376.0</ele><time>2026-04-04T10:16:28.598Z</time></trkpt><trkpt lat="44.0813705" lon="10.3586261"><ele>376.0</ele><time>2026-04-04T10:16:29.589Z</time></trkpt><trkpt lat="44.0814087" lon="10.3584249"><ele>376.0</ele><time>2026-04-04T10:16:30.586Z</time></trkpt><trkpt lat="44.0813917" lon="10.3582051"><ele>378.3333333333333</ele><time>2026-04-04T10:16:31.59Z</time></trkpt><trkpt lat="44.0813351" lon="10.3579431"><ele>380.6666666666667</ele><time>2026-04-04T10:16:32.586Z</time></trkpt><trkpt lat="44.0812431" lon="10.3576676"><ele>383.0</ele><time>2026-04-04T10:16:33.589Z</time></trkpt><trkpt lat="44.0810679" lon="10.3573497"><ele>392.0</ele><time>2026-04-04T10:16:34.586Z</time></trkpt><trkpt lat="44.0809047" lon="10.3570159"><ele>401.0</ele><time>2026-04-04T10:16:35.59Z</time></trkpt><trkpt lat="44.0807512" lon="10.3567039"><ele>408.0</ele><time>2026-04-04T10:16:36.592Z</time></trkpt><trkpt lat="44.0806499" lon="10.3563974"><ele>415.0</ele><time>2026-04-04T10:16:37.59Z</time></trkpt><trkpt lat="44.0805839" lon="10.3561041"><ele>415.0</ele><time>2026-04-04T10:16:38.588Z</time></trkpt><trkpt lat="44.0805464" lon="10.355813"><ele>415.0</ele><time>2026-04-04T10:16:39.583Z</time></trkpt><trkpt lat="44.0805357" lon="10.3555175"><ele>415.0</ele><time>2026-04-04T10:16:40.595Z</time></trkpt><trkpt lat="44.080544" lon="10.3552527"><ele>408.0</ele><time>2026-04-04T10:16:41.593Z</time></trkpt><trkpt lat="44.0805539" lon="10.3550253"><ele>401.0</ele><time>2026-04-04T10:16:42.586Z</time></trkpt><trkpt lat="44.0805374" lon="10.3547762"><ele>394.0</ele><time>2026-04-04T10:16:43.598Z</time></trkpt><trkpt lat="44.0805158" lon="10.3545204"><ele>394.33333333333337</ele><time>2026-04-04T10:16:44.6Z</time></trkpt><trkpt lat="44.0804902" lon="10.3542508"><ele>394.66666666666663</ele><time>2026-04-04T10:16:45.604Z</time></trkpt><trkpt lat="44.0804411" lon="10.3539765"><ele>395.0</ele><time>2026-04-04T10:16:46.611Z</time></trkpt><trkpt lat="44.080305" lon="10.3536505"><ele>395.0</ele><time>2026-04-04T10:16:47.6Z</time></trkpt><trkpt lat="44.0801859" lon="10.3533825"><ele>395.0</ele><time>2026-04-04T10:16:48.604Z</time></trkpt><trkpt lat="44.0800704" lon="10.3531658"><ele>395.0</ele><time>2026-04-04T10:16:49.604Z</time></trkpt><trkpt lat="44.0799542" lon="10.3529852"><ele>395.66666666666663</ele><time>2026-04-04T10:16:50.606Z</time></trkpt><trkpt lat="44.0798147" lon="10.3528261"><ele>396.33333333333337</ele><time>2026-04-04T10:16:51.609Z</time></trkpt><trkpt lat="44.0796865" lon="10.3526993"><ele>397.0</ele><time>2026-04-04T10:16:52.621Z</time></trkpt><trkpt lat="44.07954" lon="10.3525941"><ele>397.0</ele><time>2026-04-04T10:16:53.61Z</time></trkpt><trkpt lat="44.0793873" lon="10.3525421"><ele>397.0</ele><time>2026-04-04T10:16:54.609Z</time></trkpt><trkpt lat="44.0791885" lon="10.352546"><ele>397.0</ele><time>2026-04-04T10:16:55.604Z</time></trkpt><trkpt lat="44.0789362" lon="10.3525626"><ele>390.5</ele><time>2026-04-04T10:16:56.613Z</time></trkpt><trkpt lat="44.0786855" lon="10.3525522"><ele>384.0</ele><time>2026-04-04T10:16:57.606Z</time></trkpt><trkpt lat="44.078472" lon="10.3525469"><ele>384.0</ele><time>2026-04-04T10:16:58.606Z</time></trkpt><trkpt lat="44.0782902" lon="10.3525242"><ele>384.0</ele><time>2026-04-04T10:16:59.597Z</time></trkpt><trkpt lat="44.0781381" lon="10.3525126"><ele>384.0</ele><time>2026-04-04T10:17:00.605Z</time></trkpt><trkpt lat="44.0780379" lon="10.3524844"><ele>384.0</ele><time>2026-04-04T10:17:01.596Z</time></trkpt><trkpt lat="44.0779554" lon="10.352354"><ele>386.33333333333337</ele><time>2026-04-04T10:17:02.599Z</time></trkpt><trkpt lat="44.0778423" lon="10.3521583"><ele>388.6666666666667</ele><time>2026-04-04T10:17:03.595Z</time></trkpt><trkpt lat="44.0777164" lon="10.3519734"><ele>391.0</ele><time>2026-04-04T10:17:04.595Z</time></trkpt><trkpt lat="44.0776184" lon="10.3518097"><ele>391.0</ele><time>2026-04-04T10:17:05.589Z</time></trkpt><trkpt lat="44.0774956" lon="10.3516766"><ele>391.0</ele><time>2026-04-04T10:17:06.599Z</time></trkpt><trkpt lat="44.0773584" lon="10.3515889"><ele>391.0</ele><time>2026-04-04T10:17:07.601Z</time></trkpt><trkpt lat="44.0771793" lon="10.3515526"><ele>389.25</ele><time>2026-04-04T10:17:08.597Z</time></trkpt><trkpt lat="44.0770401" lon="10.3514725"><ele>387.5</ele><time>2026-04-04T10:17:09.593Z</time></trkpt><trkpt lat="44.0769452" lon="10.3513696"><ele>385.75</ele><time>2026-04-04T10:17:10.599Z</time></trkpt><trkpt lat="44.0769263" lon="10.3512298"><ele>384.0</ele><time>2026-04-04T10:17:11.61Z</time></trkpt><trkpt lat="44.0769555" lon="10.3510809"><ele>384.0</ele><time>2026-04-04T10:17:12.607Z</time></trkpt><trkpt lat="44.0770578" lon="10.3508997"><ele>384.0</ele><time>2026-04-04T10:17:13.606Z</time></trkpt><trkpt lat="44.0771912" lon="10.3507062"><ele>384.0</ele><time>2026-04-04T10:17:14.602Z</time></trkpt><trkpt lat="44.0772873" lon="10.3504992"><ele>387.66666666666663</ele><time>2026-04-04T10:17:15.597Z</time></trkpt><trkpt lat="44.0773422" lon="10.3503051"><ele>391.3333333333333</ele><time>2026-04-04T10:17:16.602Z</time></trkpt><trkpt lat="44.077366" lon="10.3500893"><ele>395.0</ele><time>2026-04-04T10:17:17.603Z</time></trkpt><trkpt lat="44.0773346" lon="10.3498386"><ele>395.66666666666663</ele><time>2026-04-04T10:17:18.594Z</time></trkpt><trkpt lat="44.0773205" lon="10.3495971"><ele>396.33333333333337</ele><time>2026-04-04T10:17:19.595Z</time></trkpt><trkpt lat="44.0773627" lon="10.3493972"><ele>397.0</ele><time>2026-04-04T10:17:20.594Z</time></trkpt><trkpt lat="44.0774776" lon="10.34922"><ele>397.0</ele><time>2026-04-04T10:17:21.595Z</time></trkpt><trkpt lat="44.0776289" lon="10.3490239"><ele>397.0</ele><time>2026-04-04T10:17:22.597Z</time></trkpt><trkpt lat="44.0777641" lon="10.3488232"><ele>397.0</ele><time>2026-04-04T10:17:23.585Z</time></trkpt><trkpt lat="44.0778787" lon="10.3486197"><ele>395.33333333333337</ele><time>2026-04-04T10:17:24.59Z</time></trkpt><trkpt lat="44.0779556" lon="10.3483984"><ele>393.66666666666663</ele><time>2026-04-04T10:17:25.589Z</time></trkpt><trkpt lat="44.0779934" lon="10.3481554"><ele>392.0</ele><time>2026-04-04T10:17:26.591Z</time></trkpt><trkpt lat="44.07798" lon="10.3478825"><ele>391.3333333333333</ele><time>2026-04-04T10:17:27.587Z</time></trkpt><trkpt lat="44.0779394" lon="10.3476302"><ele>390.66666666666663</ele><time>2026-04-04T10:17:28.604Z</time></trkpt><trkpt lat="44.077851" lon="10.3474011"><ele>390.0</ele><time>2026-04-04T10:17:29.608Z</time></trkpt><trkpt lat="44.0777061" lon="10.3471282"><ele>392.66666666666663</ele><time>2026-04-04T10:17:30.607Z</time></trkpt><trkpt lat="44.0775641" lon="10.3468743"><ele>395.3333333333333</ele><time>2026-04-04T10:17:31.6Z</time></trkpt><trkpt lat="44.0774245" lon="10.3466552"><ele>398.0</ele><time>2026-04-04T10:17:32.603Z</time></trkpt><trkpt lat="44.0772505" lon="10.3464885"><ele>397.66666666666663</ele><time>2026-04-04T10:17:33.597Z</time></trkpt><trkpt lat="44.0770613" lon="10.3463563"><ele>397.33333333333337</ele><time>2026-04-04T10:17:34.601Z</time></trkpt><trkpt lat="44.0769304" lon="10.3462206"><ele>397.0</ele><time>2026-04-04T10:17:35.598Z</time></trkpt><trkpt lat="44.076843" lon="10.3460725"><ele>397.0</ele><time>2026-04-04T10:17:36.602Z</time></trkpt><trkpt lat="44.0768302" lon="10.3458875"><ele>397.0</ele><time>2026-04-04T10:17:37.592Z</time></trkpt><trkpt lat="44.0768737" lon="10.3456833"><ele>397.0</ele><time>2026-04-04T10:17:38.596Z</time></trkpt><trkpt lat="44.07695" lon="10.3454463"><ele>396.33333333333337</ele><time>2026-04-04T10:17:39.6Z</time></trkpt><trkpt lat="44.0770611" lon="10.3451958"><ele>395.66666666666663</ele><time>2026-04-04T10:17:40.589Z</time></trkpt><trkpt lat="44.0771958" lon="10.3449995"><ele>395.0</ele><time>2026-04-04T10:17:41.6Z</time></trkpt><trkpt lat="44.077278" lon="10.3448073"><ele>395.0</ele><time>2026-04-04T10:17:42.595Z</time></trkpt><trkpt lat="44.0773356" lon="10.3446104"><ele>395.0</ele><time>2026-04-04T10:17:43.597Z</time></trkpt><trkpt lat="44.0773652" lon="10.3444223"><ele>395.0</ele><time>2026-04-04T10:17:44.595Z</time></trkpt><trkpt lat="44.0773167" lon="10.3442491"><ele>395.0</ele><time>2026-04-04T10:17:45.596Z</time></trkpt><trkpt lat="44.0771916" lon="10.3440976"><ele>395.0</ele><time>2026-04-04T10:17:46.596Z</time></trkpt><trkpt lat="44.0771045" lon="10.3439254"><ele>395.0</ele><time>2026-04-04T10:17:47.61Z</time></trkpt><trkpt lat="44.0768586" lon="10.343813"><ele>395.0</ele><time>2026-04-04T10:17:48.589Z</time></trkpt><trkpt lat="44.0766195" lon="10.3437639"><ele>411.5</ele><time>2026-04-04T10:17:49.592Z</time></trkpt><trkpt lat="44.0763788" lon="10.3437884"><ele>428.0</ele><time>2026-04-04T10:17:50.58Z</time></trkpt><trkpt lat="44.0761076" lon="10.3438593"><ele>422.66666666666663</ele><time>2026-04-04T10:17:51.594Z</time></trkpt><trkpt lat="44.0758813" lon="10.3438803"><ele>417.33333333333337</ele><time>2026-04-04T10:17:52.602Z</time></trkpt><trkpt lat="44.0756929" lon="10.3439562"><ele>412.0</ele><time>2026-04-04T10:17:53.594Z</time></trkpt><trkpt lat="44.0755262" lon="10.3441185"><ele>412.0</ele><time>2026-04-04T10:17:54.595Z</time></trkpt><trkpt lat="44.075332" lon="10.3442876"><ele>412.0</ele><time>2026-04-04T10:17:55.589Z</time></trkpt><trkpt lat="44.0751658" lon="10.3444012"><ele>412.0</ele><time>2026-04-04T10:17:56.596Z</time></trkpt><trkpt lat="44.0750099" lon="10.3444737"><ele>423.0</ele><time>2026-04-04T10:17:57.582Z</time></trkpt><trkpt lat="44.0748469" lon="10.344472"><ele>434.0</ele><time>2026-04-04T10:17:58.596Z</time></trkpt><trkpt lat="44.0746822" lon="10.3444257"><ele>445.0</ele><time>2026-04-04T10:17:59.588Z</time></trkpt><trkpt lat="44.0745332" lon="10.3443302"><ele>445.0</ele><time>2026-04-04T10:18:00.6Z</time></trkpt><trkpt lat="44.0744424" lon="10.3442017"><ele>445.0</ele><time>2026-04-04T10:18:01.601Z</time></trkpt><trkpt lat="44.0743862" lon="10.3440297"><ele>445.0</ele><time>2026-04-04T10:18:02.601Z</time></trkpt><trkpt lat="44.0743907" lon="10.3438491"><ele>445.0</ele><time>2026-04-04T10:18:03.598Z</time></trkpt><trkpt lat="44.074452" lon="10.34365"><ele>437.6666666666667</ele><time>2026-04-04T10:18:04.601Z</time></trkpt><trkpt lat="44.0745474" lon="10.3434586"><ele>430.33333333333337</ele><time>2026-04-04T10:18:05.595Z</time></trkpt><trkpt lat="44.0746569" lon="10.3432475"><ele>423.0</ele><time>2026-04-04T10:18:06.597Z</time></trkpt><trkpt lat="44.0747992" lon="10.342976"><ele>420.5</ele><time>2026-04-04T10:18:07.589Z</time></trkpt><trkpt lat="44.0749492" lon="10.3426843"><ele>418.0</ele><time>2026-04-04T10:18:08.602Z</time></trkpt><trkpt lat="44.0750717" lon="10.3424472"><ele>418.0</ele><time>2026-04-04T10:18:09.6Z</time></trkpt><trkpt lat="44.0751872" lon="10.3422771"><ele>418.0</ele><time>2026-04-04T10:18:10.597Z</time></trkpt><trkpt lat="44.0753033" lon="10.3421152"><ele>418.0</ele><time>2026-04-04T10:18:11.594Z</time></trkpt><trkpt lat="44.0753993" lon="10.3419483"><ele>419.0</ele><time>2026-04-04T10:18:12.598Z</time></trkpt><trkpt lat="44.0754641" lon="10.3417402"><ele>420.0</ele><time>2026-04-04T10:18:13.598Z</time></trkpt><trkpt lat="44.0754828" lon="10.3415294"><ele>421.0</ele><time>2026-04-04T10:18:14.597Z</time></trkpt><trkpt lat="44.0754583" lon="10.3413691"><ele>422.0</ele><time>2026-04-04T10:18:15.585Z</time></trkpt><trkpt lat="44.0754102" lon="10.3411919"><ele>422.0</ele><time>2026-04-04T10:18:16.596Z</time></trkpt><trkpt lat="44.0753021" lon="10.3409924"><ele>422.0</ele><time>2026-04-04T10:18:17.608Z</time></trkpt><trkpt lat="44.0751721" lon="10.3408348"><ele>422.0</ele><time>2026-04-04T10:18:18.606Z</time></trkpt><trkpt lat="44.0750038" lon="10.3407017"><ele>420.3333333333333</ele><time>2026-04-04T10:18:19.599Z</time></trkpt><trkpt lat="44.0747922" lon="10.3406696"><ele>418.66666666666663</ele><time>2026-04-04T10:18:20.597Z</time></trkpt><trkpt lat="44.074561" lon="10.3407078"><ele>417.0</ele><time>2026-04-04T10:18:21.59Z</time></trkpt><trkpt lat="44.0743118" lon="10.3408044"><ele>421.5</ele><time>2026-04-04T10:18:22.597Z</time></trkpt><trkpt lat="44.0740848" lon="10.3409623"><ele>426.0</ele><time>2026-04-04T10:18:23.596Z</time></trkpt><trkpt lat="44.0738718" lon="10.3411588"><ele>426.0</ele><time>2026-04-04T10:18:24.589Z</time></trkpt><trkpt lat="44.0736986" lon="10.3413248"><ele>426.0</ele><time>2026-04-04T10:18:25.598Z</time></trkpt><trkpt lat="44.0735482" lon="10.3414235"><ele>426.0</ele><time>2026-04-04T10:18:26.601Z</time></trkpt><trkpt lat="44.0734017" lon="10.3414713"><ele>427.66666666666663</ele><time>2026-04-04T10:18:27.605Z</time></trkpt><trkpt lat="44.0732631" lon="10.3414271"><ele>429.3333333333333</ele><time>2026-04-04T10:18:28.608Z</time></trkpt><trkpt lat="44.0731021" lon="10.3412958"><ele>431.0</ele><time>2026-04-04T10:18:29.609Z</time></trkpt><trkpt lat="44.0729268" lon="10.3411352"><ele>425.3333333333333</ele><time>2026-04-04T10:18:30.6Z</time></trkpt><trkpt lat="44.0728027" lon="10.3409603"><ele>419.66666666666663</ele><time>2026-04-04T10:18:31.602Z</time></trkpt><trkpt lat="44.0726987" lon="10.3407479"><ele>414.0</ele><time>2026-04-04T10:18:32.601Z</time></trkpt><trkpt lat="44.0726289" lon="10.3404089"><ele>414.0</ele><time>2026-04-04T10:18:33.597Z</time></trkpt><trkpt lat="44.0725483" lon="10.3400266"><ele>414.0</ele><time>2026-04-04T10:18:34.606Z</time></trkpt><trkpt lat="44.0724749" lon="10.339691"><ele>420.66666666666663</ele><time>2026-04-04T10:18:35.599Z</time></trkpt><trkpt lat="44.0723924" lon="10.3394286"><ele>427.3333333333333</ele><time>2026-04-04T10:18:36.6Z</time></trkpt><trkpt lat="44.0723145" lon="10.3391821"><ele>434.0</ele><time>2026-04-04T10:18:37.599Z</time></trkpt><trkpt lat="44.0723052" lon="10.3389483"><ele>436.66666666666663</ele><time>2026-04-04T10:18:38.6Z</time></trkpt><trkpt lat="44.0723563" lon="10.3387195"><ele>439.33333333333337</ele><time>2026-04-04T10:18:39.618Z</time></trkpt><trkpt lat="44.0724305" lon="10.3384581"><ele>442.0</ele><time>2026-04-04T10:18:40.59Z</time></trkpt><trkpt lat="44.0725161" lon="10.3381608"><ele>435.6666666666667</ele><time>2026-04-04T10:18:41.598Z</time></trkpt><trkpt lat="44.0725973" lon="10.3379071"><ele>429.33333333333337</ele><time>2026-04-04T10:18:42.599Z</time></trkpt><trkpt lat="44.0726684" lon="10.3376629"><ele>423.0</ele><time>2026-04-04T10:18:43.602Z</time></trkpt><trkpt lat="44.0727108" lon="10.3374448"><ele>423.0</ele><time>2026-04-04T10:18:44.6Z</time></trkpt><trkpt lat="44.0727173" lon="10.3372349"><ele>423.0</ele><time>2026-04-04T10:18:45.599Z</time></trkpt><trkpt lat="44.0727018" lon="10.3370434"><ele>423.0</ele><time>2026-04-04T10:18:46.605Z</time></trkpt><trkpt lat="44.0726809" lon="10.3368455"><ele>423.0</ele><time>2026-04-04T10:18:47.599Z</time></trkpt><trkpt lat="44.0726568" lon="10.3366545"><ele>422.75</ele><time>2026-04-04T10:18:48.605Z</time></trkpt><trkpt lat="44.0726312" lon="10.3364741"><ele>422.5</ele><time>2026-04-04T10:18:49.617Z</time></trkpt><trkpt lat="44.0725917" lon="10.3363218"><ele>422.25</ele><time>2026-04-04T10:18:50.605Z</time></trkpt><trkpt lat="44.0725463" lon="10.336183"><ele>422.0</ele><time>2026-04-04T10:18:51.6Z</time></trkpt><trkpt lat="44.0724808" lon="10.3360642"><ele>418.8</ele><time>2026-04-04T10:18:52.603Z</time></trkpt><trkpt lat="44.0724156" lon="10.335951"><ele>415.6</ele><time>2026-04-04T10:18:53.612Z</time></trkpt><trkpt lat="44.0723428" lon="10.3358384"><ele>412.40000000000003</ele><time>2026-04-04T10:18:54.609Z</time></trkpt><trkpt lat="44.0722583" lon="10.3357547"><ele>409.20000000000005</ele><time>2026-04-04T10:18:55.6Z</time></trkpt><trkpt lat="44.0721616" lon="10.3356912"><ele>406.0</ele><time>2026-04-04T10:18:56.603Z</time></trkpt><trkpt lat="44.0720821" lon="10.3356246"><ele>406.00000000000006</ele><time>2026-04-04T10:18:57.608Z</time></trkpt><trkpt lat="44.0720023" lon="10.3355651"><ele>406.0</ele><time>2026-04-04T10:18:58.615Z</time></trkpt><trkpt lat="44.0719235" lon="10.3355014"><ele>406.0</ele><time>2026-04-04T10:18:59.614Z</time></trkpt><trkpt lat="44.071842" lon="10.3354427"><ele>406.0</ele><time>2026-04-04T10:19:00.611Z</time></trkpt><trkpt lat="44.0717624" lon="10.3353861"><ele>406.00000000000006</ele><time>2026-04-04T10:19:01.6Z</time></trkpt><trkpt lat="44.0716849" lon="10.3353386"><ele>406.0</ele><time>2026-04-04T10:19:02.602Z</time></trkpt><trkpt lat="44.0716107" lon="10.3352979"><ele>409.6</ele><time>2026-04-04T10:19:03.594Z</time></trkpt><trkpt lat="44.0715293" lon="10.3352668"><ele>413.20000000000005</ele><time>2026-04-04T10:19:04.594Z</time></trkpt><trkpt lat="44.0714513" lon="10.335252"><ele>416.79999999999995</ele><time>2026-04-04T10:19:05.592Z</time></trkpt><trkpt lat="44.0713613" lon="10.3352365"><ele>420.4</ele><time>2026-04-04T10:19:06.6Z</time></trkpt><trkpt lat="44.0712631" lon="10.3352417"><ele>424.0</ele><time>2026-04-04T10:19:07.599Z</time></trkpt><trkpt lat="44.0711537" lon="10.3352489"><ele>424.0</ele><time>2026-04-04T10:19:08.599Z</time></trkpt><trkpt lat="44.0710478" lon="10.3352611"><ele>424.0</ele><time>2026-04-04T10:19:09.6Z</time></trkpt><trkpt lat="44.070947" lon="10.3352673"><ele>424.0</ele><time>2026-04-04T10:19:10.594Z</time></trkpt><trkpt lat="44.0708544" lon="10.3352796"><ele>424.0</ele><time>2026-04-04T10:19:11.604Z</time></trkpt><trkpt lat="44.0707725" lon="10.3352857"><ele>424.0</ele><time>2026-04-04T10:19:12.606Z</time></trkpt><trkpt lat="44.070696" lon="10.3352644"><ele>424.50000000000006</ele><time>2026-04-04T10:19:13.601Z</time></trkpt><trkpt lat="44.0706333" lon="10.3352246"><ele>425.0</ele><time>2026-04-04T10:19:14.605Z</time></trkpt><trkpt lat="44.0705761" lon="10.3351577"><ele>425.5</ele><time>2026-04-04T10:19:15.607Z</time></trkpt><trkpt lat="44.0705337" lon="10.3350733"><ele>426.0</ele><time>2026-04-04T10:19:16.611Z</time></trkpt><trkpt lat="44.0705023" lon="10.3349717"><ele>426.50000000000006</ele><time>2026-04-04T10:19:17.606Z</time></trkpt><trkpt lat="44.0704736" lon="10.3348591"><ele>427.0</ele><time>2026-04-04T10:19:18.605Z</time></trkpt><trkpt lat="44.0704552" lon="10.334727"><ele>427.20000000000005</ele><time>2026-04-04T10:19:19.606Z</time></trkpt><trkpt lat="44.0704345" lon="10.3345857"><ele>427.40000000000003</ele><time>2026-04-04T10:19:20.617Z</time></trkpt><trkpt lat="44.0704169" lon="10.3344366"><ele>427.59999999999997</ele><time>2026-04-04T10:19:21.604Z</time></trkpt><trkpt lat="44.0704032" lon="10.3342826"><ele>427.79999999999995</ele><time>2026-04-04T10:19:22.608Z</time></trkpt><trkpt lat="44.0703815" lon="10.3341224"><ele>428.0</ele><time>2026-04-04T10:19:23.591Z</time></trkpt><trkpt lat="44.0703554" lon="10.3339526"><ele>431.0</ele><time>2026-04-04T10:19:24.596Z</time></trkpt><trkpt lat="44.0703259" lon="10.3337825"><ele>434.0</ele><time>2026-04-04T10:19:25.593Z</time></trkpt><trkpt lat="44.0702936" lon="10.3336098"><ele>437.0</ele><time>2026-04-04T10:19:26.594Z</time></trkpt><trkpt lat="44.0702555" lon="10.3334315"><ele>440.0</ele><time>2026-04-04T10:19:27.59Z</time></trkpt><trkpt lat="44.0702157" lon="10.3332439"><ele>438.3333333333333</ele><time>2026-04-04T10:19:28.597Z</time></trkpt><trkpt lat="44.0701877" lon="10.3330464"><ele>436.66666666666663</ele><time>2026-04-04T10:19:29.597Z</time></trkpt><trkpt lat="44.0701612" lon="10.3328339"><ele>435.0</ele><time>2026-04-04T10:19:30.599Z</time></trkpt><trkpt lat="44.070136" lon="10.3325503"><ele>439.0</ele><time>2026-04-04T10:19:31.595Z</time></trkpt><trkpt lat="44.0701209" lon="10.3321842"><ele>443.0</ele><time>2026-04-04T10:19:32.587Z</time></trkpt><trkpt lat="44.0701035" lon="10.331839"><ele>443.0</ele><time>2026-04-04T10:19:33.594Z</time></trkpt><trkpt lat="44.0700735" lon="10.3315538"><ele>443.0</ele><time>2026-04-04T10:19:34.596Z</time></trkpt><trkpt lat="44.0700111" lon="10.3313013"><ele>443.0</ele><time>2026-04-04T10:19:35.602Z</time></trkpt><trkpt lat="44.0699171" lon="10.3310824"><ele>442.0</ele><time>2026-04-04T10:19:36.605Z</time></trkpt><trkpt lat="44.0697549" lon="10.3309023"><ele>441.0</ele><time>2026-04-04T10:19:37.601Z</time></trkpt><trkpt lat="44.0695367" lon="10.3307561"><ele>441.0</ele><time>2026-04-04T10:19:38.595Z</time></trkpt><trkpt lat="44.0693092" lon="10.3306065"><ele>441.0</ele><time>2026-04-04T10:19:39.597Z</time></trkpt><trkpt lat="44.0691034" lon="10.3304754"><ele>440.66666666666663</ele><time>2026-04-04T10:19:40.594Z</time></trkpt><trkpt lat="44.0689232" lon="10.3303268"><ele>440.3333333333333</ele><time>2026-04-04T10:19:41.599Z</time></trkpt><trkpt lat="44.0687533" lon="10.3301273"><ele>440.0</ele><time>2026-04-04T10:19:42.596Z</time></trkpt><trkpt lat="44.0685915" lon="10.3299056"><ele>442.0</ele><time>2026-04-04T10:19:43.602Z</time></trkpt><trkpt lat="44.0684223" lon="10.3297115"><ele>444.0</ele><time>2026-04-04T10:19:44.603Z</time></trkpt><trkpt lat="44.0682491" lon="10.3295517"><ele>446.0</ele><time>2026-04-04T10:19:45.606Z</time></trkpt><trkpt lat="44.0680926" lon="10.3294326"><ele>446.0</ele><time>2026-04-04T10:19:46.605Z</time></trkpt><trkpt lat="44.0679436" lon="10.3293429"><ele>446.0</ele><time>2026-04-04T10:19:47.607Z</time></trkpt><trkpt lat="44.0678246" lon="10.3292174"><ele>446.0</ele><time>2026-04-04T10:19:48.599Z</time></trkpt><trkpt lat="44.0677229" lon="10.3290173"><ele>451.66666666666663</ele><time>2026-04-04T10:19:49.608Z</time></trkpt><trkpt lat="44.0676374" lon="10.3287573"><ele>457.33333333333337</ele><time>2026-04-04T10:19:50.596Z</time></trkpt><trkpt lat="44.0675827" lon="10.32853"><ele>463.0</ele><time>2026-04-04T10:19:51.618Z</time></trkpt><trkpt lat="44.0675734" lon="10.32835"><ele>463.0</ele><time>2026-04-04T10:19:52.614Z</time></trkpt><trkpt lat="44.0676374" lon="10.3282484"><ele>463.0</ele><time>2026-04-04T10:19:53.598Z</time></trkpt><trkpt lat="44.0677285" lon="10.3281828"><ele>463.0</ele><time>2026-04-04T10:19:54.595Z</time></trkpt><trkpt lat="44.0678605" lon="10.3281801"><ele>463.0</ele><time>2026-04-04T10:19:55.602Z</time></trkpt><trkpt lat="44.0680232" lon="10.3282175"><ele>463.0</ele><time>2026-04-04T10:19:56.581Z</time></trkpt><trkpt lat="44.0682104" lon="10.3282732"><ele>463.0</ele><time>2026-04-04T10:19:57.589Z</time></trkpt><trkpt lat="44.0683834" lon="10.3283135"><ele>463.0</ele><time>2026-04-04T10:19:58.595Z</time></trkpt><trkpt lat="44.0685619" lon="10.328303"><ele>470.33333333333337</ele><time>2026-04-04T10:19:59.581Z</time></trkpt><trkpt lat="44.0687452" lon="10.3282421"><ele>477.66666666666663</ele><time>2026-04-04T10:20:00.588Z</time></trkpt><trkpt lat="44.0688918" lon="10.3281114"><ele>485.0</ele><time>2026-04-04T10:20:01.585Z</time></trkpt><trkpt lat="44.0690151" lon="10.3279718"><ele>485.0</ele><time>2026-04-04T10:20:02.589Z</time></trkpt><trkpt lat="44.0691003" lon="10.3277884"><ele>485.0</ele><time>2026-04-04T10:20:03.582Z</time></trkpt><trkpt lat="44.0691831" lon="10.3275697"><ele>485.0</ele><time>2026-04-04T10:20:04.589Z</time></trkpt><trkpt lat="44.0692524" lon="10.3273553"><ele>486.3333333333333</ele><time>2026-04-04T10:20:05.576Z</time></trkpt><trkpt lat="44.0692645" lon="10.3271423"><ele>487.66666666666663</ele><time>2026-04-04T10:20:06.573Z</time></trkpt><trkpt lat="44.0692005" lon="10.3269191"><ele>489.0</ele><time>2026-04-04T10:20:07.59Z</time></trkpt><trkpt lat="44.0690863" lon="10.3266065"><ele>490.0</ele><time>2026-04-04T10:20:08.587Z</time></trkpt><trkpt lat="44.0689883" lon="10.3263376"><ele>491.0</ele><time>2026-04-04T10:20:09.581Z</time></trkpt><trkpt lat="44.0688988" lon="10.3261595"><ele>492.0</ele><time>2026-04-04T10:20:10.583Z</time></trkpt><trkpt lat="44.0688245" lon="10.3259972"><ele>492.0</ele><time>2026-04-04T10:20:11.585Z</time></trkpt><trkpt lat="44.0688042" lon="10.3258145"><ele>492.0</ele><time>2026-04-04T10:20:12.593Z</time></trkpt><trkpt lat="44.0688102" lon="10.325607"><ele>492.0</ele><time>2026-04-04T10:20:13.591Z</time></trkpt><trkpt lat="44.0688445" lon="10.3253858"><ele>492.0</ele><time>2026-04-04T10:20:14.596Z</time></trkpt><trkpt lat="44.0688504" lon="10.3251756"><ele>490.0</ele><time>2026-04-04T10:20:15.601Z</time></trkpt><trkpt lat="44.0688163" lon="10.3249924"><ele>488.0</ele><time>2026-04-04T10:20:16.604Z</time></trkpt><trkpt lat="44.068728" lon="10.324751"><ele>486.0</ele><time>2026-04-04T10:20:17.6Z</time></trkpt><trkpt lat="44.0686325" lon="10.324531"><ele>494.0</ele><time>2026-04-04T10:20:18.599Z</time></trkpt><trkpt lat="44.0684875" lon="10.3242887"><ele>502.0</ele><time>2026-04-04T10:20:19.598Z</time></trkpt><trkpt lat="44.0683074" lon="10.3240561"><ele>510.6666666666667</ele><time>2026-04-04T10:20:20.603Z</time></trkpt><trkpt lat="44.0681613" lon="10.3238255"><ele>519.3333333333334</ele><time>2026-04-04T10:20:21.587Z</time></trkpt><trkpt lat="44.0680276" lon="10.3236324"><ele>528.0</ele><time>2026-04-04T10:20:22.613Z</time></trkpt><trkpt lat="44.0679415" lon="10.3234938"><ele>528.0</ele><time>2026-04-04T10:20:23.604Z</time></trkpt><trkpt lat="44.0678295" lon="10.3233963"><ele>528.0</ele><time>2026-04-04T10:20:24.6Z</time></trkpt><trkpt lat="44.067702" lon="10.3234155"><ele>528.0</ele><time>2026-04-04T10:20:25.602Z</time></trkpt><trkpt lat="44.0675091" lon="10.3234992"><ele>525.3333333333334</ele><time>2026-04-04T10:20:26.593Z</time></trkpt><trkpt lat="44.0673063" lon="10.3235665"><ele>522.6666666666667</ele><time>2026-04-04T10:20:27.591Z</time></trkpt><trkpt lat="44.0671068" lon="10.3235739"><ele>520.0</ele><time>2026-04-04T10:20:28.601Z</time></trkpt><trkpt lat="44.0669081" lon="10.3235851"><ele>520.0</ele><time>2026-04-04T10:20:29.615Z</time></trkpt><trkpt lat="44.0667136" lon="10.3235615"><ele>520.0</ele><time>2026-04-04T10:20:30.598Z</time></trkpt><trkpt lat="44.0665198" lon="10.3235219"><ele>520.0</ele><time>2026-04-04T10:20:31.597Z</time></trkpt><trkpt lat="44.066319" lon="10.323418"><ele>520.0</ele><time>2026-04-04T10:20:32.599Z</time></trkpt><trkpt lat="44.0661377" lon="10.3232719"><ele>520.0</ele><time>2026-04-04T10:20:33.601Z</time></trkpt><trkpt lat="44.065993" lon="10.3230862"><ele>520.0</ele><time>2026-04-04T10:20:34.596Z</time></trkpt><trkpt lat="44.065887" lon="10.3228609"><ele>520.0</ele><time>2026-04-04T10:20:35.602Z</time></trkpt><trkpt lat="44.0658076" lon="10.3226398"><ele>520.0</ele><time>2026-04-04T10:20:36.599Z</time></trkpt><trkpt lat="44.065751" lon="10.3224323"><ele>520.0</ele><time>2026-04-04T10:20:37.597Z</time></trkpt><trkpt lat="44.0657555" lon="10.3222069"><ele>524.3333333333334</ele><time>2026-04-04T10:20:38.589Z</time></trkpt><trkpt lat="44.0657495" lon="10.3219756"><ele>528.6666666666666</ele><time>2026-04-04T10:20:39.589Z</time></trkpt><trkpt lat="44.0657159" lon="10.3217482"><ele>533.0</ele><time>2026-04-04T10:20:40.587Z</time></trkpt><trkpt lat="44.0656723" lon="10.3215319"><ele>530.6666666666666</ele><time>2026-04-04T10:20:41.57Z</time></trkpt><trkpt lat="44.0656098" lon="10.3213253"><ele>528.3333333333334</ele><time>2026-04-04T10:20:42.58Z</time></trkpt><trkpt lat="44.0655003" lon="10.3211584"><ele>526.0</ele><time>2026-04-04T10:20:43.564Z</time></trkpt><trkpt lat="44.0654478" lon="10.3209469"><ele>526.0</ele><time>2026-04-04T10:20:44.558Z</time></trkpt><trkpt lat="44.0652495" lon="10.3207945"><ele>526.0</ele><time>2026-04-04T10:20:45.567Z</time></trkpt><trkpt lat="44.0651103" lon="10.3208226"><ele>526.0</ele><time>2026-04-04T10:20:46.583Z</time></trkpt><trkpt lat="44.0651244" lon="10.320658"><ele>529.0</ele><time>2026-04-04T10:20:47.586Z</time></trkpt><trkpt lat="44.0651631" lon="10.3204542"><ele>532.0</ele><time>2026-04-04T10:20:48.589Z</time></trkpt><trkpt lat="44.0651508" lon="10.320166"><ele>535.0</ele><time>2026-04-04T10:20:49.602Z</time></trkpt><trkpt lat="44.0650921" lon="10.3198309"><ele>536.5</ele><time>2026-04-04T10:20:50.594Z</time></trkpt><trkpt lat="44.0650508" lon="10.3195063"><ele>538.0</ele><time>2026-04-04T10:20:51.59Z</time></trkpt><trkpt lat="44.0650539" lon="10.3191835"><ele>536.0</ele><time>2026-04-04T10:20:52.594Z</time></trkpt><trkpt lat="44.065047" lon="10.3188986"><ele>534.0</ele><time>2026-04-04T10:20:53.62Z</time></trkpt><trkpt lat="44.065055" lon="10.3186365"><ele>532.0</ele><time>2026-04-04T10:20:54.59Z</time></trkpt><trkpt lat="44.0650527" lon="10.3184688"><ele>532.0</ele><time>2026-04-04T10:20:55.584Z</time></trkpt><trkpt lat="44.0651012" lon="10.3182945"><ele>532.0</ele><time>2026-04-04T10:20:56.579Z</time></trkpt><trkpt lat="44.0651784" lon="10.3180947"><ele>532.0</ele><time>2026-04-04T10:20:57.581Z</time></trkpt><trkpt lat="44.0652807" lon="10.3178885"><ele>531.3333333333334</ele><time>2026-04-04T10:20:58.584Z</time></trkpt><trkpt lat="44.0653303" lon="10.3176314"><ele>530.6666666666666</ele><time>2026-04-04T10:20:59.583Z</time></trkpt><trkpt lat="44.0653766" lon="10.317321"><ele>530.0</ele><time>2026-04-04T10:21:00.582Z</time></trkpt><trkpt lat="44.0653948" lon="10.3170524"><ele>529.3333333333333</ele><time>2026-04-04T10:21:01.595Z</time></trkpt><trkpt lat="44.0654592" lon="10.316795"><ele>528.6666666666666</ele><time>2026-04-04T10:21:02.598Z</time></trkpt><trkpt lat="44.0655487" lon="10.3165829"><ele>528.0</ele><time>2026-04-04T10:21:03.595Z</time></trkpt><trkpt lat="44.0656864" lon="10.3164067"><ele>529.0</ele><time>2026-04-04T10:21:04.601Z</time></trkpt><trkpt lat="44.0658536" lon="10.3162615"><ele>530.0</ele><time>2026-04-04T10:21:05.591Z</time></trkpt><trkpt lat="44.0660177" lon="10.3160724"><ele>531.0</ele><time>2026-04-04T10:21:06.596Z</time></trkpt><trkpt lat="44.0661795" lon="10.3158899"><ele>531.0</ele><time>2026-04-04T10:21:07.603Z</time></trkpt><trkpt lat="44.0662908" lon="10.3156485"><ele>531.0</ele><time>2026-04-04T10:21:08.598Z</time></trkpt><trkpt lat="44.0663833" lon="10.3154394"><ele>531.0</ele><time>2026-04-04T10:21:09.61Z</time></trkpt><trkpt lat="44.0664645" lon="10.3152701"><ele>531.3333333333334</ele><time>2026-04-04T10:21:10.611Z</time></trkpt><trkpt lat="44.0665087" lon="10.3150947"><ele>531.6666666666667</ele><time>2026-04-04T10:21:11.609Z</time></trkpt><trkpt lat="44.0664883" lon="10.3148661"><ele>532.0</ele><time>2026-04-04T10:21:12.609Z</time></trkpt><trkpt lat="44.0664221" lon="10.314659"><ele>535.0</ele><time>2026-04-04T10:21:13.607Z</time></trkpt><trkpt lat="44.0663527" lon="10.314446"><ele>538.0</ele><time>2026-04-04T10:21:14.612Z</time></trkpt><trkpt lat="44.0663294" lon="10.3142738"><ele>541.0</ele><time>2026-04-04T10:21:15.622Z</time></trkpt><trkpt lat="44.066374" lon="10.3141315"><ele>544.0</ele><time>2026-04-04T10:21:16.614Z</time></trkpt><trkpt lat="44.066376" lon="10.3139644"><ele>548.0</ele><time>2026-04-04T10:21:17.606Z</time></trkpt><trkpt lat="44.0663555" lon="10.3138104"><ele>552.0</ele><time>2026-04-04T10:21:18.611Z</time></trkpt><trkpt lat="44.0662671" lon="10.3136851"><ele>556.0</ele><time>2026-04-04T10:21:19.599Z</time></trkpt><trkpt lat="44.0661596" lon="10.3135851"><ele>560.0</ele><time>2026-04-04T10:21:20.608Z</time></trkpt><trkpt lat="44.0660646" lon="10.3134854"><ele>560.0</ele><time>2026-04-04T10:21:21.603Z</time></trkpt><trkpt lat="44.0659863" lon="10.313371"><ele>560.0</ele><time>2026-04-04T10:21:22.612Z</time></trkpt><trkpt lat="44.0659561" lon="10.3132225"><ele>560.0</ele><time>2026-04-04T10:21:23.612Z</time></trkpt><trkpt lat="44.0659847" lon="10.3130196"><ele>560.0</ele><time>2026-04-04T10:21:24.6Z</time></trkpt><trkpt lat="44.0660374" lon="10.3128072"><ele>561.3333333333333</ele><time>2026-04-04T10:21:25.603Z</time></trkpt><trkpt lat="44.0661124" lon="10.312596"><ele>562.6666666666666</ele><time>2026-04-04T10:21:26.604Z</time></trkpt><trkpt lat="44.0662118" lon="10.3124064"><ele>564.0</ele><time>2026-04-04T10:21:27.605Z</time></trkpt><trkpt lat="44.0662981" lon="10.3122088"><ele>566.25</ele><time>2026-04-04T10:21:28.595Z</time></trkpt><trkpt lat="44.0663856" lon="10.3120487"><ele>568.5</ele><time>2026-04-04T10:21:29.601Z</time></trkpt><trkpt lat="44.0664587" lon="10.3118964"><ele>570.75</ele><time>2026-04-04T10:21:30.596Z</time></trkpt><trkpt lat="44.0665192" lon="10.3117324"><ele>573.0</ele><time>2026-04-04T10:21:31.596Z</time></trkpt><trkpt lat="44.0665263" lon="10.3115641"><ele>578.8</ele><time>2026-04-04T10:21:32.591Z</time></trkpt><trkpt lat="44.0665027" lon="10.3114062"><ele>584.5999999999999</ele><time>2026-04-04T10:21:33.598Z</time></trkpt><trkpt lat="44.0664603" lon="10.311283"><ele>590.4000000000001</ele><time>2026-04-04T10:21:34.593Z</time></trkpt><trkpt lat="44.0663875" lon="10.3111724"><ele>596.2</ele><time>2026-04-04T10:21:35.601Z</time></trkpt><trkpt lat="44.0663023" lon="10.3111193"><ele>602.0</ele><time>2026-04-04T10:21:36.6Z</time></trkpt><trkpt lat="44.0661933" lon="10.3110984"><ele>602.0</ele><time>2026-04-04T10:21:37.601Z</time></trkpt><trkpt lat="44.0660839" lon="10.311109"><ele>602.0</ele><time>2026-04-04T10:21:38.609Z</time></trkpt><trkpt lat="44.0659745" lon="10.3111764"><ele>602.0</ele><time>2026-04-04T10:21:39.601Z</time></trkpt><trkpt lat="44.0658905" lon="10.3112952"><ele>602.0</ele><time>2026-04-04T10:21:40.601Z</time></trkpt><trkpt lat="44.0657942" lon="10.3114017"><ele>596.75</ele><time>2026-04-04T10:21:41.593Z</time></trkpt><trkpt lat="44.0656925" lon="10.3114753"><ele>591.5</ele><time>2026-04-04T10:21:42.596Z</time></trkpt><trkpt lat="44.0655847" lon="10.311538"><ele>586.25</ele><time>2026-04-04T10:21:43.598Z</time></trkpt><trkpt lat="44.06548" lon="10.3115878"><ele>581.0</ele><time>2026-04-04T10:21:44.593Z</time></trkpt><trkpt lat="44.065371" lon="10.3116278"><ele>581.0</ele><time>2026-04-04T10:21:45.597Z</time></trkpt><trkpt lat="44.0652699" lon="10.3116777"><ele>581.0</ele><time>2026-04-04T10:21:46.599Z</time></trkpt><trkpt lat="44.0651764" lon="10.3117385"><ele>581.0</ele><time>2026-04-04T10:21:47.591Z</time></trkpt><trkpt lat="44.0650753" lon="10.3118157"><ele>581.0</ele><time>2026-04-04T10:21:48.597Z</time></trkpt><trkpt lat="44.064973" lon="10.3118964"><ele>581.0</ele><time>2026-04-04T10:21:49.589Z</time></trkpt><trkpt lat="44.0648691" lon="10.3119683"><ele>577.0</ele><time>2026-04-04T10:21:50.604Z</time></trkpt><trkpt lat="44.0647621" lon="10.3120109"><ele>573.0</ele><time>2026-04-04T10:21:51.602Z</time></trkpt><trkpt lat="44.0646502" lon="10.3120106"><ele>569.0</ele><time>2026-04-04T10:21:52.606Z</time></trkpt><trkpt lat="44.0645451" lon="10.31199"><ele>565.0</ele><time>2026-04-04T10:21:53.608Z</time></trkpt><trkpt lat="44.0644415" lon="10.3119491"><ele>561.0</ele><time>2026-04-04T10:21:54.622Z</time></trkpt><trkpt lat="44.064343" lon="10.3118769"><ele>561.0</ele><time>2026-04-04T10:21:55.606Z</time></trkpt><trkpt lat="44.0642693" lon="10.3117798"><ele>561.0</ele><time>2026-04-04T10:21:56.614Z</time></trkpt><trkpt lat="44.0642113" lon="10.3116533"><ele>561.0</ele><time>2026-04-04T10:21:57.613Z</time></trkpt><trkpt lat="44.0641562" lon="10.3115063"><ele>561.0</ele><time>2026-04-04T10:21:58.617Z</time></trkpt><trkpt lat="44.0641034" lon="10.3113525"><ele>561.0</ele><time>2026-04-04T10:21:59.63Z</time></trkpt><trkpt lat="44.0640513" lon="10.3112038"><ele>561.0</ele><time>2026-04-04T10:22:00.627Z</time></trkpt><trkpt lat="44.0640029" lon="10.3110554"><ele>561.0</ele><time>2026-04-04T10:22:01.622Z</time></trkpt><trkpt lat="44.0639519" lon="10.3109207"><ele>561.0</ele><time>2026-04-04T10:22:02.621Z</time></trkpt><trkpt lat="44.0638974" lon="10.3107839"><ele>561.0</ele><time>2026-04-04T10:22:03.622Z</time></trkpt><trkpt lat="44.0638272" lon="10.3106599"><ele>561.0</ele><time>2026-04-04T10:22:04.608Z</time></trkpt><trkpt lat="44.0637502" lon="10.3105507"><ele>561.0</ele><time>2026-04-04T10:22:05.619Z</time></trkpt><trkpt lat="44.0636637" lon="10.3104482"><ele>561.0</ele><time>2026-04-04T10:22:06.617Z</time></trkpt><trkpt lat="44.0635705" lon="10.3103505"><ele>564.0</ele><time>2026-04-04T10:22:07.612Z</time></trkpt><trkpt lat="44.0634696" lon="10.3102555"><ele>567.0</ele><time>2026-04-04T10:22:08.616Z</time></trkpt><trkpt lat="44.0633626" lon="10.3101653"><ele>570.0</ele><time>2026-04-04T10:22:09.618Z</time></trkpt><trkpt lat="44.0632479" lon="10.3100841"><ele>573.0</ele><time>2026-04-04T10:22:10.611Z</time></trkpt><trkpt lat="44.0631281" lon="10.3100076"><ele>573.0</ele><time>2026-04-04T10:22:11.61Z</time></trkpt><trkpt lat="44.0630166" lon="10.3099168"><ele>573.0</ele><time>2026-04-04T10:22:12.601Z</time></trkpt><trkpt lat="44.0629086" lon="10.3098101"><ele>573.0</ele><time>2026-04-04T10:22:13.613Z</time></trkpt><trkpt lat="44.0628006" lon="10.3096975"><ele>573.0</ele><time>2026-04-04T10:22:14.602Z</time></trkpt><trkpt lat="44.0626792" lon="10.3096096"><ele>572.75</ele><time>2026-04-04T10:22:15.61Z</time></trkpt><trkpt lat="44.0625547" lon="10.3095336"><ele>572.5</ele><time>2026-04-04T10:22:16.609Z</time></trkpt><trkpt lat="44.0624347" lon="10.3094441"><ele>572.25</ele><time>2026-04-04T10:22:17.613Z</time></trkpt><trkpt lat="44.0623197" lon="10.3093444"><ele>572.0</ele><time>2026-04-04T10:22:18.6Z</time></trkpt><trkpt lat="44.0622009" lon="10.3092348"><ele>572.0</ele><time>2026-04-04T10:22:19.609Z</time></trkpt><trkpt lat="44.0620858" lon="10.3091224"><ele>572.0</ele><time>2026-04-04T10:22:20.61Z</time></trkpt><trkpt lat="44.061984" lon="10.3090119"><ele>572.0</ele><time>2026-04-04T10:22:21.599Z</time></trkpt><trkpt lat="44.0618735" lon="10.3088846"><ele>572.0</ele><time>2026-04-04T10:22:22.613Z</time></trkpt><trkpt lat="44.0617891" lon="10.3087297"><ele>573.0</ele><time>2026-04-04T10:22:23.61Z</time></trkpt><trkpt lat="44.061694" lon="10.3086071"><ele>574.0</ele><time>2026-04-04T10:22:24.609Z</time></trkpt><trkpt lat="44.061572" lon="10.3085465"><ele>575.0</ele><time>2026-04-04T10:22:25.612Z</time></trkpt><trkpt lat="44.0614348" lon="10.3085629"><ele>576.0</ele><time>2026-04-04T10:22:26.611Z</time></trkpt><trkpt lat="44.0613133" lon="10.3085477"><ele>576.0</ele><time>2026-04-04T10:22:27.602Z</time></trkpt><trkpt lat="44.0612195" lon="10.3084667"><ele>576.0</ele><time>2026-04-04T10:22:28.615Z</time></trkpt><trkpt lat="44.0611578" lon="10.3083479"><ele>576.0</ele><time>2026-04-04T10:22:29.6Z</time></trkpt><trkpt lat="44.0611165" lon="10.3081989"><ele>576.0</ele><time>2026-04-04T10:22:30.601Z</time></trkpt><trkpt lat="44.0610783" lon="10.3080421"><ele>576.0</ele><time>2026-04-04T10:22:31.609Z</time></trkpt><trkpt lat="44.0610638" lon="10.3078669"><ele>578.25</ele><time>2026-04-04T10:22:32.609Z</time></trkpt><trkpt lat="44.0610489" lon="10.3076763"><ele>580.5</ele><time>2026-04-04T10:22:33.597Z</time></trkpt><trkpt lat="44.0610249" lon="10.3074786"><ele>582.75</ele><time>2026-04-04T10:22:34.599Z</time></trkpt><trkpt lat="44.0610006" lon="10.3072688"><ele>585.0</ele><time>2026-04-04T10:22:35.597Z</time></trkpt><trkpt lat="44.0609668" lon="10.307046"><ele>586.3333333333334</ele><time>2026-04-04T10:22:36.608Z</time></trkpt><trkpt lat="44.0609651" lon="10.3068214"><ele>587.6666666666667</ele><time>2026-04-04T10:22:37.613Z</time></trkpt><trkpt lat="44.0609709" lon="10.3066088"><ele>589.0</ele><time>2026-04-04T10:22:38.616Z</time></trkpt><trkpt lat="44.0609824" lon="10.3064084"><ele>590.0</ele><time>2026-04-04T10:22:39.603Z</time></trkpt><trkpt lat="44.0610157" lon="10.3062277"><ele>591.0</ele><time>2026-04-04T10:22:40.605Z</time></trkpt><trkpt lat="44.0610531" lon="10.3060576"><ele>592.0</ele><time>2026-04-04T10:22:41.602Z</time></trkpt><trkpt lat="44.0610841" lon="10.3058566"><ele>593.0</ele><time>2026-04-04T10:22:42.6Z</time></trkpt><trkpt lat="44.0610838" lon="10.3056464"><ele>594.75</ele><time>2026-04-04T10:22:43.591Z</time></trkpt><trkpt lat="44.0610726" lon="10.3054581"><ele>596.5</ele><time>2026-04-04T10:22:44.609Z</time></trkpt><trkpt lat="44.0610236" lon="10.3052935"><ele>598.25</ele><time>2026-04-04T10:22:45.586Z</time></trkpt><trkpt lat="44.0609712" lon="10.3051008"><ele>600.0</ele><time>2026-04-04T10:22:46.598Z</time></trkpt><trkpt lat="44.0609184" lon="10.3049481"><ele>600.0</ele><time>2026-04-04T10:22:47.591Z</time></trkpt><trkpt lat="44.0608556" lon="10.3048216"><ele>600.0</ele><time>2026-04-04T10:22:48.597Z</time></trkpt><trkpt lat="44.060809" lon="10.3046853"><ele>600.0</ele><time>2026-04-04T10:22:49.591Z</time></trkpt><trkpt lat="44.0607811" lon="10.3045528"><ele>600.0</ele><time>2026-04-04T10:22:50.598Z</time></trkpt><trkpt lat="44.0607986" lon="10.3044136"><ele>600.0</ele><time>2026-04-04T10:22:51.593Z</time></trkpt><trkpt lat="44.060863" lon="10.3042844"><ele>603.25</ele><time>2026-04-04T10:22:52.597Z</time></trkpt><trkpt lat="44.0609205" lon="10.3041339"><ele>606.5</ele><time>2026-04-04T10:22:53.6Z</time></trkpt><trkpt lat="44.0609532" lon="10.3039742"><ele>609.75</ele><time>2026-04-04T10:22:54.592Z</time></trkpt><trkpt lat="44.060965" lon="10.3037987"><ele>613.0</ele><time>2026-04-04T10:22:55.6Z</time></trkpt><trkpt lat="44.0609503" lon="10.3036265"><ele>616.75</ele><time>2026-04-04T10:22:56.61Z</time></trkpt><trkpt lat="44.0609181" lon="10.3034409"><ele>620.5</ele><time>2026-04-04T10:22:57.604Z</time></trkpt><trkpt lat="44.0608727" lon="10.3032623"><ele>624.25</ele><time>2026-04-04T10:22:58.609Z</time></trkpt><trkpt lat="44.0608115" lon="10.303078"><ele>628.0</ele><time>2026-04-04T10:22:59.605Z</time></trkpt><trkpt lat="44.0607495" lon="10.3028919"><ele>640.3333333333334</ele><time>2026-04-04T10:23:00.607Z</time></trkpt><trkpt lat="44.060693" lon="10.302697"><ele>652.6666666666666</ele><time>2026-04-04T10:23:01.598Z</time></trkpt><trkpt lat="44.0606276" lon="10.3024822"><ele>665.0</ele><time>2026-04-04T10:23:02.606Z</time></trkpt><trkpt lat="44.0605813" lon="10.3022685"><ele>668.25</ele><time>2026-04-04T10:23:03.6Z</time></trkpt><trkpt lat="44.0605457" lon="10.3020701"><ele>671.5</ele><time>2026-04-04T10:23:04.598Z</time></trkpt><trkpt lat="44.0605234" lon="10.3018733"><ele>674.75</ele><time>2026-04-04T10:23:05.605Z</time></trkpt><trkpt lat="44.0605404" lon="10.3016916"><ele>678.0</ele><time>2026-04-04T10:23:06.606Z</time></trkpt><trkpt lat="44.0605913" lon="10.3015278"><ele>682.25</ele><time>2026-04-04T10:23:07.606Z</time></trkpt><trkpt lat="44.0606377" lon="10.3013668"><ele>686.5</ele><time>2026-04-04T10:23:08.605Z</time></trkpt><trkpt lat="44.0606776" lon="10.3012019"><ele>690.75</ele><time>2026-04-04T10:23:09.605Z</time></trkpt><trkpt lat="44.0607124" lon="10.3010345"><ele>695.0</ele><time>2026-04-04T10:23:10.601Z</time></trkpt><trkpt lat="44.0607404" lon="10.3008543"><ele>695.0</ele><time>2026-04-04T10:23:11.599Z</time></trkpt><trkpt lat="44.0607785" lon="10.300672"><ele>695.0</ele><time>2026-04-04T10:23:12.595Z</time></trkpt><trkpt lat="44.0608302" lon="10.3005171"><ele>695.0</ele><time>2026-04-04T10:23:13.599Z</time></trkpt><trkpt lat="44.0608884" lon="10.3003693"><ele>695.0</ele><time>2026-04-04T10:23:14.59Z</time></trkpt><trkpt lat="44.0609385" lon="10.3002326"><ele>688.0</ele><time>2026-04-04T10:23:15.595Z</time></trkpt><trkpt lat="44.0609721" lon="10.3000883"><ele>681.0</ele><time>2026-04-04T10:23:16.599Z</time></trkpt><trkpt lat="44.0609824" lon="10.2999464"><ele>674.0</ele><time>2026-04-04T10:23:17.599Z</time></trkpt><trkpt lat="44.0609973" lon="10.2998288"><ele>667.0</ele><time>2026-04-04T10:23:18.603Z</time></trkpt><trkpt lat="44.061001" lon="10.299735"><ele>660.0</ele><time>2026-04-04T10:23:19.607Z</time></trkpt><trkpt lat="44.0609992" lon="10.2995831"><ele>660.0</ele><time>2026-04-04T10:23:21.611Z</time></trkpt><trkpt lat="44.0609809" lon="10.2994754"><ele>660.0</ele><time>2026-04-04T10:23:23.599Z</time></trkpt><trkpt lat="44.0609398" lon="10.2993695"><ele>660.0</ele><time>2026-04-04T10:23:26.608Z</time></trkpt><trkpt lat="44.0608806" lon="10.2992438"><ele>660.0</ele><time>2026-04-04T10:23:28.615Z</time></trkpt><trkpt lat="44.0608201" lon="10.2991087"><ele>660.0</ele><time>2026-04-04T10:23:30.616Z</time></trkpt><trkpt lat="44.0607772" lon="10.2989432"><ele>657.4</ele><time>2026-04-04T10:23:32.609Z</time></trkpt><trkpt lat="44.0607684" lon="10.2988343"><ele>654.8</ele><time>2026-04-04T10:23:33.615Z</time></trkpt><trkpt lat="44.0607676" lon="10.2987026"><ele>652.2</ele><time>2026-04-04T10:23:34.612Z</time></trkpt><trkpt lat="44.0607837" lon="10.2985582"><ele>649.6</ele><time>2026-04-04T10:23:35.605Z</time></trkpt><trkpt lat="44.0608103" lon="10.2984182"><ele>647.0</ele><time>2026-04-04T10:23:36.613Z</time></trkpt><trkpt lat="44.060846" lon="10.2983006"><ele>647.0</ele><time>2026-04-04T10:23:37.612Z</time></trkpt><trkpt lat="44.0608774" lon="10.2981953"><ele>647.0</ele><time>2026-04-04T10:23:38.609Z</time></trkpt><trkpt lat="44.0609076" lon="10.2981177"><ele>647.0</ele><time>2026-04-04T10:23:39.609Z</time></trkpt><trkpt lat="44.060952" lon="10.2980125"><ele>647.0</ele><time>2026-04-04T10:23:41.61Z</time></trkpt><trkpt lat="44.0609802" lon="10.2979004"><ele>647.0</ele><time>2026-04-04T10:23:44.61Z</time></trkpt><trkpt lat="44.0609041" lon="10.2978614"><ele>647.0</ele><time>2026-04-04T10:24:56.618Z</time></trkpt><trkpt lat="44.0608881" lon="10.2976743"><ele>647.0</ele><time>2026-04-04T10:24:58.623Z</time></trkpt><trkpt lat="44.0608825" lon="10.2975438"><ele>647.0</ele><time>2026-04-04T10:24:59.618Z</time></trkpt><trkpt lat="44.0608653" lon="10.297383"><ele>647.0</ele><time>2026-04-04T10:25:00.63Z</time></trkpt><trkpt lat="44.0608591" lon="10.2971961"><ele>647.0</ele><time>2026-04-04T10:25:01.616Z</time></trkpt><trkpt lat="44.0608513" lon="10.2969913"><ele>647.75</ele><time>2026-04-04T10:25:02.616Z</time></trkpt><trkpt lat="44.06084" lon="10.2967972"><ele>648.5</ele><time>2026-04-04T10:25:03.614Z</time></trkpt><trkpt lat="44.0608274" lon="10.2965828"><ele>649.25</ele><time>2026-04-04T10:25:04.614Z</time></trkpt><trkpt lat="44.0608147" lon="10.29638"><ele>650.0</ele><time>2026-04-04T10:25:05.616Z</time></trkpt><trkpt lat="44.0607975" lon="10.2961722"><ele>652.0</ele><time>2026-04-04T10:25:06.615Z</time></trkpt><trkpt lat="44.0607964" lon="10.2959475"><ele>654.0</ele><time>2026-04-04T10:25:07.619Z</time></trkpt><trkpt lat="44.0608221" lon="10.2957177"><ele>656.0</ele><time>2026-04-04T10:25:08.611Z</time></trkpt><trkpt lat="44.0608326" lon="10.2954959"><ele>657.75</ele><time>2026-04-04T10:25:09.614Z</time></trkpt><trkpt lat="44.0608291" lon="10.2952815"><ele>659.5</ele><time>2026-04-04T10:25:10.617Z</time></trkpt><trkpt lat="44.0608038" lon="10.2950865"><ele>661.25</ele><time>2026-04-04T10:25:11.611Z</time></trkpt><trkpt lat="44.0607834" lon="10.2949173"><ele>663.0</ele><time>2026-04-04T10:25:12.607Z</time></trkpt><trkpt lat="44.0607886" lon="10.294728"><ele>666.75</ele><time>2026-04-04T10:25:13.611Z</time></trkpt><trkpt lat="44.0608163" lon="10.2945434"><ele>670.5</ele><time>2026-04-04T10:25:14.611Z</time></trkpt><trkpt lat="44.0608914" lon="10.2943885"><ele>674.25</ele><time>2026-04-04T10:25:15.61Z</time></trkpt><trkpt lat="44.0609873" lon="10.2942525"><ele>678.0</ele><time>2026-04-04T10:25:16.613Z</time></trkpt><trkpt lat="44.0610864" lon="10.2941234"><ele>678.0</ele><time>2026-04-04T10:25:17.618Z</time></trkpt><trkpt lat="44.0611891" lon="10.2940082"><ele>678.0</ele><time>2026-04-04T10:25:18.614Z</time></trkpt><trkpt lat="44.0613029" lon="10.2939181"><ele>678.0</ele><time>2026-04-04T10:25:19.606Z</time></trkpt><trkpt lat="44.061419" lon="10.2938442"><ele>678.0</ele><time>2026-04-04T10:25:20.603Z</time></trkpt><trkpt lat="44.0615501" lon="10.293788"><ele>676.3333333333334</ele><time>2026-04-04T10:25:21.609Z</time></trkpt><trkpt lat="44.0616905" lon="10.2937158"><ele>674.6666666666667</ele><time>2026-04-04T10:25:22.608Z</time></trkpt><trkpt lat="44.0618417" lon="10.2936115"><ele>673.0</ele><time>2026-04-04T10:25:23.589Z</time></trkpt><trkpt lat="44.0619668" lon="10.2934572"><ele>673.0</ele><time>2026-04-04T10:25:24.602Z</time></trkpt><trkpt lat="44.0620376" lon="10.2932516"><ele>673.0</ele><time>2026-04-04T10:25:25.614Z</time></trkpt><trkpt lat="44.0620573" lon="10.2930302"><ele>673.0</ele><time>2026-04-04T10:25:26.617Z</time></trkpt><trkpt lat="44.062057" lon="10.2927997"><ele>681.3333333333334</ele><time>2026-04-04T10:25:27.613Z</time></trkpt><trkpt lat="44.0620442" lon="10.2925722"><ele>689.6666666666666</ele><time>2026-04-04T10:25:28.609Z</time></trkpt><trkpt lat="44.0620123" lon="10.2923304"><ele>698.0</ele><time>2026-04-04T10:25:29.609Z</time></trkpt><trkpt lat="44.0619546" lon="10.2920894"><ele>710.3333333333333</ele><time>2026-04-04T10:25:30.615Z</time></trkpt><trkpt lat="44.06192" lon="10.2918451"><ele>722.6666666666666</ele><time>2026-04-04T10:25:31.633Z</time></trkpt><trkpt lat="44.0619442" lon="10.2916023"><ele>735.0</ele><time>2026-04-04T10:25:32.61Z</time></trkpt><trkpt lat="44.0619767" lon="10.2913723"><ele>744.6666666666666</ele><time>2026-04-04T10:25:33.61Z</time></trkpt><trkpt lat="44.0620209" lon="10.291133"><ele>754.3333333333333</ele><time>2026-04-04T10:25:34.603Z</time></trkpt><trkpt lat="44.0620941" lon="10.2909009"><ele>764.0</ele><time>2026-04-04T10:25:35.606Z</time></trkpt><trkpt lat="44.0621812" lon="10.2906815"><ele>758.0</ele><time>2026-04-04T10:25:36.609Z</time></trkpt><trkpt lat="44.0622844" lon="10.2904634"><ele>752.0</ele><time>2026-04-04T10:25:37.604Z</time></trkpt><trkpt lat="44.0623884" lon="10.2902862"><ele>746.0</ele><time>2026-04-04T10:25:38.609Z</time></trkpt><trkpt lat="44.0624898" lon="10.2901348"><ele>730.0</ele><time>2026-04-04T10:25:39.611Z</time></trkpt><trkpt lat="44.0625885" lon="10.290001"><ele>714.0</ele><time>2026-04-04T10:25:40.609Z</time></trkpt><trkpt lat="44.0626734" lon="10.2898817"><ele>698.0</ele><time>2026-04-04T10:25:41.611Z</time></trkpt><trkpt lat="44.062744" lon="10.2897621"><ele>682.0</ele><time>2026-04-04T10:25:42.601Z</time></trkpt><trkpt lat="44.06278" lon="10.2896349"><ele>682.0</ele><time>2026-04-04T10:25:43.614Z</time></trkpt><trkpt lat="44.062783" lon="10.2894773"><ele>682.0</ele><time>2026-04-04T10:25:44.606Z</time></trkpt><trkpt lat="44.0627205" lon="10.2893453"><ele>682.0</ele><time>2026-04-04T10:25:45.607Z</time></trkpt><trkpt lat="44.0626295" lon="10.2892201"><ele>682.0</ele><time>2026-04-04T10:25:46.611Z</time></trkpt><trkpt lat="44.0625238" lon="10.2891303"><ele>685.25</ele><time>2026-04-04T10:25:47.606Z</time></trkpt><trkpt lat="44.062398" lon="10.2890712"><ele>688.5</ele><time>2026-04-04T10:25:48.615Z</time></trkpt><trkpt lat="44.0622598" lon="10.2890242"><ele>691.75</ele><time>2026-04-04T10:25:49.608Z</time></trkpt><trkpt lat="44.0621218" lon="10.2889481"><ele>695.0</ele><time>2026-04-04T10:25:50.606Z</time></trkpt><trkpt lat="44.0619783" lon="10.2888254"><ele>695.0</ele><time>2026-04-04T10:25:51.609Z</time></trkpt><trkpt lat="44.061824" lon="10.2886408"><ele>695.0</ele><time>2026-04-04T10:25:52.609Z</time></trkpt><trkpt lat="44.0616988" lon="10.2884328"><ele>695.0</ele><time>2026-04-04T10:25:53.604Z</time></trkpt><trkpt lat="44.061588" lon="10.2882092"><ele>723.0</ele><time>2026-04-04T10:25:54.608Z</time></trkpt><trkpt lat="44.0614714" lon="10.2879718"><ele>751.0</ele><time>2026-04-04T10:25:55.606Z</time></trkpt><trkpt lat="44.0613673" lon="10.2877058"><ele>779.0</ele><time>2026-04-04T10:25:56.609Z</time></trkpt><trkpt lat="44.0613244" lon="10.2874226"><ele>781.3333333333334</ele><time>2026-04-04T10:25:57.608Z</time></trkpt><trkpt lat="44.0613288" lon="10.2871258"><ele>783.6666666666667</ele><time>2026-04-04T10:25:58.611Z</time></trkpt><trkpt lat="44.0613598" lon="10.2868623"><ele>786.0</ele><time>2026-04-04T10:25:59.61Z</time></trkpt><trkpt lat="44.0613724" lon="10.286621"><ele>789.3333333333333</ele><time>2026-04-04T10:26:00.603Z</time></trkpt><trkpt lat="44.0613713" lon="10.2863988"><ele>792.6666666666666</ele><time>2026-04-04T10:26:01.616Z</time></trkpt><trkpt lat="44.0614281" lon="10.286206"><ele>796.0</ele><time>2026-04-04T10:26:02.606Z</time></trkpt><trkpt lat="44.0615008" lon="10.2860099"><ele>796.0</ele><time>2026-04-04T10:26:03.605Z</time></trkpt><trkpt lat="44.061573" lon="10.2858402"><ele>796.0</ele><time>2026-04-04T10:26:04.609Z</time></trkpt><trkpt lat="44.0616392" lon="10.2856596"><ele>796.0</ele><time>2026-04-04T10:26:05.603Z</time></trkpt><trkpt lat="44.0616954" lon="10.2854687"><ele>796.0</ele><time>2026-04-04T10:26:06.598Z</time></trkpt><trkpt lat="44.0617155" lon="10.285244"><ele>780.6666666666666</ele><time>2026-04-04T10:26:07.605Z</time></trkpt><trkpt lat="44.0616971" lon="10.285013"><ele>765.3333333333333</ele><time>2026-04-04T10:26:08.601Z</time></trkpt><trkpt lat="44.0616296" lon="10.2847758"><ele>750.0</ele><time>2026-04-04T10:26:09.604Z</time></trkpt><trkpt lat="44.0615063" lon="10.2845507"><ele>750.0</ele><time>2026-04-04T10:26:10.603Z</time></trkpt><trkpt lat="44.0613592" lon="10.2843826"><ele>750.0</ele><time>2026-04-04T10:26:11.6Z</time></trkpt><trkpt lat="44.0611979" lon="10.2842915"><ele>750.0</ele><time>2026-04-04T10:26:12.605Z</time></trkpt><trkpt lat="44.0610289" lon="10.2841822"><ele>750.0</ele><time>2026-04-04T10:26:13.606Z</time></trkpt><trkpt lat="44.060873" lon="10.2840126"><ele>750.0</ele><time>2026-04-04T10:26:14.611Z</time></trkpt><trkpt lat="44.0607431" lon="10.2838157"><ele>750.0</ele><time>2026-04-04T10:26:15.599Z</time></trkpt><trkpt lat="44.0606219" lon="10.2836237"><ele>780.0</ele><time>2026-04-04T10:26:16.615Z</time></trkpt><trkpt lat="44.0605218" lon="10.2834286"><ele>810.0</ele><time>2026-04-04T10:26:17.609Z</time></trkpt><trkpt lat="44.0604408" lon="10.2832218"><ele>840.0</ele><time>2026-04-04T10:26:18.608Z</time></trkpt><trkpt lat="44.0604263" lon="10.2829848"><ele>840.0</ele><time>2026-04-04T10:26:19.616Z</time></trkpt><trkpt lat="44.0604805" lon="10.2827399"><ele>840.0</ele><time>2026-04-04T10:26:20.607Z</time></trkpt><trkpt lat="44.0605596" lon="10.2825064"><ele>840.0</ele><time>2026-04-04T10:26:21.6Z</time></trkpt><trkpt lat="44.0606548" lon="10.2823047"><ele>834.6666666666667</ele><time>2026-04-04T10:26:22.612Z</time></trkpt><trkpt lat="44.0607144" lon="10.2820864"><ele>829.3333333333334</ele><time>2026-04-04T10:26:23.601Z</time></trkpt><trkpt lat="44.0607217" lon="10.2818485"><ele>824.0</ele><time>2026-04-04T10:26:24.603Z</time></trkpt><trkpt lat="44.0607244" lon="10.2815878"><ele>815.75</ele><time>2026-04-04T10:26:25.611Z</time></trkpt><trkpt lat="44.0607229" lon="10.2813706"><ele>807.5</ele><time>2026-04-04T10:26:26.607Z</time></trkpt><trkpt lat="44.0607096" lon="10.2811758"><ele>799.25</ele><time>2026-04-04T10:26:27.602Z</time></trkpt><trkpt lat="44.0606628" lon="10.281"><ele>791.0</ele><time>2026-04-04T10:26:28.611Z</time></trkpt><trkpt lat="44.0605837" lon="10.280848"><ele>791.0</ele><time>2026-04-04T10:26:29.61Z</time></trkpt><trkpt lat="44.0604685" lon="10.2806929"><ele>791.0</ele><time>2026-04-04T10:26:30.609Z</time></trkpt><trkpt lat="44.0603456" lon="10.2805391"><ele>791.0</ele><time>2026-04-04T10:26:31.607Z</time></trkpt><trkpt lat="44.0602051" lon="10.2803923"><ele>778.3333333333334</ele><time>2026-04-04T10:26:32.607Z</time></trkpt><trkpt lat="44.0600692" lon="10.2802543"><ele>765.6666666666667</ele><time>2026-04-04T10:26:33.603Z</time></trkpt><trkpt lat="44.0599726" lon="10.2800843"><ele>753.0</ele><time>2026-04-04T10:26:34.602Z</time></trkpt><trkpt lat="44.0599266" lon="10.2798628"><ele>784.0</ele><time>2026-04-04T10:26:35.596Z</time></trkpt><trkpt lat="44.0599055" lon="10.2796297"><ele>815.0</ele><time>2026-04-04T10:26:36.599Z</time></trkpt><trkpt lat="44.0598702" lon="10.279396"><ele>846.0</ele><time>2026-04-04T10:26:37.607Z</time></trkpt><trkpt lat="44.0598289" lon="10.2791695"><ele>846.0</ele><time>2026-04-04T10:26:38.6Z</time></trkpt><trkpt lat="44.0597969" lon="10.2789551"><ele>846.0</ele><time>2026-04-04T10:26:39.599Z</time></trkpt><trkpt lat="44.0597855" lon="10.2787349"><ele>846.0</ele><time>2026-04-04T10:26:40.602Z</time></trkpt><trkpt lat="44.0598192" lon="10.2785117"><ele>847.0</ele><time>2026-04-04T10:26:41.605Z</time></trkpt><trkpt lat="44.0598801" lon="10.2782853"><ele>848.0</ele><time>2026-04-04T10:26:42.613Z</time></trkpt><trkpt lat="44.0599305" lon="10.278052"><ele>849.0</ele><time>2026-04-04T10:26:43.6Z</time></trkpt><trkpt lat="44.0599617" lon="10.2777985"><ele>821.3333333333334</ele><time>2026-04-04T10:26:44.607Z</time></trkpt><trkpt lat="44.0599878" lon="10.2775544"><ele>793.6666666666667</ele><time>2026-04-04T10:26:45.616Z</time></trkpt><trkpt lat="44.0600243" lon="10.2773195"><ele>766.0</ele><time>2026-04-04T10:26:46.592Z</time></trkpt><trkpt lat="44.0600733" lon="10.2771232"><ele>763.5</ele><time>2026-04-04T10:26:47.608Z</time></trkpt><trkpt lat="44.0601129" lon="10.2769605"><ele>761.0</ele><time>2026-04-04T10:26:48.609Z</time></trkpt><trkpt lat="44.0601262" lon="10.2768149"><ele>758.5</ele><time>2026-04-04T10:26:49.612Z</time></trkpt><trkpt lat="44.0601034" lon="10.2766888"><ele>756.0</ele><time>2026-04-04T10:26:50.605Z</time></trkpt><trkpt lat="44.0600273" lon="10.2765229"><ele>762.6666666666667</ele><time>2026-04-04T10:26:51.603Z</time></trkpt><trkpt lat="44.0599695" lon="10.2763071"><ele>769.3333333333334</ele><time>2026-04-04T10:26:52.605Z</time></trkpt><trkpt lat="44.0599052" lon="10.276076"><ele>776.0</ele><time>2026-04-04T10:26:53.599Z</time></trkpt><trkpt lat="44.0598449" lon="10.2758381"><ele>790.0</ele><time>2026-04-04T10:26:54.602Z</time></trkpt><trkpt lat="44.0597912" lon="10.2756137"><ele>804.0</ele><time>2026-04-04T10:26:55.592Z</time></trkpt><trkpt lat="44.0597463" lon="10.2753983"><ele>818.0</ele><time>2026-04-04T10:26:56.597Z</time></trkpt><trkpt lat="44.059732" lon="10.2751907"><ele>818.0</ele><time>2026-04-04T10:26:57.586Z</time></trkpt><trkpt lat="44.0597453" lon="10.2750245"><ele>818.0</ele><time>2026-04-04T10:26:58.6Z</time></trkpt><trkpt lat="44.0597611" lon="10.2748742"><ele>818.0</ele><time>2026-04-04T10:26:59.593Z</time></trkpt><trkpt lat="44.0597609" lon="10.2747581"><ele>818.0</ele><time>2026-04-04T10:27:00.588Z</time></trkpt><trkpt lat="44.0597448" lon="10.2746291"><ele>818.0</ele><time>2026-04-04T10:27:01.588Z</time></trkpt><trkpt lat="44.0597104" lon="10.2744734"><ele>811.5</ele><time>2026-04-04T10:27:02.583Z</time></trkpt><trkpt lat="44.0596787" lon="10.2743207"><ele>805.0</ele><time>2026-04-04T10:27:03.585Z</time></trkpt><trkpt lat="44.0596627" lon="10.274188"><ele>798.5</ele><time>2026-04-04T10:27:04.553Z</time></trkpt><trkpt lat="44.0596195" lon="10.2740174"><ele>792.0</ele><time>2026-04-04T10:27:05.566Z</time></trkpt><trkpt lat="44.0594339" lon="10.2740153"><ele>777.5</ele><time>2026-04-04T10:27:06.598Z</time></trkpt><trkpt lat="44.0592025" lon="10.2738258"><ele>763.0</ele><time>2026-04-04T10:27:07.597Z</time></trkpt><trkpt lat="44.0589687" lon="10.2736541"><ele>758.5</ele><time>2026-04-04T10:27:08.607Z</time></trkpt><trkpt lat="44.0586816" lon="10.2734605"><ele>754.0</ele><time>2026-04-04T10:27:09.604Z</time></trkpt><trkpt lat="44.0583849" lon="10.2732633"><ele>758.0</ele><time>2026-04-04T10:27:10.608Z</time></trkpt><trkpt lat="44.0581159" lon="10.27307"><ele>762.0</ele><time>2026-04-04T10:27:11.612Z</time></trkpt><trkpt lat="44.0578802" lon="10.2728667"><ele>762.0</ele><time>2026-04-04T10:27:12.611Z</time></trkpt><trkpt lat="44.057637" lon="10.2726546"><ele>762.0</ele><time>2026-04-04T10:27:13.617Z</time></trkpt><trkpt lat="44.0574158" lon="10.2724527"><ele>764.5</ele><time>2026-04-04T10:27:14.611Z</time></trkpt><trkpt lat="44.0572024" lon="10.2722968"><ele>767.0</ele><time>2026-04-04T10:27:15.605Z</time></trkpt><trkpt lat="44.0569964" lon="10.27212"><ele>767.0</ele><time>2026-04-04T10:27:16.611Z</time></trkpt><trkpt lat="44.0567975" lon="10.2719494"><ele>767.0</ele><time>2026-04-04T10:27:17.603Z</time></trkpt><trkpt lat="44.056606" lon="10.2717936"><ele>781.3333333333333</ele><time>2026-04-04T10:27:18.609Z</time></trkpt><trkpt lat="44.0564281" lon="10.2716495"><ele>795.6666666666666</ele><time>2026-04-04T10:27:19.603Z</time></trkpt><trkpt lat="44.0562806" lon="10.2715168"><ele>810.0</ele><time>2026-04-04T10:27:20.62Z</time></trkpt><trkpt lat="44.0561728" lon="10.2713735"><ele>810.0</ele><time>2026-04-04T10:27:21.608Z</time></trkpt><trkpt lat="44.0561356" lon="10.271197"><ele>810.0</ele><time>2026-04-04T10:27:22.61Z</time></trkpt><trkpt lat="44.056131" lon="10.2710132"><ele>810.0</ele><time>2026-04-04T10:27:23.601Z</time></trkpt><trkpt lat="44.0561731" lon="10.2708438"><ele>810.0</ele><time>2026-04-04T10:27:24.613Z</time></trkpt><trkpt lat="44.0562755" lon="10.2707405"><ele>810.0</ele><time>2026-04-04T10:27:25.611Z</time></trkpt><trkpt lat="44.0563879" lon="10.2706914"><ele>810.0</ele><time>2026-04-04T10:27:26.606Z</time></trkpt><trkpt lat="44.0564999" lon="10.2706612"><ele>810.0</ele><time>2026-04-04T10:27:27.604Z</time></trkpt><trkpt lat="44.0565916" lon="10.270609"><ele>810.0</ele><time>2026-04-04T10:27:28.618Z</time></trkpt><trkpt lat="44.0566925" lon="10.2705216"><ele>792.0</ele><time>2026-04-04T10:27:29.623Z</time></trkpt><trkpt lat="44.0567952" lon="10.2703453"><ele>774.0</ele><time>2026-04-04T10:27:30.617Z</time></trkpt><trkpt lat="44.0569075" lon="10.270133"><ele>756.0</ele><time>2026-04-04T10:27:31.606Z</time></trkpt><trkpt lat="44.0569945" lon="10.2698787"><ele>755.6666666666666</ele><time>2026-04-04T10:27:32.617Z</time></trkpt><trkpt lat="44.0570247" lon="10.2695987"><ele>755.3333333333333</ele><time>2026-04-04T10:27:33.608Z</time></trkpt><trkpt lat="44.0570104" lon="10.2693119"><ele>755.0</ele><time>2026-04-04T10:27:34.621Z</time></trkpt><trkpt lat="44.0569868" lon="10.2690661"><ele>755.6666666666666</ele><time>2026-04-04T10:27:35.607Z</time></trkpt><trkpt lat="44.0569657" lon="10.2688308"><ele>756.3333333333334</ele><time>2026-04-04T10:27:36.604Z</time></trkpt><trkpt lat="44.0569321" lon="10.2685899"><ele>757.0</ele><time>2026-04-04T10:27:37.607Z</time></trkpt><trkpt lat="44.0568897" lon="10.2683381"><ele>757.6666666666667</ele><time>2026-04-04T10:27:38.613Z</time></trkpt><trkpt lat="44.0568288" lon="10.2680883"><ele>758.3333333333334</ele><time>2026-04-04T10:27:39.61Z</time></trkpt><trkpt lat="44.0567817" lon="10.2678531"><ele>759.0</ele><time>2026-04-04T10:27:40.617Z</time></trkpt><trkpt lat="44.0567476" lon="10.2676377"><ele>759.0</ele><time>2026-04-04T10:27:41.616Z</time></trkpt><trkpt lat="44.0567146" lon="10.267428"><ele>759.0</ele><time>2026-04-04T10:27:42.616Z</time></trkpt><trkpt lat="44.0567029" lon="10.2672282"><ele>759.0</ele><time>2026-04-04T10:27:43.613Z</time></trkpt><trkpt lat="44.0566961" lon="10.2670457"><ele>759.0</ele><time>2026-04-04T10:27:44.621Z</time></trkpt><trkpt lat="44.0567007" lon="10.2668687"><ele>758.25</ele><time>2026-04-04T10:27:45.626Z</time></trkpt><trkpt lat="44.0567119" lon="10.2666973"><ele>757.5</ele><time>2026-04-04T10:27:46.63Z</time></trkpt><trkpt lat="44.0567384" lon="10.2665264"><ele>756.75</ele><time>2026-04-04T10:27:47.63Z</time></trkpt><trkpt lat="44.0567951" lon="10.2663625"><ele>756.0</ele><time>2026-04-04T10:27:48.628Z</time></trkpt><trkpt lat="44.0568459" lon="10.2661921"><ele>759.25</ele><time>2026-04-04T10:27:49.628Z</time></trkpt><trkpt lat="44.0569002" lon="10.2660411"><ele>762.5</ele><time>2026-04-04T10:27:50.618Z</time></trkpt><trkpt lat="44.0569555" lon="10.2658844"><ele>765.75</ele><time>2026-04-04T10:27:51.625Z</time></trkpt><trkpt lat="44.0570109" lon="10.2657089"><ele>769.0</ele><time>2026-04-04T10:27:52.62Z</time></trkpt><trkpt lat="44.0570573" lon="10.265518"><ele>778.0</ele><time>2026-04-04T10:27:53.62Z</time></trkpt><trkpt lat="44.0571067" lon="10.265285"><ele>787.0</ele><time>2026-04-04T10:27:54.606Z</time></trkpt><trkpt lat="44.0571745" lon="10.2650621"><ele>796.0</ele><time>2026-04-04T10:27:55.603Z</time></trkpt><trkpt lat="44.0572676" lon="10.2648765"><ele>794.6666666666666</ele><time>2026-04-04T10:27:56.606Z</time></trkpt><trkpt lat="44.0573832" lon="10.2647258"><ele>793.3333333333333</ele><time>2026-04-04T10:27:57.609Z</time></trkpt><trkpt lat="44.057534" lon="10.2646049"><ele>792.0</ele><time>2026-04-04T10:27:58.601Z</time></trkpt><trkpt lat="44.057692" lon="10.2644698"><ele>792.0</ele><time>2026-04-04T10:27:59.61Z</time></trkpt><trkpt lat="44.0578522" lon="10.2643447"><ele>792.0</ele><time>2026-04-04T10:28:00.602Z</time></trkpt><trkpt lat="44.0580089" lon="10.2642374"><ele>792.0</ele><time>2026-04-04T10:28:01.606Z</time></trkpt><trkpt lat="44.0581197" lon="10.2640925"><ele>797.75</ele><time>2026-04-04T10:28:02.619Z</time></trkpt><trkpt lat="44.0581539" lon="10.2639326"><ele>803.5</ele><time>2026-04-04T10:28:03.617Z</time></trkpt><trkpt lat="44.0581253" lon="10.2637646"><ele>809.25</ele><time>2026-04-04T10:28:04.623Z</time></trkpt><trkpt lat="44.0580448" lon="10.2635757"><ele>815.0</ele><time>2026-04-04T10:28:05.625Z</time></trkpt><trkpt lat="44.0579328" lon="10.2633922"><ele>815.0</ele><time>2026-04-04T10:28:06.621Z</time></trkpt><trkpt lat="44.0578358" lon="10.2632045"><ele>815.0</ele><time>2026-04-04T10:28:07.616Z</time></trkpt><trkpt lat="44.0577938" lon="10.2630329"><ele>815.0</ele><time>2026-04-04T10:28:08.617Z</time></trkpt><trkpt lat="44.0578248" lon="10.2628645"><ele>815.0</ele><time>2026-04-04T10:28:09.621Z</time></trkpt><trkpt lat="44.0578816" lon="10.2627504"><ele>812.6</ele><time>2026-04-04T10:28:10.611Z</time></trkpt><trkpt lat="44.0579222" lon="10.2626136"><ele>810.2</ele><time>2026-04-04T10:28:11.616Z</time></trkpt><trkpt lat="44.0579336" lon="10.2624963"><ele>807.8</ele><time>2026-04-04T10:28:12.615Z</time></trkpt><trkpt lat="44.0579219" lon="10.2623814"><ele>805.4</ele><time>2026-04-04T10:28:13.614Z</time></trkpt><trkpt lat="44.0579154" lon="10.2622711"><ele>803.0</ele><time>2026-04-04T10:28:14.608Z</time></trkpt><trkpt lat="44.0579297" lon="10.2621345"><ele>801.4</ele><time>2026-04-04T10:28:15.61Z</time></trkpt><trkpt lat="44.0579586" lon="10.2619986"><ele>799.8</ele><time>2026-04-04T10:28:16.612Z</time></trkpt><trkpt lat="44.0580015" lon="10.2618634"><ele>798.2</ele><time>2026-04-04T10:28:17.611Z</time></trkpt><trkpt lat="44.0580501" lon="10.2617347"><ele>796.6</ele><time>2026-04-04T10:28:18.611Z</time></trkpt><trkpt lat="44.0580963" lon="10.2616086"><ele>795.0</ele><time>2026-04-04T10:28:19.612Z</time></trkpt><trkpt lat="44.0581442" lon="10.2614816"><ele>798.3333333333333</ele><time>2026-04-04T10:28:20.61Z</time></trkpt><trkpt lat="44.0581912" lon="10.2613263"><ele>801.6666666666666</ele><time>2026-04-04T10:28:21.616Z</time></trkpt><trkpt lat="44.0582274" lon="10.261101"><ele>805.0</ele><time>2026-04-04T10:28:22.618Z</time></trkpt><trkpt lat="44.0582568" lon="10.2608398"><ele>807.3333333333333</ele><time>2026-04-04T10:28:23.608Z</time></trkpt><trkpt lat="44.0582742" lon="10.2605902"><ele>809.6666666666667</ele><time>2026-04-04T10:28:24.61Z</time></trkpt><trkpt lat="44.0582525" lon="10.2603642"><ele>812.0</ele><time>2026-04-04T10:28:25.62Z</time></trkpt><trkpt lat="44.0582412" lon="10.2601592"><ele>812.0</ele><time>2026-04-04T10:28:26.62Z</time></trkpt><trkpt lat="44.0582726" lon="10.2599554"><ele>812.0</ele><time>2026-04-04T10:28:27.62Z</time></trkpt><trkpt lat="44.0583522" lon="10.2597708"><ele>812.0</ele><time>2026-04-04T10:28:28.623Z</time></trkpt><trkpt lat="44.0584313" lon="10.2595705"><ele>807.75</ele><time>2026-04-04T10:28:29.621Z</time></trkpt><trkpt lat="44.0584967" lon="10.2593816"><ele>803.5</ele><time>2026-04-04T10:28:30.616Z</time></trkpt><trkpt lat="44.0585706" lon="10.2592024"><ele>799.25</ele><time>2026-04-04T10:28:31.623Z</time></trkpt><trkpt lat="44.0586437" lon="10.2590242"><ele>795.0</ele><time>2026-04-04T10:28:32.622Z</time></trkpt><trkpt lat="44.0587282" lon="10.2588545"><ele>795.0</ele><time>2026-04-04T10:28:33.626Z</time></trkpt><trkpt lat="44.0588094" lon="10.258697"><ele>795.0</ele><time>2026-04-04T10:28:34.623Z</time></trkpt><trkpt lat="44.0589003" lon="10.2585675"><ele>795.0</ele><time>2026-04-04T10:28:35.626Z</time></trkpt><trkpt lat="44.0590138" lon="10.2584564"><ele>795.0</ele><time>2026-04-04T10:28:36.637Z</time></trkpt><trkpt lat="44.0591331" lon="10.2583652"><ele>795.5</ele><time>2026-04-04T10:28:37.626Z</time></trkpt><trkpt lat="44.0592431" lon="10.2582771"><ele>796.0</ele><time>2026-04-04T10:28:38.625Z</time></trkpt><trkpt lat="44.0593328" lon="10.2581594"><ele>796.5</ele><time>2026-04-04T10:28:39.627Z</time></trkpt><trkpt lat="44.0594084" lon="10.2580119"><ele>797.0</ele><time>2026-04-04T10:28:40.625Z</time></trkpt><trkpt lat="44.0594728" lon="10.257856"><ele>797.0</ele><time>2026-04-04T10:28:41.627Z</time></trkpt><trkpt lat="44.0595291" lon="10.257701"><ele>797.0</ele><time>2026-04-04T10:28:42.627Z</time></trkpt><trkpt lat="44.0595861" lon="10.2575426"><ele>797.0</ele><time>2026-04-04T10:28:43.629Z</time></trkpt><trkpt lat="44.059642" lon="10.2573949"><ele>797.0</ele><time>2026-04-04T10:28:44.621Z</time></trkpt><trkpt lat="44.0597033" lon="10.2572502"><ele>795.25</ele><time>2026-04-04T10:28:45.63Z</time></trkpt><trkpt lat="44.0597726" lon="10.2571122"><ele>793.5</ele><time>2026-04-04T10:28:46.621Z</time></trkpt><trkpt lat="44.0598494" lon="10.2569947"><ele>791.75</ele><time>2026-04-04T10:28:47.622Z</time></trkpt><trkpt lat="44.0599406" lon="10.2568997"><ele>790.0</ele><time>2026-04-04T10:28:48.621Z</time></trkpt><trkpt lat="44.0600467" lon="10.2568166"><ele>794.25</ele><time>2026-04-04T10:28:49.626Z</time></trkpt><trkpt lat="44.0601708" lon="10.2567526"><ele>798.5</ele><time>2026-04-04T10:28:50.617Z</time></trkpt><trkpt lat="44.0603155" lon="10.2567116"><ele>802.75</ele><time>2026-04-04T10:28:51.62Z</time></trkpt><trkpt lat="44.0604658" lon="10.2566843"><ele>807.0</ele><time>2026-04-04T10:28:52.614Z</time></trkpt><trkpt lat="44.0606075" lon="10.256667"><ele>807.0</ele><time>2026-04-04T10:28:53.607Z</time></trkpt><trkpt lat="44.0607431" lon="10.2566362"><ele>807.0</ele><time>2026-04-04T10:28:54.615Z</time></trkpt><trkpt lat="44.0608743" lon="10.2566054"><ele>807.0</ele><time>2026-04-04T10:28:55.612Z</time></trkpt><trkpt lat="44.0610131" lon="10.2565687"><ele>807.0</ele><time>2026-04-04T10:28:56.617Z</time></trkpt><trkpt lat="44.0611523" lon="10.256513"><ele>812.6</ele><time>2026-04-04T10:28:57.618Z</time></trkpt><trkpt lat="44.061264" lon="10.2564477"><ele>818.2</ele><time>2026-04-04T10:28:58.621Z</time></trkpt><trkpt lat="44.0613608" lon="10.2563764"><ele>823.8</ele><time>2026-04-04T10:28:59.617Z</time></trkpt><trkpt lat="44.0614224" lon="10.2562721"><ele>829.4</ele><time>2026-04-04T10:29:00.613Z</time></trkpt><trkpt lat="44.0614409" lon="10.2561542"><ele>835.0</ele><time>2026-04-04T10:29:01.619Z</time></trkpt><trkpt lat="44.0614267" lon="10.2560293"><ele>835.0</ele><time>2026-04-04T10:29:02.628Z</time></trkpt><trkpt lat="44.0613617" lon="10.255925"><ele>835.0</ele><time>2026-04-04T10:29:03.617Z</time></trkpt><trkpt lat="44.0612405" lon="10.2558329"><ele>835.0</ele><time>2026-04-04T10:29:04.621Z</time></trkpt><trkpt lat="44.0610855" lon="10.2557767"><ele>835.0</ele><time>2026-04-04T10:29:05.619Z</time></trkpt><trkpt lat="44.060937" lon="10.2557664"><ele>835.0</ele><time>2026-04-04T10:29:06.624Z</time></trkpt><trkpt lat="44.0607924" lon="10.2557304"><ele>835.0</ele><time>2026-04-04T10:29:07.627Z</time></trkpt><trkpt lat="44.0606698" lon="10.2556498"><ele>835.0</ele><time>2026-04-04T10:29:08.618Z</time></trkpt><trkpt lat="44.0605739" lon="10.2555056"><ele>835.0</ele><time>2026-04-04T10:29:09.638Z</time></trkpt><trkpt lat="44.0605164" lon="10.25534"><ele>828.75</ele><time>2026-04-04T10:29:10.621Z</time></trkpt><trkpt lat="44.0605267" lon="10.2551842"><ele>822.5</ele><time>2026-04-04T10:29:11.62Z</time></trkpt><trkpt lat="44.0605778" lon="10.2550517"><ele>816.25</ele><time>2026-04-04T10:29:12.621Z</time></trkpt><trkpt lat="44.0606405" lon="10.2549132"><ele>810.0</ele><time>2026-04-04T10:29:13.622Z</time></trkpt><trkpt lat="44.0607188" lon="10.2547726"><ele>819.3333333333333</ele><time>2026-04-04T10:29:14.626Z</time></trkpt><trkpt lat="44.0608012" lon="10.254615"><ele>828.6666666666666</ele><time>2026-04-04T10:29:15.628Z</time></trkpt><trkpt lat="44.060898" lon="10.2544467"><ele>838.0</ele><time>2026-04-04T10:29:16.622Z</time></trkpt><trkpt lat="44.0610022" lon="10.2542456"><ele>838.0</ele><time>2026-04-04T10:29:17.631Z</time></trkpt><trkpt lat="44.0611108" lon="10.2540363"><ele>838.0</ele><time>2026-04-04T10:29:18.631Z</time></trkpt><trkpt lat="44.0612258" lon="10.2538371"><ele>838.0</ele><time>2026-04-04T10:29:19.634Z</time></trkpt><trkpt lat="44.061344" lon="10.253626"><ele>838.0</ele><time>2026-04-04T10:29:20.626Z</time></trkpt><trkpt lat="44.0614834" lon="10.2534284"><ele>838.0</ele><time>2026-04-04T10:29:21.629Z</time></trkpt><trkpt lat="44.061647" lon="10.2532432"><ele>838.0</ele><time>2026-04-04T10:29:22.631Z</time></trkpt><trkpt lat="44.0618161" lon="10.2530665"><ele>846.3333333333333</ele><time>2026-04-04T10:29:23.622Z</time></trkpt><trkpt lat="44.061961" lon="10.2528835"><ele>854.6666666666667</ele><time>2026-04-04T10:29:24.62Z</time></trkpt><trkpt lat="44.0620688" lon="10.25272"><ele>863.0</ele><time>2026-04-04T10:29:25.621Z</time></trkpt><trkpt lat="44.0621466" lon="10.2525634"><ele>863.0</ele><time>2026-04-04T10:29:26.622Z</time></trkpt><trkpt lat="44.062203" lon="10.2523863"><ele>863.0</ele><time>2026-04-04T10:29:27.613Z</time></trkpt><trkpt lat="44.062215" lon="10.2522157"><ele>863.0</ele><time>2026-04-04T10:29:28.609Z</time></trkpt><trkpt lat="44.0621912" lon="10.2519621"><ele>863.0</ele><time>2026-04-04T10:29:29.617Z</time></trkpt><trkpt lat="44.0621655" lon="10.2517147"><ele>867.5</ele><time>2026-04-04T10:29:30.608Z</time></trkpt><trkpt lat="44.06218" lon="10.2514987"><ele>872.0</ele><time>2026-04-04T10:29:31.6Z</time></trkpt><trkpt lat="44.0622214" lon="10.2513144"><ele>876.5</ele><time>2026-04-04T10:29:32.606Z</time></trkpt><trkpt lat="44.0622995" lon="10.2511532"><ele>881.0</ele><time>2026-04-04T10:29:33.597Z</time></trkpt><trkpt lat="44.0624235" lon="10.2510483"><ele>885.6666666666667</ele><time>2026-04-04T10:29:34.605Z</time></trkpt><trkpt lat="44.0625741" lon="10.2510024"><ele>890.3333333333333</ele><time>2026-04-04T10:29:35.604Z</time></trkpt><trkpt lat="44.0627356" lon="10.2509753"><ele>895.0</ele><time>2026-04-04T10:29:36.595Z</time></trkpt><trkpt lat="44.0629041" lon="10.250935"><ele>895.0</ele><time>2026-04-04T10:29:37.601Z</time></trkpt><trkpt lat="44.0630449" lon="10.250808"><ele>895.0</ele><time>2026-04-04T10:29:38.615Z</time></trkpt><trkpt lat="44.063156" lon="10.2506234"><ele>895.0</ele><time>2026-04-04T10:29:39.603Z</time></trkpt><trkpt lat="44.0632634" lon="10.2504546"><ele>896.5</ele><time>2026-04-04T10:29:40.602Z</time></trkpt><trkpt lat="44.0633709" lon="10.250321"><ele>898.0</ele><time>2026-04-04T10:29:41.604Z</time></trkpt><trkpt lat="44.063468" lon="10.2502291"><ele>899.5</ele><time>2026-04-04T10:29:42.602Z</time></trkpt><trkpt lat="44.063591" lon="10.2502094"><ele>901.0</ele><time>2026-04-04T10:29:43.605Z</time></trkpt><trkpt lat="44.0637306" lon="10.2501947"><ele>901.0</ele><time>2026-04-04T10:29:44.603Z</time></trkpt><trkpt lat="44.0638706" lon="10.2501744"><ele>901.0</ele><time>2026-04-04T10:29:45.6Z</time></trkpt><trkpt lat="44.0640105" lon="10.2501511"><ele>901.0</ele><time>2026-04-04T10:29:46.603Z</time></trkpt><trkpt lat="44.0641579" lon="10.2501176"><ele>901.0</ele><time>2026-04-04T10:29:47.606Z</time></trkpt><trkpt lat="44.0642968" lon="10.2500972"><ele>900.5</ele><time>2026-04-04T10:29:48.601Z</time></trkpt><trkpt lat="44.0644197" lon="10.2501023"><ele>900.0</ele><time>2026-04-04T10:29:49.599Z</time></trkpt><trkpt lat="44.0645423" lon="10.2500926"><ele>899.5</ele><time>2026-04-04T10:29:50.607Z</time></trkpt><trkpt lat="44.0646475" lon="10.2499983"><ele>899.0</ele><time>2026-04-04T10:29:51.61Z</time></trkpt><trkpt lat="44.0647529" lon="10.2498408"><ele>904.0</ele><time>2026-04-04T10:29:52.617Z</time></trkpt><trkpt lat="44.0648464" lon="10.249673"><ele>909.0</ele><time>2026-04-04T10:29:53.602Z</time></trkpt><trkpt lat="44.0649405" lon="10.249512"><ele>914.0</ele><time>2026-04-04T10:29:54.607Z</time></trkpt><trkpt lat="44.0650623" lon="10.2493721"><ele>914.0</ele><time>2026-04-04T10:29:55.619Z</time></trkpt><trkpt lat="44.0652019" lon="10.249256"><ele>914.0</ele><time>2026-04-04T10:29:56.619Z</time></trkpt><trkpt lat="44.0653412" lon="10.2491481"><ele>914.0</ele><time>2026-04-04T10:29:57.607Z</time></trkpt><trkpt lat="44.0654679" lon="10.2490281"><ele>917.0</ele><time>2026-04-04T10:29:58.617Z</time></trkpt><trkpt lat="44.0655678" lon="10.2488953"><ele>920.0</ele><time>2026-04-04T10:29:59.644Z</time></trkpt><trkpt lat="44.0656762" lon="10.2488059"><ele>923.0</ele><time>2026-04-04T10:30:00.621Z</time></trkpt><trkpt lat="44.0657745" lon="10.2487597"><ele>926.0</ele><time>2026-04-04T10:30:01.606Z</time></trkpt><trkpt lat="44.0658777" lon="10.2487973"><ele>926.0</ele><time>2026-04-04T10:30:02.617Z</time></trkpt><trkpt lat="44.0660007" lon="10.2488559"><ele>925.9999999999999</ele><time>2026-04-04T10:30:03.611Z</time></trkpt><trkpt lat="44.0661094" lon="10.2489022"><ele>925.9999999999999</ele><time>2026-04-04T10:30:04.617Z</time></trkpt><trkpt lat="44.0661983" lon="10.2489227"><ele>926.0</ele><time>2026-04-04T10:30:05.618Z</time></trkpt><trkpt lat="44.0662827" lon="10.2489219"><ele>926.0</ele><time>2026-04-04T10:30:06.615Z</time></trkpt><trkpt lat="44.0663534" lon="10.248877"><ele>926.0</ele><time>2026-04-04T10:30:07.62Z</time></trkpt><trkpt lat="44.0663966" lon="10.2487697"><ele>925.9999999999999</ele><time>2026-04-04T10:30:08.623Z</time></trkpt><trkpt lat="44.0663935" lon="10.2486761"><ele>925.9999999999999</ele><time>2026-04-04T10:30:09.629Z</time></trkpt><trkpt lat="44.0663255" lon="10.2485904"><ele>926.0</ele><time>2026-04-04T10:30:10.613Z</time></trkpt><trkpt lat="44.0662029" lon="10.248561"><ele>926.0</ele><time>2026-04-04T10:30:11.618Z</time></trkpt><trkpt lat="44.0660267" lon="10.248561"><ele>926.0</ele><time>2026-04-04T10:30:12.617Z</time></trkpt><trkpt lat="44.0658125" lon="10.2486405"><ele>926.0</ele><time>2026-04-04T10:30:13.617Z</time></trkpt><trkpt lat="44.0655624" lon="10.2487417"><ele>920.0</ele><time>2026-04-04T10:30:14.618Z</time></trkpt><trkpt lat="44.0653139" lon="10.2488464"><ele>914.0</ele><time>2026-04-04T10:30:15.612Z</time></trkpt><trkpt lat="44.0650564" lon="10.2489627"><ele>915.3333333333334</ele><time>2026-04-04T10:30:16.62Z</time></trkpt><trkpt lat="44.0648256" lon="10.2490593"><ele>916.6666666666667</ele><time>2026-04-04T10:30:17.617Z</time></trkpt><trkpt lat="44.0646556" lon="10.2491286"><ele>918.0</ele><time>2026-04-04T10:30:18.607Z</time></trkpt><trkpt lat="44.0644961" lon="10.2491544"><ele>918.0</ele><time>2026-04-04T10:30:19.612Z</time></trkpt><trkpt lat="44.0643338" lon="10.2491232"><ele>918.0</ele><time>2026-04-04T10:30:20.6Z</time></trkpt><trkpt lat="44.0641699" lon="10.2490564"><ele>918.0</ele><time>2026-04-04T10:30:21.608Z</time></trkpt><trkpt lat="44.0640219" lon="10.2489383"><ele>935.3333333333333</ele><time>2026-04-04T10:30:22.606Z</time></trkpt><trkpt lat="44.0638762" lon="10.2488449"><ele>952.6666666666666</ele><time>2026-04-04T10:30:23.611Z</time></trkpt><trkpt lat="44.0637283" lon="10.2488517"><ele>970.0</ele><time>2026-04-04T10:30:24.602Z</time></trkpt><trkpt lat="44.0635595" lon="10.2489219"><ele>965.0</ele><time>2026-04-04T10:30:25.611Z</time></trkpt><trkpt lat="44.0634" lon="10.2490487"><ele>960.0</ele><time>2026-04-04T10:30:26.62Z</time></trkpt><trkpt lat="44.0632507" lon="10.2491194"><ele>955.0</ele><time>2026-04-04T10:30:27.606Z</time></trkpt><trkpt lat="44.063125" lon="10.2491924"><ele>955.0</ele><time>2026-04-04T10:30:28.606Z</time></trkpt><trkpt lat="44.0630186" lon="10.2492571"><ele>955.0</ele><time>2026-04-04T10:30:29.602Z</time></trkpt><trkpt lat="44.0629266" lon="10.2492891"><ele>955.0</ele><time>2026-04-04T10:30:30.612Z</time></trkpt><trkpt lat="44.062822" lon="10.2492593"><ele>955.0</ele><time>2026-04-04T10:30:31.604Z</time></trkpt><trkpt lat="44.0627245" lon="10.2492058"><ele>955.0</ele><time>2026-04-04T10:30:32.596Z</time></trkpt><trkpt lat="44.0626245" lon="10.2491564"><ele>955.0</ele><time>2026-04-04T10:30:33.597Z</time></trkpt><trkpt lat="44.0625263" lon="10.2491002"><ele>955.0</ele><time>2026-04-04T10:30:34.567Z</time></trkpt><trkpt lat="44.0624272" lon="10.2490466"><ele>955.0</ele><time>2026-04-04T10:30:35.57Z</time></trkpt><trkpt lat="44.0623287" lon="10.2489931"><ele>955.0</ele><time>2026-04-04T10:30:36.55Z</time></trkpt><trkpt lat="44.062231" lon="10.2489385"><ele>955.0</ele><time>2026-04-04T10:30:37.524Z</time></trkpt><trkpt lat="44.0592827" lon="10.2452644"><ele>952.3333333333333</ele><time>2026-04-04T10:30:52.62Z</time></trkpt><trkpt lat="44.059227" lon="10.2450116"><ele>949.6666666666667</ele><time>2026-04-04T10:30:53.613Z</time></trkpt><trkpt lat="44.0591929" lon="10.2447675"><ele>947.0</ele><time>2026-04-04T10:30:54.615Z</time></trkpt><trkpt lat="44.0591409" lon="10.2445422"><ele>947.0</ele><time>2026-04-04T10:30:55.616Z</time></trkpt><trkpt lat="44.0591214" lon="10.2443291"><ele>947.0</ele><time>2026-04-04T10:30:56.652Z</time></trkpt><trkpt lat="44.0591215" lon="10.244085"><ele>947.0</ele><time>2026-04-04T10:30:57.622Z</time></trkpt><trkpt lat="44.0591418" lon="10.2438299"><ele>949.3333333333334</ele><time>2026-04-04T10:30:58.624Z</time></trkpt><trkpt lat="44.0591711" lon="10.2435761"><ele>951.6666666666667</ele><time>2026-04-04T10:30:59.633Z</time></trkpt><trkpt lat="44.059184" lon="10.2433544"><ele>954.0</ele><time>2026-04-04T10:31:00.623Z</time></trkpt><trkpt lat="44.0591961" lon="10.2431152"><ele>954.6666666666667</ele><time>2026-04-04T10:31:01.621Z</time></trkpt><trkpt lat="44.0592058" lon="10.2428757"><ele>955.3333333333334</ele><time>2026-04-04T10:31:02.621Z</time></trkpt><trkpt lat="44.0592132" lon="10.2426391"><ele>956.0</ele><time>2026-04-04T10:31:03.626Z</time></trkpt><trkpt lat="44.0592211" lon="10.242401"><ele>957.3333333333334</ele><time>2026-04-04T10:31:04.625Z</time></trkpt><trkpt lat="44.0592293" lon="10.2421632"><ele>958.6666666666667</ele><time>2026-04-04T10:31:05.628Z</time></trkpt><trkpt lat="44.0592102" lon="10.2419274"><ele>960.0</ele><time>2026-04-04T10:31:06.627Z</time></trkpt><trkpt lat="44.0591855" lon="10.2416913"><ele>961.3333333333333</ele><time>2026-04-04T10:31:07.622Z</time></trkpt><trkpt lat="44.0591724" lon="10.2414627"><ele>962.6666666666666</ele><time>2026-04-04T10:31:08.621Z</time></trkpt><trkpt lat="44.0591834" lon="10.2412476"><ele>964.0</ele><time>2026-04-04T10:31:09.619Z</time></trkpt><trkpt lat="44.0592469" lon="10.2410707"><ele>964.0</ele><time>2026-04-04T10:31:10.622Z</time></trkpt><trkpt lat="44.059368" lon="10.2409065"><ele>964.0</ele><time>2026-04-04T10:31:11.64Z</time></trkpt><trkpt lat="44.0595078" lon="10.2407718"><ele>964.0</ele><time>2026-04-04T10:31:12.624Z</time></trkpt><trkpt lat="44.0596346" lon="10.2406122"><ele>967.6666666666666</ele><time>2026-04-04T10:31:13.623Z</time></trkpt><trkpt lat="44.0597229" lon="10.2404056"><ele>971.3333333333333</ele><time>2026-04-04T10:31:14.626Z</time></trkpt><trkpt lat="44.0597497" lon="10.2401774"><ele>975.0</ele><time>2026-04-04T10:31:15.624Z</time></trkpt><trkpt lat="44.0597223" lon="10.2399256"><ele>980.6666666666667</ele><time>2026-04-04T10:31:16.621Z</time></trkpt><trkpt lat="44.0597102" lon="10.2396866"><ele>986.3333333333334</ele><time>2026-04-04T10:31:17.616Z</time></trkpt><trkpt lat="44.0597362" lon="10.2394412"><ele>992.0</ele><time>2026-04-04T10:31:18.625Z</time></trkpt><trkpt lat="44.0598122" lon="10.2392146"><ele>992.0</ele><time>2026-04-04T10:31:19.624Z</time></trkpt><trkpt lat="44.05994" lon="10.2390112"><ele>992.0</ele><time>2026-04-04T10:31:20.622Z</time></trkpt><trkpt lat="44.060069" lon="10.2387879"><ele>992.0</ele><time>2026-04-04T10:31:21.62Z</time></trkpt><trkpt lat="44.060171" lon="10.2385048"><ele>993.5</ele><time>2026-04-04T10:31:22.626Z</time></trkpt><trkpt lat="44.0602522" lon="10.2381919"><ele>995.0</ele><time>2026-04-04T10:31:23.619Z</time></trkpt><trkpt lat="44.0603331" lon="10.2378783"><ele>999.0</ele><time>2026-04-04T10:31:24.631Z</time></trkpt><trkpt lat="44.0604192" lon="10.2375758"><ele>1003.0</ele><time>2026-04-04T10:31:25.624Z</time></trkpt><trkpt lat="44.0605387" lon="10.2373014"><ele>1008.0</ele><time>2026-04-04T10:31:26.625Z</time></trkpt><trkpt lat="44.060693" lon="10.2370629"><ele>1013.0</ele><time>2026-04-04T10:31:27.631Z</time></trkpt><trkpt lat="44.0608628" lon="10.2368405"><ele>1013.0</ele><time>2026-04-04T10:31:28.625Z</time></trkpt><trkpt lat="44.0610265" lon="10.2366025"><ele>1013.0</ele><time>2026-04-04T10:31:29.633Z</time></trkpt><trkpt lat="44.0611678" lon="10.236345"><ele>1022.0</ele><time>2026-04-04T10:31:30.631Z</time></trkpt><trkpt lat="44.0612893" lon="10.2360801"><ele>1031.0</ele><time>2026-04-04T10:31:31.628Z</time></trkpt><trkpt lat="44.0614183" lon="10.2358221"><ele>1031.0</ele><time>2026-04-04T10:31:32.623Z</time></trkpt><trkpt lat="44.0615465" lon="10.2355791"><ele>1031.0</ele><time>2026-04-04T10:31:33.616Z</time></trkpt><trkpt lat="44.0616663" lon="10.2353432"><ele>1031.0</ele><time>2026-04-04T10:31:34.626Z</time></trkpt><trkpt lat="44.0617775" lon="10.2351254"><ele>1031.0</ele><time>2026-04-04T10:31:35.621Z</time></trkpt><trkpt lat="44.0618858" lon="10.234911"><ele>1031.0</ele><time>2026-04-04T10:31:36.613Z</time></trkpt><trkpt lat="44.061988" lon="10.2347008"><ele>1031.0</ele><time>2026-04-04T10:31:37.627Z</time></trkpt><trkpt lat="44.0620831" lon="10.234486"><ele>1034.6666666666667</ele><time>2026-04-04T10:31:38.621Z</time></trkpt><trkpt lat="44.0621545" lon="10.2342298"><ele>1038.3333333333333</ele><time>2026-04-04T10:31:39.608Z</time></trkpt><trkpt lat="44.0622049" lon="10.2339799"><ele>1042.0</ele><time>2026-04-04T10:31:40.624Z</time></trkpt><trkpt lat="44.0622384" lon="10.2337353"><ele>1043.0</ele><time>2026-04-04T10:31:41.618Z</time></trkpt><trkpt lat="44.0623045" lon="10.2335317"><ele>1044.0</ele><time>2026-04-04T10:31:42.631Z</time></trkpt><trkpt lat="44.0623948" lon="10.2333814"><ele>1045.0</ele><time>2026-04-04T10:31:43.616Z</time></trkpt><trkpt lat="44.0625011" lon="10.2332667"><ele>1046.0</ele><time>2026-04-04T10:31:44.613Z</time></trkpt><trkpt lat="44.0626343" lon="10.2332226"><ele>1042.6666666666667</ele><time>2026-04-04T10:31:45.621Z</time></trkpt><trkpt lat="44.0627718" lon="10.2332387"><ele>1039.3333333333333</ele><time>2026-04-04T10:31:46.631Z</time></trkpt><trkpt lat="44.0629099" lon="10.2333302"><ele>1036.0</ele><time>2026-04-04T10:31:47.612Z</time></trkpt><trkpt lat="44.0630536" lon="10.23343"><ele>1036.0</ele><time>2026-04-04T10:31:48.612Z</time></trkpt><trkpt lat="44.0632146" lon="10.233536"><ele>1036.0</ele><time>2026-04-04T10:31:49.622Z</time></trkpt><trkpt lat="44.0633729" lon="10.23364"><ele>1036.0</ele><time>2026-04-04T10:31:50.627Z</time></trkpt><trkpt lat="44.0635284" lon="10.2337132"><ele>1039.0</ele><time>2026-04-04T10:31:51.628Z</time></trkpt><trkpt lat="44.0636746" lon="10.2337261"><ele>1042.0</ele><time>2026-04-04T10:31:52.628Z</time></trkpt><trkpt lat="44.0638188" lon="10.2336757"><ele>1045.0</ele><time>2026-04-04T10:31:53.625Z</time></trkpt><trkpt lat="44.0639523" lon="10.2335901"><ele>1048.0</ele><time>2026-04-04T10:31:54.634Z</time></trkpt><trkpt lat="44.0640436" lon="10.2334412"><ele>1048.0</ele><time>2026-04-04T10:31:55.629Z</time></trkpt><trkpt lat="44.0641101" lon="10.2332584"><ele>1048.0</ele><time>2026-04-04T10:31:56.625Z</time></trkpt><trkpt lat="44.0641557" lon="10.2330676"><ele>1048.0</ele><time>2026-04-04T10:31:57.618Z</time></trkpt><trkpt lat="44.0642086" lon="10.2328927"><ele>1048.0</ele><time>2026-04-04T10:31:58.625Z</time></trkpt><trkpt lat="44.0642594" lon="10.2327049"><ele>1057.0</ele><time>2026-04-04T10:31:59.599Z</time></trkpt><trkpt lat="44.0643079" lon="10.2324864"><ele>1066.0</ele><time>2026-04-04T10:32:00.579Z</time></trkpt><trkpt lat="44.0643489" lon="10.2322717"><ele>1075.0</ele><time>2026-04-04T10:32:01.57Z</time></trkpt><trkpt lat="44.0644041" lon="10.2320811"><ele>1071.5</ele><time>2026-04-04T10:32:02.568Z</time></trkpt><trkpt lat="44.0644556" lon="10.2318909"><ele>1068.0</ele><time>2026-04-04T10:32:03.554Z</time></trkpt><trkpt lat="44.0645067" lon="10.231707"><ele>1064.5</ele><time>2026-04-04T10:32:04.519Z</time></trkpt><trkpt lat="44.064558" lon="10.2315229"><ele>1061.0</ele><time>2026-04-04T10:32:05.497Z</time></trkpt><trkpt lat="44.0655955" lon="10.2249865"><ele>1061.0</ele><time>2026-04-04T10:32:32.603Z</time></trkpt><trkpt lat="44.0655598" lon="10.2249072"><ele>1061.0</ele><time>2026-04-04T10:32:35.606Z</time></trkpt></trkseg><trkseg><trkpt lat="44.0622511" lon="10.2191616"><ele>1067.0</ele><time>2026-04-04T10:59:21.687Z</time></trkpt><trkpt lat="44.0622876" lon="10.2187997"><ele>1062.0</ele><time>2026-04-04T10:59:24.654Z</time></trkpt><trkpt lat="44.0622979" lon="10.2186774"><ele>1057.0</ele><time>2026-04-04T10:59:25.63Z</time></trkpt><trkpt lat="44.0623096" lon="10.2185447"><ele>1052.0</ele><time>2026-04-04T10:59:26.643Z</time></trkpt><trkpt lat="44.0623489" lon="10.2183902"><ele>1052.0</ele><time>2026-04-04T10:59:27.646Z</time></trkpt><trkpt lat="44.0624321" lon="10.2182359"><ele>1052.0</ele><time>2026-04-04T10:59:28.658Z</time></trkpt><trkpt lat="44.0625331" lon="10.2180844"><ele>1052.0</ele><time>2026-04-04T10:59:29.659Z</time></trkpt><trkpt lat="44.0626222" lon="10.2179112"><ele>1052.0</ele><time>2026-04-04T10:59:30.656Z</time></trkpt><trkpt lat="44.0626909" lon="10.2177315"><ele>1038.0</ele><time>2026-04-04T10:59:31.648Z</time></trkpt><trkpt lat="44.0627573" lon="10.2175569"><ele>1024.0</ele><time>2026-04-04T10:59:32.636Z</time></trkpt><trkpt lat="44.0628248" lon="10.2173857"><ele>1010.0</ele><time>2026-04-04T10:59:33.644Z</time></trkpt><trkpt lat="44.0628596" lon="10.2171626"><ele>996.0</ele><time>2026-04-04T10:59:34.651Z</time></trkpt><trkpt lat="44.0628296" lon="10.2169398"><ele>984.3333333333333</ele><time>2026-04-04T10:59:35.656Z</time></trkpt><trkpt lat="44.0627068" lon="10.2167667"><ele>972.6666666666666</ele><time>2026-04-04T10:59:36.654Z</time></trkpt><trkpt lat="44.0626039" lon="10.216595"><ele>961.0</ele><time>2026-04-04T10:59:37.658Z</time></trkpt><trkpt lat="44.0625056" lon="10.2164398"><ele>942.0</ele><time>2026-04-04T10:59:38.654Z</time></trkpt><trkpt lat="44.0623807" lon="10.2163185"><ele>923.0</ele><time>2026-04-04T10:59:39.659Z</time></trkpt><trkpt lat="44.0621972" lon="10.2162912"><ele>904.0</ele><time>2026-04-04T10:59:40.751Z</time></trkpt><trkpt lat="44.0620016" lon="10.2164552"><ele>912.3333333333333</ele><time>2026-04-04T10:59:41.701Z</time></trkpt><trkpt lat="44.0618078" lon="10.2166441"><ele>920.6666666666667</ele><time>2026-04-04T10:59:42.691Z</time></trkpt><trkpt lat="44.0616511" lon="10.2168063"><ele>929.0</ele><time>2026-04-04T10:59:43.688Z</time></trkpt><trkpt lat="44.0615122" lon="10.2169649"><ele>929.0</ele><time>2026-04-04T10:59:44.696Z</time></trkpt><trkpt lat="44.0613591" lon="10.2170986"><ele>929.0</ele><time>2026-04-04T10:59:45.676Z</time></trkpt><trkpt lat="44.0612162" lon="10.2171974"><ele>929.0</ele><time>2026-04-04T10:59:46.671Z</time></trkpt><trkpt lat="44.0610746" lon="10.2172392"><ele>929.0</ele><time>2026-04-04T10:59:47.664Z</time></trkpt><trkpt lat="44.0609243" lon="10.2172463"><ele>929.0</ele><time>2026-04-04T10:59:48.663Z</time></trkpt><trkpt lat="44.0607638" lon="10.2172557"><ele>929.0</ele><time>2026-04-04T10:59:49.666Z</time></trkpt><trkpt lat="44.0606072" lon="10.2172719"><ele>930.25</ele><time>2026-04-04T10:59:50.667Z</time></trkpt><trkpt lat="44.0604654" lon="10.2172937"><ele>931.5</ele><time>2026-04-04T10:59:51.662Z</time></trkpt><trkpt lat="44.0603181" lon="10.2172967"><ele>932.75</ele><time>2026-04-04T10:59:52.668Z</time></trkpt><trkpt lat="44.060182" lon="10.2172555"><ele>934.0</ele><time>2026-04-04T10:59:53.669Z</time></trkpt><trkpt lat="44.0600531" lon="10.2171467"><ele>935.3333333333333</ele><time>2026-04-04T10:59:54.701Z</time></trkpt><trkpt lat="44.0599469" lon="10.2169773"><ele>936.6666666666667</ele><time>2026-04-04T10:59:55.669Z</time></trkpt><trkpt lat="44.059855" lon="10.2167863"><ele>938.0</ele><time>2026-04-04T10:59:56.666Z</time></trkpt><trkpt lat="44.0597574" lon="10.2166287"><ele>938.0</ele><time>2026-04-04T10:59:57.669Z</time></trkpt><trkpt lat="44.0596412" lon="10.2165177"><ele>938.0</ele><time>2026-04-04T10:59:58.66Z</time></trkpt><trkpt lat="44.0595132" lon="10.2164509"><ele>938.0</ele><time>2026-04-04T10:59:59.667Z</time></trkpt><trkpt lat="44.0593829" lon="10.2164467"><ele>938.0</ele><time>2026-04-04T11:00:00.666Z</time></trkpt><trkpt lat="44.0592485" lon="10.2164856"><ele>944.0</ele><time>2026-04-04T11:00:01.661Z</time></trkpt><trkpt lat="44.0591036" lon="10.216549"><ele>950.0</ele><time>2026-04-04T11:00:02.663Z</time></trkpt><trkpt lat="44.058955" lon="10.2166102"><ele>956.0</ele><time>2026-04-04T11:00:03.658Z</time></trkpt><trkpt lat="44.0588139" lon="10.2166434"><ele>956.0</ele><time>2026-04-04T11:00:04.659Z</time></trkpt><trkpt lat="44.0586863" lon="10.216636"><ele>956.0</ele><time>2026-04-04T11:00:05.665Z</time></trkpt><trkpt lat="44.058571" lon="10.216584"><ele>956.0</ele><time>2026-04-04T11:00:06.658Z</time></trkpt><trkpt lat="44.0584711" lon="10.2164953"><ele>956.0</ele><time>2026-04-04T11:00:07.659Z</time></trkpt><trkpt lat="44.0583941" lon="10.2163613"><ele>953.0</ele><time>2026-04-04T11:00:08.654Z</time></trkpt><trkpt lat="44.0583352" lon="10.2161929"><ele>950.0</ele><time>2026-04-04T11:00:09.662Z</time></trkpt><trkpt lat="44.058301" lon="10.2160007"><ele>947.0</ele><time>2026-04-04T11:00:10.661Z</time></trkpt><trkpt lat="44.0582741" lon="10.2158188"><ele>944.0</ele><time>2026-04-04T11:00:11.656Z</time></trkpt><trkpt lat="44.0582768" lon="10.2156303"><ele>940.75</ele><time>2026-04-04T11:00:12.658Z</time></trkpt><trkpt lat="44.0583168" lon="10.2154363"><ele>937.5</ele><time>2026-04-04T11:00:13.671Z</time></trkpt><trkpt lat="44.0583705" lon="10.2152644"><ele>934.25</ele><time>2026-04-04T11:00:14.676Z</time></trkpt><trkpt lat="44.0584001" lon="10.2150985"><ele>931.0</ele><time>2026-04-04T11:00:15.662Z</time></trkpt><trkpt lat="44.0584007" lon="10.2149238"><ele>928.5</ele><time>2026-04-04T11:00:16.665Z</time></trkpt><trkpt lat="44.058363" lon="10.2147509"><ele>926.0</ele><time>2026-04-04T11:00:17.682Z</time></trkpt><trkpt lat="44.0582926" lon="10.2145671"><ele>923.5</ele><time>2026-04-04T11:00:18.655Z</time></trkpt><trkpt lat="44.0582175" lon="10.2143686"><ele>921.0</ele><time>2026-04-04T11:00:19.653Z</time></trkpt><trkpt lat="44.0581567" lon="10.2141308"><ele>931.0</ele><time>2026-04-04T11:00:20.649Z</time></trkpt><trkpt lat="44.0581039" lon="10.2139231"><ele>941.0</ele><time>2026-04-04T11:00:21.645Z</time></trkpt><trkpt lat="44.0580455" lon="10.2137055"><ele>951.0</ele><time>2026-04-04T11:00:22.614Z</time></trkpt><trkpt lat="44.0579866" lon="10.2134859"><ele>951.0</ele><time>2026-04-04T11:00:23.6Z</time></trkpt><trkpt lat="44.0579383" lon="10.2133033"><ele>951.0</ele><time>2026-04-04T11:00:24.607Z</time></trkpt><trkpt lat="44.0579963" lon="10.2128591"><ele>935.5</ele><time>2026-04-04T11:00:25.641Z</time></trkpt><trkpt lat="44.0579041" lon="10.2124848"><ele>920.0</ele><time>2026-04-04T11:00:26.66Z</time></trkpt><trkpt lat="44.0578342" lon="10.2121394"><ele>912.6666666666667</ele><time>2026-04-04T11:00:27.668Z</time></trkpt><trkpt lat="44.0577419" lon="10.2118747"><ele>905.3333333333333</ele><time>2026-04-04T11:00:28.666Z</time></trkpt><trkpt lat="44.0576777" lon="10.2116258"><ele>898.0</ele><time>2026-04-04T11:00:29.665Z</time></trkpt><trkpt lat="44.0576155" lon="10.211429"><ele>893.25</ele><time>2026-04-04T11:00:30.68Z</time></trkpt><trkpt lat="44.0575399" lon="10.2112652"><ele>888.5</ele><time>2026-04-04T11:00:31.686Z</time></trkpt><trkpt lat="44.0574443" lon="10.2111437"><ele>883.75</ele><time>2026-04-04T11:00:32.689Z</time></trkpt><trkpt lat="44.0573339" lon="10.2110443"><ele>879.0</ele><time>2026-04-04T11:00:33.696Z</time></trkpt><trkpt lat="44.0572418" lon="10.2109011"><ele>874.6666666666667</ele><time>2026-04-04T11:00:34.689Z</time></trkpt><trkpt lat="44.0571902" lon="10.210706"><ele>870.3333333333334</ele><time>2026-04-04T11:00:35.683Z</time></trkpt><trkpt lat="44.0571465" lon="10.2104905"><ele>866.0</ele><time>2026-04-04T11:00:36.688Z</time></trkpt><trkpt lat="44.0571195" lon="10.2102546"><ele>866.0</ele><time>2026-04-04T11:00:37.692Z</time></trkpt><trkpt lat="44.0570839" lon="10.2100211"><ele>866.0</ele><time>2026-04-04T11:00:38.702Z</time></trkpt><trkpt lat="44.0570616" lon="10.2097903"><ele>866.0</ele><time>2026-04-04T11:00:39.689Z</time></trkpt><trkpt lat="44.0570286" lon="10.2095782"><ele>866.0</ele><time>2026-04-04T11:00:40.683Z</time></trkpt><trkpt lat="44.0569854" lon="10.2093786"><ele>866.0</ele><time>2026-04-04T11:00:41.668Z</time></trkpt><trkpt lat="44.0569353" lon="10.2091776"><ele>866.0</ele><time>2026-04-04T11:00:42.661Z</time></trkpt><trkpt lat="44.0569092" lon="10.2089628"><ele>876.0</ele><time>2026-04-04T11:00:43.635Z</time></trkpt><trkpt lat="44.0568875" lon="10.2087438"><ele>886.0</ele><time>2026-04-04T11:00:44.64Z</time></trkpt><trkpt lat="44.0568628" lon="10.208527"><ele>896.0</ele><time>2026-04-04T11:00:45.585Z</time></trkpt><trkpt lat="44.0569937" lon="10.208208"><ele>896.0</ele><time>2026-04-04T11:00:47.638Z</time></trkpt><trkpt lat="44.05718" lon="10.2082534"><ele>896.0</ele><time>2026-04-04T11:00:48.65Z</time></trkpt><trkpt lat="44.05737" lon="10.2081295"><ele>896.0</ele><time>2026-04-04T11:00:49.659Z</time></trkpt><trkpt lat="44.0575526" lon="10.2079867"><ele>890.25</ele><time>2026-04-04T11:00:50.663Z</time></trkpt><trkpt lat="44.0577032" lon="10.207855"><ele>884.5</ele><time>2026-04-04T11:00:51.666Z</time></trkpt><trkpt lat="44.0578071" lon="10.2077075"><ele>878.75</ele><time>2026-04-04T11:00:52.666Z</time></trkpt><trkpt lat="44.0578475" lon="10.207552"><ele>873.0</ele><time>2026-04-04T11:00:53.679Z</time></trkpt><trkpt lat="44.0578502" lon="10.2074046"><ele>869.75</ele><time>2026-04-04T11:00:54.675Z</time></trkpt><trkpt lat="44.0578328" lon="10.207227"><ele>866.5</ele><time>2026-04-04T11:00:55.682Z</time></trkpt><trkpt lat="44.0577928" lon="10.2070207"><ele>863.25</ele><time>2026-04-04T11:00:56.684Z</time></trkpt><trkpt lat="44.0577416" lon="10.2068151"><ele>860.0</ele><time>2026-04-04T11:00:57.685Z</time></trkpt><trkpt lat="44.0576981" lon="10.2066041"><ele>857.6666666666667</ele><time>2026-04-04T11:00:58.701Z</time></trkpt><trkpt lat="44.0576466" lon="10.2063865"><ele>855.3333333333333</ele><time>2026-04-04T11:00:59.698Z</time></trkpt><trkpt lat="44.0575994" lon="10.2061728"><ele>853.0</ele><time>2026-04-04T11:01:00.701Z</time></trkpt><trkpt lat="44.0575528" lon="10.2059699"><ele>853.0</ele><time>2026-04-04T11:01:01.694Z</time></trkpt><trkpt lat="44.0575069" lon="10.205754"><ele>853.0</ele><time>2026-04-04T11:01:02.699Z</time></trkpt><trkpt lat="44.0574897" lon="10.2055112"><ele>853.0</ele><time>2026-04-04T11:01:03.697Z</time></trkpt><trkpt lat="44.0575056" lon="10.2052591"><ele>850.0</ele><time>2026-04-04T11:01:04.694Z</time></trkpt><trkpt lat="44.0575281" lon="10.2050045"><ele>847.0</ele><time>2026-04-04T11:01:05.699Z</time></trkpt><trkpt lat="44.0575448" lon="10.2047461"><ele>844.0</ele><time>2026-04-04T11:01:06.696Z</time></trkpt><trkpt lat="44.0575664" lon="10.2044949"><ele>842.3333333333333</ele><time>2026-04-04T11:01:07.699Z</time></trkpt><trkpt lat="44.0575856" lon="10.2042368"><ele>840.6666666666667</ele><time>2026-04-04T11:01:08.701Z</time></trkpt><trkpt lat="44.0576027" lon="10.203974"><ele>839.0</ele><time>2026-04-04T11:01:09.709Z</time></trkpt><trkpt lat="44.0576169" lon="10.2037032"><ele>837.3333333333334</ele><time>2026-04-04T11:01:10.699Z</time></trkpt><trkpt lat="44.0576319" lon="10.203439"><ele>835.6666666666667</ele><time>2026-04-04T11:01:11.701Z</time></trkpt><trkpt lat="44.0576446" lon="10.2031735"><ele>834.0</ele><time>2026-04-04T11:01:12.698Z</time></trkpt><trkpt lat="44.0576454" lon="10.2029159"><ele>832.6666666666667</ele><time>2026-04-04T11:01:13.697Z</time></trkpt><trkpt lat="44.0576342" lon="10.2026723"><ele>831.3333333333334</ele><time>2026-04-04T11:01:14.706Z</time></trkpt><trkpt lat="44.057601" lon="10.2024557"><ele>830.0</ele><time>2026-04-04T11:01:15.704Z</time></trkpt><trkpt lat="44.0575689" lon="10.2022633"><ele>829.0</ele><time>2026-04-04T11:01:16.689Z</time></trkpt><trkpt lat="44.0575749" lon="10.2020922"><ele>828.0</ele><time>2026-04-04T11:01:17.695Z</time></trkpt><trkpt lat="44.0576192" lon="10.2019365"><ele>827.0</ele><time>2026-04-04T11:01:18.699Z</time></trkpt><trkpt lat="44.0576623" lon="10.201826"><ele>826.0</ele><time>2026-04-04T11:01:19.692Z</time></trkpt><trkpt lat="44.057691" lon="10.2017275"><ele>825.0</ele><time>2026-04-04T11:01:20.689Z</time></trkpt><trkpt lat="44.057696" lon="10.2016367"><ele>825.0</ele><time>2026-04-04T11:01:21.692Z</time></trkpt><trkpt lat="44.0576452" lon="10.2015727"><ele>825.0</ele><time>2026-04-04T11:01:22.7Z</time></trkpt><trkpt lat="44.0575679" lon="10.2015827"><ele>825.0</ele><time>2026-04-04T11:01:23.701Z</time></trkpt><trkpt lat="44.0575091" lon="10.2016832"><ele>825.0</ele><time>2026-04-04T11:01:24.703Z</time></trkpt><trkpt lat="44.0574806" lon="10.2018328"><ele>825.0</ele><time>2026-04-04T11:01:25.693Z</time></trkpt><trkpt lat="44.0574667" lon="10.2019867"><ele>825.0</ele><time>2026-04-04T11:01:26.697Z</time></trkpt><trkpt lat="44.0574535" lon="10.2021504"><ele>825.0</ele><time>2026-04-04T11:01:27.713Z</time></trkpt><trkpt lat="44.0574426" lon="10.2023381"><ele>825.0</ele><time>2026-04-04T11:01:28.709Z</time></trkpt><trkpt lat="44.0574291" lon="10.2025363"><ele>825.0</ele><time>2026-04-04T11:01:29.702Z</time></trkpt><trkpt lat="44.0574157" lon="10.2027546"><ele>807.0</ele><time>2026-04-04T11:01:30.708Z</time></trkpt><trkpt lat="44.0573949" lon="10.2030112"><ele>789.0</ele><time>2026-04-04T11:01:31.702Z</time></trkpt><trkpt lat="44.0573644" lon="10.2032781"><ele>771.0</ele><time>2026-04-04T11:01:32.703Z</time></trkpt><trkpt lat="44.05734" lon="10.2035418"><ele>771.0</ele><time>2026-04-04T11:01:33.706Z</time></trkpt><trkpt lat="44.0573026" lon="10.2037845"><ele>771.0</ele><time>2026-04-04T11:01:34.694Z</time></trkpt><trkpt lat="44.0572603" lon="10.2040167"><ele>771.0</ele><time>2026-04-04T11:01:35.7Z</time></trkpt><trkpt lat="44.0572214" lon="10.2042442"><ele>772.6666666666667</ele><time>2026-04-04T11:01:36.711Z</time></trkpt><trkpt lat="44.0571988" lon="10.2044596"><ele>774.3333333333334</ele><time>2026-04-04T11:01:37.705Z</time></trkpt><trkpt lat="44.0571583" lon="10.2046732"><ele>776.0</ele><time>2026-04-04T11:01:38.702Z</time></trkpt><trkpt lat="44.0570895" lon="10.2048789"><ele>780.6666666666667</ele><time>2026-04-04T11:01:39.704Z</time></trkpt><trkpt lat="44.0570118" lon="10.2050886"><ele>785.3333333333333</ele><time>2026-04-04T11:01:40.706Z</time></trkpt><trkpt lat="44.0569669" lon="10.2053194"><ele>790.0</ele><time>2026-04-04T11:01:41.704Z</time></trkpt><trkpt lat="44.0569307" lon="10.2055451"><ele>793.8</ele><time>2026-04-04T11:01:42.701Z</time></trkpt><trkpt lat="44.0568977" lon="10.2057357"><ele>797.6</ele><time>2026-04-04T11:01:43.703Z</time></trkpt><trkpt lat="44.056869" lon="10.205893"><ele>801.4000000000001</ele><time>2026-04-04T11:01:44.713Z</time></trkpt><trkpt lat="44.056843" lon="10.2060325"><ele>805.2</ele><time>2026-04-04T11:01:45.716Z</time></trkpt><trkpt lat="44.056812" lon="10.2061432"><ele>809.0</ele><time>2026-04-04T11:01:46.722Z</time></trkpt><trkpt lat="44.0566989" lon="10.2061883"><ele>809.0000000000001</ele><time>2026-04-04T11:01:48.712Z</time></trkpt><trkpt lat="44.05665" lon="10.2060812"><ele>809.0</ele><time>2026-04-04T11:01:49.719Z</time></trkpt><trkpt lat="44.0566397" lon="10.2059894"><ele>809.0</ele><time>2026-04-04T11:01:50.713Z</time></trkpt><trkpt lat="44.0566752" lon="10.2059032"><ele>809.0</ele><time>2026-04-04T11:01:51.702Z</time></trkpt><trkpt lat="44.0567332" lon="10.2058133"><ele>809.0000000000001</ele><time>2026-04-04T11:01:52.718Z</time></trkpt><trkpt lat="44.0568037" lon="10.2057054"><ele>809.0</ele><time>2026-04-04T11:01:53.708Z</time></trkpt><trkpt lat="44.0568427" lon="10.2055774"><ele>804.25</ele><time>2026-04-04T11:01:54.704Z</time></trkpt><trkpt lat="44.0568529" lon="10.2054065"><ele>799.5</ele><time>2026-04-04T11:01:55.707Z</time></trkpt><trkpt lat="44.0568583" lon="10.2052134"><ele>794.75</ele><time>2026-04-04T11:01:56.709Z</time></trkpt><trkpt lat="44.0568749" lon="10.2050117"><ele>790.0</ele><time>2026-04-04T11:01:57.7Z</time></trkpt><trkpt lat="44.056891" lon="10.2047815"><ele>785.3333333333333</ele><time>2026-04-04T11:01:58.704Z</time></trkpt><trkpt lat="44.0569202" lon="10.2045133"><ele>780.6666666666667</ele><time>2026-04-04T11:01:59.705Z</time></trkpt><trkpt lat="44.0569479" lon="10.2042324"><ele>776.0</ele><time>2026-04-04T11:02:00.708Z</time></trkpt><trkpt lat="44.0569651" lon="10.2039459"><ele>774.3333333333334</ele><time>2026-04-04T11:02:01.705Z</time></trkpt><trkpt lat="44.056977" lon="10.2036724"><ele>772.6666666666667</ele><time>2026-04-04T11:02:02.714Z</time></trkpt><trkpt lat="44.056987" lon="10.2034147"><ele>771.0</ele><time>2026-04-04T11:02:03.713Z</time></trkpt><trkpt lat="44.0570002" lon="10.203156"><ele>769.0</ele><time>2026-04-04T11:02:04.717Z</time></trkpt><trkpt lat="44.0570006" lon="10.2028757"><ele>767.0</ele><time>2026-04-04T11:02:05.736Z</time></trkpt><trkpt lat="44.056992" lon="10.202587"><ele>765.0</ele><time>2026-04-04T11:02:06.711Z</time></trkpt><trkpt lat="44.0569898" lon="10.2022795"><ele>764.0</ele><time>2026-04-04T11:02:07.713Z</time></trkpt><trkpt lat="44.0570048" lon="10.2019879"><ele>763.0</ele><time>2026-04-04T11:02:08.716Z</time></trkpt><trkpt lat="44.057026" lon="10.2017081"><ele>762.0</ele><time>2026-04-04T11:02:09.716Z</time></trkpt><trkpt lat="44.0570407" lon="10.201412"><ele>761.3333333333334</ele><time>2026-04-04T11:02:10.714Z</time></trkpt><trkpt lat="44.0570327" lon="10.2011136"><ele>760.6666666666667</ele><time>2026-04-04T11:02:11.709Z</time></trkpt><trkpt lat="44.0569953" lon="10.2008141"><ele>760.0</ele><time>2026-04-04T11:02:12.716Z</time></trkpt><trkpt lat="44.0569619" lon="10.20054"><ele>760.0</ele><time>2026-04-04T11:02:13.716Z</time></trkpt><trkpt lat="44.0569481" lon="10.2002771"><ele>760.0</ele><time>2026-04-04T11:02:14.722Z</time></trkpt><trkpt lat="44.0569594" lon="10.2000465"><ele>760.0</ele><time>2026-04-04T11:02:15.713Z</time></trkpt><trkpt lat="44.0569698" lon="10.1998624"><ele>762.0</ele><time>2026-04-04T11:02:16.716Z</time></trkpt><trkpt lat="44.0569662" lon="10.1997031"><ele>764.0</ele><time>2026-04-04T11:02:17.72Z</time></trkpt><trkpt lat="44.0569258" lon="10.1996191"><ele>766.0</ele><time>2026-04-04T11:02:18.703Z</time></trkpt><trkpt lat="44.0568364" lon="10.1996098"><ele>768.0</ele><time>2026-04-04T11:02:19.71Z</time></trkpt><trkpt lat="44.0567466" lon="10.1996905"><ele>770.0</ele><time>2026-04-04T11:02:20.715Z</time></trkpt><trkpt lat="44.0566945" lon="10.1998252"><ele>766.6666666666667</ele><time>2026-04-04T11:02:21.733Z</time></trkpt><trkpt lat="44.0566825" lon="10.1999993"><ele>763.3333333333334</ele><time>2026-04-04T11:02:22.722Z</time></trkpt><trkpt lat="44.056702" lon="10.2002358"><ele>760.0</ele><time>2026-04-04T11:02:23.722Z</time></trkpt><trkpt lat="44.056753" lon="10.2005493"><ele>759.6666666666667</ele><time>2026-04-04T11:02:24.706Z</time></trkpt><trkpt lat="44.0568017" lon="10.2008534"><ele>759.3333333333334</ele><time>2026-04-04T11:02:25.718Z</time></trkpt><trkpt lat="44.0568153" lon="10.2011278"><ele>759.0</ele><time>2026-04-04T11:02:26.716Z</time></trkpt><trkpt lat="44.0567859" lon="10.2014177"><ele>760.5</ele><time>2026-04-04T11:02:27.717Z</time></trkpt><trkpt lat="44.0567172" lon="10.2017461"><ele>762.0</ele><time>2026-04-04T11:02:28.708Z</time></trkpt><trkpt lat="44.0566609" lon="10.2020795"><ele>745.3333333333334</ele><time>2026-04-04T11:02:29.725Z</time></trkpt><trkpt lat="44.0566155" lon="10.2023897"><ele>728.6666666666667</ele><time>2026-04-04T11:02:30.712Z</time></trkpt><trkpt lat="44.0565733" lon="10.2026854"><ele>712.0</ele><time>2026-04-04T11:02:31.709Z</time></trkpt><trkpt lat="44.0565271" lon="10.2029859"><ele>714.6666666666667</ele><time>2026-04-04T11:02:32.713Z</time></trkpt><trkpt lat="44.0564844" lon="10.2032907"><ele>717.3333333333334</ele><time>2026-04-04T11:02:33.715Z</time></trkpt><trkpt lat="44.0564415" lon="10.2035876"><ele>720.0</ele><time>2026-04-04T11:02:34.714Z</time></trkpt><trkpt lat="44.0563926" lon="10.2038623"><ele>725.0</ele><time>2026-04-04T11:02:35.715Z</time></trkpt><trkpt lat="44.0563518" lon="10.2041133"><ele>730.0</ele><time>2026-04-04T11:02:36.704Z</time></trkpt><trkpt lat="44.0563209" lon="10.2043426"><ele>735.0</ele><time>2026-04-04T11:02:37.708Z</time></trkpt><trkpt lat="44.0562886" lon="10.2045492"><ele>735.0</ele><time>2026-04-04T11:02:38.717Z</time></trkpt><trkpt lat="44.056248" lon="10.2047197"><ele>735.0</ele><time>2026-04-04T11:02:39.708Z</time></trkpt><trkpt lat="44.0561863" lon="10.204874"><ele>735.0</ele><time>2026-04-04T11:02:40.705Z</time></trkpt><trkpt lat="44.0561021" lon="10.205015"><ele>735.0</ele><time>2026-04-04T11:02:41.711Z</time></trkpt><trkpt lat="44.0560106" lon="10.2051456"><ele>736.8</ele><time>2026-04-04T11:02:42.71Z</time></trkpt><trkpt lat="44.0559348" lon="10.205243"><ele>738.6</ele><time>2026-04-04T11:02:43.71Z</time></trkpt><trkpt lat="44.055865" lon="10.2052588"><ele>740.4000000000001</ele><time>2026-04-04T11:02:44.716Z</time></trkpt><trkpt lat="44.055789" lon="10.2051141"><ele>742.2</ele><time>2026-04-04T11:02:46.708Z</time></trkpt><trkpt lat="44.0557854" lon="10.204993"><ele>744.0</ele><time>2026-04-04T11:02:47.706Z</time></trkpt><trkpt lat="44.0558211" lon="10.2048643"><ele>741.0</ele><time>2026-04-04T11:02:48.717Z</time></trkpt><trkpt lat="44.0558965" lon="10.2047058"><ele>738.0</ele><time>2026-04-04T11:02:49.7Z</time></trkpt><trkpt lat="44.0559787" lon="10.2045241"><ele>735.0</ele><time>2026-04-04T11:02:50.699Z</time></trkpt><trkpt lat="44.0560684" lon="10.2043277"><ele>735.0</ele><time>2026-04-04T11:02:51.707Z</time></trkpt><trkpt lat="44.0561489" lon="10.2041129"><ele>735.0</ele><time>2026-04-04T11:02:52.704Z</time></trkpt><trkpt lat="44.0561937" lon="10.2038716"><ele>735.0</ele><time>2026-04-04T11:02:53.702Z</time></trkpt><trkpt lat="44.0562213" lon="10.2036067"><ele>730.0</ele><time>2026-04-04T11:02:54.704Z</time></trkpt><trkpt lat="44.0562365" lon="10.2033184"><ele>725.0</ele><time>2026-04-04T11:02:55.704Z</time></trkpt><trkpt lat="44.0562442" lon="10.2030042"><ele>720.0</ele><time>2026-04-04T11:02:56.69Z</time></trkpt><trkpt lat="44.0562568" lon="10.2026745"><ele>717.3333333333334</ele><time>2026-04-04T11:02:57.707Z</time></trkpt><trkpt lat="44.0562632" lon="10.2023627"><ele>714.6666666666667</ele><time>2026-04-04T11:02:58.706Z</time></trkpt><trkpt lat="44.056271" lon="10.2020707"><ele>712.0</ele><time>2026-04-04T11:02:59.729Z</time></trkpt><trkpt lat="44.0562716" lon="10.2017839"><ele>708.0</ele><time>2026-04-04T11:03:00.739Z</time></trkpt><trkpt lat="44.0562695" lon="10.2014874"><ele>704.0</ele><time>2026-04-04T11:03:01.727Z</time></trkpt><trkpt lat="44.0562714" lon="10.201184"><ele>700.0</ele><time>2026-04-04T11:03:02.706Z</time></trkpt><trkpt lat="44.0562568" lon="10.2008673"><ele>700.0</ele><time>2026-04-04T11:03:03.711Z</time></trkpt><trkpt lat="44.056226" lon="10.2005355"><ele>700.0</ele><time>2026-04-04T11:03:04.699Z</time></trkpt><trkpt lat="44.0561913" lon="10.2002108"><ele>700.0</ele><time>2026-04-04T11:03:05.709Z</time></trkpt><trkpt lat="44.0561617" lon="10.1999085"><ele>700.0</ele><time>2026-04-04T11:03:06.715Z</time></trkpt><trkpt lat="44.0561316" lon="10.1996323"><ele>700.0</ele><time>2026-04-04T11:03:07.716Z</time></trkpt><trkpt lat="44.0561069" lon="10.199355"><ele>697.3333333333334</ele><time>2026-04-04T11:03:08.716Z</time></trkpt><trkpt lat="44.0560918" lon="10.1990753"><ele>694.6666666666666</ele><time>2026-04-04T11:03:09.709Z</time></trkpt><trkpt lat="44.0560898" lon="10.1988041"><ele>692.0</ele><time>2026-04-04T11:03:10.715Z</time></trkpt><trkpt lat="44.0561115" lon="10.1985489"><ele>689.75</ele><time>2026-04-04T11:03:11.712Z</time></trkpt><trkpt lat="44.0561545" lon="10.1983116"><ele>687.5</ele><time>2026-04-04T11:03:12.711Z</time></trkpt><trkpt lat="44.0562065" lon="10.1981073"><ele>685.25</ele><time>2026-04-04T11:03:13.714Z</time></trkpt><trkpt lat="44.0562644" lon="10.1979649"><ele>683.0</ele><time>2026-04-04T11:03:14.719Z</time></trkpt><trkpt lat="44.0563053" lon="10.1978546"><ele>683.0</ele><time>2026-04-04T11:03:15.708Z</time></trkpt><trkpt lat="44.0561949" lon="10.1977382"><ele>683.0</ele><time>2026-04-04T11:03:17.706Z</time></trkpt><trkpt lat="44.056097" lon="10.1977788"><ele>683.0</ele><time>2026-04-04T11:03:18.713Z</time></trkpt><trkpt lat="44.0560315" lon="10.1978514"><ele>683.0</ele><time>2026-04-04T11:03:19.724Z</time></trkpt><trkpt lat="44.0559878" lon="10.1979784"><ele>683.0</ele><time>2026-04-04T11:03:20.714Z</time></trkpt><trkpt lat="44.0559535" lon="10.1981771"><ele>683.0</ele><time>2026-04-04T11:03:21.716Z</time></trkpt><trkpt lat="44.0559203" lon="10.1984352"><ele>683.0</ele><time>2026-04-04T11:03:22.715Z</time></trkpt><trkpt lat="44.0558876" lon="10.1987773"><ele>683.0</ele><time>2026-04-04T11:03:23.718Z</time></trkpt><trkpt lat="44.0558793" lon="10.1991697"><ele>687.5</ele><time>2026-04-04T11:03:24.713Z</time></trkpt><trkpt lat="44.0558602" lon="10.199524"><ele>692.0</ele><time>2026-04-04T11:03:25.721Z</time></trkpt><trkpt lat="44.055853" lon="10.1998564"><ele>696.0</ele><time>2026-04-04T11:03:26.711Z</time></trkpt><trkpt lat="44.0558369" lon="10.2001885"><ele>700.0</ele><time>2026-04-04T11:03:27.723Z</time></trkpt><trkpt lat="44.0558075" lon="10.2005133"><ele>684.6666666666667</ele><time>2026-04-04T11:03:28.72Z</time></trkpt><trkpt lat="44.0557774" lon="10.2008148"><ele>669.3333333333334</ele><time>2026-04-04T11:03:29.726Z</time></trkpt><trkpt lat="44.0557506" lon="10.2011049"><ele>654.0</ele><time>2026-04-04T11:03:30.721Z</time></trkpt><trkpt lat="44.0557193" lon="10.201392"><ele>655.3333333333334</ele><time>2026-04-04T11:03:31.718Z</time></trkpt><trkpt lat="44.0556709" lon="10.2016836"><ele>656.6666666666667</ele><time>2026-04-04T11:03:32.706Z</time></trkpt><trkpt lat="44.055612" lon="10.2019859"><ele>658.0</ele><time>2026-04-04T11:03:33.712Z</time></trkpt><trkpt lat="44.0555476" lon="10.2022809"><ele>662.6666666666667</ele><time>2026-04-04T11:03:34.711Z</time></trkpt><trkpt lat="44.0554882" lon="10.2025582"><ele>667.3333333333334</ele><time>2026-04-04T11:03:35.708Z</time></trkpt><trkpt lat="44.0554337" lon="10.20281"><ele>672.0</ele><time>2026-04-04T11:03:36.71Z</time></trkpt><trkpt lat="44.0553841" lon="10.2030244"><ele>674.8</ele><time>2026-04-04T11:03:37.702Z</time></trkpt><trkpt lat="44.0553384" lon="10.2032174"><ele>677.6</ele><time>2026-04-04T11:03:38.716Z</time></trkpt><trkpt lat="44.0552981" lon="10.2033797"><ele>680.4</ele><time>2026-04-04T11:03:39.714Z</time></trkpt><trkpt lat="44.0552615" lon="10.2034923"><ele>683.1999999999999</ele><time>2026-04-04T11:03:40.702Z</time></trkpt><trkpt lat="44.0552026" lon="10.2035625"><ele>686.0</ele><time>2026-04-04T11:03:41.714Z</time></trkpt><trkpt lat="44.0551159" lon="10.2035625"><ele>686.0</ele><time>2026-04-04T11:03:42.703Z</time></trkpt><trkpt lat="44.0550464" lon="10.2034617"><ele>686.0</ele><time>2026-04-04T11:03:43.712Z</time></trkpt><trkpt lat="44.055056" lon="10.2033379"><ele>686.0</ele><time>2026-04-04T11:03:44.711Z</time></trkpt><trkpt lat="44.0551176" lon="10.2031818"><ele>686.0</ele><time>2026-04-04T11:03:45.705Z</time></trkpt><trkpt lat="44.0551932" lon="10.2029984"><ele>681.3333333333333</ele><time>2026-04-04T11:03:46.711Z</time></trkpt><trkpt lat="44.0552801" lon="10.2027471"><ele>676.6666666666666</ele><time>2026-04-04T11:03:47.705Z</time></trkpt><trkpt lat="44.0553525" lon="10.2024426"><ele>672.0</ele><time>2026-04-04T11:03:48.717Z</time></trkpt><trkpt lat="44.0553968" lon="10.2020795"><ele>665.0</ele><time>2026-04-04T11:03:49.711Z</time></trkpt><trkpt lat="44.0553997" lon="10.2017004"><ele>658.0</ele><time>2026-04-04T11:03:50.713Z</time></trkpt><trkpt lat="44.0553942" lon="10.2013268"><ele>656.0</ele><time>2026-04-04T11:03:51.706Z</time></trkpt><trkpt lat="44.0553875" lon="10.2009433"><ele>654.0</ele><time>2026-04-04T11:03:52.717Z</time></trkpt><trkpt lat="44.0553849" lon="10.2005591"><ele>648.5</ele><time>2026-04-04T11:03:53.71Z</time></trkpt><trkpt lat="44.0553841" lon="10.2001856"><ele>643.0</ele><time>2026-04-04T11:03:54.71Z</time></trkpt><trkpt lat="44.0553788" lon="10.1998259"><ele>640.0</ele><time>2026-04-04T11:03:55.714Z</time></trkpt><trkpt lat="44.0553717" lon="10.1994851"><ele>637.0</ele><time>2026-04-04T11:03:56.726Z</time></trkpt><trkpt lat="44.0553813" lon="10.199163"><ele>630.5</ele><time>2026-04-04T11:03:57.711Z</time></trkpt><trkpt lat="44.0554004" lon="10.1988378"><ele>624.0</ele><time>2026-04-04T11:03:58.714Z</time></trkpt><trkpt lat="44.0554289" lon="10.1985077"><ele>624.0</ele><time>2026-04-04T11:03:59.707Z</time></trkpt><trkpt lat="44.0554678" lon="10.1981912"><ele>624.0</ele><time>2026-04-04T11:04:00.719Z</time></trkpt><trkpt lat="44.0554986" lon="10.1979155"><ele>624.0</ele><time>2026-04-04T11:04:01.716Z</time></trkpt><trkpt lat="44.0555277" lon="10.1976921"><ele>618.0</ele><time>2026-04-04T11:04:02.717Z</time></trkpt><trkpt lat="44.0555739" lon="10.1974931"><ele>612.0</ele><time>2026-04-04T11:04:03.71Z</time></trkpt><trkpt lat="44.0556556" lon="10.1972988"><ele>606.0</ele><time>2026-04-04T11:04:04.703Z</time></trkpt><trkpt lat="44.0557826" lon="10.197114"><ele>618.0</ele><time>2026-04-04T11:04:05.708Z</time></trkpt><trkpt lat="44.0559109" lon="10.1969299"><ele>630.0</ele><time>2026-04-04T11:04:06.705Z</time></trkpt><trkpt lat="44.0560364" lon="10.1967509"><ele>642.0</ele><time>2026-04-04T11:04:07.688Z</time></trkpt><trkpt lat="44.0561559" lon="10.1965806"><ele>636.0</ele><time>2026-04-04T11:04:08.67Z</time></trkpt><trkpt lat="44.0562703" lon="10.1964239"><ele>630.0</ele><time>2026-04-04T11:04:09.658Z</time></trkpt><trkpt lat="44.0563881" lon="10.1962474"><ele>624.0</ele><time>2026-04-04T11:04:10.633Z</time></trkpt><trkpt lat="44.0564438" lon="10.1961323"><ele>618.0</ele><time>2026-04-04T11:04:11.669Z</time></trkpt><trkpt lat="44.0564303" lon="10.1959474"><ele>618.0</ele><time>2026-04-04T11:04:12.693Z</time></trkpt><trkpt lat="44.0563849" lon="10.1957047"><ele>618.0</ele><time>2026-04-04T11:04:13.683Z</time></trkpt><trkpt lat="44.0563086" lon="10.1954843"><ele>618.0</ele><time>2026-04-04T11:04:14.698Z</time></trkpt><trkpt lat="44.0562349" lon="10.1952144"><ele>616.0</ele><time>2026-04-04T11:04:15.688Z</time></trkpt><trkpt lat="44.0562022" lon="10.1949761"><ele>614.0</ele><time>2026-04-04T11:04:16.695Z</time></trkpt><trkpt lat="44.0562117" lon="10.1947279"><ele>612.0</ele><time>2026-04-04T11:04:17.722Z</time></trkpt><trkpt lat="44.0562487" lon="10.1944918"><ele>609.0</ele><time>2026-04-04T11:04:18.702Z</time></trkpt><trkpt lat="44.0562997" lon="10.1942523"><ele>606.0</ele><time>2026-04-04T11:04:19.704Z</time></trkpt><trkpt lat="44.056381" lon="10.1940051"><ele>603.0</ele><time>2026-04-04T11:04:20.703Z</time></trkpt><trkpt lat="44.0564759" lon="10.1937955"><ele>607.6666666666666</ele><time>2026-04-04T11:04:21.716Z</time></trkpt><trkpt lat="44.0565527" lon="10.1935929"><ele>612.3333333333333</ele><time>2026-04-04T11:04:22.703Z</time></trkpt><trkpt lat="44.0566321" lon="10.193402"><ele>617.0</ele><time>2026-04-04T11:04:23.706Z</time></trkpt><trkpt lat="44.0567242" lon="10.1932443"><ele>611.0</ele><time>2026-04-04T11:04:24.704Z</time></trkpt><trkpt lat="44.0568292" lon="10.1931281"><ele>605.0</ele><time>2026-04-04T11:04:25.708Z</time></trkpt><trkpt lat="44.0569625" lon="10.1930537"><ele>599.0</ele><time>2026-04-04T11:04:26.7Z</time></trkpt><trkpt lat="44.0571301" lon="10.1930122"><ele>593.0</ele><time>2026-04-04T11:04:27.707Z</time></trkpt><trkpt lat="44.0572956" lon="10.1929725"><ele>593.0</ele><time>2026-04-04T11:04:28.701Z</time></trkpt><trkpt lat="44.0574514" lon="10.1928919"><ele>593.0</ele><time>2026-04-04T11:04:29.717Z</time></trkpt><trkpt lat="44.0575776" lon="10.1927606"><ele>593.0</ele><time>2026-04-04T11:04:30.709Z</time></trkpt><trkpt lat="44.0576864" lon="10.1925925"><ele>590.6666666666666</ele><time>2026-04-04T11:04:31.7Z</time></trkpt><trkpt lat="44.0577554" lon="10.1923779"><ele>588.3333333333334</ele><time>2026-04-04T11:04:32.699Z</time></trkpt><trkpt lat="44.0577969" lon="10.1921415"><ele>586.0</ele><time>2026-04-04T11:04:33.705Z</time></trkpt><trkpt lat="44.0578278" lon="10.191891"><ele>586.0</ele><time>2026-04-04T11:04:34.704Z</time></trkpt><trkpt lat="44.0578641" lon="10.1916417"><ele>586.0</ele><time>2026-04-04T11:04:35.703Z</time></trkpt><trkpt lat="44.0579078" lon="10.1914064"><ele>586.0</ele><time>2026-04-04T11:04:36.703Z</time></trkpt><trkpt lat="44.0579263" lon="10.1911747"><ele>586.3333333333334</ele><time>2026-04-04T11:04:37.691Z</time></trkpt><trkpt lat="44.0579171" lon="10.1909356"><ele>586.6666666666666</ele><time>2026-04-04T11:04:38.723Z</time></trkpt><trkpt lat="44.0578909" lon="10.1907137"><ele>587.0</ele><time>2026-04-04T11:04:39.702Z</time></trkpt><trkpt lat="44.0578504" lon="10.1905073"><ele>587.5</ele><time>2026-04-04T11:04:40.705Z</time></trkpt><trkpt lat="44.0577797" lon="10.1903588"><ele>588.0</ele><time>2026-04-04T11:04:41.7Z</time></trkpt><trkpt lat="44.0576735" lon="10.1902359"><ele>588.5</ele><time>2026-04-04T11:04:42.695Z</time></trkpt><trkpt lat="44.0575667" lon="10.1901305"><ele>589.0</ele><time>2026-04-04T11:04:43.698Z</time></trkpt><trkpt lat="44.0575006" lon="10.1899753"><ele>587.0</ele><time>2026-04-04T11:04:44.697Z</time></trkpt><trkpt lat="44.0574853" lon="10.1897938"><ele>585.0</ele><time>2026-04-04T11:04:45.701Z</time></trkpt><trkpt lat="44.0575208" lon="10.1895638"><ele>583.0</ele><time>2026-04-04T11:04:46.699Z</time></trkpt><trkpt lat="44.057555" lon="10.1893549"><ele>583.0</ele><time>2026-04-04T11:04:47.704Z</time></trkpt><trkpt lat="44.0576052" lon="10.1891769"><ele>583.0</ele><time>2026-04-04T11:04:48.711Z</time></trkpt><trkpt lat="44.0577061" lon="10.1890185"><ele>583.0</ele><time>2026-04-04T11:04:49.71Z</time></trkpt><trkpt lat="44.0578346" lon="10.1888577"><ele>575.6666666666667</ele><time>2026-04-04T11:04:50.696Z</time></trkpt><trkpt lat="44.0579348" lon="10.1886712"><ele>568.3333333333334</ele><time>2026-04-04T11:04:51.706Z</time></trkpt><trkpt lat="44.0580118" lon="10.1884407"><ele>561.0</ele><time>2026-04-04T11:04:52.707Z</time></trkpt><trkpt lat="44.0580606" lon="10.1881719"><ele>553.6666666666666</ele><time>2026-04-04T11:04:53.716Z</time></trkpt><trkpt lat="44.0580981" lon="10.1878945"><ele>546.3333333333333</ele><time>2026-04-04T11:04:54.713Z</time></trkpt><trkpt lat="44.0581401" lon="10.187639"><ele>539.0</ele><time>2026-04-04T11:04:55.714Z</time></trkpt><trkpt lat="44.0581822" lon="10.1873754"><ele>533.0</ele><time>2026-04-04T11:04:56.716Z</time></trkpt><trkpt lat="44.0582241" lon="10.187121"><ele>527.0</ele><time>2026-04-04T11:04:57.715Z</time></trkpt><trkpt lat="44.0582626" lon="10.186893"><ele>521.0</ele><time>2026-04-04T11:04:58.712Z</time></trkpt><trkpt lat="44.0583036" lon="10.186694"><ele>522.25</ele><time>2026-04-04T11:04:59.716Z</time></trkpt><trkpt lat="44.0583645" lon="10.1865131"><ele>523.5</ele><time>2026-04-04T11:05:00.716Z</time></trkpt><trkpt lat="44.0584558" lon="10.1863663"><ele>524.75</ele><time>2026-04-04T11:05:01.716Z</time></trkpt><trkpt lat="44.0585866" lon="10.1862866"><ele>526.0</ele><time>2026-04-04T11:05:02.713Z</time></trkpt><trkpt lat="44.0587452" lon="10.1862268"><ele>526.0</ele><time>2026-04-04T11:05:03.709Z</time></trkpt><trkpt lat="44.0589092" lon="10.1861579"><ele>526.0</ele><time>2026-04-04T11:05:04.714Z</time></trkpt><trkpt lat="44.0590752" lon="10.1860714"><ele>526.0</ele><time>2026-04-04T11:05:05.713Z</time></trkpt><trkpt lat="44.0592369" lon="10.1859834"><ele>536.3333333333334</ele><time>2026-04-04T11:05:06.712Z</time></trkpt><trkpt lat="44.0593889" lon="10.1859014"><ele>546.6666666666666</ele><time>2026-04-04T11:05:07.708Z</time></trkpt><trkpt lat="44.059547" lon="10.1858224"><ele>557.0</ele><time>2026-04-04T11:05:08.713Z</time></trkpt><trkpt lat="44.05969" lon="10.1857413"><ele>557.0</ele><time>2026-04-04T11:05:09.714Z</time></trkpt><trkpt lat="44.0598335" lon="10.185679"><ele>557.0</ele><time>2026-04-04T11:05:10.706Z</time></trkpt><trkpt lat="44.0599744" lon="10.1856711"><ele>557.0</ele><time>2026-04-04T11:05:11.738Z</time></trkpt><trkpt lat="44.0600945" lon="10.1856969"><ele>557.0</ele><time>2026-04-04T11:05:12.706Z</time></trkpt><trkpt lat="44.0601999" lon="10.1856806"><ele>552.4</ele><time>2026-04-04T11:05:13.709Z</time></trkpt><trkpt lat="44.0602541" lon="10.1856093"><ele>547.8000000000001</ele><time>2026-04-04T11:05:14.748Z</time></trkpt><trkpt lat="44.0602551" lon="10.1855013"><ele>543.2</ele><time>2026-04-04T11:05:15.735Z</time></trkpt><trkpt lat="44.0601925" lon="10.1853931"><ele>538.6</ele><time>2026-04-04T11:05:16.716Z</time></trkpt><trkpt lat="44.0600765" lon="10.1853323"><ele>534.0</ele><time>2026-04-04T11:05:17.717Z</time></trkpt><trkpt lat="44.0599599" lon="10.1853487"><ele>527.0</ele><time>2026-04-04T11:05:18.711Z</time></trkpt><trkpt lat="44.0598417" lon="10.1854078"><ele>520.0</ele><time>2026-04-04T11:05:19.721Z</time></trkpt><trkpt lat="44.059703" lon="10.1854947"><ele>513.0</ele><time>2026-04-04T11:05:20.719Z</time></trkpt><trkpt lat="44.0595443" lon="10.1855749"><ele>506.0</ele><time>2026-04-04T11:05:21.72Z</time></trkpt><trkpt lat="44.0593465" lon="10.1856513"><ele>512.6666666666666</ele><time>2026-04-04T11:05:22.734Z</time></trkpt><trkpt lat="44.0591609" lon="10.185696"><ele>519.3333333333334</ele><time>2026-04-04T11:05:23.72Z</time></trkpt><trkpt lat="44.0589816" lon="10.1857768"><ele>526.0</ele><time>2026-04-04T11:05:24.723Z</time></trkpt><trkpt lat="44.0588126" lon="10.1858759"><ele>526.0</ele><time>2026-04-04T11:05:25.714Z</time></trkpt><trkpt lat="44.0586414" lon="10.1859455"><ele>526.0</ele><time>2026-04-04T11:05:26.723Z</time></trkpt><trkpt lat="44.0584741" lon="10.1859806"><ele>526.0</ele><time>2026-04-04T11:05:27.721Z</time></trkpt><trkpt lat="44.0583166" lon="10.1860067"><ele>516.0</ele><time>2026-04-04T11:05:28.724Z</time></trkpt><trkpt lat="44.0581595" lon="10.1860704"><ele>506.0</ele><time>2026-04-04T11:05:29.726Z</time></trkpt><trkpt lat="44.0580252" lon="10.1861847"><ele>496.0</ele><time>2026-04-04T11:05:30.716Z</time></trkpt><trkpt lat="44.0579109" lon="10.1863314"><ele>496.0</ele><time>2026-04-04T11:05:31.709Z</time></trkpt><trkpt lat="44.0578176" lon="10.1865001"><ele>496.0</ele><time>2026-04-04T11:05:32.712Z</time></trkpt><trkpt lat="44.0577359" lon="10.1866846"><ele>496.0</ele><time>2026-04-04T11:05:33.711Z</time></trkpt><trkpt lat="44.0576497" lon="10.1868913"><ele>496.33333333333337</ele><time>2026-04-04T11:05:34.711Z</time></trkpt><trkpt lat="44.0575652" lon="10.1871288"><ele>496.66666666666663</ele><time>2026-04-04T11:05:35.714Z</time></trkpt><trkpt lat="44.0574795" lon="10.18738"><ele>497.0</ele><time>2026-04-04T11:05:36.711Z</time></trkpt><trkpt lat="44.0573864" lon="10.1876328"><ele>497.0</ele><time>2026-04-04T11:05:37.717Z</time></trkpt><trkpt lat="44.0573003" lon="10.1878626"><ele>497.0</ele><time>2026-04-04T11:05:38.711Z</time></trkpt><trkpt lat="44.0572202" lon="10.1880578"><ele>497.0</ele><time>2026-04-04T11:05:39.717Z</time></trkpt><trkpt lat="44.0571316" lon="10.1882297"><ele>503.0</ele><time>2026-04-04T11:05:40.708Z</time></trkpt><trkpt lat="44.0570078" lon="10.1883851"><ele>509.0</ele><time>2026-04-04T11:05:41.713Z</time></trkpt><trkpt lat="44.0568639" lon="10.1885004"><ele>515.0</ele><time>2026-04-04T11:05:42.705Z</time></trkpt><trkpt lat="44.0567257" lon="10.1886066"><ele>515.0</ele><time>2026-04-04T11:05:43.713Z</time></trkpt><trkpt lat="44.0566217" lon="10.1887193"><ele>515.0</ele><time>2026-04-04T11:05:44.718Z</time></trkpt><trkpt lat="44.0565236" lon="10.1888312"><ele>515.0</ele><time>2026-04-04T11:05:45.716Z</time></trkpt><trkpt lat="44.0564414" lon="10.1889679"><ele>515.0</ele><time>2026-04-04T11:05:46.709Z</time></trkpt><trkpt lat="44.05638" lon="10.1891294"><ele>501.66666666666663</ele><time>2026-04-04T11:05:47.717Z</time></trkpt><trkpt lat="44.0563385" lon="10.1893108"><ele>488.33333333333337</ele><time>2026-04-04T11:05:48.715Z</time></trkpt><trkpt lat="44.0563516" lon="10.1895411"><ele>475.0</ele><time>2026-04-04T11:05:49.719Z</time></trkpt><trkpt lat="44.0564136" lon="10.1898125"><ele>474.6666666666667</ele><time>2026-04-04T11:05:50.713Z</time></trkpt><trkpt lat="44.0564845" lon="10.1900685"><ele>474.33333333333337</ele><time>2026-04-04T11:05:51.711Z</time></trkpt><trkpt lat="44.0565502" lon="10.1902869"><ele>474.0</ele><time>2026-04-04T11:05:52.707Z</time></trkpt><trkpt lat="44.0566245" lon="10.1904795"><ele>488.25</ele><time>2026-04-04T11:05:53.726Z</time></trkpt><trkpt lat="44.0567057" lon="10.1906589"><ele>502.5</ele><time>2026-04-04T11:05:54.702Z</time></trkpt><trkpt lat="44.0567783" lon="10.1908072"><ele>516.75</ele><time>2026-04-04T11:05:55.717Z</time></trkpt><trkpt lat="44.0568228" lon="10.1909435"><ele>531.0</ele><time>2026-04-04T11:05:56.705Z</time></trkpt><trkpt lat="44.0568236" lon="10.191072"><ele>531.25</ele><time>2026-04-04T11:05:57.706Z</time></trkpt><trkpt lat="44.0567543" lon="10.1911555"><ele>531.5</ele><time>2026-04-04T11:05:58.703Z</time></trkpt><trkpt lat="44.056629" lon="10.1910631"><ele>531.75</ele><time>2026-04-04T11:06:00.698Z</time></trkpt><trkpt lat="44.0565863" lon="10.1909336"><ele>532.0</ele><time>2026-04-04T11:06:01.692Z</time></trkpt><trkpt lat="44.0565676" lon="10.1907605"><ele>512.6666666666667</ele><time>2026-04-04T11:06:02.7Z</time></trkpt><trkpt lat="44.0565413" lon="10.1905198"><ele>493.33333333333337</ele><time>2026-04-04T11:06:03.705Z</time></trkpt><trkpt lat="44.0564915" lon="10.1902915"><ele>474.0</ele><time>2026-04-04T11:06:04.711Z</time></trkpt><trkpt lat="44.0564038" lon="10.1900164"><ele>474.33333333333337</ele><time>2026-04-04T11:06:05.707Z</time></trkpt><trkpt lat="44.0563121" lon="10.1897629"><ele>474.6666666666667</ele><time>2026-04-04T11:06:06.713Z</time></trkpt><trkpt lat="44.0562367" lon="10.1895535"><ele>475.0</ele><time>2026-04-04T11:06:07.702Z</time></trkpt><trkpt lat="44.056184" lon="10.1893626"><ele>475.0</ele><time>2026-04-04T11:06:08.704Z</time></trkpt><trkpt lat="44.0561641" lon="10.1891724"><ele>475.0</ele><time>2026-04-04T11:06:09.698Z</time></trkpt><trkpt lat="44.056184" lon="10.1889574"><ele>475.0</ele><time>2026-04-04T11:06:10.698Z</time></trkpt><trkpt lat="44.0562502" lon="10.1887446"><ele>473.75</ele><time>2026-04-04T11:06:11.706Z</time></trkpt><trkpt lat="44.0563195" lon="10.1885587"><ele>472.5</ele><time>2026-04-04T11:06:12.706Z</time></trkpt><trkpt lat="44.0563874" lon="10.188404"><ele>471.25</ele><time>2026-04-04T11:06:13.703Z</time></trkpt><trkpt lat="44.0564755" lon="10.1882955"><ele>470.0</ele><time>2026-04-04T11:06:14.711Z</time></trkpt><trkpt lat="44.056596" lon="10.188207"><ele>476.75</ele><time>2026-04-04T11:06:15.706Z</time></trkpt><trkpt lat="44.0567302" lon="10.1881359"><ele>483.5</ele><time>2026-04-04T11:06:16.716Z</time></trkpt><trkpt lat="44.0568399" lon="10.1880451"><ele>490.25</ele><time>2026-04-04T11:06:17.737Z</time></trkpt><trkpt lat="44.0569198" lon="10.1878972"><ele>497.0</ele><time>2026-04-04T11:06:18.711Z</time></trkpt><trkpt lat="44.0569819" lon="10.1877068"><ele>497.0</ele><time>2026-04-04T11:06:19.716Z</time></trkpt><trkpt lat="44.0570237" lon="10.187474"><ele>497.0</ele><time>2026-04-04T11:06:20.712Z</time></trkpt><trkpt lat="44.0570601" lon="10.1872007"><ele>497.0</ele><time>2026-04-04T11:06:21.708Z</time></trkpt><trkpt lat="44.0571057" lon="10.1869475"><ele>490.3333333333333</ele><time>2026-04-04T11:06:22.717Z</time></trkpt><trkpt lat="44.0571646" lon="10.1867203"><ele>483.66666666666663</ele><time>2026-04-04T11:06:23.711Z</time></trkpt><trkpt lat="44.0572225" lon="10.1864895"><ele>477.0</ele><time>2026-04-04T11:06:24.729Z</time></trkpt><trkpt lat="44.0572638" lon="10.1862515"><ele>474.5</ele><time>2026-04-04T11:06:25.713Z</time></trkpt><trkpt lat="44.0573038" lon="10.1860324"><ele>472.0</ele><time>2026-04-04T11:06:26.707Z</time></trkpt><trkpt lat="44.0573524" lon="10.1858383"><ele>469.5</ele><time>2026-04-04T11:06:27.714Z</time></trkpt><trkpt lat="44.0573942" lon="10.1856831"><ele>467.0</ele><time>2026-04-04T11:06:28.711Z</time></trkpt><trkpt lat="44.0574541" lon="10.1855368"><ele>467.0</ele><time>2026-04-04T11:06:29.716Z</time></trkpt><trkpt lat="44.0575482" lon="10.1854265"><ele>467.0</ele><time>2026-04-04T11:06:30.713Z</time></trkpt><trkpt lat="44.0576787" lon="10.1853302"><ele>467.0</ele><time>2026-04-04T11:06:31.707Z</time></trkpt><trkpt lat="44.0578464" lon="10.1852494"><ele>467.0</ele><time>2026-04-04T11:06:32.716Z</time></trkpt><trkpt lat="44.0580135" lon="10.1851625"><ele>467.0</ele><time>2026-04-04T11:06:33.707Z</time></trkpt><trkpt lat="44.0581751" lon="10.1850885"><ele>467.0</ele><time>2026-04-04T11:06:34.708Z</time></trkpt><trkpt lat="44.0583428" lon="10.1850198"><ele>467.0</ele><time>2026-04-04T11:06:35.736Z</time></trkpt><trkpt lat="44.0585052" lon="10.1849358"><ele>460.0</ele><time>2026-04-04T11:06:36.727Z</time></trkpt><trkpt lat="44.0586597" lon="10.1848445"><ele>453.0</ele><time>2026-04-04T11:06:37.736Z</time></trkpt><trkpt lat="44.0588152" lon="10.1847583"><ele>446.0</ele><time>2026-04-04T11:06:38.734Z</time></trkpt><trkpt lat="44.0589642" lon="10.1846361"><ele>446.0</ele><time>2026-04-04T11:06:39.731Z</time></trkpt><trkpt lat="44.0591061" lon="10.1844926"><ele>446.0</ele><time>2026-04-04T11:06:40.738Z</time></trkpt><trkpt lat="44.0592363" lon="10.1843405"><ele>446.0</ele><time>2026-04-04T11:06:41.736Z</time></trkpt><trkpt lat="44.0593619" lon="10.1841934"><ele>447.5</ele><time>2026-04-04T11:06:42.736Z</time></trkpt><trkpt lat="44.0594825" lon="10.1840552"><ele>449.0</ele><time>2026-04-04T11:06:43.716Z</time></trkpt><trkpt lat="44.0596011" lon="10.1839275"><ele>450.5</ele><time>2026-04-04T11:06:44.717Z</time></trkpt><trkpt lat="44.0596881" lon="10.1837976"><ele>452.0</ele><time>2026-04-04T11:06:45.713Z</time></trkpt><trkpt lat="44.0597399" lon="10.1836369"><ele>452.0</ele><time>2026-04-04T11:06:46.721Z</time></trkpt><trkpt lat="44.0597301" lon="10.1834645"><ele>452.0</ele><time>2026-04-04T11:06:47.712Z</time></trkpt><trkpt lat="44.0596571" lon="10.1832867"><ele>452.0</ele><time>2026-04-04T11:06:48.711Z</time></trkpt><trkpt lat="44.0595477" lon="10.1831326"><ele>452.0</ele><time>2026-04-04T11:06:49.715Z</time></trkpt><trkpt lat="44.059484" lon="10.1829703"><ele>450.0</ele><time>2026-04-04T11:06:50.714Z</time></trkpt><trkpt lat="44.0594696" lon="10.1828142"><ele>448.0</ele><time>2026-04-04T11:06:51.727Z</time></trkpt><trkpt lat="44.0595085" lon="10.1826683"><ele>446.0</ele><time>2026-04-04T11:06:52.711Z</time></trkpt><trkpt lat="44.059602" lon="10.1825293"><ele>444.0</ele><time>2026-04-04T11:06:53.715Z</time></trkpt><trkpt lat="44.0597009" lon="10.1823756"><ele>448.0</ele><time>2026-04-04T11:06:54.707Z</time></trkpt><trkpt lat="44.0598031" lon="10.1822002"><ele>452.0</ele><time>2026-04-04T11:06:55.725Z</time></trkpt><trkpt lat="44.0599056" lon="10.1820155"><ele>456.0</ele><time>2026-04-04T11:06:56.716Z</time></trkpt><trkpt lat="44.0600055" lon="10.1818415"><ele>456.0</ele><time>2026-04-04T11:06:57.718Z</time></trkpt><trkpt lat="44.0600974" lon="10.1816719"><ele>456.0</ele><time>2026-04-04T11:06:58.71Z</time></trkpt><trkpt lat="44.0601775" lon="10.1814934"><ele>456.0</ele><time>2026-04-04T11:06:59.72Z</time></trkpt><trkpt lat="44.060238" lon="10.1812886"><ele>450.33333333333337</ele><time>2026-04-04T11:07:00.72Z</time></trkpt><trkpt lat="44.0602687" lon="10.1810666"><ele>444.6666666666667</ele><time>2026-04-04T11:07:01.72Z</time></trkpt><trkpt lat="44.0602895" lon="10.1808358"><ele>439.0</ele><time>2026-04-04T11:07:02.724Z</time></trkpt><trkpt lat="44.0602741" lon="10.1805988"><ele>434.6666666666667</ele><time>2026-04-04T11:07:03.717Z</time></trkpt><trkpt lat="44.060242" lon="10.1803661"><ele>430.33333333333337</ele><time>2026-04-04T11:07:04.715Z</time></trkpt><trkpt lat="44.0602109" lon="10.180152"><ele>426.0</ele><time>2026-04-04T11:07:05.716Z</time></trkpt><trkpt lat="44.0601647" lon="10.1799635"><ele>422.5</ele><time>2026-04-04T11:07:06.719Z</time></trkpt><trkpt lat="44.0601327" lon="10.1797923"><ele>419.0</ele><time>2026-04-04T11:07:07.715Z</time></trkpt><trkpt lat="44.0601406" lon="10.1796164"><ele>415.5</ele><time>2026-04-04T11:07:08.723Z</time></trkpt><trkpt lat="44.0601886" lon="10.1794985"><ele>412.0</ele><time>2026-04-04T11:07:09.721Z</time></trkpt><trkpt lat="44.0602839" lon="10.17944"><ele>412.0</ele><time>2026-04-04T11:07:10.713Z</time></trkpt><trkpt lat="44.060404" lon="10.1794278"><ele>412.0</ele><time>2026-04-04T11:07:11.707Z</time></trkpt><trkpt lat="44.0605423" lon="10.1794735"><ele>412.0</ele><time>2026-04-04T11:07:12.728Z</time></trkpt><trkpt lat="44.0607026" lon="10.179489"><ele>412.0</ele><time>2026-04-04T11:07:13.727Z</time></trkpt><trkpt lat="44.0608466" lon="10.1794794"><ele>416.5</ele><time>2026-04-04T11:07:14.738Z</time></trkpt><trkpt lat="44.0609477" lon="10.1794251"><ele>421.0</ele><time>2026-04-04T11:07:15.759Z</time></trkpt><trkpt lat="44.0610141" lon="10.1793049"><ele>425.5</ele><time>2026-04-04T11:07:16.74Z</time></trkpt><trkpt lat="44.0610496" lon="10.1791596"><ele>430.0</ele><time>2026-04-04T11:07:17.717Z</time></trkpt><trkpt lat="44.06102" lon="10.1789752"><ele>430.0</ele><time>2026-04-04T11:07:18.701Z</time></trkpt><trkpt lat="44.0609796" lon="10.1787657"><ele>430.0</ele><time>2026-04-04T11:07:19.712Z</time></trkpt><trkpt lat="44.0609404" lon="10.1785301"><ele>430.0</ele><time>2026-04-04T11:07:20.706Z</time></trkpt><trkpt lat="44.0609179" lon="10.1782935"><ele>424.0</ele><time>2026-04-04T11:07:21.698Z</time></trkpt><trkpt lat="44.0609005" lon="10.1780563"><ele>418.0</ele><time>2026-04-04T11:07:22.704Z</time></trkpt><trkpt lat="44.0608752" lon="10.1778263"><ele>412.0</ele><time>2026-04-04T11:07:23.712Z</time></trkpt><trkpt lat="44.0608484" lon="10.1776399"><ele>412.0</ele><time>2026-04-04T11:07:24.709Z</time></trkpt><trkpt lat="44.0608409" lon="10.1774662"><ele>412.0</ele><time>2026-04-04T11:07:25.71Z</time></trkpt><trkpt lat="44.0609046" lon="10.1773153"><ele>412.0</ele><time>2026-04-04T11:07:26.734Z</time></trkpt><trkpt lat="44.061009" lon="10.1772008"><ele>412.0</ele><time>2026-04-04T11:07:27.714Z</time></trkpt><trkpt lat="44.0610793" lon="10.1770427"><ele>408.0</ele><time>2026-04-04T11:07:28.713Z</time></trkpt><trkpt lat="44.0611098" lon="10.1768334"><ele>404.0</ele><time>2026-04-04T11:07:29.74Z</time></trkpt><trkpt lat="44.061122" lon="10.1766172"><ele>400.0</ele><time>2026-04-04T11:07:30.718Z</time></trkpt><trkpt lat="44.0611036" lon="10.1763989"><ele>398.25</ele><time>2026-04-04T11:07:31.741Z</time></trkpt><trkpt lat="44.0610731" lon="10.1761842"><ele>396.5</ele><time>2026-04-04T11:07:32.716Z</time></trkpt><trkpt lat="44.0610607" lon="10.1759861"><ele>394.75</ele><time>2026-04-04T11:07:33.717Z</time></trkpt><trkpt lat="44.0610555" lon="10.1757992"><ele>393.0</ele><time>2026-04-04T11:07:34.72Z</time></trkpt><trkpt lat="44.0610428" lon="10.1756307"><ele>390.6666666666667</ele><time>2026-04-04T11:07:35.717Z</time></trkpt><trkpt lat="44.0610443" lon="10.1754934"><ele>388.3333333333333</ele><time>2026-04-04T11:07:36.722Z</time></trkpt><trkpt lat="44.0610839" lon="10.1753905"><ele>386.0</ele><time>2026-04-04T11:07:37.728Z</time></trkpt><trkpt lat="44.061134" lon="10.1752674"><ele>383.66666666666663</ele><time>2026-04-04T11:07:39.726Z</time></trkpt><trkpt lat="44.0610522" lon="10.1752223"><ele>381.3333333333333</ele><time>2026-04-04T11:07:41.723Z</time></trkpt><trkpt lat="44.0609999" lon="10.1752832"><ele>379.0</ele><time>2026-04-04T11:07:42.742Z</time></trkpt><trkpt lat="44.0609712" lon="10.1754007"><ele>379.0</ele><time>2026-04-04T11:07:43.727Z</time></trkpt><trkpt lat="44.0609616" lon="10.1755561"><ele>379.0</ele><time>2026-04-04T11:07:44.715Z</time></trkpt><trkpt lat="44.0609467" lon="10.1757478"><ele>379.0</ele><time>2026-04-04T11:07:45.726Z</time></trkpt><trkpt lat="44.0609215" lon="10.1759616"><ele>379.0</ele><time>2026-04-04T11:07:46.715Z</time></trkpt><trkpt lat="44.0609093" lon="10.1762061"><ele>383.66666666666663</ele><time>2026-04-04T11:07:47.712Z</time></trkpt><trkpt lat="44.0609039" lon="10.1764771"><ele>388.3333333333333</ele><time>2026-04-04T11:07:48.716Z</time></trkpt><trkpt lat="44.0609041" lon="10.1767303"><ele>393.0</ele><time>2026-04-04T11:07:49.716Z</time></trkpt><trkpt lat="44.0608894" lon="10.1769475"><ele>394.75</ele><time>2026-04-04T11:07:50.712Z</time></trkpt><trkpt lat="44.0608448" lon="10.1771375"><ele>396.5</ele><time>2026-04-04T11:07:51.713Z</time></trkpt><trkpt lat="44.0607553" lon="10.1772561"><ele>398.25</ele><time>2026-04-04T11:07:52.715Z</time></trkpt><trkpt lat="44.0606525" lon="10.1773524"><ele>400.0</ele><time>2026-04-04T11:07:53.709Z</time></trkpt><trkpt lat="44.0605876" lon="10.1774731"><ele>394.5</ele><time>2026-04-04T11:07:54.719Z</time></trkpt><trkpt lat="44.0605738" lon="10.1776121"><ele>389.0</ele><time>2026-04-04T11:07:55.702Z</time></trkpt><trkpt lat="44.0605795" lon="10.177772"><ele>383.5</ele><time>2026-04-04T11:07:56.705Z</time></trkpt><trkpt lat="44.0605912" lon="10.1779734"><ele>378.0</ele><time>2026-04-04T11:07:57.722Z</time></trkpt><trkpt lat="44.0605844" lon="10.1781867"><ele>378.0</ele><time>2026-04-04T11:07:58.705Z</time></trkpt><trkpt lat="44.0605633" lon="10.1784219"><ele>378.0</ele><time>2026-04-04T11:07:59.716Z</time></trkpt><trkpt lat="44.0605505" lon="10.1786361"><ele>378.0</ele><time>2026-04-04T11:08:00.721Z</time></trkpt><trkpt lat="44.0605452" lon="10.1788113"><ele>378.0</ele><time>2026-04-04T11:08:01.717Z</time></trkpt><trkpt lat="44.0605263" lon="10.178945"><ele>378.0</ele><time>2026-04-04T11:08:02.714Z</time></trkpt><trkpt lat="44.0604724" lon="10.1790322"><ele>378.0</ele><time>2026-04-04T11:08:03.706Z</time></trkpt><trkpt lat="44.0603779" lon="10.1790314"><ele>378.0</ele><time>2026-04-04T11:08:04.718Z</time></trkpt><trkpt lat="44.0602994" lon="10.1790128"><ele>378.0</ele><time>2026-04-04T11:08:05.701Z</time></trkpt><trkpt lat="44.0601137" lon="10.1788952"><ele>378.0</ele><time>2026-04-04T11:08:06.698Z</time></trkpt><trkpt lat="44.0599899" lon="10.1787758"><ele>378.0</ele><time>2026-04-04T11:08:07.693Z</time></trkpt><trkpt lat="44.059895" lon="10.1786884"><ele>378.0</ele><time>2026-04-04T11:08:08.69Z</time></trkpt><trkpt lat="44.0598107" lon="10.1786867"><ele>378.0</ele><time>2026-04-04T11:08:09.701Z</time></trkpt><trkpt lat="44.0597464" lon="10.1787302"><ele>378.0</ele><time>2026-04-04T11:08:10.722Z</time></trkpt><trkpt lat="44.059688" lon="10.1788345"><ele>375.25</ele><time>2026-04-04T11:08:11.71Z</time></trkpt><trkpt lat="44.0596237" lon="10.1789992"><ele>372.5</ele><time>2026-04-04T11:08:12.715Z</time></trkpt><trkpt lat="44.0595773" lon="10.1791884"><ele>369.75</ele><time>2026-04-04T11:08:13.712Z</time></trkpt><trkpt lat="44.0595333" lon="10.1793875"><ele>367.0</ele><time>2026-04-04T11:08:14.708Z</time></trkpt><trkpt lat="44.0594892" lon="10.1795919"><ele>367.0</ele><time>2026-04-04T11:08:15.713Z</time></trkpt><trkpt lat="44.0594415" lon="10.1797792"><ele>367.0</ele><time>2026-04-04T11:08:16.722Z</time></trkpt><trkpt lat="44.0593931" lon="10.1799558"><ele>367.0</ele><time>2026-04-04T11:08:17.71Z</time></trkpt><trkpt lat="44.0593358" lon="10.1801221"><ele>367.0</ele><time>2026-04-04T11:08:18.714Z</time></trkpt><trkpt lat="44.0592788" lon="10.1802869"><ele>368.5</ele><time>2026-04-04T11:08:19.709Z</time></trkpt><trkpt lat="44.0592054" lon="10.180433"><ele>370.0</ele><time>2026-04-04T11:08:20.715Z</time></trkpt><trkpt lat="44.0591134" lon="10.1805547"><ele>371.5</ele><time>2026-04-04T11:08:21.713Z</time></trkpt><trkpt lat="44.0590092" lon="10.1806656"><ele>373.0</ele><time>2026-04-04T11:08:22.72Z</time></trkpt><trkpt lat="44.0588987" lon="10.1807727"><ele>373.0</ele><time>2026-04-04T11:08:23.717Z</time></trkpt><trkpt lat="44.0587821" lon="10.1808747"><ele>373.0</ele><time>2026-04-04T11:08:24.724Z</time></trkpt><trkpt lat="44.0586502" lon="10.1809631"><ele>373.0</ele><time>2026-04-04T11:08:25.724Z</time></trkpt><trkpt lat="44.0585065" lon="10.1810421"><ele>373.0</ele><time>2026-04-04T11:08:26.709Z</time></trkpt><trkpt lat="44.0583585" lon="10.1811221"><ele>368.0</ele><time>2026-04-04T11:08:27.72Z</time></trkpt><trkpt lat="44.0582208" lon="10.1811917"><ele>363.0</ele><time>2026-04-04T11:08:28.749Z</time></trkpt><trkpt lat="44.058083" lon="10.1812582"><ele>358.0</ele><time>2026-04-04T11:08:29.72Z</time></trkpt><trkpt lat="44.0579541" lon="10.1813191"><ele>353.0</ele><time>2026-04-04T11:08:30.722Z</time></trkpt><trkpt lat="44.0578367" lon="10.1813789"><ele>353.0</ele><time>2026-04-04T11:08:31.723Z</time></trkpt><trkpt lat="44.0577247" lon="10.1814373"><ele>353.0</ele><time>2026-04-04T11:08:32.712Z</time></trkpt><trkpt lat="44.0576229" lon="10.1814873"><ele>353.0</ele><time>2026-04-04T11:08:33.721Z</time></trkpt><trkpt lat="44.0575213" lon="10.1815387"><ele>353.0</ele><time>2026-04-04T11:08:34.721Z</time></trkpt><trkpt lat="44.0574303" lon="10.1815962"><ele>353.0</ele><time>2026-04-04T11:08:35.707Z</time></trkpt><trkpt lat="44.0573404" lon="10.1816489"><ele>353.0</ele><time>2026-04-04T11:08:36.724Z</time></trkpt><trkpt lat="44.0572714" lon="10.1817275"><ele>353.0</ele><time>2026-04-04T11:08:37.719Z</time></trkpt><trkpt lat="44.0572304" lon="10.181827"><ele>353.0</ele><time>2026-04-04T11:08:38.712Z</time></trkpt><trkpt lat="44.0572209" lon="10.1819477"><ele>353.0</ele><time>2026-04-04T11:08:39.725Z</time></trkpt><trkpt lat="44.0572293" lon="10.1820778"><ele>353.0</ele><time>2026-04-04T11:08:40.712Z</time></trkpt><trkpt lat="44.0572556" lon="10.1822118"><ele>353.0</ele><time>2026-04-04T11:08:41.716Z</time></trkpt><trkpt lat="44.0572656" lon="10.1823378"><ele>353.0</ele><time>2026-04-04T11:08:42.719Z</time></trkpt><trkpt lat="44.0572459" lon="10.1824698"><ele>353.0</ele><time>2026-04-04T11:08:43.723Z</time></trkpt><trkpt lat="44.0571706" lon="10.1825717"><ele>353.0</ele><time>2026-04-04T11:08:44.73Z</time></trkpt><trkpt lat="44.0570844" lon="10.1826243"><ele>353.0</ele><time>2026-04-04T11:08:45.713Z</time></trkpt><trkpt lat="44.0569741" lon="10.1826281"><ele>351.6666666666667</ele><time>2026-04-04T11:08:46.715Z</time></trkpt><trkpt lat="44.0568481" lon="10.1825759"><ele>350.3333333333333</ele><time>2026-04-04T11:08:47.72Z</time></trkpt><trkpt lat="44.0567111" lon="10.1824578"><ele>349.0</ele><time>2026-04-04T11:08:48.719Z</time></trkpt><trkpt lat="44.056558" lon="10.1822743"><ele>349.0</ele><time>2026-04-04T11:08:49.712Z</time></trkpt><trkpt lat="44.0563999" lon="10.1821112"><ele>349.0</ele><time>2026-04-04T11:08:50.707Z</time></trkpt><trkpt lat="44.0562559" lon="10.1819655"><ele>349.0</ele><time>2026-04-04T11:08:51.704Z</time></trkpt><trkpt lat="44.0561479" lon="10.1818805"><ele>349.0</ele><time>2026-04-04T11:08:52.715Z</time></trkpt><trkpt lat="44.0560493" lon="10.1817945"><ele>349.0</ele><time>2026-04-04T11:08:53.716Z</time></trkpt><trkpt lat="44.0559511" lon="10.1817174"><ele>349.0</ele><time>2026-04-04T11:08:54.716Z</time></trkpt><trkpt lat="44.0558325" lon="10.1816772"><ele>349.0</ele><time>2026-04-04T11:08:55.725Z</time></trkpt><trkpt lat="44.0557054" lon="10.1816983"><ele>341.0</ele><time>2026-04-04T11:08:56.713Z</time></trkpt><trkpt lat="44.0555901" lon="10.1817474"><ele>333.0</ele><time>2026-04-04T11:08:57.727Z</time></trkpt><trkpt lat="44.0554949" lon="10.1818407"><ele>325.0</ele><time>2026-04-04T11:08:58.712Z</time></trkpt><trkpt lat="44.0554223" lon="10.1819957"><ele>317.0</ele><time>2026-04-04T11:08:59.735Z</time></trkpt><trkpt lat="44.0553779" lon="10.1821794"><ele>317.25</ele><time>2026-04-04T11:09:00.729Z</time></trkpt><trkpt lat="44.055352" lon="10.1823647"><ele>317.5</ele><time>2026-04-04T11:09:01.718Z</time></trkpt><trkpt lat="44.0553454" lon="10.1825536"><ele>317.75</ele><time>2026-04-04T11:09:02.712Z</time></trkpt><trkpt lat="44.0553545" lon="10.1827461"><ele>318.0</ele><time>2026-04-04T11:09:03.717Z</time></trkpt><trkpt lat="44.05538" lon="10.1829272"><ele>318.0</ele><time>2026-04-04T11:09:04.711Z</time></trkpt><trkpt lat="44.0554194" lon="10.1831031"><ele>318.0</ele><time>2026-04-04T11:09:05.718Z</time></trkpt><trkpt lat="44.055469" lon="10.1832662"><ele>318.0</ele><time>2026-04-04T11:09:06.712Z</time></trkpt><trkpt lat="44.0555273" lon="10.183425"><ele>318.0</ele><time>2026-04-04T11:09:07.708Z</time></trkpt><trkpt lat="44.0555892" lon="10.183592"><ele>316.5</ele><time>2026-04-04T11:09:08.712Z</time></trkpt><trkpt lat="44.0556408" lon="10.1837571"><ele>315.0</ele><time>2026-04-04T11:09:09.714Z</time></trkpt><trkpt lat="44.0556774" lon="10.1839326"><ele>313.5</ele><time>2026-04-04T11:09:10.721Z</time></trkpt><trkpt lat="44.0556845" lon="10.1841071"><ele>312.0</ele><time>2026-04-04T11:09:11.705Z</time></trkpt><trkpt lat="44.0556622" lon="10.1842498"><ele>315.8</ele><time>2026-04-04T11:09:12.707Z</time></trkpt><trkpt lat="44.0556071" lon="10.1843617"><ele>319.6</ele><time>2026-04-04T11:09:13.72Z</time></trkpt><trkpt lat="44.055528" lon="10.1844165"><ele>323.40000000000003</ele><time>2026-04-04T11:09:14.725Z</time></trkpt><trkpt lat="44.0554239" lon="10.18441"><ele>327.2</ele><time>2026-04-04T11:09:15.708Z</time></trkpt><trkpt lat="44.0552994" lon="10.1843542"><ele>331.0</ele><time>2026-04-04T11:09:16.72Z</time></trkpt><trkpt lat="44.0551606" lon="10.1843106"><ele>331.0</ele><time>2026-04-04T11:09:17.732Z</time></trkpt><trkpt lat="44.0550115" lon="10.1843106"><ele>331.0</ele><time>2026-04-04T11:09:18.724Z</time></trkpt><trkpt lat="44.054855" lon="10.1843725"><ele>331.0</ele><time>2026-04-04T11:09:19.735Z</time></trkpt><trkpt lat="44.0547283" lon="10.1844753"><ele>325.0</ele><time>2026-04-04T11:09:20.733Z</time></trkpt><trkpt lat="44.0546363" lon="10.1846201"><ele>319.0</ele><time>2026-04-04T11:09:21.704Z</time></trkpt><trkpt lat="44.0545758" lon="10.1848129"><ele>313.0</ele><time>2026-04-04T11:09:22.699Z</time></trkpt><trkpt lat="44.0545412" lon="10.1850386"><ele>313.0</ele><time>2026-04-04T11:09:23.709Z</time></trkpt><trkpt lat="44.0545044" lon="10.1852824"><ele>313.0</ele><time>2026-04-04T11:09:24.703Z</time></trkpt><trkpt lat="44.0544548" lon="10.1855095"><ele>313.0</ele><time>2026-04-04T11:09:25.689Z</time></trkpt><trkpt lat="44.0543977" lon="10.1857291"><ele>314.75</ele><time>2026-04-04T11:09:26.709Z</time></trkpt><trkpt lat="44.0543263" lon="10.1859247"><ele>316.5</ele><time>2026-04-04T11:09:27.708Z</time></trkpt><trkpt lat="44.054267" lon="10.1860998"><ele>318.25</ele><time>2026-04-04T11:09:28.704Z</time></trkpt><trkpt lat="44.0542173" lon="10.1862697"><ele>320.0</ele><time>2026-04-04T11:09:29.7Z</time></trkpt><trkpt lat="44.0541845" lon="10.1864619"><ele>324.0</ele><time>2026-04-04T11:09:30.709Z</time></trkpt><trkpt lat="44.0541765" lon="10.1866769"><ele>328.0</ele><time>2026-04-04T11:09:31.705Z</time></trkpt><trkpt lat="44.0541652" lon="10.1868834"><ele>332.0</ele><time>2026-04-04T11:09:32.706Z</time></trkpt><trkpt lat="44.0541353" lon="10.18709"><ele>320.25</ele><time>2026-04-04T11:09:33.72Z</time></trkpt><trkpt lat="44.0540864" lon="10.1872801"><ele>308.5</ele><time>2026-04-04T11:09:34.708Z</time></trkpt><trkpt lat="44.0540359" lon="10.1874666"><ele>296.75</ele><time>2026-04-04T11:09:35.716Z</time></trkpt><trkpt lat="44.0539902" lon="10.1876555"><ele>285.0</ele><time>2026-04-04T11:09:36.72Z</time></trkpt><trkpt lat="44.0539448" lon="10.1878273"><ele>285.0</ele><time>2026-04-04T11:09:37.713Z</time></trkpt><trkpt lat="44.053872" lon="10.1879869"><ele>285.0</ele><time>2026-04-04T11:09:38.717Z</time></trkpt><trkpt lat="44.053772" lon="10.1880888"><ele>285.0</ele><time>2026-04-04T11:09:39.715Z</time></trkpt><trkpt lat="44.0536915" lon="10.1881817"><ele>285.0</ele><time>2026-04-04T11:09:40.707Z</time></trkpt><trkpt lat="44.0536441" lon="10.1883015"><ele>289.0</ele><time>2026-04-04T11:09:41.722Z</time></trkpt><trkpt lat="44.0536633" lon="10.1884258"><ele>293.0</ele><time>2026-04-04T11:09:42.716Z</time></trkpt><trkpt lat="44.0537572" lon="10.1885268"><ele>297.0</ele><time>2026-04-04T11:09:43.706Z</time></trkpt><trkpt lat="44.0538603" lon="10.1886427"><ele>301.0</ele><time>2026-04-04T11:09:44.713Z</time></trkpt><trkpt lat="44.0539603" lon="10.1887621"><ele>301.0</ele><time>2026-04-04T11:09:45.703Z</time></trkpt><trkpt lat="44.054036" lon="10.1888841"><ele>301.0</ele><time>2026-04-04T11:09:46.706Z</time></trkpt><trkpt lat="44.0540624" lon="10.189009"><ele>301.0</ele><time>2026-04-04T11:09:47.691Z</time></trkpt><trkpt lat="44.0540384" lon="10.1891286"><ele>301.0</ele><time>2026-04-04T11:09:48.706Z</time></trkpt><trkpt lat="44.0539739" lon="10.1892158"><ele>301.0</ele><time>2026-04-04T11:09:49.714Z</time></trkpt><trkpt lat="44.0538778" lon="10.1892543"><ele>304.75</ele><time>2026-04-04T11:09:50.703Z</time></trkpt><trkpt lat="44.0537493" lon="10.1892514"><ele>308.5</ele><time>2026-04-04T11:09:51.708Z</time></trkpt><trkpt lat="44.0536042" lon="10.1892521"><ele>312.25</ele><time>2026-04-04T11:09:52.7Z</time></trkpt><trkpt lat="44.0534644" lon="10.1892558"><ele>316.0</ele><time>2026-04-04T11:09:53.707Z</time></trkpt><trkpt lat="44.0533522" lon="10.1893085"><ele>314.0</ele><time>2026-04-04T11:09:54.709Z</time></trkpt><trkpt lat="44.0532647" lon="10.1894257"><ele>312.0</ele><time>2026-04-04T11:09:55.714Z</time></trkpt><trkpt lat="44.0532071" lon="10.1896119"><ele>310.0</ele><time>2026-04-04T11:09:56.703Z</time></trkpt><trkpt lat="44.0531739" lon="10.1898217"><ele>308.0</ele><time>2026-04-04T11:09:57.704Z</time></trkpt><trkpt lat="44.0531664" lon="10.1900426"><ele>308.0</ele><time>2026-04-04T11:09:58.696Z</time></trkpt><trkpt lat="44.0531601" lon="10.1902622"><ele>308.0</ele><time>2026-04-04T11:09:59.695Z</time></trkpt><trkpt lat="44.0531006" lon="10.1904609"><ele>308.0</ele><time>2026-04-04T11:10:00.7Z</time></trkpt><trkpt lat="44.0529695" lon="10.1906503"><ele>308.33333333333337</ele><time>2026-04-04T11:10:01.715Z</time></trkpt><trkpt lat="44.0528469" lon="10.1908334"><ele>308.6666666666667</ele><time>2026-04-04T11:10:02.704Z</time></trkpt><trkpt lat="44.052742" lon="10.1910028"><ele>309.0</ele><time>2026-04-04T11:10:03.703Z</time></trkpt><trkpt lat="44.0526414" lon="10.1911678"><ele>309.0</ele><time>2026-04-04T11:10:04.703Z</time></trkpt><trkpt lat="44.0525435" lon="10.1913019"><ele>309.0</ele><time>2026-04-04T11:10:05.706Z</time></trkpt><trkpt lat="44.0524278" lon="10.19137"><ele>309.0</ele><time>2026-04-04T11:10:06.706Z</time></trkpt><trkpt lat="44.0522909" lon="10.1913874"><ele>309.0</ele><time>2026-04-04T11:10:07.7Z</time></trkpt><trkpt lat="44.0521663" lon="10.191347"><ele>314.75</ele><time>2026-04-04T11:10:08.711Z</time></trkpt><trkpt lat="44.0520696" lon="10.1912304"><ele>320.5</ele><time>2026-04-04T11:10:09.699Z</time></trkpt><trkpt lat="44.0519881" lon="10.1910887"><ele>326.25</ele><time>2026-04-04T11:10:10.702Z</time></trkpt><trkpt lat="44.0519821" lon="10.1909193"><ele>332.0</ele><time>2026-04-04T11:10:11.706Z</time></trkpt><trkpt lat="44.0520433" lon="10.1907573"><ele>337.25</ele><time>2026-04-04T11:10:12.7Z</time></trkpt><trkpt lat="44.0521269" lon="10.19061"><ele>342.5</ele><time>2026-04-04T11:10:13.694Z</time></trkpt><trkpt lat="44.0522259" lon="10.1904562"><ele>347.75</ele><time>2026-04-04T11:10:14.705Z</time></trkpt><trkpt lat="44.0523141" lon="10.1902949"><ele>353.0</ele><time>2026-04-04T11:10:15.686Z</time></trkpt><trkpt lat="44.0523779" lon="10.1900986"><ele>353.0</ele><time>2026-04-04T11:10:16.701Z</time></trkpt><trkpt lat="44.0523758" lon="10.1898606"><ele>353.0</ele><time>2026-04-04T11:10:17.688Z</time></trkpt><trkpt lat="44.0523172" lon="10.1895821"><ele>353.0</ele><time>2026-04-04T11:10:18.693Z</time></trkpt><trkpt lat="44.0522699" lon="10.1893084"><ele>353.6666666666667</ele><time>2026-04-04T11:10:19.694Z</time></trkpt><trkpt lat="44.0522485" lon="10.1890538"><ele>354.3333333333333</ele><time>2026-04-04T11:10:20.687Z</time></trkpt><trkpt lat="44.0522338" lon="10.1888459"><ele>355.0</ele><time>2026-04-04T11:10:21.69Z</time></trkpt><trkpt lat="44.0522125" lon="10.1886596"><ele>351.0</ele><time>2026-04-04T11:10:22.695Z</time></trkpt><trkpt lat="44.0521321" lon="10.1885268"><ele>347.0</ele><time>2026-04-04T11:10:23.687Z</time></trkpt><trkpt lat="44.0520664" lon="10.1884065"><ele>343.0</ele><time>2026-04-04T11:10:24.694Z</time></trkpt><trkpt lat="44.0520164" lon="10.1882783"><ele>339.0</ele><time>2026-04-04T11:10:25.695Z</time></trkpt><trkpt lat="44.0520176" lon="10.1881328"><ele>335.0</ele><time>2026-04-04T11:10:26.695Z</time></trkpt><trkpt lat="44.0520588" lon="10.1879559"><ele>336.75</ele><time>2026-04-04T11:10:27.693Z</time></trkpt><trkpt lat="44.0520999" lon="10.1877686"><ele>338.5</ele><time>2026-04-04T11:10:28.705Z</time></trkpt><trkpt lat="44.052134" lon="10.1875746"><ele>340.25</ele><time>2026-04-04T11:10:29.699Z</time></trkpt><trkpt lat="44.052172" lon="10.1873716"><ele>342.0</ele><time>2026-04-04T11:10:30.706Z</time></trkpt><trkpt lat="44.0522313" lon="10.1871523"><ele>342.0</ele><time>2026-04-04T11:10:31.701Z</time></trkpt><trkpt lat="44.0522681" lon="10.1869156"><ele>342.0</ele><time>2026-04-04T11:10:32.72Z</time></trkpt><trkpt lat="44.0522962" lon="10.1866537"><ele>342.0</ele><time>2026-04-04T11:10:33.701Z</time></trkpt><trkpt lat="44.0523114" lon="10.1863866"><ele>351.0</ele><time>2026-04-04T11:10:34.697Z</time></trkpt><trkpt lat="44.0523344" lon="10.1861489"><ele>360.0</ele><time>2026-04-04T11:10:35.7Z</time></trkpt><trkpt lat="44.052367" lon="10.185945"><ele>369.0</ele><time>2026-04-04T11:10:36.701Z</time></trkpt><trkpt lat="44.0523841" lon="10.1857331"><ele>370.3333333333333</ele><time>2026-04-04T11:10:37.703Z</time></trkpt><trkpt lat="44.052378" lon="10.1854956"><ele>371.66666666666663</ele><time>2026-04-04T11:10:38.701Z</time></trkpt><trkpt lat="44.0523404" lon="10.1852247"><ele>373.0</ele><time>2026-04-04T11:10:39.706Z</time></trkpt><trkpt lat="44.0522942" lon="10.1849688"><ele>367.25</ele><time>2026-04-04T11:10:40.69Z</time></trkpt><trkpt lat="44.0522655" lon="10.1847426"><ele>361.5</ele><time>2026-04-04T11:10:41.699Z</time></trkpt><trkpt lat="44.052267" lon="10.1845449"><ele>355.75</ele><time>2026-04-04T11:10:42.7Z</time></trkpt><trkpt lat="44.0522978" lon="10.1843621"><ele>350.0</ele><time>2026-04-04T11:10:43.696Z</time></trkpt><trkpt lat="44.0522921" lon="10.1841715"><ele>343.6666666666667</ele><time>2026-04-04T11:10:44.708Z</time></trkpt><trkpt lat="44.0522391" lon="10.1839667"><ele>337.3333333333333</ele><time>2026-04-04T11:10:45.704Z</time></trkpt><trkpt lat="44.0521409" lon="10.1838091"><ele>331.0</ele><time>2026-04-04T11:10:46.703Z</time></trkpt><trkpt lat="44.0520151" lon="10.1836627"><ele>331.0</ele><time>2026-04-04T11:10:47.698Z</time></trkpt><trkpt lat="44.0518748" lon="10.1835541"><ele>331.0</ele><time>2026-04-04T11:10:48.702Z</time></trkpt><trkpt lat="44.0517407" lon="10.183458"><ele>331.0</ele><time>2026-04-04T11:10:49.697Z</time></trkpt><trkpt lat="44.0516375" lon="10.1833662"><ele>331.0</ele><time>2026-04-04T11:10:50.698Z</time></trkpt><trkpt lat="44.0515642" lon="10.1832209"><ele>337.25</ele><time>2026-04-04T11:10:51.702Z</time></trkpt><trkpt lat="44.0515697" lon="10.1830876"><ele>343.5</ele><time>2026-04-04T11:10:52.698Z</time></trkpt><trkpt lat="44.0516466" lon="10.1829676"><ele>349.75</ele><time>2026-04-04T11:10:53.703Z</time></trkpt><trkpt lat="44.0517908" lon="10.1828404"><ele>356.0</ele><time>2026-04-04T11:10:54.704Z</time></trkpt><trkpt lat="44.0519237" lon="10.1827302"><ele>356.0</ele><time>2026-04-04T11:10:55.699Z</time></trkpt><trkpt lat="44.0520751" lon="10.1826344"><ele>356.0</ele><time>2026-04-04T11:10:56.695Z</time></trkpt><trkpt lat="44.0522124" lon="10.1825606"><ele>356.0</ele><time>2026-04-04T11:10:57.699Z</time></trkpt><trkpt lat="44.0523375" lon="10.182516"><ele>356.0</ele><time>2026-04-04T11:10:58.697Z</time></trkpt><trkpt lat="44.0524241" lon="10.1824405"><ele>359.75</ele><time>2026-04-04T11:10:59.707Z</time></trkpt><trkpt lat="44.0524573" lon="10.1822968"><ele>363.5</ele><time>2026-04-04T11:11:00.703Z</time></trkpt><trkpt lat="44.052442" lon="10.1821001"><ele>367.25</ele><time>2026-04-04T11:11:01.695Z</time></trkpt><trkpt lat="44.0523853" lon="10.1819177"><ele>371.0</ele><time>2026-04-04T11:11:02.701Z</time></trkpt><trkpt lat="44.0522779" lon="10.1817431"><ele>371.0</ele><time>2026-04-04T11:11:03.723Z</time></trkpt><trkpt lat="44.0521333" lon="10.1815523"><ele>371.0</ele><time>2026-04-04T11:11:04.702Z</time></trkpt><trkpt lat="44.0520138" lon="10.1813519"><ele>371.0</ele><time>2026-04-04T11:11:05.693Z</time></trkpt><trkpt lat="44.0519223" lon="10.1811404"><ele>367.33333333333337</ele><time>2026-04-04T11:11:06.704Z</time></trkpt><trkpt lat="44.0518396" lon="10.180938"><ele>363.6666666666667</ele><time>2026-04-04T11:11:07.7Z</time></trkpt><trkpt lat="44.0517736" lon="10.1807593"><ele>360.0</ele><time>2026-04-04T11:11:08.691Z</time></trkpt><trkpt lat="44.0517446" lon="10.1805661"><ele>360.0</ele><time>2026-04-04T11:11:09.695Z</time></trkpt><trkpt lat="44.0517612" lon="10.1804017"><ele>360.0</ele><time>2026-04-04T11:11:10.705Z</time></trkpt><trkpt lat="44.0518037" lon="10.1802558"><ele>360.0</ele><time>2026-04-04T11:11:11.703Z</time></trkpt><trkpt lat="44.0518858" lon="10.1801266"><ele>360.0</ele><time>2026-04-04T11:11:12.708Z</time></trkpt><trkpt lat="44.0520416" lon="10.1800203"><ele>360.0</ele><time>2026-04-04T11:11:13.696Z</time></trkpt><trkpt lat="44.0521758" lon="10.1799247"><ele>360.0</ele><time>2026-04-04T11:11:14.701Z</time></trkpt><trkpt lat="44.0523023" lon="10.1798008"><ele>360.0</ele><time>2026-04-04T11:11:15.697Z</time></trkpt><trkpt lat="44.0524343" lon="10.1796856"><ele>351.5</ele><time>2026-04-04T11:11:16.698Z</time></trkpt><trkpt lat="44.0525541" lon="10.1795839"><ele>343.0</ele><time>2026-04-04T11:11:17.706Z</time></trkpt><trkpt lat="44.0526269" lon="10.1794529"><ele>334.5</ele><time>2026-04-04T11:11:18.714Z</time></trkpt><trkpt lat="44.0526337" lon="10.17929"><ele>326.0</ele><time>2026-04-04T11:11:19.697Z</time></trkpt><trkpt lat="44.0525981" lon="10.1790911"><ele>329.33333333333337</ele><time>2026-04-04T11:11:20.702Z</time></trkpt><trkpt lat="44.0525467" lon="10.1788742"><ele>332.6666666666667</ele><time>2026-04-04T11:11:21.709Z</time></trkpt><trkpt lat="44.0525004" lon="10.1786377"><ele>336.0</ele><time>2026-04-04T11:11:22.703Z</time></trkpt><trkpt lat="44.0524469" lon="10.1783896"><ele>357.66666666666663</ele><time>2026-04-04T11:11:23.702Z</time></trkpt><trkpt lat="44.0524063" lon="10.1781543"><ele>379.3333333333333</ele><time>2026-04-04T11:11:24.713Z</time></trkpt><trkpt lat="44.0524019" lon="10.1779472"><ele>401.0</ele><time>2026-04-04T11:11:25.714Z</time></trkpt><trkpt lat="44.0524467" lon="10.1777768"><ele>393.5</ele><time>2026-04-04T11:11:26.715Z</time></trkpt><trkpt lat="44.052519" lon="10.1776325"><ele>386.0</ele><time>2026-04-04T11:11:27.706Z</time></trkpt><trkpt lat="44.0526194" lon="10.1775238"><ele>378.5</ele><time>2026-04-04T11:11:28.704Z</time></trkpt><trkpt lat="44.052732" lon="10.1774057"><ele>371.0</ele><time>2026-04-04T11:11:29.714Z</time></trkpt><trkpt lat="44.052838" lon="10.1773157"><ele>371.0</ele><time>2026-04-04T11:11:30.715Z</time></trkpt><trkpt lat="44.052931" lon="10.1771835"><ele>371.0</ele><time>2026-04-04T11:11:31.706Z</time></trkpt><trkpt lat="44.0529909" lon="10.1770111"><ele>371.0</ele><time>2026-04-04T11:11:32.711Z</time></trkpt><trkpt lat="44.0530234" lon="10.1768719"><ele>371.0</ele><time>2026-04-04T11:11:33.708Z</time></trkpt><trkpt lat="44.0530839" lon="10.1768211"><ele>371.0</ele><time>2026-04-04T11:11:34.722Z</time></trkpt><trkpt lat="44.0531869" lon="10.176808"><ele>358.6666666666667</ele><time>2026-04-04T11:11:35.697Z</time></trkpt><trkpt lat="44.0533449" lon="10.1767875"><ele>346.3333333333333</ele><time>2026-04-04T11:11:36.708Z</time></trkpt><trkpt lat="44.0534899" lon="10.176736"><ele>334.0</ele><time>2026-04-04T11:11:37.709Z</time></trkpt><trkpt lat="44.0536451" lon="10.1766553"><ele>334.0</ele><time>2026-04-04T11:11:38.684Z</time></trkpt><trkpt lat="44.0537902" lon="10.1765518"><ele>334.0</ele><time>2026-04-04T11:11:39.709Z</time></trkpt><trkpt lat="44.0539043" lon="10.176431"><ele>334.0</ele><time>2026-04-04T11:11:40.697Z</time></trkpt><trkpt lat="44.053973" lon="10.1762781"><ele>334.0</ele><time>2026-04-04T11:11:41.719Z</time></trkpt><trkpt lat="44.054006" lon="10.1760684"><ele>335.5</ele><time>2026-04-04T11:11:42.707Z</time></trkpt><trkpt lat="44.054048" lon="10.1758899"><ele>337.0</ele><time>2026-04-04T11:11:43.715Z</time></trkpt><trkpt lat="44.0540855" lon="10.1757215"><ele>338.5</ele><time>2026-04-04T11:11:44.704Z</time></trkpt><trkpt lat="44.0540886" lon="10.1755466"><ele>340.0</ele><time>2026-04-04T11:11:45.711Z</time></trkpt><trkpt lat="44.054076" lon="10.1753702"><ele>340.0</ele><time>2026-04-04T11:11:46.712Z</time></trkpt><trkpt lat="44.0540391" lon="10.1752011"><ele>340.0</ele><time>2026-04-04T11:11:47.727Z</time></trkpt><trkpt lat="44.0539869" lon="10.1750416"><ele>340.0</ele><time>2026-04-04T11:11:48.722Z</time></trkpt><trkpt lat="44.0539171" lon="10.1749058"><ele>340.0</ele><time>2026-04-04T11:11:49.723Z</time></trkpt><trkpt lat="44.0538125" lon="10.1747818"><ele>334.0</ele><time>2026-04-04T11:11:50.721Z</time></trkpt><trkpt lat="44.0536895" lon="10.1746747"><ele>328.0</ele><time>2026-04-04T11:11:51.716Z</time></trkpt><trkpt lat="44.0535418" lon="10.1745867"><ele>322.0</ele><time>2026-04-04T11:11:52.726Z</time></trkpt><trkpt lat="44.0533863" lon="10.1745218"><ele>329.5</ele><time>2026-04-04T11:11:53.715Z</time></trkpt><trkpt lat="44.0532271" lon="10.1744832"><ele>337.0</ele><time>2026-04-04T11:11:54.712Z</time></trkpt><trkpt lat="44.0530868" lon="10.1744394"><ele>344.5</ele><time>2026-04-04T11:11:55.723Z</time></trkpt><trkpt lat="44.0529944" lon="10.1743539"><ele>352.0</ele><time>2026-04-04T11:11:56.723Z</time></trkpt><trkpt lat="44.0529405" lon="10.1742432"><ele>352.0</ele><time>2026-04-04T11:11:57.718Z</time></trkpt><trkpt lat="44.0529485" lon="10.1740883"><ele>352.0</ele><time>2026-04-04T11:11:58.72Z</time></trkpt><trkpt lat="44.0529967" lon="10.1739296"><ele>352.0</ele><time>2026-04-04T11:11:59.713Z</time></trkpt><trkpt lat="44.0530375" lon="10.1737639"><ele>352.0</ele><time>2026-04-04T11:12:00.71Z</time></trkpt><trkpt lat="44.0530676" lon="10.1735978"><ele>348.75</ele><time>2026-04-04T11:12:01.715Z</time></trkpt><trkpt lat="44.0530826" lon="10.173429"><ele>345.5</ele><time>2026-04-04T11:12:02.712Z</time></trkpt><trkpt lat="44.053068" lon="10.1732678"><ele>342.25</ele><time>2026-04-04T11:12:03.747Z</time></trkpt><trkpt lat="44.053009" lon="10.1731347"><ele>339.0</ele><time>2026-04-04T11:12:04.728Z</time></trkpt><trkpt lat="44.0529018" lon="10.173018"><ele>331.6666666666667</ele><time>2026-04-04T11:12:05.741Z</time></trkpt><trkpt lat="44.0527538" lon="10.1729151"><ele>324.33333333333337</ele><time>2026-04-04T11:12:06.72Z</time></trkpt><trkpt lat="44.0525952" lon="10.1728164"><ele>317.0</ele><time>2026-04-04T11:12:07.716Z</time></trkpt><trkpt lat="44.0524594" lon="10.1727118"><ele>319.0</ele><time>2026-04-04T11:12:08.721Z</time></trkpt><trkpt lat="44.0523164" lon="10.1726088"><ele>321.0</ele><time>2026-04-04T11:12:09.723Z</time></trkpt><trkpt lat="44.0521754" lon="10.1724762"><ele>323.0</ele><time>2026-04-04T11:12:10.731Z</time></trkpt><trkpt lat="44.0520546" lon="10.1723184"><ele>323.0</ele><time>2026-04-04T11:12:11.722Z</time></trkpt><trkpt lat="44.0519465" lon="10.1721341"><ele>323.0</ele><time>2026-04-04T11:12:12.745Z</time></trkpt><trkpt lat="44.0518426" lon="10.1719576"><ele>323.0</ele><time>2026-04-04T11:12:13.746Z</time></trkpt><trkpt lat="44.0517566" lon="10.1717856"><ele>323.0</ele><time>2026-04-04T11:12:14.728Z</time></trkpt><trkpt lat="44.0516825" lon="10.1716138"><ele>323.0</ele><time>2026-04-04T11:12:15.707Z</time></trkpt><trkpt lat="44.0516379" lon="10.1714364"><ele>323.0</ele><time>2026-04-04T11:12:16.773Z</time></trkpt><trkpt lat="44.0515826" lon="10.1712834"><ele>323.0</ele><time>2026-04-04T11:12:17.728Z</time></trkpt><trkpt lat="44.0514784" lon="10.1711694"><ele>321.0</ele><time>2026-04-04T11:12:18.731Z</time></trkpt><trkpt lat="44.0513242" lon="10.1710603"><ele>319.0</ele><time>2026-04-04T11:12:19.722Z</time></trkpt><trkpt lat="44.0511662" lon="10.1709461"><ele>317.0</ele><time>2026-04-04T11:12:20.723Z</time></trkpt><trkpt lat="44.0510117" lon="10.1708251"><ele>317.0</ele><time>2026-04-04T11:12:21.72Z</time></trkpt><trkpt lat="44.0508575" lon="10.170696"><ele>317.0</ele><time>2026-04-04T11:12:22.723Z</time></trkpt><trkpt lat="44.0506998" lon="10.1705571"><ele>317.0</ele><time>2026-04-04T11:12:23.723Z</time></trkpt><trkpt lat="44.0505435" lon="10.1704312"><ele>317.33333333333337</ele><time>2026-04-04T11:12:24.722Z</time></trkpt><trkpt lat="44.0503787" lon="10.1703023"><ele>317.6666666666667</ele><time>2026-04-04T11:12:25.731Z</time></trkpt><trkpt lat="44.0502192" lon="10.1701803"><ele>318.0</ele><time>2026-04-04T11:12:26.731Z</time></trkpt><trkpt lat="44.0500668" lon="10.1700662"><ele>320.6666666666667</ele><time>2026-04-04T11:12:27.732Z</time></trkpt><trkpt lat="44.0499313" lon="10.169927"><ele>323.33333333333337</ele><time>2026-04-04T11:12:28.727Z</time></trkpt><trkpt lat="44.049819" lon="10.1697589"><ele>326.0</ele><time>2026-04-04T11:12:29.735Z</time></trkpt><trkpt lat="44.0497138" lon="10.1695806"><ele>326.0</ele><time>2026-04-04T11:12:30.737Z</time></trkpt><trkpt lat="44.049609" lon="10.1694008"><ele>326.0</ele><time>2026-04-04T11:12:31.733Z</time></trkpt><trkpt lat="44.0494937" lon="10.1692316"><ele>326.0</ele><time>2026-04-04T11:12:32.726Z</time></trkpt><trkpt lat="44.0493798" lon="10.1690543"><ele>320.0</ele><time>2026-04-04T11:12:33.729Z</time></trkpt><trkpt lat="44.0492681" lon="10.1688777"><ele>314.0</ele><time>2026-04-04T11:12:34.727Z</time></trkpt><trkpt lat="44.0491687" lon="10.1687077"><ele>308.0</ele><time>2026-04-04T11:12:35.747Z</time></trkpt><trkpt lat="44.0490737" lon="10.1685543"><ele>315.0</ele><time>2026-04-04T11:12:36.76Z</time></trkpt><trkpt lat="44.0489864" lon="10.1684186"><ele>322.0</ele><time>2026-04-04T11:12:37.727Z</time></trkpt><trkpt lat="44.0488838" lon="10.1682746"><ele>329.0</ele><time>2026-04-04T11:12:38.748Z</time></trkpt><trkpt lat="44.048782" lon="10.1681329"><ele>336.0</ele><time>2026-04-04T11:12:39.711Z</time></trkpt><trkpt lat="44.0487074" lon="10.1679863"><ele>336.0</ele><time>2026-04-04T11:12:40.715Z</time></trkpt><trkpt lat="44.0486477" lon="10.1678342"><ele>336.0</ele><time>2026-04-04T11:12:41.717Z</time></trkpt><trkpt lat="44.048598" lon="10.1676894"><ele>336.0</ele><time>2026-04-04T11:12:42.699Z</time></trkpt><trkpt lat="44.0485571" lon="10.1675327"><ele>336.0</ele><time>2026-04-04T11:12:43.717Z</time></trkpt><trkpt lat="44.0485444" lon="10.1673707"><ele>333.25</ele><time>2026-04-04T11:12:44.712Z</time></trkpt><trkpt lat="44.0485428" lon="10.167191"><ele>330.5</ele><time>2026-04-04T11:12:45.707Z</time></trkpt><trkpt lat="44.048558" lon="10.1669925"><ele>327.75</ele><time>2026-04-04T11:12:46.705Z</time></trkpt><trkpt lat="44.0485719" lon="10.1667891"><ele>325.0</ele><time>2026-04-04T11:12:47.703Z</time></trkpt><trkpt lat="44.0486037" lon="10.1665992"><ele>323.16666666666663</ele><time>2026-04-04T11:12:48.712Z</time></trkpt><trkpt lat="44.0486606" lon="10.1664342"><ele>321.3333333333333</ele><time>2026-04-04T11:12:49.712Z</time></trkpt><trkpt lat="44.0487159" lon="10.1663234"><ele>319.5</ele><time>2026-04-04T11:12:50.709Z</time></trkpt><trkpt lat="44.0487583" lon="10.166241"><ele>317.6666666666667</ele><time>2026-04-04T11:12:51.702Z</time></trkpt><trkpt lat="44.0487895" lon="10.1661555"><ele>315.83333333333337</ele><time>2026-04-04T11:12:52.714Z</time></trkpt><trkpt lat="44.0488036" lon="10.1660581"><ele>314.0</ele><time>2026-04-04T11:12:53.729Z</time></trkpt><trkpt lat="44.0488162" lon="10.1659563"><ele>314.0</ele><time>2026-04-04T11:12:54.746Z</time></trkpt><trkpt lat="44.0488117" lon="10.165846"><ele>314.0</ele><time>2026-04-04T11:12:55.739Z</time></trkpt><trkpt lat="44.0487856" lon="10.165745"><ele>314.0</ele><time>2026-04-04T11:12:56.718Z</time></trkpt><trkpt lat="44.0487258" lon="10.1656493"><ele>314.0</ele><time>2026-04-04T11:12:57.713Z</time></trkpt><trkpt lat="44.0486493" lon="10.165551"><ele>314.0</ele><time>2026-04-04T11:12:58.728Z</time></trkpt><trkpt lat="44.0485643" lon="10.1654398"><ele>311.75</ele><time>2026-04-04T11:12:59.718Z</time></trkpt><trkpt lat="44.0484699" lon="10.1653442"><ele>309.5</ele><time>2026-04-04T11:13:00.731Z</time></trkpt><trkpt lat="44.048346" lon="10.1652759"><ele>307.25</ele><time>2026-04-04T11:13:01.726Z</time></trkpt><trkpt lat="44.0481843" lon="10.1652375"><ele>305.0</ele><time>2026-04-04T11:13:02.721Z</time></trkpt><trkpt lat="44.0480284" lon="10.1652176"><ele>305.0</ele><time>2026-04-04T11:13:03.757Z</time></trkpt><trkpt lat="44.0478699" lon="10.1652108"><ele>305.0</ele><time>2026-04-04T11:13:04.728Z</time></trkpt><trkpt lat="44.0477205" lon="10.1652146"><ele>305.0</ele><time>2026-04-04T11:13:05.721Z</time></trkpt><trkpt lat="44.0475827" lon="10.165184"><ele>305.0</ele><time>2026-04-04T11:13:06.751Z</time></trkpt><trkpt lat="44.0474478" lon="10.1651209"><ele>303.75</ele><time>2026-04-04T11:13:07.757Z</time></trkpt><trkpt lat="44.0473373" lon="10.1650313"><ele>302.5</ele><time>2026-04-04T11:13:08.718Z</time></trkpt><trkpt lat="44.0472525" lon="10.1648978"><ele>301.25</ele><time>2026-04-04T11:13:09.718Z</time></trkpt><trkpt lat="44.0471928" lon="10.1647521"><ele>300.0</ele><time>2026-04-04T11:13:10.723Z</time></trkpt><trkpt lat="44.0471345" lon="10.1646117"><ele>300.0</ele><time>2026-04-04T11:13:11.726Z</time></trkpt><trkpt lat="44.0470623" lon="10.1644871"><ele>300.0</ele><time>2026-04-04T11:13:12.72Z</time></trkpt><trkpt lat="44.0469711" lon="10.1643769"><ele>300.0</ele><time>2026-04-04T11:13:13.716Z</time></trkpt><trkpt lat="44.046858" lon="10.164294"><ele>300.0</ele><time>2026-04-04T11:13:14.721Z</time></trkpt><trkpt lat="44.0467406" lon="10.164234"><ele>300.0</ele><time>2026-04-04T11:13:15.737Z</time></trkpt><trkpt lat="44.0466443" lon="10.1641587"><ele>300.0</ele><time>2026-04-04T11:13:16.718Z</time></trkpt><trkpt lat="44.0465689" lon="10.1640693"><ele>300.0</ele><time>2026-04-04T11:13:17.717Z</time></trkpt><trkpt lat="44.0464996" lon="10.1639636"><ele>300.0</ele><time>2026-04-04T11:13:18.721Z</time></trkpt><trkpt lat="44.0464486" lon="10.1638358"><ele>300.0</ele><time>2026-04-04T11:13:19.718Z</time></trkpt><trkpt lat="44.0464043" lon="10.1637112"><ele>297.2</ele><time>2026-04-04T11:13:20.726Z</time></trkpt><trkpt lat="44.0463712" lon="10.1635847"><ele>294.4</ele><time>2026-04-04T11:13:21.728Z</time></trkpt><trkpt lat="44.0463373" lon="10.1634632"><ele>291.6</ele><time>2026-04-04T11:13:22.732Z</time></trkpt><trkpt lat="44.046271" lon="10.1633714"><ele>288.8</ele><time>2026-04-04T11:13:23.741Z</time></trkpt><trkpt lat="44.0461701" lon="10.1633095"><ele>286.0</ele><time>2026-04-04T11:13:24.734Z</time></trkpt><trkpt lat="44.0460394" lon="10.1632852"><ele>286.0</ele><time>2026-04-04T11:13:25.722Z</time></trkpt><trkpt lat="44.0458952" lon="10.1632885"><ele>286.0</ele><time>2026-04-04T11:13:26.721Z</time></trkpt><trkpt lat="44.0457525" lon="10.1633438"><ele>286.0</ele><time>2026-04-04T11:13:27.727Z</time></trkpt><trkpt lat="44.045612" lon="10.1634559"><ele>285.75</ele><time>2026-04-04T11:13:28.726Z</time></trkpt><trkpt lat="44.0454806" lon="10.1635351"><ele>285.5</ele><time>2026-04-04T11:13:29.72Z</time></trkpt><trkpt lat="44.0453349" lon="10.1635704"><ele>285.25</ele><time>2026-04-04T11:13:30.726Z</time></trkpt><trkpt lat="44.0452096" lon="10.163569"><ele>285.0</ele><time>2026-04-04T11:13:31.733Z</time></trkpt><trkpt lat="44.0450885" lon="10.1635081"><ele>285.0</ele><time>2026-04-04T11:13:32.733Z</time></trkpt><trkpt lat="44.0449951" lon="10.1633913"><ele>285.0</ele><time>2026-04-04T11:13:33.729Z</time></trkpt><trkpt lat="44.0449073" lon="10.1632583"><ele>285.0</ele><time>2026-04-04T11:13:34.746Z</time></trkpt><trkpt lat="44.0448197" lon="10.1631294"><ele>285.0</ele><time>2026-04-04T11:13:35.732Z</time></trkpt><trkpt lat="44.0447225" lon="10.1630241"><ele>281.25</ele><time>2026-04-04T11:13:36.73Z</time></trkpt><trkpt lat="44.0446098" lon="10.1629654"><ele>277.5</ele><time>2026-04-04T11:13:37.725Z</time></trkpt><trkpt lat="44.0444892" lon="10.162967"><ele>273.75</ele><time>2026-04-04T11:13:38.756Z</time></trkpt><trkpt lat="44.0443734" lon="10.1630321"><ele>270.0</ele><time>2026-04-04T11:13:39.721Z</time></trkpt><trkpt lat="44.0442602" lon="10.1630958"><ele>270.0</ele><time>2026-04-04T11:13:40.73Z</time></trkpt><trkpt lat="44.0441451" lon="10.163125"><ele>270.0</ele><time>2026-04-04T11:13:41.728Z</time></trkpt><trkpt lat="44.0440336" lon="10.1630914"><ele>270.0</ele><time>2026-04-04T11:13:42.73Z</time></trkpt><trkpt lat="44.0439368" lon="10.1630171"><ele>270.0</ele><time>2026-04-04T11:13:43.73Z</time></trkpt><trkpt lat="44.0438478" lon="10.162925"><ele>271.25</ele><time>2026-04-04T11:13:44.729Z</time></trkpt><trkpt lat="44.043748" lon="10.1628411"><ele>272.5</ele><time>2026-04-04T11:13:45.715Z</time></trkpt><trkpt lat="44.0436304" lon="10.1627715"><ele>273.75</ele><time>2026-04-04T11:13:46.719Z</time></trkpt><trkpt lat="44.0434877" lon="10.1627106"><ele>275.0</ele><time>2026-04-04T11:13:47.718Z</time></trkpt><trkpt lat="44.0433259" lon="10.1626551"><ele>280.25</ele><time>2026-04-04T11:13:48.7Z</time></trkpt><trkpt lat="44.0431619" lon="10.1626123"><ele>285.5</ele><time>2026-04-04T11:13:49.707Z</time></trkpt><trkpt lat="44.0430173" lon="10.1625435"><ele>290.75</ele><time>2026-04-04T11:13:50.699Z</time></trkpt><trkpt lat="44.0429003" lon="10.1624702"><ele>296.0</ele><time>2026-04-04T11:13:51.707Z</time></trkpt><trkpt lat="44.0427831" lon="10.1624264"><ele>296.0</ele><time>2026-04-04T11:13:52.69Z</time></trkpt><trkpt lat="44.0426641" lon="10.1624295"><ele>296.0</ele><time>2026-04-04T11:13:53.695Z</time></trkpt><trkpt lat="44.0425581" lon="10.162377"><ele>296.0</ele><time>2026-04-04T11:13:54.703Z</time></trkpt><trkpt lat="44.0424642" lon="10.1622837"><ele>296.0</ele><time>2026-04-04T11:13:55.704Z</time></trkpt><trkpt lat="44.0424059" lon="10.1621543"><ele>297.25</ele><time>2026-04-04T11:13:56.706Z</time></trkpt><trkpt lat="44.042378" lon="10.1620075"><ele>298.5</ele><time>2026-04-04T11:13:57.711Z</time></trkpt><trkpt lat="44.0424003" lon="10.1618707"><ele>299.75</ele><time>2026-04-04T11:13:58.704Z</time></trkpt><trkpt lat="44.0424783" lon="10.1617434"><ele>301.0</ele><time>2026-04-04T11:13:59.699Z</time></trkpt><trkpt lat="44.0426037" lon="10.1616283"><ele>312.3333333333333</ele><time>2026-04-04T11:14:00.698Z</time></trkpt><trkpt lat="44.0427636" lon="10.1615064"><ele>323.6666666666667</ele><time>2026-04-04T11:14:01.694Z</time></trkpt><trkpt lat="44.0429224" lon="10.1613839"><ele>335.0</ele><time>2026-04-04T11:14:02.7Z</time></trkpt><trkpt lat="44.0430503" lon="10.1612389"><ele>335.0</ele><time>2026-04-04T11:14:03.69Z</time></trkpt><trkpt lat="44.0431335" lon="10.1610305"><ele>335.0</ele><time>2026-04-04T11:14:04.704Z</time></trkpt><trkpt lat="44.0431868" lon="10.1607854"><ele>335.0</ele><time>2026-04-04T11:14:05.699Z</time></trkpt><trkpt lat="44.0432305" lon="10.160523"><ele>327.6666666666667</ele><time>2026-04-04T11:14:06.699Z</time></trkpt><trkpt lat="44.0432762" lon="10.1602803"><ele>320.3333333333333</ele><time>2026-04-04T11:14:07.702Z</time></trkpt><trkpt lat="44.0433482" lon="10.1600671"><ele>313.0</ele><time>2026-04-04T11:14:08.713Z</time></trkpt><trkpt lat="44.0434375" lon="10.1598544"><ele>313.0</ele><time>2026-04-04T11:14:09.699Z</time></trkpt><trkpt lat="44.0434872" lon="10.1596413"><ele>313.0</ele><time>2026-04-04T11:14:10.693Z</time></trkpt><trkpt lat="44.0435312" lon="10.1594578"><ele>313.0</ele><time>2026-04-04T11:14:11.7Z</time></trkpt><trkpt lat="44.0435963" lon="10.1592988"><ele>313.0</ele><time>2026-04-04T11:14:12.703Z</time></trkpt><trkpt lat="44.0436786" lon="10.1591989"><ele>313.0</ele><time>2026-04-04T11:14:13.714Z</time></trkpt><trkpt lat="44.043799" lon="10.1591193"><ele>313.0</ele><time>2026-04-04T11:14:14.712Z</time></trkpt><trkpt lat="44.0439189" lon="10.1589804"><ele>313.0</ele><time>2026-04-04T11:14:15.71Z</time></trkpt><trkpt lat="44.044018" lon="10.1588261"><ele>313.0</ele><time>2026-04-04T11:14:16.717Z</time></trkpt><trkpt lat="44.0440808" lon="10.1586632"><ele>311.0</ele><time>2026-04-04T11:14:17.714Z</time></trkpt><trkpt lat="44.0440854" lon="10.1584952"><ele>309.0</ele><time>2026-04-04T11:14:18.725Z</time></trkpt><trkpt lat="44.0440382" lon="10.158329"><ele>307.0</ele><time>2026-04-04T11:14:19.721Z</time></trkpt><trkpt lat="44.0439458" lon="10.1581629"><ele>305.0</ele><time>2026-04-04T11:14:20.719Z</time></trkpt><trkpt lat="44.0437991" lon="10.1580072"><ele>299.6666666666667</ele><time>2026-04-04T11:14:21.714Z</time></trkpt><trkpt lat="44.0436536" lon="10.1578377"><ele>294.3333333333333</ele><time>2026-04-04T11:14:22.714Z</time></trkpt><trkpt lat="44.043512" lon="10.1576882"><ele>289.0</ele><time>2026-04-04T11:14:23.742Z</time></trkpt><trkpt lat="44.0433777" lon="10.1575611"><ele>295.3333333333333</ele><time>2026-04-04T11:14:24.747Z</time></trkpt><trkpt lat="44.0432382" lon="10.1574853"><ele>301.6666666666667</ele><time>2026-04-04T11:14:25.725Z</time></trkpt><trkpt lat="44.043082" lon="10.1574744"><ele>308.0</ele><time>2026-04-04T11:14:26.722Z</time></trkpt><trkpt lat="44.0429113" lon="10.1574877"><ele>308.0</ele><time>2026-04-04T11:14:27.713Z</time></trkpt><trkpt lat="44.0427346" lon="10.1574775"><ele>308.0</ele><time>2026-04-04T11:14:28.71Z</time></trkpt><trkpt lat="44.0425512" lon="10.1574628"><ele>308.0</ele><time>2026-04-04T11:14:29.715Z</time></trkpt><trkpt lat="44.0423772" lon="10.157428"><ele>306.0</ele><time>2026-04-04T11:14:30.713Z</time></trkpt><trkpt lat="44.0422091" lon="10.1573883"><ele>304.0</ele><time>2026-04-04T11:14:31.711Z</time></trkpt><trkpt lat="44.042068" lon="10.1573033"><ele>302.0</ele><time>2026-04-04T11:14:32.713Z</time></trkpt><trkpt lat="44.041927" lon="10.1571989"><ele>302.0</ele><time>2026-04-04T11:14:33.709Z</time></trkpt><trkpt lat="44.0417737" lon="10.1571087"><ele>302.0</ele><time>2026-04-04T11:14:34.717Z</time></trkpt><trkpt lat="44.0416229" lon="10.1570397"><ele>302.0</ele><time>2026-04-04T11:14:35.724Z</time></trkpt><trkpt lat="44.0414813" lon="10.1569273"><ele>302.0</ele><time>2026-04-04T11:14:36.726Z</time></trkpt><trkpt lat="44.0413899" lon="10.1567756"><ele>302.0</ele><time>2026-04-04T11:14:37.72Z</time></trkpt><trkpt lat="44.0413029" lon="10.1565994"><ele>302.0</ele><time>2026-04-04T11:14:38.714Z</time></trkpt><trkpt lat="44.041208" lon="10.1564315"><ele>302.0</ele><time>2026-04-04T11:14:39.745Z</time></trkpt><trkpt lat="44.0411258" lon="10.1562729"><ele>302.0</ele><time>2026-04-04T11:14:40.726Z</time></trkpt><trkpt lat="44.0410544" lon="10.1561258"><ele>302.0</ele><time>2026-04-04T11:14:41.732Z</time></trkpt><trkpt lat="44.0409808" lon="10.1559924"><ele>302.0</ele><time>2026-04-04T11:14:42.73Z</time></trkpt><trkpt lat="44.0409081" lon="10.1558727"><ele>302.0</ele><time>2026-04-04T11:14:43.736Z</time></trkpt><trkpt lat="44.0408448" lon="10.155763"><ele>301.5</ele><time>2026-04-04T11:14:44.738Z</time></trkpt><trkpt lat="44.0407996" lon="10.1556631"><ele>301.0</ele><time>2026-04-04T11:14:45.735Z</time></trkpt><trkpt lat="44.0407479" lon="10.1555766"><ele>300.5</ele><time>2026-04-04T11:14:46.729Z</time></trkpt><trkpt lat="44.0406887" lon="10.155495"><ele>300.0</ele><time>2026-04-04T11:14:47.734Z</time></trkpt><trkpt lat="44.0406209" lon="10.1553959"><ele>299.5</ele><time>2026-04-04T11:14:48.742Z</time></trkpt><trkpt lat="44.0405445" lon="10.1553028"><ele>299.0</ele><time>2026-04-04T11:14:49.735Z</time></trkpt><trkpt lat="44.0404535" lon="10.1552096"><ele>299.0</ele><time>2026-04-04T11:14:50.733Z</time></trkpt><trkpt lat="44.0403415" lon="10.1551031"><ele>299.0</ele><time>2026-04-04T11:14:51.744Z</time></trkpt><trkpt lat="44.0402228" lon="10.1549848"><ele>299.0</ele><time>2026-04-04T11:14:52.732Z</time></trkpt><trkpt lat="44.0400987" lon="10.1548745"><ele>299.0</ele><time>2026-04-04T11:14:53.739Z</time></trkpt><trkpt lat="44.0399923" lon="10.154797"><ele>293.75</ele><time>2026-04-04T11:14:54.738Z</time></trkpt><trkpt lat="44.03988" lon="10.1547341"><ele>288.5</ele><time>2026-04-04T11:14:55.741Z</time></trkpt><trkpt lat="44.0397724" lon="10.1546855"><ele>283.25</ele><time>2026-04-04T11:14:56.743Z</time></trkpt><trkpt lat="44.0396587" lon="10.1546813"><ele>278.0</ele><time>2026-04-04T11:14:57.749Z</time></trkpt><trkpt lat="44.0395469" lon="10.1547409"><ele>278.0</ele><time>2026-04-04T11:14:58.739Z</time></trkpt><trkpt lat="44.0394388" lon="10.1547975"><ele>278.0</ele><time>2026-04-04T11:14:59.74Z</time></trkpt><trkpt lat="44.0393271" lon="10.1548017"><ele>278.0</ele><time>2026-04-04T11:15:00.729Z</time></trkpt><trkpt lat="44.0392116" lon="10.154766"><ele>278.0</ele><time>2026-04-04T11:15:01.714Z</time></trkpt><trkpt lat="44.0390991" lon="10.1546873"><ele>280.0</ele><time>2026-04-04T11:15:02.717Z</time></trkpt><trkpt lat="44.0389782" lon="10.1545908"><ele>282.0</ele><time>2026-04-04T11:15:03.719Z</time></trkpt><trkpt lat="44.0388489" lon="10.1544879"><ele>284.0</ele><time>2026-04-04T11:15:04.725Z</time></trkpt><trkpt lat="44.0387269" lon="10.1543886"><ele>286.0</ele><time>2026-04-04T11:15:05.724Z</time></trkpt><trkpt lat="44.0386142" lon="10.154301"><ele>286.0</ele><time>2026-04-04T11:15:06.717Z</time></trkpt><trkpt lat="44.0385134" lon="10.1542388"><ele>286.0</ele><time>2026-04-04T11:15:07.728Z</time></trkpt><trkpt lat="44.0384158" lon="10.1541995"><ele>286.0</ele><time>2026-04-04T11:15:08.721Z</time></trkpt><trkpt lat="44.0383108" lon="10.1541598"><ele>286.0</ele><time>2026-04-04T11:15:09.73Z</time></trkpt><trkpt lat="44.0382012" lon="10.1541156"><ele>286.0</ele><time>2026-04-04T11:15:10.741Z</time></trkpt><trkpt lat="44.0380764" lon="10.1540676"><ele>281.5</ele><time>2026-04-04T11:15:11.726Z</time></trkpt><trkpt lat="44.0379415" lon="10.1540065"><ele>277.0</ele><time>2026-04-04T11:15:12.726Z</time></trkpt><trkpt lat="44.0378048" lon="10.1539532"><ele>272.5</ele><time>2026-04-04T11:15:13.73Z</time></trkpt><trkpt lat="44.0376788" lon="10.1539125"><ele>268.0</ele><time>2026-04-04T11:15:14.729Z</time></trkpt><trkpt lat="44.0375828" lon="10.1538786"><ele>268.0</ele><time>2026-04-04T11:15:15.732Z</time></trkpt><trkpt lat="44.0375324" lon="10.1538029"><ele>268.0</ele><time>2026-04-04T11:15:16.728Z</time></trkpt><trkpt lat="44.0375374" lon="10.1537079"><ele>268.0</ele><time>2026-04-04T11:15:17.725Z</time></trkpt><trkpt lat="44.0376074" lon="10.1536232"><ele>268.0</ele><time>2026-04-04T11:15:18.736Z</time></trkpt><trkpt lat="44.0376976" lon="10.1536079"><ele>268.0</ele><time>2026-04-04T11:15:19.728Z</time></trkpt><trkpt lat="44.0378169" lon="10.1536268"><ele>268.0</ele><time>2026-04-04T11:15:20.713Z</time></trkpt><trkpt lat="44.0379522" lon="10.1536482"><ele>268.0</ele><time>2026-04-04T11:15:21.72Z</time></trkpt><trkpt lat="44.0380997" lon="10.1536788"><ele>268.0</ele><time>2026-04-04T11:15:22.712Z</time></trkpt><trkpt lat="44.0382538" lon="10.1537121"><ele>268.0</ele><time>2026-04-04T11:15:23.702Z</time></trkpt><trkpt lat="44.038406" lon="10.1537486"><ele>266.66666666666663</ele><time>2026-04-04T11:15:24.712Z</time></trkpt><trkpt lat="44.0385562" lon="10.1537982"><ele>265.3333333333333</ele><time>2026-04-04T11:15:25.704Z</time></trkpt><trkpt lat="44.0386924" lon="10.1538752"><ele>264.0</ele><time>2026-04-04T11:15:26.702Z</time></trkpt><trkpt lat="44.038837" lon="10.1539442"><ele>264.0</ele><time>2026-04-04T11:15:27.704Z</time></trkpt><trkpt lat="44.0389873" lon="10.1539615"><ele>264.0</ele><time>2026-04-04T11:15:28.715Z</time></trkpt><trkpt lat="44.0391516" lon="10.1538778"><ele>264.0</ele><time>2026-04-04T11:15:29.716Z</time></trkpt><trkpt lat="44.0393034" lon="10.1537932"><ele>262.0</ele><time>2026-04-04T11:15:30.705Z</time></trkpt><trkpt lat="44.0394582" lon="10.1537333"><ele>260.0</ele><time>2026-04-04T11:15:31.712Z</time></trkpt><trkpt lat="44.0396088" lon="10.1536856"><ele>258.0</ele><time>2026-04-04T11:15:32.716Z</time></trkpt><trkpt lat="44.0397452" lon="10.1535928"><ele>258.0</ele><time>2026-04-04T11:15:33.7Z</time></trkpt><trkpt lat="44.0398453" lon="10.1534949"><ele>258.0</ele><time>2026-04-04T11:15:34.712Z</time></trkpt><trkpt lat="44.0398975" lon="10.1533938"><ele>258.0</ele><time>2026-04-04T11:15:35.717Z</time></trkpt><trkpt lat="44.0398903" lon="10.1532573"><ele>258.0</ele><time>2026-04-04T11:15:36.716Z</time></trkpt><trkpt lat="44.0398421" lon="10.153117"><ele>258.0</ele><time>2026-04-04T11:15:37.719Z</time></trkpt><trkpt lat="44.0397544" lon="10.1530421"><ele>258.0</ele><time>2026-04-04T11:15:38.72Z</time></trkpt><trkpt lat="44.0396486" lon="10.1530216"><ele>258.0</ele><time>2026-04-04T11:15:39.72Z</time></trkpt><trkpt lat="44.039552" lon="10.1530584"><ele>258.0</ele><time>2026-04-04T11:15:40.711Z</time></trkpt><trkpt lat="44.0394945" lon="10.1532049"><ele>258.0</ele><time>2026-04-04T11:15:41.719Z</time></trkpt><trkpt lat="44.0394406" lon="10.1533829"><ele>258.0</ele><time>2026-04-04T11:15:42.702Z</time></trkpt><trkpt lat="44.0393696" lon="10.1535213"><ele>258.0</ele><time>2026-04-04T11:15:43.712Z</time></trkpt><trkpt lat="44.0392544" lon="10.1535874"><ele>258.0</ele><time>2026-04-04T11:15:44.706Z</time></trkpt><trkpt lat="44.0391037" lon="10.1535987"><ele>258.0</ele><time>2026-04-04T11:15:45.715Z</time></trkpt><trkpt lat="44.038985" lon="10.1536172"><ele>259.2</ele><time>2026-04-04T11:15:46.706Z</time></trkpt><trkpt lat="44.038877" lon="10.1535929"><ele>260.4</ele><time>2026-04-04T11:15:47.702Z</time></trkpt><trkpt lat="44.0387736" lon="10.1535722"><ele>261.59999999999997</ele><time>2026-04-04T11:15:48.718Z</time></trkpt><trkpt lat="44.0387177" lon="10.1535019"><ele>262.8</ele><time>2026-04-04T11:15:49.722Z</time></trkpt><trkpt lat="44.0386977" lon="10.1533645"><ele>264.0</ele><time>2026-04-04T11:15:50.706Z</time></trkpt><trkpt lat="44.0386765" lon="10.1531865"><ele>259.0</ele><time>2026-04-04T11:15:51.718Z</time></trkpt><trkpt lat="44.0386528" lon="10.1529949"><ele>254.0</ele><time>2026-04-04T11:15:52.713Z</time></trkpt><trkpt lat="44.038639" lon="10.1528114"><ele>249.0</ele><time>2026-04-04T11:15:53.708Z</time></trkpt><trkpt lat="44.0386312" lon="10.1526483"><ele>244.0</ele><time>2026-04-04T11:15:54.722Z</time></trkpt><trkpt lat="44.0386204" lon="10.1525088"><ele>244.0</ele><time>2026-04-04T11:15:55.717Z</time></trkpt><trkpt lat="44.0385908" lon="10.1523897"><ele>243.99999999999997</ele><time>2026-04-04T11:15:56.721Z</time></trkpt><trkpt lat="44.0385221" lon="10.1522886"><ele>243.99999999999997</ele><time>2026-04-04T11:15:57.726Z</time></trkpt><trkpt lat="44.0384255" lon="10.1522258"><ele>244.0</ele><time>2026-04-04T11:15:58.724Z</time></trkpt><trkpt lat="44.0383226" lon="10.1522132"><ele>244.0</ele><time>2026-04-04T11:15:59.726Z</time></trkpt><trkpt lat="44.0382259" lon="10.1522504"><ele>245.0</ele><time>2026-04-04T11:16:00.717Z</time></trkpt><trkpt lat="44.038124" lon="10.1523291"><ele>246.0</ele><time>2026-04-04T11:16:01.712Z</time></trkpt><trkpt lat="44.0380042" lon="10.1524244"><ele>247.0</ele><time>2026-04-04T11:16:02.724Z</time></trkpt><trkpt lat="44.0378809" lon="10.1525054"><ele>248.0</ele><time>2026-04-04T11:16:03.71Z</time></trkpt><trkpt lat="44.0377598" lon="10.1525616"><ele>248.0</ele><time>2026-04-04T11:16:04.701Z</time></trkpt><trkpt lat="44.0376403" lon="10.1525906"><ele>248.0</ele><time>2026-04-04T11:16:05.715Z</time></trkpt><trkpt lat="44.0375298" lon="10.1525668"><ele>248.0</ele><time>2026-04-04T11:16:06.716Z</time></trkpt><trkpt lat="44.037437" lon="10.1524909"><ele>248.0</ele><time>2026-04-04T11:16:07.714Z</time></trkpt><trkpt lat="44.0373608" lon="10.1523633"><ele>246.0</ele><time>2026-04-04T11:16:08.711Z</time></trkpt><trkpt lat="44.0373059" lon="10.1521854"><ele>244.0</ele><time>2026-04-04T11:16:09.716Z</time></trkpt><trkpt lat="44.0372695" lon="10.1519896"><ele>242.0</ele><time>2026-04-04T11:16:10.716Z</time></trkpt><trkpt lat="44.0372377" lon="10.1518022"><ele>240.0</ele><time>2026-04-04T11:16:11.704Z</time></trkpt><trkpt lat="44.0372001" lon="10.1516346"><ele>236.0</ele><time>2026-04-04T11:16:12.716Z</time></trkpt><trkpt lat="44.0371174" lon="10.1514982"><ele>232.0</ele><time>2026-04-04T11:16:13.71Z</time></trkpt><trkpt lat="44.0369921" lon="10.1513855"><ele>228.0</ele><time>2026-04-04T11:16:14.711Z</time></trkpt><trkpt lat="44.0368594" lon="10.1512574"><ele>224.0</ele><time>2026-04-04T11:16:15.705Z</time></trkpt><trkpt lat="44.0367493" lon="10.1511099"><ele>224.0</ele><time>2026-04-04T11:16:16.703Z</time></trkpt><trkpt lat="44.0366648" lon="10.1509567"><ele>224.0</ele><time>2026-04-04T11:16:17.707Z</time></trkpt><trkpt lat="44.0365989" lon="10.1507906"><ele>224.0</ele><time>2026-04-04T11:16:18.706Z</time></trkpt><trkpt lat="44.0365564" lon="10.150607"><ele>224.0</ele><time>2026-04-04T11:16:19.706Z</time></trkpt><trkpt lat="44.0365421" lon="10.1504249"><ele>216.6</ele><time>2026-04-04T11:16:20.712Z</time></trkpt><trkpt lat="44.0365118" lon="10.1502781"><ele>209.2</ele><time>2026-04-04T11:16:21.736Z</time></trkpt><trkpt lat="44.0364285" lon="10.1502111"><ele>201.79999999999998</ele><time>2026-04-04T11:16:22.725Z</time></trkpt><trkpt lat="44.0363274" lon="10.1501839"><ele>194.39999999999998</ele><time>2026-04-04T11:16:23.734Z</time></trkpt><trkpt lat="44.0362195" lon="10.1502351"><ele>187.0</ele><time>2026-04-04T11:16:24.731Z</time></trkpt><trkpt lat="44.03615" lon="10.1503349"><ele>187.0</ele><time>2026-04-04T11:16:25.73Z</time></trkpt><trkpt lat="44.0361123" lon="10.1504609"><ele>187.0</ele><time>2026-04-04T11:16:26.725Z</time></trkpt><trkpt lat="44.0361018" lon="10.1506178"><ele>187.0</ele><time>2026-04-04T11:16:27.734Z</time></trkpt><trkpt lat="44.0361215" lon="10.150812"><ele>187.0</ele><time>2026-04-04T11:16:28.726Z</time></trkpt><trkpt lat="44.036145" lon="10.1510303"><ele>189.25</ele><time>2026-04-04T11:16:29.718Z</time></trkpt><trkpt lat="44.0361688" lon="10.1512489"><ele>191.5</ele><time>2026-04-04T11:16:30.715Z</time></trkpt><trkpt lat="44.0361717" lon="10.1514614"><ele>193.75</ele><time>2026-04-04T11:16:31.714Z</time></trkpt><trkpt lat="44.0361236" lon="10.15164"><ele>196.0</ele><time>2026-04-04T11:16:32.716Z</time></trkpt><trkpt lat="44.0360299" lon="10.1517821"><ele>198.75</ele><time>2026-04-04T11:16:33.718Z</time></trkpt><trkpt lat="44.0359195" lon="10.1518771"><ele>201.5</ele><time>2026-04-04T11:16:34.724Z</time></trkpt><trkpt lat="44.0357993" lon="10.151936"><ele>204.25</ele><time>2026-04-04T11:16:35.73Z</time></trkpt><trkpt lat="44.0356712" lon="10.1519597"><ele>207.0</ele><time>2026-04-04T11:16:36.723Z</time></trkpt><trkpt lat="44.0355811" lon="10.1520281"><ele>201.2</ele><time>2026-04-04T11:16:37.722Z</time></trkpt><trkpt lat="44.0355246" lon="10.1520871"><ele>195.39999999999998</ele><time>2026-04-04T11:16:38.717Z</time></trkpt><trkpt lat="44.0354396" lon="10.1520318"><ele>189.60000000000002</ele><time>2026-04-04T11:16:40.751Z</time></trkpt><trkpt lat="44.0355019" lon="10.1518811"><ele>183.8</ele><time>2026-04-04T11:16:42.737Z</time></trkpt><trkpt lat="44.035607" lon="10.151821"><ele>178.0</ele><time>2026-04-04T11:16:43.742Z</time></trkpt><trkpt lat="44.0357335" lon="10.1517631"><ele>184.0</ele><time>2026-04-04T11:16:44.736Z</time></trkpt><trkpt lat="44.035856" lon="10.1516713"><ele>190.0</ele><time>2026-04-04T11:16:45.73Z</time></trkpt><trkpt lat="44.0359617" lon="10.1515189"><ele>196.0</ele><time>2026-04-04T11:16:46.726Z</time></trkpt><trkpt lat="44.0360296" lon="10.1513198"><ele>196.0</ele><time>2026-04-04T11:16:47.725Z</time></trkpt><trkpt lat="44.0360366" lon="10.1510921"><ele>196.0</ele><time>2026-04-04T11:16:48.732Z</time></trkpt><trkpt lat="44.0359885" lon="10.1508194"><ele>196.0</ele><time>2026-04-04T11:16:49.724Z</time></trkpt><trkpt lat="44.035949" lon="10.1505853"><ele>193.0</ele><time>2026-04-04T11:16:50.727Z</time></trkpt><trkpt lat="44.0359103" lon="10.1503508"><ele>190.0</ele><time>2026-04-04T11:16:51.724Z</time></trkpt><trkpt lat="44.0359012" lon="10.1501406"><ele>187.0</ele><time>2026-04-04T11:16:52.725Z</time></trkpt><trkpt lat="44.0359207" lon="10.1499407"><ele>181.25</ele><time>2026-04-04T11:16:53.722Z</time></trkpt><trkpt lat="44.0359801" lon="10.1497962"><ele>175.5</ele><time>2026-04-04T11:16:54.728Z</time></trkpt><trkpt lat="44.036084" lon="10.1497041"><ele>169.75</ele><time>2026-04-04T11:16:55.72Z</time></trkpt><trkpt lat="44.0362124" lon="10.1496759"><ele>164.0</ele><time>2026-04-04T11:16:56.728Z</time></trkpt><trkpt lat="44.036341" lon="10.1496977"><ele>164.0</ele><time>2026-04-04T11:16:57.721Z</time></trkpt><trkpt lat="44.0364879" lon="10.1497273"><ele>164.0</ele><time>2026-04-04T11:16:58.71Z</time></trkpt><trkpt lat="44.0366389" lon="10.1497943"><ele>164.0</ele><time>2026-04-04T11:16:59.718Z</time></trkpt><trkpt lat="44.036778" lon="10.1498793"><ele>172.0</ele><time>2026-04-04T11:17:00.711Z</time></trkpt><trkpt lat="44.0368847" lon="10.1499752"><ele>180.0</ele><time>2026-04-04T11:17:01.708Z</time></trkpt><trkpt lat="44.0369773" lon="10.1500929"><ele>188.0</ele><time>2026-04-04T11:17:02.699Z</time></trkpt><trkpt lat="44.0370397" lon="10.1502357"><ele>196.0</ele><time>2026-04-04T11:17:03.694Z</time></trkpt><trkpt lat="44.0370619" lon="10.1503849"><ele>196.0</ele><time>2026-04-04T11:17:04.704Z</time></trkpt><trkpt lat="44.0370906" lon="10.1505307"><ele>196.0</ele><time>2026-04-04T11:17:05.697Z</time></trkpt><trkpt lat="44.0371198" lon="10.1506503"><ele>196.0</ele><time>2026-04-04T11:17:06.683Z</time></trkpt><trkpt lat="44.0371568" lon="10.15077"><ele>196.0</ele><time>2026-04-04T11:17:07.678Z</time></trkpt><trkpt lat="44.0372122" lon="10.1508652"><ele>196.0</ele><time>2026-04-04T11:17:08.687Z</time></trkpt><trkpt lat="44.0372796" lon="10.1509488"><ele>196.16666666666666</ele><time>2026-04-04T11:17:09.678Z</time></trkpt><trkpt lat="44.037347" lon="10.1510302"><ele>196.33333333333331</ele><time>2026-04-04T11:17:10.662Z</time></trkpt><trkpt lat="44.0374148" lon="10.1511098"><ele>196.5</ele><time>2026-04-04T11:17:11.659Z</time></trkpt><trkpt lat="44.0374822" lon="10.1511896"><ele>196.66666666666669</ele><time>2026-04-04T11:17:12.661Z</time></trkpt><trkpt lat="44.037549" lon="10.1512702"><ele>196.83333333333334</ele><time>2026-04-04T11:17:13.645Z</time></trkpt><trkpt lat="44.0376157" lon="10.1513508"><ele>197.0</ele><time>2026-04-04T11:17:14.631Z</time></trkpt><trkpt lat="44.0376821" lon="10.1514138"><ele>197.0</ele><time>2026-04-04T11:17:15.647Z</time></trkpt><trkpt lat="44.0378992" lon="10.1514914"><ele>197.0</ele><time>2026-04-04T11:17:17.673Z</time></trkpt><trkpt lat="44.038069" lon="10.151472"><ele>197.0</ele><time>2026-04-04T11:17:18.691Z</time></trkpt><trkpt lat="44.038202" lon="10.1514472"><ele>193.5</ele><time>2026-04-04T11:17:19.682Z</time></trkpt><trkpt lat="44.0383379" lon="10.1513918"><ele>190.0</ele><time>2026-04-04T11:17:20.682Z</time></trkpt><trkpt lat="44.0384426" lon="10.1513348"><ele>186.5</ele><time>2026-04-04T11:17:21.703Z</time></trkpt><trkpt lat="44.0385833" lon="10.1512381"><ele>183.0</ele><time>2026-04-04T11:17:22.704Z</time></trkpt><trkpt lat="44.0387096" lon="10.1511002"><ele>183.0</ele><time>2026-04-04T11:17:23.707Z</time></trkpt><trkpt lat="44.0388034" lon="10.1509592"><ele>183.0</ele><time>2026-04-04T11:17:24.708Z</time></trkpt><trkpt lat="44.0388623" lon="10.1508201"><ele>183.0</ele><time>2026-04-04T11:17:25.722Z</time></trkpt><trkpt lat="44.0388845" lon="10.1506635"><ele>183.0</ele><time>2026-04-04T11:17:26.715Z</time></trkpt><trkpt lat="44.0388754" lon="10.1504866"><ele>177.0</ele><time>2026-04-04T11:17:27.713Z</time></trkpt><trkpt lat="44.0388305" lon="10.1503158"><ele>171.0</ele><time>2026-04-04T11:17:28.721Z</time></trkpt><trkpt lat="44.0387986" lon="10.1501334"><ele>165.0</ele><time>2026-04-04T11:17:29.718Z</time></trkpt><trkpt lat="44.0387644" lon="10.149977"><ele>159.0</ele><time>2026-04-04T11:17:30.715Z</time></trkpt><trkpt lat="44.0387469" lon="10.1498376"><ele>153.75</ele><time>2026-04-04T11:17:31.72Z</time></trkpt><trkpt lat="44.0387627" lon="10.1496978"><ele>148.5</ele><time>2026-04-04T11:17:32.72Z</time></trkpt><trkpt lat="44.038824" lon="10.1495686"><ele>143.25</ele><time>2026-04-04T11:17:33.71Z</time></trkpt><trkpt lat="44.0389132" lon="10.1494669"><ele>138.0</ele><time>2026-04-04T11:17:34.713Z</time></trkpt><trkpt lat="44.0390182" lon="10.149369"><ele>138.0</ele><time>2026-04-04T11:17:35.704Z</time></trkpt><trkpt lat="44.0391315" lon="10.1492745"><ele>138.0</ele><time>2026-04-04T11:17:36.706Z</time></trkpt><trkpt lat="44.0392488" lon="10.1491916"><ele>138.0</ele><time>2026-04-04T11:17:37.698Z</time></trkpt><trkpt lat="44.0393657" lon="10.1491249"><ele>138.0</ele><time>2026-04-04T11:17:38.709Z</time></trkpt><trkpt lat="44.0394847" lon="10.1490486"><ele>137.5</ele><time>2026-04-04T11:17:39.715Z</time></trkpt><trkpt lat="44.0396026" lon="10.1489882"><ele>137.0</ele><time>2026-04-04T11:17:40.7Z</time></trkpt><trkpt lat="44.039725" lon="10.1489477"><ele>136.5</ele><time>2026-04-04T11:17:41.714Z</time></trkpt><trkpt lat="44.0398486" lon="10.1489334"><ele>136.0</ele><time>2026-04-04T11:17:42.705Z</time></trkpt><trkpt lat="44.0399729" lon="10.1489479"><ele>135.5</ele><time>2026-04-04T11:17:43.71Z</time></trkpt><trkpt lat="44.0400946" lon="10.1489653"><ele>135.0</ele><time>2026-04-04T11:17:44.722Z</time></trkpt><trkpt lat="44.0402152" lon="10.1490024"><ele>134.5</ele><time>2026-04-04T11:17:45.731Z</time></trkpt><trkpt lat="44.0403286" lon="10.148995"><ele>134.0</ele><time>2026-04-04T11:17:46.718Z</time></trkpt><trkpt lat="44.0404299" lon="10.1489488"><ele>134.0</ele><time>2026-04-04T11:17:47.716Z</time></trkpt><trkpt lat="44.0405216" lon="10.1488686"><ele>134.0</ele><time>2026-04-04T11:17:48.726Z</time></trkpt><trkpt lat="44.0405977" lon="10.1487855"><ele>134.0</ele><time>2026-04-04T11:17:49.728Z</time></trkpt><trkpt lat="44.0406734" lon="10.1487079"><ele>134.0</ele><time>2026-04-04T11:17:50.727Z</time></trkpt><trkpt lat="44.0407586" lon="10.1486523"><ele>134.0</ele><time>2026-04-04T11:17:51.733Z</time></trkpt><trkpt lat="44.0408424" lon="10.1486082"><ele>136.4</ele><time>2026-04-04T11:17:52.731Z</time></trkpt><trkpt lat="44.0409248" lon="10.1485799"><ele>138.8</ele><time>2026-04-04T11:17:53.731Z</time></trkpt><trkpt lat="44.0410062" lon="10.1485557"><ele>141.2</ele><time>2026-04-04T11:17:54.73Z</time></trkpt><trkpt lat="44.0410889" lon="10.1485654"><ele>143.6</ele><time>2026-04-04T11:17:55.727Z</time></trkpt><trkpt lat="44.0411759" lon="10.1486187"><ele>146.0</ele><time>2026-04-04T11:17:56.726Z</time></trkpt><trkpt lat="44.0412619" lon="10.1487003"><ele>146.0</ele><time>2026-04-04T11:17:57.733Z</time></trkpt><trkpt lat="44.0413518" lon="10.1487992"><ele>146.0</ele><time>2026-04-04T11:17:58.719Z</time></trkpt><trkpt lat="44.0414509" lon="10.1489002"><ele>146.0</ele><time>2026-04-04T11:17:59.715Z</time></trkpt><trkpt lat="44.0415601" lon="10.1489975"><ele>146.0</ele><time>2026-04-04T11:18:00.734Z</time></trkpt><trkpt lat="44.0416734" lon="10.1490745"><ele>148.5</ele><time>2026-04-04T11:18:01.712Z</time></trkpt><trkpt lat="44.0417932" lon="10.1491393"><ele>151.0</ele><time>2026-04-04T11:18:02.708Z</time></trkpt><trkpt lat="44.0419022" lon="10.1492097"><ele>153.5</ele><time>2026-04-04T11:18:03.699Z</time></trkpt><trkpt lat="44.0419937" lon="10.1492913"><ele>156.0</ele><time>2026-04-04T11:18:04.71Z</time></trkpt><trkpt lat="44.0420766" lon="10.1493874"><ele>156.0</ele><time>2026-04-04T11:18:05.704Z</time></trkpt><trkpt lat="44.0421549" lon="10.149488"><ele>156.0</ele><time>2026-04-04T11:18:06.704Z</time></trkpt><trkpt lat="44.0422385" lon="10.1495666"><ele>156.0</ele><time>2026-04-04T11:18:07.708Z</time></trkpt><trkpt lat="44.0423342" lon="10.1495788"><ele>156.0</ele><time>2026-04-04T11:18:08.7Z</time></trkpt><trkpt lat="44.0424308" lon="10.1495452"><ele>156.0</ele><time>2026-04-04T11:18:09.699Z</time></trkpt><trkpt lat="44.0425258" lon="10.1494682"><ele>152.75</ele><time>2026-04-04T11:18:10.707Z</time></trkpt><trkpt lat="44.0426175" lon="10.1493363"><ele>149.5</ele><time>2026-04-04T11:18:11.705Z</time></trkpt><trkpt lat="44.0426818" lon="10.149176"><ele>146.25</ele><time>2026-04-04T11:18:12.706Z</time></trkpt><trkpt lat="44.0427185" lon="10.1489909"><ele>143.0</ele><time>2026-04-04T11:18:13.706Z</time></trkpt><trkpt lat="44.0427161" lon="10.1488112"><ele>139.75</ele><time>2026-04-04T11:18:14.722Z</time></trkpt><trkpt lat="44.042696" lon="10.1486348"><ele>136.5</ele><time>2026-04-04T11:18:15.704Z</time></trkpt><trkpt lat="44.0426661" lon="10.1484655"><ele>133.25</ele><time>2026-04-04T11:18:16.738Z</time></trkpt><trkpt lat="44.0426263" lon="10.1483039"><ele>130.0</ele><time>2026-04-04T11:18:17.71Z</time></trkpt><trkpt lat="44.0425825" lon="10.1481636"><ele>128.0</ele><time>2026-04-04T11:18:18.724Z</time></trkpt><trkpt lat="44.0425595" lon="10.1480324"><ele>126.0</ele><time>2026-04-04T11:18:19.717Z</time></trkpt><trkpt lat="44.0425629" lon="10.1479067"><ele>124.0</ele><time>2026-04-04T11:18:20.719Z</time></trkpt><trkpt lat="44.0425796" lon="10.1477673"><ele>122.0</ele><time>2026-04-04T11:18:21.721Z</time></trkpt><trkpt lat="44.0426051" lon="10.1476159"><ele>120.0</ele><time>2026-04-04T11:18:22.717Z</time></trkpt><trkpt lat="44.0426412" lon="10.1474843"><ele>120.0</ele><time>2026-04-04T11:18:23.719Z</time></trkpt><trkpt lat="44.0426951" lon="10.1473752"><ele>120.0</ele><time>2026-04-04T11:18:24.723Z</time></trkpt><trkpt lat="44.0427659" lon="10.1473128"><ele>120.0</ele><time>2026-04-04T11:18:25.706Z</time></trkpt><trkpt lat="44.0428494" lon="10.147308"><ele>120.0</ele><time>2026-04-04T11:18:26.722Z</time></trkpt><trkpt lat="44.0429248" lon="10.1473422"><ele>120.0</ele><time>2026-04-04T11:18:27.716Z</time></trkpt><trkpt lat="44.0430006" lon="10.1474007"><ele>120.0</ele><time>2026-04-04T11:18:28.694Z</time></trkpt><trkpt lat="44.0430695" lon="10.1474724"><ele>120.0</ele><time>2026-04-04T11:18:29.712Z</time></trkpt><trkpt lat="44.0431492" lon="10.147527"><ele>120.0</ele><time>2026-04-04T11:18:30.719Z</time></trkpt><trkpt lat="44.0432423" lon="10.1475413"><ele>120.0</ele><time>2026-04-04T11:18:31.686Z</time></trkpt><trkpt lat="44.0433382" lon="10.1475282"><ele>120.0</ele><time>2026-04-04T11:18:32.706Z</time></trkpt><trkpt lat="44.0434411" lon="10.1475109"><ele>120.0</ele><time>2026-04-04T11:18:33.694Z</time></trkpt><trkpt lat="44.0435442" lon="10.1474817"><ele>122.4</ele><time>2026-04-04T11:18:34.721Z</time></trkpt><trkpt lat="44.0436456" lon="10.1474548"><ele>124.8</ele><time>2026-04-04T11:18:35.711Z</time></trkpt><trkpt lat="44.0437458" lon="10.1474322"><ele>127.19999999999999</ele><time>2026-04-04T11:18:36.703Z</time></trkpt><trkpt lat="44.0438541" lon="10.1474065"><ele>129.6</ele><time>2026-04-04T11:18:37.706Z</time></trkpt><trkpt lat="44.0439577" lon="10.1473746"><ele>132.0</ele><time>2026-04-04T11:18:38.705Z</time></trkpt><trkpt lat="44.0440442" lon="10.1473249"><ele>124.8</ele><time>2026-04-04T11:18:39.708Z</time></trkpt><trkpt lat="44.0441275" lon="10.1472653"><ele>117.6</ele><time>2026-04-04T11:18:40.706Z</time></trkpt><trkpt lat="44.0442032" lon="10.1471992"><ele>110.39999999999999</ele><time>2026-04-04T11:18:41.715Z</time></trkpt><trkpt lat="44.0442842" lon="10.1471366"><ele>103.19999999999999</ele><time>2026-04-04T11:18:42.732Z</time></trkpt><trkpt lat="44.0443611" lon="10.1470716"><ele>96.0</ele><time>2026-04-04T11:18:43.721Z</time></trkpt><trkpt lat="44.0444402" lon="10.1470192"><ele>95.5</ele><time>2026-04-04T11:18:44.718Z</time></trkpt><trkpt lat="44.0445257" lon="10.1469927"><ele>95.0</ele><time>2026-04-04T11:18:45.714Z</time></trkpt><trkpt lat="44.044609" lon="10.146986"><ele>94.5</ele><time>2026-04-04T11:18:46.732Z</time></trkpt><trkpt lat="44.0446745" lon="10.1469665"><ele>94.0</ele><time>2026-04-04T11:18:47.725Z</time></trkpt><trkpt lat="44.0447071" lon="10.1468612"><ele>93.5</ele><time>2026-04-04T11:18:49.725Z</time></trkpt><trkpt lat="44.0446449" lon="10.1468111"><ele>93.0</ele><time>2026-04-04T11:18:50.729Z</time></trkpt><trkpt lat="44.0445576" lon="10.1468116"><ele>93.0</ele><time>2026-04-04T11:18:51.732Z</time></trkpt><trkpt lat="44.0444568" lon="10.1468594"><ele>93.0</ele><time>2026-04-04T11:18:52.716Z</time></trkpt><trkpt lat="44.0443439" lon="10.1469169"><ele>93.0</ele><time>2026-04-04T11:18:53.713Z</time></trkpt><trkpt lat="44.0442328" lon="10.1469874"><ele>93.0</ele><time>2026-04-04T11:18:54.717Z</time></trkpt><trkpt lat="44.0441096" lon="10.1470656"><ele>93.75</ele><time>2026-04-04T11:18:55.717Z</time></trkpt><trkpt lat="44.0439805" lon="10.1471469"><ele>94.5</ele><time>2026-04-04T11:18:56.722Z</time></trkpt><trkpt lat="44.0438555" lon="10.1472177"><ele>95.25</ele><time>2026-04-04T11:18:57.717Z</time></trkpt><trkpt lat="44.0437243" lon="10.1472658"><ele>96.0</ele><time>2026-04-04T11:18:58.723Z</time></trkpt><trkpt lat="44.0435822" lon="10.147278"><ele>96.0</ele><time>2026-04-04T11:18:59.728Z</time></trkpt><trkpt lat="44.0434464" lon="10.1472234"><ele>96.0</ele><time>2026-04-04T11:19:00.716Z</time></trkpt><trkpt lat="44.0433212" lon="10.1471798"><ele>96.0</ele><time>2026-04-04T11:19:01.717Z</time></trkpt><trkpt lat="44.0431977" lon="10.1471375"><ele>96.0</ele><time>2026-04-04T11:19:02.713Z</time></trkpt><trkpt lat="44.043091" lon="10.1470789"><ele>96.4</ele><time>2026-04-04T11:19:03.711Z</time></trkpt><trkpt lat="44.0430041" lon="10.1469899"><ele>96.8</ele><time>2026-04-04T11:19:04.719Z</time></trkpt><trkpt lat="44.042944" lon="10.1468652"><ele>97.2</ele><time>2026-04-04T11:19:05.741Z</time></trkpt><trkpt lat="44.0428834" lon="10.1467594"><ele>97.60000000000001</ele><time>2026-04-04T11:19:06.714Z</time></trkpt><trkpt lat="44.0428121" lon="10.1466684"><ele>98.0</ele><time>2026-04-04T11:19:07.722Z</time></trkpt><trkpt lat="44.0427323" lon="10.1465978"><ele>98.0</ele><time>2026-04-04T11:19:08.715Z</time></trkpt><trkpt lat="44.0426453" lon="10.1465683"><ele>98.0</ele><time>2026-04-04T11:19:09.73Z</time></trkpt><trkpt lat="44.0425407" lon="10.1466028"><ele>98.0</ele><time>2026-04-04T11:19:10.726Z</time></trkpt><trkpt lat="44.0424468" lon="10.1466456"><ele>98.0</ele><time>2026-04-04T11:19:11.723Z</time></trkpt><trkpt lat="44.0423611" lon="10.1466841"><ele>98.0</ele><time>2026-04-04T11:19:12.724Z</time></trkpt><trkpt lat="44.0422831" lon="10.1467128"><ele>97.66666666666666</ele><time>2026-04-04T11:19:13.718Z</time></trkpt><trkpt lat="44.0422051" lon="10.1467572"><ele>97.33333333333333</ele><time>2026-04-04T11:19:14.719Z</time></trkpt><trkpt lat="44.0421375" lon="10.1468247"><ele>97.0</ele><time>2026-04-04T11:19:15.718Z</time></trkpt><trkpt lat="44.0420801" lon="10.1469097"><ele>96.66666666666666</ele><time>2026-04-04T11:19:16.708Z</time></trkpt><trkpt lat="44.0420186" lon="10.146991"><ele>96.33333333333333</ele><time>2026-04-04T11:19:17.719Z</time></trkpt><trkpt lat="44.0419536" lon="10.1470468"><ele>96.0</ele><time>2026-04-04T11:19:18.712Z</time></trkpt><trkpt lat="44.0418799" lon="10.1470618"><ele>96.0</ele><time>2026-04-04T11:19:19.716Z</time></trkpt><trkpt lat="44.0417911" lon="10.1470431"><ele>96.0</ele><time>2026-04-04T11:19:20.718Z</time></trkpt><trkpt lat="44.0417189" lon="10.1469559"><ele>96.0</ele><time>2026-04-04T11:19:21.722Z</time></trkpt><trkpt lat="44.0416719" lon="10.1468367"><ele>96.0</ele><time>2026-04-04T11:19:22.718Z</time></trkpt><trkpt lat="44.0416437" lon="10.1466973"><ele>96.0</ele><time>2026-04-04T11:19:23.723Z</time></trkpt><trkpt lat="44.0416539" lon="10.1465557"><ele>93.0</ele><time>2026-04-04T11:19:24.715Z</time></trkpt><trkpt lat="44.0417077" lon="10.1464348"><ele>90.0</ele><time>2026-04-04T11:19:25.717Z</time></trkpt><trkpt lat="44.0417847" lon="10.1463493"><ele>87.0</ele><time>2026-04-04T11:19:26.743Z</time></trkpt><trkpt lat="44.0418786" lon="10.146288"><ele>84.0</ele><time>2026-04-04T11:19:27.719Z</time></trkpt><trkpt lat="44.0419739" lon="10.1462323"><ele>81.0</ele><time>2026-04-04T11:19:28.717Z</time></trkpt><trkpt lat="44.042069" lon="10.1461893"><ele>81.0</ele><time>2026-04-04T11:19:29.718Z</time></trkpt><trkpt lat="44.0421595" lon="10.1461547"><ele>81.0</ele><time>2026-04-04T11:19:30.727Z</time></trkpt><trkpt lat="44.0422451" lon="10.146091"><ele>81.0</ele><time>2026-04-04T11:19:31.713Z</time></trkpt><trkpt lat="44.0423022" lon="10.1459916"><ele>81.0</ele><time>2026-04-04T11:19:32.719Z</time></trkpt><trkpt lat="44.042314" lon="10.1458639"><ele>81.0</ele><time>2026-04-04T11:19:33.72Z</time></trkpt><trkpt lat="44.0422801" lon="10.1457553"><ele>79.8</ele><time>2026-04-04T11:19:34.719Z</time></trkpt><trkpt lat="44.0422046" lon="10.1456667"><ele>78.6</ele><time>2026-04-04T11:19:35.718Z</time></trkpt><trkpt lat="44.0421238" lon="10.145616"><ele>77.4</ele><time>2026-04-04T11:19:36.728Z</time></trkpt><trkpt lat="44.0420328" lon="10.1456152"><ele>76.2</ele><time>2026-04-04T11:19:37.72Z</time></trkpt><trkpt lat="44.0419384" lon="10.1456394"><ele>75.0</ele><time>2026-04-04T11:19:38.723Z</time></trkpt><trkpt lat="44.0418358" lon="10.145661"><ele>75.0</ele><time>2026-04-04T11:19:39.724Z</time></trkpt><trkpt lat="44.0417265" lon="10.1456902"><ele>75.0</ele><time>2026-04-04T11:19:40.719Z</time></trkpt><trkpt lat="44.0416167" lon="10.1457178"><ele>75.0</ele><time>2026-04-04T11:19:41.724Z</time></trkpt><trkpt lat="44.0415146" lon="10.1457436"><ele>75.0</ele><time>2026-04-04T11:19:42.715Z</time></trkpt><trkpt lat="44.0414236" lon="10.1457732"><ele>75.0</ele><time>2026-04-04T11:19:43.72Z</time></trkpt><trkpt lat="44.0413381" lon="10.1457989"><ele>75.6</ele><time>2026-04-04T11:19:44.724Z</time></trkpt><trkpt lat="44.0412477" lon="10.1458196"><ele>76.2</ele><time>2026-04-04T11:19:45.726Z</time></trkpt><trkpt lat="44.0411497" lon="10.14583"><ele>76.8</ele><time>2026-04-04T11:19:46.721Z</time></trkpt><trkpt lat="44.0410462" lon="10.1458433"><ele>77.4</ele><time>2026-04-04T11:19:47.72Z</time></trkpt><trkpt lat="44.0409303" lon="10.1458554"><ele>78.0</ele><time>2026-04-04T11:19:48.736Z</time></trkpt><trkpt lat="44.0408018" lon="10.1458725"><ele>77.5</ele><time>2026-04-04T11:19:49.723Z</time></trkpt><trkpt lat="44.0406739" lon="10.1458884"><ele>77.0</ele><time>2026-04-04T11:19:50.725Z</time></trkpt><trkpt lat="44.0405538" lon="10.1459034"><ele>76.5</ele><time>2026-04-04T11:19:51.732Z</time></trkpt><trkpt lat="44.0404388" lon="10.1459188"><ele>76.0</ele><time>2026-04-04T11:19:52.722Z</time></trkpt><trkpt lat="44.0403275" lon="10.1459366"><ele>76.0</ele><time>2026-04-04T11:19:53.724Z</time></trkpt><trkpt lat="44.040216" lon="10.1459437"><ele>76.0</ele><time>2026-04-04T11:19:54.725Z</time></trkpt><trkpt lat="44.0401081" lon="10.1459341"><ele>76.0</ele><time>2026-04-04T11:19:55.724Z</time></trkpt><trkpt lat="44.04" lon="10.1458955"><ele>76.0</ele><time>2026-04-04T11:19:56.729Z</time></trkpt><trkpt lat="44.0398999" lon="10.145825"><ele>76.0</ele><time>2026-04-04T11:19:57.718Z</time></trkpt><trkpt lat="44.0398028" lon="10.1457198"><ele>75.0</ele><time>2026-04-04T11:19:58.733Z</time></trkpt><trkpt lat="44.0397047" lon="10.1455902"><ele>74.0</ele><time>2026-04-04T11:19:59.727Z</time></trkpt><trkpt lat="44.03959" lon="10.1454384"><ele>73.0</ele><time>2026-04-04T11:20:00.723Z</time></trkpt><trkpt lat="44.0394364" lon="10.1452412"><ele>73.0</ele><time>2026-04-04T11:20:01.724Z</time></trkpt><trkpt lat="44.0392697" lon="10.1450473"><ele>73.0</ele><time>2026-04-04T11:20:02.725Z</time></trkpt><trkpt lat="44.0391164" lon="10.1448554"><ele>73.0</ele><time>2026-04-04T11:20:03.722Z</time></trkpt><trkpt lat="44.0389837" lon="10.1446996"><ele>73.16666666666666</ele><time>2026-04-04T11:20:04.728Z</time></trkpt><trkpt lat="44.0388772" lon="10.1445974"><ele>73.33333333333333</ele><time>2026-04-04T11:20:05.73Z</time></trkpt><trkpt lat="44.0388033" lon="10.1445414"><ele>73.5</ele><time>2026-04-04T11:20:06.72Z</time></trkpt><trkpt lat="44.0387463" lon="10.1444996"><ele>73.66666666666667</ele><time>2026-04-04T11:20:07.711Z</time></trkpt><trkpt lat="44.0386809" lon="10.1444193"><ele>73.83333333333334</ele><time>2026-04-04T11:20:09.721Z</time></trkpt><trkpt lat="44.0386764" lon="10.1443246"><ele>74.0</ele><time>2026-04-04T11:20:10.719Z</time></trkpt><trkpt lat="44.0386761" lon="10.1442061"><ele>74.0</ele><time>2026-04-04T11:20:11.707Z</time></trkpt><trkpt lat="44.0386578" lon="10.1440952"><ele>74.0</ele><time>2026-04-04T11:20:12.704Z</time></trkpt><trkpt lat="44.0386417" lon="10.1439898"><ele>74.0</ele><time>2026-04-04T11:20:13.705Z</time></trkpt><trkpt lat="44.0386306" lon="10.1438964"><ele>74.0</ele><time>2026-04-04T11:20:14.706Z</time></trkpt><trkpt lat="44.0386298" lon="10.14374"><ele>74.0</ele><time>2026-04-04T11:20:16.719Z</time></trkpt><trkpt lat="44.0386267" lon="10.1435743"><ele>73.66666666666667</ele><time>2026-04-04T11:20:18.711Z</time></trkpt><trkpt lat="44.0386241" lon="10.1433925"><ele>73.33333333333334</ele><time>2026-04-04T11:20:20.708Z</time></trkpt><trkpt lat="44.038635" lon="10.1432976"><ele>73.0</ele><time>2026-04-04T11:20:21.705Z</time></trkpt><trkpt lat="44.0386514" lon="10.1431996"><ele>72.66666666666667</ele><time>2026-04-04T11:20:22.702Z</time></trkpt><trkpt lat="44.0386785" lon="10.1431038"><ele>72.33333333333333</ele><time>2026-04-04T11:20:23.713Z</time></trkpt><trkpt lat="44.0387074" lon="10.1430035"><ele>72.0</ele><time>2026-04-04T11:20:24.721Z</time></trkpt><trkpt lat="44.0387358" lon="10.1429041"><ele>71.33333333333333</ele><time>2026-04-04T11:20:25.745Z</time></trkpt><trkpt lat="44.0387665" lon="10.142807"><ele>70.66666666666667</ele><time>2026-04-04T11:20:26.748Z</time></trkpt><trkpt lat="44.0387991" lon="10.1427098"><ele>70.0</ele><time>2026-04-04T11:20:27.724Z</time></trkpt><trkpt lat="44.0388272" lon="10.1426019"><ele>69.33333333333334</ele><time>2026-04-04T11:20:28.733Z</time></trkpt><trkpt lat="44.0388505" lon="10.1424871"><ele>68.66666666666667</ele><time>2026-04-04T11:20:29.742Z</time></trkpt><trkpt lat="44.0388763" lon="10.1423636"><ele>68.0</ele><time>2026-04-04T11:20:30.726Z</time></trkpt><trkpt lat="44.0389007" lon="10.142257"><ele>67.0</ele><time>2026-04-04T11:20:31.718Z</time></trkpt><trkpt lat="44.0389189" lon="10.1421572"><ele>66.0</ele><time>2026-04-04T11:20:32.722Z</time></trkpt><trkpt lat="44.0389266" lon="10.1420672"><ele>65.0</ele><time>2026-04-04T11:20:33.73Z</time></trkpt><trkpt lat="44.0389059" lon="10.141982"><ele>64.0</ele><time>2026-04-04T11:20:34.716Z</time></trkpt><trkpt lat="44.0387749" lon="10.1418983"><ele>63.00000000000001</ele><time>2026-04-04T11:20:36.728Z</time></trkpt><trkpt lat="44.0386943" lon="10.1418521"><ele>62.0</ele><time>2026-04-04T11:20:37.726Z</time></trkpt><trkpt lat="44.0386162" lon="10.1418078"><ele>62.00000000000001</ele><time>2026-04-04T11:20:38.73Z</time></trkpt><trkpt lat="44.0385424" lon="10.1417612"><ele>62.0</ele><time>2026-04-04T11:20:39.727Z</time></trkpt><trkpt lat="44.0384744" lon="10.1417113"><ele>62.0</ele><time>2026-04-04T11:20:40.728Z</time></trkpt><trkpt lat="44.0384122" lon="10.1416636"><ele>62.0</ele><time>2026-04-04T11:20:41.73Z</time></trkpt><trkpt lat="44.0383546" lon="10.1416175"><ele>62.00000000000001</ele><time>2026-04-04T11:20:42.732Z</time></trkpt><trkpt lat="44.0382544" lon="10.1415234"><ele>62.0</ele><time>2026-04-04T11:20:44.745Z</time></trkpt><trkpt lat="44.0381403" lon="10.1414163"><ele>61.833333333333336</ele><time>2026-04-04T11:20:46.73Z</time></trkpt><trkpt lat="44.0380763" lon="10.1413471"><ele>61.66666666666667</ele><time>2026-04-04T11:20:47.724Z</time></trkpt><trkpt lat="44.0380029" lon="10.1412774"><ele>61.5</ele><time>2026-04-04T11:20:48.727Z</time></trkpt><trkpt lat="44.0379238" lon="10.1411973"><ele>61.33333333333333</ele><time>2026-04-04T11:20:49.728Z</time></trkpt><trkpt lat="44.0378485" lon="10.1411259"><ele>61.166666666666664</ele><time>2026-04-04T11:20:50.738Z</time></trkpt><trkpt lat="44.0377841" lon="10.1410648"><ele>61.0</ele><time>2026-04-04T11:20:51.719Z</time></trkpt><trkpt lat="44.0376914" lon="10.1409864"><ele>61.0</ele><time>2026-04-04T11:20:53.719Z</time></trkpt><trkpt lat="44.0376607" lon="10.1408781"><ele>60.99999999999999</ele><time>2026-04-04T11:20:55.728Z</time></trkpt><trkpt lat="44.0377288" lon="10.1407481"><ele>60.99999999999999</ele><time>2026-04-04T11:20:57.734Z</time></trkpt><trkpt lat="44.0378123" lon="10.1406987"><ele>61.0</ele><time>2026-04-04T11:20:58.721Z</time></trkpt><trkpt lat="44.0378995" lon="10.1406389"><ele>61.0</ele><time>2026-04-04T11:20:59.726Z</time></trkpt><trkpt lat="44.0379827" lon="10.140588"><ele>60.83333333333333</ele><time>2026-04-04T11:21:00.74Z</time></trkpt><trkpt lat="44.0380601" lon="10.1405461"><ele>60.666666666666664</ele><time>2026-04-04T11:21:01.726Z</time></trkpt><trkpt lat="44.0381346" lon="10.1405069"><ele>60.5</ele><time>2026-04-04T11:21:02.721Z</time></trkpt><trkpt lat="44.0382123" lon="10.1404649"><ele>60.33333333333333</ele><time>2026-04-04T11:21:03.712Z</time></trkpt><trkpt lat="44.0382997" lon="10.140407"><ele>60.166666666666664</ele><time>2026-04-04T11:21:04.708Z</time></trkpt><trkpt lat="44.0383902" lon="10.1403385"><ele>60.0</ele><time>2026-04-04T11:21:05.716Z</time></trkpt><trkpt lat="44.0384914" lon="10.1402574"><ele>59.5</ele><time>2026-04-04T11:21:06.715Z</time></trkpt><trkpt lat="44.0386067" lon="10.1401716"><ele>59.0</ele><time>2026-04-04T11:21:07.715Z</time></trkpt><trkpt lat="44.0387176" lon="10.1400915"><ele>58.5</ele><time>2026-04-04T11:21:08.713Z</time></trkpt><trkpt lat="44.0388204" lon="10.1400156"><ele>58.0</ele><time>2026-04-04T11:21:09.743Z</time></trkpt><trkpt lat="44.0389074" lon="10.1399612"><ele>58.0</ele><time>2026-04-04T11:21:10.712Z</time></trkpt><trkpt lat="44.0389783" lon="10.139913"><ele>58.0</ele><time>2026-04-04T11:21:11.713Z</time></trkpt><trkpt lat="44.0390403" lon="10.139866"><ele>58.0</ele><time>2026-04-04T11:21:12.706Z</time></trkpt><trkpt lat="44.0391364" lon="10.1397991"><ele>58.0</ele><time>2026-04-04T11:21:14.713Z</time></trkpt><trkpt lat="44.0392093" lon="10.1397458"><ele>58.0</ele><time>2026-04-04T11:22:03.712Z</time></trkpt><trkpt lat="44.0393206" lon="10.1396622"><ele>57.599999999999994</ele><time>2026-04-04T11:22:05.72Z</time></trkpt><trkpt lat="44.0394398" lon="10.1395626"><ele>57.199999999999996</ele><time>2026-04-04T11:22:06.711Z</time></trkpt><trkpt lat="44.0395611" lon="10.139454"><ele>56.8</ele><time>2026-04-04T11:22:07.714Z</time></trkpt><trkpt lat="44.0396198" lon="10.1393884"><ele>56.4</ele><time>2026-04-04T11:22:08.709Z</time></trkpt><trkpt lat="44.039686" lon="10.1393017"><ele>56.0</ele><time>2026-04-04T11:22:10.711Z</time></trkpt><trkpt lat="44.0397575" lon="10.1392358"><ele>56.0</ele><time>2026-04-04T11:22:12.712Z</time></trkpt><trkpt lat="44.0398169" lon="10.1391756"><ele>55.99999999999999</ele><time>2026-04-04T11:22:14.727Z</time></trkpt><trkpt lat="44.0399099" lon="10.1391152"><ele>55.99999999999999</ele><time>2026-04-04T11:22:16.721Z</time></trkpt><trkpt lat="44.0399681" lon="10.139072"><ele>56.0</ele><time>2026-04-04T11:22:17.72Z</time></trkpt><trkpt lat="44.0400672" lon="10.1389937"><ele>56.0</ele><time>2026-04-04T11:22:19.734Z</time></trkpt><trkpt lat="44.0401437" lon="10.1389179"><ele>52.4</ele><time>2026-04-04T11:22:21.731Z</time></trkpt><trkpt lat="44.0402453" lon="10.1388326"><ele>48.8</ele><time>2026-04-04T11:22:23.746Z</time></trkpt><trkpt lat="44.0403133" lon="10.1387705"><ele>45.199999999999996</ele><time>2026-04-04T11:22:24.732Z</time></trkpt><trkpt lat="44.0403915" lon="10.1386935"><ele>41.599999999999994</ele><time>2026-04-04T11:22:25.738Z</time></trkpt><trkpt lat="44.0404951" lon="10.1386106"><ele>38.0</ele><time>2026-04-04T11:22:26.732Z</time></trkpt><trkpt lat="44.0406197" lon="10.1385212"><ele>38.0</ele><time>2026-04-04T11:22:27.744Z</time></trkpt><trkpt lat="44.0407569" lon="10.1384194"><ele>38.0</ele><time>2026-04-04T11:22:28.734Z</time></trkpt><trkpt lat="44.0409016" lon="10.13831"><ele>38.0</ele><time>2026-04-04T11:22:29.73Z</time></trkpt><trkpt lat="44.0410443" lon="10.1381912"><ele>39.666666666666664</ele><time>2026-04-04T11:22:30.735Z</time></trkpt><trkpt lat="44.0411778" lon="10.1380715"><ele>41.333333333333336</ele><time>2026-04-04T11:22:31.735Z</time></trkpt><trkpt lat="44.0413087" lon="10.1379656"><ele>43.0</ele><time>2026-04-04T11:22:32.728Z</time></trkpt><trkpt lat="44.0414323" lon="10.1378466"><ele>43.0</ele><time>2026-04-04T11:22:33.729Z</time></trkpt><trkpt lat="44.0415544" lon="10.1377343"><ele>43.0</ele><time>2026-04-04T11:22:34.741Z</time></trkpt><trkpt lat="44.0416771" lon="10.137619"><ele>43.0</ele><time>2026-04-04T11:22:35.741Z</time></trkpt><trkpt lat="44.0417965" lon="10.1374999"><ele>43.0</ele><time>2026-04-04T11:22:36.742Z</time></trkpt><trkpt lat="44.0419127" lon="10.1373814"><ele>46.333333333333336</ele><time>2026-04-04T11:22:37.74Z</time></trkpt><trkpt lat="44.0420664" lon="10.1372701"><ele>49.66666666666667</ele><time>2026-04-04T11:22:38.737Z</time></trkpt><trkpt lat="44.0422294" lon="10.137128"><ele>53.0</ele><time>2026-04-04T11:22:39.727Z</time></trkpt><trkpt lat="44.0423683" lon="10.1370011"><ele>54.0</ele><time>2026-04-04T11:22:40.73Z</time></trkpt><trkpt lat="44.0424858" lon="10.1368905"><ele>55.0</ele><time>2026-04-04T11:22:41.728Z</time></trkpt><trkpt lat="44.0425987" lon="10.1367915"><ele>56.0</ele><time>2026-04-04T11:22:42.725Z</time></trkpt><trkpt lat="44.0427376" lon="10.1366959"><ele>57.0</ele><time>2026-04-04T11:22:43.723Z</time></trkpt><trkpt lat="44.0429093" lon="10.1365566"><ele>56.66666666666667</ele><time>2026-04-04T11:22:44.734Z</time></trkpt><trkpt lat="44.0430644" lon="10.136427"><ele>56.333333333333336</ele><time>2026-04-04T11:22:45.715Z</time></trkpt><trkpt lat="44.0432037" lon="10.1363029"><ele>56.0</ele><time>2026-04-04T11:22:46.726Z</time></trkpt><trkpt lat="44.0433399" lon="10.1361843"><ele>57.0</ele><time>2026-04-04T11:22:47.727Z</time></trkpt><trkpt lat="44.0434776" lon="10.136063"><ele>58.0</ele><time>2026-04-04T11:22:48.729Z</time></trkpt><trkpt lat="44.0436107" lon="10.1359284"><ele>59.0</ele><time>2026-04-04T11:22:49.741Z</time></trkpt><trkpt lat="44.0437418" lon="10.1358063"><ele>58.5</ele><time>2026-04-04T11:22:50.739Z</time></trkpt><trkpt lat="44.043862" lon="10.1357018"><ele>58.0</ele><time>2026-04-04T11:22:51.737Z</time></trkpt><trkpt lat="44.0439731" lon="10.1356178"><ele>57.5</ele><time>2026-04-04T11:22:52.732Z</time></trkpt><trkpt lat="44.0440731" lon="10.1355297"><ele>57.0</ele><time>2026-04-04T11:22:53.731Z</time></trkpt><trkpt lat="44.0441502" lon="10.135459"><ele>58.0</ele><time>2026-04-04T11:22:54.748Z</time></trkpt><trkpt lat="44.0442304" lon="10.135397"><ele>59.0</ele><time>2026-04-04T11:22:55.737Z</time></trkpt><trkpt lat="44.0443158" lon="10.1353235"><ele>60.0</ele><time>2026-04-04T11:22:56.726Z</time></trkpt><trkpt lat="44.0444104" lon="10.1352297"><ele>61.0</ele><time>2026-04-04T11:22:57.74Z</time></trkpt><trkpt lat="44.0445168" lon="10.1351365"><ele>62.0</ele><time>2026-04-04T11:22:58.728Z</time></trkpt><trkpt lat="44.0446332" lon="10.1350281"><ele>62.0</ele><time>2026-04-04T11:22:59.722Z</time></trkpt><trkpt lat="44.0447627" lon="10.1349152"><ele>62.0</ele><time>2026-04-04T11:23:00.726Z</time></trkpt><trkpt lat="44.044887" lon="10.1348081"><ele>62.0</ele><time>2026-04-04T11:23:01.732Z</time></trkpt><trkpt lat="44.0450119" lon="10.1347041"><ele>62.0</ele><time>2026-04-04T11:23:02.734Z</time></trkpt><trkpt lat="44.0451481" lon="10.1345913"><ele>61.66666666666667</ele><time>2026-04-04T11:23:03.738Z</time></trkpt><trkpt lat="44.0452843" lon="10.1344605"><ele>61.33333333333333</ele><time>2026-04-04T11:23:04.727Z</time></trkpt><trkpt lat="44.0454383" lon="10.1343216"><ele>61.0</ele><time>2026-04-04T11:23:05.731Z</time></trkpt><trkpt lat="44.0455868" lon="10.1341978"><ele>61.0</ele><time>2026-04-04T11:23:06.731Z</time></trkpt><trkpt lat="44.0457336" lon="10.1340794"><ele>61.0</ele><time>2026-04-04T11:23:07.728Z</time></trkpt><trkpt lat="44.0458847" lon="10.1339552"><ele>61.0</ele><time>2026-04-04T11:23:08.73Z</time></trkpt><trkpt lat="44.0460443" lon="10.1338175"><ele>60.666666666666664</ele><time>2026-04-04T11:23:09.73Z</time></trkpt><trkpt lat="44.0462062" lon="10.1336669"><ele>60.33333333333333</ele><time>2026-04-04T11:23:10.742Z</time></trkpt><trkpt lat="44.0463768" lon="10.1335229"><ele>60.0</ele><time>2026-04-04T11:23:11.738Z</time></trkpt><trkpt lat="44.0465407" lon="10.1333828"><ele>60.0</ele><time>2026-04-04T11:23:12.735Z</time></trkpt><trkpt lat="44.0466971" lon="10.1332384"><ele>60.0</ele><time>2026-04-04T11:23:13.746Z</time></trkpt><trkpt lat="44.0468622" lon="10.1330974"><ele>60.0</ele><time>2026-04-04T11:23:14.739Z</time></trkpt><trkpt lat="44.0470323" lon="10.1329595"><ele>60.0</ele><time>2026-04-04T11:23:15.741Z</time></trkpt><trkpt lat="44.0471942" lon="10.1328208"><ele>60.0</ele><time>2026-04-04T11:23:16.739Z</time></trkpt><trkpt lat="44.0473582" lon="10.1326797"><ele>60.0</ele><time>2026-04-04T11:23:17.737Z</time></trkpt><trkpt lat="44.0475141" lon="10.1325411"><ele>60.0</ele><time>2026-04-04T11:23:18.741Z</time></trkpt><trkpt lat="44.0476552" lon="10.1324108"><ele>60.0</ele><time>2026-04-04T11:23:19.734Z</time></trkpt><trkpt lat="44.0477824" lon="10.132288"><ele>60.0</ele><time>2026-04-04T11:23:20.735Z</time></trkpt><trkpt lat="44.0478906" lon="10.1321344"><ele>60.0</ele><time>2026-04-04T11:23:21.741Z</time></trkpt><trkpt lat="44.0479877" lon="10.1319234"><ele>60.0</ele><time>2026-04-04T11:23:22.724Z</time></trkpt><trkpt lat="44.0480728" lon="10.1316814"><ele>60.0</ele><time>2026-04-04T11:23:23.725Z</time></trkpt><trkpt lat="44.048157" lon="10.1314366"><ele>59.66666666666667</ele><time>2026-04-04T11:23:24.723Z</time></trkpt><trkpt lat="44.0482583" lon="10.1312018"><ele>59.333333333333336</ele><time>2026-04-04T11:23:25.736Z</time></trkpt><trkpt lat="44.0483744" lon="10.1309736"><ele>59.0</ele><time>2026-04-04T11:23:26.724Z</time></trkpt><trkpt lat="44.0484948" lon="10.1307637"><ele>61.0</ele><time>2026-04-04T11:23:27.731Z</time></trkpt><trkpt lat="44.0486203" lon="10.1305851"><ele>63.0</ele><time>2026-04-04T11:23:28.72Z</time></trkpt><trkpt lat="44.0487487" lon="10.130434"><ele>65.0</ele><time>2026-04-04T11:23:29.724Z</time></trkpt><trkpt lat="44.0488956" lon="10.130299"><ele>65.0</ele><time>2026-04-04T11:23:30.723Z</time></trkpt><trkpt lat="44.0490399" lon="10.1302105"><ele>65.0</ele><time>2026-04-04T11:23:31.711Z</time></trkpt><trkpt lat="44.0491611" lon="10.1300988"><ele>65.0</ele><time>2026-04-04T11:23:32.724Z</time></trkpt><trkpt lat="44.049264" lon="10.1299501"><ele>68.0</ele><time>2026-04-04T11:23:33.73Z</time></trkpt><trkpt lat="44.0493651" lon="10.1297788"><ele>71.0</ele><time>2026-04-04T11:23:34.724Z</time></trkpt><trkpt lat="44.0494741" lon="10.1296168"><ele>74.0</ele><time>2026-04-04T11:23:35.725Z</time></trkpt><trkpt lat="44.0496148" lon="10.1294641"><ele>74.0</ele><time>2026-04-04T11:23:36.73Z</time></trkpt><trkpt lat="44.0497884" lon="10.1293213"><ele>74.0</ele><time>2026-04-04T11:23:37.725Z</time></trkpt><trkpt lat="44.0499593" lon="10.1291874"><ele>74.0</ele><time>2026-04-04T11:23:38.718Z</time></trkpt><trkpt lat="44.0501186" lon="10.1290768"><ele>77.66666666666667</ele><time>2026-04-04T11:23:39.721Z</time></trkpt><trkpt lat="44.0502721" lon="10.1289501"><ele>81.33333333333333</ele><time>2026-04-04T11:23:40.722Z</time></trkpt><trkpt lat="44.0504192" lon="10.1288193"><ele>85.0</ele><time>2026-04-04T11:23:41.744Z</time></trkpt><trkpt lat="44.0505627" lon="10.1286764"><ele>85.0</ele><time>2026-04-04T11:23:42.723Z</time></trkpt><trkpt lat="44.050696" lon="10.1285337"><ele>85.0</ele><time>2026-04-04T11:23:43.725Z</time></trkpt><trkpt lat="44.0508263" lon="10.1283914"><ele>85.0</ele><time>2026-04-04T11:23:44.724Z</time></trkpt><trkpt lat="44.0509418" lon="10.1282296"><ele>89.0</ele><time>2026-04-04T11:23:45.721Z</time></trkpt><trkpt lat="44.0510287" lon="10.1280269"><ele>93.0</ele><time>2026-04-04T11:23:46.722Z</time></trkpt><trkpt lat="44.0510932" lon="10.1278224"><ele>97.0</ele><time>2026-04-04T11:23:47.722Z</time></trkpt><trkpt lat="44.0511492" lon="10.127636"><ele>97.0</ele><time>2026-04-04T11:23:48.725Z</time></trkpt><trkpt lat="44.0512403" lon="10.1274863"><ele>97.0</ele><time>2026-04-04T11:23:49.726Z</time></trkpt><trkpt lat="44.0513552" lon="10.1273628"><ele>97.0</ele><time>2026-04-04T11:23:50.719Z</time></trkpt><trkpt lat="44.05149" lon="10.1272512"><ele>97.0</ele><time>2026-04-04T11:23:51.722Z</time></trkpt><trkpt lat="44.0516258" lon="10.1271645"><ele>97.0</ele><time>2026-04-04T11:23:52.725Z</time></trkpt><trkpt lat="44.0517558" lon="10.1270681"><ele>97.0</ele><time>2026-04-04T11:23:53.726Z</time></trkpt><trkpt lat="44.0518753" lon="10.1269635"><ele>97.0</ele><time>2026-04-04T11:23:54.722Z</time></trkpt><trkpt lat="44.0519911" lon="10.1268502"><ele>97.0</ele><time>2026-04-04T11:23:55.723Z</time></trkpt><trkpt lat="44.0520937" lon="10.1267103"><ele>93.66666666666667</ele><time>2026-04-04T11:23:56.736Z</time></trkpt><trkpt lat="44.052169" lon="10.1265312"><ele>90.33333333333334</ele><time>2026-04-04T11:23:57.731Z</time></trkpt><trkpt lat="44.0522211" lon="10.1262976"><ele>87.0</ele><time>2026-04-04T11:23:58.728Z</time></trkpt><trkpt lat="44.0522724" lon="10.1260691"><ele>87.0</ele><time>2026-04-04T11:23:59.724Z</time></trkpt><trkpt lat="44.0523397" lon="10.1258539"><ele>87.0</ele><time>2026-04-04T11:24:00.729Z</time></trkpt><trkpt lat="44.0524437" lon="10.1256392"><ele>87.0</ele><time>2026-04-04T11:24:01.723Z</time></trkpt><trkpt lat="44.0525726" lon="10.1254345"><ele>87.0</ele><time>2026-04-04T11:24:02.723Z</time></trkpt><trkpt lat="44.052677" lon="10.1252227"><ele>87.0</ele><time>2026-04-04T11:24:03.72Z</time></trkpt><trkpt lat="44.0527774" lon="10.1250316"><ele>87.0</ele><time>2026-04-04T11:24:04.717Z</time></trkpt><trkpt lat="44.0528978" lon="10.1248814"><ele>87.0</ele><time>2026-04-04T11:24:05.707Z</time></trkpt><trkpt lat="44.0530403" lon="10.1247582"><ele>87.0</ele><time>2026-04-04T11:24:06.719Z</time></trkpt><trkpt lat="44.053175" lon="10.1246391"><ele>87.0</ele><time>2026-04-04T11:24:07.721Z</time></trkpt><trkpt lat="44.0532983" lon="10.1245569"><ele>91.0</ele><time>2026-04-04T11:24:08.718Z</time></trkpt><trkpt lat="44.0534088" lon="10.1245741"><ele>95.0</ele><time>2026-04-04T11:24:09.715Z</time></trkpt><trkpt lat="44.053497" lon="10.1246853"><ele>99.0</ele><time>2026-04-04T11:24:10.722Z</time></trkpt><trkpt lat="44.0535842" lon="10.1248479"><ele>103.0</ele><time>2026-04-04T11:24:11.708Z</time></trkpt><trkpt lat="44.0537164" lon="10.1250467"><ele>111.5</ele><time>2026-04-04T11:24:12.707Z</time></trkpt><trkpt lat="44.0538416" lon="10.1251997"><ele>120.0</ele><time>2026-04-04T11:24:13.705Z</time></trkpt><trkpt lat="44.0539273" lon="10.1252859"><ele>128.5</ele><time>2026-04-04T11:24:14.705Z</time></trkpt><trkpt lat="44.0540236" lon="10.125299"><ele>137.0</ele><time>2026-04-04T11:24:15.7Z</time></trkpt><trkpt lat="44.0541137" lon="10.125273"><ele>141.0</ele><time>2026-04-04T11:24:16.699Z</time></trkpt><trkpt lat="44.0541932" lon="10.1251709"><ele>145.0</ele><time>2026-04-04T11:24:17.733Z</time></trkpt><trkpt lat="44.0542562" lon="10.1249984"><ele>149.0</ele><time>2026-04-04T11:24:18.741Z</time></trkpt><trkpt lat="44.0543342" lon="10.1247331"><ele>139.0</ele><time>2026-04-04T11:24:19.717Z</time></trkpt><trkpt lat="44.0544293" lon="10.124469"><ele>129.0</ele><time>2026-04-04T11:24:20.738Z</time></trkpt><trkpt lat="44.0545409" lon="10.1242813"><ele>119.0</ele><time>2026-04-04T11:24:21.744Z</time></trkpt><trkpt lat="44.0546756" lon="10.1241133"><ele>122.0</ele><time>2026-04-04T11:24:22.74Z</time></trkpt><trkpt lat="44.0548459" lon="10.1239543"><ele>125.0</ele><time>2026-04-04T11:24:23.722Z</time></trkpt><trkpt lat="44.0550059" lon="10.1238059"><ele>128.0</ele><time>2026-04-04T11:24:24.714Z</time></trkpt><trkpt lat="44.0551498" lon="10.1236893"><ele>128.0</ele><time>2026-04-04T11:24:25.719Z</time></trkpt><trkpt lat="44.0552915" lon="10.1235938"><ele>128.0</ele><time>2026-04-04T11:24:26.719Z</time></trkpt><trkpt lat="44.055444" lon="10.1235048"><ele>128.0</ele><time>2026-04-04T11:24:27.735Z</time></trkpt><trkpt lat="44.0555978" lon="10.1234082"><ele>128.0</ele><time>2026-04-04T11:24:28.719Z</time></trkpt><trkpt lat="44.0557402" lon="10.1233025"><ele>128.0</ele><time>2026-04-04T11:24:29.723Z</time></trkpt><trkpt lat="44.0558884" lon="10.1231962"><ele>128.0</ele><time>2026-04-04T11:24:30.726Z</time></trkpt><trkpt lat="44.056048" lon="10.1231078"><ele>129.66666666666666</ele><time>2026-04-04T11:24:31.723Z</time></trkpt><trkpt lat="44.0562202" lon="10.1230432"><ele>131.33333333333334</ele><time>2026-04-04T11:24:32.72Z</time></trkpt><trkpt lat="44.0563728" lon="10.1229811"><ele>133.0</ele><time>2026-04-04T11:24:33.724Z</time></trkpt><trkpt lat="44.0565102" lon="10.1229104"><ele>137.25</ele><time>2026-04-04T11:24:34.72Z</time></trkpt><trkpt lat="44.0566395" lon="10.122858"><ele>141.5</ele><time>2026-04-04T11:24:35.719Z</time></trkpt><trkpt lat="44.0567712" lon="10.1228187"><ele>145.75</ele><time>2026-04-04T11:24:36.734Z</time></trkpt><trkpt lat="44.0568901" lon="10.1227753"><ele>150.0</ele><time>2026-04-04T11:24:37.737Z</time></trkpt><trkpt lat="44.0569832" lon="10.1226909"><ele>150.0</ele><time>2026-04-04T11:24:38.714Z</time></trkpt><trkpt lat="44.0570567" lon="10.1225343"><ele>150.0</ele><time>2026-04-04T11:24:39.721Z</time></trkpt><trkpt lat="44.0571198" lon="10.122394"><ele>150.0</ele><time>2026-04-04T11:24:40.723Z</time></trkpt><trkpt lat="44.0571801" lon="10.12227"><ele>150.0</ele><time>2026-04-04T11:24:41.718Z</time></trkpt><trkpt lat="44.057248" lon="10.1221398"><ele>153.0</ele><time>2026-04-04T11:24:42.717Z</time></trkpt><trkpt lat="44.0573298" lon="10.1219995"><ele>156.0</ele><time>2026-04-04T11:24:43.717Z</time></trkpt><trkpt lat="44.0574253" lon="10.1218612"><ele>159.0</ele><time>2026-04-04T11:24:44.72Z</time></trkpt><trkpt lat="44.0575241" lon="10.1217243"><ele>162.0</ele><time>2026-04-04T11:24:45.72Z</time></trkpt><trkpt lat="44.0576244" lon="10.121589"><ele>154.33333333333334</ele><time>2026-04-04T11:24:46.721Z</time></trkpt><trkpt lat="44.0577383" lon="10.1214551"><ele>146.66666666666669</ele><time>2026-04-04T11:24:47.722Z</time></trkpt><trkpt lat="44.0578639" lon="10.1213313"><ele>139.0</ele><time>2026-04-04T11:24:48.723Z</time></trkpt><trkpt lat="44.0579842" lon="10.1212114"><ele>139.0</ele><time>2026-04-04T11:24:49.721Z</time></trkpt><trkpt lat="44.0580862" lon="10.1210697"><ele>139.0</ele><time>2026-04-04T11:24:50.725Z</time></trkpt><trkpt lat="44.0581902" lon="10.1209038"><ele>139.0</ele><time>2026-04-04T11:24:51.727Z</time></trkpt><trkpt lat="44.0583106" lon="10.1207401"><ele>141.66666666666669</ele><time>2026-04-04T11:24:52.722Z</time></trkpt><trkpt lat="44.0584494" lon="10.1205979"><ele>144.33333333333334</ele><time>2026-04-04T11:24:53.722Z</time></trkpt><trkpt lat="44.0585972" lon="10.1204783"><ele>147.0</ele><time>2026-04-04T11:24:54.722Z</time></trkpt><trkpt lat="44.0587411" lon="10.1203724"><ele>147.0</ele><time>2026-04-04T11:24:55.719Z</time></trkpt><trkpt lat="44.058878" lon="10.120263"><ele>147.0</ele><time>2026-04-04T11:24:56.718Z</time></trkpt><trkpt lat="44.0590375" lon="10.1201503"><ele>147.0</ele><time>2026-04-04T11:24:57.722Z</time></trkpt><trkpt lat="44.0592243" lon="10.1200351"><ele>139.0</ele><time>2026-04-04T11:24:58.731Z</time></trkpt><trkpt lat="44.0594565" lon="10.119862"><ele>131.0</ele><time>2026-04-04T11:24:59.718Z</time></trkpt><trkpt lat="44.0596824" lon="10.1196829"><ele>131.0</ele><time>2026-04-04T11:25:00.716Z</time></trkpt><trkpt lat="44.0599263" lon="10.11953"><ele>131.0</ele><time>2026-04-04T11:25:01.72Z</time></trkpt><trkpt lat="44.060168" lon="10.11939"><ele>151.0</ele><time>2026-04-04T11:25:02.713Z</time></trkpt><trkpt lat="44.0603937" lon="10.119247"><ele>171.0</ele><time>2026-04-04T11:25:03.71Z</time></trkpt><trkpt lat="44.0606022" lon="10.1190703"><ele>172.0</ele><time>2026-04-04T11:25:04.716Z</time></trkpt><trkpt lat="44.0608035" lon="10.1188814"><ele>173.0</ele><time>2026-04-04T11:25:05.718Z</time></trkpt><trkpt lat="44.0609842" lon="10.1186999"><ele>173.0</ele><time>2026-04-04T11:25:06.714Z</time></trkpt><trkpt lat="44.0611458" lon="10.1185211"><ele>173.0</ele><time>2026-04-04T11:25:07.715Z</time></trkpt><trkpt lat="44.0612929" lon="10.1183517"><ele>173.0</ele><time>2026-04-04T11:25:08.72Z</time></trkpt><trkpt lat="44.0614353" lon="10.1181842"><ele>173.0</ele><time>2026-04-04T11:25:09.722Z</time></trkpt><trkpt lat="44.0615879" lon="10.1180306"><ele>173.0</ele><time>2026-04-04T11:25:10.711Z</time></trkpt><trkpt lat="44.0617709" lon="10.1178921"><ele>173.0</ele><time>2026-04-04T11:25:11.718Z</time></trkpt><trkpt lat="44.0619666" lon="10.1177473"><ele>173.0</ele><time>2026-04-04T11:25:12.714Z</time></trkpt><trkpt lat="44.0621628" lon="10.1176168"><ele>173.0</ele><time>2026-04-04T11:25:13.717Z</time></trkpt><trkpt lat="44.0623482" lon="10.117493"><ele>173.0</ele><time>2026-04-04T11:25:14.718Z</time></trkpt><trkpt lat="44.0625229" lon="10.1173892"><ele>176.0</ele><time>2026-04-04T11:25:15.717Z</time></trkpt><trkpt lat="44.0626872" lon="10.1172935"><ele>179.0</ele><time>2026-04-04T11:25:16.717Z</time></trkpt><trkpt lat="44.0628347" lon="10.1171906"><ele>182.0</ele><time>2026-04-04T11:25:17.713Z</time></trkpt><trkpt lat="44.0629566" lon="10.1170941"><ele>182.0</ele><time>2026-04-04T11:25:18.719Z</time></trkpt><trkpt lat="44.0630664" lon="10.1170213"><ele>182.0</ele><time>2026-04-04T11:25:19.708Z</time></trkpt><trkpt lat="44.0631419" lon="10.116927"><ele>182.0</ele><time>2026-04-04T11:25:20.712Z</time></trkpt><trkpt lat="44.06316" lon="10.1167808"><ele>182.0</ele><time>2026-04-04T11:25:21.721Z</time></trkpt><trkpt lat="44.0631285" lon="10.1166232"><ele>182.0</ele><time>2026-04-04T11:25:22.717Z</time></trkpt><trkpt lat="44.0631266" lon="10.1164518"><ele>177.0</ele><time>2026-04-04T11:25:23.719Z</time></trkpt><trkpt lat="44.0631527" lon="10.1162963"><ele>172.0</ele><time>2026-04-04T11:25:24.718Z</time></trkpt><trkpt lat="44.063205" lon="10.1161558"><ele>167.0</ele><time>2026-04-04T11:25:25.714Z</time></trkpt><trkpt lat="44.0632726" lon="10.1160039"><ele>162.0</ele><time>2026-04-04T11:25:26.718Z</time></trkpt><trkpt lat="44.063359" lon="10.1158543"><ele>167.75</ele><time>2026-04-04T11:25:27.727Z</time></trkpt><trkpt lat="44.0634593" lon="10.1157199"><ele>173.5</ele><time>2026-04-04T11:25:28.728Z</time></trkpt><trkpt lat="44.0635668" lon="10.1155982"><ele>179.25</ele><time>2026-04-04T11:25:29.74Z</time></trkpt><trkpt lat="44.0636801" lon="10.1154814"><ele>185.0</ele><time>2026-04-04T11:25:30.723Z</time></trkpt><trkpt lat="44.0637949" lon="10.1153749"><ele>185.0</ele><time>2026-04-04T11:25:31.725Z</time></trkpt><trkpt lat="44.0639101" lon="10.1152919"><ele>185.0</ele><time>2026-04-04T11:25:32.715Z</time></trkpt><trkpt lat="44.0640216" lon="10.1152176"><ele>185.0</ele><time>2026-04-04T11:25:33.719Z</time></trkpt><trkpt lat="44.0641431" lon="10.115157"><ele>185.0</ele><time>2026-04-04T11:25:34.739Z</time></trkpt><trkpt lat="44.0642642" lon="10.1151053"><ele>190.33333333333331</ele><time>2026-04-04T11:25:35.742Z</time></trkpt><trkpt lat="44.0643842" lon="10.115032"><ele>195.66666666666666</ele><time>2026-04-04T11:25:36.723Z</time></trkpt><trkpt lat="44.0644954" lon="10.1149036"><ele>201.0</ele><time>2026-04-04T11:25:37.726Z</time></trkpt><trkpt lat="44.0645807" lon="10.1146632"><ele>201.0</ele><time>2026-04-04T11:25:38.723Z</time></trkpt><trkpt lat="44.0646885" lon="10.1143543"><ele>201.0</ele><time>2026-04-04T11:25:39.724Z</time></trkpt><trkpt lat="44.0648462" lon="10.1140091"><ele>212.5</ele><time>2026-04-04T11:25:40.725Z</time></trkpt><trkpt lat="44.0649785" lon="10.1137109"><ele>224.0</ele><time>2026-04-04T11:25:41.727Z</time></trkpt><trkpt lat="44.0650887" lon="10.1134702"><ele>224.0</ele><time>2026-04-04T11:25:42.725Z</time></trkpt><trkpt lat="44.0651804" lon="10.1132732"><ele>224.0</ele><time>2026-04-04T11:25:43.718Z</time></trkpt><trkpt lat="44.0652708" lon="10.1130719"><ele>224.0</ele><time>2026-04-04T11:25:44.728Z</time></trkpt><trkpt lat="44.0653575" lon="10.112874"><ele>224.33333333333334</ele><time>2026-04-04T11:25:45.715Z</time></trkpt><trkpt lat="44.0654438" lon="10.1126534"><ele>224.66666666666669</ele><time>2026-04-04T11:25:46.714Z</time></trkpt><trkpt lat="44.0655072" lon="10.1124695"><ele>225.0</ele><time>2026-04-04T11:25:47.745Z</time></trkpt><trkpt lat="44.0655323" lon="10.1122874"><ele>225.0</ele><time>2026-04-04T11:25:48.729Z</time></trkpt><trkpt lat="44.0654956" lon="10.1121065"><ele>225.0</ele><time>2026-04-04T11:25:49.724Z</time></trkpt><trkpt lat="44.0654058" lon="10.1119185"><ele>225.0</ele><time>2026-04-04T11:25:50.723Z</time></trkpt><trkpt lat="44.0653214" lon="10.1117192"><ele>230.25</ele><time>2026-04-04T11:25:51.719Z</time></trkpt><trkpt lat="44.0652801" lon="10.111535"><ele>235.5</ele><time>2026-04-04T11:25:52.728Z</time></trkpt><trkpt lat="44.0653215" lon="10.1113558"><ele>240.75</ele><time>2026-04-04T11:25:53.718Z</time></trkpt><trkpt lat="44.065433" lon="10.1111982"><ele>246.0</ele><time>2026-04-04T11:25:54.716Z</time></trkpt><trkpt lat="44.0655607" lon="10.1110871"><ele>246.0</ele><time>2026-04-04T11:25:55.72Z</time></trkpt><trkpt lat="44.0657217" lon="10.1110173"><ele>246.0</ele><time>2026-04-04T11:25:56.714Z</time></trkpt><trkpt lat="44.06594" lon="10.1109377"><ele>246.0</ele><time>2026-04-04T11:25:57.719Z</time></trkpt><trkpt lat="44.0661651" lon="10.1108574"><ele>246.33333333333331</ele><time>2026-04-04T11:25:58.714Z</time></trkpt><trkpt lat="44.0663695" lon="10.1107907"><ele>246.66666666666666</ele><time>2026-04-04T11:25:59.706Z</time></trkpt><trkpt lat="44.0665671" lon="10.1107217"><ele>247.0</ele><time>2026-04-04T11:26:00.726Z</time></trkpt><trkpt lat="44.0667595" lon="10.1106268"><ele>245.33333333333331</ele><time>2026-04-04T11:26:01.716Z</time></trkpt><trkpt lat="44.0669304" lon="10.1105294"><ele>243.66666666666669</ele><time>2026-04-04T11:26:02.714Z</time></trkpt><trkpt lat="44.0671" lon="10.1104254"><ele>242.0</ele><time>2026-04-04T11:26:03.722Z</time></trkpt><trkpt lat="44.067269" lon="10.1103276"><ele>242.0</ele><time>2026-04-04T11:26:04.716Z</time></trkpt><trkpt lat="44.0674314" lon="10.1102111"><ele>242.0</ele><time>2026-04-04T11:26:05.712Z</time></trkpt><trkpt lat="44.0675979" lon="10.1100948"><ele>242.0</ele><time>2026-04-04T11:26:06.708Z</time></trkpt><trkpt lat="44.0677771" lon="10.109963"><ele>238.0</ele><time>2026-04-04T11:26:07.71Z</time></trkpt><trkpt lat="44.0679591" lon="10.109822"><ele>234.0</ele><time>2026-04-04T11:26:08.72Z</time></trkpt><trkpt lat="44.0681381" lon="10.109688"><ele>230.0</ele><time>2026-04-04T11:26:09.723Z</time></trkpt><trkpt lat="44.0683145" lon="10.109569"><ele>227.33333333333334</ele><time>2026-04-04T11:26:10.721Z</time></trkpt><trkpt lat="44.0685012" lon="10.1094604"><ele>224.66666666666669</ele><time>2026-04-04T11:26:11.723Z</time></trkpt><trkpt lat="44.0686934" lon="10.1093648"><ele>222.0</ele><time>2026-04-04T11:26:12.722Z</time></trkpt><trkpt lat="44.0688896" lon="10.1092924"><ele>222.0</ele><time>2026-04-04T11:26:13.729Z</time></trkpt><trkpt lat="44.0690831" lon="10.1092296"><ele>222.0</ele><time>2026-04-04T11:26:14.726Z</time></trkpt><trkpt lat="44.0692665" lon="10.1091613"><ele>222.0</ele><time>2026-04-04T11:26:15.721Z</time></trkpt><trkpt lat="44.0694391" lon="10.1090727"><ele>225.33333333333331</ele><time>2026-04-04T11:26:16.721Z</time></trkpt><trkpt lat="44.0695906" lon="10.1089541"><ele>228.66666666666666</ele><time>2026-04-04T11:26:17.718Z</time></trkpt><trkpt lat="44.0697256" lon="10.1087984"><ele>232.0</ele><time>2026-04-04T11:26:18.725Z</time></trkpt><trkpt lat="44.069829" lon="10.108592"><ele>232.0</ele><time>2026-04-04T11:26:19.713Z</time></trkpt><trkpt lat="44.0698979" lon="10.1083753"><ele>232.0</ele><time>2026-04-04T11:26:20.711Z</time></trkpt><trkpt lat="44.0699275" lon="10.1081302"><ele>232.0</ele><time>2026-04-04T11:26:21.717Z</time></trkpt><trkpt lat="44.0698795" lon="10.1078575"><ele>233.0</ele><time>2026-04-04T11:26:22.709Z</time></trkpt><trkpt lat="44.0698254" lon="10.1076202"><ele>234.0</ele><time>2026-04-04T11:26:23.732Z</time></trkpt><trkpt lat="44.0697927" lon="10.1074038"><ele>235.0</ele><time>2026-04-04T11:26:24.715Z</time></trkpt><trkpt lat="44.0698018" lon="10.1072062"><ele>236.25</ele><time>2026-04-04T11:26:25.716Z</time></trkpt><trkpt lat="44.0698682" lon="10.1070512"><ele>237.5</ele><time>2026-04-04T11:26:26.711Z</time></trkpt><trkpt lat="44.0699803" lon="10.1069542"><ele>238.75</ele><time>2026-04-04T11:26:27.74Z</time></trkpt><trkpt lat="44.0701122" lon="10.1068897"><ele>240.0</ele><time>2026-04-04T11:26:28.701Z</time></trkpt><trkpt lat="44.0702789" lon="10.1068531"><ele>229.66666666666669</ele><time>2026-04-04T11:26:29.717Z</time></trkpt><trkpt lat="44.070461" lon="10.1067947"><ele>219.33333333333334</ele><time>2026-04-04T11:26:30.718Z</time></trkpt><trkpt lat="44.0706412" lon="10.106735"><ele>209.0</ele><time>2026-04-04T11:26:31.708Z</time></trkpt><trkpt lat="44.0708043" lon="10.1066777"><ele>208.5</ele><time>2026-04-04T11:26:32.737Z</time></trkpt><trkpt lat="44.0709347" lon="10.1065973"><ele>208.0</ele><time>2026-04-04T11:26:33.71Z</time></trkpt><trkpt lat="44.0710416" lon="10.1064699"><ele>207.5</ele><time>2026-04-04T11:26:34.701Z</time></trkpt><trkpt lat="44.0711059" lon="10.1062792"><ele>207.0</ele><time>2026-04-04T11:26:35.715Z</time></trkpt><trkpt lat="44.0711599" lon="10.1060658"><ele>207.0</ele><time>2026-04-04T11:26:36.707Z</time></trkpt><trkpt lat="44.0712396" lon="10.1058887"><ele>207.0</ele><time>2026-04-04T11:26:37.71Z</time></trkpt><trkpt lat="44.0713627" lon="10.1057971"><ele>207.0</ele><time>2026-04-04T11:26:38.713Z</time></trkpt><trkpt lat="44.071501" lon="10.105776"><ele>207.0</ele><time>2026-04-04T11:26:39.712Z</time></trkpt><trkpt lat="44.0716356" lon="10.1058365"><ele>202.75</ele><time>2026-04-04T11:26:40.697Z</time></trkpt><trkpt lat="44.071758" lon="10.1059517"><ele>198.5</ele><time>2026-04-04T11:26:41.704Z</time></trkpt><trkpt lat="44.0718835" lon="10.1060397"><ele>194.25</ele><time>2026-04-04T11:26:42.697Z</time></trkpt><trkpt lat="44.0720299" lon="10.1060613"><ele>190.0</ele><time>2026-04-04T11:26:43.713Z</time></trkpt><trkpt lat="44.0722087" lon="10.1059577"><ele>190.0</ele><time>2026-04-04T11:26:44.719Z</time></trkpt><trkpt lat="44.0723996" lon="10.1058317"><ele>190.0</ele><time>2026-04-04T11:26:45.695Z</time></trkpt><trkpt lat="44.0725769" lon="10.1056988"><ele>190.0</ele><time>2026-04-04T11:26:46.708Z</time></trkpt><trkpt lat="44.072758" lon="10.1055743"><ele>187.33333333333334</ele><time>2026-04-04T11:26:47.717Z</time></trkpt><trkpt lat="44.0729406" lon="10.1054704"><ele>184.66666666666666</ele><time>2026-04-04T11:26:48.698Z</time></trkpt><trkpt lat="44.0731194" lon="10.1053933"><ele>182.0</ele><time>2026-04-04T11:26:49.713Z</time></trkpt><trkpt lat="44.0732816" lon="10.1053363"><ele>176.4</ele><time>2026-04-04T11:26:50.703Z</time></trkpt><trkpt lat="44.0734063" lon="10.1052852"><ele>170.79999999999998</ele><time>2026-04-04T11:26:51.697Z</time></trkpt><trkpt lat="44.0735195" lon="10.1052902"><ele>165.2</ele><time>2026-04-04T11:26:52.72Z</time></trkpt><trkpt lat="44.0736065" lon="10.1053727"><ele>159.6</ele><time>2026-04-04T11:26:53.721Z</time></trkpt><trkpt lat="44.0736446" lon="10.1054681"><ele>154.0</ele><time>2026-04-04T11:26:54.722Z</time></trkpt><trkpt lat="44.0735746" lon="10.1055764"><ele>154.0</ele><time>2026-04-04T11:26:55.716Z</time></trkpt><trkpt lat="44.0734693" lon="10.1056817"><ele>154.0</ele><time>2026-04-04T11:26:56.703Z</time></trkpt><trkpt lat="44.0733196" lon="10.1057424"><ele>154.0</ele><time>2026-04-04T11:26:57.718Z</time></trkpt><trkpt lat="44.0731534" lon="10.105755"><ele>157.6</ele><time>2026-04-04T11:26:58.703Z</time></trkpt><trkpt lat="44.0730215" lon="10.105759"><ele>161.2</ele><time>2026-04-04T11:26:59.698Z</time></trkpt><trkpt lat="44.0729481" lon="10.1058184"><ele>164.79999999999998</ele><time>2026-04-04T11:27:00.71Z</time></trkpt><trkpt lat="44.0729406" lon="10.1059177"><ele>168.4</ele><time>2026-04-04T11:27:01.686Z</time></trkpt><trkpt lat="44.0729988" lon="10.1060223"><ele>172.0</ele><time>2026-04-04T11:27:02.708Z</time></trkpt><trkpt lat="44.0730925" lon="10.1060701"><ele>172.0</ele><time>2026-04-04T11:27:03.699Z</time></trkpt><trkpt lat="44.0732371" lon="10.1060619"><ele>172.0</ele><time>2026-04-04T11:27:04.705Z</time></trkpt><trkpt lat="44.073431" lon="10.1059988"><ele>172.0</ele><time>2026-04-04T11:27:05.685Z</time></trkpt><trkpt lat="44.0736065" lon="10.1058983"><ele>167.5</ele><time>2026-04-04T11:27:06.708Z</time></trkpt><trkpt lat="44.0737478" lon="10.1057551"><ele>163.0</ele><time>2026-04-04T11:27:07.706Z</time></trkpt><trkpt lat="44.0738458" lon="10.1056244"><ele>158.5</ele><time>2026-04-04T11:27:08.717Z</time></trkpt><trkpt lat="44.0738525" lon="10.1054601"><ele>154.0</ele><time>2026-04-04T11:27:09.702Z</time></trkpt><trkpt lat="44.0738093" lon="10.1053199"><ele>154.0</ele><time>2026-04-04T11:27:10.712Z</time></trkpt><trkpt lat="44.0738673" lon="10.1052613"><ele>154.0</ele><time>2026-04-04T11:27:12.716Z</time></trkpt><trkpt lat="44.073924" lon="10.1053342"><ele>154.0</ele><time>2026-04-04T11:27:13.718Z</time></trkpt><trkpt lat="44.0739584" lon="10.1054797"><ele>154.0</ele><time>2026-04-04T11:27:14.716Z</time></trkpt><trkpt lat="44.0739682" lon="10.10566"><ele>154.0</ele><time>2026-04-04T11:27:15.721Z</time></trkpt><trkpt lat="44.0739347" lon="10.1058126"><ele>153.6</ele><time>2026-04-04T11:27:16.713Z</time></trkpt><trkpt lat="44.0738626" lon="10.1059249"><ele>153.2</ele><time>2026-04-04T11:27:17.708Z</time></trkpt><trkpt lat="44.0737853" lon="10.1059994"><ele>152.79999999999998</ele><time>2026-04-04T11:27:18.71Z</time></trkpt><trkpt lat="44.0736981" lon="10.1060569"><ele>152.4</ele><time>2026-04-04T11:27:19.709Z</time></trkpt><trkpt lat="44.0736175" lon="10.1061114"><ele>152.0</ele><time>2026-04-04T11:27:20.695Z</time></trkpt><trkpt lat="44.0735613" lon="10.1061761"><ele>152.0</ele><time>2026-04-04T11:27:21.71Z</time></trkpt><trkpt lat="44.0735493" lon="10.1063186"><ele>152.0</ele><time>2026-04-04T11:27:23.696Z</time></trkpt><trkpt lat="44.0736288" lon="10.1063905"><ele>152.0</ele><time>2026-04-04T11:27:25.71Z</time></trkpt><trkpt lat="44.0736987" lon="10.1063453"><ele>152.0</ele><time>2026-04-04T11:27:26.701Z</time></trkpt><trkpt lat="44.0737856" lon="10.1062627"><ele>152.0</ele><time>2026-04-04T11:27:27.714Z</time></trkpt><trkpt lat="44.0738851" lon="10.1061737"><ele>152.0</ele><time>2026-04-04T11:27:28.715Z</time></trkpt><trkpt lat="44.0739882" lon="10.1060762"><ele>152.0</ele><time>2026-04-04T11:27:29.709Z</time></trkpt><trkpt lat="44.0740935" lon="10.105968"><ele>152.0</ele><time>2026-04-04T11:27:30.714Z</time></trkpt><trkpt lat="44.0741941" lon="10.1058581"><ele>152.0</ele><time>2026-04-04T11:27:31.705Z</time></trkpt><trkpt lat="44.0742916" lon="10.1057413"><ele>147.5</ele><time>2026-04-04T11:27:32.713Z</time></trkpt><trkpt lat="44.0743863" lon="10.1056233"><ele>143.0</ele><time>2026-04-04T11:27:33.734Z</time></trkpt><trkpt lat="44.074479" lon="10.1055006"><ele>138.5</ele><time>2026-04-04T11:27:34.713Z</time></trkpt><trkpt lat="44.0745628" lon="10.1053815"><ele>134.0</ele><time>2026-04-04T11:27:35.701Z</time></trkpt><trkpt lat="44.0746392" lon="10.1052663"><ele>134.0</ele><time>2026-04-04T11:27:36.711Z</time></trkpt><trkpt lat="44.0747149" lon="10.1051553"><ele>134.0</ele><time>2026-04-04T11:27:37.732Z</time></trkpt><trkpt lat="44.0747846" lon="10.1050499"><ele>134.0</ele><time>2026-04-04T11:27:38.713Z</time></trkpt><trkpt lat="44.0748489" lon="10.1049447"><ele>134.0</ele><time>2026-04-04T11:27:39.706Z</time></trkpt><trkpt lat="44.0749133" lon="10.1048478"><ele>134.0</ele><time>2026-04-04T11:27:40.703Z</time></trkpt><trkpt lat="44.0749733" lon="10.1047548"><ele>131.2</ele><time>2026-04-04T11:27:41.717Z</time></trkpt><trkpt lat="44.0750335" lon="10.104663"><ele>128.4</ele><time>2026-04-04T11:27:42.711Z</time></trkpt><trkpt lat="44.075097" lon="10.1045723"><ele>125.6</ele><time>2026-04-04T11:27:43.729Z</time></trkpt><trkpt lat="44.075162" lon="10.1044769"><ele>122.8</ele><time>2026-04-04T11:27:44.727Z</time></trkpt><trkpt lat="44.0752246" lon="10.1043781"><ele>120.0</ele><time>2026-04-04T11:27:45.723Z</time></trkpt><trkpt lat="44.0752851" lon="10.1042779"><ele>120.0</ele><time>2026-04-04T11:27:46.723Z</time></trkpt><trkpt lat="44.0753467" lon="10.1041785"><ele>120.0</ele><time>2026-04-04T11:27:47.723Z</time></trkpt><trkpt lat="44.0754102" lon="10.104074"><ele>120.0</ele><time>2026-04-04T11:27:48.72Z</time></trkpt><trkpt lat="44.0754724" lon="10.1039637"><ele>120.0</ele><time>2026-04-04T11:27:49.717Z</time></trkpt><trkpt lat="44.0755211" lon="10.1038412"><ele>120.0</ele><time>2026-04-04T11:27:50.727Z</time></trkpt><trkpt lat="44.0755602" lon="10.1037117"><ele>119.4</ele><time>2026-04-04T11:27:51.724Z</time></trkpt><trkpt lat="44.0755844" lon="10.1035752"><ele>118.8</ele><time>2026-04-04T11:27:52.712Z</time></trkpt><trkpt lat="44.0755989" lon="10.1034341"><ele>118.19999999999999</ele><time>2026-04-04T11:27:53.718Z</time></trkpt><trkpt lat="44.075608" lon="10.1032893"><ele>117.6</ele><time>2026-04-04T11:27:54.713Z</time></trkpt><trkpt lat="44.0756141" lon="10.1031451"><ele>117.0</ele><time>2026-04-04T11:27:55.725Z</time></trkpt><trkpt lat="44.0756265" lon="10.1030032"><ele>116.33333333333333</ele><time>2026-04-04T11:27:56.727Z</time></trkpt><trkpt lat="44.075654" lon="10.1028701"><ele>115.66666666666666</ele><time>2026-04-04T11:27:57.712Z</time></trkpt><trkpt lat="44.0756966" lon="10.1027558"><ele>115.0</ele><time>2026-04-04T11:27:58.724Z</time></trkpt><trkpt lat="44.0757503" lon="10.102672"><ele>114.33333333333333</ele><time>2026-04-04T11:27:59.725Z</time></trkpt><trkpt lat="44.0758076" lon="10.1026"><ele>113.66666666666666</ele><time>2026-04-04T11:28:00.726Z</time></trkpt><trkpt lat="44.0758612" lon="10.1025361"><ele>113.0</ele><time>2026-04-04T11:28:01.729Z</time></trkpt><trkpt lat="44.0759141" lon="10.1024744"><ele>112.60000000000001</ele><time>2026-04-04T11:28:02.728Z</time></trkpt><trkpt lat="44.075969" lon="10.1024196"><ele>112.20000000000002</ele><time>2026-04-04T11:28:03.739Z</time></trkpt><trkpt lat="44.0760221" lon="10.1023597"><ele>111.8</ele><time>2026-04-04T11:28:04.73Z</time></trkpt><trkpt lat="44.0761092" lon="10.1022539"><ele>111.4</ele><time>2026-04-04T11:28:06.721Z</time></trkpt><trkpt lat="44.0761812" lon="10.1021435"><ele>111.0</ele><time>2026-04-04T11:28:08.717Z</time></trkpt><trkpt lat="44.0762525" lon="10.1020565"><ele>110.66666666666667</ele><time>2026-04-04T11:28:10.714Z</time></trkpt><trkpt lat="44.0763002" lon="10.1019842"><ele>110.33333333333334</ele><time>2026-04-04T11:28:12.716Z</time></trkpt><trkpt lat="44.0763376" lon="10.1018946"><ele>110.0</ele><time>2026-04-04T11:28:17.71Z</time></trkpt><trkpt lat="44.0763767" lon="10.1018068"><ele>109.66666666666667</ele><time>2026-04-04T11:28:20.72Z</time></trkpt><trkpt lat="44.0763491" lon="10.1016577"><ele>109.33333333333334</ele><time>2026-04-04T11:28:23.708Z</time></trkpt><trkpt lat="44.0762956" lon="10.1015916"><ele>109.0</ele><time>2026-04-04T11:28:24.702Z</time></trkpt><trkpt lat="44.0762345" lon="10.101534"><ele>108.50000000000001</ele><time>2026-04-04T11:28:25.703Z</time></trkpt><trkpt lat="44.0761618" lon="10.1014705"><ele>108.0</ele><time>2026-04-04T11:28:26.702Z</time></trkpt><trkpt lat="44.0761176" lon="10.1013857"><ele>107.5</ele><time>2026-04-04T11:28:27.705Z</time></trkpt><trkpt lat="44.0760749" lon="10.1012914"><ele>107.0</ele><time>2026-04-04T11:28:28.71Z</time></trkpt><trkpt lat="44.076052" lon="10.101187"><ele>106.50000000000001</ele><time>2026-04-04T11:28:29.708Z</time></trkpt><trkpt lat="44.0760252" lon="10.1010952"><ele>106.0</ele><time>2026-04-04T11:28:30.714Z</time></trkpt><trkpt lat="44.0760124" lon="10.1010048"><ele>106.00000000000001</ele><time>2026-04-04T11:28:31.726Z</time></trkpt><trkpt lat="44.0760266" lon="10.1008396"><ele>106.0</ele><time>2026-04-04T11:28:33.716Z</time></trkpt><trkpt lat="44.0760584" lon="10.1007561"><ele>106.0</ele><time>2026-04-04T11:28:34.74Z</time></trkpt><trkpt lat="44.0760975" lon="10.100671"><ele>106.0</ele><time>2026-04-04T11:28:35.714Z</time></trkpt><trkpt lat="44.0761426" lon="10.1005772"><ele>106.00000000000001</ele><time>2026-04-04T11:28:36.722Z</time></trkpt><trkpt lat="44.0761877" lon="10.1004923"><ele>106.0</ele><time>2026-04-04T11:28:37.727Z</time></trkpt><trkpt lat="44.0762298" lon="10.1004113"><ele>105.85714285714286</ele><time>2026-04-04T11:28:38.722Z</time></trkpt><trkpt lat="44.0762714" lon="10.1003238"><ele>105.71428571428571</ele><time>2026-04-04T11:28:39.717Z</time></trkpt><trkpt lat="44.0763151" lon="10.1002349"><ele>105.57142857142857</ele><time>2026-04-04T11:28:40.714Z</time></trkpt><trkpt lat="44.0763595" lon="10.1001501"><ele>105.42857142857143</ele><time>2026-04-04T11:28:41.71Z</time></trkpt><trkpt lat="44.0763996" lon="10.1000642"><ele>105.28571428571428</ele><time>2026-04-04T11:28:42.713Z</time></trkpt><trkpt lat="44.0764414" lon="10.0999809"><ele>105.14285714285714</ele><time>2026-04-04T11:28:43.715Z</time></trkpt><trkpt lat="44.0764817" lon="10.0999015"><ele>105.0</ele><time>2026-04-04T11:28:44.723Z</time></trkpt><trkpt lat="44.076522" lon="10.0998186"><ele>105.0</ele><time>2026-04-04T11:28:45.712Z</time></trkpt><trkpt lat="44.0765591" lon="10.099741"><ele>105.0</ele><time>2026-04-04T11:28:46.717Z</time></trkpt><trkpt lat="44.0765991" lon="10.0996731"><ele>105.0</ele><time>2026-04-04T11:28:47.716Z</time></trkpt><trkpt lat="44.0766736" lon="10.0995521"><ele>105.0</ele><time>2026-04-04T11:28:49.717Z</time></trkpt><trkpt lat="44.0767156" lon="10.0994834"><ele>105.0</ele><time>2026-04-04T11:28:51.711Z</time></trkpt><trkpt lat="44.0767599" lon="10.0993938"><ele>105.0</ele><time>2026-04-04T11:29:12.716Z</time></trkpt><trkpt lat="44.0768232" lon="10.0992451"><ele>105.16666666666667</ele><time>2026-04-04T11:29:14.747Z</time></trkpt><trkpt lat="44.0768609" lon="10.099155"><ele>105.33333333333334</ele><time>2026-04-04T11:29:15.745Z</time></trkpt><trkpt lat="44.0768991" lon="10.099063"><ele>105.5</ele><time>2026-04-04T11:29:16.742Z</time></trkpt><trkpt lat="44.0769427" lon="10.0989628"><ele>105.66666666666667</ele><time>2026-04-04T11:29:17.72Z</time></trkpt><trkpt lat="44.0769869" lon="10.0988665"><ele>105.83333333333334</ele><time>2026-04-04T11:29:18.72Z</time></trkpt><trkpt lat="44.0770258" lon="10.0987721"><ele>106.0</ele><time>2026-04-04T11:29:19.718Z</time></trkpt><trkpt lat="44.0770617" lon="10.0986806"><ele>106.00000000000001</ele><time>2026-04-04T11:29:20.713Z</time></trkpt><trkpt lat="44.077097" lon="10.0985906"><ele>106.0</ele><time>2026-04-04T11:29:21.712Z</time></trkpt><trkpt lat="44.0771266" lon="10.0984996"><ele>106.0</ele><time>2026-04-04T11:29:22.717Z</time></trkpt><trkpt lat="44.0771612" lon="10.098419"><ele>106.0</ele><time>2026-04-04T11:29:23.718Z</time></trkpt><trkpt lat="44.0772238" lon="10.0982945"><ele>106.00000000000001</ele><time>2026-04-04T11:29:25.738Z</time></trkpt><trkpt lat="44.0772866" lon="10.0981763"><ele>106.0</ele><time>2026-04-04T11:29:27.739Z</time></trkpt><trkpt lat="44.0773634" lon="10.0980325"><ele>106.0</ele><time>2026-04-04T11:29:29.736Z</time></trkpt><trkpt lat="44.0774096" lon="10.0979417"><ele>106.0</ele><time>2026-04-04T11:29:30.711Z</time></trkpt><trkpt lat="44.0774524" lon="10.0978286"><ele>106.0</ele><time>2026-04-04T11:29:31.712Z</time></trkpt><trkpt lat="44.0775244" lon="10.0977077"><ele>106.0</ele><time>2026-04-04T11:29:33.703Z</time></trkpt><trkpt lat="44.0775668" lon="10.0976071"><ele>106.0</ele><time>2026-04-04T11:29:35.724Z</time></trkpt><trkpt lat="44.0776139" lon="10.0974824"><ele>105.0</ele><time>2026-04-04T11:30:07.739Z</time></trkpt><trkpt lat="44.0776506" lon="10.0974036"><ele>104.0</ele><time>2026-04-04T11:30:08.723Z</time></trkpt><trkpt lat="44.0777286" lon="10.0972751"><ele>103.0</ele><time>2026-04-04T11:30:09.728Z</time></trkpt><trkpt lat="44.0777753" lon="10.0971644"><ele>102.0</ele><time>2026-04-04T11:30:10.719Z</time></trkpt><trkpt lat="44.0777987" lon="10.0970719"><ele>101.0</ele><time>2026-04-04T11:30:11.712Z</time></trkpt><trkpt lat="44.0778377" lon="10.0969442"><ele>100.99999999999999</ele><time>2026-04-04T11:30:13.704Z</time></trkpt><trkpt lat="44.0779139" lon="10.0969627"><ele>101.0</ele><time>2026-04-04T11:30:15.697Z</time></trkpt><trkpt lat="44.0779981" lon="10.097053"><ele>101.0</ele><time>2026-04-04T11:30:17.689Z</time></trkpt><trkpt lat="44.0780494" lon="10.0971081"><ele>101.0</ele><time>2026-04-04T11:30:18.696Z</time></trkpt><trkpt lat="44.07811" lon="10.0971758"><ele>100.99999999999999</ele><time>2026-04-04T11:30:19.728Z</time></trkpt><trkpt lat="44.078185" lon="10.0972285"><ele>101.0</ele><time>2026-04-04T11:30:20.702Z</time></trkpt><trkpt lat="44.0782593" lon="10.0972823"><ele>100.66666666666666</ele><time>2026-04-04T11:30:21.706Z</time></trkpt><trkpt lat="44.0783397" lon="10.0973452"><ele>100.33333333333333</ele><time>2026-04-04T11:30:22.731Z</time></trkpt><trkpt lat="44.0784197" lon="10.0973931"><ele>100.0</ele><time>2026-04-04T11:30:23.692Z</time></trkpt><trkpt lat="44.0784968" lon="10.0974464"><ele>99.66666666666666</ele><time>2026-04-04T11:30:24.7Z</time></trkpt><trkpt lat="44.0785704" lon="10.0974882"><ele>99.33333333333333</ele><time>2026-04-04T11:30:25.705Z</time></trkpt><trkpt lat="44.0786348" lon="10.0975006"><ele>99.0</ele><time>2026-04-04T11:30:26.686Z</time></trkpt><trkpt lat="44.078732" lon="10.0975161"><ele>99.0</ele><time>2026-04-04T11:30:28.69Z</time></trkpt><trkpt lat="44.0788289" lon="10.0975068"><ele>99.0</ele><time>2026-04-04T11:30:30.695Z</time></trkpt><trkpt lat="44.078892" lon="10.0975071"><ele>99.0</ele><time>2026-04-04T11:30:31.701Z</time></trkpt><trkpt lat="44.0789564" lon="10.0974844"><ele>99.0</ele><time>2026-04-04T11:30:32.708Z</time></trkpt><trkpt lat="44.0790582" lon="10.0974122"><ele>99.0</ele><time>2026-04-04T11:30:34.709Z</time></trkpt><trkpt lat="44.0791566" lon="10.0973105"><ele>98.5</ele><time>2026-04-04T11:30:36.702Z</time></trkpt><trkpt lat="44.0792095" lon="10.0972498"><ele>98.0</ele><time>2026-04-04T11:30:37.709Z</time></trkpt><trkpt lat="44.0792629" lon="10.0971719"><ele>97.5</ele><time>2026-04-04T11:30:38.715Z</time></trkpt><trkpt lat="44.0793217" lon="10.0970779"><ele>97.0</ele><time>2026-04-04T11:30:39.704Z</time></trkpt><trkpt lat="44.0793908" lon="10.0969788"><ele>96.5</ele><time>2026-04-04T11:30:40.701Z</time></trkpt><trkpt lat="44.0794601" lon="10.0968718"><ele>96.0</ele><time>2026-04-04T11:30:41.712Z</time></trkpt><trkpt lat="44.079533" lon="10.09676"><ele>96.0</ele><time>2026-04-04T11:30:42.707Z</time></trkpt><trkpt lat="44.0796032" lon="10.0966473"><ele>96.0</ele><time>2026-04-04T11:30:43.723Z</time></trkpt><trkpt lat="44.0796712" lon="10.0965464"><ele>96.0</ele><time>2026-04-04T11:30:44.723Z</time></trkpt><trkpt lat="44.0797347" lon="10.0964561"><ele>96.0</ele><time>2026-04-04T11:30:45.719Z</time></trkpt><trkpt lat="44.0797966" lon="10.0963796"><ele>96.0</ele><time>2026-04-04T11:30:46.719Z</time></trkpt><trkpt lat="44.0798508" lon="10.0963038"><ele>95.0</ele><time>2026-04-04T11:30:47.718Z</time></trkpt><trkpt lat="44.0798986" lon="10.0962323"><ele>94.0</ele><time>2026-04-04T11:30:48.717Z</time></trkpt><trkpt lat="44.079978" lon="10.0961226"><ele>93.0</ele><time>2026-04-04T11:30:50.719Z</time></trkpt><trkpt lat="44.0800393" lon="10.0960416"><ele>92.0</ele><time>2026-04-04T11:30:54.719Z</time></trkpt><trkpt lat="44.0801117" lon="10.0959422"><ele>91.0</ele><time>2026-04-04T11:30:56.74Z</time></trkpt><trkpt lat="44.0801739" lon="10.0958181"><ele>92.66666666666666</ele><time>2026-04-04T11:30:57.73Z</time></trkpt><trkpt lat="44.0802573" lon="10.0956155"><ele>94.33333333333333</ele><time>2026-04-04T11:30:58.726Z</time></trkpt><trkpt lat="44.0803364" lon="10.0953908"><ele>96.0</ele><time>2026-04-04T11:30:59.717Z</time></trkpt><trkpt lat="44.080406" lon="10.0952133"><ele>96.0</ele><time>2026-04-04T11:31:00.718Z</time></trkpt><trkpt lat="44.0804907" lon="10.0950608"><ele>96.0</ele><time>2026-04-04T11:31:01.711Z</time></trkpt><trkpt lat="44.0805909" lon="10.0949798"><ele>96.0</ele><time>2026-04-04T11:31:02.713Z</time></trkpt><trkpt lat="44.080706" lon="10.0949871"><ele>96.0</ele><time>2026-04-04T11:31:03.712Z</time></trkpt><trkpt lat="44.0808511" lon="10.0950748"><ele>95.33333333333333</ele><time>2026-04-04T11:31:04.711Z</time></trkpt><trkpt lat="44.0809962" lon="10.0952023"><ele>94.66666666666666</ele><time>2026-04-04T11:31:05.707Z</time></trkpt><trkpt lat="44.0811171" lon="10.0953363"><ele>94.0</ele><time>2026-04-04T11:31:06.721Z</time></trkpt><trkpt lat="44.0812297" lon="10.0954372"><ele>94.0</ele><time>2026-04-04T11:31:07.717Z</time></trkpt><trkpt lat="44.0813352" lon="10.0955276"><ele>94.0</ele><time>2026-04-04T11:31:08.721Z</time></trkpt><trkpt lat="44.0813915" lon="10.0956245"><ele>94.0</ele><time>2026-04-04T11:31:09.731Z</time></trkpt><trkpt lat="44.0814024" lon="10.0957505"><ele>94.0</ele><time>2026-04-04T11:31:10.729Z</time></trkpt><trkpt lat="44.0813696" lon="10.0959007"><ele>94.0</ele><time>2026-04-04T11:31:11.723Z</time></trkpt><trkpt lat="44.081349" lon="10.096101"><ele>94.75</ele><time>2026-04-04T11:31:12.713Z</time></trkpt><trkpt lat="44.08134" lon="10.0963092"><ele>95.5</ele><time>2026-04-04T11:31:13.722Z</time></trkpt><trkpt lat="44.0813325" lon="10.096506"><ele>96.25</ele><time>2026-04-04T11:31:14.721Z</time></trkpt><trkpt lat="44.0813186" lon="10.0966885"><ele>97.0</ele><time>2026-04-04T11:31:15.704Z</time></trkpt><trkpt lat="44.0813127" lon="10.0968511"><ele>98.6</ele><time>2026-04-04T11:31:16.718Z</time></trkpt><trkpt lat="44.0813051" lon="10.0969901"><ele>100.19999999999999</ele><time>2026-04-04T11:31:17.706Z</time></trkpt><trkpt lat="44.081311" lon="10.097118"><ele>101.8</ele><time>2026-04-04T11:31:18.714Z</time></trkpt><trkpt lat="44.0813076" lon="10.097231"><ele>103.4</ele><time>2026-04-04T11:31:19.717Z</time></trkpt><trkpt lat="44.0814105" lon="10.097346"><ele>105.0</ele><time>2026-04-04T11:31:21.724Z</time></trkpt><trkpt lat="44.0814938" lon="10.0973601"><ele>105.0</ele><time>2026-04-04T11:31:22.729Z</time></trkpt><trkpt lat="44.0815973" lon="10.0973529"><ele>105.0</ele><time>2026-04-04T11:31:23.725Z</time></trkpt><trkpt lat="44.0817019" lon="10.0973434"><ele>105.0</ele><time>2026-04-04T11:31:24.728Z</time></trkpt><trkpt lat="44.0818205" lon="10.0973176"><ele>105.0</ele><time>2026-04-04T11:31:25.716Z</time></trkpt><trkpt lat="44.0819457" lon="10.0972805"><ele>105.0</ele><time>2026-04-04T11:31:26.724Z</time></trkpt><trkpt lat="44.0820763" lon="10.0972315"><ele>105.0</ele><time>2026-04-04T11:31:27.713Z</time></trkpt><trkpt lat="44.0822195" lon="10.0971571"><ele>105.0</ele><time>2026-04-04T11:31:28.714Z</time></trkpt><trkpt lat="44.082364" lon="10.0970964"><ele>105.0</ele><time>2026-04-04T11:31:29.707Z</time></trkpt><trkpt lat="44.082524" lon="10.0970468"><ele>105.0</ele><time>2026-04-04T11:31:30.716Z</time></trkpt><trkpt lat="44.0827148" lon="10.0970107"><ele>105.0</ele><time>2026-04-04T11:31:31.712Z</time></trkpt><trkpt lat="44.082894" lon="10.0969787"><ele>105.0</ele><time>2026-04-04T11:31:32.714Z</time></trkpt><trkpt lat="44.0830511" lon="10.096939"><ele>105.0</ele><time>2026-04-04T11:31:33.706Z</time></trkpt><trkpt lat="44.0831988" lon="10.0969102"><ele>105.0</ele><time>2026-04-04T11:31:34.702Z</time></trkpt><trkpt lat="44.0833705" lon="10.0969394"><ele>105.0</ele><time>2026-04-04T11:31:35.734Z</time></trkpt><trkpt lat="44.0835666" lon="10.0969862"><ele>108.66666666666666</ele><time>2026-04-04T11:31:36.714Z</time></trkpt><trkpt lat="44.0837709" lon="10.0969999"><ele>112.33333333333333</ele><time>2026-04-04T11:31:37.716Z</time></trkpt><trkpt lat="44.0839355" lon="10.0970016"><ele>116.0</ele><time>2026-04-04T11:31:38.714Z</time></trkpt><trkpt lat="44.0840563" lon="10.0969974"><ele>117.16666666666666</ele><time>2026-04-04T11:31:39.703Z</time></trkpt><trkpt lat="44.0841544" lon="10.0969909"><ele>118.33333333333333</ele><time>2026-04-04T11:31:40.713Z</time></trkpt><trkpt lat="44.0842467" lon="10.0969603"><ele>119.5</ele><time>2026-04-04T11:31:41.703Z</time></trkpt><trkpt lat="44.0843326" lon="10.0969181"><ele>120.66666666666666</ele><time>2026-04-04T11:31:42.702Z</time></trkpt><trkpt lat="44.0843878" lon="10.0968587"><ele>121.83333333333333</ele><time>2026-04-04T11:31:43.7Z</time></trkpt><trkpt lat="44.0844476" lon="10.0967869"><ele>123.0</ele><time>2026-04-04T11:31:44.696Z</time></trkpt><trkpt lat="44.0845236" lon="10.0967054"><ele>123.0</ele><time>2026-04-04T11:31:45.698Z</time></trkpt><trkpt lat="44.0846059" lon="10.0966265"><ele>123.00000000000001</ele><time>2026-04-04T11:31:46.711Z</time></trkpt><trkpt lat="44.0846998" lon="10.0965647"><ele>123.00000000000001</ele><time>2026-04-04T11:31:47.705Z</time></trkpt><trkpt lat="44.084806" lon="10.0965238"><ele>123.0</ele><time>2026-04-04T11:31:48.703Z</time></trkpt><trkpt lat="44.0849086" lon="10.0964939"><ele>123.0</ele><time>2026-04-04T11:31:49.729Z</time></trkpt><trkpt lat="44.085014" lon="10.0964768"><ele>123.0</ele><time>2026-04-04T11:31:50.712Z</time></trkpt><trkpt lat="44.0851184" lon="10.0964584"><ele>123.00000000000001</ele><time>2026-04-04T11:31:51.717Z</time></trkpt><trkpt lat="44.0852179" lon="10.0964367"><ele>123.00000000000001</ele><time>2026-04-04T11:31:52.715Z</time></trkpt><trkpt lat="44.0853145" lon="10.0964168"><ele>123.0</ele><time>2026-04-04T11:31:53.715Z</time></trkpt><trkpt lat="44.0854147" lon="10.0964035"><ele>123.0</ele><time>2026-04-04T11:31:54.708Z</time></trkpt><trkpt lat="44.0855163" lon="10.0963922"><ele>123.0</ele><time>2026-04-04T11:31:55.715Z</time></trkpt><trkpt lat="44.0856257" lon="10.0963975"><ele>123.0</ele><time>2026-04-04T11:31:56.71Z</time></trkpt><trkpt lat="44.0857433" lon="10.0964"><ele>123.0</ele><time>2026-04-04T11:31:57.718Z</time></trkpt><trkpt lat="44.0858605" lon="10.0964069"><ele>123.0</ele><time>2026-04-04T11:31:58.704Z</time></trkpt><trkpt lat="44.0859826" lon="10.0964106"><ele>123.25</ele><time>2026-04-04T11:31:59.712Z</time></trkpt><trkpt lat="44.0860994" lon="10.0963997"><ele>123.5</ele><time>2026-04-04T11:32:00.719Z</time></trkpt><trkpt lat="44.0862117" lon="10.0963821"><ele>123.75</ele><time>2026-04-04T11:32:01.711Z</time></trkpt><trkpt lat="44.0863257" lon="10.0963655"><ele>124.0</ele><time>2026-04-04T11:32:02.714Z</time></trkpt><trkpt lat="44.0864382" lon="10.0963423"><ele>124.0</ele><time>2026-04-04T11:32:03.712Z</time></trkpt><trkpt lat="44.0865483" lon="10.0963136"><ele>124.0</ele><time>2026-04-04T11:32:04.712Z</time></trkpt><trkpt lat="44.0866654" lon="10.0962977"><ele>124.0</ele><time>2026-04-04T11:32:05.732Z</time></trkpt><trkpt lat="44.0867808" lon="10.0962824"><ele>124.0</ele><time>2026-04-04T11:32:06.704Z</time></trkpt><trkpt lat="44.0869012" lon="10.0962708"><ele>125.75</ele><time>2026-04-04T11:32:07.709Z</time></trkpt><trkpt lat="44.087018" lon="10.0962746"><ele>127.5</ele><time>2026-04-04T11:32:08.709Z</time></trkpt><trkpt lat="44.0871377" lon="10.0962808"><ele>129.25</ele><time>2026-04-04T11:32:09.706Z</time></trkpt><trkpt lat="44.0872587" lon="10.0962756"><ele>131.0</ele><time>2026-04-04T11:32:10.706Z</time></trkpt><trkpt lat="44.0874001" lon="10.0962651"><ele>135.5</ele><time>2026-04-04T11:32:11.741Z</time></trkpt><trkpt lat="44.0875829" lon="10.0962348"><ele>140.0</ele><time>2026-04-04T11:32:12.717Z</time></trkpt><trkpt lat="44.0878516" lon="10.0961771"><ele>140.0</ele><time>2026-04-04T11:32:13.706Z</time></trkpt><trkpt lat="44.0881092" lon="10.0961055"><ele>140.0</ele><time>2026-04-04T11:32:14.716Z</time></trkpt><trkpt lat="44.0883129" lon="10.0960647"><ele>141.0</ele><time>2026-04-04T11:32:15.702Z</time></trkpt><trkpt lat="44.0884761" lon="10.0960515"><ele>142.0</ele><time>2026-04-04T11:32:16.706Z</time></trkpt><trkpt lat="44.0886145" lon="10.0960473"><ele>143.0</ele><time>2026-04-04T11:32:17.707Z</time></trkpt><trkpt lat="44.088726" lon="10.0959975"><ele>144.0</ele><time>2026-04-04T11:32:18.709Z</time></trkpt><trkpt lat="44.0888554" lon="10.0958914"><ele>144.0</ele><time>2026-04-04T11:32:19.709Z</time></trkpt><trkpt lat="44.0889821" lon="10.0957604"><ele>144.0</ele><time>2026-04-04T11:32:20.699Z</time></trkpt><trkpt lat="44.0890977" lon="10.0956237"><ele>144.0</ele><time>2026-04-04T11:32:21.719Z</time></trkpt><trkpt lat="44.0892041" lon="10.0955078"><ele>144.0</ele><time>2026-04-04T11:32:22.708Z</time></trkpt><trkpt lat="44.0893331" lon="10.0954681"><ele>145.0</ele><time>2026-04-04T11:32:23.712Z</time></trkpt><trkpt lat="44.0894777" lon="10.0954717"><ele>146.0</ele><time>2026-04-04T11:32:24.709Z</time></trkpt><trkpt lat="44.0896555" lon="10.0954683"><ele>147.0</ele><time>2026-04-04T11:32:25.715Z</time></trkpt><trkpt lat="44.0898257" lon="10.0954348"><ele>149.5</ele><time>2026-04-04T11:32:26.735Z</time></trkpt><trkpt lat="44.0899748" lon="10.0953757"><ele>152.0</ele><time>2026-04-04T11:32:27.708Z</time></trkpt><trkpt lat="44.0901105" lon="10.0953124"><ele>154.5</ele><time>2026-04-04T11:32:28.698Z</time></trkpt><trkpt lat="44.0902406" lon="10.09525"><ele>157.0</ele><time>2026-04-04T11:32:29.701Z</time></trkpt><trkpt lat="44.0903682" lon="10.0951912"><ele>157.0</ele><time>2026-04-04T11:32:30.703Z</time></trkpt><trkpt lat="44.0904976" lon="10.0951248"><ele>157.0</ele><time>2026-04-04T11:32:31.702Z</time></trkpt><trkpt lat="44.0906324" lon="10.0950733"><ele>157.0</ele><time>2026-04-04T11:32:32.701Z</time></trkpt><trkpt lat="44.0907581" lon="10.0950112"><ele>157.0</ele><time>2026-04-04T11:32:33.702Z</time></trkpt><trkpt lat="44.0908836" lon="10.0949434"><ele>161.0</ele><time>2026-04-04T11:32:34.709Z</time></trkpt><trkpt lat="44.0910052" lon="10.0948466"><ele>165.0</ele><time>2026-04-04T11:32:35.71Z</time></trkpt><trkpt lat="44.0911016" lon="10.0947335"><ele>169.0</ele><time>2026-04-04T11:32:36.709Z</time></trkpt><trkpt lat="44.0911839" lon="10.0946136"><ele>173.0</ele><time>2026-04-04T11:32:37.716Z</time></trkpt><trkpt lat="44.0912615" lon="10.0944966"><ele>173.0</ele><time>2026-04-04T11:32:38.714Z</time></trkpt><trkpt lat="44.0913522" lon="10.0943777"><ele>173.0</ele><time>2026-04-04T11:32:39.716Z</time></trkpt><trkpt lat="44.0914455" lon="10.0942566"><ele>173.0</ele><time>2026-04-04T11:32:40.716Z</time></trkpt><trkpt lat="44.0915446" lon="10.0941511"><ele>173.0</ele><time>2026-04-04T11:32:41.717Z</time></trkpt><trkpt lat="44.0916544" lon="10.0940566"><ele>170.5</ele><time>2026-04-04T11:32:42.704Z</time></trkpt><trkpt lat="44.0917789" lon="10.0939811"><ele>168.0</ele><time>2026-04-04T11:32:43.707Z</time></trkpt><trkpt lat="44.0918967" lon="10.0938905"><ele>165.5</ele><time>2026-04-04T11:32:44.717Z</time></trkpt><trkpt lat="44.092018" lon="10.0937866"><ele>163.0</ele><time>2026-04-04T11:32:45.709Z</time></trkpt><trkpt lat="44.0921552" lon="10.0936779"><ele>163.0</ele><time>2026-04-04T11:32:46.71Z</time></trkpt><trkpt lat="44.092275" lon="10.0935824"><ele>163.0</ele><time>2026-04-04T11:32:47.711Z</time></trkpt><trkpt lat="44.092347" lon="10.0934492"><ele>163.0</ele><time>2026-04-04T11:32:48.717Z</time></trkpt><trkpt lat="44.0923924" lon="10.0933021"><ele>163.0</ele><time>2026-04-04T11:32:49.714Z</time></trkpt><trkpt lat="44.0923845" lon="10.0931063"><ele>163.75</ele><time>2026-04-04T11:32:50.695Z</time></trkpt><trkpt lat="44.0923959" lon="10.0928762"><ele>164.5</ele><time>2026-04-04T11:32:51.734Z</time></trkpt><trkpt lat="44.0924137" lon="10.0926645"><ele>165.25</ele><time>2026-04-04T11:32:52.726Z</time></trkpt><trkpt lat="44.0924505" lon="10.0924946"><ele>166.0</ele><time>2026-04-04T11:32:53.694Z</time></trkpt><trkpt lat="44.0925251" lon="10.0923383"><ele>169.0</ele><time>2026-04-04T11:32:54.712Z</time></trkpt><trkpt lat="44.0926614" lon="10.0922162"><ele>172.0</ele><time>2026-04-04T11:32:55.711Z</time></trkpt><trkpt lat="44.0928125" lon="10.0920943"><ele>175.0</ele><time>2026-04-04T11:32:56.704Z</time></trkpt><trkpt lat="44.0929675" lon="10.0919659"><ele>175.0</ele><time>2026-04-04T11:32:57.704Z</time></trkpt><trkpt lat="44.0931394" lon="10.0918394"><ele>175.0</ele><time>2026-04-04T11:32:58.716Z</time></trkpt><trkpt lat="44.0933118" lon="10.0917099"><ele>175.0</ele><time>2026-04-04T11:32:59.704Z</time></trkpt><trkpt lat="44.0935044" lon="10.091583"><ele>177.66666666666669</ele><time>2026-04-04T11:33:00.718Z</time></trkpt><trkpt lat="44.0936885" lon="10.0914709"><ele>180.33333333333334</ele><time>2026-04-04T11:33:01.713Z</time></trkpt><trkpt lat="44.0938723" lon="10.0913886"><ele>183.0</ele><time>2026-04-04T11:33:02.707Z</time></trkpt><trkpt lat="44.0940438" lon="10.0913096"><ele>182.33333333333334</ele><time>2026-04-04T11:33:03.707Z</time></trkpt><trkpt lat="44.0941929" lon="10.0912292"><ele>181.66666666666669</ele><time>2026-04-04T11:33:04.706Z</time></trkpt><trkpt lat="44.0943227" lon="10.0911372"><ele>181.0</ele><time>2026-04-04T11:33:05.713Z</time></trkpt><trkpt lat="44.0944428" lon="10.0909679"><ele>181.0</ele><time>2026-04-04T11:33:06.731Z</time></trkpt><trkpt lat="44.094568" lon="10.0907715"><ele>181.0</ele><time>2026-04-04T11:33:07.715Z</time></trkpt><trkpt lat="44.0946882" lon="10.090576"><ele>181.0</ele><time>2026-04-04T11:33:08.733Z</time></trkpt><trkpt lat="44.0947925" lon="10.090399"><ele>181.25</ele><time>2026-04-04T11:33:09.715Z</time></trkpt><trkpt lat="44.094908" lon="10.0902478"><ele>181.5</ele><time>2026-04-04T11:33:10.708Z</time></trkpt><trkpt lat="44.095037" lon="10.090161"><ele>181.75</ele><time>2026-04-04T11:33:11.732Z</time></trkpt><trkpt lat="44.095171" lon="10.0901134"><ele>182.0</ele><time>2026-04-04T11:33:12.738Z</time></trkpt><trkpt lat="44.0953087" lon="10.090008"><ele>181.0</ele><time>2026-04-04T11:33:13.726Z</time></trkpt><trkpt lat="44.0954684" lon="10.0898545"><ele>180.0</ele><time>2026-04-04T11:33:14.738Z</time></trkpt><trkpt lat="44.0956313" lon="10.0896978"><ele>179.0</ele><time>2026-04-04T11:33:15.724Z</time></trkpt><trkpt lat="44.0957825" lon="10.0895638"><ele>179.0</ele><time>2026-04-04T11:33:16.706Z</time></trkpt><trkpt lat="44.0959261" lon="10.0894154"><ele>179.0</ele><time>2026-04-04T11:33:17.712Z</time></trkpt><trkpt lat="44.0960713" lon="10.0892515"><ele>179.0</ele><time>2026-04-04T11:33:18.711Z</time></trkpt><trkpt lat="44.0962225" lon="10.0891028"><ele>181.0</ele><time>2026-04-04T11:33:19.709Z</time></trkpt><trkpt lat="44.096376" lon="10.0889758"><ele>183.0</ele><time>2026-04-04T11:33:20.711Z</time></trkpt><trkpt lat="44.0965244" lon="10.0888586"><ele>185.0</ele><time>2026-04-04T11:33:21.712Z</time></trkpt><trkpt lat="44.0966764" lon="10.088743"><ele>185.0</ele><time>2026-04-04T11:33:22.706Z</time></trkpt><trkpt lat="44.0968292" lon="10.0886436"><ele>185.0</ele><time>2026-04-04T11:33:23.707Z</time></trkpt><trkpt lat="44.0969817" lon="10.0885461"><ele>185.0</ele><time>2026-04-04T11:33:24.707Z</time></trkpt><trkpt lat="44.0971196" lon="10.0884617"><ele>185.0</ele><time>2026-04-04T11:33:25.71Z</time></trkpt><trkpt lat="44.0972593" lon="10.0884056"><ele>185.0</ele><time>2026-04-04T11:33:26.714Z</time></trkpt><trkpt lat="44.0973964" lon="10.0883782"><ele>185.0</ele><time>2026-04-04T11:33:27.719Z</time></trkpt><trkpt lat="44.0975146" lon="10.0883353"><ele>185.0</ele><time>2026-04-04T11:33:28.712Z</time></trkpt><trkpt lat="44.0976093" lon="10.0882443"><ele>187.2</ele><time>2026-04-04T11:33:29.721Z</time></trkpt><trkpt lat="44.0976668" lon="10.0881362"><ele>189.4</ele><time>2026-04-04T11:33:30.72Z</time></trkpt><trkpt lat="44.0976957" lon="10.0880117"><ele>191.60000000000002</ele><time>2026-04-04T11:33:31.717Z</time></trkpt><trkpt lat="44.0976836" lon="10.0878914"><ele>193.8</ele><time>2026-04-04T11:33:32.716Z</time></trkpt><trkpt lat="44.0976342" lon="10.0877728"><ele>196.0</ele><time>2026-04-04T11:33:33.723Z</time></trkpt><trkpt lat="44.0976086" lon="10.0876401"><ele>196.0</ele><time>2026-04-04T11:33:34.721Z</time></trkpt><trkpt lat="44.0975966" lon="10.0875196"><ele>196.0</ele><time>2026-04-04T11:33:35.734Z</time></trkpt><trkpt lat="44.097596" lon="10.0874051"><ele>196.0</ele><time>2026-04-04T11:33:36.725Z</time></trkpt><trkpt lat="44.097609" lon="10.0872839"><ele>196.0</ele><time>2026-04-04T11:33:37.734Z</time></trkpt><trkpt lat="44.097637" lon="10.0871578"><ele>196.0</ele><time>2026-04-04T11:33:38.707Z</time></trkpt><trkpt lat="44.0976868" lon="10.0870297"><ele>198.0</ele><time>2026-04-04T11:33:39.712Z</time></trkpt><trkpt lat="44.0977384" lon="10.0869105"><ele>200.0</ele><time>2026-04-04T11:33:40.708Z</time></trkpt><trkpt lat="44.0977978" lon="10.0868027"><ele>202.0</ele><time>2026-04-04T11:33:41.709Z</time></trkpt><trkpt lat="44.0978536" lon="10.0866958"><ele>204.0</ele><time>2026-04-04T11:33:42.712Z</time></trkpt><trkpt lat="44.0979106" lon="10.0865902"><ele>206.0</ele><time>2026-04-04T11:33:43.721Z</time></trkpt><trkpt lat="44.0979628" lon="10.0864924"><ele>209.33333333333334</ele><time>2026-04-04T11:33:44.724Z</time></trkpt><trkpt lat="44.0980042" lon="10.0864006"><ele>212.66666666666669</ele><time>2026-04-04T11:33:45.728Z</time></trkpt><trkpt lat="44.0980222" lon="10.0863029"><ele>216.0</ele><time>2026-04-04T11:33:46.732Z</time></trkpt><trkpt lat="44.0980446" lon="10.0862027"><ele>219.33333333333331</ele><time>2026-04-04T11:33:47.729Z</time></trkpt><trkpt lat="44.098083" lon="10.0860917"><ele>222.66666666666666</ele><time>2026-04-04T11:33:48.712Z</time></trkpt><trkpt lat="44.0981367" lon="10.0859715"><ele>226.0</ele><time>2026-04-04T11:33:49.718Z</time></trkpt><trkpt lat="44.0981911" lon="10.0858553"><ele>226.49999999999997</ele><time>2026-04-04T11:33:50.707Z</time></trkpt><trkpt lat="44.0982419" lon="10.0857452"><ele>227.0</ele><time>2026-04-04T11:33:51.715Z</time></trkpt><trkpt lat="44.0982952" lon="10.0856473"><ele>227.5</ele><time>2026-04-04T11:33:52.732Z</time></trkpt><trkpt lat="44.098348" lon="10.0855522"><ele>228.0</ele><time>2026-04-04T11:33:53.711Z</time></trkpt><trkpt lat="44.0984024" lon="10.0854757"><ele>228.49999999999997</ele><time>2026-04-04T11:33:54.714Z</time></trkpt><trkpt lat="44.0984614" lon="10.0854236"><ele>229.0</ele><time>2026-04-04T11:33:55.71Z</time></trkpt><trkpt lat="44.0985264" lon="10.0853957"><ele>228.99999999999997</ele><time>2026-04-04T11:33:56.705Z</time></trkpt><trkpt lat="44.0986016" lon="10.0853755"><ele>229.0</ele><time>2026-04-04T11:33:57.708Z</time></trkpt><trkpt lat="44.0986876" lon="10.085354"><ele>229.0</ele><time>2026-04-04T11:33:58.735Z</time></trkpt><trkpt lat="44.0987807" lon="10.0853433"><ele>229.0</ele><time>2026-04-04T11:33:59.709Z</time></trkpt><trkpt lat="44.0988624" lon="10.0853175"><ele>228.99999999999997</ele><time>2026-04-04T11:34:00.703Z</time></trkpt><trkpt lat="44.0989339" lon="10.0852884"><ele>229.0</ele><time>2026-04-04T11:34:01.704Z</time></trkpt><trkpt lat="44.0989889" lon="10.0852314"><ele>228.99999999999997</ele><time>2026-04-04T11:34:02.706Z</time></trkpt><trkpt lat="44.0990464" lon="10.0851588"><ele>229.0</ele><time>2026-04-04T11:34:03.702Z</time></trkpt><trkpt lat="44.0991037" lon="10.0850659"><ele>229.0</ele><time>2026-04-04T11:34:04.705Z</time></trkpt><trkpt lat="44.0991661" lon="10.0849745"><ele>229.0</ele><time>2026-04-04T11:34:05.704Z</time></trkpt><trkpt lat="44.0992211" lon="10.0848998"><ele>228.99999999999997</ele><time>2026-04-04T11:34:06.705Z</time></trkpt><trkpt lat="44.0992736" lon="10.0848378"><ele>229.0</ele><time>2026-04-04T11:34:07.707Z</time></trkpt><trkpt lat="44.0993638" lon="10.0847248"><ele>230.39999999999998</ele><time>2026-04-04T11:34:09.694Z</time></trkpt><trkpt lat="44.0994457" lon="10.0846439"><ele>231.79999999999998</ele><time>2026-04-04T11:34:11.697Z</time></trkpt><trkpt lat="44.0995133" lon="10.0845872"><ele>233.20000000000002</ele><time>2026-04-04T11:34:13.706Z</time></trkpt><trkpt lat="44.0996091" lon="10.0845651"><ele>234.60000000000002</ele><time>2026-04-04T11:34:15.709Z</time></trkpt><trkpt lat="44.0997148" lon="10.0845899"><ele>236.0</ele><time>2026-04-04T11:34:17.703Z</time></trkpt><trkpt lat="44.0998051" lon="10.0846417"><ele>236.0</ele><time>2026-04-04T11:34:19.706Z</time></trkpt><trkpt lat="44.0998914" lon="10.0847127"><ele>236.00000000000003</ele><time>2026-04-04T11:34:21.71Z</time></trkpt><trkpt lat="44.0999801" lon="10.0847963"><ele>236.00000000000003</ele><time>2026-04-04T11:34:23.712Z</time></trkpt><trkpt lat="44.1000546" lon="10.0848244"><ele>236.0</ele><time>2026-04-04T11:34:26.703Z</time></trkpt><trkpt lat="44.1001348" lon="10.0848375"><ele>236.0</ele><time>2026-04-04T11:34:28.709Z</time></trkpt><trkpt lat="44.100232" lon="10.0848454"><ele>234.60000000000002</ele><time>2026-04-04T11:34:30.707Z</time></trkpt><trkpt lat="44.1003212" lon="10.0849126"><ele>233.20000000000002</ele><time>2026-04-04T11:34:32.703Z</time></trkpt><trkpt lat="44.1003852" lon="10.0850087"><ele>231.79999999999998</ele><time>2026-04-04T11:34:34.712Z</time></trkpt><trkpt lat="44.1004608" lon="10.0851056"><ele>230.39999999999998</ele><time>2026-04-04T11:34:36.708Z</time></trkpt><trkpt lat="44.1005166" lon="10.0851847"><ele>229.0</ele><time>2026-04-04T11:34:37.706Z</time></trkpt><trkpt lat="44.1005791" lon="10.0852856"><ele>228.99999999999997</ele><time>2026-04-04T11:34:39.698Z</time></trkpt><trkpt lat="44.1006319" lon="10.0853772"><ele>229.0</ele><time>2026-04-04T11:34:41.7Z</time></trkpt><trkpt lat="44.1007061" lon="10.0854394"><ele>229.0</ele><time>2026-04-04T11:34:43.708Z</time></trkpt><trkpt lat="44.1008064" lon="10.0855139"><ele>229.0</ele><time>2026-04-04T11:34:45.72Z</time></trkpt><trkpt lat="44.1008763" lon="10.0855791"><ele>228.99999999999997</ele><time>2026-04-04T11:34:46.711Z</time></trkpt><trkpt lat="44.1009279" lon="10.0856653"><ele>229.0</ele><time>2026-04-04T11:34:47.711Z</time></trkpt><trkpt lat="44.1009892" lon="10.0857559"><ele>230.79999999999998</ele><time>2026-04-04T11:34:48.71Z</time></trkpt><trkpt lat="44.1010609" lon="10.0858563"><ele>232.59999999999997</ele><time>2026-04-04T11:34:49.716Z</time></trkpt><trkpt lat="44.1011423" lon="10.0859575"><ele>234.4</ele><time>2026-04-04T11:34:50.711Z</time></trkpt><trkpt lat="44.1012269" lon="10.0860375"><ele>236.2</ele><time>2026-04-04T11:34:51.717Z</time></trkpt><trkpt lat="44.1013229" lon="10.086094"><ele>238.0</ele><time>2026-04-04T11:34:52.704Z</time></trkpt><trkpt lat="44.1014303" lon="10.0861198"><ele>238.0</ele><time>2026-04-04T11:34:53.712Z</time></trkpt><trkpt lat="44.1015401" lon="10.0861157"><ele>238.0</ele><time>2026-04-04T11:34:54.71Z</time></trkpt><trkpt lat="44.1016398" lon="10.0860772"><ele>238.0</ele><time>2026-04-04T11:34:55.723Z</time></trkpt><trkpt lat="44.1017366" lon="10.0859864"><ele>238.0</ele><time>2026-04-04T11:34:56.716Z</time></trkpt><trkpt lat="44.1018158" lon="10.0858758"><ele>238.0</ele><time>2026-04-04T11:34:57.72Z</time></trkpt><trkpt lat="44.1018926" lon="10.0857734"><ele>237.60000000000002</ele><time>2026-04-04T11:34:58.717Z</time></trkpt><trkpt lat="44.1019785" lon="10.0856973"><ele>237.20000000000002</ele><time>2026-04-04T11:34:59.714Z</time></trkpt><trkpt lat="44.1020815" lon="10.0856616"><ele>236.8</ele><time>2026-04-04T11:35:00.729Z</time></trkpt><trkpt lat="44.1021959" lon="10.0856706"><ele>236.4</ele><time>2026-04-04T11:35:01.711Z</time></trkpt><trkpt lat="44.1023211" lon="10.0856924"><ele>236.0</ele><time>2026-04-04T11:35:02.716Z</time></trkpt><trkpt lat="44.1024546" lon="10.0857062"><ele>236.0</ele><time>2026-04-04T11:35:03.711Z</time></trkpt><trkpt lat="44.1025932" lon="10.0857139"><ele>236.0</ele><time>2026-04-04T11:35:04.712Z</time></trkpt><trkpt lat="44.1027422" lon="10.0857166"><ele>236.0</ele><time>2026-04-04T11:35:05.71Z</time></trkpt><trkpt lat="44.1029056" lon="10.0857089"><ele>236.0</ele><time>2026-04-04T11:35:06.71Z</time></trkpt><trkpt lat="44.1030832" lon="10.0856905"><ele>236.0</ele><time>2026-04-04T11:35:07.72Z</time></trkpt><trkpt lat="44.1033263" lon="10.0856928"><ele>236.0</ele><time>2026-04-04T11:35:08.699Z</time></trkpt><trkpt lat="44.1035533" lon="10.0857118"><ele>238.0</ele><time>2026-04-04T11:35:09.698Z</time></trkpt><trkpt lat="44.10376" lon="10.0857215"><ele>240.0</ele><time>2026-04-04T11:35:10.701Z</time></trkpt><trkpt lat="44.1039637" lon="10.085702"><ele>242.0</ele><time>2026-04-04T11:35:11.694Z</time></trkpt><trkpt lat="44.1041511" lon="10.0856981"><ele>243.33333333333334</ele><time>2026-04-04T11:35:12.704Z</time></trkpt><trkpt lat="44.1043224" lon="10.085682"><ele>244.66666666666669</ele><time>2026-04-04T11:35:13.707Z</time></trkpt><trkpt lat="44.1044857" lon="10.0856783"><ele>246.0</ele><time>2026-04-04T11:35:14.711Z</time></trkpt><trkpt lat="44.1046594" lon="10.0856638"><ele>246.0</ele><time>2026-04-04T11:35:15.701Z</time></trkpt><trkpt lat="44.1048359" lon="10.0856116"><ele>246.0</ele><time>2026-04-04T11:35:16.722Z</time></trkpt><trkpt lat="44.1050318" lon="10.0855349"><ele>246.0</ele><time>2026-04-04T11:35:17.707Z</time></trkpt><trkpt lat="44.1052212" lon="10.0854585"><ele>249.0</ele><time>2026-04-04T11:35:18.702Z</time></trkpt><trkpt lat="44.1054141" lon="10.0853765"><ele>252.0</ele><time>2026-04-04T11:35:19.71Z</time></trkpt><trkpt lat="44.1055886" lon="10.085284"><ele>255.0</ele><time>2026-04-04T11:35:20.728Z</time></trkpt><trkpt lat="44.1057711" lon="10.0852043"><ele>261.3333333333333</ele><time>2026-04-04T11:35:21.715Z</time></trkpt><trkpt lat="44.1059463" lon="10.0851364"><ele>267.66666666666663</ele><time>2026-04-04T11:35:22.716Z</time></trkpt><trkpt lat="44.1061138" lon="10.0850799"><ele>274.0</ele><time>2026-04-04T11:35:23.713Z</time></trkpt><trkpt lat="44.1062647" lon="10.0850412"><ele>274.0</ele><time>2026-04-04T11:35:24.712Z</time></trkpt><trkpt lat="44.1064115" lon="10.0850154"><ele>274.0</ele><time>2026-04-04T11:35:25.712Z</time></trkpt><trkpt lat="44.1065739" lon="10.0850418"><ele>274.0</ele><time>2026-04-04T11:35:26.71Z</time></trkpt><trkpt lat="44.1067388" lon="10.0851124"><ele>278.66666666666663</ele><time>2026-04-04T11:35:27.724Z</time></trkpt><trkpt lat="44.1068954" lon="10.0852171"><ele>283.3333333333333</ele><time>2026-04-04T11:35:28.697Z</time></trkpt><trkpt lat="44.1070744" lon="10.0852986"><ele>288.0</ele><time>2026-04-04T11:35:29.709Z</time></trkpt><trkpt lat="44.1072821" lon="10.0853419"><ele>289.0</ele><time>2026-04-04T11:35:30.7Z</time></trkpt><trkpt lat="44.1075065" lon="10.0853789"><ele>290.0</ele><time>2026-04-04T11:35:31.7Z</time></trkpt><trkpt lat="44.1077303" lon="10.0854088"><ele>290.0</ele><time>2026-04-04T11:35:32.712Z</time></trkpt><trkpt lat="44.1079269" lon="10.0854297"><ele>290.0</ele><time>2026-04-04T11:35:33.707Z</time></trkpt><trkpt lat="44.1080963" lon="10.0854408"><ele>290.0</ele><time>2026-04-04T11:35:34.703Z</time></trkpt><trkpt lat="44.108249" lon="10.0854774"><ele>291.33333333333337</ele><time>2026-04-04T11:35:35.714Z</time></trkpt><trkpt lat="44.1084015" lon="10.085575"><ele>292.6666666666667</ele><time>2026-04-04T11:35:36.711Z</time></trkpt><trkpt lat="44.108542" lon="10.0857295"><ele>294.0</ele><time>2026-04-04T11:35:37.709Z</time></trkpt><trkpt lat="44.1086857" lon="10.0859035"><ele>301.3333333333333</ele><time>2026-04-04T11:35:38.701Z</time></trkpt><trkpt lat="44.1088236" lon="10.0860519"><ele>308.66666666666663</ele><time>2026-04-04T11:35:39.702Z</time></trkpt><trkpt lat="44.1089481" lon="10.0861602"><ele>316.0</ele><time>2026-04-04T11:35:40.7Z</time></trkpt><trkpt lat="44.1090942" lon="10.0862085"><ele>316.0</ele><time>2026-04-04T11:35:41.724Z</time></trkpt><trkpt lat="44.1092599" lon="10.0862169"><ele>316.0</ele><time>2026-04-04T11:35:42.72Z</time></trkpt><trkpt lat="44.1094399" lon="10.086205"><ele>316.0</ele><time>2026-04-04T11:35:43.726Z</time></trkpt><trkpt lat="44.1096018" lon="10.0861606"><ele>316.0</ele><time>2026-04-04T11:35:44.718Z</time></trkpt><trkpt lat="44.1097496" lon="10.0860492"><ele>316.0</ele><time>2026-04-04T11:35:45.729Z</time></trkpt><trkpt lat="44.109914" lon="10.0858624"><ele>316.0</ele><time>2026-04-04T11:35:46.732Z</time></trkpt><trkpt lat="44.1100777" lon="10.0857221"><ele>321.66666666666663</ele><time>2026-04-04T11:35:47.724Z</time></trkpt><trkpt lat="44.1102266" lon="10.0856329"><ele>327.3333333333333</ele><time>2026-04-04T11:35:48.728Z</time></trkpt><trkpt lat="44.1103902" lon="10.0856096"><ele>333.0</ele><time>2026-04-04T11:35:49.731Z</time></trkpt><trkpt lat="44.1105714" lon="10.0856656"><ele>333.6666666666667</ele><time>2026-04-04T11:35:50.708Z</time></trkpt><trkpt lat="44.1107517" lon="10.0856782"><ele>334.33333333333337</ele><time>2026-04-04T11:35:51.718Z</time></trkpt><trkpt lat="44.1109366" lon="10.0856154"><ele>335.0</ele><time>2026-04-04T11:35:52.704Z</time></trkpt><trkpt lat="44.1111746" lon="10.085503"><ele>335.0</ele><time>2026-04-04T11:35:53.713Z</time></trkpt><trkpt lat="44.1114095" lon="10.0854143"><ele>335.0</ele><time>2026-04-04T11:35:54.708Z</time></trkpt><trkpt lat="44.1116099" lon="10.0853367"><ele>337.5</ele><time>2026-04-04T11:35:55.708Z</time></trkpt><trkpt lat="44.1117671" lon="10.0853017"><ele>340.0</ele><time>2026-04-04T11:35:56.708Z</time></trkpt><trkpt lat="44.1118951" lon="10.0853016"><ele>342.5</ele><time>2026-04-04T11:35:57.711Z</time></trkpt><trkpt lat="44.1120231" lon="10.0853743"><ele>345.0</ele><time>2026-04-04T11:35:58.717Z</time></trkpt><trkpt lat="44.1121728" lon="10.0854515"><ele>345.0</ele><time>2026-04-04T11:35:59.698Z</time></trkpt><trkpt lat="44.1123162" lon="10.085546"><ele>345.0</ele><time>2026-04-04T11:36:00.723Z</time></trkpt><trkpt lat="44.1124379" lon="10.0856418"><ele>345.0</ele><time>2026-04-04T11:36:01.693Z</time></trkpt><trkpt lat="44.112562" lon="10.0857749"><ele>352.6666666666667</ele><time>2026-04-04T11:36:02.69Z</time></trkpt><trkpt lat="44.1126726" lon="10.0859428"><ele>360.33333333333337</ele><time>2026-04-04T11:36:03.687Z</time></trkpt><trkpt lat="44.1127896" lon="10.0861131"><ele>368.0</ele><time>2026-04-04T11:36:04.687Z</time></trkpt><trkpt lat="44.1129468" lon="10.0862767"><ele>368.0</ele><time>2026-04-04T11:36:05.689Z</time></trkpt><trkpt lat="44.1131574" lon="10.0864442"><ele>368.0</ele><time>2026-04-04T11:36:06.694Z</time></trkpt><trkpt lat="44.1133528" lon="10.0865697"><ele>371.75</ele><time>2026-04-04T11:36:07.683Z</time></trkpt><trkpt lat="44.1135241" lon="10.0866753"><ele>375.5</ele><time>2026-04-04T11:36:08.685Z</time></trkpt><trkpt lat="44.113637" lon="10.0867655"><ele>379.25</ele><time>2026-04-04T11:36:09.692Z</time></trkpt><trkpt lat="44.1137215" lon="10.0868128"><ele>383.0</ele><time>2026-04-04T11:36:10.711Z</time></trkpt><trkpt lat="44.1137938" lon="10.0867029"><ele>385.5</ele><time>2026-04-04T11:36:12.688Z</time></trkpt><trkpt lat="44.1137803" lon="10.0865643"><ele>388.0</ele><time>2026-04-04T11:36:13.71Z</time></trkpt><trkpt lat="44.1137472" lon="10.0864265"><ele>390.5</ele><time>2026-04-04T11:36:14.719Z</time></trkpt><trkpt lat="44.113646" lon="10.0863079"><ele>393.0</ele><time>2026-04-04T11:36:15.69Z</time></trkpt><trkpt lat="44.1134971" lon="10.0861876"><ele>393.0</ele><time>2026-04-04T11:36:16.706Z</time></trkpt><trkpt lat="44.1133535" lon="10.0860655"><ele>393.0</ele><time>2026-04-04T11:36:17.713Z</time></trkpt><trkpt lat="44.1131979" lon="10.0859365"><ele>393.0</ele><time>2026-04-04T11:36:18.709Z</time></trkpt><trkpt lat="44.1130555" lon="10.0858118"><ele>384.6666666666667</ele><time>2026-04-04T11:36:19.699Z</time></trkpt><trkpt lat="44.1129442" lon="10.085659"><ele>376.33333333333337</ele><time>2026-04-04T11:36:20.699Z</time></trkpt><trkpt lat="44.1128688" lon="10.0854503"><ele>368.0</ele><time>2026-04-04T11:36:21.713Z</time></trkpt><trkpt lat="44.1128287" lon="10.0852647"><ele>368.0</ele><time>2026-04-04T11:36:22.71Z</time></trkpt><trkpt lat="44.112828" lon="10.0850572"><ele>368.0</ele><time>2026-04-04T11:36:23.72Z</time></trkpt><trkpt lat="44.1128153" lon="10.0848038"><ele>368.0</ele><time>2026-04-04T11:36:24.718Z</time></trkpt><trkpt lat="44.1127802" lon="10.0845178"><ele>373.0</ele><time>2026-04-04T11:36:25.712Z</time></trkpt><trkpt lat="44.112733" lon="10.0842656"><ele>378.0</ele><time>2026-04-04T11:36:26.72Z</time></trkpt><trkpt lat="44.112722" lon="10.0840701"><ele>383.0</ele><time>2026-04-04T11:36:27.725Z</time></trkpt><trkpt lat="44.1127329" lon="10.0838881"><ele>388.79999999999995</ele><time>2026-04-04T11:36:28.713Z</time></trkpt><trkpt lat="44.112775" lon="10.0836838"><ele>394.6</ele><time>2026-04-04T11:36:29.703Z</time></trkpt><trkpt lat="44.1127877" lon="10.0835428"><ele>400.4</ele><time>2026-04-04T11:36:30.722Z</time></trkpt><trkpt lat="44.1127458" lon="10.0834663"><ele>406.20000000000005</ele><time>2026-04-04T11:36:31.71Z</time></trkpt><trkpt lat="44.1126448" lon="10.083392"><ele>412.0</ele><time>2026-04-04T11:36:32.706Z</time></trkpt><trkpt lat="44.1124748" lon="10.0833544"><ele>412.0</ele><time>2026-04-04T11:36:33.707Z</time></trkpt><trkpt lat="44.1122868" lon="10.083331"><ele>412.0</ele><time>2026-04-04T11:36:34.705Z</time></trkpt><trkpt lat="44.1121071" lon="10.0833161"><ele>412.0</ele><time>2026-04-04T11:36:35.687Z</time></trkpt><trkpt lat="44.111938" lon="10.0833435"><ele>412.0</ele><time>2026-04-04T11:36:36.702Z</time></trkpt><trkpt lat="44.1117766" lon="10.0833833"><ele>412.0</ele><time>2026-04-04T11:36:37.712Z</time></trkpt><trkpt lat="44.1116208" lon="10.0833896"><ele>412.0</ele><time>2026-04-04T11:36:38.699Z</time></trkpt><trkpt lat="44.1114468" lon="10.0833655"><ele>415.0</ele><time>2026-04-04T11:36:39.698Z</time></trkpt><trkpt lat="44.1112394" lon="10.0833335"><ele>418.0</ele><time>2026-04-04T11:36:40.703Z</time></trkpt><trkpt lat="44.1110162" lon="10.083336"><ele>421.0</ele><time>2026-04-04T11:36:41.7Z</time></trkpt><trkpt lat="44.1108186" lon="10.0833307"><ele>420.6666666666667</ele><time>2026-04-04T11:36:42.699Z</time></trkpt><trkpt lat="44.1106553" lon="10.0833078"><ele>420.33333333333337</ele><time>2026-04-04T11:36:43.698Z</time></trkpt><trkpt lat="44.1104742" lon="10.0832966"><ele>420.0</ele><time>2026-04-04T11:36:44.711Z</time></trkpt><trkpt lat="44.1102671" lon="10.0832889"><ele>420.0</ele><time>2026-04-04T11:36:45.694Z</time></trkpt><trkpt lat="44.1100923" lon="10.0832975"><ele>420.0</ele><time>2026-04-04T11:36:46.695Z</time></trkpt><trkpt lat="44.1099436" lon="10.0832758"><ele>420.0</ele><time>2026-04-04T11:36:47.709Z</time></trkpt><trkpt lat="44.1098613" lon="10.0832089"><ele>420.0</ele><time>2026-04-04T11:36:48.702Z</time></trkpt><trkpt lat="44.1097615" lon="10.083068"><ele>412.5</ele><time>2026-04-04T11:36:49.744Z</time></trkpt><trkpt lat="44.1096275" lon="10.0828391"><ele>405.0</ele><time>2026-04-04T11:36:50.708Z</time></trkpt><trkpt lat="44.1095407" lon="10.0826767"><ele>397.5</ele><time>2026-04-04T11:36:51.719Z</time></trkpt><trkpt lat="44.1095094" lon="10.0825724"><ele>390.0</ele><time>2026-04-04T11:36:52.721Z</time></trkpt><trkpt lat="44.1096331" lon="10.0824604"><ele>392.0</ele><time>2026-04-04T11:36:54.725Z</time></trkpt><trkpt lat="44.1097721" lon="10.0824163"><ele>394.0</ele><time>2026-04-04T11:36:55.724Z</time></trkpt><trkpt lat="44.1099436" lon="10.082314"><ele>396.0</ele><time>2026-04-04T11:36:56.703Z</time></trkpt><trkpt lat="44.1101299" lon="10.0821612"><ele>396.0</ele><time>2026-04-04T11:36:57.717Z</time></trkpt><trkpt lat="44.1103232" lon="10.0820063"><ele>396.0</ele><time>2026-04-04T11:36:58.724Z</time></trkpt><trkpt lat="44.1104824" lon="10.0818465"><ele>396.0</ele><time>2026-04-04T11:36:59.715Z</time></trkpt><trkpt lat="44.1106443" lon="10.0816509"><ele>405.0</ele><time>2026-04-04T11:37:00.723Z</time></trkpt><trkpt lat="44.1107847" lon="10.0814552"><ele>414.0</ele><time>2026-04-04T11:37:01.725Z</time></trkpt><trkpt lat="44.1109223" lon="10.0812817"><ele>423.0</ele><time>2026-04-04T11:37:02.718Z</time></trkpt><trkpt lat="44.1110469" lon="10.0810346"><ele>423.0</ele><time>2026-04-04T11:37:03.713Z</time></trkpt><trkpt lat="44.1111747" lon="10.0807894"><ele>423.0</ele><time>2026-04-04T11:37:04.714Z</time></trkpt><trkpt lat="44.1112894" lon="10.0805967"><ele>423.0</ele><time>2026-04-04T11:37:05.719Z</time></trkpt><trkpt lat="44.1114169" lon="10.0804618"><ele>416.66666666666663</ele><time>2026-04-04T11:37:06.714Z</time></trkpt><trkpt lat="44.1115351" lon="10.0803288"><ele>410.3333333333333</ele><time>2026-04-04T11:37:07.718Z</time></trkpt><trkpt lat="44.111639" lon="10.0801824"><ele>404.0</ele><time>2026-04-04T11:37:08.71Z</time></trkpt><trkpt lat="44.1117414" lon="10.0799988"><ele>412.0</ele><time>2026-04-04T11:37:09.713Z</time></trkpt><trkpt lat="44.1118765" lon="10.0797966"><ele>420.0</ele><time>2026-04-04T11:37:10.719Z</time></trkpt><trkpt lat="44.112016" lon="10.0796055"><ele>428.0</ele><time>2026-04-04T11:37:11.72Z</time></trkpt><trkpt lat="44.1121465" lon="10.0794222"><ele>428.0</ele><time>2026-04-04T11:37:12.707Z</time></trkpt><trkpt lat="44.1122694" lon="10.0792663"><ele>428.0</ele><time>2026-04-04T11:37:13.729Z</time></trkpt><trkpt lat="44.112362" lon="10.0790848"><ele>428.0</ele><time>2026-04-04T11:37:14.731Z</time></trkpt><trkpt lat="44.112436" lon="10.0788122"><ele>444.0</ele><time>2026-04-04T11:37:15.706Z</time></trkpt><trkpt lat="44.1125053" lon="10.0784765"><ele>460.0</ele><time>2026-04-04T11:37:16.721Z</time></trkpt><trkpt lat="44.1125713" lon="10.0782042"><ele>460.0</ele><time>2026-04-04T11:37:17.725Z</time></trkpt><trkpt lat="44.1126262" lon="10.0780099"><ele>460.0</ele><time>2026-04-04T11:37:18.712Z</time></trkpt><trkpt lat="44.1126943" lon="10.0778459"><ele>460.0</ele><time>2026-04-04T11:37:19.734Z</time></trkpt><trkpt lat="44.1127763" lon="10.077681"><ele>460.0</ele><time>2026-04-04T11:37:20.71Z</time></trkpt><trkpt lat="44.1128502" lon="10.0775404"><ele>463.25</ele><time>2026-04-04T11:37:21.693Z</time></trkpt><trkpt lat="44.112887" lon="10.0774245"><ele>466.5</ele><time>2026-04-04T11:37:22.721Z</time></trkpt><trkpt lat="44.1128555" lon="10.0772456"><ele>469.75</ele><time>2026-04-04T11:37:23.71Z</time></trkpt><trkpt lat="44.1128871" lon="10.0770444"><ele>473.0</ele><time>2026-04-04T11:37:24.701Z</time></trkpt><trkpt lat="44.1129532" lon="10.0768101"><ele>473.0</ele><time>2026-04-04T11:37:25.708Z</time></trkpt><trkpt lat="44.1130208" lon="10.0766117"><ele>473.0</ele><time>2026-04-04T11:37:26.713Z</time></trkpt><trkpt lat="44.1130089" lon="10.0764339"><ele>473.0</ele><time>2026-04-04T11:37:27.702Z</time></trkpt><trkpt lat="44.1129642" lon="10.0762586"><ele>473.0</ele><time>2026-04-04T11:37:28.714Z</time></trkpt><trkpt lat="44.1129045" lon="10.076038"><ele>481.0</ele><time>2026-04-04T11:37:29.707Z</time></trkpt><trkpt lat="44.1128475" lon="10.0758108"><ele>489.0</ele><time>2026-04-04T11:37:30.696Z</time></trkpt><trkpt lat="44.1128058" lon="10.0756321"><ele>497.0</ele><time>2026-04-04T11:37:31.875Z</time></trkpt><trkpt lat="44.1126749" lon="10.0756054"><ele>505.0</ele><time>2026-04-04T11:37:33.691Z</time></trkpt><trkpt lat="44.1125884" lon="10.0758034"><ele>505.0</ele><time>2026-04-04T11:37:34.707Z</time></trkpt><trkpt lat="44.1124638" lon="10.0759799"><ele>505.0</ele><time>2026-04-04T11:37:35.693Z</time></trkpt><trkpt lat="44.1122999" lon="10.076134"><ele>505.0</ele><time>2026-04-04T11:37:36.687Z</time></trkpt><trkpt lat="44.112117" lon="10.0762929"><ele>501.0</ele><time>2026-04-04T11:37:37.69Z</time></trkpt><trkpt lat="44.1119712" lon="10.0764649"><ele>497.0</ele><time>2026-04-04T11:37:38.685Z</time></trkpt><trkpt lat="44.1118175" lon="10.0765994"><ele>493.0</ele><time>2026-04-04T11:37:39.684Z</time></trkpt><trkpt lat="44.1116527" lon="10.0766602"><ele>499.6666666666667</ele><time>2026-04-04T11:37:40.692Z</time></trkpt><trkpt lat="44.1114775" lon="10.0766995"><ele>506.33333333333337</ele><time>2026-04-04T11:37:41.693Z</time></trkpt><trkpt lat="44.1112729" lon="10.0767279"><ele>513.0</ele><time>2026-04-04T11:37:42.703Z</time></trkpt><trkpt lat="44.1110106" lon="10.0767571"><ele>513.0</ele><time>2026-04-04T11:37:43.696Z</time></trkpt><trkpt lat="44.1107841" lon="10.0768149"><ele>513.0</ele><time>2026-04-04T11:37:44.714Z</time></trkpt><trkpt lat="44.1105773" lon="10.0768624"><ele>513.0</ele><time>2026-04-04T11:37:45.695Z</time></trkpt><trkpt lat="44.1104088" lon="10.0769004"><ele>507.25</ele><time>2026-04-04T11:37:46.781Z</time></trkpt><trkpt lat="44.110269" lon="10.0769089"><ele>501.5</ele><time>2026-04-04T11:37:47.73Z</time></trkpt><trkpt lat="44.1101602" lon="10.0768656"><ele>495.75</ele><time>2026-04-04T11:37:48.703Z</time></trkpt><trkpt lat="44.1100718" lon="10.0767858"><ele>490.0</ele><time>2026-04-04T11:37:49.715Z</time></trkpt><trkpt lat="44.1100181" lon="10.0766336"><ele>490.00000000000006</ele><time>2026-04-04T11:37:50.728Z</time></trkpt><trkpt lat="44.1100255" lon="10.0764918"><ele>490.0</ele><time>2026-04-04T11:37:51.723Z</time></trkpt><trkpt lat="44.1100655" lon="10.076422"><ele>490.0</ele><time>2026-04-04T11:37:52.722Z</time></trkpt><trkpt lat="44.1101312" lon="10.0764482"><ele>490.0</ele><time>2026-04-04T11:37:53.709Z</time></trkpt><trkpt lat="44.1101941" lon="10.0764965"><ele>490.00000000000006</ele><time>2026-04-04T11:37:54.724Z</time></trkpt><trkpt lat="44.1102845" lon="10.0766288"><ele>490.0</ele><time>2026-04-04T11:37:56.712Z</time></trkpt><trkpt lat="44.1103453" lon="10.0766757"><ele>490.0</ele><time>2026-04-04T11:37:57.706Z</time></trkpt><trkpt lat="44.1104307" lon="10.076696"><ele>490.0</ele><time>2026-04-04T11:37:58.696Z</time></trkpt><trkpt lat="44.1105287" lon="10.0766875"><ele>490.0</ele><time>2026-04-04T11:37:59.708Z</time></trkpt><trkpt lat="44.1106513" lon="10.076628"><ele>490.0</ele><time>2026-04-04T11:38:00.712Z</time></trkpt><trkpt lat="44.1107724" lon="10.0765396"><ele>501.0</ele><time>2026-04-04T11:38:01.706Z</time></trkpt><trkpt lat="44.1109049" lon="10.0764601"><ele>512.0</ele><time>2026-04-04T11:38:02.703Z</time></trkpt><trkpt lat="44.1110298" lon="10.0763872"><ele>523.0</ele><time>2026-04-04T11:38:03.694Z</time></trkpt><trkpt lat="44.1111602" lon="10.0763127"><ele>534.0</ele><time>2026-04-04T11:38:04.785Z</time></trkpt><trkpt lat="44.1112809" lon="10.0762343"><ele>534.0</ele><time>2026-04-04T11:38:05.724Z</time></trkpt><trkpt lat="44.1113893" lon="10.0761496"><ele>534.0</ele><time>2026-04-04T11:38:06.712Z</time></trkpt><trkpt lat="44.1114763" lon="10.0760422"><ele>534.0</ele><time>2026-04-04T11:38:07.871Z</time></trkpt><trkpt lat="44.1116378" lon="10.0758069"><ele>535.25</ele><time>2026-04-04T11:38:09.707Z</time></trkpt><trkpt lat="44.1117201" lon="10.0756819"><ele>536.5</ele><time>2026-04-04T11:38:10.698Z</time></trkpt><trkpt lat="44.1118052" lon="10.075557"><ele>537.75</ele><time>2026-04-04T11:38:11.733Z</time></trkpt><trkpt lat="44.1118853" lon="10.075431"><ele>539.0</ele><time>2026-04-04T11:38:12.713Z</time></trkpt><trkpt lat="44.1119651" lon="10.0753018"><ele>539.0</ele><time>2026-04-04T11:38:13.74Z</time></trkpt><trkpt lat="44.112044" lon="10.0751801"><ele>539.0</ele><time>2026-04-04T11:38:14.736Z</time></trkpt><trkpt lat="44.1121199" lon="10.0750701"><ele>539.0</ele><time>2026-04-04T11:38:15.712Z</time></trkpt><trkpt lat="44.1121898" lon="10.0749651"><ele>539.0</ele><time>2026-04-04T11:38:16.707Z</time></trkpt><trkpt lat="44.1122561" lon="10.0748673"><ele>539.0</ele><time>2026-04-04T11:38:17.716Z</time></trkpt><trkpt lat="44.1123153" lon="10.0747741"><ele>539.4</ele><time>2026-04-04T11:38:18.712Z</time></trkpt><trkpt lat="44.1123718" lon="10.074688"><ele>539.8</ele><time>2026-04-04T11:38:19.706Z</time></trkpt><trkpt lat="44.1124177" lon="10.074618"><ele>540.2</ele><time>2026-04-04T11:38:20.713Z</time></trkpt><trkpt lat="44.112485" lon="10.0744941"><ele>540.6</ele><time>2026-04-04T11:38:22.715Z</time></trkpt><trkpt lat="44.112533" lon="10.0743893"><ele>541.0</ele><time>2026-04-04T11:38:24.709Z</time></trkpt><trkpt lat="44.1126023" lon="10.0742585"><ele>540.0</ele><time>2026-04-04T11:38:26.705Z</time></trkpt><trkpt lat="44.1126379" lon="10.0741782"><ele>539.0</ele><time>2026-04-04T11:38:27.704Z</time></trkpt><trkpt lat="44.1126776" lon="10.0740971"><ele>538.0</ele><time>2026-04-04T11:38:28.718Z</time></trkpt><trkpt lat="44.112753" lon="10.0739804"><ele>537.0</ele><time>2026-04-04T11:38:30.719Z</time></trkpt><trkpt lat="44.1128368" lon="10.0738924"><ele>536.0</ele><time>2026-04-04T11:38:32.705Z</time></trkpt><trkpt lat="44.1129396" lon="10.0738264"><ele>535.6</ele><time>2026-04-04T11:38:34.727Z</time></trkpt><trkpt lat="44.1130572" lon="10.0737589"><ele>535.2</ele><time>2026-04-04T11:38:36.719Z</time></trkpt><trkpt lat="44.1131719" lon="10.0737197"><ele>534.8</ele><time>2026-04-04T11:38:38.711Z</time></trkpt><trkpt lat="44.1132369" lon="10.0737066"><ele>534.4</ele><time>2026-04-04T11:38:39.733Z</time></trkpt><trkpt lat="44.1133367" lon="10.0736312"><ele>534.0</ele><time>2026-04-04T11:38:41.744Z</time></trkpt><trkpt lat="44.1133905" lon="10.0735729"><ele>534.0</ele><time>2026-04-04T11:38:42.742Z</time></trkpt><trkpt lat="44.1134507" lon="10.0734855"><ele>534.0</ele><time>2026-04-04T11:38:43.72Z</time></trkpt><trkpt lat="44.1135168" lon="10.073389"><ele>534.0</ele><time>2026-04-04T11:38:44.738Z</time></trkpt><trkpt lat="44.1135763" lon="10.0732843"><ele>534.0</ele><time>2026-04-04T11:38:45.757Z</time></trkpt><trkpt lat="44.1136457" lon="10.0731847"><ele>534.0</ele><time>2026-04-04T11:38:46.751Z</time></trkpt><trkpt lat="44.1137105" lon="10.0730843"><ele>534.5</ele><time>2026-04-04T11:38:47.761Z</time></trkpt><trkpt lat="44.1137736" lon="10.0729858"><ele>535.0</ele><time>2026-04-04T11:38:48.754Z</time></trkpt><trkpt lat="44.1138309" lon="10.0728915"><ele>535.5</ele><time>2026-04-04T11:38:49.729Z</time></trkpt><trkpt lat="44.1138825" lon="10.0728082"><ele>536.0</ele><time>2026-04-04T11:38:50.753Z</time></trkpt><trkpt lat="44.1139276" lon="10.0727313"><ele>536.5</ele><time>2026-04-04T11:38:51.739Z</time></trkpt><trkpt lat="44.1139703" lon="10.0726588"><ele>537.0</ele><time>2026-04-04T11:38:52.744Z</time></trkpt><trkpt lat="44.1140184" lon="10.0725937"><ele>540.0</ele><time>2026-04-04T11:38:53.734Z</time></trkpt><trkpt lat="44.1141333" lon="10.0725533"><ele>543.0</ele><time>2026-04-04T11:38:55.736Z</time></trkpt><trkpt lat="44.1142008" lon="10.072567"><ele>546.0</ele><time>2026-04-04T11:38:56.729Z</time></trkpt><trkpt lat="44.11427" lon="10.07257"><ele>549.0</ele><time>2026-04-04T11:38:57.741Z</time></trkpt><trkpt lat="44.114353" lon="10.0724714"><ele>552.0</ele><time>2026-04-04T11:38:59.719Z</time></trkpt><trkpt lat="44.1143209" lon="10.0723273"><ele>553.1666666666666</ele><time>2026-04-04T11:39:01.721Z</time></trkpt><trkpt lat="44.114253" lon="10.0722639"><ele>554.3333333333334</ele><time>2026-04-04T11:39:02.721Z</time></trkpt><trkpt lat="44.1141782" lon="10.072203"><ele>555.5</ele><time>2026-04-04T11:39:03.714Z</time></trkpt><trkpt lat="44.1141087" lon="10.0721415"><ele>556.6666666666667</ele><time>2026-04-04T11:39:04.721Z</time></trkpt><trkpt lat="44.1140512" lon="10.0720745"><ele>557.8333333333334</ele><time>2026-04-04T11:39:05.717Z</time></trkpt><trkpt lat="44.1140092" lon="10.0719822"><ele>559.0</ele><time>2026-04-04T11:39:06.725Z</time></trkpt><trkpt lat="44.1139814" lon="10.0718827"><ele>556.0</ele><time>2026-04-04T11:39:07.72Z</time></trkpt><trkpt lat="44.1139589" lon="10.0717751"><ele>553.0</ele><time>2026-04-04T11:39:08.726Z</time></trkpt><trkpt lat="44.1139356" lon="10.0716662"><ele>550.0</ele><time>2026-04-04T11:39:09.734Z</time></trkpt><trkpt lat="44.1139099" lon="10.0715618"><ele>547.0</ele><time>2026-04-04T11:39:10.739Z</time></trkpt><trkpt lat="44.1138751" lon="10.0714712"><ele>544.0</ele><time>2026-04-04T11:39:11.733Z</time></trkpt><trkpt lat="44.1138415" lon="10.0713926"><ele>541.0</ele><time>2026-04-04T11:39:12.741Z</time></trkpt><trkpt lat="44.1137798" lon="10.0712389"><ele>541.0000000000001</ele><time>2026-04-04T11:39:14.74Z</time></trkpt><trkpt lat="44.1137585" lon="10.0711562"><ele>541.0</ele><time>2026-04-04T11:39:15.739Z</time></trkpt><trkpt lat="44.1137432" lon="10.0710696"><ele>541.0</ele><time>2026-04-04T11:39:16.733Z</time></trkpt><trkpt lat="44.1137398" lon="10.0709774"><ele>541.0</ele><time>2026-04-04T11:39:17.742Z</time></trkpt><trkpt lat="44.1137603" lon="10.0708866"><ele>541.0</ele><time>2026-04-04T11:39:18.736Z</time></trkpt><trkpt lat="44.1137997" lon="10.0708069"><ele>541.0000000000001</ele><time>2026-04-04T11:39:19.724Z</time></trkpt><trkpt lat="44.1138535" lon="10.0707509"><ele>541.0</ele><time>2026-04-04T11:39:20.743Z</time></trkpt><trkpt lat="44.1139158" lon="10.0707103"><ele>540.8333333333334</ele><time>2026-04-04T11:39:21.724Z</time></trkpt><trkpt lat="44.1139887" lon="10.0706722"><ele>540.6666666666667</ele><time>2026-04-04T11:39:22.73Z</time></trkpt><trkpt lat="44.1140642" lon="10.0706357"><ele>540.5</ele><time>2026-04-04T11:39:23.739Z</time></trkpt><trkpt lat="44.1141418" lon="10.0706039"><ele>540.3333333333334</ele><time>2026-04-04T11:39:24.721Z</time></trkpt><trkpt lat="44.1142164" lon="10.0705705"><ele>540.1666666666666</ele><time>2026-04-04T11:39:25.734Z</time></trkpt><trkpt lat="44.114285" lon="10.0705376"><ele>540.0</ele><time>2026-04-04T11:39:26.718Z</time></trkpt><trkpt lat="44.1144021" lon="10.0705002"><ele>542.6</ele><time>2026-04-04T11:39:28.727Z</time></trkpt><trkpt lat="44.1145069" lon="10.0704646"><ele>545.2</ele><time>2026-04-04T11:39:30.722Z</time></trkpt><trkpt lat="44.1146033" lon="10.0704127"><ele>547.8</ele><time>2026-04-04T11:39:32.728Z</time></trkpt><trkpt lat="44.1146815" lon="10.0703564"><ele>550.4</ele><time>2026-04-04T11:39:34.732Z</time></trkpt><trkpt lat="44.114758" lon="10.0702825"><ele>553.0</ele><time>2026-04-04T11:39:36.732Z</time></trkpt><trkpt lat="44.1148451" lon="10.070189"><ele>553.0</ele><time>2026-04-04T11:39:38.74Z</time></trkpt><trkpt lat="44.1148981" lon="10.070132"><ele>553.0</ele><time>2026-04-04T11:39:39.734Z</time></trkpt><trkpt lat="44.1149531" lon="10.0700775"><ele>553.0</ele><time>2026-04-04T11:39:40.729Z</time></trkpt><trkpt lat="44.1150096" lon="10.070026"><ele>553.0</ele><time>2026-04-04T11:39:41.729Z</time></trkpt><trkpt lat="44.1150697" lon="10.069971"><ele>553.0</ele><time>2026-04-04T11:39:42.731Z</time></trkpt><trkpt lat="44.115126" lon="10.0699157"><ele>553.0</ele><time>2026-04-04T11:39:43.725Z</time></trkpt><trkpt lat="44.1151739" lon="10.069857"><ele>553.0</ele><time>2026-04-04T11:39:44.739Z</time></trkpt><trkpt lat="44.1152485" lon="10.0697459"><ele>556.8333333333334</ele><time>2026-04-04T11:39:46.736Z</time></trkpt><trkpt lat="44.1152754" lon="10.0696657"><ele>560.6666666666667</ele><time>2026-04-04T11:39:47.728Z</time></trkpt><trkpt lat="44.1152768" lon="10.0695668"><ele>564.5</ele><time>2026-04-04T11:39:48.731Z</time></trkpt><trkpt lat="44.1152531" lon="10.06947"><ele>568.3333333333334</ele><time>2026-04-04T11:39:49.726Z</time></trkpt><trkpt lat="44.1151881" lon="10.0694063"><ele>572.1666666666666</ele><time>2026-04-04T11:39:50.721Z</time></trkpt><trkpt lat="44.1150861" lon="10.0693641"><ele>576.0</ele><time>2026-04-04T11:39:51.727Z</time></trkpt><trkpt lat="44.114949" lon="10.0693251"><ele>570.75</ele><time>2026-04-04T11:39:52.802Z</time></trkpt><trkpt lat="44.1148314" lon="10.069248"><ele>565.5</ele><time>2026-04-04T11:39:53.734Z</time></trkpt><trkpt lat="44.1147324" lon="10.0691204"><ele>560.25</ele><time>2026-04-04T11:39:54.738Z</time></trkpt><trkpt lat="44.1146386" lon="10.068931"><ele>555.0</ele><time>2026-04-04T11:39:55.733Z</time></trkpt><trkpt lat="44.1145171" lon="10.0686472"><ele>555.0</ele><time>2026-04-04T11:39:56.728Z</time></trkpt><trkpt lat="44.1144557" lon="10.0684151"><ele>555.0</ele><time>2026-04-04T11:39:57.71Z</time></trkpt><trkpt lat="44.1144244" lon="10.0682238"><ele>555.0</ele><time>2026-04-04T11:39:58.729Z</time></trkpt><trkpt lat="44.1144537" lon="10.0680175"><ele>552.75</ele><time>2026-04-04T11:39:59.726Z</time></trkpt><trkpt lat="44.1145013" lon="10.0678267"><ele>550.5</ele><time>2026-04-04T11:40:00.713Z</time></trkpt><trkpt lat="44.1145799" lon="10.0676692"><ele>548.25</ele><time>2026-04-04T11:40:01.719Z</time></trkpt><trkpt lat="44.1146638" lon="10.0675683"><ele>546.0</ele><time>2026-04-04T11:40:02.718Z</time></trkpt><trkpt lat="44.1147637" lon="10.0675479"><ele>546.0</ele><time>2026-04-04T11:40:03.712Z</time></trkpt><trkpt lat="44.1149018" lon="10.0675177"><ele>546.0</ele><time>2026-04-04T11:40:04.714Z</time></trkpt><trkpt lat="44.115078" lon="10.0674666"><ele>546.0</ele><time>2026-04-04T11:40:05.726Z</time></trkpt><trkpt lat="44.1153262" lon="10.0673966"><ele>548.5</ele><time>2026-04-04T11:40:06.711Z</time></trkpt><trkpt lat="44.1156267" lon="10.0673231"><ele>551.0</ele><time>2026-04-04T11:40:07.719Z</time></trkpt><trkpt lat="44.1158562" lon="10.0672753"><ele>563.3333333333333</ele><time>2026-04-04T11:40:08.712Z</time></trkpt><trkpt lat="44.1160279" lon="10.0672614"><ele>575.6666666666666</ele><time>2026-04-04T11:40:09.719Z</time></trkpt><trkpt lat="44.1161768" lon="10.0673238"><ele>588.0</ele><time>2026-04-04T11:40:10.717Z</time></trkpt><trkpt lat="44.1163054" lon="10.0673894"><ele>588.0</ele><time>2026-04-04T11:40:11.716Z</time></trkpt><trkpt lat="44.1164151" lon="10.0674107"><ele>588.0</ele><time>2026-04-04T11:40:12.73Z</time></trkpt><trkpt lat="44.1164894" lon="10.067338"><ele>588.0</ele><time>2026-04-04T11:40:13.721Z</time></trkpt><trkpt lat="44.1164915" lon="10.0671874"><ele>588.0</ele><time>2026-04-04T11:40:14.72Z</time></trkpt><trkpt lat="44.1164845" lon="10.0670792"><ele>588.0</ele><time>2026-04-04T11:40:15.716Z</time></trkpt><trkpt lat="44.1162869" lon="10.0668426"><ele>599.5</ele><time>2026-04-04T11:40:16.703Z</time></trkpt><trkpt lat="44.1161111" lon="10.0665854"><ele>611.0</ele><time>2026-04-04T11:40:17.731Z</time></trkpt><trkpt lat="44.1159584" lon="10.0663306"><ele>611.0</ele><time>2026-04-04T11:40:18.73Z</time></trkpt><trkpt lat="44.1158299" lon="10.0661575"><ele>611.0</ele><time>2026-04-04T11:40:19.745Z</time></trkpt><trkpt lat="44.1156801" lon="10.0660621"><ele>611.0</ele><time>2026-04-04T11:40:20.735Z</time></trkpt><trkpt lat="44.1155235" lon="10.0659179"><ele>601.0</ele><time>2026-04-04T11:40:21.733Z</time></trkpt><trkpt lat="44.1153507" lon="10.0657274"><ele>591.0</ele><time>2026-04-04T11:40:22.748Z</time></trkpt><trkpt lat="44.1152295" lon="10.0655949"><ele>581.0</ele><time>2026-04-04T11:40:23.745Z</time></trkpt><trkpt lat="44.1151593" lon="10.0654747"><ele>581.0</ele><time>2026-04-04T11:40:24.728Z</time></trkpt><trkpt lat="44.1151374" lon="10.065337"><ele>581.0</ele><time>2026-04-04T11:40:25.742Z</time></trkpt><trkpt lat="44.1151624" lon="10.0651627"><ele>581.0</ele><time>2026-04-04T11:40:26.721Z</time></trkpt><trkpt lat="44.1152538" lon="10.0649795"><ele>581.0</ele><time>2026-04-04T11:40:27.713Z</time></trkpt><trkpt lat="44.11539" lon="10.0648477"><ele>586.0</ele><time>2026-04-04T11:40:28.717Z</time></trkpt><trkpt lat="44.1155294" lon="10.0646817"><ele>591.0</ele><time>2026-04-04T11:40:29.709Z</time></trkpt><trkpt lat="44.1156558" lon="10.0644867"><ele>596.0</ele><time>2026-04-04T11:40:30.722Z</time></trkpt><trkpt lat="44.1157867" lon="10.0642194"><ele>589.6666666666666</ele><time>2026-04-04T11:40:31.713Z</time></trkpt><trkpt lat="44.1159392" lon="10.0639635"><ele>583.3333333333334</ele><time>2026-04-04T11:40:32.714Z</time></trkpt><trkpt lat="44.1160705" lon="10.0637771"><ele>577.0</ele><time>2026-04-04T11:40:33.714Z</time></trkpt><trkpt lat="44.1161951" lon="10.0636809"><ele>577.0</ele><time>2026-04-04T11:40:34.714Z</time></trkpt><trkpt lat="44.1163406" lon="10.0636271"><ele>577.0</ele><time>2026-04-04T11:40:35.725Z</time></trkpt><trkpt lat="44.1165186" lon="10.0636534"><ele>577.0</ele><time>2026-04-04T11:40:36.716Z</time></trkpt><trkpt lat="44.1167017" lon="10.0637749"><ele>594.0</ele><time>2026-04-04T11:40:37.874Z</time></trkpt><trkpt lat="44.1170119" lon="10.064165"><ele>611.0</ele><time>2026-04-04T11:40:39.726Z</time></trkpt><trkpt lat="44.1171769" lon="10.0644371"><ele>611.0</ele><time>2026-04-04T11:40:40.722Z</time></trkpt><trkpt lat="44.1173375" lon="10.0646858"><ele>611.0</ele><time>2026-04-04T11:40:41.703Z</time></trkpt><trkpt lat="44.1174601" lon="10.0648628"><ele>611.0</ele><time>2026-04-04T11:40:42.704Z</time></trkpt><trkpt lat="44.1175898" lon="10.0649816"><ele>614.5</ele><time>2026-04-04T11:40:43.707Z</time></trkpt><trkpt lat="44.1176993" lon="10.0650267"><ele>618.0</ele><time>2026-04-04T11:40:44.712Z</time></trkpt><trkpt lat="44.1178501" lon="10.0650168"><ele>621.5</ele><time>2026-04-04T11:40:45.7Z</time></trkpt><trkpt lat="44.1180124" lon="10.0649449"><ele>625.0</ele><time>2026-04-04T11:40:46.787Z</time></trkpt><trkpt lat="44.1181991" lon="10.0649056"><ele>622.75</ele><time>2026-04-04T11:40:47.712Z</time></trkpt><trkpt lat="44.1183457" lon="10.0649273"><ele>620.5</ele><time>2026-04-04T11:40:48.7Z</time></trkpt><trkpt lat="44.1184752" lon="10.0649867"><ele>618.25</ele><time>2026-04-04T11:40:49.704Z</time></trkpt><trkpt lat="44.1185975" lon="10.0649775"><ele>616.0</ele><time>2026-04-04T11:40:50.703Z</time></trkpt><trkpt lat="44.1187316" lon="10.0649121"><ele>615.3333333333334</ele><time>2026-04-04T11:40:51.71Z</time></trkpt><trkpt lat="44.1188748" lon="10.0648565"><ele>614.6666666666666</ele><time>2026-04-04T11:40:52.713Z</time></trkpt><trkpt lat="44.1190304" lon="10.0648641"><ele>614.0</ele><time>2026-04-04T11:40:53.72Z</time></trkpt><trkpt lat="44.1191886" lon="10.0649619"><ele>614.0</ele><time>2026-04-04T11:40:54.711Z</time></trkpt><trkpt lat="44.1193809" lon="10.0650727"><ele>614.0</ele><time>2026-04-04T11:40:55.714Z</time></trkpt><trkpt lat="44.1195966" lon="10.0651162"><ele>614.0</ele><time>2026-04-04T11:40:56.724Z</time></trkpt><trkpt lat="44.1198039" lon="10.0651305"><ele>613.0</ele><time>2026-04-04T11:40:57.715Z</time></trkpt><trkpt lat="44.1199877" lon="10.0651966"><ele>612.0</ele><time>2026-04-04T11:40:58.715Z</time></trkpt><trkpt lat="44.120169" lon="10.0653401"><ele>611.0</ele><time>2026-04-04T11:40:59.709Z</time></trkpt><trkpt lat="44.1203483" lon="10.0655236"><ele>611.0</ele><time>2026-04-04T11:41:00.708Z</time></trkpt><trkpt lat="44.1204903" lon="10.0656995"><ele>611.0</ele><time>2026-04-04T11:41:01.705Z</time></trkpt><trkpt lat="44.1205983" lon="10.065794"><ele>611.0</ele><time>2026-04-04T11:41:02.722Z</time></trkpt><trkpt lat="44.1207093" lon="10.0657994"><ele>611.0</ele><time>2026-04-04T11:41:03.709Z</time></trkpt><trkpt lat="44.1208033" lon="10.0657011"><ele>612.0</ele><time>2026-04-04T11:41:04.704Z</time></trkpt><trkpt lat="44.1208269" lon="10.0655326"><ele>613.0</ele><time>2026-04-04T11:41:05.716Z</time></trkpt><trkpt lat="44.1207785" lon="10.0652843"><ele>614.0</ele><time>2026-04-04T11:41:06.706Z</time></trkpt><trkpt lat="44.1207701" lon="10.0650531"><ele>608.75</ele><time>2026-04-04T11:41:07.709Z</time></trkpt><trkpt lat="44.120806" lon="10.0648815"><ele>603.5</ele><time>2026-04-04T11:41:08.714Z</time></trkpt><trkpt lat="44.120887" lon="10.064739"><ele>598.25</ele><time>2026-04-04T11:41:09.721Z</time></trkpt><trkpt lat="44.1210009" lon="10.064578"><ele>593.0</ele><time>2026-04-04T11:41:10.707Z</time></trkpt><trkpt lat="44.1211595" lon="10.0643975"><ele>593.0</ele><time>2026-04-04T11:41:11.713Z</time></trkpt><trkpt lat="44.1213152" lon="10.0642361"><ele>593.0</ele><time>2026-04-04T11:41:12.709Z</time></trkpt><trkpt lat="44.1214286" lon="10.0640678"><ele>593.0</ele><time>2026-04-04T11:41:13.708Z</time></trkpt><trkpt lat="44.1214421" lon="10.0639435"><ele>589.0</ele><time>2026-04-04T11:41:14.716Z</time></trkpt><trkpt lat="44.1213976" lon="10.0637793"><ele>585.0</ele><time>2026-04-04T11:41:15.717Z</time></trkpt><trkpt lat="44.1212923" lon="10.0636736"><ele>581.0</ele><time>2026-04-04T11:41:16.724Z</time></trkpt><trkpt lat="44.1211058" lon="10.0636047"><ele>577.0</ele><time>2026-04-04T11:41:17.883Z</time></trkpt><trkpt lat="44.1207236" lon="10.063508"><ele>577.0</ele><time>2026-04-04T11:41:19.707Z</time></trkpt><trkpt lat="44.1205961" lon="10.0634716"><ele>577.0</ele><time>2026-04-04T11:41:20.705Z</time></trkpt><trkpt lat="44.1204934" lon="10.0633719"><ele>577.0</ele><time>2026-04-04T11:41:21.718Z</time></trkpt><trkpt lat="44.1204436" lon="10.063233"><ele>577.0</ele><time>2026-04-04T11:41:22.718Z</time></trkpt><trkpt lat="44.1204155" lon="10.0630819"><ele>581.75</ele><time>2026-04-04T11:41:23.711Z</time></trkpt><trkpt lat="44.1203857" lon="10.0629223"><ele>586.5</ele><time>2026-04-04T11:41:24.706Z</time></trkpt><trkpt lat="44.1203749" lon="10.0627635"><ele>591.25</ele><time>2026-04-04T11:41:25.718Z</time></trkpt><trkpt lat="44.1203579" lon="10.0626084"><ele>596.0</ele><time>2026-04-04T11:41:26.721Z</time></trkpt><trkpt lat="44.1203226" lon="10.0624355"><ele>597.25</ele><time>2026-04-04T11:41:27.751Z</time></trkpt><trkpt lat="44.1203102" lon="10.0622528"><ele>598.5</ele><time>2026-04-04T11:41:28.726Z</time></trkpt><trkpt lat="44.1203148" lon="10.0620663"><ele>599.75</ele><time>2026-04-04T11:41:29.723Z</time></trkpt><trkpt lat="44.1203364" lon="10.0618619"><ele>601.0</ele><time>2026-04-04T11:41:30.718Z</time></trkpt><trkpt lat="44.1203833" lon="10.0616379"><ele>594.6666666666667</ele><time>2026-04-04T11:41:31.724Z</time></trkpt><trkpt lat="44.1204587" lon="10.0614112"><ele>588.3333333333334</ele><time>2026-04-04T11:41:32.726Z</time></trkpt><trkpt lat="44.120577" lon="10.061213"><ele>582.0</ele><time>2026-04-04T11:41:33.718Z</time></trkpt><trkpt lat="44.120713" lon="10.0609898"><ele>595.3333333333334</ele><time>2026-04-04T11:41:34.719Z</time></trkpt><trkpt lat="44.1208284" lon="10.0607658"><ele>608.6666666666667</ele><time>2026-04-04T11:41:35.731Z</time></trkpt><trkpt lat="44.1209392" lon="10.060565"><ele>622.0</ele><time>2026-04-04T11:41:36.725Z</time></trkpt><trkpt lat="44.1210279" lon="10.0603808"><ele>622.0</ele><time>2026-04-04T11:41:37.725Z</time></trkpt><trkpt lat="44.1211051" lon="10.0602382"><ele>622.0</ele><time>2026-04-04T11:41:38.726Z</time></trkpt><trkpt lat="44.1211831" lon="10.0601262"><ele>622.0</ele><time>2026-04-04T11:41:39.712Z</time></trkpt><trkpt lat="44.1212746" lon="10.0600574"><ele>622.0</ele><time>2026-04-04T11:41:40.722Z</time></trkpt><trkpt lat="44.1213333" lon="10.0599254"><ele>623.75</ele><time>2026-04-04T11:41:41.719Z</time></trkpt><trkpt lat="44.1213225" lon="10.0597226"><ele>625.5</ele><time>2026-04-04T11:41:42.71Z</time></trkpt><trkpt lat="44.1213504" lon="10.0595365"><ele>627.25</ele><time>2026-04-04T11:41:43.719Z</time></trkpt><trkpt lat="44.1213392" lon="10.0593844"><ele>629.0</ele><time>2026-04-04T11:41:44.729Z</time></trkpt><trkpt lat="44.1212667" lon="10.0593041"><ele>629.0</ele><time>2026-04-04T11:41:45.72Z</time></trkpt><trkpt lat="44.121159" lon="10.0591925"><ele>629.0</ele><time>2026-04-04T11:41:46.743Z</time></trkpt><trkpt lat="44.1210396" lon="10.0590366"><ele>629.0</ele><time>2026-04-04T11:41:47.745Z</time></trkpt><trkpt lat="44.1209688" lon="10.0588843"><ele>629.0</ele><time>2026-04-04T11:41:48.75Z</time></trkpt><trkpt lat="44.1209981" lon="10.0587643"><ele>626.2</ele><time>2026-04-04T11:41:49.721Z</time></trkpt><trkpt lat="44.1210979" lon="10.0586412"><ele>623.4</ele><time>2026-04-04T11:41:50.715Z</time></trkpt><trkpt lat="44.1212094" lon="10.0585361"><ele>620.6</ele><time>2026-04-04T11:41:51.735Z</time></trkpt><trkpt lat="44.1212946" lon="10.0584656"><ele>617.8</ele><time>2026-04-04T11:41:52.72Z</time></trkpt><trkpt lat="44.1213492" lon="10.0584117"><ele>615.0</ele><time>2026-04-04T11:41:53.723Z</time></trkpt><trkpt lat="44.1213896" lon="10.0583354"><ele>609.0</ele><time>2026-04-04T11:41:55.729Z</time></trkpt><trkpt lat="44.1214306" lon="10.0582101"><ele>603.0</ele><time>2026-04-04T11:42:01.724Z</time></trkpt><trkpt lat="44.1214888" lon="10.0580537"><ele>597.0</ele><time>2026-04-04T11:42:03.72Z</time></trkpt><trkpt lat="44.1215365" lon="10.057906"><ele>591.0</ele><time>2026-04-04T11:42:05.701Z</time></trkpt><trkpt lat="44.1215836" lon="10.0577513"><ele>599.4</ele><time>2026-04-04T11:42:07.712Z</time></trkpt><trkpt lat="44.121633" lon="10.0575979"><ele>607.8</ele><time>2026-04-04T11:42:09.708Z</time></trkpt><trkpt lat="44.1216643" lon="10.0574551"><ele>616.1999999999999</ele><time>2026-04-04T11:42:11.722Z</time></trkpt><trkpt lat="44.1216907" lon="10.0573366"><ele>624.6</ele><time>2026-04-04T11:42:13.728Z</time></trkpt><trkpt lat="44.1217015" lon="10.0572475"><ele>633.0</ele><time>2026-04-04T11:42:15.72Z</time></trkpt><trkpt lat="44.1217208" lon="10.0571308"><ele>633.0</ele><time>2026-04-04T11:42:17.712Z</time></trkpt><trkpt lat="44.1217553" lon="10.0569792"><ele>633.0</ele><time>2026-04-04T11:42:19.715Z</time></trkpt><trkpt lat="44.1217741" lon="10.0568823"><ele>633.0</ele><time>2026-04-04T11:42:20.714Z</time></trkpt><trkpt lat="44.1217917" lon="10.0567519"><ele>633.0</ele><time>2026-04-04T11:42:21.725Z</time></trkpt><trkpt lat="44.1217934" lon="10.0565655"><ele>633.0</ele><time>2026-04-04T11:42:22.719Z</time></trkpt><trkpt lat="44.1217829" lon="10.0563113"><ele>633.0</ele><time>2026-04-04T11:42:23.715Z</time></trkpt><trkpt lat="44.1217337" lon="10.055944"><ele>633.0</ele><time>2026-04-04T11:42:24.718Z</time></trkpt><trkpt lat="44.1216814" lon="10.0555644"><ele>632.0</ele><time>2026-04-04T11:42:25.716Z</time></trkpt><trkpt lat="44.1216207" lon="10.055221"><ele>631.0</ele><time>2026-04-04T11:42:26.721Z</time></trkpt><trkpt lat="44.1215856" lon="10.0549133"><ele>630.6666666666667</ele><time>2026-04-04T11:42:27.729Z</time></trkpt><trkpt lat="44.1215721" lon="10.0546442"><ele>630.3333333333334</ele><time>2026-04-04T11:42:28.734Z</time></trkpt><trkpt lat="44.1215768" lon="10.0543866"><ele>630.0</ele><time>2026-04-04T11:42:29.757Z</time></trkpt><trkpt lat="44.1215864" lon="10.0541513"><ele>632.6666666666666</ele><time>2026-04-04T11:42:30.768Z</time></trkpt><trkpt lat="44.1216023" lon="10.0539415"><ele>635.3333333333333</ele><time>2026-04-04T11:42:31.727Z</time></trkpt><trkpt lat="44.1216355" lon="10.053751"><ele>638.0</ele><time>2026-04-04T11:42:32.729Z</time></trkpt><trkpt lat="44.1217253" lon="10.0535278"><ele>638.0</ele><time>2026-04-04T11:42:33.724Z</time></trkpt><trkpt lat="44.1218608" lon="10.0533246"><ele>638.0</ele><time>2026-04-04T11:42:34.732Z</time></trkpt><trkpt lat="44.1219843" lon="10.053154"><ele>638.0</ele><time>2026-04-04T11:42:35.721Z</time></trkpt><trkpt lat="44.1220764" lon="10.0530528"><ele>637.5</ele><time>2026-04-04T11:42:36.725Z</time></trkpt><trkpt lat="44.1221142" lon="10.0529508"><ele>637.0</ele><time>2026-04-04T11:42:37.725Z</time></trkpt><trkpt lat="44.122086" lon="10.0528417"><ele>636.5</ele><time>2026-04-04T11:42:38.717Z</time></trkpt><trkpt lat="44.1219963" lon="10.0527497"><ele>636.0</ele><time>2026-04-04T11:42:39.723Z</time></trkpt><trkpt lat="44.1218178" lon="10.0526234"><ele>636.0</ele><time>2026-04-04T11:42:40.723Z</time></trkpt><trkpt lat="44.1216364" lon="10.052461"><ele>636.0</ele><time>2026-04-04T11:42:41.723Z</time></trkpt><trkpt lat="44.1213996" lon="10.0523147"><ele>630.0</ele><time>2026-04-04T11:42:42.714Z</time></trkpt><trkpt lat="44.121128" lon="10.052198"><ele>624.0</ele><time>2026-04-04T11:42:43.723Z</time></trkpt><trkpt lat="44.120852" lon="10.0520571"><ele>624.0</ele><time>2026-04-04T11:42:44.736Z</time></trkpt><trkpt lat="44.1206187" lon="10.0519089"><ele>624.0</ele><time>2026-04-04T11:42:45.742Z</time></trkpt><trkpt lat="44.1204458" lon="10.0517551"><ele>621.0</ele><time>2026-04-04T11:42:46.726Z</time></trkpt><trkpt lat="44.1203105" lon="10.051524"><ele>618.0</ele><time>2026-04-04T11:42:47.731Z</time></trkpt><trkpt lat="44.1201897" lon="10.0512939"><ele>615.0</ele><time>2026-04-04T11:42:48.717Z</time></trkpt><trkpt lat="44.12007" lon="10.0510818"><ele>615.0</ele><time>2026-04-04T11:42:49.73Z</time></trkpt><trkpt lat="44.1199153" lon="10.0509189"><ele>615.0</ele><time>2026-04-04T11:42:50.732Z</time></trkpt><trkpt lat="44.1197512" lon="10.0507802"><ele>615.0</ele><time>2026-04-04T11:42:51.725Z</time></trkpt><trkpt lat="44.119623" lon="10.0506266"><ele>616.6666666666666</ele><time>2026-04-04T11:42:52.727Z</time></trkpt><trkpt lat="44.1195466" lon="10.0504404"><ele>618.3333333333333</ele><time>2026-04-04T11:42:53.731Z</time></trkpt><trkpt lat="44.1194939" lon="10.0502048"><ele>620.0</ele><time>2026-04-04T11:42:54.72Z</time></trkpt><trkpt lat="44.1194309" lon="10.0499431"><ele>617.6666666666666</ele><time>2026-04-04T11:42:55.714Z</time></trkpt><trkpt lat="44.1193472" lon="10.0497458"><ele>615.3333333333334</ele><time>2026-04-04T11:42:56.717Z</time></trkpt><trkpt lat="44.1191975" lon="10.0496367"><ele>613.0</ele><time>2026-04-04T11:42:57.727Z</time></trkpt><trkpt lat="44.1189943" lon="10.0495698"><ele>613.0</ele><time>2026-04-04T11:42:58.717Z</time></trkpt><trkpt lat="44.1187264" lon="10.0495581"><ele>613.0</ele><time>2026-04-04T11:42:59.732Z</time></trkpt><trkpt lat="44.1184462" lon="10.0494649"><ele>621.5</ele><time>2026-04-04T11:43:00.73Z</time></trkpt><trkpt lat="44.1182022" lon="10.0493861"><ele>630.0</ele><time>2026-04-04T11:43:01.717Z</time></trkpt><trkpt lat="44.1179827" lon="10.0493043"><ele>630.0</ele><time>2026-04-04T11:43:02.717Z</time></trkpt><trkpt lat="44.1177801" lon="10.0491669"><ele>630.0</ele><time>2026-04-04T11:43:03.715Z</time></trkpt><trkpt lat="44.1175788" lon="10.0489294"><ele>630.0</ele><time>2026-04-04T11:43:04.72Z</time></trkpt><trkpt lat="44.1173677" lon="10.0486285"><ele>630.0</ele><time>2026-04-04T11:43:05.714Z</time></trkpt><trkpt lat="44.1171598" lon="10.0483512"><ele>632.0</ele><time>2026-04-04T11:43:06.72Z</time></trkpt><trkpt lat="44.1169677" lon="10.0481027"><ele>634.0</ele><time>2026-04-04T11:43:07.719Z</time></trkpt><trkpt lat="44.1168069" lon="10.0478824"><ele>634.0</ele><time>2026-04-04T11:43:08.72Z</time></trkpt><trkpt lat="44.1166788" lon="10.0476773"><ele>634.0</ele><time>2026-04-04T11:43:09.72Z</time></trkpt><trkpt lat="44.1165814" lon="10.0474692"><ele>634.0</ele><time>2026-04-04T11:43:10.72Z</time></trkpt><trkpt lat="44.1165427" lon="10.0472494"><ele>642.0</ele><time>2026-04-04T11:43:11.723Z</time></trkpt><trkpt lat="44.1165339" lon="10.0470097"><ele>650.0</ele><time>2026-04-04T11:43:12.725Z</time></trkpt><trkpt lat="44.1165566" lon="10.0467366"><ele>658.0</ele><time>2026-04-04T11:43:13.71Z</time></trkpt><trkpt lat="44.1165908" lon="10.0464875"><ele>658.0</ele><time>2026-04-04T11:43:14.716Z</time></trkpt><trkpt lat="44.1166409" lon="10.0463198"><ele>658.0</ele><time>2026-04-04T11:43:15.711Z</time></trkpt><trkpt lat="44.116719" lon="10.046223"><ele>658.0</ele><time>2026-04-04T11:43:16.704Z</time></trkpt><trkpt lat="44.116835" lon="10.0461519"><ele>658.0</ele><time>2026-04-04T11:43:17.711Z</time></trkpt><trkpt lat="44.1169546" lon="10.0461064"><ele>658.0</ele><time>2026-04-04T11:43:18.711Z</time></trkpt><trkpt lat="44.1170763" lon="10.0460154"><ele>658.0</ele><time>2026-04-04T11:43:19.704Z</time></trkpt><trkpt lat="44.1171302" lon="10.045903"><ele>658.0</ele><time>2026-04-04T11:43:20.701Z</time></trkpt><trkpt lat="44.1171037" lon="10.0457308"><ele>658.0</ele><time>2026-04-04T11:43:21.715Z</time></trkpt><trkpt lat="44.1170595" lon="10.0455043"><ele>659.0</ele><time>2026-04-04T11:43:22.705Z</time></trkpt><trkpt lat="44.1170368" lon="10.0451701"><ele>660.0</ele><time>2026-04-04T11:43:23.701Z</time></trkpt><trkpt lat="44.1170496" lon="10.0448725"><ele>653.6666666666666</ele><time>2026-04-04T11:43:24.708Z</time></trkpt><trkpt lat="44.1171306" lon="10.0446139"><ele>647.3333333333333</ele><time>2026-04-04T11:43:25.703Z</time></trkpt><trkpt lat="44.1172354" lon="10.0443739"><ele>641.0</ele><time>2026-04-04T11:43:26.704Z</time></trkpt><trkpt lat="44.1173629" lon="10.0441418"><ele>647.0</ele><time>2026-04-04T11:43:27.71Z</time></trkpt><trkpt lat="44.1175189" lon="10.0439427"><ele>653.0</ele><time>2026-04-04T11:43:28.712Z</time></trkpt><trkpt lat="44.1176718" lon="10.0437589"><ele>659.0</ele><time>2026-04-04T11:43:29.705Z</time></trkpt><trkpt lat="44.117827" lon="10.0436643"><ele>659.0</ele><time>2026-04-04T11:43:30.731Z</time></trkpt><trkpt lat="44.117936" lon="10.0436524"><ele>659.0</ele><time>2026-04-04T11:43:31.707Z</time></trkpt><trkpt lat="44.118035" lon="10.0437072"><ele>659.0</ele><time>2026-04-04T11:43:32.701Z</time></trkpt><trkpt lat="44.1181133" lon="10.043816"><ele>659.0</ele><time>2026-04-04T11:43:33.715Z</time></trkpt><trkpt lat="44.118191" lon="10.0438988"><ele>659.0</ele><time>2026-04-04T11:43:34.702Z</time></trkpt><trkpt lat="44.1182858" lon="10.0439322"><ele>659.4000000000001</ele><time>2026-04-04T11:43:35.705Z</time></trkpt><trkpt lat="44.1183903" lon="10.0439394"><ele>659.8</ele><time>2026-04-04T11:43:36.705Z</time></trkpt><trkpt lat="44.1185031" lon="10.0438826"><ele>660.2</ele><time>2026-04-04T11:43:37.697Z</time></trkpt><trkpt lat="44.1185837" lon="10.0438012"><ele>660.5999999999999</ele><time>2026-04-04T11:43:38.71Z</time></trkpt><trkpt lat="44.1186377" lon="10.0437157"><ele>661.0</ele><time>2026-04-04T11:43:39.7Z</time></trkpt><trkpt lat="44.1186808" lon="10.0435979"><ele>661.0</ele><time>2026-04-04T11:43:41.706Z</time></trkpt><trkpt lat="44.1187024" lon="10.0434818"><ele>661.0</ele><time>2026-04-04T11:43:56.707Z</time></trkpt><trkpt lat="44.1187363" lon="10.0433867"><ele>661.0</ele><time>2026-04-04T11:43:57.721Z</time></trkpt><trkpt lat="44.1187972" lon="10.043273"><ele>661.0</ele><time>2026-04-04T11:43:58.718Z</time></trkpt><trkpt lat="44.1188933" lon="10.0431757"><ele>661.0</ele><time>2026-04-04T11:43:59.723Z</time></trkpt><trkpt lat="44.1190165" lon="10.0431465"><ele>659.3333333333334</ele><time>2026-04-04T11:44:00.737Z</time></trkpt><trkpt lat="44.1191909" lon="10.0430941"><ele>657.6666666666666</ele><time>2026-04-04T11:44:01.713Z</time></trkpt><trkpt lat="44.1193816" lon="10.0430083"><ele>656.0</ele><time>2026-04-04T11:44:02.693Z</time></trkpt><trkpt lat="44.1195692" lon="10.042923"><ele>656.0</ele><time>2026-04-04T11:44:03.69Z</time></trkpt><trkpt lat="44.1197226" lon="10.0428516"><ele>656.0</ele><time>2026-04-04T11:44:04.777Z</time></trkpt><trkpt lat="44.1198636" lon="10.0427992"><ele>656.0</ele><time>2026-04-04T11:44:05.728Z</time></trkpt><trkpt lat="44.1199854" lon="10.042726"><ele>656.0</ele><time>2026-04-04T11:44:06.709Z</time></trkpt><trkpt lat="44.1200825" lon="10.0425833"><ele>650.3333333333333</ele><time>2026-04-04T11:44:07.698Z</time></trkpt><trkpt lat="44.1201748" lon="10.0423671"><ele>644.6666666666666</ele><time>2026-04-04T11:44:08.706Z</time></trkpt><trkpt lat="44.1202683" lon="10.0421584"><ele>639.0</ele><time>2026-04-04T11:44:09.711Z</time></trkpt><trkpt lat="44.1203751" lon="10.0419696"><ele>639.0</ele><time>2026-04-04T11:44:10.702Z</time></trkpt><trkpt lat="44.1204864" lon="10.0418178"><ele>639.0</ele><time>2026-04-04T11:44:11.72Z</time></trkpt><trkpt lat="44.1205932" lon="10.0416955"><ele>639.0</ele><time>2026-04-04T11:44:12.715Z</time></trkpt><trkpt lat="44.1207202" lon="10.0416064"><ele>639.0</ele><time>2026-04-04T11:44:13.718Z</time></trkpt><trkpt lat="44.1208689" lon="10.0415187"><ele>631.3333333333334</ele><time>2026-04-04T11:44:14.719Z</time></trkpt><trkpt lat="44.1210261" lon="10.0414481"><ele>623.6666666666667</ele><time>2026-04-04T11:44:15.724Z</time></trkpt><trkpt lat="44.1211714" lon="10.0413594"><ele>616.0</ele><time>2026-04-04T11:44:16.715Z</time></trkpt><trkpt lat="44.1213283" lon="10.041265"><ele>616.0</ele><time>2026-04-04T11:44:17.72Z</time></trkpt><trkpt lat="44.1214748" lon="10.0411879"><ele>616.0</ele><time>2026-04-04T11:44:18.728Z</time></trkpt><trkpt lat="44.1216229" lon="10.04111"><ele>616.0</ele><time>2026-04-04T11:44:19.723Z</time></trkpt><trkpt lat="44.1217702" lon="10.0410338"><ele>616.0</ele><time>2026-04-04T11:44:20.723Z</time></trkpt><trkpt lat="44.1219122" lon="10.0409421"><ele>616.0</ele><time>2026-04-04T11:44:21.721Z</time></trkpt><trkpt lat="44.1220579" lon="10.0408727"><ele>616.0</ele><time>2026-04-04T11:44:22.885Z</time></trkpt><trkpt lat="44.1221923" lon="10.0407723"><ele>616.0</ele><time>2026-04-04T11:44:23.746Z</time></trkpt><trkpt lat="44.1223108" lon="10.0406624"><ele>616.0</ele><time>2026-04-04T11:44:24.712Z</time></trkpt><trkpt lat="44.1224262" lon="10.0405098"><ele>616.0</ele><time>2026-04-04T11:44:25.73Z</time></trkpt><trkpt lat="44.1225259" lon="10.0403434"><ele>619.6666666666667</ele><time>2026-04-04T11:44:26.728Z</time></trkpt><trkpt lat="44.1226323" lon="10.0401798"><ele>623.3333333333334</ele><time>2026-04-04T11:44:27.727Z</time></trkpt><trkpt lat="44.1227403" lon="10.0400259"><ele>627.0</ele><time>2026-04-04T11:44:28.732Z</time></trkpt><trkpt lat="44.122849" lon="10.0398593"><ele>627.0</ele><time>2026-04-04T11:44:29.737Z</time></trkpt><trkpt lat="44.122961" lon="10.0397017"><ele>627.0</ele><time>2026-04-04T11:44:30.724Z</time></trkpt><trkpt lat="44.123072" lon="10.0395367"><ele>627.0</ele><time>2026-04-04T11:44:31.73Z</time></trkpt><trkpt lat="44.1231617" lon="10.0393402"><ele>630.3333333333334</ele><time>2026-04-04T11:44:32.742Z</time></trkpt><trkpt lat="44.1232415" lon="10.039138"><ele>633.6666666666667</ele><time>2026-04-04T11:44:33.718Z</time></trkpt><trkpt lat="44.1233296" lon="10.0389586"><ele>637.0</ele><time>2026-04-04T11:44:34.725Z</time></trkpt><trkpt lat="44.123433" lon="10.0387975"><ele>637.0</ele><time>2026-04-04T11:44:35.735Z</time></trkpt><trkpt lat="44.1235304" lon="10.0386529"><ele>637.0</ele><time>2026-04-04T11:44:36.724Z</time></trkpt><trkpt lat="44.1236098" lon="10.0385199"><ele>637.0</ele><time>2026-04-04T11:44:37.737Z</time></trkpt><trkpt lat="44.1236517" lon="10.0383522"><ele>637.0</ele><time>2026-04-04T11:44:38.734Z</time></trkpt><trkpt lat="44.1236398" lon="10.0381211"><ele>633.0</ele><time>2026-04-04T11:44:39.727Z</time></trkpt><trkpt lat="44.1236139" lon="10.0378749"><ele>629.0</ele><time>2026-04-04T11:44:40.728Z</time></trkpt><trkpt lat="44.1236116" lon="10.0376529"><ele>625.0</ele><time>2026-04-04T11:44:41.727Z</time></trkpt><trkpt lat="44.12362" lon="10.0374638"><ele>620.25</ele><time>2026-04-04T11:44:42.732Z</time></trkpt><trkpt lat="44.1236446" lon="10.0373141"><ele>615.5</ele><time>2026-04-04T11:44:43.733Z</time></trkpt><trkpt lat="44.1236968" lon="10.0372181"><ele>610.75</ele><time>2026-04-04T11:44:44.737Z</time></trkpt><trkpt lat="44.1238298" lon="10.0372424"><ele>606.0</ele><time>2026-04-04T11:44:45.73Z</time></trkpt><trkpt lat="44.1239824" lon="10.0372849"><ele>607.5</ele><time>2026-04-04T11:44:46.73Z</time></trkpt><trkpt lat="44.1241227" lon="10.0373604"><ele>609.0</ele><time>2026-04-04T11:44:47.725Z</time></trkpt><trkpt lat="44.1242629" lon="10.0374148"><ele>610.5</ele><time>2026-04-04T11:44:48.728Z</time></trkpt><trkpt lat="44.1244112" lon="10.0374626"><ele>612.0</ele><time>2026-04-04T11:44:49.733Z</time></trkpt><trkpt lat="44.1245541" lon="10.0374794"><ele>612.0</ele><time>2026-04-04T11:44:50.711Z</time></trkpt><trkpt lat="44.1246917" lon="10.0374647"><ele>612.0</ele><time>2026-04-04T11:44:51.724Z</time></trkpt><trkpt lat="44.1248545" lon="10.0374276"><ele>612.0</ele><time>2026-04-04T11:44:52.724Z</time></trkpt><trkpt lat="44.1250007" lon="10.037368"><ele>615.0</ele><time>2026-04-04T11:44:53.716Z</time></trkpt><trkpt lat="44.125144" lon="10.0372692"><ele>618.0</ele><time>2026-04-04T11:44:54.716Z</time></trkpt><trkpt lat="44.1252766" lon="10.0371439"><ele>621.0</ele><time>2026-04-04T11:44:55.716Z</time></trkpt><trkpt lat="44.1254183" lon="10.0369892"><ele>621.0</ele><time>2026-04-04T11:44:56.725Z</time></trkpt><trkpt lat="44.1255429" lon="10.0368186"><ele>621.0</ele><time>2026-04-04T11:44:57.731Z</time></trkpt><trkpt lat="44.1256218" lon="10.036657"><ele>621.0</ele><time>2026-04-04T11:44:58.72Z</time></trkpt><trkpt lat="44.1256492" lon="10.0364558"><ele>614.6666666666666</ele><time>2026-04-04T11:44:59.723Z</time></trkpt><trkpt lat="44.1256066" lon="10.0362254"><ele>608.3333333333333</ele><time>2026-04-04T11:45:00.735Z</time></trkpt><trkpt lat="44.1255687" lon="10.0360009"><ele>602.0</ele><time>2026-04-04T11:45:01.72Z</time></trkpt><trkpt lat="44.1255573" lon="10.0357663"><ele>605.5</ele><time>2026-04-04T11:45:02.724Z</time></trkpt><trkpt lat="44.1256144" lon="10.0355712"><ele>609.0</ele><time>2026-04-04T11:45:03.741Z</time></trkpt><trkpt lat="44.1256953" lon="10.0353872"><ele>612.5</ele><time>2026-04-04T11:45:04.721Z</time></trkpt><trkpt lat="44.1257923" lon="10.0352465"><ele>616.0</ele><time>2026-04-04T11:45:05.717Z</time></trkpt><trkpt lat="44.1259156" lon="10.0351826"><ele>616.0</ele><time>2026-04-04T11:45:06.72Z</time></trkpt><trkpt lat="44.1260193" lon="10.0351586"><ele>616.0</ele><time>2026-04-04T11:45:07.704Z</time></trkpt><trkpt lat="44.1261649" lon="10.0352069"><ele>616.0</ele><time>2026-04-04T11:45:08.705Z</time></trkpt><trkpt lat="44.1263019" lon="10.0353328"><ele>616.0</ele><time>2026-04-04T11:45:09.706Z</time></trkpt><trkpt lat="44.1264338" lon="10.0355036"><ele>614.3333333333334</ele><time>2026-04-04T11:45:10.693Z</time></trkpt><trkpt lat="44.1265966" lon="10.0357112"><ele>612.6666666666666</ele><time>2026-04-04T11:45:11.706Z</time></trkpt><trkpt lat="44.126756" lon="10.0358961"><ele>611.0</ele><time>2026-04-04T11:45:12.707Z</time></trkpt><trkpt lat="44.1269343" lon="10.0360195"><ele>620.3333333333333</ele><time>2026-04-04T11:45:13.703Z</time></trkpt><trkpt lat="44.1271003" lon="10.0361268"><ele>629.6666666666666</ele><time>2026-04-04T11:45:14.712Z</time></trkpt><trkpt lat="44.1272362" lon="10.0362583"><ele>639.0</ele><time>2026-04-04T11:45:15.694Z</time></trkpt><trkpt lat="44.1273641" lon="10.0363938"><ele>632.6666666666666</ele><time>2026-04-04T11:45:16.869Z</time></trkpt><trkpt lat="44.1275974" lon="10.0364804"><ele>626.3333333333333</ele><time>2026-04-04T11:45:18.706Z</time></trkpt><trkpt lat="44.1277967" lon="10.036431"><ele>620.0</ele><time>2026-04-04T11:45:19.731Z</time></trkpt><trkpt lat="44.1280014" lon="10.0363748"><ele>620.0</ele><time>2026-04-04T11:45:20.703Z</time></trkpt><trkpt lat="44.1281981" lon="10.0362986"><ele>620.0</ele><time>2026-04-04T11:45:21.714Z</time></trkpt><trkpt lat="44.1284282" lon="10.0361716"><ele>620.3333333333333</ele><time>2026-04-04T11:45:22.704Z</time></trkpt><trkpt lat="44.1286281" lon="10.036037"><ele>620.6666666666666</ele><time>2026-04-04T11:45:23.716Z</time></trkpt><trkpt lat="44.1288256" lon="10.035909"><ele>621.0</ele><time>2026-04-04T11:45:24.704Z</time></trkpt><trkpt lat="44.1290075" lon="10.0357772"><ele>613.0</ele><time>2026-04-04T11:45:25.714Z</time></trkpt><trkpt lat="44.1291843" lon="10.0356537"><ele>605.0</ele><time>2026-04-04T11:45:26.709Z</time></trkpt><trkpt lat="44.1293696" lon="10.0355147"><ele>597.0</ele><time>2026-04-04T11:45:27.721Z</time></trkpt><trkpt lat="44.1295553" lon="10.035375"><ele>597.0</ele><time>2026-04-04T11:45:28.718Z</time></trkpt><trkpt lat="44.1297214" lon="10.0352213"><ele>597.0</ele><time>2026-04-04T11:45:29.709Z</time></trkpt><trkpt lat="44.1298809" lon="10.0350886"><ele>597.0</ele><time>2026-04-04T11:45:30.729Z</time></trkpt><trkpt lat="44.1300011" lon="10.0349775"><ele>602.25</ele><time>2026-04-04T11:45:31.714Z</time></trkpt><trkpt lat="44.130075" lon="10.0348779"><ele>607.5</ele><time>2026-04-04T11:45:32.722Z</time></trkpt><trkpt lat="44.1300997" lon="10.0347337"><ele>612.75</ele><time>2026-04-04T11:45:33.716Z</time></trkpt><trkpt lat="44.1300808" lon="10.0345473"><ele>618.0</ele><time>2026-04-04T11:45:34.763Z</time></trkpt><trkpt lat="44.1300476" lon="10.0343247"><ele>614.6666666666666</ele><time>2026-04-04T11:45:35.746Z</time></trkpt><trkpt lat="44.1300263" lon="10.0340934"><ele>611.3333333333333</ele><time>2026-04-04T11:45:36.73Z</time></trkpt><trkpt lat="44.1300262" lon="10.0338758"><ele>608.0</ele><time>2026-04-04T11:45:37.723Z</time></trkpt><trkpt lat="44.1300616" lon="10.0336818"><ele>608.0</ele><time>2026-04-04T11:45:38.724Z</time></trkpt><trkpt lat="44.1301603" lon="10.0334997"><ele>608.0</ele><time>2026-04-04T11:45:39.713Z</time></trkpt><trkpt lat="44.1302607" lon="10.0333258"><ele>608.0</ele><time>2026-04-04T11:45:40.725Z</time></trkpt><trkpt lat="44.130349" lon="10.033149"><ele>604.1999999999999</ele><time>2026-04-04T11:45:41.721Z</time></trkpt><trkpt lat="44.1303881" lon="10.032955"><ele>600.4</ele><time>2026-04-04T11:45:42.719Z</time></trkpt><trkpt lat="44.1304209" lon="10.0328022"><ele>596.5999999999999</ele><time>2026-04-04T11:45:43.719Z</time></trkpt><trkpt lat="44.1304458" lon="10.0326768"><ele>592.8</ele><time>2026-04-04T11:45:44.732Z</time></trkpt><trkpt lat="44.1305097" lon="10.0326276"><ele>589.0</ele><time>2026-04-04T11:45:45.719Z</time></trkpt><trkpt lat="44.1306139" lon="10.0326371"><ele>591.75</ele><time>2026-04-04T11:45:46.723Z</time></trkpt><trkpt lat="44.1307269" lon="10.0326521"><ele>594.5</ele><time>2026-04-04T11:45:47.716Z</time></trkpt><trkpt lat="44.1308381" lon="10.0326709"><ele>597.25</ele><time>2026-04-04T11:45:48.726Z</time></trkpt><trkpt lat="44.1309656" lon="10.0327034"><ele>600.0</ele><time>2026-04-04T11:45:49.711Z</time></trkpt><trkpt lat="44.1311029" lon="10.0327684"><ele>600.0</ele><time>2026-04-04T11:45:50.716Z</time></trkpt><trkpt lat="44.1312342" lon="10.0328603"><ele>600.0</ele><time>2026-04-04T11:45:51.705Z</time></trkpt><trkpt lat="44.1313636" lon="10.032974"><ele>600.0</ele><time>2026-04-04T11:45:52.713Z</time></trkpt><trkpt lat="44.1314665" lon="10.0330853"><ele>600.0</ele><time>2026-04-04T11:45:53.737Z</time></trkpt><trkpt lat="44.1315739" lon="10.0331387"><ele>595.6666666666666</ele><time>2026-04-04T11:45:54.709Z</time></trkpt><trkpt lat="44.1317147" lon="10.0330888"><ele>591.3333333333333</ele><time>2026-04-04T11:45:55.716Z</time></trkpt><trkpt lat="44.1318818" lon="10.0329817"><ele>587.0</ele><time>2026-04-04T11:45:56.709Z</time></trkpt><trkpt lat="44.132034" lon="10.0328872"><ele>587.0</ele><time>2026-04-04T11:45:57.713Z</time></trkpt><trkpt lat="44.13216" lon="10.0328215"><ele>587.0</ele><time>2026-04-04T11:45:58.715Z</time></trkpt><trkpt lat="44.132291" lon="10.0328082"><ele>587.0</ele><time>2026-04-04T11:45:59.708Z</time></trkpt><trkpt lat="44.1324219" lon="10.0328209"><ele>587.0</ele><time>2026-04-04T11:46:00.718Z</time></trkpt><trkpt lat="44.1325513" lon="10.0328252"><ele>589.5</ele><time>2026-04-04T11:46:01.73Z</time></trkpt><trkpt lat="44.1326625" lon="10.0328085"><ele>592.0</ele><time>2026-04-04T11:46:02.744Z</time></trkpt><trkpt lat="44.1327536" lon="10.032741"><ele>594.5</ele><time>2026-04-04T11:46:03.717Z</time></trkpt><trkpt lat="44.132805" lon="10.0326063"><ele>597.0</ele><time>2026-04-04T11:46:04.717Z</time></trkpt><trkpt lat="44.1328412" lon="10.0324157"><ele>591.6</ele><time>2026-04-04T11:46:05.727Z</time></trkpt><trkpt lat="44.1328584" lon="10.0322366"><ele>586.2</ele><time>2026-04-04T11:46:06.718Z</time></trkpt><trkpt lat="44.1328838" lon="10.0320905"><ele>580.8</ele><time>2026-04-04T11:46:07.727Z</time></trkpt><trkpt lat="44.1329224" lon="10.0319997"><ele>575.4</ele><time>2026-04-04T11:46:08.721Z</time></trkpt><trkpt lat="44.1329824" lon="10.0319561"><ele>570.0</ele><time>2026-04-04T11:46:09.721Z</time></trkpt><trkpt lat="44.1330681" lon="10.0319399"><ele>570.0</ele><time>2026-04-04T11:46:10.721Z</time></trkpt><trkpt lat="44.1331679" lon="10.031943"><ele>570.0</ele><time>2026-04-04T11:46:11.724Z</time></trkpt><trkpt lat="44.1332667" lon="10.0319959"><ele>570.0</ele><time>2026-04-04T11:46:12.74Z</time></trkpt><trkpt lat="44.1333431" lon="10.0320941"><ele>570.0</ele><time>2026-04-04T11:46:13.746Z</time></trkpt><trkpt lat="44.133395" lon="10.0322391"><ele>570.0</ele><time>2026-04-04T11:46:14.722Z</time></trkpt><trkpt lat="44.133427" lon="10.0324062"><ele>577.2</ele><time>2026-04-04T11:46:15.698Z</time></trkpt><trkpt lat="44.1334648" lon="10.0325749"><ele>584.4</ele><time>2026-04-04T11:46:16.714Z</time></trkpt><trkpt lat="44.1335084" lon="10.0327024"><ele>591.6</ele><time>2026-04-04T11:46:17.71Z</time></trkpt><trkpt lat="44.1335597" lon="10.0327734"><ele>598.8</ele><time>2026-04-04T11:46:18.698Z</time></trkpt><trkpt lat="44.1336919" lon="10.0326831"><ele>606.0</ele><time>2026-04-04T11:46:20.709Z</time></trkpt><trkpt lat="44.1337935" lon="10.0325345"><ele>596.0</ele><time>2026-04-04T11:46:21.718Z</time></trkpt><trkpt lat="44.1339069" lon="10.0323672"><ele>586.0</ele><time>2026-04-04T11:46:22.719Z</time></trkpt><trkpt lat="44.134028" lon="10.0321838"><ele>576.0</ele><time>2026-04-04T11:46:23.724Z</time></trkpt><trkpt lat="44.1341571" lon="10.0320205"><ele>574.75</ele><time>2026-04-04T11:46:24.721Z</time></trkpt><trkpt lat="44.1342725" lon="10.0318862"><ele>573.5</ele><time>2026-04-04T11:46:25.723Z</time></trkpt><trkpt lat="44.134386" lon="10.0317931"><ele>572.25</ele><time>2026-04-04T11:46:26.725Z</time></trkpt><trkpt lat="44.1345124" lon="10.0317385"><ele>571.0</ele><time>2026-04-04T11:46:27.721Z</time></trkpt><trkpt lat="44.1346661" lon="10.0317198"><ele>571.0</ele><time>2026-04-04T11:46:28.72Z</time></trkpt><trkpt lat="44.1348278" lon="10.0316779"><ele>571.0</ele><time>2026-04-04T11:46:29.718Z</time></trkpt><trkpt lat="44.1349794" lon="10.0316264"><ele>571.0</ele><time>2026-04-04T11:46:30.726Z</time></trkpt><trkpt lat="44.1351231" lon="10.0315645"><ele>564.5</ele><time>2026-04-04T11:46:31.725Z</time></trkpt><trkpt lat="44.1352577" lon="10.0315468"><ele>558.0</ele><time>2026-04-04T11:46:32.727Z</time></trkpt><trkpt lat="44.1353833" lon="10.0315703"><ele>551.5</ele><time>2026-04-04T11:46:33.74Z</time></trkpt><trkpt lat="44.1355099" lon="10.0315959"><ele>545.0</ele><time>2026-04-04T11:46:34.728Z</time></trkpt><trkpt lat="44.1356213" lon="10.0315791"><ele>552.75</ele><time>2026-04-04T11:46:35.718Z</time></trkpt><trkpt lat="44.1357248" lon="10.0315172"><ele>560.5</ele><time>2026-04-04T11:46:36.736Z</time></trkpt><trkpt lat="44.135785" lon="10.0313651"><ele>568.25</ele><time>2026-04-04T11:46:37.719Z</time></trkpt><trkpt lat="44.1358208" lon="10.0311877"><ele>576.0</ele><time>2026-04-04T11:46:38.725Z</time></trkpt><trkpt lat="44.1357893" lon="10.0309146"><ele>571.3333333333334</ele><time>2026-04-04T11:46:39.723Z</time></trkpt><trkpt lat="44.1357586" lon="10.030627"><ele>566.6666666666667</ele><time>2026-04-04T11:46:40.719Z</time></trkpt><trkpt lat="44.1357556" lon="10.0303646"><ele>562.0</ele><time>2026-04-04T11:46:41.722Z</time></trkpt><trkpt lat="44.1357665" lon="10.0301435"><ele>562.0</ele><time>2026-04-04T11:46:42.713Z</time></trkpt><trkpt lat="44.1357747" lon="10.029978"><ele>562.0</ele><time>2026-04-04T11:46:43.728Z</time></trkpt><trkpt lat="44.1357968" lon="10.0298732"><ele>562.0</ele><time>2026-04-04T11:46:44.734Z</time></trkpt><trkpt lat="44.1359007" lon="10.02983"><ele>562.0</ele><time>2026-04-04T11:46:46.718Z</time></trkpt><trkpt lat="44.1359582" lon="10.0299318"><ele>562.0</ele><time>2026-04-04T11:46:47.747Z</time></trkpt><trkpt lat="44.1359944" lon="10.0300533"><ele>562.0</ele><time>2026-04-04T11:46:48.713Z</time></trkpt><trkpt lat="44.1360383" lon="10.0301867"><ele>562.0</ele><time>2026-04-04T11:46:49.717Z</time></trkpt><trkpt lat="44.1360902" lon="10.0303293"><ele>562.0</ele><time>2026-04-04T11:46:50.712Z</time></trkpt><trkpt lat="44.1361879" lon="10.0304827"><ele>562.0</ele><time>2026-04-04T11:46:51.712Z</time></trkpt><trkpt lat="44.1362887" lon="10.03063"><ele>562.0</ele><time>2026-04-04T11:46:52.696Z</time></trkpt><trkpt lat="44.1363713" lon="10.0307538"><ele>562.0</ele><time>2026-04-04T11:46:53.704Z</time></trkpt><trkpt lat="44.1364404" lon="10.0308453"><ele>562.0</ele><time>2026-04-04T11:46:54.71Z</time></trkpt><trkpt lat="44.1365206" lon="10.0308938"><ele>562.0</ele><time>2026-04-04T11:46:55.722Z</time></trkpt><trkpt lat="44.1366141" lon="10.030871"><ele>562.0</ele><time>2026-04-04T11:46:56.715Z</time></trkpt><trkpt lat="44.1367291" lon="10.0307847"><ele>559.3333333333334</ele><time>2026-04-04T11:46:57.72Z</time></trkpt><trkpt lat="44.1368599" lon="10.0306721"><ele>556.6666666666666</ele><time>2026-04-04T11:46:58.712Z</time></trkpt><trkpt lat="44.137004" lon="10.0305576"><ele>554.0</ele><time>2026-04-04T11:46:59.732Z</time></trkpt><trkpt lat="44.1371579" lon="10.0304418"><ele>554.0</ele><time>2026-04-04T11:47:00.739Z</time></trkpt><trkpt lat="44.1372988" lon="10.0303391"><ele>554.0</ele><time>2026-04-04T11:47:01.739Z</time></trkpt><trkpt lat="44.137414" lon="10.0302645"><ele>554.0</ele><time>2026-04-04T11:47:02.712Z</time></trkpt><trkpt lat="44.1375184" lon="10.0301708"><ele>554.0</ele><time>2026-04-04T11:47:03.72Z</time></trkpt><trkpt lat="44.1376011" lon="10.0300611"><ele>548.0</ele><time>2026-04-04T11:47:04.722Z</time></trkpt><trkpt lat="44.1376858" lon="10.0299378"><ele>542.0</ele><time>2026-04-04T11:47:05.73Z</time></trkpt><trkpt lat="44.1377661" lon="10.0298065"><ele>536.0</ele><time>2026-04-04T11:47:06.713Z</time></trkpt><trkpt lat="44.1378421" lon="10.0296849"><ele>530.0</ele><time>2026-04-04T11:47:07.734Z</time></trkpt><trkpt lat="44.1379226" lon="10.0295686"><ele>530.0</ele><time>2026-04-04T11:47:08.723Z</time></trkpt><trkpt lat="44.1380039" lon="10.0294545"><ele>530.0</ele><time>2026-04-04T11:47:09.721Z</time></trkpt><trkpt lat="44.1380795" lon="10.0293328"><ele>530.0</ele><time>2026-04-04T11:47:10.72Z</time></trkpt><trkpt lat="44.138163" lon="10.0292044"><ele>530.0</ele><time>2026-04-04T11:47:11.716Z</time></trkpt><trkpt lat="44.1382423" lon="10.0290711"><ele>533.2</ele><time>2026-04-04T11:47:12.721Z</time></trkpt><trkpt lat="44.1383179" lon="10.0289399"><ele>536.4</ele><time>2026-04-04T11:47:13.726Z</time></trkpt><trkpt lat="44.1383785" lon="10.0288054"><ele>539.6</ele><time>2026-04-04T11:47:14.726Z</time></trkpt><trkpt lat="44.1384315" lon="10.0286709"><ele>542.8</ele><time>2026-04-04T11:47:15.712Z</time></trkpt><trkpt lat="44.1384696" lon="10.028547"><ele>546.0</ele><time>2026-04-04T11:47:16.718Z</time></trkpt><trkpt lat="44.1384858" lon="10.0284291"><ele>542.8</ele><time>2026-04-04T11:47:17.716Z</time></trkpt><trkpt lat="44.1384883" lon="10.0283023"><ele>539.6</ele><time>2026-04-04T11:47:18.717Z</time></trkpt><trkpt lat="44.1384679" lon="10.0281726"><ele>536.4</ele><time>2026-04-04T11:47:19.718Z</time></trkpt><trkpt lat="44.1384613" lon="10.0280385"><ele>533.2</ele><time>2026-04-04T11:47:20.713Z</time></trkpt><trkpt lat="44.1384789" lon="10.0278986"><ele>530.0</ele><time>2026-04-04T11:47:21.728Z</time></trkpt><trkpt lat="44.1385209" lon="10.0277598"><ele>530.0</ele><time>2026-04-04T11:47:22.721Z</time></trkpt><trkpt lat="44.1385879" lon="10.0276391"><ele>530.0</ele><time>2026-04-04T11:47:23.715Z</time></trkpt><trkpt lat="44.1386532" lon="10.0275128"><ele>530.0</ele><time>2026-04-04T11:47:24.728Z</time></trkpt><trkpt lat="44.138701" lon="10.0273842"><ele>530.0</ele><time>2026-04-04T11:47:25.726Z</time></trkpt><trkpt lat="44.1387345" lon="10.0272604"><ele>530.0</ele><time>2026-04-04T11:47:26.708Z</time></trkpt><trkpt lat="44.1387541" lon="10.0271322"><ele>527.8</ele><time>2026-04-04T11:47:27.725Z</time></trkpt><trkpt lat="44.1387561" lon="10.0269925"><ele>525.6</ele><time>2026-04-04T11:47:28.723Z</time></trkpt><trkpt lat="44.1387604" lon="10.026859"><ele>523.4</ele><time>2026-04-04T11:47:29.707Z</time></trkpt><trkpt lat="44.1387512" lon="10.0267279"><ele>521.2</ele><time>2026-04-04T11:47:30.719Z</time></trkpt><trkpt lat="44.138732" lon="10.0265968"><ele>519.0</ele><time>2026-04-04T11:47:31.723Z</time></trkpt><trkpt lat="44.1387217" lon="10.0264795"><ele>517.8</ele><time>2026-04-04T11:47:32.715Z</time></trkpt><trkpt lat="44.1387282" lon="10.0263631"><ele>516.5999999999999</ele><time>2026-04-04T11:47:33.725Z</time></trkpt><trkpt lat="44.138753" lon="10.0262283"><ele>515.4</ele><time>2026-04-04T11:47:34.717Z</time></trkpt><trkpt lat="44.1387852" lon="10.0260804"><ele>514.1999999999999</ele><time>2026-04-04T11:47:35.714Z</time></trkpt><trkpt lat="44.1388267" lon="10.0259235"><ele>513.0</ele><time>2026-04-04T11:47:36.72Z</time></trkpt><trkpt lat="44.13887" lon="10.0257652"><ele>511.2</ele><time>2026-04-04T11:47:37.723Z</time></trkpt><trkpt lat="44.1389124" lon="10.0256096"><ele>509.4</ele><time>2026-04-04T11:47:38.728Z</time></trkpt><trkpt lat="44.138952" lon="10.0254566"><ele>507.59999999999997</ele><time>2026-04-04T11:47:39.727Z</time></trkpt><trkpt lat="44.1389933" lon="10.0253179"><ele>505.79999999999995</ele><time>2026-04-04T11:47:40.703Z</time></trkpt><trkpt lat="44.1390339" lon="10.0251853"><ele>504.0</ele><time>2026-04-04T11:47:41.716Z</time></trkpt><trkpt lat="44.1390686" lon="10.0250676"><ele>504.3333333333333</ele><time>2026-04-04T11:47:42.732Z</time></trkpt><trkpt lat="44.1390955" lon="10.024968"><ele>504.66666666666663</ele><time>2026-04-04T11:47:43.739Z</time></trkpt><trkpt lat="44.1391073" lon="10.0248695"><ele>505.0</ele><time>2026-04-04T11:47:44.728Z</time></trkpt><trkpt lat="44.1390967" lon="10.0247747"><ele>505.3333333333333</ele><time>2026-04-04T11:47:45.723Z</time></trkpt><trkpt lat="44.1390604" lon="10.0246719"><ele>505.66666666666663</ele><time>2026-04-04T11:47:46.739Z</time></trkpt><trkpt lat="44.1390107" lon="10.0245552"><ele>506.0</ele><time>2026-04-04T11:47:47.717Z</time></trkpt><trkpt lat="44.1389475" lon="10.0244339"><ele>506.0</ele><time>2026-04-04T11:47:48.723Z</time></trkpt><trkpt lat="44.1388853" lon="10.0243047"><ele>506.0</ele><time>2026-04-04T11:47:49.719Z</time></trkpt><trkpt lat="44.1388393" lon="10.0241662"><ele>506.0</ele><time>2026-04-04T11:47:50.711Z</time></trkpt><trkpt lat="44.1388139" lon="10.0240252"><ele>506.0</ele><time>2026-04-04T11:47:51.729Z</time></trkpt><trkpt lat="44.1388135" lon="10.0238714"><ele>506.0</ele><time>2026-04-04T11:47:52.717Z</time></trkpt><trkpt lat="44.1388348" lon="10.0237284"><ele>506.8</ele><time>2026-04-04T11:47:53.715Z</time></trkpt><trkpt lat="44.1388662" lon="10.0235825"><ele>507.6</ele><time>2026-04-04T11:47:54.724Z</time></trkpt><trkpt lat="44.1389024" lon="10.0234558"><ele>508.4</ele><time>2026-04-04T11:47:55.712Z</time></trkpt><trkpt lat="44.1389377" lon="10.0233458"><ele>509.2</ele><time>2026-04-04T11:47:56.714Z</time></trkpt><trkpt lat="44.1389638" lon="10.0232539"><ele>510.0</ele><time>2026-04-04T11:47:57.713Z</time></trkpt><trkpt lat="44.1390112" lon="10.0231275"><ele>510.0</ele><time>2026-04-04T11:47:59.718Z</time></trkpt><trkpt lat="44.1390344" lon="10.0230405"><ele>510.0</ele><time>2026-04-04T11:48:09.73Z</time></trkpt><trkpt lat="44.1389517" lon="10.0231067"><ele>510.0</ele><time>2026-04-04T11:48:15.714Z</time></trkpt><trkpt lat="44.138907" lon="10.023208"><ele>510.0</ele><time>2026-04-04T11:48:16.713Z</time></trkpt><trkpt lat="44.1388527" lon="10.0233239"><ele>510.0</ele><time>2026-04-04T11:48:17.698Z</time></trkpt><trkpt lat="44.1387818" lon="10.0234439"><ele>510.0</ele><time>2026-04-04T11:48:18.703Z</time></trkpt><trkpt lat="44.1386728" lon="10.0235368"><ele>510.0</ele><time>2026-04-04T11:48:19.703Z</time></trkpt><trkpt lat="44.1385418" lon="10.0236028"><ele>510.0</ele><time>2026-04-04T11:48:20.713Z</time></trkpt><trkpt lat="44.1384075" lon="10.0236195"><ele>510.0</ele><time>2026-04-04T11:48:21.717Z</time></trkpt><trkpt lat="44.1382739" lon="10.0236122"><ele>506.25</ele><time>2026-04-04T11:48:22.723Z</time></trkpt><trkpt lat="44.1381348" lon="10.0235785"><ele>502.5</ele><time>2026-04-04T11:48:23.736Z</time></trkpt><trkpt lat="44.1380005" lon="10.0235318"><ele>498.75</ele><time>2026-04-04T11:48:24.717Z</time></trkpt><trkpt lat="44.1378758" lon="10.0234718"><ele>495.0</ele><time>2026-04-04T11:48:25.725Z</time></trkpt><trkpt lat="44.1377556" lon="10.0234026"><ele>495.0</ele><time>2026-04-04T11:48:26.715Z</time></trkpt><trkpt lat="44.1376445" lon="10.023326"><ele>495.0</ele><time>2026-04-04T11:48:27.726Z</time></trkpt><trkpt lat="44.1375413" lon="10.0232394"><ele>495.0</ele><time>2026-04-04T11:48:28.722Z</time></trkpt><trkpt lat="44.1374368" lon="10.0231463"><ele>495.0</ele><time>2026-04-04T11:48:29.726Z</time></trkpt><trkpt lat="44.1373397" lon="10.0230547"><ele>493.5</ele><time>2026-04-04T11:48:30.727Z</time></trkpt><trkpt lat="44.1372459" lon="10.0229649"><ele>492.0</ele><time>2026-04-04T11:48:31.722Z</time></trkpt><trkpt lat="44.1371448" lon="10.0228613"><ele>490.5</ele><time>2026-04-04T11:48:32.726Z</time></trkpt><trkpt lat="44.1370359" lon="10.0227406"><ele>489.0</ele><time>2026-04-04T11:48:33.718Z</time></trkpt><trkpt lat="44.1369197" lon="10.0225971"><ele>489.33333333333337</ele><time>2026-04-04T11:48:34.728Z</time></trkpt><trkpt lat="44.1368047" lon="10.0224182"><ele>489.6666666666667</ele><time>2026-04-04T11:48:35.724Z</time></trkpt><trkpt lat="44.1366868" lon="10.0222539"><ele>490.0</ele><time>2026-04-04T11:48:36.728Z</time></trkpt><trkpt lat="44.1365706" lon="10.022105"><ele>494.25</ele><time>2026-04-04T11:48:37.719Z</time></trkpt><trkpt lat="44.1364618" lon="10.0219663"><ele>498.5</ele><time>2026-04-04T11:48:38.715Z</time></trkpt><trkpt lat="44.1363624" lon="10.0218545"><ele>502.75</ele><time>2026-04-04T11:48:39.715Z</time></trkpt><trkpt lat="44.1362761" lon="10.0217649"><ele>507.0</ele><time>2026-04-04T11:48:40.727Z</time></trkpt><trkpt lat="44.1362275" lon="10.0216562"><ele>509.25</ele><time>2026-04-04T11:48:41.72Z</time></trkpt><trkpt lat="44.1362081" lon="10.0215183"><ele>511.5</ele><time>2026-04-04T11:48:42.707Z</time></trkpt><trkpt lat="44.1362169" lon="10.0213389"><ele>513.75</ele><time>2026-04-04T11:48:43.709Z</time></trkpt><trkpt lat="44.1362293" lon="10.0211366"><ele>516.0</ele><time>2026-04-04T11:48:44.71Z</time></trkpt><trkpt lat="44.1362312" lon="10.0209519"><ele>512.0</ele><time>2026-04-04T11:48:45.703Z</time></trkpt><trkpt lat="44.1362323" lon="10.0207553"><ele>508.0</ele><time>2026-04-04T11:48:46.702Z</time></trkpt><trkpt lat="44.1362183" lon="10.0205532"><ele>504.0</ele><time>2026-04-04T11:48:47.706Z</time></trkpt><trkpt lat="44.1361915" lon="10.020373"><ele>500.0</ele><time>2026-04-04T11:48:48.704Z</time></trkpt><trkpt lat="44.1361576" lon="10.0202552"><ele>500.0</ele><time>2026-04-04T11:48:49.704Z</time></trkpt><trkpt lat="44.1361018" lon="10.0201696"><ele>500.0</ele><time>2026-04-04T11:48:50.719Z</time></trkpt><trkpt lat="44.1360315" lon="10.0200857"><ele>500.0</ele><time>2026-04-04T11:48:51.721Z</time></trkpt><trkpt lat="44.1359349" lon="10.0200512"><ele>500.0</ele><time>2026-04-04T11:48:52.706Z</time></trkpt><trkpt lat="44.1358117" lon="10.0200559"><ele>500.0</ele><time>2026-04-04T11:48:53.72Z</time></trkpt><trkpt lat="44.1356899" lon="10.0200704"><ele>499.8</ele><time>2026-04-04T11:48:54.714Z</time></trkpt><trkpt lat="44.1355854" lon="10.0200434"><ele>499.6</ele><time>2026-04-04T11:48:55.707Z</time></trkpt><trkpt lat="44.1355003" lon="10.0199762"><ele>499.4</ele><time>2026-04-04T11:48:56.712Z</time></trkpt><trkpt lat="44.1354315" lon="10.0198653"><ele>499.2</ele><time>2026-04-04T11:48:57.716Z</time></trkpt><trkpt lat="44.1353547" lon="10.0197349"><ele>499.0</ele><time>2026-04-04T11:48:58.711Z</time></trkpt><trkpt lat="44.1352645" lon="10.0196034"><ele>499.0</ele><time>2026-04-04T11:48:59.698Z</time></trkpt><trkpt lat="44.1351726" lon="10.0194803"><ele>499.0</ele><time>2026-04-04T11:49:00.72Z</time></trkpt><trkpt lat="44.135077" lon="10.0193604"><ele>499.0</ele><time>2026-04-04T11:49:01.709Z</time></trkpt><trkpt lat="44.134994" lon="10.019233"><ele>499.0</ele><time>2026-04-04T11:49:02.71Z</time></trkpt><trkpt lat="44.1349309" lon="10.0190975"><ele>499.0</ele><time>2026-04-04T11:49:03.708Z</time></trkpt><trkpt lat="44.134897" lon="10.0189568"><ele>499.0</ele><time>2026-04-04T11:49:04.714Z</time></trkpt><trkpt lat="44.1348559" lon="10.018833"><ele>499.0</ele><time>2026-04-04T11:49:05.717Z</time></trkpt><trkpt lat="44.1347706" lon="10.0187372"><ele>499.0</ele><time>2026-04-04T11:49:06.702Z</time></trkpt><trkpt lat="44.1346638" lon="10.0186486"><ele>499.0</ele><time>2026-04-04T11:49:07.725Z</time></trkpt><trkpt lat="44.1345395" lon="10.0185459"><ele>499.0</ele><time>2026-04-04T11:49:08.715Z</time></trkpt><trkpt lat="44.1344165" lon="10.018447"><ele>499.0</ele><time>2026-04-04T11:49:09.722Z</time></trkpt><trkpt lat="44.134293" lon="10.0183422"><ele>499.0</ele><time>2026-04-04T11:49:10.713Z</time></trkpt><trkpt lat="44.1341944" lon="10.0182154"><ele>499.0</ele><time>2026-04-04T11:49:11.736Z</time></trkpt><trkpt lat="44.1341129" lon="10.0180842"><ele>496.25</ele><time>2026-04-04T11:49:12.721Z</time></trkpt><trkpt lat="44.1340397" lon="10.0179444"><ele>493.5</ele><time>2026-04-04T11:49:13.717Z</time></trkpt><trkpt lat="44.133988" lon="10.0177912"><ele>490.75</ele><time>2026-04-04T11:49:14.726Z</time></trkpt><trkpt lat="44.1339416" lon="10.0176282"><ele>488.0</ele><time>2026-04-04T11:49:15.717Z</time></trkpt><trkpt lat="44.13389" lon="10.0174697"><ele>484.5</ele><time>2026-04-04T11:49:16.715Z</time></trkpt><trkpt lat="44.1338464" lon="10.0173167"><ele>481.0</ele><time>2026-04-04T11:49:17.707Z</time></trkpt><trkpt lat="44.1338203" lon="10.0171577"><ele>477.5</ele><time>2026-04-04T11:49:18.712Z</time></trkpt><trkpt lat="44.133812" lon="10.0169989"><ele>474.0</ele><time>2026-04-04T11:49:19.714Z</time></trkpt><trkpt lat="44.1338035" lon="10.0168485"><ele>474.0</ele><time>2026-04-04T11:49:20.719Z</time></trkpt><trkpt lat="44.13379" lon="10.0167114"><ele>474.0</ele><time>2026-04-04T11:49:21.717Z</time></trkpt><trkpt lat="44.1337742" lon="10.0165841"><ele>474.0</ele><time>2026-04-04T11:49:22.719Z</time></trkpt><trkpt lat="44.1337483" lon="10.0164854"><ele>474.0</ele><time>2026-04-04T11:49:23.729Z</time></trkpt><trkpt lat="44.1336409" lon="10.0164177"><ele>474.0</ele><time>2026-04-04T11:49:25.728Z</time></trkpt><trkpt lat="44.1335528" lon="10.0164669"><ele>474.0</ele><time>2026-04-04T11:49:26.723Z</time></trkpt><trkpt lat="44.13345" lon="10.0165284"><ele>474.0</ele><time>2026-04-04T11:49:27.721Z</time></trkpt><trkpt lat="44.1333481" lon="10.0166011"><ele>474.0</ele><time>2026-04-04T11:49:28.718Z</time></trkpt><trkpt lat="44.1332553" lon="10.0166974"><ele>474.0</ele><time>2026-04-04T11:49:29.725Z</time></trkpt><trkpt lat="44.1331796" lon="10.0168374"><ele>472.0</ele><time>2026-04-04T11:49:30.713Z</time></trkpt><trkpt lat="44.1331136" lon="10.0169961"><ele>470.0</ele><time>2026-04-04T11:49:31.711Z</time></trkpt><trkpt lat="44.1330524" lon="10.0171649"><ele>468.0</ele><time>2026-04-04T11:49:32.713Z</time></trkpt><trkpt lat="44.1329728" lon="10.0173413"><ele>466.0</ele><time>2026-04-04T11:49:33.707Z</time></trkpt><trkpt lat="44.1328911" lon="10.017529"><ele>466.0</ele><time>2026-04-04T11:49:34.7Z</time></trkpt><trkpt lat="44.13281" lon="10.0177172"><ele>466.0</ele><time>2026-04-04T11:49:35.705Z</time></trkpt><trkpt lat="44.1327263" lon="10.0179139"><ele>466.0</ele><time>2026-04-04T11:49:36.711Z</time></trkpt><trkpt lat="44.1326385" lon="10.0180744"><ele>466.0</ele><time>2026-04-04T11:49:37.707Z</time></trkpt><trkpt lat="44.1325247" lon="10.0181901"><ele>466.0</ele><time>2026-04-04T11:49:38.706Z</time></trkpt><trkpt lat="44.1323994" lon="10.0182583"><ele>466.0</ele><time>2026-04-04T11:49:39.716Z</time></trkpt><trkpt lat="44.1322715" lon="10.0182394"><ele>466.0</ele><time>2026-04-04T11:49:40.712Z</time></trkpt><trkpt lat="44.1321497" lon="10.0181388"><ele>464.0</ele><time>2026-04-04T11:49:41.718Z</time></trkpt><trkpt lat="44.132038" lon="10.0180111"><ele>462.0</ele><time>2026-04-04T11:49:42.724Z</time></trkpt><trkpt lat="44.1319532" lon="10.0178691"><ele>460.0</ele><time>2026-04-04T11:49:43.736Z</time></trkpt><trkpt lat="44.1318675" lon="10.0177419"><ele>458.0</ele><time>2026-04-04T11:49:44.742Z</time></trkpt><trkpt lat="44.1317835" lon="10.0176164"><ele>458.0</ele><time>2026-04-04T11:49:45.725Z</time></trkpt><trkpt lat="44.1316914" lon="10.0175148"><ele>458.0</ele><time>2026-04-04T11:49:46.719Z</time></trkpt><trkpt lat="44.1315922" lon="10.0174221"><ele>458.0</ele><time>2026-04-04T11:49:47.716Z</time></trkpt><trkpt lat="44.1314843" lon="10.0173479"><ele>458.0</ele><time>2026-04-04T11:49:48.701Z</time></trkpt><trkpt lat="44.131364" lon="10.017289"><ele>452.25</ele><time>2026-04-04T11:49:49.708Z</time></trkpt><trkpt lat="44.1312391" lon="10.017241"><ele>446.5</ele><time>2026-04-04T11:49:50.731Z</time></trkpt><trkpt lat="44.1311315" lon="10.0172072"><ele>440.75</ele><time>2026-04-04T11:49:51.693Z</time></trkpt><trkpt lat="44.1310348" lon="10.0171765"><ele>435.0</ele><time>2026-04-04T11:49:52.711Z</time></trkpt><trkpt lat="44.1311548" lon="10.0171456"><ele>435.0</ele><time>2026-04-04T11:49:56.705Z</time></trkpt><trkpt lat="44.1312571" lon="10.0171773"><ele>435.0</ele><time>2026-04-04T11:49:57.711Z</time></trkpt><trkpt lat="44.1313648" lon="10.0171948"><ele>435.0</ele><time>2026-04-04T11:49:58.704Z</time></trkpt><trkpt lat="44.1314791" lon="10.0172152"><ele>435.0</ele><time>2026-04-04T11:49:59.705Z</time></trkpt><trkpt lat="44.1316019" lon="10.0172352"><ele>436.4</ele><time>2026-04-04T11:50:00.711Z</time></trkpt><trkpt lat="44.1317199" lon="10.0172438"><ele>437.8</ele><time>2026-04-04T11:50:01.711Z</time></trkpt><trkpt lat="44.131824" lon="10.0172245"><ele>439.20000000000005</ele><time>2026-04-04T11:50:02.709Z</time></trkpt><trkpt lat="44.1319238" lon="10.0171619"><ele>440.6</ele><time>2026-04-04T11:50:03.713Z</time></trkpt><trkpt lat="44.1319972" lon="10.0170358"><ele>442.0</ele><time>2026-04-04T11:50:04.711Z</time></trkpt><trkpt lat="44.1320726" lon="10.0168929"><ele>442.0</ele><time>2026-04-04T11:50:05.702Z</time></trkpt><trkpt lat="44.1321591" lon="10.0167396"><ele>442.0</ele><time>2026-04-04T11:50:06.71Z</time></trkpt><trkpt lat="44.1322554" lon="10.0165692"><ele>442.0</ele><time>2026-04-04T11:50:07.717Z</time></trkpt><trkpt lat="44.1323788" lon="10.0163883"><ele>440.6666666666667</ele><time>2026-04-04T11:50:08.714Z</time></trkpt><trkpt lat="44.1324937" lon="10.0161921"><ele>439.33333333333337</ele><time>2026-04-04T11:50:09.711Z</time></trkpt><trkpt lat="44.1326072" lon="10.0159962"><ele>438.0</ele><time>2026-04-04T11:50:10.735Z</time></trkpt><trkpt lat="44.1327201" lon="10.0158344"><ele>435.25</ele><time>2026-04-04T11:50:11.741Z</time></trkpt><trkpt lat="44.1328327" lon="10.0156926"><ele>432.5</ele><time>2026-04-04T11:50:12.711Z</time></trkpt><trkpt lat="44.1329392" lon="10.0155589"><ele>429.75</ele><time>2026-04-04T11:50:13.718Z</time></trkpt><trkpt lat="44.1330328" lon="10.0154335"><ele>427.0</ele><time>2026-04-04T11:50:14.72Z</time></trkpt><trkpt lat="44.1331199" lon="10.0153086"><ele>427.0</ele><time>2026-04-04T11:50:15.714Z</time></trkpt><trkpt lat="44.1331936" lon="10.0151988"><ele>427.00000000000006</ele><time>2026-04-04T11:50:16.715Z</time></trkpt><trkpt lat="44.1332437" lon="10.0151125"><ele>427.00000000000006</ele><time>2026-04-04T11:50:17.716Z</time></trkpt><trkpt lat="44.1332486" lon="10.0149713"><ele>427.0</ele><time>2026-04-04T11:50:19.723Z</time></trkpt><trkpt lat="44.1331238" lon="10.0149504"><ele>427.0</ele><time>2026-04-04T11:50:21.725Z</time></trkpt><trkpt lat="44.1330171" lon="10.0150134"><ele>427.0</ele><time>2026-04-04T11:50:22.715Z</time></trkpt><trkpt lat="44.132876" lon="10.015099"><ele>427.0</ele><time>2026-04-04T11:50:23.726Z</time></trkpt><trkpt lat="44.1327218" lon="10.015182"><ele>427.0</ele><time>2026-04-04T11:50:24.724Z</time></trkpt><trkpt lat="44.1325594" lon="10.0152651"><ele>427.0</ele><time>2026-04-04T11:50:25.724Z</time></trkpt><trkpt lat="44.1323989" lon="10.0153388"><ele>427.0</ele><time>2026-04-04T11:50:26.715Z</time></trkpt><trkpt lat="44.1323015" lon="10.0153974"><ele>427.0</ele><time>2026-04-04T11:50:27.719Z</time></trkpt><trkpt lat="44.1322052" lon="10.0154138"><ele>427.0</ele><time>2026-04-04T11:50:29.717Z</time></trkpt><trkpt lat="44.1321522" lon="10.0152552"><ele>427.00000000000006</ele><time>2026-04-04T11:50:31.726Z</time></trkpt><trkpt lat="44.1322592" lon="10.0151633"><ele>427.0</ele><time>2026-04-04T11:50:33.722Z</time></trkpt><trkpt lat="44.1323358" lon="10.0151411"><ele>427.0</ele><time>2026-04-04T11:50:34.721Z</time></trkpt><trkpt lat="44.1324045" lon="10.0151233"><ele>427.0</ele><time>2026-04-04T11:50:35.719Z</time></trkpt><trkpt lat="44.132466" lon="10.0150979"><ele>427.00000000000006</ele><time>2026-04-04T11:50:36.721Z</time></trkpt><trkpt lat="44.1325473" lon="10.0150013"><ele>427.0</ele><time>2026-04-04T11:50:38.717Z</time></trkpt><trkpt lat="44.1324747" lon="10.0148618"><ele>425.83333333333337</ele><time>2026-04-04T11:50:40.721Z</time></trkpt><trkpt lat="44.1323921" lon="10.0148016"><ele>424.6666666666667</ele><time>2026-04-04T11:50:41.725Z</time></trkpt><trkpt lat="44.1323182" lon="10.0147313"><ele>423.5</ele><time>2026-04-04T11:50:42.724Z</time></trkpt><trkpt lat="44.132256" lon="10.0146336"><ele>422.33333333333337</ele><time>2026-04-04T11:50:43.723Z</time></trkpt><trkpt lat="44.1322156" lon="10.0145253"><ele>421.1666666666667</ele><time>2026-04-04T11:50:44.75Z</time></trkpt><trkpt lat="44.1321883" lon="10.0144184"><ele>420.0</ele><time>2026-04-04T11:50:45.721Z</time></trkpt><trkpt lat="44.1321677" lon="10.0143134"><ele>417.3333333333333</ele><time>2026-04-04T11:50:46.721Z</time></trkpt><trkpt lat="44.1321501" lon="10.0142136"><ele>414.66666666666663</ele><time>2026-04-04T11:50:47.722Z</time></trkpt><trkpt lat="44.1321316" lon="10.0141163"><ele>412.0</ele><time>2026-04-04T11:50:48.714Z</time></trkpt><trkpt lat="44.1321143" lon="10.0140174"><ele>409.3333333333333</ele><time>2026-04-04T11:50:49.724Z</time></trkpt><trkpt lat="44.1320991" lon="10.0139058"><ele>406.66666666666663</ele><time>2026-04-04T11:50:50.723Z</time></trkpt><trkpt lat="44.1320789" lon="10.0137756"><ele>404.0</ele><time>2026-04-04T11:50:51.723Z</time></trkpt><trkpt lat="44.1320422" lon="10.0136462"><ele>403.75</ele><time>2026-04-04T11:50:52.724Z</time></trkpt><trkpt lat="44.1319725" lon="10.0135301"><ele>403.5</ele><time>2026-04-04T11:50:53.724Z</time></trkpt><trkpt lat="44.131884" lon="10.0134135"><ele>403.25</ele><time>2026-04-04T11:50:54.723Z</time></trkpt><trkpt lat="44.1318025" lon="10.013282"><ele>403.0</ele><time>2026-04-04T11:50:55.723Z</time></trkpt><trkpt lat="44.1317273" lon="10.0131406"><ele>403.0</ele><time>2026-04-04T11:50:56.72Z</time></trkpt><trkpt lat="44.1316404" lon="10.0129889"><ele>403.0</ele><time>2026-04-04T11:50:57.726Z</time></trkpt><trkpt lat="44.1315137" lon="10.0128511"><ele>403.0</ele><time>2026-04-04T11:50:58.722Z</time></trkpt><trkpt lat="44.1313117" lon="10.0127626"><ele>403.0</ele><time>2026-04-04T11:50:59.74Z</time></trkpt><trkpt lat="44.1311181" lon="10.012702"><ele>403.0</ele><time>2026-04-04T11:51:00.725Z</time></trkpt><trkpt lat="44.1309741" lon="10.0126526"><ele>403.0</ele><time>2026-04-04T11:51:01.709Z</time></trkpt><trkpt lat="44.1308549" lon="10.0125716"><ele>403.25</ele><time>2026-04-04T11:51:02.7Z</time></trkpt><trkpt lat="44.1307629" lon="10.0124498"><ele>403.5</ele><time>2026-04-04T11:51:03.714Z</time></trkpt><trkpt lat="44.1306776" lon="10.0122728"><ele>403.75</ele><time>2026-04-04T11:51:04.714Z</time></trkpt><trkpt lat="44.1305981" lon="10.0120883"><ele>404.0</ele><time>2026-04-04T11:51:05.713Z</time></trkpt><trkpt lat="44.1305016" lon="10.0119167"><ele>401.5</ele><time>2026-04-04T11:51:06.714Z</time></trkpt><trkpt lat="44.1303883" lon="10.0117723"><ele>399.0</ele><time>2026-04-04T11:51:07.713Z</time></trkpt><trkpt lat="44.1302685" lon="10.0116502"><ele>396.5</ele><time>2026-04-04T11:51:08.717Z</time></trkpt><trkpt lat="44.1301746" lon="10.01158"><ele>394.0</ele><time>2026-04-04T11:51:09.704Z</time></trkpt><trkpt lat="44.1301137" lon="10.0115248"><ele>394.00000000000006</ele><time>2026-04-04T11:51:10.714Z</time></trkpt><trkpt lat="44.1300644" lon="10.0114655"><ele>394.0</ele><time>2026-04-04T11:51:11.715Z</time></trkpt><trkpt lat="44.1300531" lon="10.0113492"><ele>394.0</ele><time>2026-04-04T11:51:14.739Z</time></trkpt><trkpt lat="44.1300749" lon="10.0112638"><ele>394.0</ele><time>2026-04-04T11:51:28.71Z</time></trkpt><trkpt lat="44.1300543" lon="10.0111534"><ele>394.00000000000006</ele><time>2026-04-04T11:51:30.714Z</time></trkpt><trkpt lat="44.1300408" lon="10.0110611"><ele>394.0</ele><time>2026-04-04T11:51:31.721Z</time></trkpt><trkpt lat="44.1300214" lon="10.0109214"><ele>392.4</ele><time>2026-04-04T11:51:32.717Z</time></trkpt><trkpt lat="44.1299958" lon="10.0107677"><ele>390.79999999999995</ele><time>2026-04-04T11:51:33.719Z</time></trkpt><trkpt lat="44.1299696" lon="10.0106102"><ele>389.20000000000005</ele><time>2026-04-04T11:51:34.716Z</time></trkpt><trkpt lat="44.1299526" lon="10.0104576"><ele>387.6</ele><time>2026-04-04T11:51:35.718Z</time></trkpt><trkpt lat="44.1299377" lon="10.010319"><ele>386.0</ele><time>2026-04-04T11:51:36.713Z</time></trkpt><trkpt lat="44.129922" lon="10.0101912"><ele>385.99999999999994</ele><time>2026-04-04T11:51:37.708Z</time></trkpt><trkpt lat="44.1299043" lon="10.0100849"><ele>386.0</ele><time>2026-04-04T11:51:38.712Z</time></trkpt><trkpt lat="44.1298775" lon="10.0099866"><ele>386.0</ele><time>2026-04-04T11:51:39.71Z</time></trkpt><trkpt lat="44.1298559" lon="10.0098988"><ele>386.0</ele><time>2026-04-04T11:51:40.714Z</time></trkpt><trkpt lat="44.1298365" lon="10.009797"><ele>385.99999999999994</ele><time>2026-04-04T11:51:41.716Z</time></trkpt><trkpt lat="44.1298165" lon="10.0096922"><ele>386.0</ele><time>2026-04-04T11:51:42.71Z</time></trkpt><trkpt lat="44.1298016" lon="10.0095884"><ele>386.00000000000006</ele><time>2026-04-04T11:51:43.71Z</time></trkpt><trkpt lat="44.1297916" lon="10.0094853"><ele>386.0</ele><time>2026-04-04T11:51:44.72Z</time></trkpt><trkpt lat="44.1297874" lon="10.0093779"><ele>386.0</ele><time>2026-04-04T11:51:45.713Z</time></trkpt><trkpt lat="44.1297925" lon="10.0092727"><ele>386.0</ele><time>2026-04-04T11:51:46.701Z</time></trkpt><trkpt lat="44.1298054" lon="10.0091722"><ele>386.0</ele><time>2026-04-04T11:51:47.71Z</time></trkpt><trkpt lat="44.1298184" lon="10.0090731"><ele>386.00000000000006</ele><time>2026-04-04T11:51:48.714Z</time></trkpt><trkpt lat="44.1298278" lon="10.0089797"><ele>386.0</ele><time>2026-04-04T11:51:49.702Z</time></trkpt><trkpt lat="44.1298477" lon="10.0088883"><ele>383.7142857142857</ele><time>2026-04-04T11:51:50.712Z</time></trkpt><trkpt lat="44.129872" lon="10.0087959"><ele>381.42857142857144</ele><time>2026-04-04T11:51:51.712Z</time></trkpt><trkpt lat="44.1298912" lon="10.0086944"><ele>379.1428571428571</ele><time>2026-04-04T11:51:52.717Z</time></trkpt><trkpt lat="44.1298979" lon="10.0085891"><ele>376.8571428571429</ele><time>2026-04-04T11:51:53.709Z</time></trkpt><trkpt lat="44.1298901" lon="10.0084836"><ele>374.57142857142856</ele><time>2026-04-04T11:51:54.715Z</time></trkpt><trkpt lat="44.1298704" lon="10.0083763"><ele>372.2857142857143</ele><time>2026-04-04T11:51:55.717Z</time></trkpt><trkpt lat="44.1298496" lon="10.0082809"><ele>370.0</ele><time>2026-04-04T11:51:56.72Z</time></trkpt><trkpt lat="44.1298234" lon="10.0081944"><ele>368.6</ele><time>2026-04-04T11:51:57.724Z</time></trkpt><trkpt lat="44.1297752" lon="10.0080732"><ele>367.2</ele><time>2026-04-04T11:51:59.709Z</time></trkpt><trkpt lat="44.1297695" lon="10.0079799"><ele>365.79999999999995</ele><time>2026-04-04T11:52:01.717Z</time></trkpt><trkpt lat="44.1298141" lon="10.0078529"><ele>364.4</ele><time>2026-04-04T11:52:03.721Z</time></trkpt><trkpt lat="44.129873" lon="10.0077181"><ele>363.0</ele><time>2026-04-04T11:52:05.715Z</time></trkpt><trkpt lat="44.1299051" lon="10.0075808"><ele>360.6666666666667</ele><time>2026-04-04T11:52:07.719Z</time></trkpt><trkpt lat="44.1298775" lon="10.00742"><ele>358.3333333333333</ele><time>2026-04-04T11:52:09.719Z</time></trkpt><trkpt lat="44.1298386" lon="10.0073252"><ele>356.0</ele><time>2026-04-04T11:52:10.723Z</time></trkpt><trkpt lat="44.1297921" lon="10.0072326"><ele>353.66666666666663</ele><time>2026-04-04T11:52:11.72Z</time></trkpt><trkpt lat="44.1297449" lon="10.0071467"><ele>351.3333333333333</ele><time>2026-04-04T11:52:12.712Z</time></trkpt><trkpt lat="44.1296907" lon="10.0070745"><ele>349.0</ele><time>2026-04-04T11:52:13.718Z</time></trkpt><trkpt lat="44.1296358" lon="10.0070201"><ele>349.0</ele><time>2026-04-04T11:52:14.723Z</time></trkpt><trkpt lat="44.1295783" lon="10.0069777"><ele>349.0</ele><time>2026-04-04T11:52:15.718Z</time></trkpt><trkpt lat="44.1294881" lon="10.0069091"><ele>349.0</ele><time>2026-04-04T11:52:17.719Z</time></trkpt><trkpt lat="44.1294458" lon="10.0067831"><ele>349.0</ele><time>2026-04-04T11:52:19.73Z</time></trkpt><trkpt lat="44.1293887" lon="10.0066226"><ele>349.0</ele><time>2026-04-04T11:52:21.725Z</time></trkpt><trkpt lat="44.1293491" lon="10.006539"><ele>346.5</ele><time>2026-04-04T11:52:22.717Z</time></trkpt><trkpt lat="44.1292976" lon="10.0064451"><ele>344.0</ele><time>2026-04-04T11:52:23.72Z</time></trkpt><trkpt lat="44.129243" lon="10.0063456"><ele>341.5</ele><time>2026-04-04T11:52:24.723Z</time></trkpt><trkpt lat="44.1291951" lon="10.0062559"><ele>339.0</ele><time>2026-04-04T11:52:25.726Z</time></trkpt><trkpt lat="44.1291443" lon="10.0061308"><ele>336.5</ele><time>2026-04-04T11:52:27.725Z</time></trkpt><trkpt lat="44.1291458" lon="10.0060184"><ele>334.0</ele><time>2026-04-04T11:52:30.728Z</time></trkpt><trkpt lat="44.1291719" lon="10.0058964"><ele>333.0</ele><time>2026-04-04T11:52:39.733Z</time></trkpt><trkpt lat="44.1291752" lon="10.005722"><ele>332.0</ele><time>2026-04-04T11:52:41.716Z</time></trkpt><trkpt lat="44.1291769" lon="10.0056254"><ele>331.0</ele><time>2026-04-04T11:52:42.714Z</time></trkpt><trkpt lat="44.1291773" lon="10.0055292"><ele>330.0</ele><time>2026-04-04T11:52:43.721Z</time></trkpt><trkpt lat="44.129174" lon="10.0054374"><ele>329.0</ele><time>2026-04-04T11:52:44.721Z</time></trkpt><trkpt lat="44.1291792" lon="10.0053445"><ele>328.0</ele><time>2026-04-04T11:52:45.723Z</time></trkpt><trkpt lat="44.1291781" lon="10.0052429"><ele>328.0</ele><time>2026-04-04T11:52:46.732Z</time></trkpt><trkpt lat="44.1291776" lon="10.0051402"><ele>328.0</ele><time>2026-04-04T11:52:47.748Z</time></trkpt><trkpt lat="44.1291721" lon="10.0050242"><ele>328.0</ele><time>2026-04-04T11:52:48.723Z</time></trkpt><trkpt lat="44.1291589" lon="10.0049125"><ele>328.0</ele><time>2026-04-04T11:52:49.733Z</time></trkpt><trkpt lat="44.1291352" lon="10.0048097"><ele>328.0</ele><time>2026-04-04T11:52:50.725Z</time></trkpt><trkpt lat="44.1290913" lon="10.0047079"><ele>328.0</ele><time>2026-04-04T11:52:51.73Z</time></trkpt><trkpt lat="44.1290193" lon="10.0046183"><ele>326.3333333333333</ele><time>2026-04-04T11:52:52.73Z</time></trkpt><trkpt lat="44.1289484" lon="10.0045281"><ele>324.66666666666663</ele><time>2026-04-04T11:52:53.733Z</time></trkpt><trkpt lat="44.1288788" lon="10.0044423"><ele>323.0</ele><time>2026-04-04T11:52:54.73Z</time></trkpt><trkpt lat="44.1288114" lon="10.0043597"><ele>321.3333333333333</ele><time>2026-04-04T11:52:55.731Z</time></trkpt><trkpt lat="44.1287537" lon="10.0042756"><ele>319.6666666666667</ele><time>2026-04-04T11:52:56.726Z</time></trkpt><trkpt lat="44.1287042" lon="10.0041895"><ele>318.0</ele><time>2026-04-04T11:52:57.737Z</time></trkpt><trkpt lat="44.128661" lon="10.0040997"><ele>317.6666666666667</ele><time>2026-04-04T11:52:58.726Z</time></trkpt><trkpt lat="44.1286224" lon="10.0040105"><ele>317.3333333333333</ele><time>2026-04-04T11:52:59.727Z</time></trkpt><trkpt lat="44.1285866" lon="10.003917"><ele>317.0</ele><time>2026-04-04T11:53:00.742Z</time></trkpt><trkpt lat="44.1285547" lon="10.0038183"><ele>316.66666666666663</ele><time>2026-04-04T11:53:01.73Z</time></trkpt><trkpt lat="44.1285332" lon="10.0037158"><ele>316.3333333333333</ele><time>2026-04-04T11:53:02.73Z</time></trkpt><trkpt lat="44.1285129" lon="10.0036134"><ele>316.0</ele><time>2026-04-04T11:53:03.736Z</time></trkpt><trkpt lat="44.1284922" lon="10.0035077"><ele>316.0</ele><time>2026-04-04T11:53:04.729Z</time></trkpt><trkpt lat="44.1284743" lon="10.0034027"><ele>316.0</ele><time>2026-04-04T11:53:05.73Z</time></trkpt><trkpt lat="44.1284498" lon="10.0032913"><ele>316.0</ele><time>2026-04-04T11:53:06.727Z</time></trkpt><trkpt lat="44.1284302" lon="10.0031592"><ele>316.0</ele><time>2026-04-04T11:53:07.734Z</time></trkpt><trkpt lat="44.1284321" lon="10.0029886"><ele>316.0</ele><time>2026-04-04T11:53:08.729Z</time></trkpt><trkpt lat="44.1284578" lon="10.0027929"><ele>314.5</ele><time>2026-04-04T11:53:09.72Z</time></trkpt><trkpt lat="44.1284848" lon="10.002591"><ele>313.0</ele><time>2026-04-04T11:53:10.731Z</time></trkpt><trkpt lat="44.1284882" lon="10.002389"><ele>311.5</ele><time>2026-04-04T11:53:11.724Z</time></trkpt><trkpt lat="44.128488" lon="10.0021818"><ele>310.0</ele><time>2026-04-04T11:53:12.726Z</time></trkpt><trkpt lat="44.1285162" lon="10.0019846"><ele>308.8</ele><time>2026-04-04T11:53:13.724Z</time></trkpt><trkpt lat="44.1285653" lon="10.0018428"><ele>307.6</ele><time>2026-04-04T11:53:14.735Z</time></trkpt><trkpt lat="44.1285803" lon="10.0016963"><ele>306.4</ele><time>2026-04-04T11:53:15.721Z</time></trkpt><trkpt lat="44.1285495" lon="10.0015538"><ele>305.2</ele><time>2026-04-04T11:53:16.732Z</time></trkpt><trkpt lat="44.1284597" lon="10.001441"><ele>304.0</ele><time>2026-04-04T11:53:17.728Z</time></trkpt><trkpt lat="44.1283441" lon="10.0013042"><ele>300.75</ele><time>2026-04-04T11:53:18.738Z</time></trkpt><trkpt lat="44.1282452" lon="10.001153"><ele>297.5</ele><time>2026-04-04T11:53:19.727Z</time></trkpt><trkpt lat="44.1281972" lon="10.000966"><ele>294.25</ele><time>2026-04-04T11:53:20.728Z</time></trkpt><trkpt lat="44.1281788" lon="10.0007567"><ele>291.0</ele><time>2026-04-04T11:53:21.733Z</time></trkpt><trkpt lat="44.1281637" lon="10.0005356"><ele>288.25</ele><time>2026-04-04T11:53:22.734Z</time></trkpt><trkpt lat="44.1281535" lon="10.0003251"><ele>285.5</ele><time>2026-04-04T11:53:23.735Z</time></trkpt><trkpt lat="44.1281509" lon="10.0001336"><ele>282.75</ele><time>2026-04-04T11:53:24.723Z</time></trkpt><trkpt lat="44.1281195" lon="9.9999589"><ele>280.0</ele><time>2026-04-04T11:53:25.727Z</time></trkpt><trkpt lat="44.1280459" lon="9.9997882"><ele>280.0</ele><time>2026-04-04T11:53:26.73Z</time></trkpt><trkpt lat="44.1279335" lon="9.9996266"><ele>280.0</ele><time>2026-04-04T11:53:27.723Z</time></trkpt><trkpt lat="44.1278525" lon="9.9994541"><ele>280.0</ele><time>2026-04-04T11:53:28.733Z</time></trkpt><trkpt lat="44.1277864" lon="9.9992697"><ele>280.0</ele><time>2026-04-04T11:53:29.731Z</time></trkpt><trkpt lat="44.1277647" lon="9.9990612"><ele>280.0</ele><time>2026-04-04T11:53:30.738Z</time></trkpt><trkpt lat="44.1277663" lon="9.99884"><ele>280.0</ele><time>2026-04-04T11:53:31.723Z</time></trkpt><trkpt lat="44.1277942" lon="9.9986204"><ele>280.0</ele><time>2026-04-04T11:53:32.722Z</time></trkpt><trkpt lat="44.1278354" lon="9.9984214"><ele>280.0</ele><time>2026-04-04T11:53:33.729Z</time></trkpt><trkpt lat="44.1279001" lon="9.9981983"><ele>280.0</ele><time>2026-04-04T11:53:34.726Z</time></trkpt><trkpt lat="44.1279878" lon="9.9979817"><ele>277.66666666666663</ele><time>2026-04-04T11:53:35.726Z</time></trkpt><trkpt lat="44.1280744" lon="9.9977425"><ele>275.3333333333333</ele><time>2026-04-04T11:53:36.729Z</time></trkpt><trkpt lat="44.128149" lon="9.9975304"><ele>273.0</ele><time>2026-04-04T11:53:37.724Z</time></trkpt><trkpt lat="44.1282043" lon="9.9973574"><ele>270.75</ele><time>2026-04-04T11:53:38.715Z</time></trkpt><trkpt lat="44.1282443" lon="9.9971926"><ele>268.5</ele><time>2026-04-04T11:53:39.731Z</time></trkpt><trkpt lat="44.128266" lon="9.9970251"><ele>266.25</ele><time>2026-04-04T11:53:40.722Z</time></trkpt><trkpt lat="44.1282611" lon="9.9968478"><ele>264.0</ele><time>2026-04-04T11:53:41.723Z</time></trkpt><trkpt lat="44.1282245" lon="9.996661"><ele>260.59999999999997</ele><time>2026-04-04T11:53:42.727Z</time></trkpt><trkpt lat="44.1281858" lon="9.9964807"><ele>257.2</ele><time>2026-04-04T11:53:43.75Z</time></trkpt><trkpt lat="44.1281567" lon="9.9963229"><ele>253.79999999999998</ele><time>2026-04-04T11:53:44.736Z</time></trkpt><trkpt lat="44.1281193" lon="9.996189"><ele>250.39999999999998</ele><time>2026-04-04T11:53:45.723Z</time></trkpt><trkpt lat="44.1280719" lon="9.9960928"><ele>247.0</ele><time>2026-04-04T11:53:46.733Z</time></trkpt><trkpt lat="44.1280095" lon="9.9960544"><ele>247.0</ele><time>2026-04-04T11:53:47.735Z</time></trkpt><trkpt lat="44.1279353" lon="9.9960843"><ele>247.0</ele><time>2026-04-04T11:53:48.731Z</time></trkpt><trkpt lat="44.127894" lon="9.9961658"><ele>247.0</ele><time>2026-04-04T11:53:49.74Z</time></trkpt><trkpt lat="44.1278859" lon="9.9963148"><ele>247.0</ele><time>2026-04-04T11:53:50.727Z</time></trkpt><trkpt lat="44.1278896" lon="9.9964812"><ele>247.0</ele><time>2026-04-04T11:53:51.725Z</time></trkpt><trkpt lat="44.1278819" lon="9.996628"><ele>247.0</ele><time>2026-04-04T11:53:52.727Z</time></trkpt><trkpt lat="44.1278398" lon="9.9966989"><ele>247.0</ele><time>2026-04-04T11:53:53.725Z</time></trkpt><trkpt lat="44.1277807" lon="9.9966005"><ele>247.0</ele><time>2026-04-04T11:53:55.725Z</time></trkpt><trkpt lat="44.1277498" lon="9.9964705"><ele>247.0</ele><time>2026-04-04T11:53:56.727Z</time></trkpt><trkpt lat="44.1277137" lon="9.9963129"><ele>247.0</ele><time>2026-04-04T11:53:57.729Z</time></trkpt><trkpt lat="44.127666" lon="9.9961208"><ele>247.0</ele><time>2026-04-04T11:53:58.727Z</time></trkpt><trkpt lat="44.1276148" lon="9.9959086"><ele>247.0</ele><time>2026-04-04T11:53:59.754Z</time></trkpt><trkpt lat="44.1275722" lon="9.9957365"><ele>247.0</ele><time>2026-04-04T11:54:00.77Z</time></trkpt><trkpt lat="44.1275691" lon="9.9955716"><ele>247.0</ele><time>2026-04-04T11:54:01.758Z</time></trkpt><trkpt lat="44.1276043" lon="9.9953835"><ele>245.0</ele><time>2026-04-04T11:54:02.753Z</time></trkpt><trkpt lat="44.12767" lon="9.9951384"><ele>243.0</ele><time>2026-04-04T11:54:03.758Z</time></trkpt><trkpt lat="44.1277776" lon="9.9948288"><ele>241.0</ele><time>2026-04-04T11:54:04.722Z</time></trkpt><trkpt lat="44.1278874" lon="9.9945453"><ele>238.33333333333331</ele><time>2026-04-04T11:54:05.721Z</time></trkpt><trkpt lat="44.127993" lon="9.9942988"><ele>235.66666666666669</ele><time>2026-04-04T11:54:06.723Z</time></trkpt><trkpt lat="44.1281168" lon="9.9940975"><ele>233.0</ele><time>2026-04-04T11:54:07.734Z</time></trkpt><trkpt lat="44.1282261" lon="9.9939167"><ele>233.66666666666669</ele><time>2026-04-04T11:54:08.717Z</time></trkpt><trkpt lat="44.1283185" lon="9.9937138"><ele>234.33333333333331</ele><time>2026-04-04T11:54:09.724Z</time></trkpt><trkpt lat="44.1284042" lon="9.9935261"><ele>235.0</ele><time>2026-04-04T11:54:10.718Z</time></trkpt><trkpt lat="44.1284548" lon="9.9933483"><ele>236.25</ele><time>2026-04-04T11:54:11.722Z</time></trkpt><trkpt lat="44.1284741" lon="9.9931634"><ele>237.5</ele><time>2026-04-04T11:54:12.709Z</time></trkpt><trkpt lat="44.1284929" lon="9.9929338"><ele>238.75</ele><time>2026-04-04T11:54:13.711Z</time></trkpt><trkpt lat="44.1285393" lon="9.9927386"><ele>240.0</ele><time>2026-04-04T11:54:14.713Z</time></trkpt><trkpt lat="44.1286185" lon="9.9925764"><ele>240.8</ele><time>2026-04-04T11:54:15.707Z</time></trkpt><trkpt lat="44.1287202" lon="9.9924592"><ele>241.6</ele><time>2026-04-04T11:54:16.705Z</time></trkpt><trkpt lat="44.1287891" lon="9.9923419"><ele>242.39999999999998</ele><time>2026-04-04T11:54:17.714Z</time></trkpt><trkpt lat="44.1288236" lon="9.9922161"><ele>243.2</ele><time>2026-04-04T11:54:18.713Z</time></trkpt><trkpt lat="44.1287868" lon="9.992079"><ele>244.0</ele><time>2026-04-04T11:54:19.721Z</time></trkpt><trkpt lat="44.128684" lon="9.9919472"><ele>244.0</ele><time>2026-04-04T11:54:20.727Z</time></trkpt><trkpt lat="44.1285883" lon="9.99179"><ele>244.0</ele><time>2026-04-04T11:54:21.722Z</time></trkpt><trkpt lat="44.1285136" lon="9.9915968"><ele>244.0</ele><time>2026-04-04T11:54:22.713Z</time></trkpt><trkpt lat="44.1284697" lon="9.9914057"><ele>244.0</ele><time>2026-04-04T11:54:23.719Z</time></trkpt><trkpt lat="44.1284156" lon="9.9912229"><ele>242.2</ele><time>2026-04-04T11:54:24.707Z</time></trkpt><trkpt lat="44.1283547" lon="9.9910928"><ele>240.39999999999998</ele><time>2026-04-04T11:54:25.714Z</time></trkpt><trkpt lat="44.1283031" lon="9.9909763"><ele>238.6</ele><time>2026-04-04T11:54:26.716Z</time></trkpt><trkpt lat="44.128242" lon="9.9908765"><ele>236.8</ele><time>2026-04-04T11:54:27.72Z</time></trkpt><trkpt lat="44.1281701" lon="9.9908021"><ele>235.0</ele><time>2026-04-04T11:54:28.712Z</time></trkpt><trkpt lat="44.1280961" lon="9.9907738"><ele>232.16666666666666</ele><time>2026-04-04T11:54:29.725Z</time></trkpt><trkpt lat="44.1280199" lon="9.9907617"><ele>229.33333333333331</ele><time>2026-04-04T11:54:30.722Z</time></trkpt><trkpt lat="44.1279478" lon="9.9907471"><ele>226.5</ele><time>2026-04-04T11:54:31.721Z</time></trkpt><trkpt lat="44.1278845" lon="9.9907279"><ele>223.66666666666669</ele><time>2026-04-04T11:54:32.728Z</time></trkpt><trkpt lat="44.1277997" lon="9.9906469"><ele>220.83333333333334</ele><time>2026-04-04T11:54:34.734Z</time></trkpt><trkpt lat="44.127787" lon="9.9904821"><ele>218.0</ele><time>2026-04-04T11:54:36.728Z</time></trkpt><trkpt lat="44.1277988" lon="9.990387"><ele>218.0</ele><time>2026-04-04T11:54:37.736Z</time></trkpt><trkpt lat="44.1278156" lon="9.9902918"><ele>218.0</ele><time>2026-04-04T11:54:38.737Z</time></trkpt><trkpt lat="44.1278296" lon="9.9902053"><ele>218.0</ele><time>2026-04-04T11:54:39.73Z</time></trkpt><trkpt lat="44.1278472" lon="9.9900294"><ele>218.0</ele><time>2026-04-04T11:54:41.732Z</time></trkpt><trkpt lat="44.1278591" lon="9.9899113"><ele>218.0</ele><time>2026-04-04T11:54:42.721Z</time></trkpt><trkpt lat="44.1278836" lon="9.9897688"><ele>217.25</ele><time>2026-04-04T11:54:43.736Z</time></trkpt><trkpt lat="44.1279091" lon="9.9896191"><ele>216.5</ele><time>2026-04-04T11:54:44.739Z</time></trkpt><trkpt lat="44.1279305" lon="9.9894685"><ele>215.75</ele><time>2026-04-04T11:54:45.731Z</time></trkpt><trkpt lat="44.1279539" lon="9.9893101"><ele>215.0</ele><time>2026-04-04T11:54:46.737Z</time></trkpt><trkpt lat="44.1279766" lon="9.9891413"><ele>213.75</ele><time>2026-04-04T11:54:47.738Z</time></trkpt><trkpt lat="44.1279895" lon="9.9889751"><ele>212.5</ele><time>2026-04-04T11:54:48.735Z</time></trkpt><trkpt lat="44.1279915" lon="9.9888084"><ele>211.25</ele><time>2026-04-04T11:54:49.736Z</time></trkpt><trkpt lat="44.1279958" lon="9.9886466"><ele>210.0</ele><time>2026-04-04T11:54:50.732Z</time></trkpt><trkpt lat="44.1279949" lon="9.9884899"><ele>209.25</ele><time>2026-04-04T11:54:51.757Z</time></trkpt><trkpt lat="44.1279851" lon="9.9883269"><ele>208.5</ele><time>2026-04-04T11:54:52.734Z</time></trkpt><trkpt lat="44.1279688" lon="9.9881458"><ele>207.75</ele><time>2026-04-04T11:54:53.726Z</time></trkpt><trkpt lat="44.127952" lon="9.9879669"><ele>207.0</ele><time>2026-04-04T11:54:54.737Z</time></trkpt><trkpt lat="44.1279371" lon="9.9878005"><ele>207.0</ele><time>2026-04-04T11:54:55.74Z</time></trkpt><trkpt lat="44.1279198" lon="9.9876432"><ele>207.0</ele><time>2026-04-04T11:54:56.733Z</time></trkpt><trkpt lat="44.1278901" lon="9.9874994"><ele>207.0</ele><time>2026-04-04T11:54:57.734Z</time></trkpt><trkpt lat="44.127839" lon="9.9873756"><ele>207.0</ele><time>2026-04-04T11:54:58.728Z</time></trkpt><trkpt lat="44.1277534" lon="9.9872709"><ele>207.0</ele><time>2026-04-04T11:54:59.726Z</time></trkpt><trkpt lat="44.1276632" lon="9.9871626"><ele>207.0</ele><time>2026-04-04T11:55:00.73Z</time></trkpt><trkpt lat="44.1275941" lon="9.9870435"><ele>207.0</ele><time>2026-04-04T11:55:01.733Z</time></trkpt><trkpt lat="44.127561" lon="9.9869095"><ele>207.0</ele><time>2026-04-04T11:55:02.727Z</time></trkpt><trkpt lat="44.1275371" lon="9.9867374"><ele>207.0</ele><time>2026-04-04T11:55:03.729Z</time></trkpt><trkpt lat="44.1275191" lon="9.9865489"><ele>207.0</ele><time>2026-04-04T11:55:04.728Z</time></trkpt><trkpt lat="44.127505" lon="9.9863578"><ele>207.0</ele><time>2026-04-04T11:55:05.719Z</time></trkpt><trkpt lat="44.1274975" lon="9.9861729"><ele>207.0</ele><time>2026-04-04T11:55:06.725Z</time></trkpt><trkpt lat="44.1274867" lon="9.9860003"><ele>207.0</ele><time>2026-04-04T11:55:07.729Z</time></trkpt><trkpt lat="44.1274407" lon="9.9858457"><ele>201.8</ele><time>2026-04-04T11:55:08.729Z</time></trkpt><trkpt lat="44.1273716" lon="9.9857158"><ele>196.6</ele><time>2026-04-04T11:55:09.735Z</time></trkpt><trkpt lat="44.1272974" lon="9.9856049"><ele>191.4</ele><time>2026-04-04T11:55:10.721Z</time></trkpt><trkpt lat="44.1272479" lon="9.9855055"><ele>186.20000000000002</ele><time>2026-04-04T11:55:11.731Z</time></trkpt><trkpt lat="44.1272546" lon="9.9854033"><ele>181.0</ele><time>2026-04-04T11:55:12.724Z</time></trkpt><trkpt lat="44.1272835" lon="9.9852937"><ele>181.0</ele><time>2026-04-04T11:55:13.728Z</time></trkpt><trkpt lat="44.1273067" lon="9.9851673"><ele>181.0</ele><time>2026-04-04T11:55:14.731Z</time></trkpt><trkpt lat="44.1272982" lon="9.9850388"><ele>181.0</ele><time>2026-04-04T11:55:15.725Z</time></trkpt><trkpt lat="44.1272534" lon="9.984929"><ele>181.0</ele><time>2026-04-04T11:55:16.729Z</time></trkpt><trkpt lat="44.1271691" lon="9.984843"><ele>181.0</ele><time>2026-04-04T11:55:17.728Z</time></trkpt><trkpt lat="44.1270575" lon="9.9847635"><ele>181.75</ele><time>2026-04-04T11:55:18.724Z</time></trkpt><trkpt lat="44.1269563" lon="9.9846745"><ele>182.5</ele><time>2026-04-04T11:55:19.722Z</time></trkpt><trkpt lat="44.126874" lon="9.9845683"><ele>183.25</ele><time>2026-04-04T11:55:20.718Z</time></trkpt><trkpt lat="44.1268167" lon="9.9844315"><ele>184.0</ele><time>2026-04-04T11:55:21.723Z</time></trkpt><trkpt lat="44.1267649" lon="9.9843005"><ele>184.79999999999998</ele><time>2026-04-04T11:55:22.743Z</time></trkpt><trkpt lat="44.1267108" lon="9.9841734"><ele>185.6</ele><time>2026-04-04T11:55:23.722Z</time></trkpt><trkpt lat="44.1266632" lon="9.9840412"><ele>186.4</ele><time>2026-04-04T11:55:24.722Z</time></trkpt><trkpt lat="44.1266265" lon="9.9839119"><ele>187.2</ele><time>2026-04-04T11:55:25.726Z</time></trkpt><trkpt lat="44.1265989" lon="9.9837848"><ele>188.0</ele><time>2026-04-04T11:55:26.725Z</time></trkpt><trkpt lat="44.1266036" lon="9.9836593"><ele>188.0</ele><time>2026-04-04T11:55:27.735Z</time></trkpt><trkpt lat="44.1266446" lon="9.9835376"><ele>188.0</ele><time>2026-04-04T11:55:28.725Z</time></trkpt><trkpt lat="44.126727" lon="9.9834123"><ele>188.0</ele><time>2026-04-04T11:55:29.721Z</time></trkpt><trkpt lat="44.126821" lon="9.9832678"><ele>188.0</ele><time>2026-04-04T11:55:30.727Z</time></trkpt><trkpt lat="44.1269151" lon="9.9831106"><ele>186.5</ele><time>2026-04-04T11:55:31.719Z</time></trkpt><trkpt lat="44.1270047" lon="9.9829516"><ele>185.0</ele><time>2026-04-04T11:55:32.72Z</time></trkpt><trkpt lat="44.1270894" lon="9.9827998"><ele>183.5</ele><time>2026-04-04T11:55:33.722Z</time></trkpt><trkpt lat="44.1271477" lon="9.9826646"><ele>182.0</ele><time>2026-04-04T11:55:34.728Z</time></trkpt><trkpt lat="44.1271682" lon="9.9825388"><ele>180.25</ele><time>2026-04-04T11:55:35.724Z</time></trkpt><trkpt lat="44.127132" lon="9.9824119"><ele>178.5</ele><time>2026-04-04T11:55:36.716Z</time></trkpt><trkpt lat="44.127066" lon="9.9822704"><ele>176.75</ele><time>2026-04-04T11:55:37.722Z</time></trkpt><trkpt lat="44.1269862" lon="9.982146"><ele>175.0</ele><time>2026-04-04T11:55:38.723Z</time></trkpt><trkpt lat="44.1268981" lon="9.9820102"><ele>175.0</ele><time>2026-04-04T11:55:39.713Z</time></trkpt><trkpt lat="44.1267919" lon="9.9818944"><ele>175.0</ele><time>2026-04-04T11:55:40.731Z</time></trkpt><trkpt lat="44.1266754" lon="9.9817955"><ele>175.0</ele><time>2026-04-04T11:55:41.728Z</time></trkpt><trkpt lat="44.1265553" lon="9.9817034"><ele>175.0</ele><time>2026-04-04T11:55:42.726Z</time></trkpt><trkpt lat="44.1264586" lon="9.9816082"><ele>171.0</ele><time>2026-04-04T11:55:43.726Z</time></trkpt><trkpt lat="44.1263882" lon="9.9815021"><ele>167.0</ele><time>2026-04-04T11:55:44.732Z</time></trkpt><trkpt lat="44.1263754" lon="9.9813621"><ele>163.0</ele><time>2026-04-04T11:55:45.734Z</time></trkpt><trkpt lat="44.1264035" lon="9.9811987"><ele>159.0</ele><time>2026-04-04T11:55:46.726Z</time></trkpt><trkpt lat="44.1264488" lon="9.981021"><ele>159.0</ele><time>2026-04-04T11:55:47.723Z</time></trkpt><trkpt lat="44.1265075" lon="9.9808215"><ele>159.0</ele><time>2026-04-04T11:55:48.718Z</time></trkpt><trkpt lat="44.1265742" lon="9.9806162"><ele>159.0</ele><time>2026-04-04T11:55:49.725Z</time></trkpt><trkpt lat="44.1266546" lon="9.9804294"><ele>160.4</ele><time>2026-04-04T11:55:50.73Z</time></trkpt><trkpt lat="44.1267044" lon="9.9802676"><ele>161.8</ele><time>2026-04-04T11:55:51.727Z</time></trkpt><trkpt lat="44.1267213" lon="9.9801224"><ele>163.20000000000002</ele><time>2026-04-04T11:55:52.732Z</time></trkpt><trkpt lat="44.126716" lon="9.9799921"><ele>164.60000000000002</ele><time>2026-04-04T11:55:53.753Z</time></trkpt><trkpt lat="44.1266361" lon="9.979868"><ele>166.0</ele><time>2026-04-04T11:55:54.722Z</time></trkpt><trkpt lat="44.1265519" lon="9.9797317"><ele>162.25</ele><time>2026-04-04T11:55:55.724Z</time></trkpt><trkpt lat="44.1264858" lon="9.9795712"><ele>158.5</ele><time>2026-04-04T11:55:56.751Z</time></trkpt><trkpt lat="44.1264416" lon="9.9794098"><ele>154.75</ele><time>2026-04-04T11:55:57.728Z</time></trkpt><trkpt lat="44.1263972" lon="9.9792391"><ele>151.0</ele><time>2026-04-04T11:55:58.729Z</time></trkpt><trkpt lat="44.1263471" lon="9.9790619"><ele>149.0</ele><time>2026-04-04T11:55:59.736Z</time></trkpt><trkpt lat="44.1262987" lon="9.9788805"><ele>147.0</ele><time>2026-04-04T11:56:00.734Z</time></trkpt><trkpt lat="44.1262862" lon="9.9786908"><ele>145.0</ele><time>2026-04-04T11:56:01.733Z</time></trkpt><trkpt lat="44.1263037" lon="9.9784985"><ele>143.0</ele><time>2026-04-04T11:56:02.724Z</time></trkpt><trkpt lat="44.1263153" lon="9.9783093"><ele>142.4</ele><time>2026-04-04T11:56:03.74Z</time></trkpt><trkpt lat="44.1263235" lon="9.9781425"><ele>141.8</ele><time>2026-04-04T11:56:04.732Z</time></trkpt><trkpt lat="44.1263312" lon="9.9780136"><ele>141.2</ele><time>2026-04-04T11:56:05.729Z</time></trkpt><trkpt lat="44.1263286" lon="9.9779089"><ele>140.6</ele><time>2026-04-04T11:56:06.731Z</time></trkpt><trkpt lat="44.1262745" lon="9.9778026"><ele>140.0</ele><time>2026-04-04T11:56:08.722Z</time></trkpt><trkpt lat="44.1261526" lon="9.9777576"><ele>140.0</ele><time>2026-04-04T11:56:10.722Z</time></trkpt><trkpt lat="44.1260721" lon="9.9777445"><ele>140.0</ele><time>2026-04-04T11:56:11.716Z</time></trkpt><trkpt lat="44.1259869" lon="9.9777396"><ele>140.0</ele><time>2026-04-04T11:56:12.736Z</time></trkpt><trkpt lat="44.1258985" lon="9.9777406"><ele>140.0</ele><time>2026-04-04T11:56:13.739Z</time></trkpt><trkpt lat="44.1258185" lon="9.9777642"><ele>140.0</ele><time>2026-04-04T11:56:14.731Z</time></trkpt><trkpt lat="44.1257572" lon="9.977843"><ele>140.0</ele><time>2026-04-04T11:56:15.722Z</time></trkpt><trkpt lat="44.1256879" lon="9.9779484"><ele>138.2</ele><time>2026-04-04T11:56:16.73Z</time></trkpt><trkpt lat="44.1256181" lon="9.9780274"><ele>136.4</ele><time>2026-04-04T11:56:17.725Z</time></trkpt><trkpt lat="44.1255453" lon="9.9781133"><ele>134.6</ele><time>2026-04-04T11:56:18.736Z</time></trkpt><trkpt lat="44.1254809" lon="9.978218"><ele>132.8</ele><time>2026-04-04T11:56:19.719Z</time></trkpt><trkpt lat="44.1254301" lon="9.9783442"><ele>131.0</ele><time>2026-04-04T11:56:20.732Z</time></trkpt><trkpt lat="44.125385" lon="9.978478"><ele>131.0</ele><time>2026-04-04T11:56:21.726Z</time></trkpt><trkpt lat="44.1253382" lon="9.9786005"><ele>131.0</ele><time>2026-04-04T11:56:22.729Z</time></trkpt><trkpt lat="44.1252768" lon="9.9787086"><ele>131.0</ele><time>2026-04-04T11:56:23.743Z</time></trkpt><trkpt lat="44.1252008" lon="9.9788064"><ele>131.0</ele><time>2026-04-04T11:56:24.711Z</time></trkpt><trkpt lat="44.1251295" lon="9.9788934"><ele>131.0</ele><time>2026-04-04T11:56:25.718Z</time></trkpt><trkpt lat="44.1250689" lon="9.9789879"><ele>131.0</ele><time>2026-04-04T11:56:26.728Z</time></trkpt><trkpt lat="44.1250194" lon="9.9790913"><ele>131.0</ele><time>2026-04-04T11:56:27.721Z</time></trkpt><trkpt lat="44.1249677" lon="9.9791916"><ele>131.0</ele><time>2026-04-04T11:56:28.724Z</time></trkpt><trkpt lat="44.1249089" lon="9.9792716"><ele>131.0</ele><time>2026-04-04T11:56:29.72Z</time></trkpt><trkpt lat="44.1248355" lon="9.979315"><ele>131.0</ele><time>2026-04-04T11:56:30.736Z</time></trkpt><trkpt lat="44.1247511" lon="9.9793309"><ele>131.0</ele><time>2026-04-04T11:56:31.73Z</time></trkpt><trkpt lat="44.1246652" lon="9.9793245"><ele>131.66666666666666</ele><time>2026-04-04T11:56:32.728Z</time></trkpt><trkpt lat="44.1245778" lon="9.9793065"><ele>132.33333333333331</ele><time>2026-04-04T11:56:33.736Z</time></trkpt><trkpt lat="44.1244882" lon="9.9792853"><ele>133.0</ele><time>2026-04-04T11:56:34.735Z</time></trkpt><trkpt lat="44.1243928" lon="9.9792606"><ele>133.66666666666666</ele><time>2026-04-04T11:56:35.732Z</time></trkpt><trkpt lat="44.1243034" lon="9.9792413"><ele>134.33333333333334</ele><time>2026-04-04T11:56:36.728Z</time></trkpt><trkpt lat="44.124223" lon="9.9792231"><ele>135.0</ele><time>2026-04-04T11:56:37.735Z</time></trkpt><trkpt lat="44.1241505" lon="9.9792147"><ele>135.0</ele><time>2026-04-04T11:56:38.731Z</time></trkpt><trkpt lat="44.1240818" lon="9.9792059"><ele>135.0</ele><time>2026-04-04T11:56:39.744Z</time></trkpt><trkpt lat="44.1239617" lon="9.9791981"><ele>135.0</ele><time>2026-04-04T11:56:41.734Z</time></trkpt><trkpt lat="44.1238424" lon="9.9791861"><ele>135.0</ele><time>2026-04-04T11:56:43.737Z</time></trkpt><trkpt lat="44.1237265" lon="9.9791987"><ele>135.0</ele><time>2026-04-04T11:56:45.735Z</time></trkpt><trkpt lat="44.1236066" lon="9.9792241"><ele>132.66666666666666</ele><time>2026-04-04T11:56:47.733Z</time></trkpt><trkpt lat="44.1234767" lon="9.9792608"><ele>130.33333333333334</ele><time>2026-04-04T11:56:49.743Z</time></trkpt><trkpt lat="44.1234097" lon="9.9792802"><ele>128.0</ele><time>2026-04-04T11:56:50.728Z</time></trkpt><trkpt lat="44.1233461" lon="9.9793035"><ele>125.66666666666667</ele><time>2026-04-04T11:56:51.728Z</time></trkpt><trkpt lat="44.1232837" lon="9.9793262"><ele>123.33333333333334</ele><time>2026-04-04T11:56:52.721Z</time></trkpt><trkpt lat="44.1232181" lon="9.979349"><ele>121.0</ele><time>2026-04-04T11:56:53.747Z</time></trkpt><trkpt lat="44.1231538" lon="9.9793748"><ele>118.83333333333334</ele><time>2026-04-04T11:56:54.739Z</time></trkpt><trkpt lat="44.1230769" lon="9.9794081"><ele>116.66666666666667</ele><time>2026-04-04T11:56:55.723Z</time></trkpt><trkpt lat="44.1229967" lon="9.9794465"><ele>114.5</ele><time>2026-04-04T11:56:56.729Z</time></trkpt><trkpt lat="44.1229141" lon="9.9794695"><ele>112.33333333333334</ele><time>2026-04-04T11:56:57.72Z</time></trkpt><trkpt lat="44.1228332" lon="9.9794746"><ele>110.16666666666667</ele><time>2026-04-04T11:56:58.732Z</time></trkpt><trkpt lat="44.1227506" lon="9.9794542"><ele>108.0</ele><time>2026-04-04T11:56:59.735Z</time></trkpt><trkpt lat="44.1226567" lon="9.9794044"><ele>108.0</ele><time>2026-04-04T11:57:00.767Z</time></trkpt><trkpt lat="44.1225634" lon="9.9793352"><ele>108.00000000000001</ele><time>2026-04-04T11:57:01.733Z</time></trkpt><trkpt lat="44.122469" lon="9.9792602"><ele>108.00000000000001</ele><time>2026-04-04T11:57:02.735Z</time></trkpt><trkpt lat="44.1223689" lon="9.9791851"><ele>108.0</ele><time>2026-04-04T11:57:03.74Z</time></trkpt><trkpt lat="44.1222696" lon="9.9791055"><ele>108.0</ele><time>2026-04-04T11:57:04.738Z</time></trkpt><trkpt lat="44.1221705" lon="9.9790046"><ele>107.60000000000001</ele><time>2026-04-04T11:57:05.741Z</time></trkpt><trkpt lat="44.1220842" lon="9.9788867"><ele>107.20000000000002</ele><time>2026-04-04T11:57:06.739Z</time></trkpt><trkpt lat="44.1220072" lon="9.9787636"><ele>106.8</ele><time>2026-04-04T11:57:07.74Z</time></trkpt><trkpt lat="44.1219402" lon="9.9786478"><ele>106.4</ele><time>2026-04-04T11:57:08.738Z</time></trkpt><trkpt lat="44.1218836" lon="9.9785354"><ele>106.0</ele><time>2026-04-04T11:57:09.738Z</time></trkpt><trkpt lat="44.1218313" lon="9.9784235"><ele>107.0</ele><time>2026-04-04T11:57:10.73Z</time></trkpt><trkpt lat="44.1217873" lon="9.9783007"><ele>108.0</ele><time>2026-04-04T11:57:11.73Z</time></trkpt><trkpt lat="44.1217481" lon="9.9781582"><ele>109.0</ele><time>2026-04-04T11:57:12.735Z</time></trkpt><trkpt lat="44.1217205" lon="9.9779969"><ele>110.0</ele><time>2026-04-04T11:57:13.737Z</time></trkpt><trkpt lat="44.1216928" lon="9.9778195"><ele>110.0</ele><time>2026-04-04T11:57:14.735Z</time></trkpt><trkpt lat="44.1216557" lon="9.9776512"><ele>110.0</ele><time>2026-04-04T11:57:15.729Z</time></trkpt><trkpt lat="44.1216138" lon="9.9774934"><ele>110.0</ele><time>2026-04-04T11:57:16.734Z</time></trkpt><trkpt lat="44.1215664" lon="9.9773465"><ele>110.0</ele><time>2026-04-04T11:57:17.718Z</time></trkpt><trkpt lat="44.1215148" lon="9.9771991"><ele>107.6</ele><time>2026-04-04T11:57:18.734Z</time></trkpt><trkpt lat="44.1214687" lon="9.9770604"><ele>105.2</ele><time>2026-04-04T11:57:19.73Z</time></trkpt><trkpt lat="44.121429" lon="9.9769207"><ele>102.80000000000001</ele><time>2026-04-04T11:57:20.733Z</time></trkpt><trkpt lat="44.1213939" lon="9.9767879"><ele>100.4</ele><time>2026-04-04T11:57:21.736Z</time></trkpt><trkpt lat="44.1213707" lon="9.9766749"><ele>98.0</ele><time>2026-04-04T11:57:22.738Z</time></trkpt><trkpt lat="44.1213661" lon="9.9765732"><ele>97.99999999999999</ele><time>2026-04-04T11:57:23.721Z</time></trkpt><trkpt lat="44.1213849" lon="9.9764617"><ele>98.0</ele><time>2026-04-04T11:57:24.73Z</time></trkpt><trkpt lat="44.1214116" lon="9.9763522"><ele>98.0</ele><time>2026-04-04T11:57:25.738Z</time></trkpt><trkpt lat="44.1214495" lon="9.9762374"><ele>98.0</ele><time>2026-04-04T11:57:26.733Z</time></trkpt><trkpt lat="44.1214949" lon="9.9761193"><ele>97.99999999999999</ele><time>2026-04-04T11:57:27.729Z</time></trkpt><trkpt lat="44.121542" lon="9.976002"><ele>98.0</ele><time>2026-04-04T11:57:28.729Z</time></trkpt><trkpt lat="44.1215834" lon="9.9758921"><ele>97.60000000000001</ele><time>2026-04-04T11:57:29.714Z</time></trkpt><trkpt lat="44.121616" lon="9.9757849"><ele>97.2</ele><time>2026-04-04T11:57:30.719Z</time></trkpt><trkpt lat="44.1216307" lon="9.975671"><ele>96.8</ele><time>2026-04-04T11:57:31.726Z</time></trkpt><trkpt lat="44.1216191" lon="9.9755377"><ele>96.4</ele><time>2026-04-04T11:57:32.714Z</time></trkpt><trkpt lat="44.1215847" lon="9.9753978"><ele>96.0</ele><time>2026-04-04T11:57:33.73Z</time></trkpt><trkpt lat="44.1215502" lon="9.9752581"><ele>95.0</ele><time>2026-04-04T11:57:34.722Z</time></trkpt><trkpt lat="44.1215158" lon="9.9751248"><ele>94.0</ele><time>2026-04-04T11:57:35.726Z</time></trkpt><trkpt lat="44.1214674" lon="9.9749991"><ele>93.0</ele><time>2026-04-04T11:57:36.739Z</time></trkpt><trkpt lat="44.121391" lon="9.9748771"><ele>92.0</ele><time>2026-04-04T11:57:37.73Z</time></trkpt><trkpt lat="44.1213235" lon="9.9747262"><ele>91.0</ele><time>2026-04-04T11:57:38.736Z</time></trkpt><trkpt lat="44.1212869" lon="9.9745398"><ele>85.33333333333333</ele><time>2026-04-04T11:57:39.755Z</time></trkpt><trkpt lat="44.1212707" lon="9.9743306"><ele>79.66666666666667</ele><time>2026-04-04T11:57:40.756Z</time></trkpt><trkpt lat="44.121249" lon="9.9741051"><ele>74.0</ele><time>2026-04-04T11:57:41.724Z</time></trkpt><trkpt lat="44.1212183" lon="9.973889"><ele>73.5</ele><time>2026-04-04T11:57:42.727Z</time></trkpt><trkpt lat="44.1211818" lon="9.9736801"><ele>73.0</ele><time>2026-04-04T11:57:43.728Z</time></trkpt><trkpt lat="44.1211533" lon="9.9734764"><ele>72.5</ele><time>2026-04-04T11:57:44.727Z</time></trkpt><trkpt lat="44.1211156" lon="9.9732807"><ele>72.0</ele><time>2026-04-04T11:57:45.726Z</time></trkpt><trkpt lat="44.1210699" lon="9.9730911"><ele>70.75</ele><time>2026-04-04T11:57:46.733Z</time></trkpt><trkpt lat="44.1210233" lon="9.9729046"><ele>69.5</ele><time>2026-04-04T11:57:47.725Z</time></trkpt><trkpt lat="44.1209826" lon="9.9727236"><ele>68.25</ele><time>2026-04-04T11:57:48.733Z</time></trkpt><trkpt lat="44.1209495" lon="9.9725565"><ele>67.0</ele><time>2026-04-04T11:57:49.734Z</time></trkpt><trkpt lat="44.1209174" lon="9.9723846"><ele>65.75</ele><time>2026-04-04T11:57:50.732Z</time></trkpt><trkpt lat="44.1208902" lon="9.9722047"><ele>64.5</ele><time>2026-04-04T11:57:51.733Z</time></trkpt><trkpt lat="44.1208709" lon="9.9720315"><ele>63.25</ele><time>2026-04-04T11:57:52.731Z</time></trkpt><trkpt lat="44.1208673" lon="9.9718545"><ele>62.0</ele><time>2026-04-04T11:57:53.735Z</time></trkpt><trkpt lat="44.1208923" lon="9.9716575"><ele>60.333333333333336</ele><time>2026-04-04T11:57:54.723Z</time></trkpt><trkpt lat="44.1209378" lon="9.9714478"><ele>58.66666666666667</ele><time>2026-04-04T11:57:55.718Z</time></trkpt><trkpt lat="44.12099" lon="9.9712372"><ele>57.0</ele><time>2026-04-04T11:57:56.725Z</time></trkpt><trkpt lat="44.1210112" lon="9.9710464"><ele>57.0</ele><time>2026-04-04T11:57:57.724Z</time></trkpt><trkpt lat="44.1210176" lon="9.9708759"><ele>57.0</ele><time>2026-04-04T11:57:58.725Z</time></trkpt><trkpt lat="44.1210271" lon="9.9707272"><ele>57.0</ele><time>2026-04-04T11:57:59.729Z</time></trkpt><trkpt lat="44.121041" lon="9.9706199"><ele>57.0</ele><time>2026-04-04T11:58:00.719Z</time></trkpt><trkpt lat="44.121061" lon="9.9705019"><ele>57.0</ele><time>2026-04-04T11:58:02.722Z</time></trkpt><trkpt lat="44.1210773" lon="9.9703921"><ele>55.2</ele><time>2026-04-04T11:58:04.729Z</time></trkpt><trkpt lat="44.1210223" lon="9.9702259"><ele>53.400000000000006</ele><time>2026-04-04T11:58:06.731Z</time></trkpt><trkpt lat="44.1209591" lon="9.9701332"><ele>51.599999999999994</ele><time>2026-04-04T11:58:07.733Z</time></trkpt><trkpt lat="44.1208804" lon="9.970036"><ele>49.8</ele><time>2026-04-04T11:58:08.736Z</time></trkpt><trkpt lat="44.1207752" lon="9.9699566"><ele>48.0</ele><time>2026-04-04T11:58:09.728Z</time></trkpt><trkpt lat="44.1206409" lon="9.9698848"><ele>46.5</ele><time>2026-04-04T11:58:10.726Z</time></trkpt><trkpt lat="44.1204961" lon="9.9698155"><ele>45.0</ele><time>2026-04-04T11:58:11.735Z</time></trkpt><trkpt lat="44.1203554" lon="9.9697448"><ele>43.5</ele><time>2026-04-04T11:58:12.727Z</time></trkpt><trkpt lat="44.1202204" lon="9.9696895"><ele>42.0</ele><time>2026-04-04T11:58:13.733Z</time></trkpt><trkpt lat="44.1200912" lon="9.9696499"><ele>42.0</ele><time>2026-04-04T11:58:14.736Z</time></trkpt><trkpt lat="44.119963" lon="9.9695827"><ele>42.0</ele><time>2026-04-04T11:58:15.732Z</time></trkpt><trkpt lat="44.1198405" lon="9.9694999"><ele>42.0</ele><time>2026-04-04T11:58:16.732Z</time></trkpt><trkpt lat="44.1197291" lon="9.9694127"><ele>42.0</ele><time>2026-04-04T11:58:17.734Z</time></trkpt><trkpt lat="44.1196255" lon="9.9693112"><ele>41.75</ele><time>2026-04-04T11:58:18.735Z</time></trkpt><trkpt lat="44.1195335" lon="9.96916"><ele>41.5</ele><time>2026-04-04T11:58:19.734Z</time></trkpt><trkpt lat="44.1194407" lon="9.9690041"><ele>41.25</ele><time>2026-04-04T11:58:20.734Z</time></trkpt><trkpt lat="44.1193305" lon="9.9688618"><ele>41.0</ele><time>2026-04-04T11:58:21.736Z</time></trkpt><trkpt lat="44.1192116" lon="9.9687037"><ele>41.0</ele><time>2026-04-04T11:58:22.733Z</time></trkpt><trkpt lat="44.1190905" lon="9.9685592"><ele>41.0</ele><time>2026-04-04T11:58:23.736Z</time></trkpt><trkpt lat="44.1189727" lon="9.9684239"><ele>41.0</ele><time>2026-04-04T11:58:24.735Z</time></trkpt><trkpt lat="44.1188518" lon="9.9682974"><ele>39.666666666666664</ele><time>2026-04-04T11:58:25.729Z</time></trkpt><trkpt lat="44.11873" lon="9.9681687"><ele>38.333333333333336</ele><time>2026-04-04T11:58:26.732Z</time></trkpt><trkpt lat="44.118614" lon="9.968044"><ele>37.0</ele><time>2026-04-04T11:58:27.744Z</time></trkpt><trkpt lat="44.118496" lon="9.9679139"><ele>37.0</ele><time>2026-04-04T11:58:28.734Z</time></trkpt><trkpt lat="44.1183826" lon="9.9677892"><ele>37.0</ele><time>2026-04-04T11:58:29.753Z</time></trkpt><trkpt lat="44.1182736" lon="9.9676579"><ele>37.0</ele><time>2026-04-04T11:58:30.741Z</time></trkpt><trkpt lat="44.1181735" lon="9.9675314"><ele>37.0</ele><time>2026-04-04T11:58:31.732Z</time></trkpt><trkpt lat="44.1180884" lon="9.9673966"><ele>36.0</ele><time>2026-04-04T11:58:32.731Z</time></trkpt><trkpt lat="44.1179969" lon="9.9672684"><ele>35.0</ele><time>2026-04-04T11:58:33.732Z</time></trkpt><trkpt lat="44.1178961" lon="9.9671658"><ele>34.0</ele><time>2026-04-04T11:58:34.732Z</time></trkpt><trkpt lat="44.1177943" lon="9.9670786"><ele>33.0</ele><time>2026-04-04T11:58:35.728Z</time></trkpt><trkpt lat="44.1177144" lon="9.9670104"><ele>33.0</ele><time>2026-04-04T11:58:36.725Z</time></trkpt><trkpt lat="44.1176535" lon="9.966952"><ele>33.0</ele><time>2026-04-04T11:58:37.734Z</time></trkpt><trkpt lat="44.1175777" lon="9.9668846"><ele>33.0</ele><time>2026-04-04T11:58:39.72Z</time></trkpt><trkpt lat="44.1176122" lon="9.9667623"><ele>33.0</ele><time>2026-04-04T11:58:42.729Z</time></trkpt><trkpt lat="44.1177187" lon="9.9666364"><ele>33.0</ele><time>2026-04-04T11:58:44.726Z</time></trkpt><trkpt lat="44.1177803" lon="9.966541"><ele>33.4</ele><time>2026-04-04T11:58:45.733Z</time></trkpt><trkpt lat="44.1178569" lon="9.9664257"><ele>33.8</ele><time>2026-04-04T11:58:46.729Z</time></trkpt><trkpt lat="44.1179407" lon="9.9662967"><ele>34.2</ele><time>2026-04-04T11:58:47.746Z</time></trkpt><trkpt lat="44.1180034" lon="9.9662029"><ele>34.6</ele><time>2026-04-04T11:58:48.742Z</time></trkpt><trkpt lat="44.118049" lon="9.9661423"><ele>35.0</ele><time>2026-04-04T11:58:49.747Z</time></trkpt><trkpt lat="44.1181347" lon="9.9659993"><ele>35.0</ele><time>2026-04-04T11:58:51.728Z</time></trkpt><trkpt lat="44.1181949" lon="9.9659045"><ele>35.0</ele><time>2026-04-04T11:58:52.723Z</time></trkpt><trkpt lat="44.118247" lon="9.9658046"><ele>35.0</ele><time>2026-04-04T11:58:53.731Z</time></trkpt><trkpt lat="44.1182602" lon="9.9657021"><ele>35.0</ele><time>2026-04-04T11:58:54.728Z</time></trkpt><trkpt lat="44.1182249" lon="9.9655953"><ele>35.0</ele><time>2026-04-04T11:58:55.734Z</time></trkpt><trkpt lat="44.1181432" lon="9.9654824"><ele>35.0</ele><time>2026-04-04T11:58:56.729Z</time></trkpt><trkpt lat="44.1180429" lon="9.9653664"><ele>35.0</ele><time>2026-04-04T11:58:57.73Z</time></trkpt><trkpt lat="44.1179342" lon="9.9652385"><ele>35.0</ele><time>2026-04-04T11:58:58.74Z</time></trkpt><trkpt lat="44.117828" lon="9.965117"><ele>35.0</ele><time>2026-04-04T11:58:59.729Z</time></trkpt><trkpt lat="44.117726" lon="9.9650044"><ele>35.0</ele><time>2026-04-04T11:59:00.732Z</time></trkpt><trkpt lat="44.1176426" lon="9.9648952"><ele>35.0</ele><time>2026-04-04T11:59:01.731Z</time></trkpt><trkpt lat="44.117569" lon="9.9647777"><ele>35.0</ele><time>2026-04-04T11:59:02.731Z</time></trkpt><trkpt lat="44.1174852" lon="9.964665"><ele>35.0</ele><time>2026-04-04T11:59:03.731Z</time></trkpt><trkpt lat="44.1174005" lon="9.9645555"><ele>34.75</ele><time>2026-04-04T11:59:04.723Z</time></trkpt><trkpt lat="44.1173125" lon="9.9644428"><ele>34.5</ele><time>2026-04-04T11:59:05.729Z</time></trkpt><trkpt lat="44.117214" lon="9.9643226"><ele>34.25</ele><time>2026-04-04T11:59:06.72Z</time></trkpt><trkpt lat="44.1171083" lon="9.9641884"><ele>34.0</ele><time>2026-04-04T11:59:07.73Z</time></trkpt><trkpt lat="44.116997" lon="9.964049"><ele>34.0</ele><time>2026-04-04T11:59:08.733Z</time></trkpt><trkpt lat="44.1168818" lon="9.9639114"><ele>34.0</ele><time>2026-04-04T11:59:09.731Z</time></trkpt><trkpt lat="44.1167694" lon="9.9637996"><ele>34.0</ele><time>2026-04-04T11:59:10.734Z</time></trkpt><trkpt lat="44.1166613" lon="9.9636993"><ele>34.0</ele><time>2026-04-04T11:59:11.736Z</time></trkpt><trkpt lat="44.1165655" lon="9.9636018"><ele>33.66666666666667</ele><time>2026-04-04T11:59:12.73Z</time></trkpt><trkpt lat="44.1164798" lon="9.9635221"><ele>33.333333333333336</ele><time>2026-04-04T11:59:13.729Z</time></trkpt><trkpt lat="44.1164122" lon="9.9634491"><ele>33.0</ele><time>2026-04-04T11:59:14.731Z</time></trkpt><trkpt lat="44.1163445" lon="9.9633962"><ele>32.666666666666664</ele><time>2026-04-04T11:59:15.731Z</time></trkpt><trkpt lat="44.1162766" lon="9.963334"><ele>32.33333333333333</ele><time>2026-04-04T11:59:16.731Z</time></trkpt><trkpt lat="44.1162064" lon="9.9632721"><ele>32.0</ele><time>2026-04-04T11:59:17.73Z</time></trkpt><trkpt lat="44.1161352" lon="9.9631979"><ele>31.6</ele><time>2026-04-04T11:59:18.726Z</time></trkpt><trkpt lat="44.1160571" lon="9.9631119"><ele>31.200000000000003</ele><time>2026-04-04T11:59:19.723Z</time></trkpt><trkpt lat="44.1159806" lon="9.9630035"><ele>30.8</ele><time>2026-04-04T11:59:20.728Z</time></trkpt><trkpt lat="44.1158993" lon="9.9628989"><ele>30.4</ele><time>2026-04-04T11:59:21.747Z</time></trkpt><trkpt lat="44.1158013" lon="9.9628027"><ele>30.0</ele><time>2026-04-04T11:59:22.732Z</time></trkpt><trkpt lat="44.1156939" lon="9.9627155"><ele>29.5</ele><time>2026-04-04T11:59:23.752Z</time></trkpt><trkpt lat="44.1155783" lon="9.9626351"><ele>29.0</ele><time>2026-04-04T11:59:24.73Z</time></trkpt><trkpt lat="44.1154647" lon="9.962551"><ele>28.5</ele><time>2026-04-04T11:59:25.753Z</time></trkpt><trkpt lat="44.1153533" lon="9.962455"><ele>28.0</ele><time>2026-04-04T11:59:26.728Z</time></trkpt><trkpt lat="44.1152544" lon="9.962343"><ele>28.0</ele><time>2026-04-04T11:59:27.734Z</time></trkpt><trkpt lat="44.1151665" lon="9.9622274"><ele>27.999999999999996</ele><time>2026-04-04T11:59:28.728Z</time></trkpt><trkpt lat="44.1150842" lon="9.9621204"><ele>27.999999999999996</ele><time>2026-04-04T11:59:29.743Z</time></trkpt><trkpt lat="44.1150065" lon="9.9620293"><ele>28.0</ele><time>2026-04-04T11:59:30.742Z</time></trkpt><trkpt lat="44.1149279" lon="9.9619749"><ele>28.0</ele><time>2026-04-04T11:59:31.733Z</time></trkpt><trkpt lat="44.1148463" lon="9.9619898"><ele>28.2</ele><time>2026-04-04T11:59:32.727Z</time></trkpt><trkpt lat="44.1147567" lon="9.9619965"><ele>28.4</ele><time>2026-04-04T11:59:33.732Z</time></trkpt><trkpt lat="44.1146597" lon="9.9619484"><ele>28.599999999999998</ele><time>2026-04-04T11:59:34.726Z</time></trkpt><trkpt lat="44.1145748" lon="9.9618566"><ele>28.799999999999997</ele><time>2026-04-04T11:59:35.726Z</time></trkpt><trkpt lat="44.1145055" lon="9.9617657"><ele>29.0</ele><time>2026-04-04T11:59:36.733Z</time></trkpt><trkpt lat="44.1144373" lon="9.9616761"><ele>29.0</ele><time>2026-04-04T11:59:38.729Z</time></trkpt><trkpt lat="44.1144104" lon="9.961567"><ele>29.0</ele><time>2026-04-04T11:59:40.728Z</time></trkpt><trkpt lat="44.1143509" lon="9.9613752"><ele>29.0</ele><time>2026-04-04T11:59:42.73Z</time></trkpt><trkpt lat="44.114304" lon="9.961245"><ele>29.0</ele><time>2026-04-04T11:59:43.732Z</time></trkpt><trkpt lat="44.1142508" lon="9.9610956"><ele>29.0</ele><time>2026-04-04T11:59:44.741Z</time></trkpt><trkpt lat="44.1141908" lon="9.9609407"><ele>29.0</ele><time>2026-04-04T11:59:45.727Z</time></trkpt><trkpt lat="44.1141404" lon="9.9607808"><ele>29.0</ele><time>2026-04-04T11:59:46.728Z</time></trkpt><trkpt lat="44.1141038" lon="9.9606201"><ele>29.0</ele><time>2026-04-04T11:59:47.725Z</time></trkpt><trkpt lat="44.114083" lon="9.96044"><ele>29.25</ele><time>2026-04-04T11:59:48.727Z</time></trkpt><trkpt lat="44.1140793" lon="9.9602431"><ele>29.5</ele><time>2026-04-04T11:59:49.729Z</time></trkpt><trkpt lat="44.1140863" lon="9.9600416"><ele>29.75</ele><time>2026-04-04T11:59:50.72Z</time></trkpt><trkpt lat="44.114106" lon="9.9598355"><ele>30.0</ele><time>2026-04-04T11:59:51.732Z</time></trkpt><trkpt lat="44.1141341" lon="9.9596345"><ele>29.5</ele><time>2026-04-04T11:59:52.721Z</time></trkpt><trkpt lat="44.1141599" lon="9.9594503"><ele>29.0</ele><time>2026-04-04T11:59:53.714Z</time></trkpt><trkpt lat="44.1141877" lon="9.9592612"><ele>28.5</ele><time>2026-04-04T11:59:54.727Z</time></trkpt><trkpt lat="44.1142194" lon="9.9590862"><ele>28.0</ele><time>2026-04-04T11:59:55.706Z</time></trkpt><trkpt lat="44.1142503" lon="9.9589272"><ele>27.666666666666668</ele><time>2026-04-04T11:59:56.717Z</time></trkpt><trkpt lat="44.1142807" lon="9.9587733"><ele>27.333333333333336</ele><time>2026-04-04T11:59:57.729Z</time></trkpt><trkpt lat="44.1143052" lon="9.9586333"><ele>27.0</ele><time>2026-04-04T11:59:58.715Z</time></trkpt><trkpt lat="44.1143201" lon="9.9585111"><ele>26.666666666666664</ele><time>2026-04-04T11:59:59.735Z</time></trkpt><trkpt lat="44.1143204" lon="9.9584036"><ele>26.333333333333332</ele><time>2026-04-04T12:00:00.761Z</time></trkpt><trkpt lat="44.1143045" lon="9.9583166"><ele>26.0</ele><time>2026-04-04T12:00:01.714Z</time></trkpt><trkpt lat="44.1142456" lon="9.9581958"><ele>25.833333333333332</ele><time>2026-04-04T12:00:03.719Z</time></trkpt><trkpt lat="44.1141927" lon="9.9581253"><ele>25.666666666666664</ele><time>2026-04-04T12:00:05.714Z</time></trkpt><trkpt lat="44.1141339" lon="9.9580653"><ele>25.5</ele><time>2026-04-04T12:00:33.711Z</time></trkpt><trkpt lat="44.1140819" lon="9.9579504"><ele>25.333333333333336</ele><time>2026-04-04T12:00:36.729Z</time></trkpt><trkpt lat="44.1141159" lon="9.9578745"><ele>25.166666666666668</ele><time>2026-04-04T12:00:37.706Z</time></trkpt><trkpt lat="44.1141787" lon="9.9577854"><ele>25.0</ele><time>2026-04-04T12:00:38.703Z</time></trkpt><trkpt lat="44.1142442" lon="9.9576845"><ele>25.0</ele><time>2026-04-04T12:00:39.727Z</time></trkpt><trkpt lat="44.1143093" lon="9.9575752"><ele>25.0</ele><time>2026-04-04T12:00:40.724Z</time></trkpt><trkpt lat="44.114403" lon="9.9574553"><ele>25.0</ele><time>2026-04-04T12:00:41.72Z</time></trkpt><trkpt lat="44.1144885" lon="9.9573292"><ele>25.0</ele><time>2026-04-04T12:00:42.729Z</time></trkpt><trkpt lat="44.1145587" lon="9.9572078"><ele>24.75</ele><time>2026-04-04T12:00:43.73Z</time></trkpt><trkpt lat="44.1146277" lon="9.957093"><ele>24.5</ele><time>2026-04-04T12:00:44.742Z</time></trkpt><trkpt lat="44.1146952" lon="9.9569701"><ele>24.25</ele><time>2026-04-04T12:00:45.714Z</time></trkpt><trkpt lat="44.1147595" lon="9.9568466"><ele>24.0</ele><time>2026-04-04T12:00:46.734Z</time></trkpt><trkpt lat="44.1148354" lon="9.956703"><ele>24.666666666666664</ele><time>2026-04-04T12:00:47.715Z</time></trkpt><trkpt lat="44.1149378" lon="9.956514"><ele>25.333333333333332</ele><time>2026-04-04T12:00:48.721Z</time></trkpt><trkpt lat="44.1150433" lon="9.9563138"><ele>26.0</ele><time>2026-04-04T12:00:49.719Z</time></trkpt><trkpt lat="44.1151435" lon="9.9561372"><ele>26.0</ele><time>2026-04-04T12:00:50.708Z</time></trkpt><trkpt lat="44.1152362" lon="9.9559756"><ele>26.0</ele><time>2026-04-04T12:00:51.714Z</time></trkpt><trkpt lat="44.1153225" lon="9.955807"><ele>26.0</ele><time>2026-04-04T12:00:52.718Z</time></trkpt><trkpt lat="44.1154111" lon="9.9556524"><ele>26.0</ele><time>2026-04-04T12:00:53.714Z</time></trkpt><trkpt lat="44.1154948" lon="9.9555094"><ele>25.75</ele><time>2026-04-04T12:00:54.735Z</time></trkpt><trkpt lat="44.1155643" lon="9.9553699"><ele>25.5</ele><time>2026-04-04T12:00:55.708Z</time></trkpt><trkpt lat="44.1156386" lon="9.9552144"><ele>25.25</ele><time>2026-04-04T12:00:56.712Z</time></trkpt><trkpt lat="44.1157208" lon="9.9550239"><ele>25.0</ele><time>2026-04-04T12:00:57.705Z</time></trkpt><trkpt lat="44.1157718" lon="9.9548777"><ele>24.75</ele><time>2026-04-04T12:00:58.717Z</time></trkpt><trkpt lat="44.115823" lon="9.9547454"><ele>24.5</ele><time>2026-04-04T12:00:59.719Z</time></trkpt><trkpt lat="44.1158813" lon="9.9546077"><ele>24.25</ele><time>2026-04-04T12:01:00.717Z</time></trkpt><trkpt lat="44.115939" lon="9.9544659"><ele>24.0</ele><time>2026-04-04T12:01:01.716Z</time></trkpt><trkpt lat="44.1160005" lon="9.9543231"><ele>23.75</ele><time>2026-04-04T12:01:02.709Z</time></trkpt><trkpt lat="44.116073" lon="9.9541776"><ele>23.5</ele><time>2026-04-04T12:01:03.704Z</time></trkpt><trkpt lat="44.1161432" lon="9.9540109"><ele>23.25</ele><time>2026-04-04T12:01:04.709Z</time></trkpt><trkpt lat="44.1162025" lon="9.9538424"><ele>23.0</ele><time>2026-04-04T12:01:05.706Z</time></trkpt><trkpt lat="44.1162566" lon="9.9536724"><ele>23.0</ele><time>2026-04-04T12:01:06.708Z</time></trkpt><trkpt lat="44.1163169" lon="9.9535025"><ele>23.0</ele><time>2026-04-04T12:01:07.707Z</time></trkpt><trkpt lat="44.1163826" lon="9.9533382"><ele>23.0</ele><time>2026-04-04T12:01:08.712Z</time></trkpt><trkpt lat="44.116462" lon="9.9531678"><ele>23.0</ele><time>2026-04-04T12:01:09.718Z</time></trkpt><trkpt lat="44.1165521" lon="9.9530041"><ele>22.75</ele><time>2026-04-04T12:01:10.707Z</time></trkpt><trkpt lat="44.1166413" lon="9.9528331"><ele>22.5</ele><time>2026-04-04T12:01:11.717Z</time></trkpt><trkpt lat="44.1167268" lon="9.9526731"><ele>22.25</ele><time>2026-04-04T12:01:12.71Z</time></trkpt><trkpt lat="44.1168088" lon="9.9525108"><ele>22.0</ele><time>2026-04-04T12:01:13.716Z</time></trkpt><trkpt lat="44.1169002" lon="9.9523458"><ele>21.666666666666664</ele><time>2026-04-04T12:01:14.715Z</time></trkpt><trkpt lat="44.1170003" lon="9.9521634"><ele>21.333333333333332</ele><time>2026-04-04T12:01:15.702Z</time></trkpt><trkpt lat="44.1171211" lon="9.9519083"><ele>21.0</ele><time>2026-04-04T12:01:16.702Z</time></trkpt><trkpt lat="44.1172371" lon="9.9516588"><ele>21.0</ele><time>2026-04-04T12:01:17.704Z</time></trkpt><trkpt lat="44.1173347" lon="9.9514608"><ele>21.0</ele><time>2026-04-04T12:01:18.711Z</time></trkpt><trkpt lat="44.1174192" lon="9.9512944"><ele>21.0</ele><time>2026-04-04T12:01:19.71Z</time></trkpt><trkpt lat="44.1174967" lon="9.9511427"><ele>21.0</ele><time>2026-04-04T12:01:20.708Z</time></trkpt><trkpt lat="44.1175768" lon="9.9509734"><ele>21.0</ele><time>2026-04-04T12:01:21.71Z</time></trkpt><trkpt lat="44.1176572" lon="9.9507977"><ele>21.0</ele><time>2026-04-04T12:01:22.713Z</time></trkpt><trkpt lat="44.1177385" lon="9.9506389"><ele>21.0</ele><time>2026-04-04T12:01:23.705Z</time></trkpt><trkpt lat="44.1178037" lon="9.9504967"><ele>21.0</ele><time>2026-04-04T12:01:24.719Z</time></trkpt><trkpt lat="44.1178713" lon="9.9503452"><ele>21.0</ele><time>2026-04-04T12:01:25.702Z</time></trkpt><trkpt lat="44.1179488" lon="9.9501916"><ele>21.0</ele><time>2026-04-04T12:01:26.706Z</time></trkpt><trkpt lat="44.1180323" lon="9.9500406"><ele>21.0</ele><time>2026-04-04T12:01:27.723Z</time></trkpt><trkpt lat="44.1181058" lon="9.9499046"><ele>20.8</ele><time>2026-04-04T12:01:28.712Z</time></trkpt><trkpt lat="44.1181649" lon="9.9497856"><ele>20.6</ele><time>2026-04-04T12:01:29.722Z</time></trkpt><trkpt lat="44.1182199" lon="9.9496737"><ele>20.4</ele><time>2026-04-04T12:01:30.72Z</time></trkpt><trkpt lat="44.1182698" lon="9.94957"><ele>20.2</ele><time>2026-04-04T12:01:31.714Z</time></trkpt><trkpt lat="44.1183191" lon="9.9494673"><ele>20.0</ele><time>2026-04-04T12:01:32.723Z</time></trkpt><trkpt lat="44.1183761" lon="9.949381"><ele>19.833333333333336</ele><time>2026-04-04T12:01:33.711Z</time></trkpt><trkpt lat="44.1184445" lon="9.9493165"><ele>19.666666666666668</ele><time>2026-04-04T12:01:34.713Z</time></trkpt><trkpt lat="44.1185149" lon="9.9492868"><ele>19.5</ele><time>2026-04-04T12:01:35.708Z</time></trkpt><trkpt lat="44.1185984" lon="9.9492757"><ele>19.333333333333332</ele><time>2026-04-04T12:01:36.705Z</time></trkpt><trkpt lat="44.1186858" lon="9.9492752"><ele>19.166666666666664</ele><time>2026-04-04T12:01:37.711Z</time></trkpt><trkpt lat="44.1187741" lon="9.9492922"><ele>19.0</ele><time>2026-04-04T12:01:38.716Z</time></trkpt><trkpt lat="44.1188617" lon="9.9492814"><ele>19.0</ele><time>2026-04-04T12:01:39.706Z</time></trkpt><trkpt lat="44.1189442" lon="9.9492284"><ele>19.0</ele><time>2026-04-04T12:01:40.713Z</time></trkpt><trkpt lat="44.1190066" lon="9.9491426"><ele>19.0</ele><time>2026-04-04T12:01:41.71Z</time></trkpt><trkpt lat="44.1190566" lon="9.9490392"><ele>19.0</ele><time>2026-04-04T12:01:42.714Z</time></trkpt><trkpt lat="44.1190648" lon="9.9489102"><ele>19.0</ele><time>2026-04-04T12:01:43.714Z</time></trkpt><trkpt lat="44.1190346" lon="9.9487603"><ele>18.75</ele><time>2026-04-04T12:01:44.721Z</time></trkpt><trkpt lat="44.118996" lon="9.9485868"><ele>18.5</ele><time>2026-04-04T12:01:45.714Z</time></trkpt><trkpt lat="44.1189763" lon="9.948403"><ele>18.25</ele><time>2026-04-04T12:01:46.712Z</time></trkpt><trkpt lat="44.1189876" lon="9.9482319"><ele>18.0</ele><time>2026-04-04T12:01:47.722Z</time></trkpt><trkpt lat="44.119033" lon="9.9480781"><ele>18.25</ele><time>2026-04-04T12:01:48.713Z</time></trkpt><trkpt lat="44.1191085" lon="9.947929"><ele>18.5</ele><time>2026-04-04T12:01:49.716Z</time></trkpt><trkpt lat="44.1192064" lon="9.9477762"><ele>18.75</ele><time>2026-04-04T12:01:50.714Z</time></trkpt><trkpt lat="44.1193139" lon="9.9476206"><ele>19.0</ele><time>2026-04-04T12:01:51.719Z</time></trkpt><trkpt lat="44.1194309" lon="9.947467"><ele>19.0</ele><time>2026-04-04T12:01:52.706Z</time></trkpt><trkpt lat="44.1195494" lon="9.9473158"><ele>19.0</ele><time>2026-04-04T12:01:53.714Z</time></trkpt><trkpt lat="44.1196598" lon="9.9471645"><ele>19.0</ele><time>2026-04-04T12:01:54.715Z</time></trkpt><trkpt lat="44.1197642" lon="9.9469954"><ele>19.0</ele><time>2026-04-04T12:01:55.708Z</time></trkpt><trkpt lat="44.1198642" lon="9.9468209"><ele>19.0</ele><time>2026-04-04T12:01:56.708Z</time></trkpt><trkpt lat="44.1199679" lon="9.9466534"><ele>19.0</ele><time>2026-04-04T12:01:57.714Z</time></trkpt><trkpt lat="44.1200707" lon="9.9464706"><ele>20.666666666666664</ele><time>2026-04-04T12:01:58.718Z</time></trkpt><trkpt lat="44.1201647" lon="9.9463001"><ele>22.333333333333332</ele><time>2026-04-04T12:01:59.71Z</time></trkpt><trkpt lat="44.1202503" lon="9.9461183"><ele>24.0</ele><time>2026-04-04T12:02:00.719Z</time></trkpt><trkpt lat="44.1203397" lon="9.9459308"><ele>25.0</ele><time>2026-04-04T12:02:01.716Z</time></trkpt><trkpt lat="44.1204357" lon="9.9457491"><ele>26.0</ele><time>2026-04-04T12:02:02.714Z</time></trkpt><trkpt lat="44.1205315" lon="9.9455542"><ele>27.0</ele><time>2026-04-04T12:02:03.731Z</time></trkpt><trkpt lat="44.1206218" lon="9.94537"><ele>27.0</ele><time>2026-04-04T12:02:04.704Z</time></trkpt><trkpt lat="44.120706" lon="9.9451921"><ele>27.0</ele><time>2026-04-04T12:02:05.715Z</time></trkpt><trkpt lat="44.1207999" lon="9.9450227"><ele>27.0</ele><time>2026-04-04T12:02:06.709Z</time></trkpt><trkpt lat="44.120898" lon="9.9448598"><ele>26.666666666666664</ele><time>2026-04-04T12:02:07.714Z</time></trkpt><trkpt lat="44.1209853" lon="9.9446844"><ele>26.333333333333332</ele><time>2026-04-04T12:02:08.71Z</time></trkpt><trkpt lat="44.1210792" lon="9.9445161"><ele>26.0</ele><time>2026-04-04T12:02:09.71Z</time></trkpt><trkpt lat="44.1211785" lon="9.9443653"><ele>26.0</ele><time>2026-04-04T12:02:10.709Z</time></trkpt><trkpt lat="44.1212778" lon="9.9442369"><ele>26.0</ele><time>2026-04-04T12:02:11.737Z</time></trkpt><trkpt lat="44.1213835" lon="9.9441276"><ele>26.0</ele><time>2026-04-04T12:02:12.71Z</time></trkpt><trkpt lat="44.1215092" lon="9.9440451"><ele>26.0</ele><time>2026-04-04T12:02:13.711Z</time></trkpt><trkpt lat="44.1216539" lon="9.9439795"><ele>24.0</ele><time>2026-04-04T12:02:14.71Z</time></trkpt><trkpt lat="44.1217976" lon="9.9439357"><ele>22.0</ele><time>2026-04-04T12:02:15.707Z</time></trkpt><trkpt lat="44.1219591" lon="9.9439056"><ele>20.0</ele><time>2026-04-04T12:02:16.715Z</time></trkpt><trkpt lat="44.1221341" lon="9.9438782"><ele>20.0</ele><time>2026-04-04T12:02:17.71Z</time></trkpt><trkpt lat="44.1223018" lon="9.9438548"><ele>20.0</ele><time>2026-04-04T12:02:18.712Z</time></trkpt><trkpt lat="44.1224714" lon="9.9438243"><ele>20.0</ele><time>2026-04-04T12:02:19.706Z</time></trkpt><trkpt lat="44.1226439" lon="9.9437922"><ele>21.0</ele><time>2026-04-04T12:02:20.703Z</time></trkpt><trkpt lat="44.1228218" lon="9.9437602"><ele>22.0</ele><time>2026-04-04T12:02:21.71Z</time></trkpt><trkpt lat="44.1230161" lon="9.9437308"><ele>23.0</ele><time>2026-04-04T12:02:22.709Z</time></trkpt><trkpt lat="44.1232184" lon="9.9436981"><ele>23.333333333333336</ele><time>2026-04-04T12:02:23.7Z</time></trkpt><trkpt lat="44.12343" lon="9.943662"><ele>23.666666666666668</ele><time>2026-04-04T12:02:24.705Z</time></trkpt><trkpt lat="44.1236218" lon="9.9436273"><ele>24.0</ele><time>2026-04-04T12:02:25.701Z</time></trkpt><trkpt lat="44.1238186" lon="9.9435943"><ele>24.0</ele><time>2026-04-04T12:02:26.703Z</time></trkpt><trkpt lat="44.124038" lon="9.9435729"><ele>24.0</ele><time>2026-04-04T12:02:27.734Z</time></trkpt><trkpt lat="44.1242928" lon="9.943556"><ele>24.0</ele><time>2026-04-04T12:02:28.709Z</time></trkpt><trkpt lat="44.1245231" lon="9.9435481"><ele>24.0</ele><time>2026-04-04T12:02:29.706Z</time></trkpt><trkpt lat="44.1247367" lon="9.94354"><ele>24.0</ele><time>2026-04-04T12:02:30.713Z</time></trkpt><trkpt lat="44.1249518" lon="9.9435145"><ele>24.0</ele><time>2026-04-04T12:02:31.708Z</time></trkpt><trkpt lat="44.1251715" lon="9.9434775"><ele>24.0</ele><time>2026-04-04T12:02:32.708Z</time></trkpt><trkpt lat="44.1253938" lon="9.9434271"><ele>24.0</ele><time>2026-04-04T12:02:33.71Z</time></trkpt><trkpt lat="44.1256" lon="9.9433737"><ele>21.333333333333332</ele><time>2026-04-04T12:02:34.721Z</time></trkpt><trkpt lat="44.1257902" lon="9.9433178"><ele>18.666666666666664</ele><time>2026-04-04T12:02:35.703Z</time></trkpt><trkpt lat="44.1259781" lon="9.9432615"><ele>16.0</ele><time>2026-04-04T12:02:36.705Z</time></trkpt><trkpt lat="44.1261644" lon="9.9431997"><ele>16.0</ele><time>2026-04-04T12:02:37.708Z</time></trkpt><trkpt lat="44.1263487" lon="9.9431421"><ele>16.0</ele><time>2026-04-04T12:02:38.706Z</time></trkpt><trkpt lat="44.1265286" lon="9.9430807"><ele>16.0</ele><time>2026-04-04T12:02:39.72Z</time></trkpt><trkpt lat="44.1266912" lon="9.943026"><ele>16.666666666666664</ele><time>2026-04-04T12:02:40.704Z</time></trkpt><trkpt lat="44.1268524" lon="9.9429699"><ele>17.333333333333332</ele><time>2026-04-04T12:02:41.713Z</time></trkpt><trkpt lat="44.1270126" lon="9.9429247"><ele>18.0</ele><time>2026-04-04T12:02:42.705Z</time></trkpt><trkpt lat="44.1271713" lon="9.9428865"><ele>18.0</ele><time>2026-04-04T12:02:43.713Z</time></trkpt><trkpt lat="44.1273096" lon="9.9428403"><ele>18.0</ele><time>2026-04-04T12:02:44.712Z</time></trkpt><trkpt lat="44.1274431" lon="9.9427897"><ele>18.0</ele><time>2026-04-04T12:02:45.712Z</time></trkpt><trkpt lat="44.127572" lon="9.9427466"><ele>18.0</ele><time>2026-04-04T12:02:46.709Z</time></trkpt><trkpt lat="44.1276934" lon="9.9427074"><ele>18.0</ele><time>2026-04-04T12:02:47.721Z</time></trkpt><trkpt lat="44.1278118" lon="9.9426653"><ele>18.0</ele><time>2026-04-04T12:02:48.706Z</time></trkpt><trkpt lat="44.1279062" lon="9.942623"><ele>18.0</ele><time>2026-04-04T12:02:49.709Z</time></trkpt><trkpt lat="44.1279932" lon="9.9425754"><ele>18.0</ele><time>2026-04-04T12:02:50.705Z</time></trkpt><trkpt lat="44.1280982" lon="9.9425295"><ele>18.0</ele><time>2026-04-04T12:02:51.712Z</time></trkpt><trkpt lat="44.1282117" lon="9.9424918"><ele>18.75</ele><time>2026-04-04T12:02:52.708Z</time></trkpt><trkpt lat="44.1283311" lon="9.9424508"><ele>19.5</ele><time>2026-04-04T12:02:53.715Z</time></trkpt><trkpt lat="44.128463" lon="9.942383"><ele>20.25</ele><time>2026-04-04T12:02:54.706Z</time></trkpt><trkpt lat="44.1285941" lon="9.9423112"><ele>21.0</ele><time>2026-04-04T12:02:55.712Z</time></trkpt><trkpt lat="44.1287252" lon="9.9422419"><ele>21.0</ele><time>2026-04-04T12:02:56.71Z</time></trkpt><trkpt lat="44.1288509" lon="9.942177"><ele>21.0</ele><time>2026-04-04T12:02:57.715Z</time></trkpt><trkpt lat="44.1289789" lon="9.9421185"><ele>21.0</ele><time>2026-04-04T12:02:58.712Z</time></trkpt><trkpt lat="44.1291088" lon="9.9420463"><ele>21.0</ele><time>2026-04-04T12:02:59.732Z</time></trkpt><trkpt lat="44.129245" lon="9.9419717"><ele>21.666666666666668</ele><time>2026-04-04T12:03:00.721Z</time></trkpt><trkpt lat="44.1293825" lon="9.9418904"><ele>22.333333333333336</ele><time>2026-04-04T12:03:01.714Z</time></trkpt><trkpt lat="44.1295384" lon="9.9418062"><ele>23.0</ele><time>2026-04-04T12:03:02.732Z</time></trkpt><trkpt lat="44.1296901" lon="9.9417254"><ele>22.333333333333336</ele><time>2026-04-04T12:03:03.714Z</time></trkpt><trkpt lat="44.1298417" lon="9.9416428"><ele>21.666666666666668</ele><time>2026-04-04T12:03:04.707Z</time></trkpt><trkpt lat="44.1299941" lon="9.9415671"><ele>21.0</ele><time>2026-04-04T12:03:05.727Z</time></trkpt><trkpt lat="44.1301534" lon="9.9414914"><ele>21.0</ele><time>2026-04-04T12:03:06.702Z</time></trkpt><trkpt lat="44.1303122" lon="9.9414036"><ele>21.0</ele><time>2026-04-04T12:03:07.71Z</time></trkpt><trkpt lat="44.1304729" lon="9.9413176"><ele>21.0</ele><time>2026-04-04T12:03:08.702Z</time></trkpt><trkpt lat="44.1306292" lon="9.9412394"><ele>22.666666666666664</ele><time>2026-04-04T12:03:09.717Z</time></trkpt><trkpt lat="44.1307809" lon="9.9411554"><ele>24.333333333333332</ele><time>2026-04-04T12:03:10.687Z</time></trkpt><trkpt lat="44.1309279" lon="9.9410789"><ele>26.0</ele><time>2026-04-04T12:03:11.698Z</time></trkpt><trkpt lat="44.1310725" lon="9.9410185"><ele>26.0</ele><time>2026-04-04T12:03:12.699Z</time></trkpt><trkpt lat="44.1312139" lon="9.9409544"><ele>26.0</ele><time>2026-04-04T12:03:13.695Z</time></trkpt><trkpt lat="44.1313375" lon="9.9408871"><ele>26.0</ele><time>2026-04-04T12:03:14.713Z</time></trkpt><trkpt lat="44.1314484" lon="9.9408328"><ele>26.0</ele><time>2026-04-04T12:03:15.69Z</time></trkpt><trkpt lat="44.1315559" lon="9.94076"><ele>25.25</ele><time>2026-04-04T12:03:16.701Z</time></trkpt><trkpt lat="44.1316586" lon="9.9407007"><ele>24.5</ele><time>2026-04-04T12:03:17.707Z</time></trkpt><trkpt lat="44.1317776" lon="9.9406309"><ele>23.75</ele><time>2026-04-04T12:03:18.707Z</time></trkpt><trkpt lat="44.1318873" lon="9.9405636"><ele>23.0</ele><time>2026-04-04T12:03:19.728Z</time></trkpt><trkpt lat="44.1319962" lon="9.9404959"><ele>23.0</ele><time>2026-04-04T12:03:20.721Z</time></trkpt><trkpt lat="44.1321043" lon="9.9404253"><ele>23.0</ele><time>2026-04-04T12:03:21.712Z</time></trkpt><trkpt lat="44.1322125" lon="9.9403648"><ele>23.0</ele><time>2026-04-04T12:03:22.708Z</time></trkpt><trkpt lat="44.1323154" lon="9.9402984"><ele>23.0</ele><time>2026-04-04T12:03:23.717Z</time></trkpt><trkpt lat="44.1324126" lon="9.9402277"><ele>22.833333333333336</ele><time>2026-04-04T12:03:24.716Z</time></trkpt><trkpt lat="44.1324997" lon="9.9401483"><ele>22.666666666666668</ele><time>2026-04-04T12:03:25.707Z</time></trkpt><trkpt lat="44.1325729" lon="9.9400769"><ele>22.5</ele><time>2026-04-04T12:03:26.713Z</time></trkpt><trkpt lat="44.1326378" lon="9.9400115"><ele>22.333333333333332</ele><time>2026-04-04T12:03:27.713Z</time></trkpt><trkpt lat="44.1327043" lon="9.9399625"><ele>22.166666666666664</ele><time>2026-04-04T12:03:28.703Z</time></trkpt><trkpt lat="44.1327773" lon="9.9399161"><ele>22.0</ele><time>2026-04-04T12:03:29.711Z</time></trkpt><trkpt lat="44.132862" lon="9.9398334"><ele>21.5</ele><time>2026-04-04T12:03:30.716Z</time></trkpt><trkpt lat="44.1329628" lon="9.9397174"><ele>21.0</ele><time>2026-04-04T12:03:31.705Z</time></trkpt><trkpt lat="44.1330753" lon="9.9396048"><ele>20.5</ele><time>2026-04-04T12:03:32.707Z</time></trkpt><trkpt lat="44.1331937" lon="9.9394904"><ele>20.0</ele><time>2026-04-04T12:03:33.715Z</time></trkpt><trkpt lat="44.1333081" lon="9.9393573"><ele>19.5</ele><time>2026-04-04T12:03:34.713Z</time></trkpt><trkpt lat="44.1334251" lon="9.9392263"><ele>19.0</ele><time>2026-04-04T12:03:35.717Z</time></trkpt><trkpt lat="44.1335365" lon="9.9390819"><ele>18.5</ele><time>2026-04-04T12:03:36.724Z</time></trkpt><trkpt lat="44.1336404" lon="9.9389416"><ele>18.0</ele><time>2026-04-04T12:03:37.713Z</time></trkpt><trkpt lat="44.1337397" lon="9.938801"><ele>18.0</ele><time>2026-04-04T12:03:38.706Z</time></trkpt><trkpt lat="44.1338316" lon="9.9386673"><ele>18.0</ele><time>2026-04-04T12:03:39.717Z</time></trkpt><trkpt lat="44.1339259" lon="9.9385359"><ele>18.0</ele><time>2026-04-04T12:03:40.714Z</time></trkpt><trkpt lat="44.1340161" lon="9.9384078"><ele>18.0</ele><time>2026-04-04T12:03:41.707Z</time></trkpt><trkpt lat="44.1340957" lon="9.9382861"><ele>18.0</ele><time>2026-04-04T12:03:42.713Z</time></trkpt><trkpt lat="44.1341656" lon="9.9381726"><ele>18.0</ele><time>2026-04-04T12:03:43.712Z</time></trkpt><trkpt lat="44.1342337" lon="9.9380589"><ele>18.0</ele><time>2026-04-04T12:03:44.72Z</time></trkpt><trkpt lat="44.1343031" lon="9.9379565"><ele>18.0</ele><time>2026-04-04T12:03:45.717Z</time></trkpt><trkpt lat="44.1343708" lon="9.9378535"><ele>18.0</ele><time>2026-04-04T12:03:46.716Z</time></trkpt><trkpt lat="44.1344427" lon="9.9377473"><ele>18.0</ele><time>2026-04-04T12:03:47.716Z</time></trkpt><trkpt lat="44.1345146" lon="9.937629"><ele>18.0</ele><time>2026-04-04T12:03:48.72Z</time></trkpt><trkpt lat="44.1345912" lon="9.9375056"><ele>18.0</ele><time>2026-04-04T12:03:49.717Z</time></trkpt><trkpt lat="44.1346735" lon="9.9373775"><ele>18.0</ele><time>2026-04-04T12:03:50.722Z</time></trkpt><trkpt lat="44.1347605" lon="9.9372396"><ele>18.25</ele><time>2026-04-04T12:03:51.721Z</time></trkpt><trkpt lat="44.1348507" lon="9.9370957"><ele>18.5</ele><time>2026-04-04T12:03:52.711Z</time></trkpt><trkpt lat="44.1349403" lon="9.9369628"><ele>18.75</ele><time>2026-04-04T12:03:53.712Z</time></trkpt><trkpt lat="44.1350201" lon="9.9368386"><ele>19.0</ele><time>2026-04-04T12:03:54.715Z</time></trkpt><trkpt lat="44.1351009" lon="9.9367283"><ele>19.0</ele><time>2026-04-04T12:03:55.715Z</time></trkpt><trkpt lat="44.1351858" lon="9.9366112"><ele>19.0</ele><time>2026-04-04T12:03:56.735Z</time></trkpt><trkpt lat="44.1352723" lon="9.9364863"><ele>19.0</ele><time>2026-04-04T12:03:57.722Z</time></trkpt><trkpt lat="44.1353538" lon="9.9363622"><ele>19.0</ele><time>2026-04-04T12:03:58.714Z</time></trkpt><trkpt lat="44.1354349" lon="9.9362446"><ele>19.0</ele><time>2026-04-04T12:03:59.72Z</time></trkpt><trkpt lat="44.1355107" lon="9.9361271"><ele>19.0</ele><time>2026-04-04T12:04:00.719Z</time></trkpt><trkpt lat="44.1355842" lon="9.9360124"><ele>19.0</ele><time>2026-04-04T12:04:01.706Z</time></trkpt><trkpt lat="44.135655" lon="9.9359052"><ele>19.0</ele><time>2026-04-04T12:04:02.71Z</time></trkpt><trkpt lat="44.1357217" lon="9.9358082"><ele>19.0</ele><time>2026-04-04T12:04:03.718Z</time></trkpt><trkpt lat="44.1357837" lon="9.9357088"><ele>19.2</ele><time>2026-04-04T12:04:04.713Z</time></trkpt><trkpt lat="44.1358562" lon="9.9356047"><ele>19.4</ele><time>2026-04-04T12:04:05.714Z</time></trkpt><trkpt lat="44.1359282" lon="9.9355057"><ele>19.6</ele><time>2026-04-04T12:04:06.71Z</time></trkpt><trkpt lat="44.1359955" lon="9.93541"><ele>19.8</ele><time>2026-04-04T12:04:07.726Z</time></trkpt><trkpt lat="44.1360567" lon="9.9353164"><ele>20.0</ele><time>2026-04-04T12:04:08.712Z</time></trkpt><trkpt lat="44.1361217" lon="9.9352146"><ele>20.0</ele><time>2026-04-04T12:04:09.713Z</time></trkpt><trkpt lat="44.1361895" lon="9.9351038"><ele>20.0</ele><time>2026-04-04T12:04:10.711Z</time></trkpt><trkpt lat="44.1362612" lon="9.9349914"><ele>20.0</ele><time>2026-04-04T12:04:11.711Z</time></trkpt><trkpt lat="44.136331" lon="9.9348764"><ele>20.0</ele><time>2026-04-04T12:04:12.715Z</time></trkpt><trkpt lat="44.1363993" lon="9.9347633"><ele>20.0</ele><time>2026-04-04T12:04:13.715Z</time></trkpt><trkpt lat="44.1364677" lon="9.9346525"><ele>20.0</ele><time>2026-04-04T12:04:14.716Z</time></trkpt><trkpt lat="44.1365365" lon="9.9345493"><ele>20.0</ele><time>2026-04-04T12:04:15.715Z</time></trkpt><trkpt lat="44.1366022" lon="9.9344505"><ele>20.0</ele><time>2026-04-04T12:04:16.71Z</time></trkpt><trkpt lat="44.1366656" lon="9.9343535"><ele>20.0</ele><time>2026-04-04T12:04:17.715Z</time></trkpt><trkpt lat="44.1367333" lon="9.9342518"><ele>20.0</ele><time>2026-04-04T12:04:18.716Z</time></trkpt><trkpt lat="44.1368052" lon="9.9341493"><ele>20.0</ele><time>2026-04-04T12:04:19.703Z</time></trkpt><trkpt lat="44.136873" lon="9.934046"><ele>20.0</ele><time>2026-04-04T12:04:20.716Z</time></trkpt><trkpt lat="44.1369351" lon="9.9339391"><ele>20.0</ele><time>2026-04-04T12:04:21.709Z</time></trkpt><trkpt lat="44.1369999" lon="9.933831"><ele>20.0</ele><time>2026-04-04T12:04:22.708Z</time></trkpt><trkpt lat="44.1370681" lon="9.9337138"><ele>20.0</ele><time>2026-04-04T12:04:23.704Z</time></trkpt><trkpt lat="44.1371434" lon="9.9335955"><ele>20.0</ele><time>2026-04-04T12:04:24.714Z</time></trkpt><trkpt lat="44.1372235" lon="9.9334706"><ele>20.0</ele><time>2026-04-04T12:04:25.714Z</time></trkpt><trkpt lat="44.1373066" lon="9.933336"><ele>20.0</ele><time>2026-04-04T12:04:26.71Z</time></trkpt><trkpt lat="44.1373974" lon="9.9331832"><ele>20.0</ele><time>2026-04-04T12:04:27.711Z</time></trkpt><trkpt lat="44.1375002" lon="9.9330201"><ele>19.333333333333336</ele><time>2026-04-04T12:04:28.715Z</time></trkpt><trkpt lat="44.1376139" lon="9.9328445"><ele>18.666666666666668</ele><time>2026-04-04T12:04:29.706Z</time></trkpt><trkpt lat="44.1377236" lon="9.9326754"><ele>18.0</ele><time>2026-04-04T12:04:30.708Z</time></trkpt><trkpt lat="44.1378362" lon="9.9325241"><ele>17.5</ele><time>2026-04-04T12:04:31.707Z</time></trkpt><trkpt lat="44.1379385" lon="9.9323938"><ele>17.0</ele><time>2026-04-04T12:04:32.701Z</time></trkpt><trkpt lat="44.1380297" lon="9.9322789"><ele>16.5</ele><time>2026-04-04T12:04:33.713Z</time></trkpt><trkpt lat="44.1380986" lon="9.9321643"><ele>16.0</ele><time>2026-04-04T12:04:34.708Z</time></trkpt><trkpt lat="44.138166" lon="9.9320545"><ele>16.2</ele><time>2026-04-04T12:04:35.717Z</time></trkpt><trkpt lat="44.1382356" lon="9.9319475"><ele>16.400000000000002</ele><time>2026-04-04T12:04:36.708Z</time></trkpt><trkpt lat="44.1383089" lon="9.9318357"><ele>16.6</ele><time>2026-04-04T12:04:37.719Z</time></trkpt><trkpt lat="44.1383835" lon="9.9317241"><ele>16.8</ele><time>2026-04-04T12:04:38.738Z</time></trkpt><trkpt lat="44.138454" lon="9.9316156"><ele>17.0</ele><time>2026-04-04T12:04:39.717Z</time></trkpt><trkpt lat="44.1385243" lon="9.9315066"><ele>17.0</ele><time>2026-04-04T12:04:40.713Z</time></trkpt><trkpt lat="44.1385983" lon="9.9314009"><ele>17.0</ele><time>2026-04-04T12:04:41.726Z</time></trkpt><trkpt lat="44.1386706" lon="9.931299"><ele>17.0</ele><time>2026-04-04T12:04:42.721Z</time></trkpt><trkpt lat="44.1387376" lon="9.9311985"><ele>17.0</ele><time>2026-04-04T12:04:43.713Z</time></trkpt><trkpt lat="44.1388059" lon="9.931095"><ele>17.0</ele><time>2026-04-04T12:04:44.724Z</time></trkpt><trkpt lat="44.1388773" lon="9.9309895"><ele>16.8</ele><time>2026-04-04T12:04:45.718Z</time></trkpt><trkpt lat="44.1389462" lon="9.9308855"><ele>16.6</ele><time>2026-04-04T12:04:46.719Z</time></trkpt><trkpt lat="44.1390158" lon="9.9307756"><ele>16.400000000000002</ele><time>2026-04-04T12:04:47.725Z</time></trkpt><trkpt lat="44.1390902" lon="9.9306705"><ele>16.2</ele><time>2026-04-04T12:04:48.726Z</time></trkpt><trkpt lat="44.1391658" lon="9.930556"><ele>16.0</ele><time>2026-04-04T12:04:49.71Z</time></trkpt><trkpt lat="44.1392393" lon="9.930446"><ele>16.0</ele><time>2026-04-04T12:04:50.713Z</time></trkpt><trkpt lat="44.1393119" lon="9.9303447"><ele>16.0</ele><time>2026-04-04T12:04:51.72Z</time></trkpt><trkpt lat="44.1393795" lon="9.9302445"><ele>16.0</ele><time>2026-04-04T12:04:52.721Z</time></trkpt><trkpt lat="44.1394475" lon="9.9301404"><ele>16.0</ele><time>2026-04-04T12:04:53.722Z</time></trkpt><trkpt lat="44.1395168" lon="9.9300398"><ele>16.0</ele><time>2026-04-04T12:04:54.712Z</time></trkpt><trkpt lat="44.1395896" lon="9.9299347"><ele>16.6</ele><time>2026-04-04T12:04:55.724Z</time></trkpt><trkpt lat="44.1396615" lon="9.9298285"><ele>17.200000000000003</ele><time>2026-04-04T12:04:56.713Z</time></trkpt><trkpt lat="44.1397333" lon="9.9297212"><ele>17.799999999999997</ele><time>2026-04-04T12:04:57.714Z</time></trkpt><trkpt lat="44.1398072" lon="9.9296222"><ele>18.4</ele><time>2026-04-04T12:04:58.719Z</time></trkpt><trkpt lat="44.1398847" lon="9.9295115"><ele>19.0</ele><time>2026-04-04T12:04:59.715Z</time></trkpt><trkpt lat="44.1399584" lon="9.9293929"><ele>19.5</ele><time>2026-04-04T12:05:00.713Z</time></trkpt><trkpt lat="44.1400328" lon="9.9292733"><ele>20.0</ele><time>2026-04-04T12:05:01.723Z</time></trkpt><trkpt lat="44.1401101" lon="9.9291562"><ele>20.5</ele><time>2026-04-04T12:05:02.715Z</time></trkpt><trkpt lat="44.1401876" lon="9.9290379"><ele>21.0</ele><time>2026-04-04T12:05:03.721Z</time></trkpt><trkpt lat="44.1402667" lon="9.9289262"><ele>21.0</ele><time>2026-04-04T12:05:04.723Z</time></trkpt><trkpt lat="44.140347" lon="9.9288121"><ele>21.0</ele><time>2026-04-04T12:05:05.712Z</time></trkpt><trkpt lat="44.1404266" lon="9.9286942"><ele>21.0</ele><time>2026-04-04T12:05:06.714Z</time></trkpt><trkpt lat="44.1405096" lon="9.9285735"><ele>21.0</ele><time>2026-04-04T12:05:07.712Z</time></trkpt><trkpt lat="44.1405876" lon="9.9284538"><ele>20.5</ele><time>2026-04-04T12:05:08.746Z</time></trkpt><trkpt lat="44.1406603" lon="9.9283324"><ele>20.0</ele><time>2026-04-04T12:05:09.749Z</time></trkpt><trkpt lat="44.1407339" lon="9.9282122"><ele>19.5</ele><time>2026-04-04T12:05:10.717Z</time></trkpt><trkpt lat="44.1408123" lon="9.9280897"><ele>19.0</ele><time>2026-04-04T12:05:11.719Z</time></trkpt><trkpt lat="44.14089" lon="9.9279682"><ele>21.0</ele><time>2026-04-04T12:05:12.721Z</time></trkpt><trkpt lat="44.140971" lon="9.9278464"><ele>23.0</ele><time>2026-04-04T12:05:13.716Z</time></trkpt><trkpt lat="44.1410547" lon="9.9277178"><ele>25.0</ele><time>2026-04-04T12:05:14.723Z</time></trkpt><trkpt lat="44.1411372" lon="9.9275864"><ele>27.0</ele><time>2026-04-04T12:05:15.712Z</time></trkpt><trkpt lat="44.141227" lon="9.9274596"><ele>27.0</ele><time>2026-04-04T12:05:16.721Z</time></trkpt><trkpt lat="44.1413145" lon="9.927333"><ele>27.0</ele><time>2026-04-04T12:05:17.721Z</time></trkpt><trkpt lat="44.1413975" lon="9.9272003"><ele>27.0</ele><time>2026-04-04T12:05:18.714Z</time></trkpt><trkpt lat="44.1414778" lon="9.9270658"><ele>27.0</ele><time>2026-04-04T12:05:19.722Z</time></trkpt><trkpt lat="44.1415609" lon="9.9269338"><ele>27.0</ele><time>2026-04-04T12:05:20.718Z</time></trkpt><trkpt lat="44.1416453" lon="9.9268054"><ele>27.0</ele><time>2026-04-04T12:05:21.723Z</time></trkpt><trkpt lat="44.1417273" lon="9.9266731"><ele>27.0</ele><time>2026-04-04T12:05:22.718Z</time></trkpt><trkpt lat="44.1418117" lon="9.9265425"><ele>27.0</ele><time>2026-04-04T12:05:23.703Z</time></trkpt><trkpt lat="44.1418998" lon="9.9264168"><ele>26.75</ele><time>2026-04-04T12:05:24.744Z</time></trkpt><trkpt lat="44.1419871" lon="9.92629"><ele>26.5</ele><time>2026-04-04T12:05:25.721Z</time></trkpt><trkpt lat="44.1420729" lon="9.9261642"><ele>26.25</ele><time>2026-04-04T12:05:26.709Z</time></trkpt><trkpt lat="44.1421615" lon="9.9260431"><ele>26.0</ele><time>2026-04-04T12:05:27.721Z</time></trkpt><trkpt lat="44.1422517" lon="9.9259233"><ele>26.0</ele><time>2026-04-04T12:05:28.715Z</time></trkpt><trkpt lat="44.1423493" lon="9.9258051"><ele>26.0</ele><time>2026-04-04T12:05:29.711Z</time></trkpt><trkpt lat="44.1424505" lon="9.92569"><ele>26.0</ele><time>2026-04-04T12:05:30.726Z</time></trkpt><trkpt lat="44.1425493" lon="9.9255752"><ele>26.0</ele><time>2026-04-04T12:05:31.714Z</time></trkpt><trkpt lat="44.1426583" lon="9.9254706"><ele>26.25</ele><time>2026-04-04T12:05:32.706Z</time></trkpt><trkpt lat="44.1427749" lon="9.9253724"><ele>26.5</ele><time>2026-04-04T12:05:33.711Z</time></trkpt><trkpt lat="44.142892" lon="9.9252839"><ele>26.75</ele><time>2026-04-04T12:05:34.72Z</time></trkpt><trkpt lat="44.1430189" lon="9.9252005"><ele>27.0</ele><time>2026-04-04T12:05:35.718Z</time></trkpt><trkpt lat="44.1431397" lon="9.9251165"><ele>26.75</ele><time>2026-04-04T12:05:36.716Z</time></trkpt><trkpt lat="44.1432618" lon="9.9250402"><ele>26.5</ele><time>2026-04-04T12:05:37.719Z</time></trkpt><trkpt lat="44.1433845" lon="9.9249719"><ele>26.25</ele><time>2026-04-04T12:05:38.72Z</time></trkpt><trkpt lat="44.1435078" lon="9.9249107"><ele>26.0</ele><time>2026-04-04T12:05:39.724Z</time></trkpt><trkpt lat="44.1436302" lon="9.9248463"><ele>26.0</ele><time>2026-04-04T12:05:40.731Z</time></trkpt><trkpt lat="44.1437511" lon="9.9247809"><ele>26.0</ele><time>2026-04-04T12:05:41.717Z</time></trkpt><trkpt lat="44.1438744" lon="9.9247243"><ele>26.0</ele><time>2026-04-04T12:05:42.712Z</time></trkpt><trkpt lat="44.1439876" lon="9.9246842"><ele>26.0</ele><time>2026-04-04T12:05:43.719Z</time></trkpt><trkpt lat="44.144093" lon="9.9246505"><ele>25.833333333333332</ele><time>2026-04-04T12:05:44.727Z</time></trkpt><trkpt lat="44.1441881" lon="9.924609"><ele>25.666666666666664</ele><time>2026-04-04T12:05:45.72Z</time></trkpt><trkpt lat="44.1442784" lon="9.9245704"><ele>25.5</ele><time>2026-04-04T12:05:46.701Z</time></trkpt><trkpt lat="44.1443636" lon="9.9245336"><ele>25.333333333333336</ele><time>2026-04-04T12:05:47.721Z</time></trkpt><trkpt lat="44.1444399" lon="9.9245017"><ele>25.166666666666668</ele><time>2026-04-04T12:05:48.71Z</time></trkpt><trkpt lat="44.1445072" lon="9.9244755"><ele>25.0</ele><time>2026-04-04T12:05:49.714Z</time></trkpt><trkpt lat="44.1446339" lon="9.9244865"><ele>25.0</ele><time>2026-04-04T12:05:51.718Z</time></trkpt><trkpt lat="44.1446999" lon="9.924507"><ele>25.0</ele><time>2026-04-04T12:05:52.71Z</time></trkpt><trkpt lat="44.1448188" lon="9.9244317"><ele>25.0</ele><time>2026-04-04T12:05:54.712Z</time></trkpt><trkpt lat="44.1448812" lon="9.9243611"><ele>25.0</ele><time>2026-04-04T12:05:55.718Z</time></trkpt><trkpt lat="44.1449629" lon="9.924301"><ele>25.0</ele><time>2026-04-04T12:05:56.713Z</time></trkpt><trkpt lat="44.1450541" lon="9.9242578"><ele>25.2</ele><time>2026-04-04T12:05:57.72Z</time></trkpt><trkpt lat="44.1451584" lon="9.9242278"><ele>25.4</ele><time>2026-04-04T12:05:58.719Z</time></trkpt><trkpt lat="44.145273" lon="9.9242066"><ele>25.6</ele><time>2026-04-04T12:05:59.713Z</time></trkpt><trkpt lat="44.145374" lon="9.9241769"><ele>25.8</ele><time>2026-04-04T12:06:00.736Z</time></trkpt><trkpt lat="44.1454694" lon="9.9241465"><ele>26.0</ele><time>2026-04-04T12:06:01.719Z</time></trkpt><trkpt lat="44.145563" lon="9.924116"><ele>26.0</ele><time>2026-04-04T12:06:02.715Z</time></trkpt><trkpt lat="44.1456525" lon="9.9240839"><ele>26.0</ele><time>2026-04-04T12:06:03.714Z</time></trkpt><trkpt lat="44.1457387" lon="9.9240472"><ele>26.0</ele><time>2026-04-04T12:06:04.721Z</time></trkpt><trkpt lat="44.1458193" lon="9.9240063"><ele>26.0</ele><time>2026-04-04T12:06:05.718Z</time></trkpt><trkpt lat="44.1459024" lon="9.9239687"><ele>26.0</ele><time>2026-04-04T12:06:06.719Z</time></trkpt><trkpt lat="44.1459987" lon="9.9239234"><ele>26.75</ele><time>2026-04-04T12:06:07.716Z</time></trkpt><trkpt lat="44.1461077" lon="9.9238728"><ele>27.5</ele><time>2026-04-04T12:06:08.719Z</time></trkpt><trkpt lat="44.1462263" lon="9.92382"><ele>28.25</ele><time>2026-04-04T12:06:09.717Z</time></trkpt><trkpt lat="44.1463461" lon="9.92376"><ele>29.0</ele><time>2026-04-04T12:06:10.712Z</time></trkpt><trkpt lat="44.1464658" lon="9.923698"><ele>29.5</ele><time>2026-04-04T12:06:11.72Z</time></trkpt><trkpt lat="44.1465907" lon="9.9236407"><ele>30.0</ele><time>2026-04-04T12:06:12.717Z</time></trkpt><trkpt lat="44.146732" lon="9.9235926"><ele>30.5</ele><time>2026-04-04T12:06:13.718Z</time></trkpt><trkpt lat="44.1468833" lon="9.9235359"><ele>31.0</ele><time>2026-04-04T12:06:14.727Z</time></trkpt><trkpt lat="44.1470344" lon="9.923483"><ele>31.0</ele><time>2026-04-04T12:06:15.711Z</time></trkpt><trkpt lat="44.1471729" lon="9.923437"><ele>31.0</ele><time>2026-04-04T12:06:16.719Z</time></trkpt><trkpt lat="44.1473003" lon="9.9233915"><ele>31.0</ele><time>2026-04-04T12:06:17.736Z</time></trkpt><trkpt lat="44.1474298" lon="9.9233368"><ele>31.0</ele><time>2026-04-04T12:06:18.741Z</time></trkpt><trkpt lat="44.1475606" lon="9.9232584"><ele>31.333333333333336</ele><time>2026-04-04T12:06:19.714Z</time></trkpt><trkpt lat="44.1476979" lon="9.9231291"><ele>31.666666666666664</ele><time>2026-04-04T12:06:20.71Z</time></trkpt><trkpt lat="44.1478673" lon="9.9229533"><ele>32.0</ele><time>2026-04-04T12:06:21.723Z</time></trkpt><trkpt lat="44.1480896" lon="9.9227588"><ele>32.5</ele><time>2026-04-04T12:06:22.713Z</time></trkpt><trkpt lat="44.148334" lon="9.922533"><ele>33.0</ele><time>2026-04-04T12:06:23.71Z</time></trkpt><trkpt lat="44.1485494" lon="9.9223324"><ele>33.0</ele><time>2026-04-04T12:06:24.719Z</time></trkpt><trkpt lat="44.1487228" lon="9.9221555"><ele>33.0</ele><time>2026-04-04T12:06:25.708Z</time></trkpt><trkpt lat="44.1488716" lon="9.9220036"><ele>33.0</ele><time>2026-04-04T12:06:26.705Z</time></trkpt><trkpt lat="44.1490134" lon="9.9218725"><ele>33.0</ele><time>2026-04-04T12:06:27.718Z</time></trkpt><trkpt lat="44.1491254" lon="9.921776"><ele>33.0</ele><time>2026-04-04T12:06:28.724Z</time></trkpt><trkpt lat="44.1492302" lon="9.9216892"><ele>33.0</ele><time>2026-04-04T12:06:29.706Z</time></trkpt><trkpt lat="44.1493404" lon="9.9215911"><ele>33.0</ele><time>2026-04-04T12:06:30.718Z</time></trkpt><trkpt lat="44.1494561" lon="9.9214947"><ele>33.0</ele><time>2026-04-04T12:06:31.716Z</time></trkpt><trkpt lat="44.1495789" lon="9.9213986"><ele>33.0</ele><time>2026-04-04T12:06:32.713Z</time></trkpt><trkpt lat="44.1496955" lon="9.9213035"><ele>33.0</ele><time>2026-04-04T12:06:33.723Z</time></trkpt><trkpt lat="44.1498025" lon="9.9212224"><ele>33.0</ele><time>2026-04-04T12:06:34.72Z</time></trkpt><trkpt lat="44.1499137" lon="9.9211383"><ele>33.0</ele><time>2026-04-04T12:06:35.716Z</time></trkpt><trkpt lat="44.1500273" lon="9.9210525"><ele>33.0</ele><time>2026-04-04T12:06:36.711Z</time></trkpt><trkpt lat="44.1501305" lon="9.9209697"><ele>33.0</ele><time>2026-04-04T12:06:37.717Z</time></trkpt><trkpt lat="44.150232" lon="9.920888"><ele>33.0</ele><time>2026-04-04T12:06:38.719Z</time></trkpt><trkpt lat="44.1503347" lon="9.9208095"><ele>32.25</ele><time>2026-04-04T12:06:39.706Z</time></trkpt><trkpt lat="44.1504369" lon="9.920735"><ele>31.5</ele><time>2026-04-04T12:06:40.715Z</time></trkpt><trkpt lat="44.1505349" lon="9.9206594"><ele>30.75</ele><time>2026-04-04T12:06:41.71Z</time></trkpt><trkpt lat="44.1506327" lon="9.9205832"><ele>30.0</ele><time>2026-04-04T12:06:42.732Z</time></trkpt><trkpt lat="44.1507336" lon="9.9205067"><ele>30.0</ele><time>2026-04-04T12:06:43.717Z</time></trkpt><trkpt lat="44.1508328" lon="9.9204293"><ele>30.0</ele><time>2026-04-04T12:06:44.719Z</time></trkpt><trkpt lat="44.1509413" lon="9.9203514"><ele>30.0</ele><time>2026-04-04T12:06:45.722Z</time></trkpt><trkpt lat="44.1510498" lon="9.9202742"><ele>30.0</ele><time>2026-04-04T12:06:46.715Z</time></trkpt><trkpt lat="44.151167" lon="9.9202007"><ele>30.0</ele><time>2026-04-04T12:06:47.718Z</time></trkpt><trkpt lat="44.1512911" lon="9.9201306"><ele>30.0</ele><time>2026-04-04T12:06:48.718Z</time></trkpt><trkpt lat="44.1514168" lon="9.9200674"><ele>30.0</ele><time>2026-04-04T12:06:49.715Z</time></trkpt><trkpt lat="44.1515484" lon="9.9200077"><ele>30.0</ele><time>2026-04-04T12:06:50.719Z</time></trkpt><trkpt lat="44.1516819" lon="9.9199564"><ele>29.5</ele><time>2026-04-04T12:06:51.732Z</time></trkpt><trkpt lat="44.1518189" lon="9.9199105"><ele>29.0</ele><time>2026-04-04T12:06:52.722Z</time></trkpt><trkpt lat="44.1519492" lon="9.9198604"><ele>28.5</ele><time>2026-04-04T12:06:53.723Z</time></trkpt><trkpt lat="44.1520752" lon="9.9198197"><ele>28.0</ele><time>2026-04-04T12:06:54.728Z</time></trkpt><trkpt lat="44.1521904" lon="9.919773"><ele>28.0</ele><time>2026-04-04T12:06:55.727Z</time></trkpt><trkpt lat="44.1523076" lon="9.9197155"><ele>28.0</ele><time>2026-04-04T12:06:56.724Z</time></trkpt><trkpt lat="44.1524255" lon="9.9196714"><ele>28.0</ele><time>2026-04-04T12:06:57.721Z</time></trkpt><trkpt lat="44.1525523" lon="9.91962"><ele>28.0</ele><time>2026-04-04T12:06:58.731Z</time></trkpt><trkpt lat="44.1526805" lon="9.9195725"><ele>28.0</ele><time>2026-04-04T12:06:59.718Z</time></trkpt><trkpt lat="44.1528098" lon="9.9195187"><ele>28.0</ele><time>2026-04-04T12:07:00.723Z</time></trkpt><trkpt lat="44.1529368" lon="9.9194684"><ele>28.0</ele><time>2026-04-04T12:07:01.717Z</time></trkpt><trkpt lat="44.1530556" lon="9.9194205"><ele>28.0</ele><time>2026-04-04T12:07:02.74Z</time></trkpt><trkpt lat="44.1531646" lon="9.9193736"><ele>28.0</ele><time>2026-04-04T12:07:03.715Z</time></trkpt><trkpt lat="44.1532749" lon="9.9193354"><ele>27.999999999999996</ele><time>2026-04-04T12:07:04.742Z</time></trkpt><trkpt lat="44.1533821" lon="9.9193096"><ele>27.999999999999996</ele><time>2026-04-04T12:07:05.738Z</time></trkpt><trkpt lat="44.1534858" lon="9.9192819"><ele>28.0</ele><time>2026-04-04T12:07:06.721Z</time></trkpt><trkpt lat="44.1535869" lon="9.9192501"><ele>28.0</ele><time>2026-04-04T12:07:07.718Z</time></trkpt><trkpt lat="44.153678" lon="9.9192158"><ele>27.833333333333336</ele><time>2026-04-04T12:07:08.726Z</time></trkpt><trkpt lat="44.1537642" lon="9.9191868"><ele>27.666666666666668</ele><time>2026-04-04T12:07:09.731Z</time></trkpt><trkpt lat="44.1538477" lon="9.9191553"><ele>27.5</ele><time>2026-04-04T12:07:10.728Z</time></trkpt><trkpt lat="44.1539279" lon="9.9191185"><ele>27.333333333333336</ele><time>2026-04-04T12:07:11.714Z</time></trkpt><trkpt lat="44.1540091" lon="9.9190629"><ele>27.166666666666668</ele><time>2026-04-04T12:07:12.725Z</time></trkpt><trkpt lat="44.1540769" lon="9.9189959"><ele>27.0</ele><time>2026-04-04T12:07:13.737Z</time></trkpt><trkpt lat="44.1541406" lon="9.9189465"><ele>27.0</ele><time>2026-04-04T12:07:14.722Z</time></trkpt><trkpt lat="44.1542089" lon="9.9189114"><ele>27.0</ele><time>2026-04-04T12:07:15.717Z</time></trkpt><trkpt lat="44.1542864" lon="9.9189033"><ele>27.0</ele><time>2026-04-04T12:07:16.719Z</time></trkpt><trkpt lat="44.1543658" lon="9.9188701"><ele>27.0</ele><time>2026-04-04T12:07:17.722Z</time></trkpt><trkpt lat="44.1544424" lon="9.9188017"><ele>27.0</ele><time>2026-04-04T12:07:18.719Z</time></trkpt><trkpt lat="44.1544935" lon="9.9187056"><ele>27.0</ele><time>2026-04-04T12:07:19.717Z</time></trkpt><trkpt lat="44.1545157" lon="9.918585"><ele>27.0</ele><time>2026-04-04T12:07:20.724Z</time></trkpt><trkpt lat="44.1545073" lon="9.9184673"><ele>27.000000000000004</ele><time>2026-04-04T12:07:21.722Z</time></trkpt><trkpt lat="44.154461" lon="9.918367"><ele>27.000000000000004</ele><time>2026-04-04T12:07:22.72Z</time></trkpt><trkpt lat="44.1543815" lon="9.9182834"><ele>27.0</ele><time>2026-04-04T12:07:23.719Z</time></trkpt><trkpt lat="44.1542917" lon="9.9181719"><ele>27.0</ele><time>2026-04-04T12:07:24.731Z</time></trkpt><trkpt lat="44.1542111" lon="9.9180295"><ele>26.6</ele><time>2026-04-04T12:07:25.719Z</time></trkpt><trkpt lat="44.1541503" lon="9.9178767"><ele>26.200000000000003</ele><time>2026-04-04T12:07:26.727Z</time></trkpt><trkpt lat="44.154094" lon="9.9177383"><ele>25.8</ele><time>2026-04-04T12:07:27.721Z</time></trkpt><trkpt lat="44.1540488" lon="9.9176018"><ele>25.4</ele><time>2026-04-04T12:07:28.719Z</time></trkpt><trkpt lat="44.1540134" lon="9.91747"><ele>25.0</ele><time>2026-04-04T12:07:29.745Z</time></trkpt><trkpt lat="44.1539975" lon="9.9173517"><ele>24.666666666666668</ele><time>2026-04-04T12:07:30.723Z</time></trkpt><trkpt lat="44.1539987" lon="9.9172208"><ele>24.333333333333336</ele><time>2026-04-04T12:07:31.72Z</time></trkpt><trkpt lat="44.1540055" lon="9.9170921"><ele>24.0</ele><time>2026-04-04T12:07:32.717Z</time></trkpt><trkpt lat="44.1539993" lon="9.9169745"><ele>23.666666666666668</ele><time>2026-04-04T12:07:33.721Z</time></trkpt><trkpt lat="44.1539812" lon="9.9168757"><ele>23.333333333333336</ele><time>2026-04-04T12:07:34.727Z</time></trkpt><trkpt lat="44.1539302" lon="9.9168071"><ele>23.0</ele><time>2026-04-04T12:07:35.721Z</time></trkpt><trkpt lat="44.1538549" lon="9.9167742"><ele>23.0</ele><time>2026-04-04T12:07:36.722Z</time></trkpt><trkpt lat="44.1537734" lon="9.9167616"><ele>23.0</ele><time>2026-04-04T12:07:37.725Z</time></trkpt><trkpt lat="44.1536883" lon="9.9167285"><ele>23.0</ele><time>2026-04-04T12:07:38.718Z</time></trkpt><trkpt lat="44.1536111" lon="9.9166676"><ele>23.0</ele><time>2026-04-04T12:07:39.722Z</time></trkpt><trkpt lat="44.1535654" lon="9.9165843"><ele>23.0</ele><time>2026-04-04T12:07:40.722Z</time></trkpt><trkpt lat="44.1535348" lon="9.9164626"><ele>23.0</ele><time>2026-04-04T12:07:41.728Z</time></trkpt><trkpt lat="44.1534961" lon="9.9163025"><ele>22.666666666666668</ele><time>2026-04-04T12:07:42.714Z</time></trkpt><trkpt lat="44.1534426" lon="9.9161216"><ele>22.333333333333332</ele><time>2026-04-04T12:07:43.712Z</time></trkpt><trkpt lat="44.1533971" lon="9.9159096"><ele>22.0</ele><time>2026-04-04T12:07:44.718Z</time></trkpt><trkpt lat="44.1533304" lon="9.9156955"><ele>22.0</ele><time>2026-04-04T12:07:45.701Z</time></trkpt><trkpt lat="44.1532511" lon="9.915481"><ele>22.0</ele><time>2026-04-04T12:07:46.706Z</time></trkpt><trkpt lat="44.1531752" lon="9.9152668"><ele>22.0</ele><time>2026-04-04T12:07:47.739Z</time></trkpt><trkpt lat="44.1530858" lon="9.9150587"><ele>21.666666666666664</ele><time>2026-04-04T12:07:48.709Z</time></trkpt><trkpt lat="44.1529807" lon="9.9148552"><ele>21.333333333333332</ele><time>2026-04-04T12:07:49.713Z</time></trkpt><trkpt lat="44.1528631" lon="9.9146388"><ele>21.0</ele><time>2026-04-04T12:07:50.715Z</time></trkpt><trkpt lat="44.1527338" lon="9.9144259"><ele>21.333333333333332</ele><time>2026-04-04T12:07:51.707Z</time></trkpt><trkpt lat="44.1525954" lon="9.9142121"><ele>21.666666666666664</ele><time>2026-04-04T12:07:52.712Z</time></trkpt><trkpt lat="44.1524505" lon="9.9140089"><ele>22.0</ele><time>2026-04-04T12:07:53.702Z</time></trkpt><trkpt lat="44.1523057" lon="9.9138326"><ele>21.333333333333332</ele><time>2026-04-04T12:07:54.703Z</time></trkpt><trkpt lat="44.1521571" lon="9.9136652"><ele>20.666666666666668</ele><time>2026-04-04T12:07:55.713Z</time></trkpt><trkpt lat="44.1520131" lon="9.9135125"><ele>20.0</ele><time>2026-04-04T12:07:56.722Z</time></trkpt><trkpt lat="44.1518689" lon="9.9133685"><ele>20.0</ele><time>2026-04-04T12:07:57.72Z</time></trkpt><trkpt lat="44.1517205" lon="9.91323"><ele>20.0</ele><time>2026-04-04T12:07:58.725Z</time></trkpt><trkpt lat="44.1515703" lon="9.9130862"><ele>20.0</ele><time>2026-04-04T12:07:59.717Z</time></trkpt><trkpt lat="44.1514118" lon="9.9129424"><ele>20.333333333333336</ele><time>2026-04-04T12:08:00.723Z</time></trkpt><trkpt lat="44.1512488" lon="9.9128033"><ele>20.666666666666668</ele><time>2026-04-04T12:08:01.713Z</time></trkpt><trkpt lat="44.1510863" lon="9.9126598"><ele>21.0</ele><time>2026-04-04T12:08:02.714Z</time></trkpt><trkpt lat="44.150931" lon="9.912512"><ele>20.333333333333332</ele><time>2026-04-04T12:08:03.723Z</time></trkpt><trkpt lat="44.150772" lon="9.9123635"><ele>19.666666666666664</ele><time>2026-04-04T12:08:04.719Z</time></trkpt><trkpt lat="44.1506049" lon="9.9122195"><ele>19.0</ele><time>2026-04-04T12:08:05.722Z</time></trkpt><trkpt lat="44.150434" lon="9.9120862"><ele>18.0</ele><time>2026-04-04T12:08:06.716Z</time></trkpt><trkpt lat="44.1502632" lon="9.9119409"><ele>17.0</ele><time>2026-04-04T12:08:07.714Z</time></trkpt><trkpt lat="44.1500868" lon="9.9117957"><ele>16.0</ele><time>2026-04-04T12:08:08.72Z</time></trkpt><trkpt lat="44.1499161" lon="9.9116517"><ele>16.0</ele><time>2026-04-04T12:08:09.715Z</time></trkpt><trkpt lat="44.1497363" lon="9.9115001"><ele>16.0</ele><time>2026-04-04T12:08:10.72Z</time></trkpt><trkpt lat="44.1495475" lon="9.9113449"><ele>16.0</ele><time>2026-04-04T12:08:11.722Z</time></trkpt><trkpt lat="44.1493556" lon="9.9111816"><ele>16.0</ele><time>2026-04-04T12:08:12.717Z</time></trkpt><trkpt lat="44.1491626" lon="9.9109976"><ele>16.0</ele><time>2026-04-04T12:08:13.729Z</time></trkpt><trkpt lat="44.1489603" lon="9.9108137"><ele>16.0</ele><time>2026-04-04T12:08:14.723Z</time></trkpt><trkpt lat="44.1487681" lon="9.910631"><ele>16.0</ele><time>2026-04-04T12:08:15.724Z</time></trkpt><trkpt lat="44.148576" lon="9.9104465"><ele>16.0</ele><time>2026-04-04T12:08:16.72Z</time></trkpt><trkpt lat="44.1483834" lon="9.9102646"><ele>16.0</ele><time>2026-04-04T12:08:17.729Z</time></trkpt><trkpt lat="44.1481785" lon="9.9100877"><ele>14.5</ele><time>2026-04-04T12:08:18.715Z</time></trkpt><trkpt lat="44.1479778" lon="9.9099103"><ele>13.0</ele><time>2026-04-04T12:08:19.716Z</time></trkpt><trkpt lat="44.1477579" lon="9.9097023"><ele>13.0</ele><time>2026-04-04T12:08:20.72Z</time></trkpt><trkpt lat="44.1475068" lon="9.9094672"><ele>13.0</ele><time>2026-04-04T12:08:21.721Z</time></trkpt><trkpt lat="44.1472605" lon="9.909242"><ele>12.5</ele><time>2026-04-04T12:08:22.72Z</time></trkpt><trkpt lat="44.1470198" lon="9.9090293"><ele>12.0</ele><time>2026-04-04T12:08:23.74Z</time></trkpt><trkpt lat="44.1467885" lon="9.9088286"><ele>12.0</ele><time>2026-04-04T12:08:24.718Z</time></trkpt><trkpt lat="44.1465588" lon="9.9086264"><ele>12.0</ele><time>2026-04-04T12:08:25.724Z</time></trkpt><trkpt lat="44.1463262" lon="9.9084219"><ele>12.5</ele><time>2026-04-04T12:08:26.71Z</time></trkpt><trkpt lat="44.1460914" lon="9.908217"><ele>13.0</ele><time>2026-04-04T12:08:27.711Z</time></trkpt><trkpt lat="44.1458504" lon="9.9080159"><ele>13.5</ele><time>2026-04-04T12:08:28.727Z</time></trkpt><trkpt lat="44.1456261" lon="9.9078188"><ele>14.0</ele><time>2026-04-04T12:08:29.716Z</time></trkpt><trkpt lat="44.1453963" lon="9.9076186"><ele>14.5</ele><time>2026-04-04T12:08:30.709Z</time></trkpt><trkpt lat="44.1451305" lon="9.9073809"><ele>15.0</ele><time>2026-04-04T12:08:31.719Z</time></trkpt><trkpt lat="44.1448242" lon="9.9071114"><ele>15.0</ele><time>2026-04-04T12:08:32.717Z</time></trkpt><trkpt lat="44.144473" lon="9.9068115"><ele>15.0</ele><time>2026-04-04T12:08:33.719Z</time></trkpt><trkpt lat="44.1441302" lon="9.9065155"><ele>15.0</ele><time>2026-04-04T12:08:34.711Z</time></trkpt><trkpt lat="44.1438241" lon="9.9062396"><ele>15.0</ele><time>2026-04-04T12:08:35.713Z</time></trkpt><trkpt lat="44.1435458" lon="9.9059998"><ele>14.5</ele><time>2026-04-04T12:08:36.717Z</time></trkpt><trkpt lat="44.1432793" lon="9.905774"><ele>14.0</ele><time>2026-04-04T12:08:37.715Z</time></trkpt><trkpt lat="44.1430357" lon="9.9055615"><ele>14.0</ele><time>2026-04-04T12:08:38.718Z</time></trkpt><trkpt lat="44.1428077" lon="9.9053605"><ele>14.0</ele><time>2026-04-04T12:08:39.723Z</time></trkpt><trkpt lat="44.1425786" lon="9.9051679"><ele>15.0</ele><time>2026-04-04T12:08:40.717Z</time></trkpt><trkpt lat="44.1423441" lon="9.9049704"><ele>16.0</ele><time>2026-04-04T12:08:41.714Z</time></trkpt><trkpt lat="44.1421089" lon="9.9047726"><ele>16.0</ele><time>2026-04-04T12:08:42.713Z</time></trkpt><trkpt lat="44.1418712" lon="9.9045691"><ele>16.0</ele><time>2026-04-04T12:08:43.713Z</time></trkpt><trkpt lat="44.1416278" lon="9.9043598"><ele>16.5</ele><time>2026-04-04T12:08:44.727Z</time></trkpt><trkpt lat="44.141394" lon="9.904151"><ele>17.0</ele><time>2026-04-04T12:08:45.725Z</time></trkpt><trkpt lat="44.1411571" lon="9.9039338"><ele>17.0</ele><time>2026-04-04T12:08:46.732Z</time></trkpt><trkpt lat="44.1409207" lon="9.9037137"><ele>17.0</ele><time>2026-04-04T12:08:47.722Z</time></trkpt><trkpt lat="44.1406846" lon="9.9034949"><ele>15.0</ele><time>2026-04-04T12:08:48.724Z</time></trkpt><trkpt lat="44.1404497" lon="9.903284"><ele>13.0</ele><time>2026-04-04T12:08:49.72Z</time></trkpt><trkpt lat="44.1402114" lon="9.9030724"><ele>13.0</ele><time>2026-04-04T12:08:50.719Z</time></trkpt><trkpt lat="44.1399703" lon="9.9028685"><ele>13.0</ele><time>2026-04-04T12:08:51.711Z</time></trkpt><trkpt lat="44.1397324" lon="9.9026588"><ele>16.0</ele><time>2026-04-04T12:08:52.72Z</time></trkpt><trkpt lat="44.1394893" lon="9.9024471"><ele>19.0</ele><time>2026-04-04T12:08:53.723Z</time></trkpt><trkpt lat="44.1392444" lon="9.9022327"><ele>17.0</ele><time>2026-04-04T12:08:54.722Z</time></trkpt><trkpt lat="44.139004" lon="9.9020218"><ele>15.0</ele><time>2026-04-04T12:08:55.72Z</time></trkpt><trkpt lat="44.1387676" lon="9.9018172"><ele>14.5</ele><time>2026-04-04T12:08:56.721Z</time></trkpt><trkpt lat="44.1385291" lon="9.9016066"><ele>14.0</ele><time>2026-04-04T12:08:57.721Z</time></trkpt><trkpt lat="44.1382955" lon="9.9014004"><ele>14.0</ele><time>2026-04-04T12:08:58.737Z</time></trkpt><trkpt lat="44.1380637" lon="9.9011977"><ele>14.0</ele><time>2026-04-04T12:08:59.742Z</time></trkpt><trkpt lat="44.1378346" lon="9.9009975"><ele>14.5</ele><time>2026-04-04T12:09:00.722Z</time></trkpt><trkpt lat="44.1376055" lon="9.9008011"><ele>15.0</ele><time>2026-04-04T12:09:01.722Z</time></trkpt><trkpt lat="44.1373818" lon="9.9006024"><ele>15.0</ele><time>2026-04-04T12:09:02.725Z</time></trkpt><trkpt lat="44.1371604" lon="9.9004116"><ele>15.0</ele><time>2026-04-04T12:09:03.719Z</time></trkpt><trkpt lat="44.1369442" lon="9.9002248"><ele>15.5</ele><time>2026-04-04T12:09:04.72Z</time></trkpt><trkpt lat="44.1367303" lon="9.9000387"><ele>16.0</ele><time>2026-04-04T12:09:05.708Z</time></trkpt><trkpt lat="44.1365184" lon="9.8998553"><ele>17.0</ele><time>2026-04-04T12:09:06.713Z</time></trkpt><trkpt lat="44.1363049" lon="9.8996586"><ele>18.0</ele><time>2026-04-04T12:09:07.716Z</time></trkpt><trkpt lat="44.1360888" lon="9.8994604"><ele>18.0</ele><time>2026-04-04T12:09:08.72Z</time></trkpt><trkpt lat="44.1358616" lon="9.8992677"><ele>18.0</ele><time>2026-04-04T12:09:09.717Z</time></trkpt><trkpt lat="44.1356226" lon="9.8990785"><ele>18.0</ele><time>2026-04-04T12:09:10.712Z</time></trkpt><trkpt lat="44.135378" lon="9.8988979"><ele>18.0</ele><time>2026-04-04T12:09:11.718Z</time></trkpt><trkpt lat="44.1351225" lon="9.8987304"><ele>17.5</ele><time>2026-04-04T12:09:12.71Z</time></trkpt><trkpt lat="44.1348516" lon="9.8985593"><ele>17.0</ele><time>2026-04-04T12:09:13.725Z</time></trkpt><trkpt lat="44.1345755" lon="9.8983959"><ele>19.0</ele><time>2026-04-04T12:09:14.724Z</time></trkpt><trkpt lat="44.1342993" lon="9.8982389"><ele>21.0</ele><time>2026-04-04T12:09:15.727Z</time></trkpt><trkpt lat="44.1340213" lon="9.8980993"><ele>21.0</ele><time>2026-04-04T12:09:16.723Z</time></trkpt><trkpt lat="44.1337494" lon="9.8979606"><ele>21.0</ele><time>2026-04-04T12:09:17.739Z</time></trkpt><trkpt lat="44.1334879" lon="9.8978244"><ele>21.0</ele><time>2026-04-04T12:09:18.71Z</time></trkpt><trkpt lat="44.1332323" lon="9.8976781"><ele>21.0</ele><time>2026-04-04T12:09:19.722Z</time></trkpt><trkpt lat="44.1329747" lon="9.8975345"><ele>25.0</ele><time>2026-04-04T12:09:20.72Z</time></trkpt><trkpt lat="44.1327124" lon="9.8973933"><ele>29.0</ele><time>2026-04-04T12:09:21.717Z</time></trkpt><trkpt lat="44.1324486" lon="9.8972657"><ele>38.0</ele><time>2026-04-04T12:09:22.714Z</time></trkpt><trkpt lat="44.1321878" lon="9.8971297"><ele>47.0</ele><time>2026-04-04T12:09:23.721Z</time></trkpt><trkpt lat="44.1319248" lon="9.8969888"><ele>47.0</ele><time>2026-04-04T12:09:24.733Z</time></trkpt><trkpt lat="44.1316661" lon="9.8968477"><ele>47.0</ele><time>2026-04-04T12:09:25.721Z</time></trkpt><trkpt lat="44.1314103" lon="9.8966898"><ele>49.5</ele><time>2026-04-04T12:09:26.713Z</time></trkpt><trkpt lat="44.1311594" lon="9.8965208"><ele>52.0</ele><time>2026-04-04T12:09:27.738Z</time></trkpt><trkpt lat="44.1309051" lon="9.8963283"><ele>59.5</ele><time>2026-04-04T12:09:28.725Z</time></trkpt><trkpt lat="44.1306521" lon="9.8961467"><ele>67.0</ele><time>2026-04-04T12:09:29.75Z</time></trkpt><trkpt lat="44.1303901" lon="9.8959766"><ele>61.0</ele><time>2026-04-04T12:09:30.741Z</time></trkpt><trkpt lat="44.1301217" lon="9.8958257"><ele>55.0</ele><time>2026-04-04T12:09:31.717Z</time></trkpt><trkpt lat="44.1298459" lon="9.8956845"><ele>55.0</ele><time>2026-04-04T12:09:32.719Z</time></trkpt><trkpt lat="44.1295694" lon="9.8955517"><ele>55.0</ele><time>2026-04-04T12:09:33.724Z</time></trkpt><trkpt lat="44.129293" lon="9.8954342"><ele>54.0</ele><time>2026-04-04T12:09:34.735Z</time></trkpt><trkpt lat="44.1290069" lon="9.8953454"><ele>53.0</ele><time>2026-04-04T12:09:35.74Z</time></trkpt><trkpt lat="44.1287191" lon="9.8952926"><ele>53.0</ele><time>2026-04-04T12:09:36.759Z</time></trkpt><trkpt lat="44.1284329" lon="9.8952546"><ele>53.0</ele><time>2026-04-04T12:09:37.733Z</time></trkpt><trkpt lat="44.1281505" lon="9.895231"><ele>46.5</ele><time>2026-04-04T12:09:38.711Z</time></trkpt><trkpt lat="44.1278638" lon="9.895202"><ele>40.0</ele><time>2026-04-04T12:09:39.718Z</time></trkpt><trkpt lat="44.1275629" lon="9.8951645"><ele>37.5</ele><time>2026-04-04T12:09:40.716Z</time></trkpt><trkpt lat="44.1272602" lon="9.8950988"><ele>35.0</ele><time>2026-04-04T12:09:41.71Z</time></trkpt><trkpt lat="44.12696" lon="9.8950187"><ele>33.5</ele><time>2026-04-04T12:09:42.73Z</time></trkpt><trkpt lat="44.126664" lon="9.8949122"><ele>32.0</ele><time>2026-04-04T12:09:43.736Z</time></trkpt><trkpt lat="44.1263773" lon="9.8947748"><ele>31.5</ele><time>2026-04-04T12:09:44.735Z</time></trkpt><trkpt lat="44.1260937" lon="9.8945986"><ele>31.0</ele><time>2026-04-04T12:09:45.737Z</time></trkpt><trkpt lat="44.1258247" lon="9.8943892"><ele>39.0</ele><time>2026-04-04T12:09:46.711Z</time></trkpt><trkpt lat="44.1255524" lon="9.8941741"><ele>47.0</ele><time>2026-04-04T12:09:47.721Z</time></trkpt><trkpt lat="44.1252903" lon="9.8939568"><ele>47.0</ele><time>2026-04-04T12:09:48.708Z</time></trkpt><trkpt lat="44.1250414" lon="9.8937315"><ele>47.0</ele><time>2026-04-04T12:09:49.71Z</time></trkpt><trkpt lat="44.1248047" lon="9.8935256"><ele>50.0</ele><time>2026-04-04T12:09:50.724Z</time></trkpt><trkpt lat="44.1245719" lon="9.8933314"><ele>53.0</ele><time>2026-04-04T12:09:51.721Z</time></trkpt><trkpt lat="44.1243412" lon="9.8931299"><ele>53.0</ele><time>2026-04-04T12:09:52.715Z</time></trkpt><trkpt lat="44.1241028" lon="9.8929037"><ele>53.0</ele><time>2026-04-04T12:09:53.714Z</time></trkpt><trkpt lat="44.1238627" lon="9.8926783"><ele>65.5</ele><time>2026-04-04T12:09:54.711Z</time></trkpt><trkpt lat="44.1236226" lon="9.8924574"><ele>78.0</ele><time>2026-04-04T12:09:55.705Z</time></trkpt><trkpt lat="44.1233864" lon="9.8922314"><ele>90.0</ele><time>2026-04-04T12:09:56.696Z</time></trkpt><trkpt lat="44.1231485" lon="9.8920143"><ele>102.0</ele><time>2026-04-04T12:09:57.688Z</time></trkpt><trkpt lat="44.1228956" lon="9.8917805"><ele>102.5</ele><time>2026-04-04T12:09:58.695Z</time></trkpt><trkpt lat="44.1226511" lon="9.8915659"><ele>103.0</ele><time>2026-04-04T12:09:59.675Z</time></trkpt><trkpt lat="44.122414" lon="9.8913417"><ele>114.5</ele><time>2026-04-04T12:10:00.646Z</time></trkpt><trkpt lat="44.1221769" lon="9.8911175"><ele>126.0</ele><time>2026-04-04T12:10:01.594Z</time></trkpt><trkpt lat="44.1170561" lon="9.8861011"><ele>79.0</ele><time>2026-04-04T12:10:23.698Z</time></trkpt><trkpt lat="44.1169312" lon="9.8857474"><ele>32.0</ele><time>2026-04-04T12:10:24.704Z</time></trkpt><trkpt lat="44.116787" lon="9.8854346"><ele>32.0</ele><time>2026-04-04T12:10:25.702Z</time></trkpt><trkpt lat="44.1166811" lon="9.8850962"><ele>32.0</ele><time>2026-04-04T12:10:26.719Z</time></trkpt><trkpt lat="44.116591" lon="9.884737"><ele>31.5</ele><time>2026-04-04T12:10:27.713Z</time></trkpt><trkpt lat="44.1165171" lon="9.8843703"><ele>31.0</ele><time>2026-04-04T12:10:28.732Z</time></trkpt><trkpt lat="44.1164548" lon="9.8840348"><ele>26.5</ele><time>2026-04-04T12:10:29.719Z</time></trkpt><trkpt lat="44.1164069" lon="9.8836774"><ele>22.0</ele><time>2026-04-04T12:10:30.72Z</time></trkpt><trkpt lat="44.1163704" lon="9.8833275"><ele>21.0</ele><time>2026-04-04T12:10:31.721Z</time></trkpt><trkpt lat="44.1163481" lon="9.8829824"><ele>20.0</ele><time>2026-04-04T12:10:32.722Z</time></trkpt><trkpt lat="44.1163384" lon="9.8826333"><ele>18.5</ele><time>2026-04-04T12:10:33.732Z</time></trkpt><trkpt lat="44.1163373" lon="9.8822811"><ele>17.0</ele><time>2026-04-04T12:10:34.724Z</time></trkpt><trkpt lat="44.1163346" lon="9.8819334"><ele>15.5</ele><time>2026-04-04T12:10:35.722Z</time></trkpt><trkpt lat="44.1163297" lon="9.8815892"><ele>14.0</ele><time>2026-04-04T12:10:36.721Z</time></trkpt><trkpt lat="44.1163176" lon="9.8812533"><ele>16.0</ele><time>2026-04-04T12:10:37.723Z</time></trkpt><trkpt lat="44.1162879" lon="9.8809095"><ele>18.0</ele><time>2026-04-04T12:10:38.722Z</time></trkpt><trkpt lat="44.1162526" lon="9.8805618"><ele>18.0</ele><time>2026-04-04T12:10:39.713Z</time></trkpt><trkpt lat="44.1162109" lon="9.8802255"><ele>18.0</ele><time>2026-04-04T12:10:40.725Z</time></trkpt><trkpt lat="44.1161607" lon="9.8798851"><ele>17.5</ele><time>2026-04-04T12:10:41.722Z</time></trkpt><trkpt lat="44.116104" lon="9.8795419"><ele>17.0</ele><time>2026-04-04T12:10:42.719Z</time></trkpt><trkpt lat="44.1160471" lon="9.8791694"><ele>17.0</ele><time>2026-04-04T12:10:43.719Z</time></trkpt><trkpt lat="44.11598" lon="9.8787638"><ele>17.0</ele><time>2026-04-04T12:10:44.723Z</time></trkpt><trkpt lat="44.1158972" lon="9.8783488"><ele>14.5</ele><time>2026-04-04T12:10:45.725Z</time></trkpt><trkpt lat="44.1158205" lon="9.8779114"><ele>12.0</ele><time>2026-04-04T12:10:46.722Z</time></trkpt><trkpt lat="44.1157476" lon="9.8774828"><ele>11.0</ele><time>2026-04-04T12:10:47.72Z</time></trkpt><trkpt lat="44.1156777" lon="9.8770744"><ele>10.0</ele><time>2026-04-04T12:10:48.713Z</time></trkpt><trkpt lat="44.1156205" lon="9.8766991"><ele>10.0</ele><time>2026-04-04T12:10:49.727Z</time></trkpt><trkpt lat="44.1155631" lon="9.8763225"><ele>10.0</ele><time>2026-04-04T12:10:50.713Z</time></trkpt><trkpt lat="44.115512" lon="9.8759766"><ele>9.5</ele><time>2026-04-04T12:10:51.715Z</time></trkpt><trkpt lat="44.1154725" lon="9.8756526"><ele>9.0</ele><time>2026-04-04T12:10:52.717Z</time></trkpt><trkpt lat="44.1154251" lon="9.8753372"><ele>8.666666666666666</ele><time>2026-04-04T12:10:53.718Z</time></trkpt><trkpt lat="44.1153722" lon="9.8750444"><ele>8.333333333333332</ele><time>2026-04-04T12:10:54.722Z</time></trkpt><trkpt lat="44.1153209" lon="9.8747693"><ele>8.0</ele><time>2026-04-04T12:10:55.722Z</time></trkpt><trkpt lat="44.1152769" lon="9.8744884"><ele>8.333333333333332</ele><time>2026-04-04T12:10:56.718Z</time></trkpt><trkpt lat="44.1152298" lon="9.8741821"><ele>8.666666666666666</ele><time>2026-04-04T12:10:57.721Z</time></trkpt><trkpt lat="44.115182" lon="9.8738842"><ele>9.0</ele><time>2026-04-04T12:10:58.73Z</time></trkpt><trkpt lat="44.1151339" lon="9.8736011"><ele>9.666666666666666</ele><time>2026-04-04T12:10:59.715Z</time></trkpt><trkpt lat="44.1150858" lon="9.8733161"><ele>10.333333333333332</ele><time>2026-04-04T12:11:00.72Z</time></trkpt><trkpt lat="44.115041" lon="9.8730321"><ele>11.0</ele><time>2026-04-04T12:11:01.72Z</time></trkpt><trkpt lat="44.1149944" lon="9.8727622"><ele>11.333333333333332</ele><time>2026-04-04T12:11:02.722Z</time></trkpt><trkpt lat="44.1149442" lon="9.8724731"><ele>11.666666666666666</ele><time>2026-04-04T12:11:03.719Z</time></trkpt><trkpt lat="44.1148969" lon="9.8721813"><ele>12.0</ele><time>2026-04-04T12:11:04.723Z</time></trkpt><trkpt lat="44.1148513" lon="9.8718817"><ele>9.666666666666666</ele><time>2026-04-04T12:11:05.721Z</time></trkpt><trkpt lat="44.1148085" lon="9.8715813"><ele>7.333333333333334</ele><time>2026-04-04T12:11:06.722Z</time></trkpt><trkpt lat="44.1147625" lon="9.871288"><ele>5.0</ele><time>2026-04-04T12:11:07.723Z</time></trkpt><trkpt lat="44.1147206" lon="9.8709796"><ele>5.333333333333334</ele><time>2026-04-04T12:11:08.738Z</time></trkpt><trkpt lat="44.1146911" lon="9.8706689"><ele>5.666666666666667</ele><time>2026-04-04T12:11:09.736Z</time></trkpt><trkpt lat="44.1146793" lon="9.8703652"><ele>6.0</ele><time>2026-04-04T12:11:10.732Z</time></trkpt><trkpt lat="44.1146725" lon="9.8700549"><ele>6.5</ele><time>2026-04-04T12:11:11.73Z</time></trkpt><trkpt lat="44.114682" lon="9.8697379"><ele>7.0</ele><time>2026-04-04T12:11:12.732Z</time></trkpt><trkpt lat="44.1147062" lon="9.8694151"><ele>7.0</ele><time>2026-04-04T12:11:13.738Z</time></trkpt><trkpt lat="44.1147349" lon="9.8691054"><ele>7.0</ele><time>2026-04-04T12:11:14.735Z</time></trkpt><trkpt lat="44.1147725" lon="9.8687901"><ele>7.0</ele><time>2026-04-04T12:11:15.731Z</time></trkpt><trkpt lat="44.1148106" lon="9.86848"><ele>7.0</ele><time>2026-04-04T12:11:16.735Z</time></trkpt><trkpt lat="44.1148493" lon="9.8681754"><ele>7.0</ele><time>2026-04-04T12:11:17.732Z</time></trkpt><trkpt lat="44.1148944" lon="9.8678971"><ele>6.333333333333334</ele><time>2026-04-04T12:11:18.734Z</time></trkpt><trkpt lat="44.1149447" lon="9.8676182"><ele>5.666666666666667</ele><time>2026-04-04T12:11:19.734Z</time></trkpt><trkpt lat="44.1149906" lon="9.8673318"><ele>5.0</ele><time>2026-04-04T12:11:20.748Z</time></trkpt><trkpt lat="44.1150291" lon="9.8670396"><ele>5.0</ele><time>2026-04-04T12:11:21.731Z</time></trkpt><trkpt lat="44.1150637" lon="9.8667447"><ele>5.0</ele><time>2026-04-04T12:11:22.738Z</time></trkpt><trkpt lat="44.1151029" lon="9.8664463"><ele>5.0</ele><time>2026-04-04T12:11:23.74Z</time></trkpt><trkpt lat="44.1151372" lon="9.866151"><ele>5.0</ele><time>2026-04-04T12:11:24.734Z</time></trkpt><trkpt lat="44.1151758" lon="9.8658605"><ele>5.0</ele><time>2026-04-04T12:11:25.724Z</time></trkpt><trkpt lat="44.1151983" lon="9.8655684"><ele>5.0</ele><time>2026-04-04T12:11:26.733Z</time></trkpt><trkpt lat="44.1152164" lon="9.8652622"><ele>4.666666666666667</ele><time>2026-04-04T12:11:27.735Z</time></trkpt><trkpt lat="44.1152194" lon="9.8649553"><ele>4.333333333333333</ele><time>2026-04-04T12:11:28.75Z</time></trkpt><trkpt lat="44.1152154" lon="9.8646517"><ele>4.0</ele><time>2026-04-04T12:11:29.739Z</time></trkpt><trkpt lat="44.115197" lon="9.8643653"><ele>4.666666666666666</ele><time>2026-04-04T12:11:30.737Z</time></trkpt><trkpt lat="44.1151662" lon="9.8640863"><ele>5.333333333333333</ele><time>2026-04-04T12:11:31.737Z</time></trkpt><trkpt lat="44.1151281" lon="9.8638251"><ele>6.0</ele><time>2026-04-04T12:11:32.734Z</time></trkpt><trkpt lat="44.1150746" lon="9.8635564"><ele>5.0</ele><time>2026-04-04T12:11:33.735Z</time></trkpt><trkpt lat="44.1150084" lon="9.8633083"><ele>4.0</ele><time>2026-04-04T12:11:34.735Z</time></trkpt><trkpt lat="44.1149399" lon="9.8630753"><ele>3.0</ele><time>2026-04-04T12:11:35.735Z</time></trkpt><trkpt lat="44.1148755" lon="9.8628536"><ele>3.0</ele><time>2026-04-04T12:11:36.74Z</time></trkpt><trkpt lat="44.1147946" lon="9.862635"><ele>3.0</ele><time>2026-04-04T12:11:37.738Z</time></trkpt><trkpt lat="44.1147066" lon="9.8624373"><ele>3.0</ele><time>2026-04-04T12:11:38.738Z</time></trkpt><trkpt lat="44.114613" lon="9.8622539"><ele>3.333333333333333</ele><time>2026-04-04T12:11:39.745Z</time></trkpt><trkpt lat="44.1145097" lon="9.8620698"><ele>3.6666666666666665</ele><time>2026-04-04T12:11:40.739Z</time></trkpt><trkpt lat="44.1143999" lon="9.8618822"><ele>4.0</ele><time>2026-04-04T12:11:41.739Z</time></trkpt><trkpt lat="44.1143041" lon="9.8616937"><ele>4.0</ele><time>2026-04-04T12:11:42.741Z</time></trkpt><trkpt lat="44.1142039" lon="9.8615042"><ele>4.0</ele><time>2026-04-04T12:11:43.741Z</time></trkpt><trkpt lat="44.1140968" lon="9.8613162"><ele>4.0</ele><time>2026-04-04T12:11:44.75Z</time></trkpt><trkpt lat="44.1139835" lon="9.8611385"><ele>4.0</ele><time>2026-04-04T12:11:45.746Z</time></trkpt><trkpt lat="44.1138816" lon="9.8609599"><ele>4.0</ele><time>2026-04-04T12:11:46.748Z</time></trkpt><trkpt lat="44.1137837" lon="9.8607904"><ele>4.0</ele><time>2026-04-04T12:11:47.737Z</time></trkpt><trkpt lat="44.1136939" lon="9.8606298"><ele>4.5</ele><time>2026-04-04T12:11:48.745Z</time></trkpt><trkpt lat="44.1135986" lon="9.8604897"><ele>5.0</ele><time>2026-04-04T12:11:49.741Z</time></trkpt><trkpt lat="44.1135082" lon="9.8603329"><ele>5.5</ele><time>2026-04-04T12:11:50.744Z</time></trkpt><trkpt lat="44.113411" lon="9.8601754"><ele>6.0</ele><time>2026-04-04T12:11:51.761Z</time></trkpt><trkpt lat="44.1133189" lon="9.860014"><ele>5.5</ele><time>2026-04-04T12:11:52.743Z</time></trkpt><trkpt lat="44.1132394" lon="9.8598428"><ele>5.0</ele><time>2026-04-04T12:11:53.747Z</time></trkpt><trkpt lat="44.1131685" lon="9.8596653"><ele>4.5</ele><time>2026-04-04T12:11:54.743Z</time></trkpt><trkpt lat="44.1131276" lon="9.8594807"><ele>4.0</ele><time>2026-04-04T12:11:55.737Z</time></trkpt><trkpt lat="44.1130953" lon="9.8592818"><ele>4.0</ele><time>2026-04-04T12:11:56.74Z</time></trkpt><trkpt lat="44.1130863" lon="9.8590709"><ele>4.0</ele><time>2026-04-04T12:11:57.744Z</time></trkpt><trkpt lat="44.1130909" lon="9.85884"><ele>4.0</ele><time>2026-04-04T12:11:58.741Z</time></trkpt><trkpt lat="44.1131218" lon="9.8585791"><ele>5.333333333333333</ele><time>2026-04-04T12:11:59.781Z</time></trkpt><trkpt lat="44.1131816" lon="9.8583122"><ele>6.666666666666666</ele><time>2026-04-04T12:12:00.75Z</time></trkpt><trkpt lat="44.1132614" lon="9.8580551"><ele>8.0</ele><time>2026-04-04T12:12:01.734Z</time></trkpt><trkpt lat="44.1133563" lon="9.8577977"><ele>6.666666666666666</ele><time>2026-04-04T12:12:02.743Z</time></trkpt><trkpt lat="44.1134561" lon="9.8575566"><ele>5.333333333333333</ele><time>2026-04-04T12:12:03.734Z</time></trkpt><trkpt lat="44.1135484" lon="9.8573303"><ele>4.0</ele><time>2026-04-04T12:12:04.746Z</time></trkpt><trkpt lat="44.1136438" lon="9.8570969"><ele>4.0</ele><time>2026-04-04T12:12:05.741Z</time></trkpt><trkpt lat="44.1137286" lon="9.8568445"><ele>4.0</ele><time>2026-04-04T12:12:06.739Z</time></trkpt><trkpt lat="44.1137837" lon="9.8565897"><ele>4.0</ele><time>2026-04-04T12:12:07.742Z</time></trkpt><trkpt lat="44.1138176" lon="9.8563499"><ele>4.0</ele><time>2026-04-04T12:12:08.741Z</time></trkpt><trkpt lat="44.1138361" lon="9.8561103"><ele>4.0</ele><time>2026-04-04T12:12:09.742Z</time></trkpt><trkpt lat="44.1138402" lon="9.8558751"><ele>4.0</ele><time>2026-04-04T12:12:10.745Z</time></trkpt><trkpt lat="44.1138344" lon="9.8556334"><ele>4.0</ele><time>2026-04-04T12:12:11.737Z</time></trkpt><trkpt lat="44.1138204" lon="9.8553423"><ele>4.0</ele><time>2026-04-04T12:12:12.737Z</time></trkpt><trkpt lat="44.1138139" lon="9.8550149"><ele>4.0</ele><time>2026-04-04T12:12:13.738Z</time></trkpt><trkpt lat="44.1138" lon="9.8546666"><ele>4.5</ele><time>2026-04-04T12:12:14.749Z</time></trkpt><trkpt lat="44.1137916" lon="9.854317"><ele>5.0</ele><time>2026-04-04T12:12:15.753Z</time></trkpt><trkpt lat="44.1137858" lon="9.8539664"><ele>5.0</ele><time>2026-04-04T12:12:16.748Z</time></trkpt><trkpt lat="44.1137768" lon="9.8536365"><ele>5.0</ele><time>2026-04-04T12:12:17.761Z</time></trkpt><trkpt lat="44.1137714" lon="9.8533067"><ele>4.666666666666667</ele><time>2026-04-04T12:12:18.743Z</time></trkpt><trkpt lat="44.113767" lon="9.8529918"><ele>4.333333333333333</ele><time>2026-04-04T12:12:19.74Z</time></trkpt><trkpt lat="44.1137673" lon="9.8526932"><ele>4.0</ele><time>2026-04-04T12:12:20.74Z</time></trkpt><trkpt lat="44.1137619" lon="9.8524215"><ele>3.6666666666666665</ele><time>2026-04-04T12:12:21.744Z</time></trkpt><trkpt lat="44.1137491" lon="9.8521757"><ele>3.333333333333333</ele><time>2026-04-04T12:12:22.755Z</time></trkpt><trkpt lat="44.1137477" lon="9.851941"><ele>3.0</ele><time>2026-04-04T12:12:23.747Z</time></trkpt><trkpt lat="44.1137451" lon="9.8517052"><ele>2.3333333333333335</ele><time>2026-04-04T12:12:24.744Z</time></trkpt><trkpt lat="44.1137371" lon="9.8514578"><ele>1.6666666666666665</ele><time>2026-04-04T12:12:25.742Z</time></trkpt><trkpt lat="44.1137281" lon="9.8512037"><ele>1.0</ele><time>2026-04-04T12:12:26.742Z</time></trkpt><trkpt lat="44.1137235" lon="9.850967"><ele>2.3333333333333335</ele><time>2026-04-04T12:12:27.744Z</time></trkpt><trkpt lat="44.1137194" lon="9.8507529"><ele>3.666666666666667</ele><time>2026-04-04T12:12:28.749Z</time></trkpt><trkpt lat="44.1137188" lon="9.8505259"><ele>5.0</ele><time>2026-04-04T12:12:29.74Z</time></trkpt><trkpt lat="44.113718" lon="9.8502878"><ele>4.666666666666667</ele><time>2026-04-04T12:12:30.747Z</time></trkpt><trkpt lat="44.1137172" lon="9.850037"><ele>4.333333333333333</ele><time>2026-04-04T12:12:31.744Z</time></trkpt><trkpt lat="44.1137101" lon="9.8497746"><ele>4.0</ele><time>2026-04-04T12:12:32.742Z</time></trkpt><trkpt lat="44.1137027" lon="9.8495311"><ele>4.0</ele><time>2026-04-04T12:12:33.752Z</time></trkpt><trkpt lat="44.1136997" lon="9.8493215"><ele>4.0</ele><time>2026-04-04T12:12:34.741Z</time></trkpt><trkpt lat="44.1136962" lon="9.8491279"><ele>4.0</ele><time>2026-04-04T12:12:35.764Z</time></trkpt><trkpt lat="44.1136925" lon="9.8489458"><ele>4.0</ele><time>2026-04-04T12:12:36.742Z</time></trkpt><trkpt lat="44.1136908" lon="9.8487593"><ele>3.8000000000000003</ele><time>2026-04-04T12:12:37.741Z</time></trkpt><trkpt lat="44.1136911" lon="9.8485803"><ele>3.6000000000000005</ele><time>2026-04-04T12:12:38.741Z</time></trkpt><trkpt lat="44.1136897" lon="9.8484137"><ele>3.4</ele><time>2026-04-04T12:12:39.739Z</time></trkpt><trkpt lat="44.1136797" lon="9.8482863"><ele>3.2</ele><time>2026-04-04T12:12:40.739Z</time></trkpt><trkpt lat="44.1136811" lon="9.8481441"><ele>3.0</ele><time>2026-04-04T12:12:41.743Z</time></trkpt><trkpt lat="44.113683" lon="9.8479311"><ele>3.666666666666667</ele><time>2026-04-04T12:12:42.749Z</time></trkpt><trkpt lat="44.1136794" lon="9.8476541"><ele>4.333333333333334</ele><time>2026-04-04T12:12:43.736Z</time></trkpt><trkpt lat="44.1136841" lon="9.8473537"><ele>5.0</ele><time>2026-04-04T12:12:44.746Z</time></trkpt><trkpt lat="44.1136887" lon="9.8470421"><ele>4.666666666666667</ele><time>2026-04-04T12:12:45.747Z</time></trkpt><trkpt lat="44.1136801" lon="9.846729"><ele>4.333333333333333</ele><time>2026-04-04T12:12:46.746Z</time></trkpt><trkpt lat="44.113675" lon="9.8464531"><ele>4.0</ele><time>2026-04-04T12:12:47.742Z</time></trkpt><trkpt lat="44.1136725" lon="9.8462107"><ele>4.0</ele><time>2026-04-04T12:12:48.743Z</time></trkpt><trkpt lat="44.1136702" lon="9.8459715"><ele>4.0</ele><time>2026-04-04T12:12:49.742Z</time></trkpt><trkpt lat="44.1136705" lon="9.8457188"><ele>4.0</ele><time>2026-04-04T12:12:50.745Z</time></trkpt><trkpt lat="44.1136734" lon="9.8454648"><ele>3.6666666666666665</ele><time>2026-04-04T12:12:51.764Z</time></trkpt><trkpt lat="44.1136729" lon="9.845208"><ele>3.333333333333333</ele><time>2026-04-04T12:12:52.746Z</time></trkpt><trkpt lat="44.1136713" lon="9.8449653"><ele>3.0</ele><time>2026-04-04T12:12:53.763Z</time></trkpt><trkpt lat="44.1136702" lon="9.8447393"><ele>3.0</ele><time>2026-04-04T12:12:54.745Z</time></trkpt><trkpt lat="44.1136682" lon="9.8445268"><ele>3.0</ele><time>2026-04-04T12:12:55.744Z</time></trkpt><trkpt lat="44.1136709" lon="9.8443182"><ele>3.0</ele><time>2026-04-04T12:12:56.734Z</time></trkpt><trkpt lat="44.1136701" lon="9.8441221"><ele>3.0</ele><time>2026-04-04T12:12:57.742Z</time></trkpt><trkpt lat="44.1136692" lon="9.8439571"><ele>3.0</ele><time>2026-04-04T12:12:58.745Z</time></trkpt><trkpt lat="44.1136615" lon="9.8438243"><ele>3.0</ele><time>2026-04-04T12:12:59.736Z</time></trkpt><trkpt lat="44.1136611" lon="9.8437295"><ele>3.0</ele><time>2026-04-04T12:13:00.741Z</time></trkpt><trkpt lat="44.1136413" lon="9.8435978"><ele>3.0</ele><time>2026-04-04T12:13:02.737Z</time></trkpt><trkpt lat="44.1136404" lon="9.8435084"><ele>3.0</ele><time>2026-04-04T12:13:04.734Z</time></trkpt><trkpt lat="44.1136312" lon="9.843372"><ele>3.0</ele><time>2026-04-04T12:13:08.726Z</time></trkpt><trkpt lat="44.1136378" lon="9.8432393"><ele>3.3333333333333335</ele><time>2026-04-04T12:13:10.736Z</time></trkpt><trkpt lat="44.1136446" lon="9.8431471"><ele>3.666666666666667</ele><time>2026-04-04T12:13:11.721Z</time></trkpt><trkpt lat="44.1136468" lon="9.8430447"><ele>4.0</ele><time>2026-04-04T12:13:12.724Z</time></trkpt><trkpt lat="44.1136467" lon="9.842924"><ele>4.333333333333334</ele><time>2026-04-04T12:13:13.724Z</time></trkpt><trkpt lat="44.1136441" lon="9.8427802"><ele>4.666666666666667</ele><time>2026-04-04T12:13:14.733Z</time></trkpt><trkpt lat="44.1136389" lon="9.8426325"><ele>5.0</ele><time>2026-04-04T12:13:15.759Z</time></trkpt><trkpt lat="44.1136341" lon="9.8424851"><ele>5.0</ele><time>2026-04-04T12:13:16.744Z</time></trkpt><trkpt lat="44.11363" lon="9.842341"><ele>5.0</ele><time>2026-04-04T12:13:17.741Z</time></trkpt><trkpt lat="44.113628" lon="9.8421957"><ele>5.0</ele><time>2026-04-04T12:13:18.742Z</time></trkpt><trkpt lat="44.1136246" lon="9.8420438"><ele>5.0</ele><time>2026-04-04T12:13:19.742Z</time></trkpt><trkpt lat="44.1136205" lon="9.8418818"><ele>5.0</ele><time>2026-04-04T12:13:20.736Z</time></trkpt><trkpt lat="44.1136189" lon="9.841719"><ele>5.0</ele><time>2026-04-04T12:13:21.745Z</time></trkpt><trkpt lat="44.1136182" lon="9.8415451"><ele>5.0</ele><time>2026-04-04T12:13:22.743Z</time></trkpt><trkpt lat="44.1136194" lon="9.8413728"><ele>5.0</ele><time>2026-04-04T12:13:23.738Z</time></trkpt><trkpt lat="44.1136216" lon="9.8412014"><ele>5.0</ele><time>2026-04-04T12:13:24.753Z</time></trkpt><trkpt lat="44.1136209" lon="9.8410266"><ele>5.0</ele><time>2026-04-04T12:13:25.74Z</time></trkpt><trkpt lat="44.1136223" lon="9.8408466"><ele>6.0</ele><time>2026-04-04T12:13:26.742Z</time></trkpt><trkpt lat="44.11362" lon="9.8406694"><ele>6.0</ele><time>2026-04-04T12:13:27.747Z</time></trkpt><trkpt lat="44.1136141" lon="9.8404991"><ele>6.0</ele><time>2026-04-04T12:13:28.748Z</time></trkpt></trkseg><trkseg><trkpt lat="44.1133198" lon="9.8372745"><ele>3.0</ele><time>2026-04-04T12:24:49.388Z</time></trkpt><trkpt lat="44.1132608" lon="9.8372334"><ele>3.0</ele><time>2026-04-04T12:24:51.375Z</time></trkpt><trkpt lat="44.1132129" lon="9.8371707"><ele>3.0</ele><time>2026-04-04T12:24:55.391Z</time></trkpt><trkpt lat="44.1131444" lon="9.8371295"><ele>3.0</ele><time>2026-04-04T12:25:03.367Z</time></trkpt><trkpt lat="44.1130721" lon="9.8371191"><ele>3.0</ele><time>2026-04-04T12:25:05.354Z</time></trkpt><trkpt lat="44.1129865" lon="9.8370328"><ele>3.0</ele><time>2026-04-04T12:25:07.351Z</time></trkpt><trkpt lat="44.1129162" lon="9.8369499"><ele>2.8333333333333335</ele><time>2026-04-04T12:25:09.345Z</time></trkpt><trkpt lat="44.1128684" lon="9.8368791"><ele>2.6666666666666665</ele><time>2026-04-04T12:25:12.354Z</time></trkpt><trkpt lat="44.1128192" lon="9.8368059"><ele>2.5</ele><time>2026-04-04T12:25:14.358Z</time></trkpt><trkpt lat="44.1127444" lon="9.8366951"><ele>2.333333333333333</ele><time>2026-04-04T12:25:16.379Z</time></trkpt><trkpt lat="44.1126963" lon="9.8366305"><ele>2.1666666666666665</ele><time>2026-04-04T12:25:17.363Z</time></trkpt><trkpt lat="44.1126367" lon="9.8365513"><ele>2.0</ele><time>2026-04-04T12:25:18.367Z</time></trkpt><trkpt lat="44.1125722" lon="9.8364623"><ele>2.2</ele><time>2026-04-04T12:25:19.381Z</time></trkpt><trkpt lat="44.1124988" lon="9.8363714"><ele>2.4000000000000004</ele><time>2026-04-04T12:25:20.374Z</time></trkpt><trkpt lat="44.1124181" lon="9.836271"><ele>2.5999999999999996</ele><time>2026-04-04T12:25:21.384Z</time></trkpt><trkpt lat="44.1123373" lon="9.8361677"><ele>2.8</ele><time>2026-04-04T12:25:22.368Z</time></trkpt><trkpt lat="44.1122529" lon="9.8360648"><ele>3.0</ele><time>2026-04-04T12:25:23.37Z</time></trkpt><trkpt lat="44.1121668" lon="9.8359576"><ele>3.5999999999999996</ele><time>2026-04-04T12:25:24.36Z</time></trkpt><trkpt lat="44.1120851" lon="9.8358538"><ele>4.199999999999999</ele><time>2026-04-04T12:25:25.368Z</time></trkpt><trkpt lat="44.1120096" lon="9.835758"><ele>4.8</ele><time>2026-04-04T12:25:26.367Z</time></trkpt><trkpt lat="44.1119406" lon="9.8356707"><ele>5.3999999999999995</ele><time>2026-04-04T12:25:27.361Z</time></trkpt><trkpt lat="44.1118817" lon="9.8355991"><ele>6.0</ele><time>2026-04-04T12:25:28.363Z</time></trkpt><trkpt lat="44.1118247" lon="9.8355248"><ele>6.0</ele><time>2026-04-04T12:25:30.373Z</time></trkpt><trkpt lat="44.1117934" lon="9.8354273"><ele>6.0</ele><time>2026-04-04T12:25:36.357Z</time></trkpt><trkpt lat="44.1117711" lon="9.8353442"><ele>6.0</ele><time>2026-04-04T12:25:40.355Z</time></trkpt><trkpt lat="44.1116958" lon="9.8352799"><ele>6.0</ele><time>2026-04-04T12:25:42.374Z</time></trkpt><trkpt lat="44.1116381" lon="9.8352169"><ele>6.0</ele><time>2026-04-04T12:25:43.34Z</time></trkpt><trkpt lat="44.1115675" lon="9.8351296"><ele>6.0</ele><time>2026-04-04T12:25:44.338Z</time></trkpt><trkpt lat="44.111482" lon="9.8350387"><ele>6.25</ele><time>2026-04-04T12:25:45.339Z</time></trkpt><trkpt lat="44.1113959" lon="9.8349221"><ele>6.5</ele><time>2026-04-04T12:25:46.336Z</time></trkpt><trkpt lat="44.111286" lon="9.8348124"><ele>6.75</ele><time>2026-04-04T12:25:47.431Z</time></trkpt><trkpt lat="44.1111702" lon="9.8346852"><ele>7.0</ele><time>2026-04-04T12:25:48.345Z</time></trkpt><trkpt lat="44.1110676" lon="9.8345649"><ele>7.0</ele><time>2026-04-04T12:25:49.354Z</time></trkpt><trkpt lat="44.1109676" lon="9.8344528"><ele>7.0</ele><time>2026-04-04T12:25:50.339Z</time></trkpt><trkpt lat="44.1108678" lon="9.8343405"><ele>7.0</ele><time>2026-04-04T12:25:51.362Z</time></trkpt><trkpt lat="44.1107682" lon="9.834236"><ele>7.0</ele><time>2026-04-04T12:25:52.361Z</time></trkpt><trkpt lat="44.110674" lon="9.8341314"><ele>6.199999999999999</ele><time>2026-04-04T12:25:53.345Z</time></trkpt><trkpt lat="44.1105828" lon="9.8340321"><ele>5.3999999999999995</ele><time>2026-04-04T12:25:54.376Z</time></trkpt><trkpt lat="44.1105025" lon="9.8339347"><ele>4.6</ele><time>2026-04-04T12:25:55.381Z</time></trkpt><trkpt lat="44.1104245" lon="9.8338487"><ele>3.8</ele><time>2026-04-04T12:25:56.352Z</time></trkpt><trkpt lat="44.1103498" lon="9.8337662"><ele>3.0</ele><time>2026-04-04T12:25:57.354Z</time></trkpt><trkpt lat="44.1102756" lon="9.8336775"><ele>3.0</ele><time>2026-04-04T12:25:58.345Z</time></trkpt><trkpt lat="44.1102024" lon="9.8335891"><ele>3.0</ele><time>2026-04-04T12:25:59.34Z</time></trkpt><trkpt lat="44.1101274" lon="9.833496"><ele>3.0</ele><time>2026-04-04T12:26:00.337Z</time></trkpt><trkpt lat="44.1100479" lon="9.8333987"><ele>3.0</ele><time>2026-04-04T12:26:01.343Z</time></trkpt><trkpt lat="44.1099634" lon="9.8332922"><ele>3.0</ele><time>2026-04-04T12:26:02.342Z</time></trkpt><trkpt lat="44.1098772" lon="9.8331826"><ele>2.8</ele><time>2026-04-04T12:26:03.343Z</time></trkpt><trkpt lat="44.1097919" lon="9.8330744"><ele>2.5999999999999996</ele><time>2026-04-04T12:26:04.349Z</time></trkpt><trkpt lat="44.1097104" lon="9.8329774"><ele>2.4000000000000004</ele><time>2026-04-04T12:26:05.334Z</time></trkpt><trkpt lat="44.1096366" lon="9.8328827"><ele>2.2</ele><time>2026-04-04T12:26:06.341Z</time></trkpt><trkpt lat="44.1095621" lon="9.8327894"><ele>2.0</ele><time>2026-04-04T12:26:07.342Z</time></trkpt><trkpt lat="44.1094935" lon="9.8326937"><ele>2.2</ele><time>2026-04-04T12:26:08.348Z</time></trkpt><trkpt lat="44.1094227" lon="9.8325995"><ele>2.4000000000000004</ele><time>2026-04-04T12:26:09.361Z</time></trkpt><trkpt lat="44.1093491" lon="9.8325058"><ele>2.5999999999999996</ele><time>2026-04-04T12:26:10.358Z</time></trkpt><trkpt lat="44.109274" lon="9.832412"><ele>2.8</ele><time>2026-04-04T12:26:11.352Z</time></trkpt><trkpt lat="44.1091995" lon="9.8323216"><ele>3.0</ele><time>2026-04-04T12:26:12.351Z</time></trkpt><trkpt lat="44.1091219" lon="9.8322384"><ele>2.8</ele><time>2026-04-04T12:26:13.35Z</time></trkpt><trkpt lat="44.1090439" lon="9.8321506"><ele>2.5999999999999996</ele><time>2026-04-04T12:26:14.347Z</time></trkpt><trkpt lat="44.1089674" lon="9.832058"><ele>2.4000000000000004</ele><time>2026-04-04T12:26:15.337Z</time></trkpt><trkpt lat="44.1088878" lon="9.8319548"><ele>2.2</ele><time>2026-04-04T12:26:16.353Z</time></trkpt><trkpt lat="44.1088021" lon="9.8318505"><ele>2.0</ele><time>2026-04-04T12:26:17.368Z</time></trkpt><trkpt lat="44.1087167" lon="9.8317441"><ele>2.4000000000000004</ele><time>2026-04-04T12:26:18.343Z</time></trkpt><trkpt lat="44.1086348" lon="9.8316356"><ele>2.8000000000000003</ele><time>2026-04-04T12:26:19.355Z</time></trkpt><trkpt lat="44.1085543" lon="9.8315417"><ele>3.2</ele><time>2026-04-04T12:26:20.338Z</time></trkpt><trkpt lat="44.108478" lon="9.8314505"><ele>3.6</ele><time>2026-04-04T12:26:21.336Z</time></trkpt><trkpt lat="44.108405" lon="9.8313625"><ele>4.0</ele><time>2026-04-04T12:26:22.376Z</time></trkpt><trkpt lat="44.1083291" lon="9.8312771"><ele>4.0</ele><time>2026-04-04T12:26:23.364Z</time></trkpt><trkpt lat="44.1082553" lon="9.8311837"><ele>4.0</ele><time>2026-04-04T12:26:24.347Z</time></trkpt><trkpt lat="44.10818" lon="9.8310937"><ele>4.0</ele><time>2026-04-04T12:26:25.344Z</time></trkpt><trkpt lat="44.1081053" lon="9.8310085"><ele>4.0</ele><time>2026-04-04T12:26:26.333Z</time></trkpt><trkpt lat="44.1080348" lon="9.8309204"><ele>4.0</ele><time>2026-04-04T12:26:27.347Z</time></trkpt><trkpt lat="44.1079644" lon="9.8308329"><ele>3.8000000000000003</ele><time>2026-04-04T12:26:28.353Z</time></trkpt><trkpt lat="44.1078905" lon="9.8307419"><ele>3.6000000000000005</ele><time>2026-04-04T12:26:29.353Z</time></trkpt><trkpt lat="44.1078163" lon="9.8306545"><ele>3.4</ele><time>2026-04-04T12:26:30.345Z</time></trkpt><trkpt lat="44.1077449" lon="9.8305739"><ele>3.2</ele><time>2026-04-04T12:26:31.358Z</time></trkpt><trkpt lat="44.1076737" lon="9.830491"><ele>3.0</ele><time>2026-04-04T12:26:32.344Z</time></trkpt><trkpt lat="44.1076016" lon="9.8303993"><ele>3.0</ele><time>2026-04-04T12:26:33.335Z</time></trkpt><trkpt lat="44.1075286" lon="9.8303005"><ele>3.0</ele><time>2026-04-04T12:26:34.342Z</time></trkpt><trkpt lat="44.1074509" lon="9.8301945"><ele>3.0</ele><time>2026-04-04T12:26:35.354Z</time></trkpt><trkpt lat="44.1073716" lon="9.8300761"><ele>3.0</ele><time>2026-04-04T12:26:36.345Z</time></trkpt><trkpt lat="44.1072946" lon="9.8299639"><ele>3.0</ele><time>2026-04-04T12:26:37.352Z</time></trkpt><trkpt lat="44.1072148" lon="9.8298596"><ele>2.5</ele><time>2026-04-04T12:26:38.353Z</time></trkpt><trkpt lat="44.1071425" lon="9.8297694"><ele>2.0</ele><time>2026-04-04T12:26:39.36Z</time></trkpt><trkpt lat="44.1070794" lon="9.8296929"><ele>1.5</ele><time>2026-04-04T12:26:40.374Z</time></trkpt><trkpt lat="44.1070187" lon="9.8296218"><ele>1.0</ele><time>2026-04-04T12:26:41.365Z</time></trkpt><trkpt lat="44.1069634" lon="9.8295549"><ele>0.5</ele><time>2026-04-04T12:26:42.364Z</time></trkpt><trkpt lat="44.106912" lon="9.8294929"><ele>0.0</ele><time>2026-04-04T12:26:43.362Z</time></trkpt><trkpt lat="44.1068319" lon="9.8293915"><ele>0.0</ele><time>2026-04-04T12:26:45.354Z</time></trkpt><trkpt lat="44.106773" lon="9.8293233"><ele>0.0</ele><time>2026-04-04T12:26:47.364Z</time></trkpt><trkpt lat="44.1066678" lon="9.8291741"><ele>0.0</ele><time>2026-04-04T12:26:49.37Z</time></trkpt><trkpt lat="44.1065644" lon="9.8290454"><ele>0.0</ele><time>2026-04-04T12:26:50.354Z</time></trkpt><trkpt lat="44.1064493" lon="9.828913"><ele>0.0</ele><time>2026-04-04T12:26:51.351Z</time></trkpt><trkpt lat="44.1063278" lon="9.8287638"><ele>0.0</ele><time>2026-04-04T12:26:52.356Z</time></trkpt><trkpt lat="44.1062127" lon="9.8286153"><ele>0.0</ele><time>2026-04-04T12:26:53.358Z</time></trkpt><trkpt lat="44.1061057" lon="9.82848"><ele>0.25</ele><time>2026-04-04T12:26:54.369Z</time></trkpt><trkpt lat="44.1059896" lon="9.8283436"><ele>0.5</ele><time>2026-04-04T12:26:55.353Z</time></trkpt><trkpt lat="44.1058765" lon="9.8282082"><ele>0.75</ele><time>2026-04-04T12:26:56.361Z</time></trkpt><trkpt lat="44.105776" lon="9.8280816"><ele>1.0</ele><time>2026-04-04T12:26:57.352Z</time></trkpt><trkpt lat="44.1056808" lon="9.8279687"><ele>1.25</ele><time>2026-04-04T12:26:58.361Z</time></trkpt><trkpt lat="44.1055919" lon="9.8278648"><ele>1.5</ele><time>2026-04-04T12:26:59.351Z</time></trkpt><trkpt lat="44.1054887" lon="9.8277431"><ele>1.75</ele><time>2026-04-04T12:27:00.348Z</time></trkpt><trkpt lat="44.1053803" lon="9.8276125"><ele>2.0</ele><time>2026-04-04T12:27:01.353Z</time></trkpt><trkpt lat="44.1052649" lon="9.8274806"><ele>1.5</ele><time>2026-04-04T12:27:02.346Z</time></trkpt><trkpt lat="44.1051487" lon="9.8273608"><ele>1.0</ele><time>2026-04-04T12:27:03.349Z</time></trkpt><trkpt lat="44.1050332" lon="9.8272455"><ele>0.5</ele><time>2026-04-04T12:27:04.347Z</time></trkpt><trkpt lat="44.1049335" lon="9.8271245"><ele>0.0</ele><time>2026-04-04T12:27:05.343Z</time></trkpt><trkpt lat="44.1048325" lon="9.8270093"><ele>0.0</ele><time>2026-04-04T12:27:06.345Z</time></trkpt><trkpt lat="44.1047436" lon="9.8269075"><ele>0.0</ele><time>2026-04-04T12:27:07.346Z</time></trkpt><trkpt lat="44.1046581" lon="9.8268124"><ele>0.0</ele><time>2026-04-04T12:27:08.357Z</time></trkpt><trkpt lat="44.1045771" lon="9.8267141"><ele>0.0</ele><time>2026-04-04T12:27:09.356Z</time></trkpt><trkpt lat="44.1045007" lon="9.8266078"><ele>0.0</ele><time>2026-04-04T12:27:10.357Z</time></trkpt><trkpt lat="44.1044204" lon="9.8265014"><ele>0.0</ele><time>2026-04-04T12:27:11.354Z</time></trkpt><trkpt lat="44.1043363" lon="9.8264033"><ele>0.0</ele><time>2026-04-04T12:27:12.355Z</time></trkpt><trkpt lat="44.1042535" lon="9.8263116"><ele>0.0</ele><time>2026-04-04T12:27:13.36Z</time></trkpt><trkpt lat="44.1041767" lon="9.8262277"><ele>0.0</ele><time>2026-04-04T12:27:14.36Z</time></trkpt><trkpt lat="44.1041049" lon="9.8261427"><ele>0.0</ele><time>2026-04-04T12:27:15.359Z</time></trkpt><trkpt lat="44.1040351" lon="9.8260509"><ele>0.0</ele><time>2026-04-04T12:27:16.395Z</time></trkpt><trkpt lat="44.1039614" lon="9.8259554"><ele>0.0</ele><time>2026-04-04T12:27:17.377Z</time></trkpt><trkpt lat="44.1038846" lon="9.8258579"><ele>0.0</ele><time>2026-04-04T12:27:18.413Z</time></trkpt><trkpt lat="44.1038082" lon="9.8257566"><ele>0.0</ele><time>2026-04-04T12:27:19.378Z</time></trkpt><trkpt lat="44.103727" lon="9.8256466"><ele>0.0</ele><time>2026-04-04T12:27:20.368Z</time></trkpt><trkpt lat="44.1036449" lon="9.8255412"><ele>0.0</ele><time>2026-04-04T12:27:21.353Z</time></trkpt><trkpt lat="44.103561" lon="9.8254367"><ele>0.0</ele><time>2026-04-04T12:27:22.372Z</time></trkpt><trkpt lat="44.1034771" lon="9.8253318"><ele>0.0</ele><time>2026-04-04T12:27:23.37Z</time></trkpt><trkpt lat="44.1033959" lon="9.8252312"><ele>0.0</ele><time>2026-04-04T12:27:24.372Z</time></trkpt><trkpt lat="44.1033189" lon="9.8251314"><ele>0.0</ele><time>2026-04-04T12:27:25.39Z</time></trkpt><trkpt lat="44.1032452" lon="9.8250352"><ele>-0.16666666666666666</ele><time>2026-04-04T12:27:26.363Z</time></trkpt><trkpt lat="44.1031736" lon="9.824945"><ele>-0.3333333333333333</ele><time>2026-04-04T12:27:27.368Z</time></trkpt><trkpt lat="44.1031087" lon="9.8248582"><ele>-0.5</ele><time>2026-04-04T12:27:28.366Z</time></trkpt><trkpt lat="44.1030486" lon="9.8247838"><ele>-0.6666666666666666</ele><time>2026-04-04T12:27:29.365Z</time></trkpt><trkpt lat="44.1029907" lon="9.8247134"><ele>-0.8333333333333333</ele><time>2026-04-04T12:27:30.363Z</time></trkpt><trkpt lat="44.1029379" lon="9.8246509"><ele>-1.0</ele><time>2026-04-04T12:27:31.371Z</time></trkpt><trkpt lat="44.1028866" lon="9.8245913"><ele>-1.0</ele><time>2026-04-04T12:27:32.368Z</time></trkpt><trkpt lat="44.1027999" lon="9.8244847"><ele>-1.0</ele><time>2026-04-04T12:27:34.373Z</time></trkpt><trkpt lat="44.1027373" lon="9.8243981"><ele>-1.0</ele><time>2026-04-04T12:27:36.395Z</time></trkpt><trkpt lat="44.1026911" lon="9.824313"><ele>-1.0</ele><time>2026-04-04T12:27:55.369Z</time></trkpt><trkpt lat="44.1026223" lon="9.8242273"><ele>-1.0</ele><time>2026-04-04T12:27:57.364Z</time></trkpt><trkpt lat="44.1025305" lon="9.8241248"><ele>-0.6666666666666666</ele><time>2026-04-04T12:27:59.355Z</time></trkpt><trkpt lat="44.102473" lon="9.824075"><ele>-0.3333333333333333</ele><time>2026-04-04T12:28:00.351Z</time></trkpt><trkpt lat="44.1024154" lon="9.8240273"><ele>0.0</ele><time>2026-04-04T12:28:01.352Z</time></trkpt><trkpt lat="44.1023608" lon="9.8239693"><ele>0.3333333333333333</ele><time>2026-04-04T12:28:02.351Z</time></trkpt><trkpt lat="44.1022987" lon="9.8239065"><ele>0.6666666666666666</ele><time>2026-04-04T12:28:03.354Z</time></trkpt><trkpt lat="44.1022332" lon="9.8238286"><ele>1.0</ele><time>2026-04-04T12:28:04.363Z</time></trkpt><trkpt lat="44.1021683" lon="9.8237517"><ele>0.9999999999999999</ele><time>2026-04-04T12:28:05.374Z</time></trkpt><trkpt lat="44.1021087" lon="9.823674"><ele>1.0</ele><time>2026-04-04T12:28:06.367Z</time></trkpt><trkpt lat="44.1020513" lon="9.823595"><ele>1.0</ele><time>2026-04-04T12:28:07.371Z</time></trkpt><trkpt lat="44.1019937" lon="9.8235228"><ele>1.0</ele><time>2026-04-04T12:28:08.371Z</time></trkpt><trkpt lat="44.1019346" lon="9.8234498"><ele>0.9999999999999999</ele><time>2026-04-04T12:28:09.358Z</time></trkpt><trkpt lat="44.1018719" lon="9.8233747"><ele>1.0</ele><time>2026-04-04T12:28:10.373Z</time></trkpt><trkpt lat="44.1018075" lon="9.8232966"><ele>1.3333333333333333</ele><time>2026-04-04T12:28:11.364Z</time></trkpt><trkpt lat="44.1017435" lon="9.8232164"><ele>1.6666666666666665</ele><time>2026-04-04T12:28:12.372Z</time></trkpt><trkpt lat="44.1016804" lon="9.8231369"><ele>2.0</ele><time>2026-04-04T12:28:13.373Z</time></trkpt><trkpt lat="44.1016177" lon="9.8230643"><ele>2.3333333333333335</ele><time>2026-04-04T12:28:14.375Z</time></trkpt><trkpt lat="44.1015537" lon="9.8229866"><ele>2.6666666666666665</ele><time>2026-04-04T12:28:15.377Z</time></trkpt><trkpt lat="44.1014932" lon="9.8229109"><ele>3.0</ele><time>2026-04-04T12:28:16.38Z</time></trkpt><trkpt lat="44.1014333" lon="9.8228391"><ele>3.3333333333333335</ele><time>2026-04-04T12:28:17.379Z</time></trkpt><trkpt lat="44.101376" lon="9.8227647"><ele>3.666666666666667</ele><time>2026-04-04T12:28:18.383Z</time></trkpt><trkpt lat="44.1013211" lon="9.8226885"><ele>4.0</ele><time>2026-04-04T12:28:19.389Z</time></trkpt><trkpt lat="44.1012624" lon="9.8226158"><ele>4.333333333333334</ele><time>2026-04-04T12:28:20.379Z</time></trkpt><trkpt lat="44.1012082" lon="9.8225455"><ele>4.666666666666667</ele><time>2026-04-04T12:28:21.367Z</time></trkpt><trkpt lat="44.1011616" lon="9.8224825"><ele>5.0</ele><time>2026-04-04T12:28:22.376Z</time></trkpt><trkpt lat="44.1010667" lon="9.8223604"><ele>5.0</ele><time>2026-04-04T12:28:24.37Z</time></trkpt><trkpt lat="44.1010226" lon="9.8222921"><ele>5.0</ele><time>2026-04-04T12:28:25.361Z</time></trkpt><trkpt lat="44.1009856" lon="9.8222181"><ele>5.0</ele><time>2026-04-04T12:28:26.358Z</time></trkpt><trkpt lat="44.1009745" lon="9.8220528"><ele>5.0</ele><time>2026-04-04T12:28:28.398Z</time></trkpt><trkpt lat="44.100996" lon="9.8219593"><ele>5.0</ele><time>2026-04-04T12:28:29.38Z</time></trkpt><trkpt lat="44.1010543" lon="9.8218533"><ele>5.0</ele><time>2026-04-04T12:28:30.371Z</time></trkpt><trkpt lat="44.1011248" lon="9.8217377"><ele>4.8</ele><time>2026-04-04T12:28:31.368Z</time></trkpt><trkpt lat="44.1011925" lon="9.821623"><ele>4.6</ele><time>2026-04-04T12:28:32.359Z</time></trkpt><trkpt lat="44.1012584" lon="9.8215181"><ele>4.4</ele><time>2026-04-04T12:28:33.364Z</time></trkpt><trkpt lat="44.1013199" lon="9.821435"><ele>4.2</ele><time>2026-04-04T12:28:34.391Z</time></trkpt><trkpt lat="44.1013724" lon="9.8213509"><ele>4.0</ele><time>2026-04-04T12:28:35.391Z</time></trkpt><trkpt lat="44.101421" lon="9.8212672"><ele>3.9999999999999996</ele><time>2026-04-04T12:28:36.386Z</time></trkpt><trkpt lat="44.1014626" lon="9.8211904"><ele>4.0</ele><time>2026-04-04T12:28:37.363Z</time></trkpt><trkpt lat="44.1014992" lon="9.821118"><ele>4.0</ele><time>2026-04-04T12:28:38.366Z</time></trkpt><trkpt lat="44.1015431" lon="9.8210379"><ele>4.0</ele><time>2026-04-04T12:28:40.366Z</time></trkpt><trkpt lat="44.1016199" lon="9.8209269"><ele>3.9999999999999996</ele><time>2026-04-04T12:28:59.37Z</time></trkpt><trkpt lat="44.1016656" lon="9.820862"><ele>4.0</ele><time>2026-04-04T12:29:00.374Z</time></trkpt><trkpt lat="44.1017527" lon="9.8207389"><ele>4.2</ele><time>2026-04-04T12:29:02.387Z</time></trkpt><trkpt lat="44.1018445" lon="9.8206109"><ele>4.4</ele><time>2026-04-04T12:29:04.376Z</time></trkpt><trkpt lat="44.1018935" lon="9.8205292"><ele>4.6</ele><time>2026-04-04T12:29:05.378Z</time></trkpt><trkpt lat="44.1019457" lon="9.8204438"><ele>4.8</ele><time>2026-04-04T12:29:06.42Z</time></trkpt><trkpt lat="44.1020025" lon="9.8203514"><ele>5.0</ele><time>2026-04-04T12:29:07.375Z</time></trkpt><trkpt lat="44.102058" lon="9.8202585"><ele>5.0</ele><time>2026-04-04T12:29:08.368Z</time></trkpt><trkpt lat="44.102118" lon="9.8201609"><ele>5.0</ele><time>2026-04-04T12:29:09.371Z</time></trkpt><trkpt lat="44.1021818" lon="9.8200558"><ele>5.0</ele><time>2026-04-04T12:29:10.366Z</time></trkpt><trkpt lat="44.1022372" lon="9.8199456"><ele>5.0</ele><time>2026-04-04T12:29:11.368Z</time></trkpt><trkpt lat="44.1022896" lon="9.8198298"><ele>5.0</ele><time>2026-04-04T12:29:12.375Z</time></trkpt><trkpt lat="44.1023405" lon="9.819714"><ele>5.0</ele><time>2026-04-04T12:29:13.364Z</time></trkpt><trkpt lat="44.1023942" lon="9.819597"><ele>5.0</ele><time>2026-04-04T12:29:14.367Z</time></trkpt><trkpt lat="44.1024554" lon="9.8194864"><ele>5.0</ele><time>2026-04-04T12:29:15.362Z</time></trkpt><trkpt lat="44.1025141" lon="9.8193757"><ele>5.0</ele><time>2026-04-04T12:29:16.37Z</time></trkpt><trkpt lat="44.1025748" lon="9.819275"><ele>5.0</ele><time>2026-04-04T12:29:17.364Z</time></trkpt><trkpt lat="44.1026342" lon="9.8191818"><ele>4.8</ele><time>2026-04-04T12:29:18.361Z</time></trkpt><trkpt lat="44.1026918" lon="9.8190818"><ele>4.6</ele><time>2026-04-04T12:29:19.381Z</time></trkpt><trkpt lat="44.1027529" lon="9.8189858"><ele>4.4</ele><time>2026-04-04T12:29:20.37Z</time></trkpt><trkpt lat="44.1028102" lon="9.8188878"><ele>4.2</ele><time>2026-04-04T12:29:21.365Z</time></trkpt><trkpt lat="44.1028695" lon="9.8187832"><ele>4.0</ele><time>2026-04-04T12:29:22.375Z</time></trkpt><trkpt lat="44.1029323" lon="9.8186772"><ele>4.0</ele><time>2026-04-04T12:29:23.377Z</time></trkpt><trkpt lat="44.1029956" lon="9.8185706"><ele>4.0</ele><time>2026-04-04T12:29:24.368Z</time></trkpt><trkpt lat="44.1030564" lon="9.8184642"><ele>4.0</ele><time>2026-04-04T12:29:25.369Z</time></trkpt><trkpt lat="44.1031159" lon="9.8183621"><ele>4.0</ele><time>2026-04-04T12:29:26.362Z</time></trkpt><trkpt lat="44.1031758" lon="9.8182567"><ele>4.0</ele><time>2026-04-04T12:29:27.369Z</time></trkpt><trkpt lat="44.1032405" lon="9.8181514"><ele>3.8000000000000003</ele><time>2026-04-04T12:29:28.362Z</time></trkpt><trkpt lat="44.1033031" lon="9.8180417"><ele>3.6000000000000005</ele><time>2026-04-04T12:29:29.389Z</time></trkpt><trkpt lat="44.1033677" lon="9.8179302"><ele>3.4</ele><time>2026-04-04T12:29:30.364Z</time></trkpt><trkpt lat="44.1034309" lon="9.8178151"><ele>3.2</ele><time>2026-04-04T12:29:31.37Z</time></trkpt><trkpt lat="44.103495" lon="9.8177077"><ele>3.0</ele><time>2026-04-04T12:29:32.364Z</time></trkpt><trkpt lat="44.1035607" lon="9.8175901"><ele>3.0</ele><time>2026-04-04T12:29:33.358Z</time></trkpt><trkpt lat="44.1036271" lon="9.8174789"><ele>3.0</ele><time>2026-04-04T12:29:34.356Z</time></trkpt><trkpt lat="44.103691" lon="9.8173719"><ele>3.0</ele><time>2026-04-04T12:29:35.362Z</time></trkpt><trkpt lat="44.103756" lon="9.817276"><ele>3.0</ele><time>2026-04-04T12:29:36.368Z</time></trkpt><trkpt lat="44.1038195" lon="9.8171831"><ele>3.0</ele><time>2026-04-04T12:29:37.373Z</time></trkpt><trkpt lat="44.1038813" lon="9.8170884"><ele>3.0</ele><time>2026-04-04T12:29:38.367Z</time></trkpt><trkpt lat="44.1039425" lon="9.8169896"><ele>3.0</ele><time>2026-04-04T12:29:39.367Z</time></trkpt><trkpt lat="44.1040035" lon="9.8168818"><ele>3.0</ele><time>2026-04-04T12:29:40.371Z</time></trkpt><trkpt lat="44.1040657" lon="9.8167609"><ele>3.0</ele><time>2026-04-04T12:29:41.365Z</time></trkpt><trkpt lat="44.1041283" lon="9.8166288"><ele>3.0</ele><time>2026-04-04T12:29:42.37Z</time></trkpt><trkpt lat="44.1041957" lon="9.8164934"><ele>3.5</ele><time>2026-04-04T12:29:43.363Z</time></trkpt><trkpt lat="44.1042706" lon="9.8163511"><ele>4.0</ele><time>2026-04-04T12:29:44.361Z</time></trkpt><trkpt lat="44.1043487" lon="9.8162009"><ele>4.5</ele><time>2026-04-04T12:29:45.362Z</time></trkpt><trkpt lat="44.1044273" lon="9.8160535"><ele>5.0</ele><time>2026-04-04T12:29:46.362Z</time></trkpt><trkpt lat="44.1045042" lon="9.8159142"><ele>5.0</ele><time>2026-04-04T12:29:47.372Z</time></trkpt><trkpt lat="44.1045788" lon="9.8157931"><ele>5.0</ele><time>2026-04-04T12:29:48.393Z</time></trkpt><trkpt lat="44.1046485" lon="9.8156763"><ele>5.0</ele><time>2026-04-04T12:29:49.404Z</time></trkpt><trkpt lat="44.1047201" lon="9.8155599"><ele>5.0</ele><time>2026-04-04T12:29:50.371Z</time></trkpt><trkpt lat="44.10479" lon="9.8154429"><ele>5.0</ele><time>2026-04-04T12:29:51.366Z</time></trkpt><trkpt lat="44.1048593" lon="9.8153232"><ele>5.2</ele><time>2026-04-04T12:29:52.381Z</time></trkpt><trkpt lat="44.1049284" lon="9.8152022"><ele>5.4</ele><time>2026-04-04T12:29:53.368Z</time></trkpt><trkpt lat="44.1049963" lon="9.815079"><ele>5.6</ele><time>2026-04-04T12:29:54.36Z</time></trkpt><trkpt lat="44.1050644" lon="9.814962"><ele>5.8</ele><time>2026-04-04T12:29:55.371Z</time></trkpt><trkpt lat="44.1051299" lon="9.8148486"><ele>6.0</ele><time>2026-04-04T12:29:56.374Z</time></trkpt><trkpt lat="44.105195" lon="9.8147399"><ele>6.0</ele><time>2026-04-04T12:29:57.372Z</time></trkpt><trkpt lat="44.1052581" lon="9.8146375"><ele>6.0</ele><time>2026-04-04T12:29:58.37Z</time></trkpt><trkpt lat="44.1053151" lon="9.8145393"><ele>6.0</ele><time>2026-04-04T12:29:59.385Z</time></trkpt><trkpt lat="44.1053682" lon="9.81445"><ele>6.0</ele><time>2026-04-04T12:30:00.373Z</time></trkpt><trkpt lat="44.1054169" lon="9.8143731"><ele>6.0</ele><time>2026-04-04T12:30:01.374Z</time></trkpt><trkpt lat="44.105489" lon="9.814263"><ele>6.0</ele><time>2026-04-04T12:30:03.367Z</time></trkpt><trkpt lat="44.1055452" lon="9.814186"><ele>6.0</ele><time>2026-04-04T12:31:07.375Z</time></trkpt><trkpt lat="44.1055934" lon="9.814069"><ele>6.0</ele><time>2026-04-04T12:31:10.381Z</time></trkpt><trkpt lat="44.105647" lon="9.8139575"><ele>6.0</ele><time>2026-04-04T12:31:12.383Z</time></trkpt><trkpt lat="44.105705" lon="9.8138477"><ele>6.0</ele><time>2026-04-04T12:31:14.363Z</time></trkpt><trkpt lat="44.1057472" lon="9.8137057"><ele>5.5</ele><time>2026-04-04T12:31:16.373Z</time></trkpt><trkpt lat="44.1057253" lon="9.8135613"><ele>5.0</ele><time>2026-04-04T12:31:18.383Z</time></trkpt><trkpt lat="44.105667" lon="9.8134939"><ele>4.5</ele><time>2026-04-04T12:31:19.377Z</time></trkpt><trkpt lat="44.1056044" lon="9.8134279"><ele>4.0</ele><time>2026-04-04T12:31:20.364Z</time></trkpt><trkpt lat="44.1055333" lon="9.8133634"><ele>3.5</ele><time>2026-04-04T12:31:21.374Z</time></trkpt><trkpt lat="44.1054578" lon="9.8132935"><ele>3.0</ele><time>2026-04-04T12:31:22.368Z</time></trkpt><trkpt lat="44.1053858" lon="9.8132139"><ele>2.8</ele><time>2026-04-04T12:31:23.371Z</time></trkpt><trkpt lat="44.1053056" lon="9.8131352"><ele>2.5999999999999996</ele><time>2026-04-04T12:31:24.381Z</time></trkpt><trkpt lat="44.105231" lon="9.8130485"><ele>2.4000000000000004</ele><time>2026-04-04T12:31:25.379Z</time></trkpt><trkpt lat="44.1051503" lon="9.8129616"><ele>2.2</ele><time>2026-04-04T12:31:26.371Z</time></trkpt><trkpt lat="44.1050689" lon="9.8128773"><ele>2.0</ele><time>2026-04-04T12:31:27.38Z</time></trkpt><trkpt lat="44.1049864" lon="9.8127921"><ele>2.0</ele><time>2026-04-04T12:31:28.381Z</time></trkpt><trkpt lat="44.1049067" lon="9.8127077"><ele>2.0</ele><time>2026-04-04T12:31:29.378Z</time></trkpt><trkpt lat="44.1048266" lon="9.8126204"><ele>2.0</ele><time>2026-04-04T12:31:30.376Z</time></trkpt><trkpt lat="44.1047444" lon="9.8125313"><ele>2.0</ele><time>2026-04-04T12:31:31.375Z</time></trkpt><trkpt lat="44.1046606" lon="9.8124382"><ele>2.0</ele><time>2026-04-04T12:31:32.388Z</time></trkpt><trkpt lat="44.1045784" lon="9.8123461"><ele>2.0</ele><time>2026-04-04T12:31:33.373Z</time></trkpt><trkpt lat="44.1044972" lon="9.8122562"><ele>2.0</ele><time>2026-04-04T12:31:34.376Z</time></trkpt><trkpt lat="44.1044191" lon="9.812166"><ele>2.0</ele><time>2026-04-04T12:31:35.372Z</time></trkpt><trkpt lat="44.1043403" lon="9.8120716"><ele>2.0</ele><time>2026-04-04T12:31:36.376Z</time></trkpt><trkpt lat="44.1042595" lon="9.8119816"><ele>2.0</ele><time>2026-04-04T12:31:37.371Z</time></trkpt><trkpt lat="44.1041799" lon="9.8118867"><ele>1.8</ele><time>2026-04-04T12:31:38.37Z</time></trkpt><trkpt lat="44.1040989" lon="9.811792"><ele>1.6</ele><time>2026-04-04T12:31:39.367Z</time></trkpt><trkpt lat="44.1040152" lon="9.8116952"><ele>1.4000000000000001</ele><time>2026-04-04T12:31:40.375Z</time></trkpt><trkpt lat="44.1039287" lon="9.8115992"><ele>1.2000000000000002</ele><time>2026-04-04T12:31:41.368Z</time></trkpt><trkpt lat="44.103837" lon="9.811507"><ele>1.0</ele><time>2026-04-04T12:31:42.374Z</time></trkpt><trkpt lat="44.1037458" lon="9.8114124"><ele>1.0</ele><time>2026-04-04T12:31:43.377Z</time></trkpt><trkpt lat="44.1036614" lon="9.8113189"><ele>1.0</ele><time>2026-04-04T12:31:44.373Z</time></trkpt><trkpt lat="44.103579" lon="9.8112303"><ele>1.0</ele><time>2026-04-04T12:31:45.377Z</time></trkpt><trkpt lat="44.103504" lon="9.8111431"><ele>1.0</ele><time>2026-04-04T12:31:46.38Z</time></trkpt><trkpt lat="44.1034285" lon="9.8110547"><ele>1.0</ele><time>2026-04-04T12:31:47.38Z</time></trkpt><trkpt lat="44.1033462" lon="9.8109638"><ele>1.0</ele><time>2026-04-04T12:31:48.4Z</time></trkpt><trkpt lat="44.1032566" lon="9.8108666"><ele>1.0</ele><time>2026-04-04T12:31:49.404Z</time></trkpt><trkpt lat="44.1031604" lon="9.8107597"><ele>1.0</ele><time>2026-04-04T12:31:50.374Z</time></trkpt><trkpt lat="44.1030615" lon="9.810647"><ele>1.0</ele><time>2026-04-04T12:31:51.392Z</time></trkpt><trkpt lat="44.1029671" lon="9.8105299"><ele>1.0</ele><time>2026-04-04T12:31:52.377Z</time></trkpt><trkpt lat="44.1028734" lon="9.8104201"><ele>1.0</ele><time>2026-04-04T12:31:53.375Z</time></trkpt><trkpt lat="44.1027785" lon="9.8103113"><ele>1.0</ele><time>2026-04-04T12:31:54.373Z</time></trkpt><trkpt lat="44.1026828" lon="9.8102048"><ele>1.0</ele><time>2026-04-04T12:31:55.381Z</time></trkpt><trkpt lat="44.1025913" lon="9.810097"><ele>1.0</ele><time>2026-04-04T12:31:56.38Z</time></trkpt><trkpt lat="44.102494" lon="9.8099898"><ele>1.0</ele><time>2026-04-04T12:31:57.38Z</time></trkpt><trkpt lat="44.1023999" lon="9.8098879"><ele>1.0</ele><time>2026-04-04T12:31:58.379Z</time></trkpt><trkpt lat="44.1023055" lon="9.8097874"><ele>1.0</ele><time>2026-04-04T12:31:59.378Z</time></trkpt><trkpt lat="44.1022131" lon="9.8096843"><ele>1.0</ele><time>2026-04-04T12:32:00.38Z</time></trkpt><trkpt lat="44.1021149" lon="9.809586"><ele>1.0</ele><time>2026-04-04T12:32:01.38Z</time></trkpt><trkpt lat="44.1020175" lon="9.8094833"><ele>1.0</ele><time>2026-04-04T12:32:02.379Z</time></trkpt><trkpt lat="44.1019189" lon="9.8093794"><ele>1.0</ele><time>2026-04-04T12:32:03.392Z</time></trkpt><trkpt lat="44.1018193" lon="9.8092783"><ele>1.0</ele><time>2026-04-04T12:32:04.375Z</time></trkpt><trkpt lat="44.1017193" lon="9.8091761"><ele>1.0</ele><time>2026-04-04T12:32:05.37Z</time></trkpt><trkpt lat="44.1016214" lon="9.8090773"><ele>1.0</ele><time>2026-04-04T12:32:06.392Z</time></trkpt><trkpt lat="44.1015275" lon="9.8089692"><ele>1.0</ele><time>2026-04-04T12:32:07.365Z</time></trkpt><trkpt lat="44.1014319" lon="9.808863"><ele>0.75</ele><time>2026-04-04T12:32:08.358Z</time></trkpt><trkpt lat="44.101337" lon="9.8087643"><ele>0.5</ele><time>2026-04-04T12:32:09.366Z</time></trkpt><trkpt lat="44.1012475" lon="9.8086621"><ele>0.25</ele><time>2026-04-04T12:32:10.368Z</time></trkpt><trkpt lat="44.1011628" lon="9.8085644"><ele>0.0</ele><time>2026-04-04T12:32:11.366Z</time></trkpt><trkpt lat="44.1010795" lon="9.808468"><ele>0.4</ele><time>2026-04-04T12:32:12.368Z</time></trkpt><trkpt lat="44.1009996" lon="9.8083759"><ele>0.8</ele><time>2026-04-04T12:32:13.366Z</time></trkpt><trkpt lat="44.1009221" lon="9.808291"><ele>1.2000000000000002</ele><time>2026-04-04T12:32:14.366Z</time></trkpt><trkpt lat="44.1008532" lon="9.8082065"><ele>1.6</ele><time>2026-04-04T12:32:15.369Z</time></trkpt><trkpt lat="44.100787" lon="9.8081274"><ele>2.0</ele><time>2026-04-04T12:32:16.377Z</time></trkpt><trkpt lat="44.1007244" lon="9.8080555"><ele>3.5</ele><time>2026-04-04T12:32:17.373Z</time></trkpt><trkpt lat="44.1006598" lon="9.8079896"><ele>5.0</ele><time>2026-04-04T12:32:18.373Z</time></trkpt><trkpt lat="44.1005907" lon="9.8079268"><ele>6.5</ele><time>2026-04-04T12:32:19.374Z</time></trkpt><trkpt lat="44.1005123" lon="9.8078795"><ele>8.0</ele><time>2026-04-04T12:32:20.369Z</time></trkpt><trkpt lat="44.1004217" lon="9.8078687"><ele>9.5</ele><time>2026-04-04T12:32:21.367Z</time></trkpt><trkpt lat="44.1003263" lon="9.8078952"><ele>11.0</ele><time>2026-04-04T12:32:22.365Z</time></trkpt><trkpt lat="44.1002278" lon="9.8079508"><ele>11.0</ele><time>2026-04-04T12:32:23.359Z</time></trkpt><trkpt lat="44.1001325" lon="9.8080329"><ele>11.0</ele><time>2026-04-04T12:32:24.341Z</time></trkpt><trkpt lat="44.1000491" lon="9.8081406"><ele>11.0</ele><time>2026-04-04T12:32:25.368Z</time></trkpt><trkpt lat="44.0999757" lon="9.8082638"><ele>11.0</ele><time>2026-04-04T12:32:26.36Z</time></trkpt><trkpt lat="44.0999041" lon="9.8084091"><ele>13.0</ele><time>2026-04-04T12:32:27.353Z</time></trkpt><trkpt lat="44.0998282" lon="9.8085652"><ele>15.0</ele><time>2026-04-04T12:32:28.35Z</time></trkpt><trkpt lat="44.0997472" lon="9.8087196"><ele>17.0</ele><time>2026-04-04T12:32:29.349Z</time></trkpt><trkpt lat="44.0996689" lon="9.8088709"><ele>19.0</ele><time>2026-04-04T12:32:30.35Z</time></trkpt><trkpt lat="44.09959" lon="9.8090117"><ele>19.0</ele><time>2026-04-04T12:32:31.35Z</time></trkpt><trkpt lat="44.0995099" lon="9.8091496"><ele>19.0</ele><time>2026-04-04T12:32:32.35Z</time></trkpt><trkpt lat="44.099429" lon="9.8092971"><ele>19.0</ele><time>2026-04-04T12:32:33.342Z</time></trkpt><trkpt lat="44.0993498" lon="9.8094419"><ele>19.0</ele><time>2026-04-04T12:32:34.364Z</time></trkpt><trkpt lat="44.0992785" lon="9.8095615"><ele>17.428571428571427</ele><time>2026-04-04T12:32:35.341Z</time></trkpt><trkpt lat="44.099221" lon="9.8096508"><ele>15.857142857142858</ele><time>2026-04-04T12:32:36.349Z</time></trkpt><trkpt lat="44.0991731" lon="9.8097201"><ele>14.285714285714286</ele><time>2026-04-04T12:32:37.357Z</time></trkpt><trkpt lat="44.099133" lon="9.8097893"><ele>12.714285714285714</ele><time>2026-04-04T12:32:38.352Z</time></trkpt><trkpt lat="44.0990918" lon="9.8098565"><ele>11.142857142857142</ele><time>2026-04-04T12:32:39.357Z</time></trkpt><trkpt lat="44.0990323" lon="9.8099416"><ele>9.571428571428571</ele><time>2026-04-04T12:32:41.352Z</time></trkpt><trkpt lat="44.0989903" lon="9.8100194"><ele>8.0</ele><time>2026-04-04T12:32:43.363Z</time></trkpt><trkpt lat="44.09893" lon="9.8101576"><ele>7.666666666666666</ele><time>2026-04-04T12:32:45.38Z</time></trkpt><trkpt lat="44.0988844" lon="9.8102492"><ele>7.333333333333333</ele><time>2026-04-04T12:32:46.368Z</time></trkpt><trkpt lat="44.0988352" lon="9.8103374"><ele>7.0</ele><time>2026-04-04T12:32:47.368Z</time></trkpt><trkpt lat="44.0987895" lon="9.8104171"><ele>6.666666666666666</ele><time>2026-04-04T12:32:48.37Z</time></trkpt><trkpt lat="44.0987431" lon="9.8105033"><ele>6.333333333333333</ele><time>2026-04-04T12:32:49.375Z</time></trkpt><trkpt lat="44.0986935" lon="9.8106046"><ele>6.0</ele><time>2026-04-04T12:32:50.369Z</time></trkpt><trkpt lat="44.0986376" lon="9.8107331"><ele>6.0</ele><time>2026-04-04T12:32:51.359Z</time></trkpt><trkpt lat="44.0985672" lon="9.8108921"><ele>6.0</ele><time>2026-04-04T12:32:52.366Z</time></trkpt><trkpt lat="44.0984732" lon="9.8110824"><ele>6.0</ele><time>2026-04-04T12:32:53.367Z</time></trkpt><trkpt lat="44.0983367" lon="9.8112881"><ele>8.0</ele><time>2026-04-04T12:32:54.362Z</time></trkpt><trkpt lat="44.0981868" lon="9.8114893"><ele>10.0</ele><time>2026-04-04T12:32:55.377Z</time></trkpt><trkpt lat="44.0980487" lon="9.8117125"><ele>12.0</ele><time>2026-04-04T12:32:56.373Z</time></trkpt><trkpt lat="44.097918" lon="9.8119498"><ele>12.0</ele><time>2026-04-04T12:32:57.374Z</time></trkpt><trkpt lat="44.0977798" lon="9.8121858"><ele>12.0</ele><time>2026-04-04T12:32:58.38Z</time></trkpt><trkpt lat="44.0976173" lon="9.8123947"><ele>12.0</ele><time>2026-04-04T12:32:59.379Z</time></trkpt><trkpt lat="44.0974397" lon="9.8125488"><ele>14.333333333333332</ele><time>2026-04-04T12:33:00.375Z</time></trkpt><trkpt lat="44.0972714" lon="9.8126843"><ele>16.666666666666664</ele><time>2026-04-04T12:33:01.37Z</time></trkpt><trkpt lat="44.0971217" lon="9.8128403"><ele>19.0</ele><time>2026-04-04T12:33:02.369Z</time></trkpt><trkpt lat="44.0970105" lon="9.8130262"><ele>19.0</ele><time>2026-04-04T12:33:03.354Z</time></trkpt><trkpt lat="44.09691" lon="9.8132244"><ele>19.0</ele><time>2026-04-04T12:33:04.365Z</time></trkpt><trkpt lat="44.0967975" lon="9.8134019"><ele>19.0</ele><time>2026-04-04T12:33:05.374Z</time></trkpt><trkpt lat="44.0966816" lon="9.8135406"><ele>20.0</ele><time>2026-04-04T12:33:06.357Z</time></trkpt><trkpt lat="44.0965419" lon="9.8136487"><ele>21.0</ele><time>2026-04-04T12:33:07.352Z</time></trkpt><trkpt lat="44.0963897" lon="9.8137401"><ele>22.0</ele><time>2026-04-04T12:33:08.351Z</time></trkpt><trkpt lat="44.0962319" lon="9.8138261"><ele>22.0</ele><time>2026-04-04T12:33:09.36Z</time></trkpt><trkpt lat="44.0960872" lon="9.8139079"><ele>22.0</ele><time>2026-04-04T12:33:10.36Z</time></trkpt><trkpt lat="44.0959443" lon="9.8139776"><ele>22.0</ele><time>2026-04-04T12:33:11.353Z</time></trkpt><trkpt lat="44.0957971" lon="9.8140238"><ele>25.0</ele><time>2026-04-04T12:33:12.358Z</time></trkpt><trkpt lat="44.0956421" lon="9.8140564"><ele>28.0</ele><time>2026-04-04T12:33:13.356Z</time></trkpt><trkpt lat="44.0954908" lon="9.8140702"><ele>31.0</ele><time>2026-04-04T12:33:14.356Z</time></trkpt><trkpt lat="44.095345" lon="9.8140318"><ele>31.0</ele><time>2026-04-04T12:33:15.357Z</time></trkpt><trkpt lat="44.0952314" lon="9.8140107"><ele>31.0</ele><time>2026-04-04T12:33:16.353Z</time></trkpt><trkpt lat="44.0951222" lon="9.8140173"><ele>31.0</ele><time>2026-04-04T12:33:17.356Z</time></trkpt><trkpt lat="44.0950066" lon="9.8140592"><ele>31.0</ele><time>2026-04-04T12:33:18.367Z</time></trkpt><trkpt lat="44.0948976" lon="9.8141535"><ele>34.75</ele><time>2026-04-04T12:33:19.355Z</time></trkpt><trkpt lat="44.094813" lon="9.8143068"><ele>38.5</ele><time>2026-04-04T12:33:20.357Z</time></trkpt><trkpt lat="44.0947599" lon="9.8144892"><ele>42.25</ele><time>2026-04-04T12:33:21.355Z</time></trkpt><trkpt lat="44.0947149" lon="9.8146846"><ele>46.0</ele><time>2026-04-04T12:33:22.364Z</time></trkpt><trkpt lat="44.0946612" lon="9.8148841"><ele>46.0</ele><time>2026-04-04T12:33:23.356Z</time></trkpt><trkpt lat="44.0945729" lon="9.8150736"><ele>46.0</ele><time>2026-04-04T12:33:24.364Z</time></trkpt><trkpt lat="44.0944791" lon="9.8152657"><ele>46.0</ele><time>2026-04-04T12:33:25.363Z</time></trkpt><trkpt lat="44.0943582" lon="9.815457"><ele>42.333333333333336</ele><time>2026-04-04T12:33:26.366Z</time></trkpt><trkpt lat="44.0942224" lon="9.8156502"><ele>38.666666666666664</ele><time>2026-04-04T12:33:27.365Z</time></trkpt><trkpt lat="44.0941046" lon="9.8158355"><ele>35.0</ele><time>2026-04-04T12:33:28.356Z</time></trkpt><trkpt lat="44.0939973" lon="9.8160049"><ele>34.25</ele><time>2026-04-04T12:33:29.366Z</time></trkpt><trkpt lat="44.0938898" lon="9.816165"><ele>33.5</ele><time>2026-04-04T12:33:30.36Z</time></trkpt><trkpt lat="44.0937877" lon="9.8163049"><ele>32.75</ele><time>2026-04-04T12:33:31.369Z</time></trkpt><trkpt lat="44.0936774" lon="9.8164151"><ele>32.0</ele><time>2026-04-04T12:33:32.36Z</time></trkpt><trkpt lat="44.0935497" lon="9.8164902"><ele>32.0</ele><time>2026-04-04T12:33:33.363Z</time></trkpt><trkpt lat="44.0934124" lon="9.8165565"><ele>32.0</ele><time>2026-04-04T12:33:34.351Z</time></trkpt><trkpt lat="44.0932627" lon="9.8165735"><ele>32.0</ele><time>2026-04-04T12:33:35.354Z</time></trkpt><trkpt lat="44.0931108" lon="9.8165603"><ele>32.0</ele><time>2026-04-04T12:33:36.375Z</time></trkpt><trkpt lat="44.0929617" lon="9.8164982"><ele>25.0</ele><time>2026-04-04T12:33:37.349Z</time></trkpt><trkpt lat="44.0928178" lon="9.8163807"><ele>18.0</ele><time>2026-04-04T12:33:38.354Z</time></trkpt><trkpt lat="44.0926895" lon="9.8162095"><ele>11.0</ele><time>2026-04-04T12:33:39.363Z</time></trkpt><trkpt lat="44.0925897" lon="9.8160071"><ele>13.333333333333332</ele><time>2026-04-04T12:33:40.368Z</time></trkpt><trkpt lat="44.0924938" lon="9.8158047"><ele>15.666666666666666</ele><time>2026-04-04T12:33:41.367Z</time></trkpt><trkpt lat="44.0923933" lon="9.8156109"><ele>18.0</ele><time>2026-04-04T12:33:42.371Z</time></trkpt><trkpt lat="44.0922937" lon="9.8154275"><ele>18.0</ele><time>2026-04-04T12:33:43.366Z</time></trkpt><trkpt lat="44.0921965" lon="9.8152493"><ele>18.0</ele><time>2026-04-04T12:33:44.372Z</time></trkpt><trkpt lat="44.0921004" lon="9.8150704"><ele>18.0</ele><time>2026-04-04T12:33:45.372Z</time></trkpt><trkpt lat="44.0919927" lon="9.8148979"><ele>26.333333333333336</ele><time>2026-04-04T12:33:46.37Z</time></trkpt><trkpt lat="44.091884" lon="9.8147054"><ele>34.66666666666667</ele><time>2026-04-04T12:33:47.367Z</time></trkpt><trkpt lat="44.0917658" lon="9.8145189"><ele>43.0</ele><time>2026-04-04T12:33:48.372Z</time></trkpt><trkpt lat="44.0916486" lon="9.8143404"><ele>41.66666666666667</ele><time>2026-04-04T12:33:49.367Z</time></trkpt><trkpt lat="44.0915425" lon="9.8141621"><ele>40.333333333333336</ele><time>2026-04-04T12:33:50.369Z</time></trkpt><trkpt lat="44.0914434" lon="9.8140042"><ele>39.0</ele><time>2026-04-04T12:33:51.395Z</time></trkpt><trkpt lat="44.0913534" lon="9.8138534"><ele>39.0</ele><time>2026-04-04T12:33:52.406Z</time></trkpt><trkpt lat="44.0912695" lon="9.8137074"><ele>39.0</ele><time>2026-04-04T12:33:53.379Z</time></trkpt><trkpt lat="44.0911963" lon="9.813557"><ele>39.0</ele><time>2026-04-04T12:33:54.37Z</time></trkpt><trkpt lat="44.0911214" lon="9.8133976"><ele>39.0</ele><time>2026-04-04T12:33:55.373Z</time></trkpt><trkpt lat="44.091044" lon="9.8132337"><ele>44.0</ele><time>2026-04-04T12:33:56.386Z</time></trkpt><trkpt lat="44.0909705" lon="9.8130667"><ele>49.0</ele><time>2026-04-04T12:33:57.392Z</time></trkpt><trkpt lat="44.0908947" lon="9.8129101"><ele>54.0</ele><time>2026-04-04T12:33:58.391Z</time></trkpt><trkpt lat="44.090822" lon="9.8127632"><ele>59.0</ele><time>2026-04-04T12:33:59.363Z</time></trkpt><trkpt lat="44.0907347" lon="9.8126299"><ele>68.0</ele><time>2026-04-04T12:34:00.359Z</time></trkpt><trkpt lat="44.0906156" lon="9.8125185"><ele>77.0</ele><time>2026-04-04T12:34:01.356Z</time></trkpt><trkpt lat="44.0904597" lon="9.812436"><ele>86.0</ele><time>2026-04-04T12:34:02.353Z</time></trkpt><trkpt lat="44.0902897" lon="9.8124177"><ele>86.0</ele><time>2026-04-04T12:34:03.367Z</time></trkpt><trkpt lat="44.0901148" lon="9.8124654"><ele>86.0</ele><time>2026-04-04T12:34:04.364Z</time></trkpt><trkpt lat="44.0899582" lon="9.8125425"><ele>86.0</ele><time>2026-04-04T12:34:05.355Z</time></trkpt><trkpt lat="44.0898455" lon="9.8126387"><ele>79.75</ele><time>2026-04-04T12:34:06.352Z</time></trkpt><trkpt lat="44.0897379" lon="9.8127321"><ele>73.5</ele><time>2026-04-04T12:34:07.358Z</time></trkpt><trkpt lat="44.089633" lon="9.8127931"><ele>67.25</ele><time>2026-04-04T12:34:08.339Z</time></trkpt><trkpt lat="44.0895283" lon="9.8128547"><ele>61.0</ele><time>2026-04-04T12:34:09.352Z</time></trkpt><trkpt lat="44.089409" lon="9.8129038"><ele>61.0</ele><time>2026-04-04T12:34:10.348Z</time></trkpt><trkpt lat="44.089279" lon="9.8129293"><ele>61.0</ele><time>2026-04-04T12:34:11.357Z</time></trkpt><trkpt lat="44.0891312" lon="9.8129301"><ele>61.0</ele><time>2026-04-04T12:34:12.349Z</time></trkpt><trkpt lat="44.0889717" lon="9.8128893"><ele>61.0</ele><time>2026-04-04T12:34:13.349Z</time></trkpt><trkpt lat="44.0888228" lon="9.8128158"><ele>57.666666666666664</ele><time>2026-04-04T12:34:14.344Z</time></trkpt><trkpt lat="44.0886743" lon="9.8127535"><ele>54.33333333333333</ele><time>2026-04-04T12:34:15.335Z</time></trkpt><trkpt lat="44.0885136" lon="9.8127058"><ele>51.0</ele><time>2026-04-04T12:34:16.33Z</time></trkpt><trkpt lat="44.0883475" lon="9.8126823"><ele>57.0</ele><time>2026-04-04T12:34:17.339Z</time></trkpt><trkpt lat="44.0881734" lon="9.8126647"><ele>63.0</ele><time>2026-04-04T12:34:18.335Z</time></trkpt><trkpt lat="44.0879631" lon="9.8126686"><ele>69.0</ele><time>2026-04-04T12:34:19.35Z</time></trkpt><trkpt lat="44.0877059" lon="9.8126849"><ele>69.0</ele><time>2026-04-04T12:34:20.334Z</time></trkpt><trkpt lat="44.0874806" lon="9.8126974"><ele>69.0</ele><time>2026-04-04T12:34:21.342Z</time></trkpt><trkpt lat="44.0872922" lon="9.8127203"><ele>69.0</ele><time>2026-04-04T12:34:22.337Z</time></trkpt><trkpt lat="44.0871111" lon="9.8127197"><ele>66.0</ele><time>2026-04-04T12:34:23.34Z</time></trkpt><trkpt lat="44.0869358" lon="9.8126968"><ele>63.0</ele><time>2026-04-04T12:34:24.333Z</time></trkpt><trkpt lat="44.0867674" lon="9.8126358"><ele>60.0</ele><time>2026-04-04T12:34:25.341Z</time></trkpt><trkpt lat="44.0866106" lon="9.812521"><ele>64.66666666666667</ele><time>2026-04-04T12:34:26.342Z</time></trkpt><trkpt lat="44.0864769" lon="9.8123766"><ele>69.33333333333334</ele><time>2026-04-04T12:34:27.335Z</time></trkpt><trkpt lat="44.0863355" lon="9.8122646"><ele>74.0</ele><time>2026-04-04T12:34:28.358Z</time></trkpt><trkpt lat="44.0861833" lon="9.8122107"><ele>74.0</ele><time>2026-04-04T12:34:29.365Z</time></trkpt><trkpt lat="44.0860378" lon="9.8122017"><ele>74.0</ele><time>2026-04-04T12:34:30.379Z</time></trkpt><trkpt lat="44.0859125" lon="9.8121831"><ele>74.0</ele><time>2026-04-04T12:34:31.36Z</time></trkpt><trkpt lat="44.0857979" lon="9.8121375"><ele>74.0</ele><time>2026-04-04T12:34:32.362Z</time></trkpt><trkpt lat="44.0857162" lon="9.81202"><ele>77.75</ele><time>2026-04-04T12:34:33.351Z</time></trkpt><trkpt lat="44.0856685" lon="9.8118467"><ele>81.5</ele><time>2026-04-04T12:34:34.35Z</time></trkpt><trkpt lat="44.0856765" lon="9.8116754"><ele>85.25</ele><time>2026-04-04T12:34:35.357Z</time></trkpt><trkpt lat="44.0857142" lon="9.811525"><ele>89.0</ele><time>2026-04-04T12:34:36.349Z</time></trkpt><trkpt lat="44.085775" lon="9.811377"><ele>93.0</ele><time>2026-04-04T12:34:37.342Z</time></trkpt><trkpt lat="44.0858593" lon="9.8112379"><ele>97.0</ele><time>2026-04-04T12:34:38.367Z</time></trkpt><trkpt lat="44.0859674" lon="9.8111697"><ele>101.0</ele><time>2026-04-04T12:34:39.349Z</time></trkpt><trkpt lat="44.0860839" lon="9.8111899"><ele>105.0</ele><time>2026-04-04T12:34:40.353Z</time></trkpt><trkpt lat="44.086182" lon="9.8112742"><ele>105.0</ele><time>2026-04-04T12:34:41.33Z</time></trkpt><trkpt lat="44.0862975" lon="9.8114446"><ele>105.0</ele><time>2026-04-04T12:34:42.344Z</time></trkpt><trkpt lat="44.0864068" lon="9.8116696"><ele>105.0</ele><time>2026-04-04T12:34:43.342Z</time></trkpt><trkpt lat="44.0865241" lon="9.8118642"><ele>101.0</ele><time>2026-04-04T12:34:44.35Z</time></trkpt><trkpt lat="44.0866457" lon="9.8120341"><ele>97.0</ele><time>2026-04-04T12:34:45.354Z</time></trkpt><trkpt lat="44.0867762" lon="9.8121813"><ele>93.0</ele><time>2026-04-04T12:34:46.361Z</time></trkpt><trkpt lat="44.0869187" lon="9.8122865"><ele>93.0</ele><time>2026-04-04T12:34:47.349Z</time></trkpt><trkpt lat="44.0870883" lon="9.8123593"><ele>93.0</ele><time>2026-04-04T12:34:48.4Z</time></trkpt><trkpt lat="44.0872836" lon="9.8123832"><ele>93.0</ele><time>2026-04-04T12:34:49.355Z</time></trkpt><trkpt lat="44.0874735" lon="9.8123643"><ele>98.0</ele><time>2026-04-04T12:34:50.352Z</time></trkpt><trkpt lat="44.0876662" lon="9.8123287"><ele>103.0</ele><time>2026-04-04T12:34:51.354Z</time></trkpt><trkpt lat="44.0878406" lon="9.8123003"><ele>108.0</ele><time>2026-04-04T12:34:52.349Z</time></trkpt><trkpt lat="44.0880238" lon="9.8123055"><ele>108.0</ele><time>2026-04-04T12:34:53.341Z</time></trkpt><trkpt lat="44.0882043" lon="9.8123343"><ele>108.0</ele><time>2026-04-04T12:34:54.382Z</time></trkpt><trkpt lat="44.0883886" lon="9.8123679"><ele>108.0</ele><time>2026-04-04T12:34:55.368Z</time></trkpt><trkpt lat="44.0885687" lon="9.8123737"><ele>105.0</ele><time>2026-04-04T12:34:56.354Z</time></trkpt><trkpt lat="44.0887444" lon="9.8123361"><ele>102.0</ele><time>2026-04-04T12:34:57.355Z</time></trkpt><trkpt lat="44.0889051" lon="9.8122785"><ele>99.0</ele><time>2026-04-04T12:34:58.361Z</time></trkpt><trkpt lat="44.0890575" lon="9.8121843"><ele>97.5</ele><time>2026-04-04T12:34:59.373Z</time></trkpt><trkpt lat="44.0892344" lon="9.8119992"><ele>96.0</ele><time>2026-04-04T12:35:00.363Z</time></trkpt><trkpt lat="44.0894544" lon="9.811747"><ele>113.0</ele><time>2026-04-04T12:35:01.368Z</time></trkpt><trkpt lat="44.089685" lon="9.811524"><ele>130.0</ele><time>2026-04-04T12:35:02.36Z</time></trkpt><trkpt lat="44.0898937" lon="9.8113727"><ele>126.0</ele><time>2026-04-04T12:35:03.353Z</time></trkpt><trkpt lat="44.0901096" lon="9.8112546"><ele>122.0</ele><time>2026-04-04T12:35:04.365Z</time></trkpt><trkpt lat="44.0903448" lon="9.8111901"><ele>122.0</ele><time>2026-04-04T12:35:05.509Z</time></trkpt><trkpt lat="44.0905644" lon="9.8111579"><ele>122.0</ele><time>2026-04-04T12:35:06.672Z</time></trkpt><trkpt lat="44.0907661" lon="9.8111475"><ele>122.0</ele><time>2026-04-04T12:35:07.683Z</time></trkpt><trkpt lat="44.09112" lon="9.8110003"><ele>131.5</ele><time>2026-04-04T12:35:09.688Z</time></trkpt><trkpt lat="44.0912888" lon="9.8108459"><ele>141.0</ele><time>2026-04-04T12:35:10.683Z</time></trkpt><trkpt lat="44.0915001" lon="9.8103497"><ele>144.66666666666666</ele><time>2026-04-04T12:35:12.364Z</time></trkpt><trkpt lat="44.0915353" lon="9.810067"><ele>148.33333333333331</ele><time>2026-04-04T12:35:13.376Z</time></trkpt><trkpt lat="44.0915341" lon="9.8097853"><ele>152.0</ele><time>2026-04-04T12:35:14.529Z</time></trkpt><trkpt lat="44.0913832" lon="9.8092229"><ele>152.0</ele><time>2026-04-04T12:35:16.412Z</time></trkpt><trkpt lat="44.0912345" lon="9.8089827"><ele>152.0</ele><time>2026-04-04T12:35:17.363Z</time></trkpt><trkpt lat="44.0910542" lon="9.8087179"><ele>145.5</ele><time>2026-04-04T12:35:18.388Z</time></trkpt><trkpt lat="44.0908356" lon="9.808427"><ele>139.0</ele><time>2026-04-04T12:35:19.371Z</time></trkpt><trkpt lat="44.0906198" lon="9.8081315"><ele>151.5</ele><time>2026-04-04T12:35:20.36Z</time></trkpt><trkpt lat="44.0904397" lon="9.8078916"><ele>164.0</ele><time>2026-04-04T12:35:21.358Z</time></trkpt><trkpt lat="44.0902621" lon="9.8076597"><ele>164.0</ele><time>2026-04-04T12:35:22.357Z</time></trkpt><trkpt lat="44.0901154" lon="9.8074253"><ele>164.0</ele><time>2026-04-04T12:35:23.361Z</time></trkpt><trkpt lat="44.0899847" lon="9.8071845"><ele>164.0</ele><time>2026-04-04T12:35:24.359Z</time></trkpt><trkpt lat="44.0898744" lon="9.8069313"><ele>172.33333333333331</ele><time>2026-04-04T12:35:25.357Z</time></trkpt><trkpt lat="44.0898047" lon="9.8066678"><ele>180.66666666666666</ele><time>2026-04-04T12:35:26.364Z</time></trkpt><trkpt lat="44.0897859" lon="9.8063784"><ele>189.0</ele><time>2026-04-04T12:35:27.385Z</time></trkpt><trkpt lat="44.0898042" lon="9.8060743"><ele>191.5</ele><time>2026-04-04T12:35:28.381Z</time></trkpt><trkpt lat="44.089857" lon="9.8057364"><ele>194.0</ele><time>2026-04-04T12:35:29.355Z</time></trkpt><trkpt lat="44.0899018" lon="9.8054423"><ele>183.33333333333334</ele><time>2026-04-04T12:35:30.351Z</time></trkpt><trkpt lat="44.0899397" lon="9.8051696"><ele>172.66666666666669</ele><time>2026-04-04T12:35:31.357Z</time></trkpt><trkpt lat="44.0899657" lon="9.8048974"><ele>162.0</ele><time>2026-04-04T12:35:32.347Z</time></trkpt><trkpt lat="44.0899534" lon="9.8046305"><ele>171.33333333333334</ele><time>2026-04-04T12:35:33.352Z</time></trkpt><trkpt lat="44.0898834" lon="9.8043626"><ele>180.66666666666669</ele><time>2026-04-04T12:35:34.367Z</time></trkpt><trkpt lat="44.089772" lon="9.804129"><ele>190.0</ele><time>2026-04-04T12:35:35.359Z</time></trkpt><trkpt lat="44.0896184" lon="9.803924"><ele>190.0</ele><time>2026-04-04T12:35:36.371Z</time></trkpt><trkpt lat="44.0894431" lon="9.8037428"><ele>190.0</ele><time>2026-04-04T12:35:37.37Z</time></trkpt><trkpt lat="44.0892904" lon="9.8035376"><ele>190.0</ele><time>2026-04-04T12:35:38.353Z</time></trkpt><trkpt lat="44.0891677" lon="9.8033307"><ele>198.66666666666669</ele><time>2026-04-04T12:35:39.348Z</time></trkpt><trkpt lat="44.0890863" lon="9.8031029"><ele>207.33333333333334</ele><time>2026-04-04T12:35:40.362Z</time></trkpt><trkpt lat="44.0890446" lon="9.8028702"><ele>216.0</ele><time>2026-04-04T12:35:41.349Z</time></trkpt><trkpt lat="44.0890818" lon="9.8026207"><ele>203.0</ele><time>2026-04-04T12:35:42.347Z</time></trkpt><trkpt lat="44.089159" lon="9.8023921"><ele>190.0</ele><time>2026-04-04T12:35:43.344Z</time></trkpt><trkpt lat="44.0892788" lon="9.8022018"><ele>177.0</ele><time>2026-04-04T12:35:44.351Z</time></trkpt><trkpt lat="44.0894124" lon="9.8020333"><ele>177.0</ele><time>2026-04-04T12:35:45.399Z</time></trkpt><trkpt lat="44.0895822" lon="9.8019406"><ele>177.0</ele><time>2026-04-04T12:35:46.398Z</time></trkpt><trkpt lat="44.0897587" lon="9.8018795"><ele>177.0</ele><time>2026-04-04T12:35:47.371Z</time></trkpt><trkpt lat="44.0899387" lon="9.8018755"><ele>175.33333333333334</ele><time>2026-04-04T12:35:48.375Z</time></trkpt><trkpt lat="44.0901161" lon="9.8019563"><ele>173.66666666666669</ele><time>2026-04-04T12:35:49.383Z</time></trkpt><trkpt lat="44.0902745" lon="9.8021051"><ele>172.0</ele><time>2026-04-04T12:35:50.378Z</time></trkpt><trkpt lat="44.0904374" lon="9.8023135"><ele>172.0</ele><time>2026-04-04T12:35:51.374Z</time></trkpt><trkpt lat="44.0906076" lon="9.8025415"><ele>172.0</ele><time>2026-04-04T12:35:52.351Z</time></trkpt><trkpt lat="44.0908019" lon="9.8027806"><ele>171.0</ele><time>2026-04-04T12:35:53.348Z</time></trkpt><trkpt lat="44.0909729" lon="9.8029713"><ele>170.0</ele><time>2026-04-04T12:35:54.343Z</time></trkpt><trkpt lat="44.0911224" lon="9.8031503"><ele>169.0</ele><time>2026-04-04T12:35:55.339Z</time></trkpt><trkpt lat="44.0912575" lon="9.803319"><ele>169.0</ele><time>2026-04-04T12:35:56.34Z</time></trkpt><trkpt lat="44.0913897" lon="9.8034609"><ele>169.0</ele><time>2026-04-04T12:35:57.352Z</time></trkpt><trkpt lat="44.0915317" lon="9.8035585"><ele>169.0</ele><time>2026-04-04T12:35:58.379Z</time></trkpt><trkpt lat="44.0917149" lon="9.8036164"><ele>167.66666666666669</ele><time>2026-04-04T12:35:59.366Z</time></trkpt><trkpt lat="44.091921" lon="9.8036368"><ele>166.33333333333334</ele><time>2026-04-04T12:36:00.388Z</time></trkpt><trkpt lat="44.0921366" lon="9.8036322"><ele>165.0</ele><time>2026-04-04T12:36:01.419Z</time></trkpt><trkpt lat="44.0923468" lon="9.8036318"><ele>168.0</ele><time>2026-04-04T12:36:02.379Z</time></trkpt><trkpt lat="44.0925458" lon="9.8036369"><ele>171.0</ele><time>2026-04-04T12:36:03.373Z</time></trkpt><trkpt lat="44.0927429" lon="9.8036345"><ele>174.0</ele><time>2026-04-04T12:36:04.376Z</time></trkpt><trkpt lat="44.0929386" lon="9.8036355"><ele>174.0</ele><time>2026-04-04T12:36:05.373Z</time></trkpt><trkpt lat="44.0931183" lon="9.8036387"><ele>174.0</ele><time>2026-04-04T12:36:06.368Z</time></trkpt><trkpt lat="44.0932858" lon="9.8036418"><ele>174.0</ele><time>2026-04-04T12:36:07.377Z</time></trkpt><trkpt lat="44.0934571" lon="9.8036503"><ele>177.33333333333334</ele><time>2026-04-04T12:36:08.375Z</time></trkpt><trkpt lat="44.0936289" lon="9.8036616"><ele>180.66666666666669</ele><time>2026-04-04T12:36:09.371Z</time></trkpt><trkpt lat="44.09379" lon="9.8036712"><ele>184.0</ele><time>2026-04-04T12:36:10.375Z</time></trkpt><trkpt lat="44.0939534" lon="9.8036899"><ele>185.75</ele><time>2026-04-04T12:36:11.388Z</time></trkpt><trkpt lat="44.0941062" lon="9.8036995"><ele>187.5</ele><time>2026-04-04T12:36:12.369Z</time></trkpt><trkpt lat="44.0942489" lon="9.8037133"><ele>189.25</ele><time>2026-04-04T12:36:13.366Z</time></trkpt><trkpt lat="44.0943818" lon="9.8037184"><ele>191.0</ele><time>2026-04-04T12:36:14.361Z</time></trkpt><trkpt lat="44.0945129" lon="9.8037333"><ele>191.0</ele><time>2026-04-04T12:36:15.36Z</time></trkpt><trkpt lat="44.0946492" lon="9.8037456"><ele>191.0</ele><time>2026-04-04T12:36:16.369Z</time></trkpt><trkpt lat="44.0947791" lon="9.8037615"><ele>191.0</ele><time>2026-04-04T12:36:17.367Z</time></trkpt><trkpt lat="44.0949178" lon="9.8037707"><ele>191.0</ele><time>2026-04-04T12:36:18.373Z</time></trkpt><trkpt lat="44.0950534" lon="9.80377"><ele>191.0</ele><time>2026-04-04T12:36:19.381Z</time></trkpt><trkpt lat="44.0951868" lon="9.803745"><ele>191.0</ele><time>2026-04-04T12:36:20.374Z</time></trkpt><trkpt lat="44.0953204" lon="9.8036881"><ele>191.0</ele><time>2026-04-04T12:36:21.372Z</time></trkpt><trkpt lat="44.0954455" lon="9.803607"><ele>191.0</ele><time>2026-04-04T12:36:22.364Z</time></trkpt><trkpt lat="44.0955599" lon="9.8035099"><ele>193.0</ele><time>2026-04-04T12:36:23.372Z</time></trkpt><trkpt lat="44.0956537" lon="9.8033928"><ele>195.0</ele><time>2026-04-04T12:36:24.373Z</time></trkpt><trkpt lat="44.0957329" lon="9.8032542"><ele>197.0</ele><time>2026-04-04T12:36:25.376Z</time></trkpt><trkpt lat="44.0958168" lon="9.8030921"><ele>199.0</ele><time>2026-04-04T12:36:26.381Z</time></trkpt><trkpt lat="44.0958901" lon="9.8029196"><ele>199.0</ele><time>2026-04-04T12:36:27.371Z</time></trkpt><trkpt lat="44.0959478" lon="9.8027153"><ele>199.0</ele><time>2026-04-04T12:36:28.365Z</time></trkpt><trkpt lat="44.0959786" lon="9.8025029"><ele>199.0</ele><time>2026-04-04T12:36:29.373Z</time></trkpt><trkpt lat="44.0959855" lon="9.8022816"><ele>203.66666666666666</ele><time>2026-04-04T12:36:30.374Z</time></trkpt><trkpt lat="44.0959666" lon="9.8020598"><ele>208.33333333333331</ele><time>2026-04-04T12:36:31.373Z</time></trkpt><trkpt lat="44.0959364" lon="9.8018399"><ele>213.0</ele><time>2026-04-04T12:36:32.371Z</time></trkpt><trkpt lat="44.0958977" lon="9.8016155"><ele>213.0</ele><time>2026-04-04T12:36:33.366Z</time></trkpt><trkpt lat="44.095858" lon="9.8013925"><ele>213.0</ele><time>2026-04-04T12:36:34.368Z</time></trkpt><trkpt lat="44.0958292" lon="9.8011791"><ele>213.0</ele><time>2026-04-04T12:36:35.361Z</time></trkpt><trkpt lat="44.0958068" lon="9.8009755"><ele>212.33333333333331</ele><time>2026-04-04T12:36:36.359Z</time></trkpt><trkpt lat="44.0957733" lon="9.800773"><ele>211.66666666666666</ele><time>2026-04-04T12:36:37.365Z</time></trkpt><trkpt lat="44.0957399" lon="9.8005694"><ele>211.0</ele><time>2026-04-04T12:36:38.363Z</time></trkpt><trkpt lat="44.0957108" lon="9.8003514"><ele>212.0</ele><time>2026-04-04T12:36:39.359Z</time></trkpt><trkpt lat="44.0956948" lon="9.8001153"><ele>213.0</ele><time>2026-04-04T12:36:40.361Z</time></trkpt><trkpt lat="44.0957201" lon="9.7998726"><ele>214.0</ele><time>2026-04-04T12:36:41.386Z</time></trkpt><trkpt lat="44.0957887" lon="9.7996421"><ele>214.0</ele><time>2026-04-04T12:36:42.402Z</time></trkpt><trkpt lat="44.0958865" lon="9.7994151"><ele>214.0</ele><time>2026-04-04T12:36:43.393Z</time></trkpt><trkpt lat="44.0960353" lon="9.799223"><ele>214.0</ele><time>2026-04-04T12:36:44.389Z</time></trkpt><trkpt lat="44.0961985" lon="9.7990785"><ele>215.0</ele><time>2026-04-04T12:36:45.383Z</time></trkpt><trkpt lat="44.0963965" lon="9.799004"><ele>216.0</ele><time>2026-04-04T12:36:46.365Z</time></trkpt><trkpt lat="44.0966019" lon="9.798959"><ele>217.0</ele><time>2026-04-04T12:36:47.372Z</time></trkpt><trkpt lat="44.096824" lon="9.7989603"><ele>217.0</ele><time>2026-04-04T12:36:48.358Z</time></trkpt><trkpt lat="44.0970505" lon="9.7989419"><ele>217.0</ele><time>2026-04-04T12:36:49.363Z</time></trkpt><trkpt lat="44.0972601" lon="9.798911"><ele>217.0</ele><time>2026-04-04T12:36:50.369Z</time></trkpt><trkpt lat="44.0974517" lon="9.7988794"><ele>214.33333333333331</ele><time>2026-04-04T12:36:51.373Z</time></trkpt><trkpt lat="44.097621" lon="9.7988136"><ele>211.66666666666669</ele><time>2026-04-04T12:36:52.387Z</time></trkpt><trkpt lat="44.097773" lon="9.7987008"><ele>209.0</ele><time>2026-04-04T12:36:53.379Z</time></trkpt><trkpt lat="44.0979152" lon="9.7985384"><ele>219.66666666666669</ele><time>2026-04-04T12:36:54.402Z</time></trkpt><trkpt lat="44.0980462" lon="9.7983346"><ele>230.33333333333331</ele><time>2026-04-04T12:36:55.374Z</time></trkpt><trkpt lat="44.0981442" lon="9.7980885"><ele>241.0</ele><time>2026-04-04T12:36:56.366Z</time></trkpt><trkpt lat="44.0981994" lon="9.7978116"><ele>247.33333333333331</ele><time>2026-04-04T12:36:57.398Z</time></trkpt><trkpt lat="44.0982074" lon="9.7975257"><ele>253.66666666666669</ele><time>2026-04-04T12:36:58.392Z</time></trkpt><trkpt lat="44.0981654" lon="9.7972387"><ele>260.0</ele><time>2026-04-04T12:36:59.391Z</time></trkpt><trkpt lat="44.0980869" lon="9.7969679"><ele>260.6666666666667</ele><time>2026-04-04T12:37:00.365Z</time></trkpt><trkpt lat="44.0979799" lon="9.7967028"><ele>261.3333333333333</ele><time>2026-04-04T12:37:01.391Z</time></trkpt><trkpt lat="44.0978833" lon="9.7964247"><ele>262.0</ele><time>2026-04-04T12:37:02.357Z</time></trkpt><trkpt lat="44.0978036" lon="9.7961338"><ele>259.3333333333333</ele><time>2026-04-04T12:37:03.384Z</time></trkpt><trkpt lat="44.0977254" lon="9.7958691"><ele>256.6666666666667</ele><time>2026-04-04T12:37:04.359Z</time></trkpt><trkpt lat="44.0976617" lon="9.7956254"><ele>254.0</ele><time>2026-04-04T12:37:05.357Z</time></trkpt><trkpt lat="44.0976119" lon="9.7954029"><ele>251.33333333333334</ele><time>2026-04-04T12:37:06.36Z</time></trkpt><trkpt lat="44.0975614" lon="9.7951627"><ele>248.66666666666669</ele><time>2026-04-04T12:37:07.362Z</time></trkpt><trkpt lat="44.0975074" lon="9.7949168"><ele>246.0</ele><time>2026-04-04T12:37:08.355Z</time></trkpt><trkpt lat="44.0974456" lon="9.794646"><ele>271.5</ele><time>2026-04-04T12:37:09.386Z</time></trkpt><trkpt lat="44.0973911" lon="9.7943465"><ele>297.0</ele><time>2026-04-04T12:37:10.391Z</time></trkpt><trkpt lat="44.0973577" lon="9.7940329"><ele>297.3333333333333</ele><time>2026-04-04T12:37:11.362Z</time></trkpt><trkpt lat="44.0973292" lon="9.7937455"><ele>297.66666666666663</ele><time>2026-04-04T12:37:12.373Z</time></trkpt><trkpt lat="44.0973015" lon="9.7934586"><ele>298.0</ele><time>2026-04-04T12:37:13.376Z</time></trkpt><trkpt lat="44.0972795" lon="9.7931705"><ele>297.3333333333333</ele><time>2026-04-04T12:37:14.358Z</time></trkpt><trkpt lat="44.0972744" lon="9.7928761"><ele>296.6666666666667</ele><time>2026-04-04T12:37:15.38Z</time></trkpt><trkpt lat="44.0972828" lon="9.7925714"><ele>296.0</ele><time>2026-04-04T12:37:16.381Z</time></trkpt><trkpt lat="44.0972875" lon="9.7922601"><ele>295.33333333333337</ele><time>2026-04-04T12:37:17.385Z</time></trkpt><trkpt lat="44.0972919" lon="9.7919602"><ele>294.6666666666667</ele><time>2026-04-04T12:37:18.356Z</time></trkpt><trkpt lat="44.0973021" lon="9.7916495"><ele>294.0</ele><time>2026-04-04T12:37:19.367Z</time></trkpt><trkpt lat="44.0973128" lon="9.7913363"><ele>296.5</ele><time>2026-04-04T12:37:20.354Z</time></trkpt><trkpt lat="44.0973237" lon="9.7910256"><ele>299.0</ele><time>2026-04-04T12:37:21.363Z</time></trkpt><trkpt lat="44.0973367" lon="9.7907076"><ele>304.0</ele><time>2026-04-04T12:37:22.383Z</time></trkpt><trkpt lat="44.0973507" lon="9.7903897"><ele>309.0</ele><time>2026-04-04T12:37:23.366Z</time></trkpt><trkpt lat="44.0973608" lon="9.790071"><ele>310.3333333333333</ele><time>2026-04-04T12:37:24.36Z</time></trkpt><trkpt lat="44.0973687" lon="9.7897699"><ele>311.66666666666663</ele><time>2026-04-04T12:37:25.368Z</time></trkpt><trkpt lat="44.0973603" lon="9.7894711"><ele>313.0</ele><time>2026-04-04T12:37:26.352Z</time></trkpt><trkpt lat="44.0973348" lon="9.7891729"><ele>308.5</ele><time>2026-04-04T12:37:27.364Z</time></trkpt><trkpt lat="44.0972668" lon="9.7888691"><ele>304.0</ele><time>2026-04-04T12:37:28.373Z</time></trkpt><trkpt lat="44.0971616" lon="9.7885855"><ele>292.5</ele><time>2026-04-04T12:37:29.369Z</time></trkpt><trkpt lat="44.0970284" lon="9.788307"><ele>281.0</ele><time>2026-04-04T12:37:30.372Z</time></trkpt><trkpt lat="44.0968737" lon="9.788063"><ele>281.0</ele><time>2026-04-04T12:37:31.398Z</time></trkpt><trkpt lat="44.0966839" lon="9.7878581"><ele>281.0</ele><time>2026-04-04T12:37:32.369Z</time></trkpt><trkpt lat="44.0964641" lon="9.7876996"><ele>284.0</ele><time>2026-04-04T12:37:33.36Z</time></trkpt><trkpt lat="44.0962614" lon="9.7875516"><ele>287.0</ele><time>2026-04-04T12:37:34.364Z</time></trkpt><trkpt lat="44.0960495" lon="9.7874123"><ele>287.0</ele><time>2026-04-04T12:37:35.353Z</time></trkpt><trkpt lat="44.0958356" lon="9.7872752"><ele>287.0</ele><time>2026-04-04T12:37:36.356Z</time></trkpt><trkpt lat="44.0956043" lon="9.7871516"><ele>300.0</ele><time>2026-04-04T12:37:37.366Z</time></trkpt><trkpt lat="44.095372" lon="9.7870737"><ele>313.0</ele><time>2026-04-04T12:37:38.369Z</time></trkpt><trkpt lat="44.0951291" lon="9.7869848"><ele>321.0</ele><time>2026-04-04T12:37:39.352Z</time></trkpt><trkpt lat="44.0948911" lon="9.7868989"><ele>329.0</ele><time>2026-04-04T12:37:40.346Z</time></trkpt><trkpt lat="44.0946694" lon="9.7868249"><ele>317.33333333333337</ele><time>2026-04-04T12:37:41.352Z</time></trkpt><trkpt lat="44.0944576" lon="9.7867627"><ele>305.6666666666667</ele><time>2026-04-04T12:37:42.351Z</time></trkpt><trkpt lat="44.0942639" lon="9.7866826"><ele>294.0</ele><time>2026-04-04T12:37:43.361Z</time></trkpt><trkpt lat="44.0940934" lon="9.786571"><ele>295.6666666666667</ele><time>2026-04-04T12:37:44.375Z</time></trkpt><trkpt lat="44.0939529" lon="9.7863983"><ele>297.33333333333337</ele><time>2026-04-04T12:37:45.37Z</time></trkpt><trkpt lat="44.0938355" lon="9.7861862"><ele>299.0</ele><time>2026-04-04T12:37:46.375Z</time></trkpt><trkpt lat="44.0936959" lon="9.7859764"><ele>299.0</ele><time>2026-04-04T12:37:47.375Z</time></trkpt><trkpt lat="44.0935551" lon="9.7857899"><ele>299.0</ele><time>2026-04-04T12:37:48.376Z</time></trkpt><trkpt lat="44.0933917" lon="9.7856374"><ele>299.0</ele><time>2026-04-04T12:37:49.377Z</time></trkpt><trkpt lat="44.0931966" lon="9.7855323"><ele>306.33333333333337</ele><time>2026-04-04T12:37:50.383Z</time></trkpt><trkpt lat="44.092979" lon="9.7854641"><ele>313.6666666666667</ele><time>2026-04-04T12:37:51.535Z</time></trkpt><trkpt lat="44.092765" lon="9.7854197"><ele>321.0</ele><time>2026-04-04T12:37:52.531Z</time></trkpt><trkpt lat="44.092325" lon="9.7852848"><ele>321.0</ele><time>2026-04-04T12:37:54.377Z</time></trkpt><trkpt lat="44.0920931" lon="9.7852704"><ele>321.0</ele><time>2026-04-04T12:37:55.369Z</time></trkpt><trkpt lat="44.0918596" lon="9.7852745"><ele>321.0</ele><time>2026-04-04T12:37:56.354Z</time></trkpt><trkpt lat="44.0916577" lon="9.7852898"><ele>321.0</ele><time>2026-04-04T12:37:57.349Z</time></trkpt><trkpt lat="44.0914772" lon="9.7853117"><ele>321.0</ele><time>2026-04-04T12:37:58.351Z</time></trkpt><trkpt lat="44.0913086" lon="9.7852902"><ele>318.3333333333333</ele><time>2026-04-04T12:37:59.349Z</time></trkpt><trkpt lat="44.0911422" lon="9.7851925"><ele>315.66666666666663</ele><time>2026-04-04T12:38:00.339Z</time></trkpt><trkpt lat="44.0909995" lon="9.7850329"><ele>313.0</ele><time>2026-04-04T12:38:01.354Z</time></trkpt><trkpt lat="44.0909023" lon="9.7848083"><ele>309.66666666666663</ele><time>2026-04-04T12:38:02.346Z</time></trkpt><trkpt lat="44.0908414" lon="9.7845768"><ele>306.3333333333333</ele><time>2026-04-04T12:38:03.349Z</time></trkpt><trkpt lat="44.0907993" lon="9.7843113"><ele>303.0</ele><time>2026-04-04T12:38:04.345Z</time></trkpt><trkpt lat="44.0907868" lon="9.7840221"><ele>303.0</ele><time>2026-04-04T12:38:05.368Z</time></trkpt><trkpt lat="44.0908298" lon="9.7837437"><ele>303.0</ele><time>2026-04-04T12:38:06.377Z</time></trkpt><trkpt lat="44.0909022" lon="9.7834748"><ele>303.0</ele><time>2026-04-04T12:38:07.358Z</time></trkpt><trkpt lat="44.0910233" lon="9.7832084"><ele>304.0</ele><time>2026-04-04T12:38:08.361Z</time></trkpt><trkpt lat="44.0911382" lon="9.7829786"><ele>305.0</ele><time>2026-04-04T12:38:09.367Z</time></trkpt><trkpt lat="44.0912127" lon="9.7827316"><ele>306.0</ele><time>2026-04-04T12:38:10.366Z</time></trkpt><trkpt lat="44.0911989" lon="9.7824645"><ele>310.6666666666667</ele><time>2026-04-04T12:38:11.361Z</time></trkpt><trkpt lat="44.0911477" lon="9.7822057"><ele>315.33333333333337</ele><time>2026-04-04T12:38:12.365Z</time></trkpt><trkpt lat="44.0910803" lon="9.7819378"><ele>320.0</ele><time>2026-04-04T12:38:13.339Z</time></trkpt><trkpt lat="44.0909714" lon="9.781678"><ele>325.0</ele><time>2026-04-04T12:38:14.334Z</time></trkpt><trkpt lat="44.0908964" lon="9.7814163"><ele>330.0</ele><time>2026-04-04T12:38:15.33Z</time></trkpt><trkpt lat="44.0907779" lon="9.7811872"><ele>335.0</ele><time>2026-04-04T12:38:16.301Z</time></trkpt><trkpt lat="44.0906788" lon="9.7809514"><ele>296.0</ele><time>2026-04-04T12:38:17.273Z</time></trkpt><trkpt lat="44.0875991" lon="9.7692274"><ele>296.0</ele><time>2026-04-04T12:39:00.346Z</time></trkpt><trkpt lat="44.0875751" lon="9.7690094"><ele>296.0</ele><time>2026-04-04T12:39:01.349Z</time></trkpt><trkpt lat="44.0875764" lon="9.7687506"><ele>296.0</ele><time>2026-04-04T12:39:02.357Z</time></trkpt><trkpt lat="44.087619" lon="9.7684979"><ele>292.33333333333337</ele><time>2026-04-04T12:39:03.364Z</time></trkpt><trkpt lat="44.0877368" lon="9.7682694"><ele>288.6666666666667</ele><time>2026-04-04T12:39:04.361Z</time></trkpt><trkpt lat="44.0878707" lon="9.7680506"><ele>285.0</ele><time>2026-04-04T12:39:05.354Z</time></trkpt><trkpt lat="44.0879946" lon="9.7678501"><ele>282.6666666666667</ele><time>2026-04-04T12:39:06.35Z</time></trkpt><trkpt lat="44.0880969" lon="9.7676644"><ele>280.33333333333337</ele><time>2026-04-04T12:39:07.364Z</time></trkpt><trkpt lat="44.088162" lon="9.7674876"><ele>278.0</ele><time>2026-04-04T12:39:08.353Z</time></trkpt><trkpt lat="44.0881688" lon="9.7672933"><ele>278.0</ele><time>2026-04-04T12:39:09.361Z</time></trkpt><trkpt lat="44.0881056" lon="9.7671094"><ele>278.0</ele><time>2026-04-04T12:39:10.359Z</time></trkpt><trkpt lat="44.0879882" lon="9.7669156"><ele>278.0</ele><time>2026-04-04T12:39:11.369Z</time></trkpt><trkpt lat="44.0878447" lon="9.766788"><ele>283.33333333333337</ele><time>2026-04-04T12:39:12.359Z</time></trkpt><trkpt lat="44.0876648" lon="9.7667064"><ele>288.6666666666667</ele><time>2026-04-04T12:39:13.356Z</time></trkpt><trkpt lat="44.0875291" lon="9.7666237"><ele>294.0</ele><time>2026-04-04T12:39:14.365Z</time></trkpt><trkpt lat="44.0874406" lon="9.7664967"><ele>293.5</ele><time>2026-04-04T12:39:15.367Z</time></trkpt><trkpt lat="44.087387" lon="9.7663023"><ele>293.0</ele><time>2026-04-04T12:39:16.377Z</time></trkpt><trkpt lat="44.0873742" lon="9.7661112"><ele>292.5</ele><time>2026-04-04T12:39:17.38Z</time></trkpt><trkpt lat="44.0874228" lon="9.7659198"><ele>292.0</ele><time>2026-04-04T12:39:18.372Z</time></trkpt><trkpt lat="44.0875144" lon="9.7657125"><ele>292.0</ele><time>2026-04-04T12:39:19.375Z</time></trkpt><trkpt lat="44.0876359" lon="9.7654898"><ele>292.0</ele><time>2026-04-04T12:39:20.373Z</time></trkpt><trkpt lat="44.0877726" lon="9.7652529"><ele>292.0</ele><time>2026-04-04T12:39:21.378Z</time></trkpt><trkpt lat="44.0879167" lon="9.765042"><ele>294.0</ele><time>2026-04-04T12:39:22.378Z</time></trkpt><trkpt lat="44.0880927" lon="9.7648602"><ele>296.0</ele><time>2026-04-04T12:39:23.378Z</time></trkpt><trkpt lat="44.0882678" lon="9.7647257"><ele>298.0</ele><time>2026-04-04T12:39:24.37Z</time></trkpt><trkpt lat="44.088418" lon="9.7646027"><ele>298.0</ele><time>2026-04-04T12:39:25.372Z</time></trkpt><trkpt lat="44.0885352" lon="9.7644596"><ele>298.0</ele><time>2026-04-04T12:39:26.367Z</time></trkpt><trkpt lat="44.0885997" lon="9.7642631"><ele>298.0</ele><time>2026-04-04T12:39:27.372Z</time></trkpt><trkpt lat="44.088579" lon="9.7640724"><ele>295.6</ele><time>2026-04-04T12:39:28.375Z</time></trkpt><trkpt lat="44.0885565" lon="9.7639524"><ele>293.20000000000005</ele><time>2026-04-04T12:39:29.383Z</time></trkpt><trkpt lat="44.0885197" lon="9.7638172"><ele>290.8</ele><time>2026-04-04T12:39:31.377Z</time></trkpt><trkpt lat="44.0885119" lon="9.7637031"><ele>288.40000000000003</ele><time>2026-04-04T12:39:33.376Z</time></trkpt><trkpt lat="44.0885057" lon="9.7635776"><ele>286.0</ele><time>2026-04-04T12:39:35.377Z</time></trkpt><trkpt lat="44.0884911" lon="9.7634101"><ele>285.99999999999994</ele><time>2026-04-04T12:39:37.397Z</time></trkpt><trkpt lat="44.0884857" lon="9.7633169"><ele>286.0</ele><time>2026-04-04T12:39:38.421Z</time></trkpt><trkpt lat="44.0884812" lon="9.7632261"><ele>286.0</ele><time>2026-04-04T12:39:39.386Z</time></trkpt><trkpt lat="44.0884793" lon="9.7631342"><ele>286.0</ele><time>2026-04-04T12:39:40.382Z</time></trkpt><trkpt lat="44.0884869" lon="9.7630333"><ele>286.0</ele><time>2026-04-04T12:39:41.382Z</time></trkpt><trkpt lat="44.0885097" lon="9.7629307"><ele>285.99999999999994</ele><time>2026-04-04T12:39:42.382Z</time></trkpt><trkpt lat="44.0885478" lon="9.7628291"><ele>286.0</ele><time>2026-04-04T12:39:43.38Z</time></trkpt><trkpt lat="44.0885968" lon="9.7627369"><ele>283.0</ele><time>2026-04-04T12:39:44.376Z</time></trkpt><trkpt lat="44.0886582" lon="9.7626549"><ele>280.0</ele><time>2026-04-04T12:39:45.377Z</time></trkpt><trkpt lat="44.0887331" lon="9.7625853"><ele>277.0</ele><time>2026-04-04T12:39:46.37Z</time></trkpt><trkpt lat="44.0888193" lon="9.7625346"><ele>274.0</ele><time>2026-04-04T12:39:47.385Z</time></trkpt><trkpt lat="44.0889146" lon="9.7625054"><ele>271.0</ele><time>2026-04-04T12:39:48.372Z</time></trkpt><trkpt lat="44.0890265" lon="9.7624976"><ele>275.0</ele><time>2026-04-04T12:39:49.371Z</time></trkpt><trkpt lat="44.089178" lon="9.7625"><ele>279.0</ele><time>2026-04-04T12:39:50.365Z</time></trkpt><trkpt lat="44.089356" lon="9.762515"><ele>283.0</ele><time>2026-04-04T12:39:51.364Z</time></trkpt><trkpt lat="44.0895471" lon="9.7625474"><ele>283.0</ele><time>2026-04-04T12:39:52.366Z</time></trkpt><trkpt lat="44.0897341" lon="9.7625782"><ele>283.0</ele><time>2026-04-04T12:39:53.36Z</time></trkpt><trkpt lat="44.0899121" lon="9.7625975"><ele>283.0</ele><time>2026-04-04T12:39:54.359Z</time></trkpt><trkpt lat="44.0900859" lon="9.7626154"><ele>281.0</ele><time>2026-04-04T12:39:55.361Z</time></trkpt><trkpt lat="44.0902498" lon="9.7626205"><ele>279.0</ele><time>2026-04-04T12:39:56.355Z</time></trkpt><trkpt lat="44.0904072" lon="9.7626432"><ele>277.0</ele><time>2026-04-04T12:39:57.363Z</time></trkpt><trkpt lat="44.0905613" lon="9.7626575"><ele>277.0</ele><time>2026-04-04T12:39:58.362Z</time></trkpt><trkpt lat="44.0907081" lon="9.7626595"><ele>277.0</ele><time>2026-04-04T12:39:59.365Z</time></trkpt><trkpt lat="44.0908477" lon="9.762673"><ele>277.0</ele><time>2026-04-04T12:40:00.365Z</time></trkpt><trkpt lat="44.0909825" lon="9.7626918"><ele>277.0</ele><time>2026-04-04T12:40:01.36Z</time></trkpt><trkpt lat="44.0911096" lon="9.7627071"><ele>278.75</ele><time>2026-04-04T12:40:02.367Z</time></trkpt><trkpt lat="44.0912349" lon="9.7626902"><ele>280.5</ele><time>2026-04-04T12:40:03.367Z</time></trkpt><trkpt lat="44.0913683" lon="9.7626331"><ele>282.25</ele><time>2026-04-04T12:40:04.367Z</time></trkpt><trkpt lat="44.091482" lon="9.7624896"><ele>284.0</ele><time>2026-04-04T12:40:05.37Z</time></trkpt><trkpt lat="44.0915549" lon="9.7622743"><ele>286.33333333333337</ele><time>2026-04-04T12:40:06.364Z</time></trkpt><trkpt lat="44.0915962" lon="9.7620349"><ele>288.6666666666667</ele><time>2026-04-04T12:40:07.369Z</time></trkpt><trkpt lat="44.0916041" lon="9.7617869"><ele>291.0</ele><time>2026-04-04T12:40:08.363Z</time></trkpt><trkpt lat="44.0916165" lon="9.7615627"><ele>291.0</ele><time>2026-04-04T12:40:09.363Z</time></trkpt><trkpt lat="44.0916639" lon="9.7613646"><ele>291.0</ele><time>2026-04-04T12:40:10.371Z</time></trkpt><trkpt lat="44.0917434" lon="9.7611828"><ele>291.0</ele><time>2026-04-04T12:40:11.371Z</time></trkpt><trkpt lat="44.0918887" lon="9.7610442"><ele>292.6666666666667</ele><time>2026-04-04T12:40:12.372Z</time></trkpt><trkpt lat="44.0920643" lon="9.7609422"><ele>294.33333333333337</ele><time>2026-04-04T12:40:13.372Z</time></trkpt><trkpt lat="44.0922455" lon="9.7608664"><ele>296.0</ele><time>2026-04-04T12:40:14.37Z</time></trkpt><trkpt lat="44.0924424" lon="9.7607863"><ele>296.0</ele><time>2026-04-04T12:40:15.365Z</time></trkpt><trkpt lat="44.0926234" lon="9.7607122"><ele>296.0</ele><time>2026-04-04T12:40:16.367Z</time></trkpt><trkpt lat="44.092786" lon="9.7605905"><ele>296.0</ele><time>2026-04-04T12:40:17.368Z</time></trkpt><trkpt lat="44.0929116" lon="9.7603944"><ele>276.5</ele><time>2026-04-04T12:40:18.385Z</time></trkpt><trkpt lat="44.0930249" lon="9.760134"><ele>257.0</ele><time>2026-04-04T12:40:19.371Z</time></trkpt><trkpt lat="44.0931554" lon="9.7598463"><ele>266.0</ele><time>2026-04-04T12:40:20.391Z</time></trkpt><trkpt lat="44.0932737" lon="9.7595757"><ele>275.0</ele><time>2026-04-04T12:40:21.37Z</time></trkpt><trkpt lat="44.0933842" lon="9.7593101"><ele>284.0</ele><time>2026-04-04T12:40:22.37Z</time></trkpt><trkpt lat="44.0934984" lon="9.7590645"><ele>284.0</ele><time>2026-04-04T12:40:23.358Z</time></trkpt><trkpt lat="44.0936133" lon="9.7588239"><ele>284.0</ele><time>2026-04-04T12:40:24.35Z</time></trkpt><trkpt lat="44.0937288" lon="9.7585831"><ele>284.0</ele><time>2026-04-04T12:40:25.342Z</time></trkpt><trkpt lat="44.0938428" lon="9.7583278"><ele>274.6666666666667</ele><time>2026-04-04T12:40:26.336Z</time></trkpt><trkpt lat="44.0939605" lon="9.758042"><ele>265.3333333333333</ele><time>2026-04-04T12:40:27.307Z</time></trkpt><trkpt lat="44.0940695" lon="9.7577992"><ele>256.0</ele><time>2026-04-04T12:40:28.284Z</time></trkpt><trkpt lat="44.0941811" lon="9.7575547"><ele>272.5</ele><time>2026-04-04T12:40:29.26Z</time></trkpt><trkpt lat="44.0942927" lon="9.7573102"><ele>289.0</ele><time>2026-04-04T12:40:30.239Z</time></trkpt><trkpt lat="44.0946522" lon="9.7544069"><ele>284.3333333333333</ele><time>2026-04-04T12:40:39.346Z</time></trkpt><trkpt lat="44.094654" lon="9.7541356"><ele>279.6666666666667</ele><time>2026-04-04T12:40:40.373Z</time></trkpt><trkpt lat="44.0946291" lon="9.7538321"><ele>275.0</ele><time>2026-04-04T12:40:41.367Z</time></trkpt><trkpt lat="44.0946211" lon="9.7535247"><ele>271.0</ele><time>2026-04-04T12:40:42.379Z</time></trkpt><trkpt lat="44.0945923" lon="9.7532109"><ele>267.0</ele><time>2026-04-04T12:40:43.378Z</time></trkpt><trkpt lat="44.0945482" lon="9.752913"><ele>263.0</ele><time>2026-04-04T12:40:44.368Z</time></trkpt><trkpt lat="44.0945089" lon="9.7526197"><ele>261.0</ele><time>2026-04-04T12:40:45.379Z</time></trkpt><trkpt lat="44.0944936" lon="9.7523376"><ele>259.0</ele><time>2026-04-04T12:40:46.378Z</time></trkpt><trkpt lat="44.0944875" lon="9.7520613"><ele>257.0</ele><time>2026-04-04T12:40:47.402Z</time></trkpt><trkpt lat="44.0944999" lon="9.7517712"><ele>256.33333333333337</ele><time>2026-04-04T12:40:48.4Z</time></trkpt><trkpt lat="44.0945202" lon="9.7514704"><ele>255.66666666666669</ele><time>2026-04-04T12:40:49.398Z</time></trkpt><trkpt lat="44.094537" lon="9.7511844"><ele>255.0</ele><time>2026-04-04T12:40:50.374Z</time></trkpt><trkpt lat="44.0945486" lon="9.750918"><ele>251.66666666666669</ele><time>2026-04-04T12:40:51.372Z</time></trkpt><trkpt lat="44.094559" lon="9.750669"><ele>248.33333333333334</ele><time>2026-04-04T12:40:52.398Z</time></trkpt><trkpt lat="44.0945682" lon="9.7504313"><ele>245.0</ele><time>2026-04-04T12:40:53.402Z</time></trkpt><trkpt lat="44.0945691" lon="9.7501948"><ele>244.66666666666669</ele><time>2026-04-04T12:40:54.386Z</time></trkpt><trkpt lat="44.0945383" lon="9.7499601"><ele>244.33333333333331</ele><time>2026-04-04T12:40:55.384Z</time></trkpt><trkpt lat="44.0944715" lon="9.749725"><ele>244.0</ele><time>2026-04-04T12:40:56.384Z</time></trkpt><trkpt lat="44.0944055" lon="9.7494928"><ele>247.33333333333331</ele><time>2026-04-04T12:40:57.392Z</time></trkpt><trkpt lat="44.0943434" lon="9.7492506"><ele>250.66666666666669</ele><time>2026-04-04T12:40:58.383Z</time></trkpt><trkpt lat="44.0942827" lon="9.7490036"><ele>254.0</ele><time>2026-04-04T12:40:59.377Z</time></trkpt><trkpt lat="44.0942185" lon="9.7487507"><ele>255.66666666666669</ele><time>2026-04-04T12:41:00.382Z</time></trkpt><trkpt lat="44.0941559" lon="9.7485101"><ele>257.3333333333333</ele><time>2026-04-04T12:41:01.384Z</time></trkpt><trkpt lat="44.0941003" lon="9.7482665"><ele>259.0</ele><time>2026-04-04T12:41:02.38Z</time></trkpt><trkpt lat="44.0940391" lon="9.7480291"><ele>243.0</ele><time>2026-04-04T12:41:03.381Z</time></trkpt><trkpt lat="44.0939808" lon="9.7477968"><ele>227.0</ele><time>2026-04-04T12:41:04.385Z</time></trkpt><trkpt lat="44.0939332" lon="9.7475626"><ele>211.0</ele><time>2026-04-04T12:41:05.378Z</time></trkpt><trkpt lat="44.0939252" lon="9.7473033"><ele>211.0</ele><time>2026-04-04T12:41:06.386Z</time></trkpt><trkpt lat="44.093966" lon="9.7470495"><ele>211.0</ele><time>2026-04-04T12:41:07.381Z</time></trkpt><trkpt lat="44.0940469" lon="9.7468172"><ele>211.0</ele><time>2026-04-04T12:41:08.387Z</time></trkpt><trkpt lat="44.0941756" lon="9.7465994"><ele>213.0</ele><time>2026-04-04T12:41:09.38Z</time></trkpt><trkpt lat="44.0943233" lon="9.7463998"><ele>215.0</ele><time>2026-04-04T12:41:10.38Z</time></trkpt><trkpt lat="44.0944439" lon="9.7461997"><ele>217.0</ele><time>2026-04-04T12:41:11.367Z</time></trkpt><trkpt lat="44.0945447" lon="9.7459655"><ele>217.0</ele><time>2026-04-04T12:41:12.371Z</time></trkpt><trkpt lat="44.0945995" lon="9.7456848"><ele>217.0</ele><time>2026-04-04T12:41:13.4Z</time></trkpt><trkpt lat="44.0946029" lon="9.7453708"><ele>217.0</ele><time>2026-04-04T12:41:14.388Z</time></trkpt><trkpt lat="44.094563" lon="9.7450251"><ele>213.0</ele><time>2026-04-04T12:41:15.373Z</time></trkpt><trkpt lat="44.094526" lon="9.7447071"><ele>209.0</ele><time>2026-04-04T12:41:16.384Z</time></trkpt><trkpt lat="44.0944961" lon="9.7444004"><ele>215.33333333333334</ele><time>2026-04-04T12:41:17.381Z</time></trkpt><trkpt lat="44.0944433" lon="9.7441068"><ele>221.66666666666669</ele><time>2026-04-04T12:41:18.384Z</time></trkpt><trkpt lat="44.0943777" lon="9.7438383"><ele>228.0</ele><time>2026-04-04T12:41:19.386Z</time></trkpt><trkpt lat="44.0943218" lon="9.7435906"><ele>229.66666666666669</ele><time>2026-04-04T12:41:20.392Z</time></trkpt><trkpt lat="44.094287" lon="9.7433656"><ele>231.33333333333334</ele><time>2026-04-04T12:41:21.382Z</time></trkpt><trkpt lat="44.0942852" lon="9.7431432"><ele>233.0</ele><time>2026-04-04T12:41:22.381Z</time></trkpt><trkpt lat="44.0943343" lon="9.7428993"><ele>227.33333333333334</ele><time>2026-04-04T12:41:23.38Z</time></trkpt><trkpt lat="44.0944334" lon="9.7426593"><ele>221.66666666666669</ele><time>2026-04-04T12:41:24.398Z</time></trkpt><trkpt lat="44.0945779" lon="9.74246"><ele>216.0</ele><time>2026-04-04T12:41:25.373Z</time></trkpt><trkpt lat="44.0947318" lon="9.7422964"><ele>216.0</ele><time>2026-04-04T12:41:26.373Z</time></trkpt><trkpt lat="44.0948967" lon="9.742217"><ele>216.0</ele><time>2026-04-04T12:41:27.384Z</time></trkpt><trkpt lat="44.0950561" lon="9.7421966"><ele>216.0</ele><time>2026-04-04T12:41:28.369Z</time></trkpt><trkpt lat="44.0952428" lon="9.7422011"><ele>224.0</ele><time>2026-04-04T12:41:29.369Z</time></trkpt><trkpt lat="44.09542" lon="9.742254"><ele>232.0</ele><time>2026-04-04T12:41:30.375Z</time></trkpt><trkpt lat="44.0955826" lon="9.7423301"><ele>240.0</ele><time>2026-04-04T12:41:31.374Z</time></trkpt><trkpt lat="44.0957199" lon="9.7423802"><ele>238.33333333333334</ele><time>2026-04-04T12:41:32.38Z</time></trkpt><trkpt lat="44.095808" lon="9.7424129"><ele>236.66666666666669</ele><time>2026-04-04T12:41:33.359Z</time></trkpt><trkpt lat="44.0958842" lon="9.7424573"><ele>235.0</ele><time>2026-04-04T12:41:34.381Z</time></trkpt><trkpt lat="44.095953" lon="9.7424953"><ele>233.33333333333334</ele><time>2026-04-04T12:41:35.384Z</time></trkpt><trkpt lat="44.0960163" lon="9.7425361"><ele>231.66666666666669</ele><time>2026-04-04T12:41:36.384Z</time></trkpt><trkpt lat="44.0960818" lon="9.7425806"><ele>230.0</ele><time>2026-04-04T12:41:37.38Z</time></trkpt><trkpt lat="44.0961456" lon="9.7426308"><ele>230.0</ele><time>2026-04-04T12:41:38.389Z</time></trkpt><trkpt lat="44.0962178" lon="9.7427073"><ele>230.0</ele><time>2026-04-04T12:41:40.387Z</time></trkpt><trkpt lat="44.0962127" lon="9.7428591"><ele>230.0</ele><time>2026-04-04T12:42:12.384Z</time></trkpt><trkpt lat="44.0962946" lon="9.7430011"><ele>230.0</ele><time>2026-04-04T12:42:14.373Z</time></trkpt><trkpt lat="44.0963891" lon="9.7430441"><ele>230.0</ele><time>2026-04-04T12:42:15.368Z</time></trkpt><trkpt lat="44.0964968" lon="9.7430893"><ele>231.2</ele><time>2026-04-04T12:42:16.368Z</time></trkpt><trkpt lat="44.0966013" lon="9.743121"><ele>232.4</ele><time>2026-04-04T12:42:17.361Z</time></trkpt><trkpt lat="44.0966994" lon="9.7431234"><ele>233.60000000000002</ele><time>2026-04-04T12:42:18.364Z</time></trkpt><trkpt lat="44.0967946" lon="9.743081"><ele>234.8</ele><time>2026-04-04T12:42:19.358Z</time></trkpt><trkpt lat="44.0968776" lon="9.7430152"><ele>236.0</ele><time>2026-04-04T12:42:20.343Z</time></trkpt><trkpt lat="44.0969498" lon="9.7429444"><ele>236.00000000000003</ele><time>2026-04-04T12:42:21.361Z</time></trkpt><trkpt lat="44.0970063" lon="9.7428742"><ele>236.0</ele><time>2026-04-04T12:42:22.383Z</time></trkpt><trkpt lat="44.0970855" lon="9.7428045"><ele>236.0</ele><time>2026-04-04T12:42:24.369Z</time></trkpt><trkpt lat="44.0971453" lon="9.7427522"><ele>236.0</ele><time>2026-04-04T12:42:27.382Z</time></trkpt><trkpt lat="44.0972023" lon="9.7426936"><ele>236.00000000000003</ele><time>2026-04-04T12:43:07.385Z</time></trkpt><trkpt lat="44.097114" lon="9.7427118"><ele>236.0</ele><time>2026-04-04T12:43:12.377Z</time></trkpt><trkpt lat="44.0970446" lon="9.7427955"><ele>236.0</ele><time>2026-04-04T12:43:15.368Z</time></trkpt><trkpt lat="44.0969214" lon="9.7429011"><ele>236.00000000000003</ele><time>2026-04-04T12:43:17.358Z</time></trkpt><trkpt lat="44.0968403" lon="9.7429479"><ele>236.00000000000003</ele><time>2026-04-04T12:43:18.349Z</time></trkpt><trkpt lat="44.09677" lon="9.7430101"><ele>236.0</ele><time>2026-04-04T12:43:19.349Z</time></trkpt><trkpt lat="44.0966955" lon="9.743091"><ele>236.0</ele><time>2026-04-04T12:43:20.341Z</time></trkpt><trkpt lat="44.0966025" lon="9.743109"><ele>240.8</ele><time>2026-04-04T12:43:21.334Z</time></trkpt><trkpt lat="44.0964889" lon="9.7430891"><ele>245.60000000000002</ele><time>2026-04-04T12:43:22.344Z</time></trkpt><trkpt lat="44.096381" lon="9.7430503"><ele>250.4</ele><time>2026-04-04T12:43:23.357Z</time></trkpt><trkpt lat="44.0962804" lon="9.7429911"><ele>255.2</ele><time>2026-04-04T12:43:24.377Z</time></trkpt><trkpt lat="44.096196" lon="9.7429199"><ele>260.0</ele><time>2026-04-04T12:43:25.346Z</time></trkpt><trkpt lat="44.0961286" lon="9.7428485"><ele>260.0</ele><time>2026-04-04T12:43:26.362Z</time></trkpt><trkpt lat="44.0961282" lon="9.7427351"><ele>260.0</ele><time>2026-04-04T12:43:28.373Z</time></trkpt><trkpt lat="44.0961941" lon="9.7427217"><ele>260.0</ele><time>2026-04-04T12:44:26.387Z</time></trkpt><trkpt lat="44.0963072" lon="9.7427462"><ele>260.0</ele><time>2026-04-04T12:44:29.383Z</time></trkpt><trkpt lat="44.0963831" lon="9.7428099"><ele>260.0</ele><time>2026-04-04T12:44:30.385Z</time></trkpt><trkpt lat="44.0964793" lon="9.7428684"><ele>252.0</ele><time>2026-04-04T12:44:31.363Z</time></trkpt><trkpt lat="44.0966126" lon="9.7429517"><ele>244.0</ele><time>2026-04-04T12:44:32.367Z</time></trkpt><trkpt lat="44.0967623" lon="9.7430102"><ele>236.0</ele><time>2026-04-04T12:44:33.364Z</time></trkpt><trkpt lat="44.0969171" lon="9.7430492"><ele>236.0</ele><time>2026-04-04T12:44:34.365Z</time></trkpt><trkpt lat="44.0970906" lon="9.7430805"><ele>236.0</ele><time>2026-04-04T12:44:35.366Z</time></trkpt><trkpt lat="44.0972723" lon="9.7431136"><ele>236.0</ele><time>2026-04-04T12:44:36.365Z</time></trkpt><trkpt lat="44.0974274" lon="9.7431489"><ele>234.66666666666669</ele><time>2026-04-04T12:44:37.37Z</time></trkpt><trkpt lat="44.0975738" lon="9.7432106"><ele>233.33333333333331</ele><time>2026-04-04T12:44:38.376Z</time></trkpt><trkpt lat="44.0977104" lon="9.7432887"><ele>232.0</ele><time>2026-04-04T12:44:39.372Z</time></trkpt><trkpt lat="44.0978419" lon="9.7434147"><ele>240.0</ele><time>2026-04-04T12:44:40.385Z</time></trkpt><trkpt lat="44.0979602" lon="9.7435946"><ele>248.0</ele><time>2026-04-04T12:44:41.372Z</time></trkpt><trkpt lat="44.0980507" lon="9.7437943"><ele>256.0</ele><time>2026-04-04T12:44:42.362Z</time></trkpt><trkpt lat="44.0981212" lon="9.7440032"><ele>256.0</ele><time>2026-04-04T12:44:43.367Z</time></trkpt><trkpt lat="44.0981583" lon="9.7442488"><ele>256.0</ele><time>2026-04-04T12:44:44.363Z</time></trkpt><trkpt lat="44.0981628" lon="9.7445045"><ele>256.0</ele><time>2026-04-04T12:44:45.36Z</time></trkpt><trkpt lat="44.0981347" lon="9.7447631"><ele>255.33333333333331</ele><time>2026-04-04T12:44:46.357Z</time></trkpt><trkpt lat="44.0980775" lon="9.7450088"><ele>254.66666666666669</ele><time>2026-04-04T12:44:47.368Z</time></trkpt><trkpt lat="44.0979867" lon="9.7452528"><ele>254.0</ele><time>2026-04-04T12:44:48.374Z</time></trkpt><trkpt lat="44.0978985" lon="9.7454896"><ele>254.0</ele><time>2026-04-04T12:44:49.359Z</time></trkpt><trkpt lat="44.0978249" lon="9.7457045"><ele>254.0</ele><time>2026-04-04T12:44:50.355Z</time></trkpt><trkpt lat="44.0977577" lon="9.745933"><ele>254.0</ele><time>2026-04-04T12:44:51.359Z</time></trkpt><trkpt lat="44.0977198" lon="9.7461492"><ele>251.33333333333334</ele><time>2026-04-04T12:44:52.44Z</time></trkpt><trkpt lat="44.0977378" lon="9.7463741"><ele>248.66666666666669</ele><time>2026-04-04T12:44:53.358Z</time></trkpt><trkpt lat="44.0977881" lon="9.7466042"><ele>246.0</ele><time>2026-04-04T12:44:54.358Z</time></trkpt><trkpt lat="44.0978812" lon="9.7468205"><ele>252.5</ele><time>2026-04-04T12:44:55.361Z</time></trkpt><trkpt lat="44.0980242" lon="9.7470545"><ele>259.0</ele><time>2026-04-04T12:44:56.378Z</time></trkpt><trkpt lat="44.0981887" lon="9.7473136"><ele>249.0</ele><time>2026-04-04T12:44:57.366Z</time></trkpt><trkpt lat="44.0983632" lon="9.7475833"><ele>239.0</ele><time>2026-04-04T12:44:58.373Z</time></trkpt><trkpt lat="44.0985298" lon="9.7478417"><ele>239.0</ele><time>2026-04-04T12:44:59.378Z</time></trkpt><trkpt lat="44.098682" lon="9.7480814"><ele>239.0</ele><time>2026-04-04T12:45:00.379Z</time></trkpt><trkpt lat="44.0988222" lon="9.7483038"><ele>239.0</ele><time>2026-04-04T12:45:01.373Z</time></trkpt><trkpt lat="44.0989762" lon="9.7484942"><ele>239.33333333333334</ele><time>2026-04-04T12:45:02.376Z</time></trkpt><trkpt lat="44.0991652" lon="9.7486489"><ele>239.66666666666669</ele><time>2026-04-04T12:45:03.37Z</time></trkpt><trkpt lat="44.0993689" lon="9.7487438"><ele>240.0</ele><time>2026-04-04T12:45:04.367Z</time></trkpt><trkpt lat="44.0995347" lon="9.7488456"><ele>240.0</ele><time>2026-04-04T12:45:05.369Z</time></trkpt><trkpt lat="44.099668" lon="9.7489968"><ele>240.0</ele><time>2026-04-04T12:45:06.373Z</time></trkpt><trkpt lat="44.0997855" lon="9.7491857"><ele>240.0</ele><time>2026-04-04T12:45:07.358Z</time></trkpt><trkpt lat="44.0998727" lon="9.749413"><ele>232.66666666666669</ele><time>2026-04-04T12:45:08.369Z</time></trkpt><trkpt lat="44.0999253" lon="9.7496817"><ele>225.33333333333334</ele><time>2026-04-04T12:45:09.375Z</time></trkpt><trkpt lat="44.0999317" lon="9.7499766"><ele>218.0</ele><time>2026-04-04T12:45:10.374Z</time></trkpt><trkpt lat="44.0999354" lon="9.7502671"><ele>218.0</ele><time>2026-04-04T12:45:11.373Z</time></trkpt><trkpt lat="44.0999807" lon="9.7505128"><ele>218.0</ele><time>2026-04-04T12:45:12.361Z</time></trkpt><trkpt lat="44.1000703" lon="9.7507363"><ele>218.0</ele><time>2026-04-04T12:45:13.368Z</time></trkpt><trkpt lat="44.1001954" lon="9.7509426"><ele>223.0</ele><time>2026-04-04T12:45:14.376Z</time></trkpt><trkpt lat="44.1003467" lon="9.7511193"><ele>228.0</ele><time>2026-04-04T12:45:15.386Z</time></trkpt><trkpt lat="44.1005317" lon="9.7512477"><ele>233.0</ele><time>2026-04-04T12:45:16.38Z</time></trkpt><trkpt lat="44.1007492" lon="9.7513147"><ele>226.5</ele><time>2026-04-04T12:45:17.371Z</time></trkpt><trkpt lat="44.1009914" lon="9.7513486"><ele>220.0</ele><time>2026-04-04T12:45:18.37Z</time></trkpt><trkpt lat="44.1012182" lon="9.7513675"><ele>220.0</ele><time>2026-04-04T12:45:19.385Z</time></trkpt><trkpt lat="44.1014243" lon="9.75135"><ele>220.0</ele><time>2026-04-04T12:45:20.362Z</time></trkpt><trkpt lat="44.1015943" lon="9.7512671"><ele>220.0</ele><time>2026-04-04T12:45:21.366Z</time></trkpt><trkpt lat="44.101741" lon="9.7511567"><ele>212.66666666666666</ele><time>2026-04-04T12:45:22.37Z</time></trkpt><trkpt lat="44.1018773" lon="9.7510081"><ele>205.33333333333331</ele><time>2026-04-04T12:45:23.367Z</time></trkpt><trkpt lat="44.1019808" lon="9.7507912"><ele>198.0</ele><time>2026-04-04T12:45:24.362Z</time></trkpt><trkpt lat="44.1020729" lon="9.7505325"><ele>198.0</ele><time>2026-04-04T12:45:25.365Z</time></trkpt><trkpt lat="44.102179" lon="9.7502124"><ele>198.0</ele><time>2026-04-04T12:45:26.364Z</time></trkpt><trkpt lat="44.1023015" lon="9.7498246"><ele>197.0</ele><time>2026-04-04T12:45:27.37Z</time></trkpt><trkpt lat="44.1024251" lon="9.7494716"><ele>196.0</ele><time>2026-04-04T12:45:28.363Z</time></trkpt><trkpt lat="44.1025186" lon="9.7491753"><ele>196.0</ele><time>2026-04-04T12:45:29.372Z</time></trkpt><trkpt lat="44.1025881" lon="9.7489027"><ele>196.0</ele><time>2026-04-04T12:45:30.371Z</time></trkpt><trkpt lat="44.1026374" lon="9.7486441"><ele>196.0</ele><time>2026-04-04T12:45:31.373Z</time></trkpt><trkpt lat="44.1026212" lon="9.7483738"><ele>195.66666666666666</ele><time>2026-04-04T12:45:32.369Z</time></trkpt><trkpt lat="44.1025658" lon="9.7481214"><ele>195.33333333333331</ele><time>2026-04-04T12:45:33.367Z</time></trkpt><trkpt lat="44.1024828" lon="9.747886"><ele>195.0</ele><time>2026-04-04T12:45:34.373Z</time></trkpt><trkpt lat="44.1023299" lon="9.7477004"><ele>183.0</ele><time>2026-04-04T12:45:35.376Z</time></trkpt><trkpt lat="44.1021413" lon="9.7475276"><ele>171.0</ele><time>2026-04-04T12:45:36.35Z</time></trkpt><trkpt lat="44.1019496" lon="9.7473524"><ele>171.0</ele><time>2026-04-04T12:45:37.357Z</time></trkpt><trkpt lat="44.1017683" lon="9.7471866"><ele>171.0</ele><time>2026-04-04T12:45:38.377Z</time></trkpt><trkpt lat="44.1016277" lon="9.7470236"><ele>171.0</ele><time>2026-04-04T12:45:39.359Z</time></trkpt><trkpt lat="44.101513" lon="9.7468272"><ele>162.33333333333334</ele><time>2026-04-04T12:45:40.365Z</time></trkpt><trkpt lat="44.1014271" lon="9.7466019"><ele>153.66666666666669</ele><time>2026-04-04T12:45:41.362Z</time></trkpt><trkpt lat="44.1013838" lon="9.7463488"><ele>145.0</ele><time>2026-04-04T12:45:42.376Z</time></trkpt><trkpt lat="44.1014036" lon="9.7460576"><ele>148.0</ele><time>2026-04-04T12:45:43.364Z</time></trkpt><trkpt lat="44.1014524" lon="9.7457627"><ele>151.0</ele><time>2026-04-04T12:45:44.375Z</time></trkpt><trkpt lat="44.1015191" lon="9.7454743"><ele>154.0</ele><time>2026-04-04T12:45:45.375Z</time></trkpt><trkpt lat="44.101605" lon="9.7451893"><ele>170.5</ele><time>2026-04-04T12:45:46.378Z</time></trkpt><trkpt lat="44.1016842" lon="9.7448841"><ele>187.0</ele><time>2026-04-04T12:45:47.379Z</time></trkpt><trkpt lat="44.1017657" lon="9.7445924"><ele>182.66666666666669</ele><time>2026-04-04T12:45:48.382Z</time></trkpt><trkpt lat="44.101842" lon="9.7443088"><ele>178.33333333333334</ele><time>2026-04-04T12:45:49.386Z</time></trkpt><trkpt lat="44.1019091" lon="9.7440421"><ele>174.0</ele><time>2026-04-04T12:45:50.378Z</time></trkpt><trkpt lat="44.1019705" lon="9.7437855"><ele>174.0</ele><time>2026-04-04T12:45:51.377Z</time></trkpt><trkpt lat="44.1020341" lon="9.7435547"><ele>174.0</ele><time>2026-04-04T12:45:52.381Z</time></trkpt><trkpt lat="44.1020895" lon="9.7433345"><ele>174.0</ele><time>2026-04-04T12:45:53.379Z</time></trkpt><trkpt lat="44.10213" lon="9.7431159"><ele>168.75</ele><time>2026-04-04T12:45:54.357Z</time></trkpt><trkpt lat="44.1021547" lon="9.7428998"><ele>163.5</ele><time>2026-04-04T12:45:55.371Z</time></trkpt><trkpt lat="44.1021656" lon="9.7427119"><ele>158.25</ele><time>2026-04-04T12:45:56.366Z</time></trkpt><trkpt lat="44.1021552" lon="9.7425738"><ele>153.0</ele><time>2026-04-04T12:45:57.374Z</time></trkpt><trkpt lat="44.1021297" lon="9.7424832"><ele>153.0</ele><time>2026-04-04T12:45:58.377Z</time></trkpt><trkpt lat="44.1020906" lon="9.7424032"><ele>153.0</ele><time>2026-04-04T12:45:59.377Z</time></trkpt><trkpt lat="44.1020459" lon="9.742267"><ele>153.0</ele><time>2026-04-04T12:46:01.376Z</time></trkpt><trkpt lat="44.1020323" lon="9.7421142"><ele>153.0</ele><time>2026-04-04T12:46:03.375Z</time></trkpt><trkpt lat="44.1020444" lon="9.7419606"><ele>153.0</ele><time>2026-04-04T12:46:05.374Z</time></trkpt><trkpt lat="44.1021005" lon="9.7418353"><ele>151.8</ele><time>2026-04-04T12:46:07.374Z</time></trkpt><trkpt lat="44.1021523" lon="9.7417116"><ele>150.60000000000002</ele><time>2026-04-04T12:46:09.375Z</time></trkpt><trkpt lat="44.1021645" lon="9.741582"><ele>149.39999999999998</ele><time>2026-04-04T12:46:11.378Z</time></trkpt><trkpt lat="44.1021656" lon="9.7414349"><ele>148.2</ele><time>2026-04-04T12:46:13.375Z</time></trkpt><trkpt lat="44.1021524" lon="9.7412562"><ele>147.0</ele><time>2026-04-04T12:46:15.364Z</time></trkpt><trkpt lat="44.1021398" lon="9.7411451"><ele>145.79999999999998</ele><time>2026-04-04T12:46:16.369Z</time></trkpt><trkpt lat="44.1021339" lon="9.7410283"><ele>144.6</ele><time>2026-04-04T12:46:17.377Z</time></trkpt><trkpt lat="44.1021321" lon="9.7409011"><ele>143.39999999999998</ele><time>2026-04-04T12:46:18.376Z</time></trkpt><trkpt lat="44.1021299" lon="9.7407742"><ele>142.2</ele><time>2026-04-04T12:46:19.375Z</time></trkpt><trkpt lat="44.1021279" lon="9.7406455"><ele>141.0</ele><time>2026-04-04T12:46:20.37Z</time></trkpt><trkpt lat="44.1021235" lon="9.7405049"><ele>141.0</ele><time>2026-04-04T12:46:21.371Z</time></trkpt><trkpt lat="44.1021226" lon="9.7403606"><ele>141.0</ele><time>2026-04-04T12:46:22.368Z</time></trkpt><trkpt lat="44.1021192" lon="9.7402072"><ele>141.0</ele><time>2026-04-04T12:46:23.371Z</time></trkpt><trkpt lat="44.1021113" lon="9.7400508"><ele>141.0</ele><time>2026-04-04T12:46:24.381Z</time></trkpt><trkpt lat="44.1021066" lon="9.7398911"><ele>141.0</ele><time>2026-04-04T12:46:25.371Z</time></trkpt><trkpt lat="44.1021144" lon="9.739725"><ele>141.25</ele><time>2026-04-04T12:46:26.373Z</time></trkpt><trkpt lat="44.1021414" lon="9.7395506"><ele>141.5</ele><time>2026-04-04T12:46:27.377Z</time></trkpt><trkpt lat="44.1021914" lon="9.7393786"><ele>141.75</ele><time>2026-04-04T12:46:28.375Z</time></trkpt><trkpt lat="44.1022657" lon="9.7391968"><ele>142.0</ele><time>2026-04-04T12:46:29.382Z</time></trkpt><trkpt lat="44.1023786" lon="9.7390357"><ele>154.0</ele><time>2026-04-04T12:46:30.384Z</time></trkpt><trkpt lat="44.1025632" lon="9.7389279"><ele>166.0</ele><time>2026-04-04T12:46:31.366Z</time></trkpt><trkpt lat="44.1027408" lon="9.73883"><ele>178.0</ele><time>2026-04-04T12:46:32.355Z</time></trkpt><trkpt lat="44.1029306" lon="9.7387581"><ele>178.0</ele><time>2026-04-04T12:46:33.375Z</time></trkpt><trkpt lat="44.1031333" lon="9.7386879"><ele>178.0</ele><time>2026-04-04T12:46:34.38Z</time></trkpt><trkpt lat="44.1033338" lon="9.7386144"><ele>178.0</ele><time>2026-04-04T12:46:35.375Z</time></trkpt><trkpt lat="44.1035214" lon="9.7385366"><ele>167.66666666666669</ele><time>2026-04-04T12:46:36.374Z</time></trkpt><trkpt lat="44.1036963" lon="9.7384556"><ele>157.33333333333334</ele><time>2026-04-04T12:46:37.377Z</time></trkpt><trkpt lat="44.1038592" lon="9.7383676"><ele>147.0</ele><time>2026-04-04T12:46:38.378Z</time></trkpt><trkpt lat="44.1040252" lon="9.7382746"><ele>139.0</ele><time>2026-04-04T12:46:39.373Z</time></trkpt><trkpt lat="44.1041936" lon="9.7381727"><ele>131.0</ele><time>2026-04-04T12:46:40.384Z</time></trkpt><trkpt lat="44.1043587" lon="9.7380574"><ele>123.0</ele><time>2026-04-04T12:46:41.381Z</time></trkpt><trkpt lat="44.1045241" lon="9.7379384"><ele>123.0</ele><time>2026-04-04T12:46:42.38Z</time></trkpt><trkpt lat="44.1046886" lon="9.7378143"><ele>123.0</ele><time>2026-04-04T12:46:43.384Z</time></trkpt><trkpt lat="44.1048498" lon="9.7376858"><ele>123.0</ele><time>2026-04-04T12:46:44.379Z</time></trkpt><trkpt lat="44.1050004" lon="9.7375533"><ele>121.33333333333334</ele><time>2026-04-04T12:46:45.383Z</time></trkpt><trkpt lat="44.1051469" lon="9.7374269"><ele>119.66666666666667</ele><time>2026-04-04T12:46:46.377Z</time></trkpt><trkpt lat="44.10529" lon="9.7372836"><ele>118.0</ele><time>2026-04-04T12:46:47.381Z</time></trkpt><trkpt lat="44.1054302" lon="9.7371286"><ele>118.0</ele><time>2026-04-04T12:46:48.387Z</time></trkpt><trkpt lat="44.1055756" lon="9.736962"><ele>118.0</ele><time>2026-04-04T12:46:49.384Z</time></trkpt><trkpt lat="44.1057107" lon="9.7367759"><ele>118.0</ele><time>2026-04-04T12:46:50.379Z</time></trkpt><trkpt lat="44.1058504" lon="9.7365766"><ele>135.66666666666669</ele><time>2026-04-04T12:46:51.374Z</time></trkpt><trkpt lat="44.1059868" lon="9.736375"><ele>153.33333333333334</ele><time>2026-04-04T12:46:52.371Z</time></trkpt><trkpt lat="44.1061478" lon="9.7361696"><ele>171.0</ele><time>2026-04-04T12:46:53.374Z</time></trkpt><trkpt lat="44.1063097" lon="9.7359513"><ele>177.66666666666666</ele><time>2026-04-04T12:46:54.351Z</time></trkpt><trkpt lat="44.1064664" lon="9.7357323"><ele>184.33333333333331</ele><time>2026-04-04T12:46:55.355Z</time></trkpt><trkpt lat="44.1066173" lon="9.7355097"><ele>191.0</ele><time>2026-04-04T12:46:56.33Z</time></trkpt><trkpt lat="44.1067775" lon="9.7352848"><ele>208.33333333333331</ele><time>2026-04-04T12:46:57.319Z</time></trkpt><trkpt lat="44.1069359" lon="9.7350707"><ele>225.66666666666666</ele><time>2026-04-04T12:46:58.298Z</time></trkpt><trkpt lat="44.1070955" lon="9.7348557"><ele>243.0</ele><time>2026-04-04T12:46:59.27Z</time></trkpt><trkpt lat="44.1072551" lon="9.7346407"><ele>157.0</ele><time>2026-04-04T12:47:00.237Z</time></trkpt><trkpt lat="44.1082742" lon="9.7340475"><ele>157.0</ele><time>2026-04-04T12:47:07.342Z</time></trkpt><trkpt lat="44.1083977" lon="9.7341597"><ele>157.0</ele><time>2026-04-04T12:47:08.362Z</time></trkpt><trkpt lat="44.1085582" lon="9.734298"><ele>157.0</ele><time>2026-04-04T12:47:09.37Z</time></trkpt><trkpt lat="44.1087178" lon="9.734444"><ele>153.33333333333334</ele><time>2026-04-04T12:47:10.369Z</time></trkpt><trkpt lat="44.1088613" lon="9.734583"><ele>149.66666666666666</ele><time>2026-04-04T12:47:11.369Z</time></trkpt><trkpt lat="44.1089943" lon="9.7347191"><ele>146.0</ele><time>2026-04-04T12:47:12.357Z</time></trkpt><trkpt lat="44.1091024" lon="9.7348788"><ele>146.0</ele><time>2026-04-04T12:47:13.364Z</time></trkpt><trkpt lat="44.1091982" lon="9.7350831"><ele>146.0</ele><time>2026-04-04T12:47:14.365Z</time></trkpt><trkpt lat="44.1092833" lon="9.7353235"><ele>146.0</ele><time>2026-04-04T12:47:15.368Z</time></trkpt><trkpt lat="44.1093524" lon="9.7355313"><ele>151.0</ele><time>2026-04-04T12:47:16.364Z</time></trkpt><trkpt lat="44.109396" lon="9.7356754"><ele>156.0</ele><time>2026-04-04T12:47:17.366Z</time></trkpt><trkpt lat="44.1094689" lon="9.7357601"><ele>161.0</ele><time>2026-04-04T12:47:18.381Z</time></trkpt><trkpt lat="44.1095665" lon="9.7357541"><ele>166.0</ele><time>2026-04-04T12:47:19.374Z</time></trkpt><trkpt lat="44.1096634" lon="9.7356628"><ele>171.0</ele><time>2026-04-04T12:47:20.362Z</time></trkpt><trkpt lat="44.1097393" lon="9.7355183"><ele>171.0</ele><time>2026-04-04T12:47:21.367Z</time></trkpt><trkpt lat="44.1098572" lon="9.7353477"><ele>171.0</ele><time>2026-04-04T12:47:22.366Z</time></trkpt><trkpt lat="44.1100009" lon="9.7351827"><ele>171.0</ele><time>2026-04-04T12:47:23.364Z</time></trkpt><trkpt lat="44.1101624" lon="9.7350426"><ele>163.8</ele><time>2026-04-04T12:47:24.37Z</time></trkpt><trkpt lat="44.1103058" lon="9.734991"><ele>156.60000000000002</ele><time>2026-04-04T12:47:25.376Z</time></trkpt><trkpt lat="44.1103848" lon="9.7350059"><ele>149.4</ele><time>2026-04-04T12:47:26.373Z</time></trkpt><trkpt lat="44.110454" lon="9.7350756"><ele>142.2</ele><time>2026-04-04T12:47:28.372Z</time></trkpt><trkpt lat="44.1105056" lon="9.7351317"><ele>135.0</ele><time>2026-04-04T12:47:30.385Z</time></trkpt><trkpt lat="44.1105273" lon="9.7350221"><ele>135.0</ele><time>2026-04-04T12:47:32.379Z</time></trkpt><trkpt lat="44.1105968" lon="9.7349056"><ele>135.0</ele><time>2026-04-04T12:47:34.382Z</time></trkpt><trkpt lat="44.1106743" lon="9.734842"><ele>135.0</ele><time>2026-04-04T12:47:36.375Z</time></trkpt><trkpt lat="44.1107481" lon="9.7347787"><ele>135.0</ele><time>2026-04-04T12:47:38.381Z</time></trkpt><trkpt lat="44.1108044" lon="9.7347196"><ele>135.0</ele><time>2026-04-04T12:47:40.383Z</time></trkpt><trkpt lat="44.1108441" lon="9.7346506"><ele>135.0</ele><time>2026-04-04T12:47:42.378Z</time></trkpt><trkpt lat="44.1108884" lon="9.7345642"><ele>136.6</ele><time>2026-04-04T12:48:02.397Z</time></trkpt><trkpt lat="44.110853" lon="9.7344244"><ele>138.2</ele><time>2026-04-04T12:48:04.38Z</time></trkpt><trkpt lat="44.1107782" lon="9.734346"><ele>139.8</ele><time>2026-04-04T12:48:05.374Z</time></trkpt><trkpt lat="44.1106891" lon="9.7342991"><ele>141.4</ele><time>2026-04-04T12:48:06.361Z</time></trkpt><trkpt lat="44.1105675" lon="9.7342829"><ele>143.0</ele><time>2026-04-04T12:48:07.353Z</time></trkpt><trkpt lat="44.1104505" lon="9.7342566"><ele>138.25</ele><time>2026-04-04T12:48:08.355Z</time></trkpt><trkpt lat="44.1103346" lon="9.7342168"><ele>133.5</ele><time>2026-04-04T12:48:09.349Z</time></trkpt><trkpt lat="44.1102105" lon="9.7341511"><ele>128.75</ele><time>2026-04-04T12:48:10.359Z</time></trkpt><trkpt lat="44.1100877" lon="9.7340574"><ele>124.0</ele><time>2026-04-04T12:48:11.36Z</time></trkpt><trkpt lat="44.1099653" lon="9.7339663"><ele>124.75</ele><time>2026-04-04T12:48:12.355Z</time></trkpt><trkpt lat="44.1098462" lon="9.733876"><ele>125.5</ele><time>2026-04-04T12:48:13.367Z</time></trkpt><trkpt lat="44.1097277" lon="9.7337807"><ele>126.25</ele><time>2026-04-04T12:48:14.376Z</time></trkpt><trkpt lat="44.1096134" lon="9.7336903"><ele>127.0</ele><time>2026-04-04T12:48:15.375Z</time></trkpt><trkpt lat="44.1095134" lon="9.7336078"><ele>124.39999999999999</ele><time>2026-04-04T12:48:16.372Z</time></trkpt><trkpt lat="44.1094493" lon="9.7335449"><ele>121.79999999999998</ele><time>2026-04-04T12:48:17.373Z</time></trkpt><trkpt lat="44.1094026" lon="9.7334808"><ele>119.2</ele><time>2026-04-04T12:48:21.372Z</time></trkpt><trkpt lat="44.1093521" lon="9.7334219"><ele>116.6</ele><time>2026-04-04T12:48:23.364Z</time></trkpt><trkpt lat="44.1092445" lon="9.7332774"><ele>114.0</ele><time>2026-04-04T12:48:25.377Z</time></trkpt><trkpt lat="44.1091767" lon="9.7331861"><ele>114.0</ele><time>2026-04-04T12:48:26.372Z</time></trkpt><trkpt lat="44.1091042" lon="9.7330924"><ele>114.0</ele><time>2026-04-04T12:48:27.378Z</time></trkpt><trkpt lat="44.1090313" lon="9.7330042"><ele>114.0</ele><time>2026-04-04T12:48:28.373Z</time></trkpt><trkpt lat="44.1089724" lon="9.7329138"><ele>114.0</ele><time>2026-04-04T12:48:29.38Z</time></trkpt><trkpt lat="44.1089385" lon="9.7328315"><ele>114.0</ele><time>2026-04-04T12:48:30.38Z</time></trkpt><trkpt lat="44.1089301" lon="9.7326946"><ele>111.2</ele><time>2026-04-04T12:48:32.378Z</time></trkpt><trkpt lat="44.108974" lon="9.7326178"><ele>108.4</ele><time>2026-04-04T12:48:35.379Z</time></trkpt><trkpt lat="44.1090088" lon="9.7324789"><ele>105.6</ele><time>2026-04-04T12:48:38.379Z</time></trkpt><trkpt lat="44.1089774" lon="9.7323554"><ele>102.8</ele><time>2026-04-04T12:48:40.371Z</time></trkpt><trkpt lat="44.1088748" lon="9.7322675"><ele>100.0</ele><time>2026-04-04T12:48:42.358Z</time></trkpt><trkpt lat="44.1088059" lon="9.7322683"><ele>100.0</ele><time>2026-04-04T12:48:43.345Z</time></trkpt><trkpt lat="44.1086992" lon="9.7323628"><ele>100.0</ele><time>2026-04-04T12:48:45.363Z</time></trkpt><trkpt lat="44.1086498" lon="9.7324969"><ele>100.0</ele><time>2026-04-04T12:48:47.36Z</time></trkpt><trkpt lat="44.1086456" lon="9.7326567"><ele>100.0</ele><time>2026-04-04T12:48:49.372Z</time></trkpt><trkpt lat="44.1086725" lon="9.7327437"><ele>100.0</ele><time>2026-04-04T12:48:50.369Z</time></trkpt><trkpt lat="44.1087187" lon="9.7328351"><ele>102.33333333333334</ele><time>2026-04-04T12:48:51.37Z</time></trkpt><trkpt lat="44.1087735" lon="9.7329345"><ele>104.66666666666667</ele><time>2026-04-04T12:48:52.381Z</time></trkpt><trkpt lat="44.1088305" lon="9.733037"><ele>107.0</ele><time>2026-04-04T12:48:53.369Z</time></trkpt><trkpt lat="44.1088897" lon="9.7331336"><ele>109.33333333333334</ele><time>2026-04-04T12:48:54.389Z</time></trkpt><trkpt lat="44.1089519" lon="9.7332102"><ele>111.66666666666667</ele><time>2026-04-04T12:48:55.37Z</time></trkpt><trkpt lat="44.1090149" lon="9.7332773"><ele>114.0</ele><time>2026-04-04T12:48:56.369Z</time></trkpt><trkpt lat="44.1090784" lon="9.7333353"><ele>114.0</ele><time>2026-04-04T12:48:57.357Z</time></trkpt><trkpt lat="44.1091397" lon="9.7333903"><ele>114.0</ele><time>2026-04-04T12:48:58.371Z</time></trkpt><trkpt lat="44.1091994" lon="9.7334461"><ele>114.0</ele><time>2026-04-04T12:48:59.374Z</time></trkpt><trkpt lat="44.1092898" lon="9.7335204"><ele>114.0</ele><time>2026-04-04T12:49:01.361Z</time></trkpt><trkpt lat="44.109353" lon="9.7335717"><ele>114.0</ele><time>2026-04-04T12:49:03.355Z</time></trkpt><trkpt lat="44.1093988" lon="9.7336533"><ele>114.0</ele><time>2026-04-04T12:49:05.36Z</time></trkpt><trkpt lat="44.1093947" lon="9.7337655"><ele>116.16666666666667</ele><time>2026-04-04T12:49:08.374Z</time></trkpt><trkpt lat="44.1093581" lon="9.7338527"><ele>118.33333333333334</ele><time>2026-04-04T12:49:10.366Z</time></trkpt><trkpt lat="44.1092912" lon="9.7339172"><ele>120.5</ele><time>2026-04-04T12:49:12.363Z</time></trkpt><trkpt lat="44.1092043" lon="9.733937"><ele>122.66666666666667</ele><time>2026-04-04T12:49:14.362Z</time></trkpt><trkpt lat="44.109106" lon="9.7338979"><ele>124.83333333333334</ele><time>2026-04-04T12:49:16.367Z</time></trkpt><trkpt lat="44.1090334" lon="9.7337953"><ele>127.0</ele><time>2026-04-04T12:49:18.364Z</time></trkpt><trkpt lat="44.1089734" lon="9.7336767"><ele>125.0</ele><time>2026-04-04T12:49:20.37Z</time></trkpt><trkpt lat="44.1089224" lon="9.7335511"><ele>122.99999999999999</ele><time>2026-04-04T12:49:22.37Z</time></trkpt><trkpt lat="44.1088735" lon="9.7334321"><ele>120.99999999999999</ele><time>2026-04-04T12:49:24.364Z</time></trkpt><trkpt lat="44.1088307" lon="9.7333506"><ele>119.0</ele><time>2026-04-04T12:49:26.363Z</time></trkpt><trkpt lat="44.1087884" lon="9.733262"><ele>117.0</ele><time>2026-04-04T12:49:31.369Z</time></trkpt><trkpt lat="44.1088349" lon="9.7334031"><ele>117.0</ele><time>2026-04-04T12:54:04.379Z</time></trkpt><trkpt lat="44.1088666" lon="9.7334806"><ele>117.0</ele><time>2026-04-04T12:54:05.373Z</time></trkpt><trkpt lat="44.1089197" lon="9.7335986"><ele>117.0</ele><time>2026-04-04T12:54:07.383Z</time></trkpt><trkpt lat="44.1089659" lon="9.7337012"><ele>117.0</ele><time>2026-04-04T12:54:09.378Z</time></trkpt><trkpt lat="44.1090063" lon="9.7337875"><ele>117.0</ele><time>2026-04-04T12:54:11.367Z</time></trkpt><trkpt lat="44.109052" lon="9.7338891"><ele>117.0</ele><time>2026-04-04T12:54:13.383Z</time></trkpt><trkpt lat="44.1091591" lon="9.7339856"><ele>118.42857142857143</ele><time>2026-04-04T12:54:15.367Z</time></trkpt><trkpt lat="44.1092244" lon="9.734009"><ele>119.85714285714286</ele><time>2026-04-04T12:54:16.359Z</time></trkpt><trkpt lat="44.1092907" lon="9.7339854"><ele>121.28571428571429</ele><time>2026-04-04T12:54:17.374Z</time></trkpt><trkpt lat="44.1093438" lon="9.7339299"><ele>122.71428571428572</ele><time>2026-04-04T12:54:18.373Z</time></trkpt><trkpt lat="44.1093708" lon="9.7338487"><ele>124.14285714285714</ele><time>2026-04-04T12:54:19.372Z</time></trkpt><trkpt lat="44.1093789" lon="9.7337605"><ele>125.57142857142858</ele><time>2026-04-04T12:54:20.363Z</time></trkpt><trkpt lat="44.1093705" lon="9.7336658"><ele>127.0</ele><time>2026-04-04T12:54:21.366Z</time></trkpt><trkpt lat="44.1093434" lon="9.7335667"><ele>125.0</ele><time>2026-04-04T12:54:22.362Z</time></trkpt><trkpt lat="44.1092916" lon="9.7334859"><ele>122.99999999999999</ele><time>2026-04-04T12:54:23.363Z</time></trkpt><trkpt lat="44.1092224" lon="9.7334184"><ele>120.99999999999999</ele><time>2026-04-04T12:54:24.365Z</time></trkpt><trkpt lat="44.1091455" lon="9.7333455"><ele>119.0</ele><time>2026-04-04T12:54:25.374Z</time></trkpt><trkpt lat="44.1090448" lon="9.7332291"><ele>117.0</ele><time>2026-04-04T12:54:26.364Z</time></trkpt><trkpt lat="44.1089322" lon="9.7330775"><ele>117.0</ele><time>2026-04-04T12:54:27.37Z</time></trkpt><trkpt lat="44.1088305" lon="9.7329169"><ele>116.99999999999999</ele><time>2026-04-04T12:54:28.375Z</time></trkpt><trkpt lat="44.1087617" lon="9.7327989"><ele>116.99999999999999</ele><time>2026-04-04T12:54:29.376Z</time></trkpt><trkpt lat="44.1087107" lon="9.7326903"><ele>117.0</ele><time>2026-04-04T12:54:30.381Z</time></trkpt><trkpt lat="44.1086741" lon="9.7325904"><ele>117.0</ele><time>2026-04-04T12:54:31.381Z</time></trkpt><trkpt lat="44.1086533" lon="9.7325013"><ele>114.16666666666667</ele><time>2026-04-04T12:54:32.379Z</time></trkpt><trkpt lat="44.1086749" lon="9.7324152"><ele>111.33333333333334</ele><time>2026-04-04T12:54:33.377Z</time></trkpt><trkpt lat="44.1087274" lon="9.7323386"><ele>108.5</ele><time>2026-04-04T12:54:34.381Z</time></trkpt><trkpt lat="44.1087934" lon="9.7322755"><ele>105.66666666666667</ele><time>2026-04-04T12:54:35.371Z</time></trkpt><trkpt lat="44.1088727" lon="9.7322518"><ele>102.83333333333334</ele><time>2026-04-04T12:54:36.381Z</time></trkpt><trkpt lat="44.1089535" lon="9.7322831"><ele>100.0</ele><time>2026-04-04T12:54:37.374Z</time></trkpt><trkpt lat="44.1090179" lon="9.7323748"><ele>100.00000000000001</ele><time>2026-04-04T12:54:38.377Z</time></trkpt><trkpt lat="44.1090565" lon="9.7324827"><ele>100.0</ele><time>2026-04-04T12:54:39.366Z</time></trkpt><trkpt lat="44.1090632" lon="9.7325887"><ele>100.0</ele><time>2026-04-04T12:54:40.38Z</time></trkpt><trkpt lat="44.1090374" lon="9.7327011"><ele>100.0</ele><time>2026-04-04T12:54:41.38Z</time></trkpt><trkpt lat="44.1090168" lon="9.7328169"><ele>100.00000000000001</ele><time>2026-04-04T12:54:42.373Z</time></trkpt><trkpt lat="44.1090228" lon="9.7329398"><ele>100.0</ele><time>2026-04-04T12:54:43.381Z</time></trkpt><trkpt lat="44.1090561" lon="9.7330579"><ele>102.8</ele><time>2026-04-04T12:54:44.392Z</time></trkpt><trkpt lat="44.1091126" lon="9.7331656"><ele>105.6</ele><time>2026-04-04T12:54:45.381Z</time></trkpt><trkpt lat="44.1091903" lon="9.7332645"><ele>108.4</ele><time>2026-04-04T12:54:46.376Z</time></trkpt><trkpt lat="44.1092738" lon="9.7333652"><ele>111.2</ele><time>2026-04-04T12:54:47.404Z</time></trkpt><trkpt lat="44.1093553" lon="9.733454"><ele>114.0</ele><time>2026-04-04T12:54:48.377Z</time></trkpt><trkpt lat="44.1094369" lon="9.733532"><ele>117.25</ele><time>2026-04-04T12:54:49.38Z</time></trkpt><trkpt lat="44.1095199" lon="9.7336121"><ele>120.5</ele><time>2026-04-04T12:54:50.379Z</time></trkpt><trkpt lat="44.1096032" lon="9.7337013"><ele>123.75</ele><time>2026-04-04T12:54:51.377Z</time></trkpt><trkpt lat="44.1097078" lon="9.7337917"><ele>127.0</ele><time>2026-04-04T12:54:52.389Z</time></trkpt><trkpt lat="44.109844" lon="9.7338991"><ele>126.0</ele><time>2026-04-04T12:54:53.372Z</time></trkpt><trkpt lat="44.1100393" lon="9.7340258"><ele>125.0</ele><time>2026-04-04T12:54:54.377Z</time></trkpt><trkpt lat="44.1101999" lon="9.7341401"><ele>124.0</ele><time>2026-04-04T12:54:55.375Z</time></trkpt><trkpt lat="44.1103155" lon="9.7342309"><ele>124.0</ele><time>2026-04-04T12:54:56.374Z</time></trkpt><trkpt lat="44.1104287" lon="9.7343059"><ele>124.0</ele><time>2026-04-04T12:54:57.368Z</time></trkpt><trkpt lat="44.1105507" lon="9.7343603"><ele>124.0</ele><time>2026-04-04T12:54:58.371Z</time></trkpt><trkpt lat="44.1106677" lon="9.7343538"><ele>124.0</ele><time>2026-04-04T12:54:59.368Z</time></trkpt><trkpt lat="44.1107582" lon="9.7343514"><ele>125.83333333333334</ele><time>2026-04-04T12:55:00.36Z</time></trkpt><trkpt lat="44.1108213" lon="9.734403"><ele>127.66666666666667</ele><time>2026-04-04T12:55:01.383Z</time></trkpt><trkpt lat="44.110861" lon="9.7344939"><ele>129.5</ele><time>2026-04-04T12:55:02.375Z</time></trkpt><trkpt lat="44.1108797" lon="9.7345857"><ele>131.33333333333334</ele><time>2026-04-04T12:55:03.379Z</time></trkpt><trkpt lat="44.1108482" lon="9.7346939"><ele>133.16666666666666</ele><time>2026-04-04T12:55:04.386Z</time></trkpt><trkpt lat="44.1107629" lon="9.7347862"><ele>135.0</ele><time>2026-04-04T12:55:05.382Z</time></trkpt><trkpt lat="44.1106524" lon="9.7348732"><ele>135.0</ele><time>2026-04-04T12:55:06.38Z</time></trkpt><trkpt lat="44.1105429" lon="9.7349445"><ele>135.0</ele><time>2026-04-04T12:55:07.379Z</time></trkpt><trkpt lat="44.1104453" lon="9.7349977"><ele>135.0</ele><time>2026-04-04T12:55:08.386Z</time></trkpt><trkpt lat="44.1103835" lon="9.7350421"><ele>135.0</ele><time>2026-04-04T12:55:09.385Z</time></trkpt><trkpt lat="44.1103552" lon="9.7351765"><ele>135.0</ele><time>2026-04-04T12:55:11.384Z</time></trkpt><trkpt lat="44.1104405" lon="9.7352305"><ele>135.0</ele><time>2026-04-04T12:55:13.381Z</time></trkpt><trkpt lat="44.1105379" lon="9.735165"><ele>135.0</ele><time>2026-04-04T12:55:14.387Z</time></trkpt><trkpt lat="44.1106715" lon="9.7350413"><ele>135.0</ele><time>2026-04-04T12:55:15.39Z</time></trkpt><trkpt lat="44.1108516" lon="9.7348801"><ele>140.0</ele><time>2026-04-04T12:55:16.383Z</time></trkpt><trkpt lat="44.1110634" lon="9.7346929"><ele>145.0</ele><time>2026-04-04T12:55:17.388Z</time></trkpt><trkpt lat="44.1112501" lon="9.7345533"><ele>145.0</ele><time>2026-04-04T12:55:18.383Z</time></trkpt><trkpt lat="44.1114115" lon="9.7344435"><ele>145.0</ele><time>2026-04-04T12:55:19.396Z</time></trkpt><trkpt lat="44.1115295" lon="9.7342961"><ele>145.0</ele><time>2026-04-04T12:55:20.399Z</time></trkpt><trkpt lat="44.1115926" lon="9.7341006"><ele>149.33333333333334</ele><time>2026-04-04T12:55:21.388Z</time></trkpt><trkpt lat="44.1116683" lon="9.7338729"><ele>153.66666666666666</ele><time>2026-04-04T12:55:22.384Z</time></trkpt><trkpt lat="44.1117387" lon="9.7336717"><ele>158.0</ele><time>2026-04-04T12:55:23.393Z</time></trkpt><trkpt lat="44.1117906" lon="9.7335232"><ele>158.0</ele><time>2026-04-04T12:55:24.391Z</time></trkpt><trkpt lat="44.111802" lon="9.7333689"><ele>158.0</ele><time>2026-04-04T12:55:25.392Z</time></trkpt><trkpt lat="44.1117863" lon="9.7332066"><ele>158.0</ele><time>2026-04-04T12:55:26.389Z</time></trkpt><trkpt lat="44.1117426" lon="9.7330509"><ele>158.0</ele><time>2026-04-04T12:55:27.384Z</time></trkpt><trkpt lat="44.1117239" lon="9.7329109"><ele>158.0</ele><time>2026-04-04T12:55:28.4Z</time></trkpt><trkpt lat="44.1117297" lon="9.7328099"><ele>158.0</ele><time>2026-04-04T12:55:29.388Z</time></trkpt><trkpt lat="44.1118457" lon="9.7327456"><ele>158.0</ele><time>2026-04-04T12:55:31.378Z</time></trkpt><trkpt lat="44.1119316" lon="9.732787"><ele>158.0</ele><time>2026-04-04T12:55:32.369Z</time></trkpt><trkpt lat="44.1120471" lon="9.7328929"><ele>158.0</ele><time>2026-04-04T12:55:33.371Z</time></trkpt><trkpt lat="44.1121993" lon="9.7330261"><ele>158.0</ele><time>2026-04-04T12:55:34.369Z</time></trkpt><trkpt lat="44.112332" lon="9.7332023"><ele>158.0</ele><time>2026-04-04T12:55:35.367Z</time></trkpt><trkpt lat="44.1124228" lon="9.7333612"><ele>158.0</ele><time>2026-04-04T12:55:36.361Z</time></trkpt><trkpt lat="44.1124946" lon="9.7334613"><ele>158.0</ele><time>2026-04-04T12:55:37.375Z</time></trkpt><trkpt lat="44.1125585" lon="9.7335863"><ele>161.0</ele><time>2026-04-04T12:55:38.367Z</time></trkpt><trkpt lat="44.1126103" lon="9.7337298"><ele>164.0</ele><time>2026-04-04T12:55:39.379Z</time></trkpt><trkpt lat="44.1126569" lon="9.7338428"><ele>167.0</ele><time>2026-04-04T12:55:40.384Z</time></trkpt><trkpt lat="44.1126976" lon="9.7339323"><ele>170.0</ele><time>2026-04-04T12:55:41.387Z</time></trkpt><trkpt lat="44.1127314" lon="9.7340102"><ele>173.0</ele><time>2026-04-04T12:55:42.389Z</time></trkpt><trkpt lat="44.1127862" lon="9.7341058"><ele>176.0</ele><time>2026-04-04T12:55:44.379Z</time></trkpt><trkpt lat="44.1128409" lon="9.7341594"><ele>176.0</ele><time>2026-04-04T12:55:46.394Z</time></trkpt><trkpt lat="44.1129361" lon="9.7341978"><ele>176.0</ele><time>2026-04-04T12:55:48.387Z</time></trkpt><trkpt lat="44.1130605" lon="9.7342114"><ele>176.0</ele><time>2026-04-04T12:55:50.373Z</time></trkpt><trkpt lat="44.1131333" lon="9.7342056"><ele>176.0</ele><time>2026-04-04T12:55:51.369Z</time></trkpt><trkpt lat="44.1132265" lon="9.7342554"><ele>176.0</ele><time>2026-04-04T12:55:53.368Z</time></trkpt><trkpt lat="44.1132403" lon="9.7343607"><ele>178.16666666666666</ele><time>2026-04-04T12:55:55.379Z</time></trkpt><trkpt lat="44.1131328" lon="9.7344544"><ele>180.33333333333331</ele><time>2026-04-04T12:55:57.384Z</time></trkpt><trkpt lat="44.1130688" lon="9.7345212"><ele>182.5</ele><time>2026-04-04T12:55:58.385Z</time></trkpt><trkpt lat="44.1130152" lon="9.7346092"><ele>184.66666666666666</ele><time>2026-04-04T12:55:59.393Z</time></trkpt><trkpt lat="44.1129864" lon="9.7347086"><ele>186.83333333333334</ele><time>2026-04-04T12:56:00.388Z</time></trkpt><trkpt lat="44.112986" lon="9.734809"><ele>189.0</ele><time>2026-04-04T12:56:01.383Z</time></trkpt><trkpt lat="44.1130053" lon="9.7349123"><ele>189.0</ele><time>2026-04-04T12:56:02.386Z</time></trkpt><trkpt lat="44.1130242" lon="9.7350133"><ele>189.0</ele><time>2026-04-04T12:56:03.392Z</time></trkpt><trkpt lat="44.113042" lon="9.7351121"><ele>189.0</ele><time>2026-04-04T12:56:04.385Z</time></trkpt><trkpt lat="44.1130606" lon="9.7352164"><ele>189.0</ele><time>2026-04-04T12:56:05.397Z</time></trkpt><trkpt lat="44.1130742" lon="9.73533"><ele>189.0</ele><time>2026-04-04T12:56:06.378Z</time></trkpt><trkpt lat="44.1130878" lon="9.7354649"><ele>189.0</ele><time>2026-04-04T12:56:07.389Z</time></trkpt><trkpt lat="44.1130976" lon="9.7356204"><ele>192.5</ele><time>2026-04-04T12:56:08.389Z</time></trkpt><trkpt lat="44.1130993" lon="9.7357846"><ele>196.0</ele><time>2026-04-04T12:56:09.385Z</time></trkpt><trkpt lat="44.113107" lon="9.7359499"><ele>199.5</ele><time>2026-04-04T12:56:10.38Z</time></trkpt><trkpt lat="44.1131182" lon="9.7361093"><ele>203.0</ele><time>2026-04-04T12:56:11.388Z</time></trkpt><trkpt lat="44.1131341" lon="9.7362665"><ele>205.00000000000003</ele><time>2026-04-04T12:56:12.372Z</time></trkpt><trkpt lat="44.113149" lon="9.7364096"><ele>207.0</ele><time>2026-04-04T12:56:13.39Z</time></trkpt><trkpt lat="44.1131681" lon="9.7365248"><ele>209.0</ele><time>2026-04-04T12:56:14.389Z</time></trkpt><trkpt lat="44.1131999" lon="9.7366189"><ele>211.0</ele><time>2026-04-04T12:56:15.385Z</time></trkpt><trkpt lat="44.1132414" lon="9.7366978"><ele>213.00000000000003</ele><time>2026-04-04T12:56:16.381Z</time></trkpt><trkpt lat="44.1132892" lon="9.7367606"><ele>215.0</ele><time>2026-04-04T12:56:17.394Z</time></trkpt><trkpt lat="44.1133826" lon="9.7368567"><ele>216.4</ele><time>2026-04-04T12:56:19.375Z</time></trkpt><trkpt lat="44.1134405" lon="9.7368938"><ele>217.8</ele><time>2026-04-04T12:56:20.37Z</time></trkpt><trkpt lat="44.11351" lon="9.7369242"><ele>219.2</ele><time>2026-04-04T12:56:21.361Z</time></trkpt><trkpt lat="44.1135979" lon="9.7369457"><ele>220.6</ele><time>2026-04-04T12:56:22.372Z</time></trkpt><trkpt lat="44.1137172" lon="9.736943"><ele>222.0</ele><time>2026-04-04T12:56:23.453Z</time></trkpt><trkpt lat="44.1138742" lon="9.7369324"><ele>222.0</ele><time>2026-04-04T12:56:24.356Z</time></trkpt><trkpt lat="44.1140473" lon="9.7369218"><ele>222.0</ele><time>2026-04-04T12:56:25.365Z</time></trkpt><trkpt lat="44.1142063" lon="9.736901"><ele>222.0</ele><time>2026-04-04T12:56:26.376Z</time></trkpt><trkpt lat="44.1143005" lon="9.7369083"><ele>222.0</ele><time>2026-04-04T12:56:27.37Z</time></trkpt><trkpt lat="44.1143542" lon="9.736958"><ele>222.0</ele><time>2026-04-04T12:56:28.363Z</time></trkpt><trkpt lat="44.1143685" lon="9.7370483"><ele>222.0</ele><time>2026-04-04T12:56:29.371Z</time></trkpt><trkpt lat="44.1143346" lon="9.7371343"><ele>222.0</ele><time>2026-04-04T12:56:30.381Z</time></trkpt><trkpt lat="44.1142551" lon="9.7372146"><ele>222.0</ele><time>2026-04-04T12:56:31.372Z</time></trkpt><trkpt lat="44.1141479" lon="9.737324"><ele>222.0</ele><time>2026-04-04T12:56:32.384Z</time></trkpt><trkpt lat="44.114034" lon="9.7374516"><ele>222.0</ele><time>2026-04-04T12:56:33.376Z</time></trkpt><trkpt lat="44.1139066" lon="9.7375786"><ele>222.0</ele><time>2026-04-04T12:56:34.383Z</time></trkpt><trkpt lat="44.1137836" lon="9.7376767"><ele>222.0</ele><time>2026-04-04T12:56:35.37Z</time></trkpt><trkpt lat="44.113695" lon="9.7377277"><ele>222.0</ele><time>2026-04-04T12:56:36.381Z</time></trkpt><trkpt lat="44.1136253" lon="9.7377957"><ele>228.0</ele><time>2026-04-04T12:56:37.374Z</time></trkpt><trkpt lat="44.1136621" lon="9.7379409"><ele>234.0</ele><time>2026-04-04T12:56:39.359Z</time></trkpt><trkpt lat="44.1137313" lon="9.7379728"><ele>240.0</ele><time>2026-04-04T12:56:40.356Z</time></trkpt><trkpt lat="44.1138129" lon="9.7379508"><ele>246.0</ele><time>2026-04-04T12:56:41.363Z</time></trkpt><trkpt lat="44.1139097" lon="9.7379037"><ele>252.0</ele><time>2026-04-04T12:56:42.366Z</time></trkpt><trkpt lat="44.1140227" lon="9.7378465"><ele>248.0</ele><time>2026-04-04T12:56:43.367Z</time></trkpt><trkpt lat="44.1141416" lon="9.7377914"><ele>244.0</ele><time>2026-04-04T12:56:44.359Z</time></trkpt><trkpt lat="44.11426" lon="9.7377178"><ele>240.0</ele><time>2026-04-04T12:56:45.37Z</time></trkpt><trkpt lat="44.114374" lon="9.7376201"><ele>236.0</ele><time>2026-04-04T12:56:46.371Z</time></trkpt><trkpt lat="44.1144862" lon="9.7375139"><ele>236.0</ele><time>2026-04-04T12:56:47.373Z</time></trkpt><trkpt lat="44.114594" lon="9.7374061"><ele>236.0</ele><time>2026-04-04T12:56:48.375Z</time></trkpt><trkpt lat="44.1147031" lon="9.7373082"><ele>236.0</ele><time>2026-04-04T12:56:49.366Z</time></trkpt><trkpt lat="44.1148056" lon="9.7372594"><ele>236.0</ele><time>2026-04-04T12:56:50.374Z</time></trkpt><trkpt lat="44.1149041" lon="9.7372469"><ele>239.4</ele><time>2026-04-04T12:56:51.374Z</time></trkpt><trkpt lat="44.1150055" lon="9.7372985"><ele>242.8</ele><time>2026-04-04T12:56:52.381Z</time></trkpt><trkpt lat="44.1151062" lon="9.7373782"><ele>246.20000000000002</ele><time>2026-04-04T12:56:53.372Z</time></trkpt><trkpt lat="44.1151966" lon="9.7374559"><ele>249.60000000000002</ele><time>2026-04-04T12:56:54.371Z</time></trkpt><trkpt lat="44.1152872" lon="9.7375221"><ele>253.0</ele><time>2026-04-04T12:56:55.364Z</time></trkpt><trkpt lat="44.1153642" lon="9.7375388"><ele>253.0</ele><time>2026-04-04T12:56:56.45Z</time></trkpt><trkpt lat="44.1154372" lon="9.7374777"><ele>253.0</ele><time>2026-04-04T12:56:57.379Z</time></trkpt><trkpt lat="44.1154812" lon="9.7373693"><ele>253.0</ele><time>2026-04-04T12:56:58.364Z</time></trkpt><trkpt lat="44.1155198" lon="9.7372234"><ele>253.0</ele><time>2026-04-04T12:56:59.383Z</time></trkpt><trkpt lat="44.1155756" lon="9.7370859"><ele>253.0</ele><time>2026-04-04T12:57:00.376Z</time></trkpt><trkpt lat="44.1156526" lon="9.736974"><ele>255.0</ele><time>2026-04-04T12:57:01.376Z</time></trkpt><trkpt lat="44.1157416" lon="9.7368641"><ele>257.0</ele><time>2026-04-04T12:57:02.379Z</time></trkpt><trkpt lat="44.1158217" lon="9.7367509"><ele>259.0</ele><time>2026-04-04T12:57:03.379Z</time></trkpt><trkpt lat="44.1158929" lon="9.7366309"><ele>261.0</ele><time>2026-04-04T12:57:04.382Z</time></trkpt><trkpt lat="44.1159541" lon="9.7365007"><ele>261.0</ele><time>2026-04-04T12:57:05.382Z</time></trkpt><trkpt lat="44.1160251" lon="9.7363853"><ele>261.0</ele><time>2026-04-04T12:57:06.393Z</time></trkpt><trkpt lat="44.1161004" lon="9.7362958"><ele>261.0</ele><time>2026-04-04T12:57:07.376Z</time></trkpt><trkpt lat="44.1161772" lon="9.7362434"><ele>261.0</ele><time>2026-04-04T12:57:08.381Z</time></trkpt><trkpt lat="44.116257" lon="9.7362374"><ele>261.0</ele><time>2026-04-04T12:57:09.379Z</time></trkpt><trkpt lat="44.1163326" lon="9.7362715"><ele>261.0</ele><time>2026-04-04T12:57:10.376Z</time></trkpt><trkpt lat="44.1164116" lon="9.736323"><ele>261.0</ele><time>2026-04-04T12:57:11.381Z</time></trkpt><trkpt lat="44.1164947" lon="9.7363821"><ele>261.0</ele><time>2026-04-04T12:57:12.383Z</time></trkpt><trkpt lat="44.116584" lon="9.7364402"><ele>261.0</ele><time>2026-04-04T12:57:13.383Z</time></trkpt><trkpt lat="44.1166642" lon="9.7364923"><ele>261.0</ele><time>2026-04-04T12:57:14.373Z</time></trkpt><trkpt lat="44.1167331" lon="9.7365327"><ele>261.0</ele><time>2026-04-04T12:57:15.371Z</time></trkpt><trkpt lat="44.1167998" lon="9.7365592"><ele>264.8</ele><time>2026-04-04T12:57:16.377Z</time></trkpt><trkpt lat="44.1169139" lon="9.7365246"><ele>268.6</ele><time>2026-04-04T12:57:18.381Z</time></trkpt><trkpt lat="44.1169441" lon="9.7364337"><ele>272.4</ele><time>2026-04-04T12:57:19.412Z</time></trkpt><trkpt lat="44.1169245" lon="9.7363253"><ele>276.2</ele><time>2026-04-04T12:57:20.379Z</time></trkpt><trkpt lat="44.1168612" lon="9.736221"><ele>280.0</ele><time>2026-04-04T12:57:21.372Z</time></trkpt><trkpt lat="44.1167847" lon="9.7361359"><ele>280.0</ele><time>2026-04-04T12:57:22.375Z</time></trkpt><trkpt lat="44.1167042" lon="9.7360602"><ele>280.0</ele><time>2026-04-04T12:57:23.377Z</time></trkpt><trkpt lat="44.1166129" lon="9.735989"><ele>280.0</ele><time>2026-04-04T12:57:24.381Z</time></trkpt><trkpt lat="44.1165115" lon="9.7359137"><ele>280.0</ele><time>2026-04-04T12:57:25.381Z</time></trkpt><trkpt lat="44.1164047" lon="9.7358333"><ele>280.0</ele><time>2026-04-04T12:57:26.377Z</time></trkpt><trkpt lat="44.1162996" lon="9.7357566"><ele>280.0</ele><time>2026-04-04T12:57:27.382Z</time></trkpt><trkpt lat="44.1161908" lon="9.7356926"><ele>280.0</ele><time>2026-04-04T12:57:28.377Z</time></trkpt><trkpt lat="44.1160758" lon="9.7356569"><ele>280.0</ele><time>2026-04-04T12:57:29.368Z</time></trkpt><trkpt lat="44.1159571" lon="9.7356354"><ele>280.0</ele><time>2026-04-04T12:57:30.371Z</time></trkpt><trkpt lat="44.115837" lon="9.7356215"><ele>277.75</ele><time>2026-04-04T12:57:31.371Z</time></trkpt><trkpt lat="44.1157166" lon="9.7356075"><ele>275.5</ele><time>2026-04-04T12:57:32.35Z</time></trkpt><trkpt lat="44.1155989" lon="9.7355863"><ele>273.25</ele><time>2026-04-04T12:57:33.358Z</time></trkpt><trkpt lat="44.1154832" lon="9.7355621"><ele>271.0</ele><time>2026-04-04T12:57:34.355Z</time></trkpt><trkpt lat="44.1153699" lon="9.7355449"><ele>271.0</ele><time>2026-04-04T12:57:35.362Z</time></trkpt><trkpt lat="44.1152604" lon="9.7355371"><ele>271.0</ele><time>2026-04-04T12:57:36.36Z</time></trkpt><trkpt lat="44.1151533" lon="9.7355417"><ele>271.0</ele><time>2026-04-04T12:57:37.364Z</time></trkpt><trkpt lat="44.1150552" lon="9.7355391"><ele>271.0</ele><time>2026-04-04T12:57:38.374Z</time></trkpt><trkpt lat="44.1149669" lon="9.7355311"><ele>271.0</ele><time>2026-04-04T12:57:39.378Z</time></trkpt><trkpt lat="44.1148985" lon="9.7355195"><ele>273.6</ele><time>2026-04-04T12:57:40.381Z</time></trkpt><trkpt lat="44.1148194" lon="9.7354954"><ele>276.20000000000005</ele><time>2026-04-04T12:57:42.382Z</time></trkpt><trkpt lat="44.1147944" lon="9.7354012"><ele>278.79999999999995</ele><time>2026-04-04T12:57:44.396Z</time></trkpt><trkpt lat="44.114855" lon="9.7352673"><ele>281.4</ele><time>2026-04-04T12:57:46.417Z</time></trkpt><trkpt lat="44.1149202" lon="9.7351858"><ele>284.0</ele><time>2026-04-04T12:57:47.423Z</time></trkpt><trkpt lat="44.1150052" lon="9.7350934"><ele>284.0</ele><time>2026-04-04T12:57:48.396Z</time></trkpt><trkpt lat="44.1151029" lon="9.7349909"><ele>284.0</ele><time>2026-04-04T12:57:49.407Z</time></trkpt><trkpt lat="44.1152016" lon="9.734866"><ele>284.0</ele><time>2026-04-04T12:57:50.385Z</time></trkpt><trkpt lat="44.1153106" lon="9.7347079"><ele>284.0</ele><time>2026-04-04T12:57:51.394Z</time></trkpt><trkpt lat="44.1154331" lon="9.7345269"><ele>271.0</ele><time>2026-04-04T12:57:52.394Z</time></trkpt><trkpt lat="44.1155726" lon="9.7342926"><ele>258.0</ele><time>2026-04-04T12:57:53.398Z</time></trkpt><trkpt lat="44.1157231" lon="9.7340179"><ele>271.3333333333333</ele><time>2026-04-04T12:57:54.396Z</time></trkpt><trkpt lat="44.115852" lon="9.7337954"><ele>284.66666666666663</ele><time>2026-04-04T12:57:55.392Z</time></trkpt><trkpt lat="44.1159587" lon="9.7335903"><ele>298.0</ele><time>2026-04-04T12:57:56.392Z</time></trkpt><trkpt lat="44.1160412" lon="9.7333613"><ele>298.0</ele><time>2026-04-04T12:57:57.392Z</time></trkpt><trkpt lat="44.1160917" lon="9.7331183"><ele>298.0</ele><time>2026-04-04T12:57:58.382Z</time></trkpt><trkpt lat="44.1161196" lon="9.7328511"><ele>298.0</ele><time>2026-04-04T12:57:59.384Z</time></trkpt><trkpt lat="44.1161227" lon="9.7325865"><ele>298.0</ele><time>2026-04-04T12:58:00.384Z</time></trkpt><trkpt lat="44.1161078" lon="9.7323138"><ele>298.0</ele><time>2026-04-04T12:58:01.386Z</time></trkpt><trkpt lat="44.1161149" lon="9.7320527"><ele>298.0</ele><time>2026-04-04T12:58:02.391Z</time></trkpt><trkpt lat="44.116164" lon="9.7318081"><ele>299.66666666666663</ele><time>2026-04-04T12:58:03.379Z</time></trkpt><trkpt lat="44.1162416" lon="9.7315588"><ele>301.3333333333333</ele><time>2026-04-04T12:58:04.391Z</time></trkpt><trkpt lat="44.1163207" lon="9.7313085"><ele>303.0</ele><time>2026-04-04T12:58:05.39Z</time></trkpt><trkpt lat="44.116388" lon="9.7310444"><ele>310.0</ele><time>2026-04-04T12:58:06.387Z</time></trkpt><trkpt lat="44.1164502" lon="9.7307794"><ele>317.0</ele><time>2026-04-04T12:58:07.389Z</time></trkpt><trkpt lat="44.1165052" lon="9.7305368"><ele>324.0</ele><time>2026-04-04T12:58:08.391Z</time></trkpt><trkpt lat="44.1165566" lon="9.73033"><ele>329.5</ele><time>2026-04-04T12:58:09.387Z</time></trkpt><trkpt lat="44.1165905" lon="9.7301387"><ele>335.0</ele><time>2026-04-04T12:58:10.397Z</time></trkpt><trkpt lat="44.1166087" lon="9.7299553"><ele>340.5</ele><time>2026-04-04T12:58:11.392Z</time></trkpt><trkpt lat="44.1166052" lon="9.729791"><ele>346.0</ele><time>2026-04-04T12:58:12.388Z</time></trkpt><trkpt lat="44.1165839" lon="9.7296486"><ele>344.16666666666663</ele><time>2026-04-04T12:58:13.383Z</time></trkpt><trkpt lat="44.1165285" lon="9.7295389"><ele>342.3333333333333</ele><time>2026-04-04T12:58:14.391Z</time></trkpt><trkpt lat="44.1164474" lon="9.7294743"><ele>340.5</ele><time>2026-04-04T12:58:15.395Z</time></trkpt><trkpt lat="44.1163626" lon="9.7294615"><ele>338.6666666666667</ele><time>2026-04-04T12:58:16.391Z</time></trkpt><trkpt lat="44.116287" lon="9.729503"><ele>336.83333333333337</ele><time>2026-04-04T12:58:17.401Z</time></trkpt><trkpt lat="44.1162175" lon="9.7295794"><ele>335.0</ele><time>2026-04-04T12:58:18.391Z</time></trkpt><trkpt lat="44.1161556" lon="9.729635"><ele>335.0</ele><time>2026-04-04T12:58:19.396Z</time></trkpt><trkpt lat="44.1160671" lon="9.7296422"><ele>335.0</ele><time>2026-04-04T12:58:21.391Z</time></trkpt><trkpt lat="44.1160041" lon="9.7295635"><ele>335.0</ele><time>2026-04-04T12:58:23.395Z</time></trkpt><trkpt lat="44.1159572" lon="9.729485"><ele>335.0</ele><time>2026-04-04T12:58:25.4Z</time></trkpt><trkpt lat="44.1159271" lon="9.7293802"><ele>335.0</ele><time>2026-04-04T12:58:27.4Z</time></trkpt><trkpt lat="44.1159253" lon="9.7291991"><ele>336.0</ele><time>2026-04-04T12:58:29.399Z</time></trkpt><trkpt lat="44.1159423" lon="9.7291106"><ele>337.0</ele><time>2026-04-04T12:58:30.399Z</time></trkpt><trkpt lat="44.1159775" lon="9.7290241"><ele>338.0</ele><time>2026-04-04T12:58:31.398Z</time></trkpt><trkpt lat="44.1160352" lon="9.7289426"><ele>339.0</ele><time>2026-04-04T12:58:32.4Z</time></trkpt><trkpt lat="44.1160977" lon="9.7288547"><ele>340.0</ele><time>2026-04-04T12:58:33.397Z</time></trkpt><trkpt lat="44.11616" lon="9.7287585"><ele>341.0</ele><time>2026-04-04T12:58:34.4Z</time></trkpt><trkpt lat="44.1162166" lon="9.7286534"><ele>340.0</ele><time>2026-04-04T12:58:35.397Z</time></trkpt><trkpt lat="44.116274" lon="9.7285489"><ele>339.0</ele><time>2026-04-04T12:58:36.396Z</time></trkpt><trkpt lat="44.1163292" lon="9.7284409"><ele>338.0</ele><time>2026-04-04T12:58:37.395Z</time></trkpt><trkpt lat="44.1163873" lon="9.7283365"><ele>337.0</ele><time>2026-04-04T12:58:38.402Z</time></trkpt><trkpt lat="44.1164417" lon="9.7282291"><ele>336.0</ele><time>2026-04-04T12:58:39.396Z</time></trkpt><trkpt lat="44.1165037" lon="9.7281051"><ele>340.75</ele><time>2026-04-04T12:58:40.401Z</time></trkpt><trkpt lat="44.1165773" lon="9.7279661"><ele>345.5</ele><time>2026-04-04T12:58:41.392Z</time></trkpt><trkpt lat="44.116657" lon="9.7278036"><ele>350.25</ele><time>2026-04-04T12:58:42.398Z</time></trkpt><trkpt lat="44.1167313" lon="9.7276241"><ele>355.0</ele><time>2026-04-04T12:58:43.391Z</time></trkpt><trkpt lat="44.1167929" lon="9.7274086"><ele>355.0</ele><time>2026-04-04T12:58:44.399Z</time></trkpt><trkpt lat="44.1168163" lon="9.7271672"><ele>355.0</ele><time>2026-04-04T12:58:45.391Z</time></trkpt><trkpt lat="44.1168222" lon="9.7269689"><ele>355.0</ele><time>2026-04-04T12:58:46.405Z</time></trkpt><trkpt lat="44.1168561" lon="9.7267973"><ele>355.0</ele><time>2026-04-04T12:58:47.389Z</time></trkpt><trkpt lat="44.1169257" lon="9.7266662"><ele>353.6</ele><time>2026-04-04T12:58:48.398Z</time></trkpt><trkpt lat="44.1170099" lon="9.7265541"><ele>352.2</ele><time>2026-04-04T12:58:49.396Z</time></trkpt><trkpt lat="44.1170857" lon="9.7264691"><ele>350.79999999999995</ele><time>2026-04-04T12:58:50.391Z</time></trkpt><trkpt lat="44.117152" lon="9.7263983"><ele>349.4</ele><time>2026-04-04T12:58:51.4Z</time></trkpt><trkpt lat="44.1172187" lon="9.7263402"><ele>348.0</ele><time>2026-04-04T12:58:52.398Z</time></trkpt><trkpt lat="44.1172964" lon="9.726294"><ele>348.0</ele><time>2026-04-04T12:58:53.392Z</time></trkpt><trkpt lat="44.1173793" lon="9.7262576"><ele>348.0</ele><time>2026-04-04T12:58:54.393Z</time></trkpt><trkpt lat="44.1174602" lon="9.7262243"><ele>348.0</ele><time>2026-04-04T12:58:55.396Z</time></trkpt><trkpt lat="44.117532" lon="9.7261956"><ele>348.0</ele><time>2026-04-04T12:58:56.396Z</time></trkpt><trkpt lat="44.1175972" lon="9.7261753"><ele>348.0</ele><time>2026-04-04T12:58:57.38Z</time></trkpt><trkpt lat="44.1177221" lon="9.7261385"><ele>348.0</ele><time>2026-04-04T12:58:59.386Z</time></trkpt><trkpt lat="44.1177997" lon="9.7261308"><ele>355.5</ele><time>2026-04-04T12:59:00.376Z</time></trkpt><trkpt lat="44.117897" lon="9.7261545"><ele>363.0</ele><time>2026-04-04T12:59:01.384Z</time></trkpt><trkpt lat="44.1180264" lon="9.7262033"><ele>370.5</ele><time>2026-04-04T12:59:02.378Z</time></trkpt><trkpt lat="44.1181639" lon="9.7262276"><ele>378.0</ele><time>2026-04-04T12:59:03.376Z</time></trkpt><trkpt lat="44.1183112" lon="9.7262069"><ele>372.75</ele><time>2026-04-04T12:59:04.381Z</time></trkpt><trkpt lat="44.1184605" lon="9.726148"><ele>367.5</ele><time>2026-04-04T12:59:05.374Z</time></trkpt><trkpt lat="44.1185958" lon="9.7260895"><ele>362.25</ele><time>2026-04-04T12:59:06.371Z</time></trkpt><trkpt lat="44.1187223" lon="9.7260405"><ele>357.0</ele><time>2026-04-04T12:59:07.372Z</time></trkpt><trkpt lat="44.1188418" lon="9.7259936"><ele>357.0</ele><time>2026-04-04T12:59:08.371Z</time></trkpt><trkpt lat="44.1189608" lon="9.7259538"><ele>357.0</ele><time>2026-04-04T12:59:09.369Z</time></trkpt><trkpt lat="44.1190865" lon="9.7259107"><ele>357.0</ele><time>2026-04-04T12:59:10.37Z</time></trkpt><trkpt lat="44.1192177" lon="9.7258637"><ele>357.0</ele><time>2026-04-04T12:59:11.368Z</time></trkpt><trkpt lat="44.1193466" lon="9.7258133"><ele>361.6666666666667</ele><time>2026-04-04T12:59:12.363Z</time></trkpt><trkpt lat="44.119475" lon="9.7257926"><ele>366.33333333333337</ele><time>2026-04-04T12:59:13.367Z</time></trkpt><trkpt lat="44.1196443" lon="9.7258251"><ele>371.0</ele><time>2026-04-04T12:59:14.371Z</time></trkpt><trkpt lat="44.1198107" lon="9.7258575"><ele>376.0</ele><time>2026-04-04T12:59:15.364Z</time></trkpt><trkpt lat="44.1199609" lon="9.7258622"><ele>381.0</ele><time>2026-04-04T12:59:16.37Z</time></trkpt><trkpt lat="44.120072" lon="9.7258607"><ele>386.0</ele><time>2026-04-04T12:59:17.39Z</time></trkpt><trkpt lat="44.1201441" lon="9.7258124"><ele>391.0</ele><time>2026-04-04T12:59:18.381Z</time></trkpt><trkpt lat="44.1201904" lon="9.7257062"><ele>396.0</ele><time>2026-04-04T12:59:19.377Z</time></trkpt><trkpt lat="44.1202235" lon="9.7255459"><ele>396.0</ele><time>2026-04-04T12:59:20.372Z</time></trkpt><trkpt lat="44.1202626" lon="9.7253234"><ele>396.0</ele><time>2026-04-04T12:59:21.366Z</time></trkpt><trkpt lat="44.1203057" lon="9.7249852"><ele>396.0</ele><time>2026-04-04T12:59:22.391Z</time></trkpt><trkpt lat="44.1203548" lon="9.7245992"><ele>371.5</ele><time>2026-04-04T12:59:23.37Z</time></trkpt><trkpt lat="44.1204015" lon="9.724232"><ele>347.0</ele><time>2026-04-04T12:59:24.4Z</time></trkpt><trkpt lat="44.1204228" lon="9.7238729"><ele>346.6666666666667</ele><time>2026-04-04T12:59:25.379Z</time></trkpt><trkpt lat="44.120419" lon="9.7235483"><ele>346.3333333333333</ele><time>2026-04-04T12:59:26.38Z</time></trkpt><trkpt lat="44.1204132" lon="9.7232887"><ele>346.0</ele><time>2026-04-04T12:59:27.391Z</time></trkpt><trkpt lat="44.1204208" lon="9.7230752"><ele>346.0</ele><time>2026-04-04T12:59:28.379Z</time></trkpt><trkpt lat="44.120458" lon="9.7228996"><ele>346.0</ele><time>2026-04-04T12:59:29.38Z</time></trkpt><trkpt lat="44.1205329" lon="9.722771"><ele>346.0</ele><time>2026-04-04T12:59:30.388Z</time></trkpt><trkpt lat="44.1206267" lon="9.7226988"><ele>346.0</ele><time>2026-04-04T12:59:31.396Z</time></trkpt><trkpt lat="44.1207461" lon="9.7226777"><ele>354.3333333333333</ele><time>2026-04-04T12:59:32.394Z</time></trkpt><trkpt lat="44.1208998" lon="9.722726"><ele>362.6666666666667</ele><time>2026-04-04T12:59:33.388Z</time></trkpt><trkpt lat="44.1210829" lon="9.7227732"><ele>371.0</ele><time>2026-04-04T12:59:34.384Z</time></trkpt><trkpt lat="44.1212858" lon="9.7228054"><ele>376.33333333333337</ele><time>2026-04-04T12:59:35.385Z</time></trkpt><trkpt lat="44.1214841" lon="9.7228192"><ele>381.6666666666667</ele><time>2026-04-04T12:59:36.381Z</time></trkpt><trkpt lat="44.1216601" lon="9.7228376"><ele>387.0</ele><time>2026-04-04T12:59:37.383Z</time></trkpt><trkpt lat="44.1218134" lon="9.7228748"><ele>393.66666666666663</ele><time>2026-04-04T12:59:38.396Z</time></trkpt><trkpt lat="44.1219621" lon="9.7229688"><ele>400.3333333333333</ele><time>2026-04-04T12:59:39.383Z</time></trkpt><trkpt lat="44.1221133" lon="9.7230768"><ele>407.0</ele><time>2026-04-04T12:59:40.39Z</time></trkpt><trkpt lat="44.122272" lon="9.723201"><ele>407.66666666666663</ele><time>2026-04-04T12:59:41.379Z</time></trkpt><trkpt lat="44.1224653" lon="9.7233261"><ele>408.33333333333337</ele><time>2026-04-04T12:59:42.378Z</time></trkpt><trkpt lat="44.1226719" lon="9.7234412"><ele>409.0</ele><time>2026-04-04T12:59:43.367Z</time></trkpt><trkpt lat="44.1228476" lon="9.7235553"><ele>422.33333333333337</ele><time>2026-04-04T12:59:44.385Z</time></trkpt><trkpt lat="44.1230036" lon="9.7236834"><ele>435.66666666666663</ele><time>2026-04-04T12:59:45.365Z</time></trkpt><trkpt lat="44.1231323" lon="9.7238367"><ele>449.0</ele><time>2026-04-04T12:59:46.375Z</time></trkpt><trkpt lat="44.1232277" lon="9.7240008"><ele>450.25</ele><time>2026-04-04T12:59:47.374Z</time></trkpt><trkpt lat="44.1233003" lon="9.7241786"><ele>451.5</ele><time>2026-04-04T12:59:48.367Z</time></trkpt><trkpt lat="44.1233355" lon="9.7243512"><ele>452.75</ele><time>2026-04-04T12:59:49.371Z</time></trkpt><trkpt lat="44.1233672" lon="9.7245222"><ele>454.0</ele><time>2026-04-04T12:59:50.355Z</time></trkpt><trkpt lat="44.123454" lon="9.7246735"><ele>454.0</ele><time>2026-04-04T12:59:51.362Z</time></trkpt><trkpt lat="44.1235997" lon="9.7248076"><ele>454.0</ele><time>2026-04-04T12:59:52.369Z</time></trkpt><trkpt lat="44.1237275" lon="9.7249842"><ele>454.0</ele><time>2026-04-04T12:59:53.38Z</time></trkpt><trkpt lat="44.1238337" lon="9.7251871"><ele>456.0</ele><time>2026-04-04T12:59:54.364Z</time></trkpt><trkpt lat="44.1239135" lon="9.7253866"><ele>458.0</ele><time>2026-04-04T12:59:55.366Z</time></trkpt><trkpt lat="44.1240021" lon="9.7255312"><ele>460.0</ele><time>2026-04-04T12:59:56.365Z</time></trkpt><trkpt lat="44.124092" lon="9.7256364"><ele>462.0</ele><time>2026-04-04T12:59:57.367Z</time></trkpt><trkpt lat="44.1241858" lon="9.725699"><ele>462.0</ele><time>2026-04-04T12:59:58.37Z</time></trkpt><trkpt lat="44.1242825" lon="9.7256789"><ele>462.0</ele><time>2026-04-04T12:59:59.375Z</time></trkpt><trkpt lat="44.1243758" lon="9.7255714"><ele>462.0</ele><time>2026-04-04T13:00:00.361Z</time></trkpt><trkpt lat="44.1244236" lon="9.7254231"><ele>462.0</ele><time>2026-04-04T13:00:01.371Z</time></trkpt><trkpt lat="44.1244357" lon="9.7252217"><ele>454.75</ele><time>2026-04-04T13:00:02.368Z</time></trkpt><trkpt lat="44.1244622" lon="9.7249884"><ele>447.5</ele><time>2026-04-04T13:00:03.351Z</time></trkpt><trkpt lat="44.1245112" lon="9.7248107"><ele>440.25</ele><time>2026-04-04T13:00:04.358Z</time></trkpt><trkpt lat="44.1245723" lon="9.7247024"><ele>433.0</ele><time>2026-04-04T13:00:05.372Z</time></trkpt><trkpt lat="44.12466" lon="9.7246733"><ele>433.0</ele><time>2026-04-04T13:00:06.357Z</time></trkpt><trkpt lat="44.1247723" lon="9.724682"><ele>432.99999999999994</ele><time>2026-04-04T13:00:07.351Z</time></trkpt><trkpt lat="44.1249046" lon="9.7247051"><ele>432.99999999999994</ele><time>2026-04-04T13:00:08.362Z</time></trkpt><trkpt lat="44.1250066" lon="9.7247075"><ele>433.0</ele><time>2026-04-04T13:00:09.359Z</time></trkpt><trkpt lat="44.1251" lon="9.7247295"><ele>433.0</ele><time>2026-04-04T13:00:10.358Z</time></trkpt><trkpt lat="44.1251848" lon="9.7247514"><ele>436.1666666666667</ele><time>2026-04-04T13:00:11.371Z</time></trkpt><trkpt lat="44.1252616" lon="9.7247854"><ele>439.33333333333337</ele><time>2026-04-04T13:00:12.377Z</time></trkpt><trkpt lat="44.125332" lon="9.7248194"><ele>442.5</ele><time>2026-04-04T13:00:13.363Z</time></trkpt><trkpt lat="44.1254013" lon="9.7248737"><ele>445.66666666666663</ele><time>2026-04-04T13:00:14.375Z</time></trkpt><trkpt lat="44.1254638" lon="9.7249396"><ele>448.8333333333333</ele><time>2026-04-04T13:00:15.374Z</time></trkpt><trkpt lat="44.1255236" lon="9.7250242"><ele>452.0</ele><time>2026-04-04T13:00:16.368Z</time></trkpt><trkpt lat="44.1255788" lon="9.7251124"><ele>452.0</ele><time>2026-04-04T13:00:17.352Z</time></trkpt><trkpt lat="44.1256417" lon="9.7251895"><ele>452.00000000000006</ele><time>2026-04-04T13:00:18.372Z</time></trkpt><trkpt lat="44.1257139" lon="9.7252553"><ele>452.00000000000006</ele><time>2026-04-04T13:00:19.379Z</time></trkpt><trkpt lat="44.1257973" lon="9.7252873"><ele>452.0</ele><time>2026-04-04T13:00:20.365Z</time></trkpt><trkpt lat="44.1258973" lon="9.7252549"><ele>452.0</ele><time>2026-04-04T13:00:21.367Z</time></trkpt><trkpt lat="44.1259862" lon="9.7251735"><ele>454.40000000000003</ele><time>2026-04-04T13:00:22.36Z</time></trkpt><trkpt lat="44.1260521" lon="9.725052"><ele>456.80000000000007</ele><time>2026-04-04T13:00:23.363Z</time></trkpt><trkpt lat="44.1260943" lon="9.7249181"><ele>459.2</ele><time>2026-04-04T13:00:24.37Z</time></trkpt><trkpt lat="44.1261431" lon="9.7247772"><ele>461.6</ele><time>2026-04-04T13:00:25.366Z</time></trkpt><trkpt lat="44.1261997" lon="9.7246552"><ele>464.0</ele><time>2026-04-04T13:00:26.362Z</time></trkpt><trkpt lat="44.1262484" lon="9.7245579"><ele>463.99999999999994</ele><time>2026-04-04T13:00:27.355Z</time></trkpt><trkpt lat="44.1262889" lon="9.7244543"><ele>464.0</ele><time>2026-04-04T13:00:28.362Z</time></trkpt><trkpt lat="44.1263052" lon="9.7243434"><ele>464.0</ele><time>2026-04-04T13:00:29.389Z</time></trkpt><trkpt lat="44.1262874" lon="9.7242345"><ele>464.0</ele><time>2026-04-04T13:00:30.376Z</time></trkpt><trkpt lat="44.1262363" lon="9.7241415"><ele>463.99999999999994</ele><time>2026-04-04T13:00:31.373Z</time></trkpt><trkpt lat="44.1261836" lon="9.7240386"><ele>464.0</ele><time>2026-04-04T13:00:32.365Z</time></trkpt><trkpt lat="44.1261269" lon="9.7239375"><ele>464.79999999999995</ele><time>2026-04-04T13:00:33.361Z</time></trkpt><trkpt lat="44.1260807" lon="9.7238221"><ele>465.59999999999997</ele><time>2026-04-04T13:00:34.359Z</time></trkpt><trkpt lat="44.1260403" lon="9.7237041"><ele>466.4</ele><time>2026-04-04T13:00:35.354Z</time></trkpt><trkpt lat="44.1259997" lon="9.7235778"><ele>467.2</ele><time>2026-04-04T13:00:36.361Z</time></trkpt><trkpt lat="44.1259595" lon="9.7234577"><ele>468.0</ele><time>2026-04-04T13:00:37.353Z</time></trkpt><trkpt lat="44.1259091" lon="9.7233417"><ele>468.0</ele><time>2026-04-04T13:00:38.347Z</time></trkpt><trkpt lat="44.1258447" lon="9.7232331"><ele>467.99999999999994</ele><time>2026-04-04T13:00:39.36Z</time></trkpt><trkpt lat="44.1257741" lon="9.7231354"><ele>467.99999999999994</ele><time>2026-04-04T13:00:40.346Z</time></trkpt><trkpt lat="44.1256944" lon="9.7230369"><ele>468.0</ele><time>2026-04-04T13:00:41.346Z</time></trkpt><trkpt lat="44.1256115" lon="9.7229333"><ele>468.0</ele><time>2026-04-04T13:00:42.346Z</time></trkpt><trkpt lat="44.1255268" lon="9.7228199"><ele>464.5</ele><time>2026-04-04T13:00:43.347Z</time></trkpt><trkpt lat="44.1254317" lon="9.7227018"><ele>461.0</ele><time>2026-04-04T13:00:44.356Z</time></trkpt><trkpt lat="44.1253407" lon="9.7225617"><ele>457.5</ele><time>2026-04-04T13:00:45.359Z</time></trkpt><trkpt lat="44.1252655" lon="9.7224174"><ele>454.0</ele><time>2026-04-04T13:00:46.366Z</time></trkpt><trkpt lat="44.1251938" lon="9.7222713"><ele>454.0</ele><time>2026-04-04T13:00:47.374Z</time></trkpt><trkpt lat="44.1251258" lon="9.7221305"><ele>454.0</ele><time>2026-04-04T13:00:48.372Z</time></trkpt><trkpt lat="44.1250679" lon="9.7219807"><ele>454.0</ele><time>2026-04-04T13:00:49.376Z</time></trkpt><trkpt lat="44.1250327" lon="9.7218304"><ele>454.0</ele><time>2026-04-04T13:00:50.382Z</time></trkpt><trkpt lat="44.1250135" lon="9.7216724"><ele>457.4</ele><time>2026-04-04T13:00:51.382Z</time></trkpt><trkpt lat="44.1250081" lon="9.7215089"><ele>460.79999999999995</ele><time>2026-04-04T13:00:52.384Z</time></trkpt><trkpt lat="44.1250102" lon="9.7213439"><ele>464.20000000000005</ele><time>2026-04-04T13:00:53.384Z</time></trkpt><trkpt lat="44.1250186" lon="9.7211831"><ele>467.6</ele><time>2026-04-04T13:00:54.378Z</time></trkpt><trkpt lat="44.1250242" lon="9.7210493"><ele>471.0</ele><time>2026-04-04T13:00:55.382Z</time></trkpt><trkpt lat="44.1250287" lon="9.7209297"><ele>471.6666666666667</ele><time>2026-04-04T13:00:56.377Z</time></trkpt><trkpt lat="44.1250278" lon="9.7208145"><ele>472.33333333333337</ele><time>2026-04-04T13:00:57.379Z</time></trkpt><trkpt lat="44.1250316" lon="9.7207005"><ele>473.0</ele><time>2026-04-04T13:00:58.384Z</time></trkpt><trkpt lat="44.1250436" lon="9.7205995"><ele>473.6666666666667</ele><time>2026-04-04T13:00:59.392Z</time></trkpt><trkpt lat="44.1250677" lon="9.7204953"><ele>474.33333333333337</ele><time>2026-04-04T13:01:00.388Z</time></trkpt><trkpt lat="44.1251033" lon="9.7203908"><ele>475.0</ele><time>2026-04-04T13:01:01.39Z</time></trkpt><trkpt lat="44.1251525" lon="9.7202824"><ele>473.6</ele><time>2026-04-04T13:01:02.391Z</time></trkpt><trkpt lat="44.1252196" lon="9.7201784"><ele>472.2</ele><time>2026-04-04T13:01:03.384Z</time></trkpt><trkpt lat="44.1253057" lon="9.7200851"><ele>470.79999999999995</ele><time>2026-04-04T13:01:04.38Z</time></trkpt><trkpt lat="44.1254038" lon="9.7200229"><ele>469.4</ele><time>2026-04-04T13:01:05.389Z</time></trkpt><trkpt lat="44.1255077" lon="9.7199986"><ele>468.0</ele><time>2026-04-04T13:01:06.386Z</time></trkpt><trkpt lat="44.1256176" lon="9.7200218"><ele>468.0</ele><time>2026-04-04T13:01:07.386Z</time></trkpt><trkpt lat="44.1257239" lon="9.7200827"><ele>468.0</ele><time>2026-04-04T13:01:08.393Z</time></trkpt><trkpt lat="44.1258249" lon="9.7201957"><ele>468.0</ele><time>2026-04-04T13:01:09.385Z</time></trkpt><trkpt lat="44.1259165" lon="9.7203437"><ele>468.0</ele><time>2026-04-04T13:01:10.387Z</time></trkpt><trkpt lat="44.1259887" lon="9.7204884"><ele>474.79999999999995</ele><time>2026-04-04T13:01:11.381Z</time></trkpt><trkpt lat="44.1260444" lon="9.7206133"><ele>481.59999999999997</ele><time>2026-04-04T13:01:12.414Z</time></trkpt><trkpt lat="44.1260977" lon="9.7207221"><ele>488.40000000000003</ele><time>2026-04-04T13:01:13.388Z</time></trkpt><trkpt lat="44.1261586" lon="9.7208022"><ele>495.20000000000005</ele><time>2026-04-04T13:01:14.395Z</time></trkpt><trkpt lat="44.1262321" lon="9.7208564"><ele>502.0</ele><time>2026-04-04T13:01:15.384Z</time></trkpt><trkpt lat="44.1263413" lon="9.7208732"><ele>502.0</ele><time>2026-04-04T13:01:16.387Z</time></trkpt><trkpt lat="44.1264697" lon="9.7208719"><ele>502.0</ele><time>2026-04-04T13:01:17.396Z</time></trkpt><trkpt lat="44.1265972" lon="9.7208742"><ele>502.0</ele><time>2026-04-04T13:01:18.377Z</time></trkpt><trkpt lat="44.1267192" lon="9.720862"><ele>502.0</ele><time>2026-04-04T13:01:19.386Z</time></trkpt><trkpt lat="44.126837" lon="9.7208482"><ele>502.0</ele><time>2026-04-04T13:01:20.384Z</time></trkpt><trkpt lat="44.1269444" lon="9.7208409"><ele>502.00000000000006</ele><time>2026-04-04T13:01:21.379Z</time></trkpt><trkpt lat="44.1270424" lon="9.7208674"><ele>502.00000000000006</ele><time>2026-04-04T13:01:22.379Z</time></trkpt><trkpt lat="44.1271208" lon="9.7209445"><ele>502.0</ele><time>2026-04-04T13:01:23.38Z</time></trkpt><trkpt lat="44.1271913" lon="9.7210412"><ele>502.0</ele><time>2026-04-04T13:01:24.38Z</time></trkpt><trkpt lat="44.1272586" lon="9.7211278"><ele>507.20000000000005</ele><time>2026-04-04T13:01:25.375Z</time></trkpt><trkpt lat="44.1273348" lon="9.7212069"><ele>512.4000000000001</ele><time>2026-04-04T13:01:26.376Z</time></trkpt><trkpt lat="44.1274156" lon="9.7212642"><ele>517.5999999999999</ele><time>2026-04-04T13:01:27.376Z</time></trkpt><trkpt lat="44.1275131" lon="9.7212963"><ele>522.8</ele><time>2026-04-04T13:01:28.368Z</time></trkpt><trkpt lat="44.127622" lon="9.7212991"><ele>528.0</ele><time>2026-04-04T13:01:29.372Z</time></trkpt><trkpt lat="44.1277275" lon="9.721283"><ele>530.1999999999999</ele><time>2026-04-04T13:01:30.402Z</time></trkpt><trkpt lat="44.1278315" lon="9.7212589"><ele>532.4</ele><time>2026-04-04T13:01:31.363Z</time></trkpt><trkpt lat="44.1279343" lon="9.7212458"><ele>534.5999999999999</ele><time>2026-04-04T13:01:32.367Z</time></trkpt><trkpt lat="44.1280268" lon="9.7212561"><ele>536.8</ele><time>2026-04-04T13:01:33.375Z</time></trkpt><trkpt lat="44.128111" lon="9.721284"><ele>539.0</ele><time>2026-04-04T13:01:34.362Z</time></trkpt><trkpt lat="44.1281826" lon="9.7213314"><ele>537.3333333333333</ele><time>2026-04-04T13:01:35.37Z</time></trkpt><trkpt lat="44.1282522" lon="9.7213828"><ele>535.6666666666666</ele><time>2026-04-04T13:01:36.368Z</time></trkpt><trkpt lat="44.1283142" lon="9.7214388"><ele>534.0</ele><time>2026-04-04T13:01:37.367Z</time></trkpt><trkpt lat="44.1283867" lon="9.7215041"><ele>532.3333333333334</ele><time>2026-04-04T13:01:38.357Z</time></trkpt><trkpt lat="44.1284645" lon="9.7215767"><ele>530.6666666666667</ele><time>2026-04-04T13:01:39.376Z</time></trkpt><trkpt lat="44.1285472" lon="9.7216544"><ele>529.0</ele><time>2026-04-04T13:01:40.364Z</time></trkpt><trkpt lat="44.1286273" lon="9.7217225"><ele>529.0</ele><time>2026-04-04T13:01:41.36Z</time></trkpt><trkpt lat="44.1287105" lon="9.7217683"><ele>529.0</ele><time>2026-04-04T13:01:42.367Z</time></trkpt><trkpt lat="44.1288023" lon="9.7217658"><ele>529.0</ele><time>2026-04-04T13:01:43.372Z</time></trkpt><trkpt lat="44.1288814" lon="9.7217051"><ele>529.0</ele><time>2026-04-04T13:01:44.371Z</time></trkpt><trkpt lat="44.1289271" lon="9.7216091"><ele>529.0</ele><time>2026-04-04T13:01:45.365Z</time></trkpt><trkpt lat="44.1289376" lon="9.7214991"><ele>529.0</ele><time>2026-04-04T13:01:46.362Z</time></trkpt><trkpt lat="44.1289257" lon="9.7213661"><ele>529.0</ele><time>2026-04-04T13:01:47.358Z</time></trkpt><trkpt lat="44.1288909" lon="9.7212202"><ele>529.0</ele><time>2026-04-04T13:01:48.365Z</time></trkpt><trkpt lat="44.1288363" lon="9.721063"><ele>529.0</ele><time>2026-04-04T13:01:49.358Z</time></trkpt><trkpt lat="44.128793" lon="9.7209066"><ele>529.0</ele><time>2026-04-04T13:01:50.358Z</time></trkpt><trkpt lat="44.128783" lon="9.7207477"><ele>522.75</ele><time>2026-04-04T13:01:51.364Z</time></trkpt><trkpt lat="44.1287984" lon="9.7205808"><ele>516.5</ele><time>2026-04-04T13:01:52.368Z</time></trkpt><trkpt lat="44.1288158" lon="9.7204142"><ele>510.25</ele><time>2026-04-04T13:01:53.37Z</time></trkpt><trkpt lat="44.1288336" lon="9.7202512"><ele>504.0</ele><time>2026-04-04T13:01:54.366Z</time></trkpt><trkpt lat="44.1288474" lon="9.7200921"><ele>497.75</ele><time>2026-04-04T13:01:55.372Z</time></trkpt><trkpt lat="44.1288822" lon="9.7199332"><ele>491.5</ele><time>2026-04-04T13:01:56.371Z</time></trkpt><trkpt lat="44.1289279" lon="9.7197757"><ele>485.25</ele><time>2026-04-04T13:01:57.38Z</time></trkpt><trkpt lat="44.1289712" lon="9.7196299"><ele>479.0</ele><time>2026-04-04T13:01:58.373Z</time></trkpt><trkpt lat="44.1290192" lon="9.7194837"><ele>484.6</ele><time>2026-04-04T13:01:59.375Z</time></trkpt><trkpt lat="44.1290648" lon="9.7193433"><ele>490.2</ele><time>2026-04-04T13:02:00.392Z</time></trkpt><trkpt lat="44.1291106" lon="9.7192199"><ele>495.80000000000007</ele><time>2026-04-04T13:02:01.378Z</time></trkpt><trkpt lat="44.1291673" lon="9.7191174"><ele>501.40000000000003</ele><time>2026-04-04T13:02:02.381Z</time></trkpt><trkpt lat="44.129242" lon="9.7190462"><ele>507.0</ele><time>2026-04-04T13:02:03.384Z</time></trkpt><trkpt lat="44.129344" lon="9.7190144"><ele>507.0</ele><time>2026-04-04T13:02:04.383Z</time></trkpt><trkpt lat="44.1294926" lon="9.7190028"><ele>507.0</ele><time>2026-04-04T13:02:05.379Z</time></trkpt><trkpt lat="44.1296875" lon="9.71898"><ele>507.0</ele><time>2026-04-04T13:02:06.379Z</time></trkpt><trkpt lat="44.129885" lon="9.7189772"><ele>514.0</ele><time>2026-04-04T13:02:07.374Z</time></trkpt><trkpt lat="44.1300746" lon="9.7189598"><ele>521.0</ele><time>2026-04-04T13:02:08.362Z</time></trkpt><trkpt lat="44.1302589" lon="9.7189109"><ele>528.0</ele><time>2026-04-04T13:02:09.367Z</time></trkpt><trkpt lat="44.1304215" lon="9.7188205"><ele>528.0</ele><time>2026-04-04T13:02:10.373Z</time></trkpt><trkpt lat="44.1305573" lon="9.7186957"><ele>528.0</ele><time>2026-04-04T13:02:11.369Z</time></trkpt><trkpt lat="44.1306695" lon="9.7185429"><ele>528.0</ele><time>2026-04-04T13:02:12.37Z</time></trkpt><trkpt lat="44.1307821" lon="9.7184247"><ele>525.75</ele><time>2026-04-04T13:02:13.367Z</time></trkpt><trkpt lat="44.1309124" lon="9.7183773"><ele>523.5</ele><time>2026-04-04T13:02:14.359Z</time></trkpt><trkpt lat="44.1310195" lon="9.7183676"><ele>521.25</ele><time>2026-04-04T13:02:15.37Z</time></trkpt><trkpt lat="44.1311089" lon="9.7182795"><ele>519.0</ele><time>2026-04-04T13:02:16.377Z</time></trkpt><trkpt lat="44.131158" lon="9.7181351"><ele>519.0</ele><time>2026-04-04T13:02:17.374Z</time></trkpt><trkpt lat="44.1311768" lon="9.7179344"><ele>519.0</ele><time>2026-04-04T13:02:18.369Z</time></trkpt><trkpt lat="44.131207" lon="9.7176944"><ele>519.0</ele><time>2026-04-04T13:02:19.363Z</time></trkpt><trkpt lat="44.1312444" lon="9.7175113"><ele>513.0</ele><time>2026-04-04T13:02:20.371Z</time></trkpt><trkpt lat="44.131249" lon="9.7173483"><ele>507.0</ele><time>2026-04-04T13:02:21.363Z</time></trkpt><trkpt lat="44.1312098" lon="9.7172043"><ele>501.0</ele><time>2026-04-04T13:02:22.38Z</time></trkpt><trkpt lat="44.1311188" lon="9.717068"><ele>495.0</ele><time>2026-04-04T13:02:23.359Z</time></trkpt><trkpt lat="44.1309819" lon="9.7169183"><ele>497.0</ele><time>2026-04-04T13:02:24.36Z</time></trkpt><trkpt lat="44.1308661" lon="9.7167503"><ele>499.0</ele><time>2026-04-04T13:02:25.35Z</time></trkpt><trkpt lat="44.1307967" lon="9.7165857"><ele>501.0</ele><time>2026-04-04T13:02:26.365Z</time></trkpt><trkpt lat="44.1307938" lon="9.7164296"><ele>503.0</ele><time>2026-04-04T13:02:27.379Z</time></trkpt><trkpt lat="44.1308175" lon="9.7162802"><ele>503.0</ele><time>2026-04-04T13:02:28.39Z</time></trkpt><trkpt lat="44.1308484" lon="9.7161149"><ele>503.0</ele><time>2026-04-04T13:02:29.378Z</time></trkpt><trkpt lat="44.1308445" lon="9.7159465"><ele>503.0</ele><time>2026-04-04T13:02:30.389Z</time></trkpt><trkpt lat="44.1307737" lon="9.7158123"><ele>503.0</ele><time>2026-04-04T13:02:31.378Z</time></trkpt><trkpt lat="44.1306626" lon="9.7156873"><ele>495.0</ele><time>2026-04-04T13:02:32.382Z</time></trkpt><trkpt lat="44.1305342" lon="9.7155184"><ele>487.0</ele><time>2026-04-04T13:02:33.385Z</time></trkpt><trkpt lat="44.1304285" lon="9.715302"><ele>479.0</ele><time>2026-04-04T13:02:34.377Z</time></trkpt><trkpt lat="44.1303395" lon="9.7151202"><ele>479.0</ele><time>2026-04-04T13:02:35.382Z</time></trkpt><trkpt lat="44.1302679" lon="9.7149379"><ele>479.0</ele><time>2026-04-04T13:02:36.372Z</time></trkpt><trkpt lat="44.1302317" lon="9.7147442"><ele>479.0</ele><time>2026-04-04T13:02:37.387Z</time></trkpt><trkpt lat="44.130217" lon="9.7144923"><ele>480.66666666666663</ele><time>2026-04-04T13:02:38.384Z</time></trkpt><trkpt lat="44.130211" lon="9.7142362"><ele>482.33333333333337</ele><time>2026-04-04T13:02:39.384Z</time></trkpt><trkpt lat="44.1302183" lon="9.7140056"><ele>484.0</ele><time>2026-04-04T13:02:40.394Z</time></trkpt><trkpt lat="44.1302718" lon="9.7138327"><ele>484.0</ele><time>2026-04-04T13:02:41.392Z</time></trkpt><trkpt lat="44.1303647" lon="9.7137104"><ele>484.0</ele><time>2026-04-04T13:02:42.384Z</time></trkpt><trkpt lat="44.1304816" lon="9.7136403"><ele>484.0</ele><time>2026-04-04T13:02:43.367Z</time></trkpt><trkpt lat="44.1306138" lon="9.713638"><ele>484.0</ele><time>2026-04-04T13:02:44.376Z</time></trkpt><trkpt lat="44.1308004" lon="9.7135988"><ele>487.33333333333337</ele><time>2026-04-04T13:02:45.377Z</time></trkpt><trkpt lat="44.1309819" lon="9.7135055"><ele>490.66666666666663</ele><time>2026-04-04T13:02:46.368Z</time></trkpt><trkpt lat="44.1311459" lon="9.7133781"><ele>494.0</ele><time>2026-04-04T13:02:47.363Z</time></trkpt><trkpt lat="44.1312897" lon="9.7132795"><ele>494.0</ele><time>2026-04-04T13:02:48.372Z</time></trkpt><trkpt lat="44.1314203" lon="9.7132416"><ele>494.0</ele><time>2026-04-04T13:02:49.372Z</time></trkpt><trkpt lat="44.1315483" lon="9.7132915"><ele>494.0</ele><time>2026-04-04T13:02:50.375Z</time></trkpt><trkpt lat="44.1316633" lon="9.7133812"><ele>494.0</ele><time>2026-04-04T13:02:51.379Z</time></trkpt><trkpt lat="44.1317521" lon="9.7134748"><ele>496.4</ele><time>2026-04-04T13:02:52.356Z</time></trkpt><trkpt lat="44.1318445" lon="9.7135195"><ele>498.79999999999995</ele><time>2026-04-04T13:02:53.372Z</time></trkpt><trkpt lat="44.1319177" lon="9.7134844"><ele>501.20000000000005</ele><time>2026-04-04T13:02:54.368Z</time></trkpt><trkpt lat="44.1319813" lon="9.7134058"><ele>503.6</ele><time>2026-04-04T13:02:55.372Z</time></trkpt><trkpt lat="44.1320255" lon="9.7132621"><ele>506.0</ele><time>2026-04-04T13:02:56.361Z</time></trkpt><trkpt lat="44.1320516" lon="9.7130621"><ele>506.0</ele><time>2026-04-04T13:02:57.364Z</time></trkpt><trkpt lat="44.1320832" lon="9.7128039"><ele>506.0</ele><time>2026-04-04T13:02:58.359Z</time></trkpt><trkpt lat="44.132106" lon="9.7124853"><ele>506.0</ele><time>2026-04-04T13:02:59.379Z</time></trkpt><trkpt lat="44.1321091" lon="9.7121582"><ele>492.66666666666663</ele><time>2026-04-04T13:03:00.367Z</time></trkpt><trkpt lat="44.1320886" lon="9.7118486"><ele>479.33333333333337</ele><time>2026-04-04T13:03:01.36Z</time></trkpt><trkpt lat="44.132032" lon="9.7115668"><ele>466.0</ele><time>2026-04-04T13:03:02.363Z</time></trkpt><trkpt lat="44.1319303" lon="9.7113196"><ele>466.0</ele><time>2026-04-04T13:03:03.395Z</time></trkpt><trkpt lat="44.1318177" lon="9.7110857"><ele>466.0</ele><time>2026-04-04T13:03:04.4Z</time></trkpt><trkpt lat="44.1317322" lon="9.710884"><ele>466.0</ele><time>2026-04-04T13:03:05.393Z</time></trkpt><trkpt lat="44.1316888" lon="9.710663"><ele>467.0</ele><time>2026-04-04T13:03:06.402Z</time></trkpt><trkpt lat="44.1316802" lon="9.7104161"><ele>468.0</ele><time>2026-04-04T13:03:07.406Z</time></trkpt><trkpt lat="44.1317151" lon="9.7101316"><ele>469.0</ele><time>2026-04-04T13:03:08.405Z</time></trkpt><trkpt lat="44.1317139" lon="9.7098591"><ele>469.33333333333337</ele><time>2026-04-04T13:03:09.387Z</time></trkpt><trkpt lat="44.131671" lon="9.7095922"><ele>469.66666666666663</ele><time>2026-04-04T13:03:10.376Z</time></trkpt><trkpt lat="44.1316451" lon="9.7093385"><ele>470.0</ele><time>2026-04-04T13:03:11.371Z</time></trkpt><trkpt lat="44.1316462" lon="9.7090817"><ele>468.3333333333333</ele><time>2026-04-04T13:03:12.38Z</time></trkpt><trkpt lat="44.1316741" lon="9.708792"><ele>466.66666666666663</ele><time>2026-04-04T13:03:13.372Z</time></trkpt><trkpt lat="44.1317068" lon="9.7085202"><ele>465.0</ele><time>2026-04-04T13:03:14.375Z</time></trkpt><trkpt lat="44.1317477" lon="9.7083013"><ele>461.33333333333337</ele><time>2026-04-04T13:03:15.368Z</time></trkpt><trkpt lat="44.1318153" lon="9.7081309"><ele>457.6666666666667</ele><time>2026-04-04T13:03:16.391Z</time></trkpt><trkpt lat="44.1319218" lon="9.7079573"><ele>454.0</ele><time>2026-04-04T13:03:17.391Z</time></trkpt><trkpt lat="44.1320367" lon="9.7077677"><ele>446.6666666666667</ele><time>2026-04-04T13:03:18.374Z</time></trkpt><trkpt lat="44.1321375" lon="9.7075727"><ele>439.33333333333337</ele><time>2026-04-04T13:03:19.385Z</time></trkpt><trkpt lat="44.1322103" lon="9.7073364"><ele>432.0</ele><time>2026-04-04T13:03:20.381Z</time></trkpt><trkpt lat="44.1322311" lon="9.7070975"><ele>426.5</ele><time>2026-04-04T13:03:21.375Z</time></trkpt><trkpt lat="44.1322541" lon="9.7068848"><ele>421.0</ele><time>2026-04-04T13:03:22.389Z</time></trkpt><trkpt lat="44.132304" lon="9.7066882"><ele>415.5</ele><time>2026-04-04T13:03:23.38Z</time></trkpt><trkpt lat="44.1323636" lon="9.706505"><ele>410.0</ele><time>2026-04-04T13:03:24.381Z</time></trkpt><trkpt lat="44.132413" lon="9.7063738"><ele>422.75</ele><time>2026-04-04T13:03:25.38Z</time></trkpt><trkpt lat="44.1324847" lon="9.7063112"><ele>435.5</ele><time>2026-04-04T13:03:26.374Z</time></trkpt><trkpt lat="44.1325777" lon="9.7063389"><ele>448.25</ele><time>2026-04-04T13:03:27.384Z</time></trkpt><trkpt lat="44.1326833" lon="9.7064273"><ele>461.0</ele><time>2026-04-04T13:03:28.383Z</time></trkpt><trkpt lat="44.132793" lon="9.7065739"><ele>461.0</ele><time>2026-04-04T13:03:29.379Z</time></trkpt><trkpt lat="44.1328991" lon="9.7067546"><ele>461.0</ele><time>2026-04-04T13:03:30.385Z</time></trkpt><trkpt lat="44.1329842" lon="9.7068959"><ele>461.0</ele><time>2026-04-04T13:03:31.38Z</time></trkpt><trkpt lat="44.1330571" lon="9.7069784"><ele>461.0</ele><time>2026-04-04T13:03:32.372Z</time></trkpt><trkpt lat="44.1331232" lon="9.7070082"><ele>465.0</ele><time>2026-04-04T13:03:33.371Z</time></trkpt><trkpt lat="44.1332004" lon="9.7070027"><ele>469.0</ele><time>2026-04-04T13:03:34.365Z</time></trkpt><trkpt lat="44.1332929" lon="9.7069878"><ele>473.0</ele><time>2026-04-04T13:03:35.376Z</time></trkpt><trkpt lat="44.1333912" lon="9.7069913"><ele>477.0</ele><time>2026-04-04T13:03:36.374Z</time></trkpt><trkpt lat="44.1334935" lon="9.7070199"><ele>481.0</ele><time>2026-04-04T13:03:37.386Z</time></trkpt><trkpt lat="44.1335831" lon="9.7070828"><ele>481.0</ele><time>2026-04-04T13:03:38.379Z</time></trkpt><trkpt lat="44.1336576" lon="9.7071765"><ele>481.0</ele><time>2026-04-04T13:03:39.384Z</time></trkpt><trkpt lat="44.1336997" lon="9.7072863"><ele>481.0</ele><time>2026-04-04T13:03:40.388Z</time></trkpt><trkpt lat="44.1337027" lon="9.7074013"><ele>481.0</ele><time>2026-04-04T13:03:41.388Z</time></trkpt><trkpt lat="44.1336953" lon="9.7075373"><ele>481.0</ele><time>2026-04-04T13:03:42.383Z</time></trkpt><trkpt lat="44.1336828" lon="9.7076952"><ele>487.25</ele><time>2026-04-04T13:03:43.386Z</time></trkpt><trkpt lat="44.1336808" lon="9.7078625"><ele>493.5</ele><time>2026-04-04T13:03:44.364Z</time></trkpt><trkpt lat="44.1337169" lon="9.7080211"><ele>499.75</ele><time>2026-04-04T13:03:45.374Z</time></trkpt><trkpt lat="44.1337924" lon="9.7081604"><ele>506.0</ele><time>2026-04-04T13:03:46.377Z</time></trkpt><trkpt lat="44.1338616" lon="9.7083079"><ele>505.99999999999994</ele><time>2026-04-04T13:03:47.375Z</time></trkpt><trkpt lat="44.1339148" lon="9.7084461"><ele>506.0</ele><time>2026-04-04T13:03:48.381Z</time></trkpt><trkpt lat="44.1339777" lon="9.7085483"><ele>506.0</ele><time>2026-04-04T13:03:49.364Z</time></trkpt><trkpt lat="44.1340524" lon="9.7085968"><ele>506.0</ele><time>2026-04-04T13:03:50.376Z</time></trkpt><trkpt lat="44.1341346" lon="9.7086261"><ele>505.99999999999994</ele><time>2026-04-04T13:03:51.38Z</time></trkpt><trkpt lat="44.1342019" lon="9.7086561"><ele>506.0</ele><time>2026-04-04T13:03:52.387Z</time></trkpt><trkpt lat="44.1342718" lon="9.7087114"><ele>503.16666666666663</ele><time>2026-04-04T13:03:54.38Z</time></trkpt><trkpt lat="44.1343206" lon="9.7088062"><ele>500.3333333333333</ele><time>2026-04-04T13:03:57.373Z</time></trkpt><trkpt lat="44.1343498" lon="9.7089072"><ele>497.5</ele><time>2026-04-04T13:04:00.381Z</time></trkpt><trkpt lat="44.1343814" lon="9.7089849"><ele>494.66666666666663</ele><time>2026-04-04T13:04:03.369Z</time></trkpt><trkpt lat="44.1344382" lon="9.7090603"><ele>491.8333333333333</ele><time>2026-04-04T13:04:07.372Z</time></trkpt><trkpt lat="44.1344957" lon="9.7091062"><ele>489.0</ele><time>2026-04-04T13:04:10.38Z</time></trkpt><trkpt lat="44.1346075" lon="9.7091542"><ele>489.0</ele><time>2026-04-04T13:04:12.381Z</time></trkpt><trkpt lat="44.1346983" lon="9.7091811"><ele>489.0</ele><time>2026-04-04T13:04:13.36Z</time></trkpt><trkpt lat="44.1348109" lon="9.7092128"><ele>489.0</ele><time>2026-04-04T13:04:14.364Z</time></trkpt><trkpt lat="44.1349353" lon="9.7092633"><ele>489.0</ele><time>2026-04-04T13:04:15.363Z</time></trkpt><trkpt lat="44.1351103" lon="9.7092756"><ele>481.33333333333337</ele><time>2026-04-04T13:04:16.365Z</time></trkpt><trkpt lat="44.1353024" lon="9.7092588"><ele>473.6666666666667</ele><time>2026-04-04T13:04:17.371Z</time></trkpt><trkpt lat="44.1354744" lon="9.7092739"><ele>466.0</ele><time>2026-04-04T13:04:18.369Z</time></trkpt><trkpt lat="44.1356334" lon="9.7093186"><ele>477.6666666666667</ele><time>2026-04-04T13:04:19.376Z</time></trkpt><trkpt lat="44.1357991" lon="9.7094219"><ele>489.33333333333337</ele><time>2026-04-04T13:04:20.373Z</time></trkpt><trkpt lat="44.1359511" lon="9.7095187"><ele>501.0</ele><time>2026-04-04T13:04:21.378Z</time></trkpt><trkpt lat="44.1360929" lon="9.7095757"><ele>501.0</ele><time>2026-04-04T13:04:22.377Z</time></trkpt><trkpt lat="44.1362144" lon="9.7095871"><ele>501.0</ele><time>2026-04-04T13:04:23.378Z</time></trkpt><trkpt lat="44.1363323" lon="9.7095331"><ele>501.0</ele><time>2026-04-04T13:04:24.381Z</time></trkpt><trkpt lat="44.1364345" lon="9.7094059"><ele>501.0</ele><time>2026-04-04T13:04:25.381Z</time></trkpt><trkpt lat="44.1364935" lon="9.7092265"><ele>489.0</ele><time>2026-04-04T13:04:26.38Z</time></trkpt><trkpt lat="44.1364854" lon="9.7090216"><ele>477.0</ele><time>2026-04-04T13:04:27.375Z</time></trkpt><trkpt lat="44.1364414" lon="9.708795"><ele>465.0</ele><time>2026-04-04T13:04:28.365Z</time></trkpt><trkpt lat="44.1363941" lon="9.7085314"><ele>465.75</ele><time>2026-04-04T13:04:29.368Z</time></trkpt><trkpt lat="44.1363628" lon="9.7083111"><ele>466.5</ele><time>2026-04-04T13:04:30.372Z</time></trkpt><trkpt lat="44.1363776" lon="9.7081273"><ele>467.25</ele><time>2026-04-04T13:04:31.394Z</time></trkpt><trkpt lat="44.1364503" lon="9.7080073"><ele>468.0</ele><time>2026-04-04T13:04:32.39Z</time></trkpt><trkpt lat="44.1365604" lon="9.7079217"><ele>468.0</ele><time>2026-04-04T13:04:33.375Z</time></trkpt><trkpt lat="44.1366951" lon="9.707911"><ele>468.0</ele><time>2026-04-04T13:04:34.374Z</time></trkpt><trkpt lat="44.1368124" lon="9.7079898"><ele>468.0</ele><time>2026-04-04T13:04:35.383Z</time></trkpt><trkpt lat="44.1369525" lon="9.7081033"><ele>468.0</ele><time>2026-04-04T13:04:36.386Z</time></trkpt><trkpt lat="44.1371329" lon="9.7082388"><ele>468.0</ele><time>2026-04-04T13:04:37.375Z</time></trkpt><trkpt lat="44.1373352" lon="9.7083356"><ele>468.0</ele><time>2026-04-04T13:04:38.372Z</time></trkpt><trkpt lat="44.137524" lon="9.7084085"><ele>468.0</ele><time>2026-04-04T13:04:39.365Z</time></trkpt><trkpt lat="44.1376882" lon="9.7084853"><ele>469.75</ele><time>2026-04-04T13:04:40.367Z</time></trkpt><trkpt lat="44.1378291" lon="9.70854"><ele>471.5</ele><time>2026-04-04T13:04:41.381Z</time></trkpt><trkpt lat="44.1379432" lon="9.7085223"><ele>473.25</ele><time>2026-04-04T13:04:42.373Z</time></trkpt><trkpt lat="44.1380325" lon="9.7084162"><ele>475.0</ele><time>2026-04-04T13:04:43.372Z</time></trkpt><trkpt lat="44.138062" lon="9.7082543"><ele>475.0</ele><time>2026-04-04T13:04:44.357Z</time></trkpt><trkpt lat="44.1380747" lon="9.7080568"><ele>475.0</ele><time>2026-04-04T13:04:45.369Z</time></trkpt><trkpt lat="44.1380661" lon="9.7077679"><ele>475.0</ele><time>2026-04-04T13:04:46.367Z</time></trkpt><trkpt lat="44.1380516" lon="9.7074157"><ele>465.0</ele><time>2026-04-04T13:04:47.371Z</time></trkpt><trkpt lat="44.1380055" lon="9.7070182"><ele>455.0</ele><time>2026-04-04T13:04:48.354Z</time></trkpt><trkpt lat="44.1379869" lon="9.7066814"><ele>443.0</ele><time>2026-04-04T13:04:49.464Z</time></trkpt><trkpt lat="44.1380003" lon="9.706412"><ele>431.0</ele><time>2026-04-04T13:04:50.528Z</time></trkpt><trkpt lat="44.1380783" lon="9.7060457"><ele>425.75</ele><time>2026-04-04T13:04:52.383Z</time></trkpt><trkpt lat="44.1381521" lon="9.7059282"><ele>420.5</ele><time>2026-04-04T13:04:53.39Z</time></trkpt><trkpt lat="44.1382797" lon="9.7058677"><ele>415.25</ele><time>2026-04-04T13:04:54.38Z</time></trkpt><trkpt lat="44.1384368" lon="9.7058091"><ele>410.0</ele><time>2026-04-04T13:04:55.377Z</time></trkpt><trkpt lat="44.1386018" lon="9.7057007"><ele>428.66666666666663</ele><time>2026-04-04T13:04:56.379Z</time></trkpt><trkpt lat="44.138759" lon="9.7055591"><ele>447.33333333333337</ele><time>2026-04-04T13:04:57.377Z</time></trkpt><trkpt lat="44.1388819" lon="9.7054389"><ele>466.0</ele><time>2026-04-04T13:04:58.377Z</time></trkpt><trkpt lat="44.1389999" lon="9.7053576"><ele>472.0</ele><time>2026-04-04T13:04:59.386Z</time></trkpt><trkpt lat="44.1391201" lon="9.705343"><ele>478.0</ele><time>2026-04-04T13:05:00.377Z</time></trkpt><trkpt lat="44.1392165" lon="9.7054199"><ele>484.0</ele><time>2026-04-04T13:05:01.379Z</time></trkpt><trkpt lat="44.1393106" lon="9.7055205"><ele>490.0</ele><time>2026-04-04T13:05:02.371Z</time></trkpt><trkpt lat="44.1393965" lon="9.7056131"><ele>490.0</ele><time>2026-04-04T13:05:03.378Z</time></trkpt><trkpt lat="44.1394768" lon="9.7056976"><ele>490.0</ele><time>2026-04-04T13:05:04.362Z</time></trkpt><trkpt lat="44.139565" lon="9.7057574"><ele>490.0</ele><time>2026-04-04T13:05:05.375Z</time></trkpt><trkpt lat="44.1396495" lon="9.7058246"><ele>490.0</ele><time>2026-04-04T13:05:06.375Z</time></trkpt><trkpt lat="44.1397294" lon="9.7058953"><ele>490.0</ele><time>2026-04-04T13:05:07.37Z</time></trkpt><trkpt lat="44.1398057" lon="9.7059621"><ele>490.00000000000006</ele><time>2026-04-04T13:05:08.368Z</time></trkpt><trkpt lat="44.1398796" lon="9.7060254"><ele>490.0</ele><time>2026-04-04T13:05:09.372Z</time></trkpt><trkpt lat="44.139946" lon="9.7060781"><ele>490.0</ele><time>2026-04-04T13:05:10.367Z</time></trkpt><trkpt lat="44.1400049" lon="9.7061316"><ele>490.0</ele><time>2026-04-04T13:05:11.377Z</time></trkpt><trkpt lat="44.1400556" lon="9.7061984"><ele>490.00000000000006</ele><time>2026-04-04T13:05:12.367Z</time></trkpt><trkpt lat="44.1401051" lon="9.7062823"><ele>490.0</ele><time>2026-04-04T13:05:13.375Z</time></trkpt><trkpt lat="44.1401565" lon="9.7063896"><ele>490.83333333333337</ele><time>2026-04-04T13:05:14.366Z</time></trkpt><trkpt lat="44.1402089" lon="9.706497"><ele>491.6666666666667</ele><time>2026-04-04T13:05:15.367Z</time></trkpt><trkpt lat="44.1402577" lon="9.7065929"><ele>492.5</ele><time>2026-04-04T13:05:16.369Z</time></trkpt><trkpt lat="44.1403057" lon="9.706674"><ele>493.33333333333337</ele><time>2026-04-04T13:05:17.372Z</time></trkpt><trkpt lat="44.1403663" lon="9.7067441"><ele>494.1666666666667</ele><time>2026-04-04T13:05:18.375Z</time></trkpt><trkpt lat="44.1404495" lon="9.7067807"><ele>495.0</ele><time>2026-04-04T13:05:19.374Z</time></trkpt><trkpt lat="44.1405492" lon="9.7067779"><ele>495.0</ele><time>2026-04-04T13:05:20.369Z</time></trkpt><trkpt lat="44.1406497" lon="9.7067587"><ele>495.0</ele><time>2026-04-04T13:05:21.356Z</time></trkpt><trkpt lat="44.140753" lon="9.7067434"><ele>495.0</ele><time>2026-04-04T13:05:22.374Z</time></trkpt><trkpt lat="44.1408546" lon="9.7067423"><ele>495.0</ele><time>2026-04-04T13:05:23.364Z</time></trkpt><trkpt lat="44.1409544" lon="9.7067677"><ele>495.0</ele><time>2026-04-04T13:05:24.369Z</time></trkpt><trkpt lat="44.1410596" lon="9.7068071"><ele>497.8</ele><time>2026-04-04T13:05:25.372Z</time></trkpt><trkpt lat="44.1411611" lon="9.7068477"><ele>500.6</ele><time>2026-04-04T13:05:26.37Z</time></trkpt><trkpt lat="44.1412579" lon="9.7069015"><ele>503.4</ele><time>2026-04-04T13:05:27.372Z</time></trkpt><trkpt lat="44.1413482" lon="9.7069614"><ele>506.2</ele><time>2026-04-04T13:05:28.376Z</time></trkpt><trkpt lat="44.1414368" lon="9.7070208"><ele>509.0</ele><time>2026-04-04T13:05:29.368Z</time></trkpt><trkpt lat="44.1415202" lon="9.7070781"><ele>503.99999999999994</ele><time>2026-04-04T13:05:30.379Z</time></trkpt><trkpt lat="44.1416013" lon="9.7071449"><ele>499.0</ele><time>2026-04-04T13:05:31.376Z</time></trkpt><trkpt lat="44.1416763" lon="9.7072098"><ele>494.0</ele><time>2026-04-04T13:05:32.367Z</time></trkpt><trkpt lat="44.1417465" lon="9.7072829"><ele>489.0</ele><time>2026-04-04T13:05:33.373Z</time></trkpt><trkpt lat="44.1418132" lon="9.7073692"><ele>483.99999999999994</ele><time>2026-04-04T13:05:34.39Z</time></trkpt><trkpt lat="44.141872" lon="9.7074575"><ele>479.0</ele><time>2026-04-04T13:05:35.37Z</time></trkpt><trkpt lat="44.1419258" lon="9.7075613"><ele>479.0</ele><time>2026-04-04T13:05:36.368Z</time></trkpt><trkpt lat="44.1419643" lon="9.7076712"><ele>479.0</ele><time>2026-04-04T13:05:37.376Z</time></trkpt><trkpt lat="44.1419821" lon="9.7077898"><ele>479.0</ele><time>2026-04-04T13:05:38.371Z</time></trkpt><trkpt lat="44.1419903" lon="9.7079164"><ele>479.0</ele><time>2026-04-04T13:05:39.373Z</time></trkpt><trkpt lat="44.1419889" lon="9.7080558"><ele>479.0</ele><time>2026-04-04T13:05:40.377Z</time></trkpt><trkpt lat="44.141984" lon="9.7082012"><ele>481.79999999999995</ele><time>2026-04-04T13:05:41.377Z</time></trkpt><trkpt lat="44.1419775" lon="9.7083471"><ele>484.59999999999997</ele><time>2026-04-04T13:05:42.377Z</time></trkpt><trkpt lat="44.1419634" lon="9.7084842"><ele>487.4</ele><time>2026-04-04T13:05:43.376Z</time></trkpt><trkpt lat="44.1419436" lon="9.7086205"><ele>490.2</ele><time>2026-04-04T13:05:44.377Z</time></trkpt><trkpt lat="44.1419214" lon="9.7087669"><ele>493.0</ele><time>2026-04-04T13:05:45.376Z</time></trkpt><trkpt lat="44.1419026" lon="9.7089163"><ele>493.0</ele><time>2026-04-04T13:05:46.371Z</time></trkpt><trkpt lat="44.1418936" lon="9.7090612"><ele>492.99999999999994</ele><time>2026-04-04T13:05:47.371Z</time></trkpt><trkpt lat="44.1419046" lon="9.7092042"><ele>492.99999999999994</ele><time>2026-04-04T13:05:48.373Z</time></trkpt><trkpt lat="44.1419191" lon="9.709324"><ele>493.0</ele><time>2026-04-04T13:05:49.368Z</time></trkpt><trkpt lat="44.1419315" lon="9.7094427"><ele>493.0</ele><time>2026-04-04T13:05:50.368Z</time></trkpt><trkpt lat="44.1419379" lon="9.7095692"><ele>493.00000000000006</ele><time>2026-04-04T13:05:51.376Z</time></trkpt><trkpt lat="44.1419388" lon="9.7096961"><ele>493.0</ele><time>2026-04-04T13:05:52.373Z</time></trkpt><trkpt lat="44.1419405" lon="9.7098213"><ele>493.0</ele><time>2026-04-04T13:05:53.371Z</time></trkpt><trkpt lat="44.1419425" lon="9.7099382"><ele>493.0</ele><time>2026-04-04T13:05:54.363Z</time></trkpt><trkpt lat="44.1419382" lon="9.7100449"><ele>493.00000000000006</ele><time>2026-04-04T13:05:55.371Z</time></trkpt><trkpt lat="44.1419344" lon="9.7101428"><ele>493.0</ele><time>2026-04-04T13:05:56.362Z</time></trkpt><trkpt lat="44.1419226" lon="9.7102796"><ele>493.4</ele><time>2026-04-04T13:05:58.36Z</time></trkpt><trkpt lat="44.1418944" lon="9.7103926"><ele>493.79999999999995</ele><time>2026-04-04T13:06:00.365Z</time></trkpt><trkpt lat="44.1418601" lon="9.7105261"><ele>494.2</ele><time>2026-04-04T13:06:02.346Z</time></trkpt><trkpt lat="44.1418479" lon="9.7106695"><ele>494.6</ele><time>2026-04-04T13:06:04.361Z</time></trkpt><trkpt lat="44.1418647" lon="9.710797"><ele>495.0</ele><time>2026-04-04T13:06:06.365Z</time></trkpt><trkpt lat="44.1418905" lon="9.7108822"><ele>495.0</ele><time>2026-04-04T13:06:07.36Z</time></trkpt><trkpt lat="44.1419256" lon="9.7109805"><ele>495.0</ele><time>2026-04-04T13:06:08.369Z</time></trkpt><trkpt lat="44.1419681" lon="9.7110809"><ele>495.0</ele><time>2026-04-04T13:06:09.352Z</time></trkpt><trkpt lat="44.1420269" lon="9.711185"><ele>495.0</ele><time>2026-04-04T13:06:10.363Z</time></trkpt><trkpt lat="44.1421034" lon="9.7112812"><ele>495.0</ele><time>2026-04-04T13:06:11.369Z</time></trkpt><trkpt lat="44.1422" lon="9.7113513"><ele>494.5</ele><time>2026-04-04T13:06:12.369Z</time></trkpt><trkpt lat="44.142315" lon="9.711373"><ele>494.0</ele><time>2026-04-04T13:06:13.371Z</time></trkpt><trkpt lat="44.1424372" lon="9.711343"><ele>493.5</ele><time>2026-04-04T13:06:14.369Z</time></trkpt><trkpt lat="44.1425665" lon="9.7112918"><ele>493.0</ele><time>2026-04-04T13:06:15.37Z</time></trkpt><trkpt lat="44.1426924" lon="9.7112171"><ele>493.0</ele><time>2026-04-04T13:06:16.375Z</time></trkpt><trkpt lat="44.1428086" lon="9.7111343"><ele>493.0</ele><time>2026-04-04T13:06:17.379Z</time></trkpt><trkpt lat="44.1429195" lon="9.7110334"><ele>493.0</ele><time>2026-04-04T13:06:18.381Z</time></trkpt><trkpt lat="44.1430275" lon="9.7109128"><ele>493.0</ele><time>2026-04-04T13:06:19.374Z</time></trkpt><trkpt lat="44.1431275" lon="9.7107759"><ele>487.5</ele><time>2026-04-04T13:06:20.356Z</time></trkpt><trkpt lat="44.1432125" lon="9.7106334"><ele>482.0</ele><time>2026-04-04T13:06:21.372Z</time></trkpt><trkpt lat="44.1432895" lon="9.7105035"><ele>476.5</ele><time>2026-04-04T13:06:22.372Z</time></trkpt><trkpt lat="44.143366" lon="9.7103937"><ele>471.0</ele><time>2026-04-04T13:06:23.375Z</time></trkpt><trkpt lat="44.1434464" lon="9.7103233"><ele>471.0</ele><time>2026-04-04T13:06:24.384Z</time></trkpt><trkpt lat="44.1435357" lon="9.7103143"><ele>471.0</ele><time>2026-04-04T13:06:25.382Z</time></trkpt><trkpt lat="44.1436217" lon="9.710372"><ele>471.0</ele><time>2026-04-04T13:06:26.388Z</time></trkpt><trkpt lat="44.143685" lon="9.7104879"><ele>471.0</ele><time>2026-04-04T13:06:27.383Z</time></trkpt><trkpt lat="44.1437223" lon="9.7106346"><ele>471.0</ele><time>2026-04-04T13:06:28.371Z</time></trkpt><trkpt lat="44.143763" lon="9.7108111"><ele>471.0</ele><time>2026-04-04T13:06:29.381Z</time></trkpt><trkpt lat="44.1438089" lon="9.7110048"><ele>471.0</ele><time>2026-04-04T13:06:30.373Z</time></trkpt><trkpt lat="44.1438681" lon="9.7112088"><ele>471.0</ele><time>2026-04-04T13:06:31.362Z</time></trkpt><trkpt lat="44.1439232" lon="9.7114498"><ele>474.0</ele><time>2026-04-04T13:06:32.374Z</time></trkpt><trkpt lat="44.1439785" lon="9.7116652"><ele>477.0</ele><time>2026-04-04T13:06:33.37Z</time></trkpt><trkpt lat="44.1440166" lon="9.7118465"><ele>480.0</ele><time>2026-04-04T13:06:34.371Z</time></trkpt><trkpt lat="44.1440689" lon="9.7120132"><ele>483.0</ele><time>2026-04-04T13:06:35.37Z</time></trkpt><trkpt lat="44.1441372" lon="9.7121575"><ele>483.0</ele><time>2026-04-04T13:06:36.39Z</time></trkpt><trkpt lat="44.144218" lon="9.7122588"><ele>483.0</ele><time>2026-04-04T13:06:37.391Z</time></trkpt><trkpt lat="44.1443264" lon="9.7122951"><ele>483.0</ele><time>2026-04-04T13:06:38.373Z</time></trkpt><trkpt lat="44.1444423" lon="9.7122744"><ele>483.0</ele><time>2026-04-04T13:06:39.376Z</time></trkpt><trkpt lat="44.1445565" lon="9.7122058"><ele>483.0</ele><time>2026-04-04T13:06:40.381Z</time></trkpt><trkpt lat="44.1446605" lon="9.712072"><ele>483.0</ele><time>2026-04-04T13:06:41.379Z</time></trkpt><trkpt lat="44.1447447" lon="9.7118914"><ele>483.0</ele><time>2026-04-04T13:06:42.373Z</time></trkpt><trkpt lat="44.1448099" lon="9.7116925"><ele>477.75</ele><time>2026-04-04T13:06:43.379Z</time></trkpt><trkpt lat="44.1448584" lon="9.7114991"><ele>472.5</ele><time>2026-04-04T13:06:44.381Z</time></trkpt><trkpt lat="44.1448969" lon="9.7113465"><ele>467.25</ele><time>2026-04-04T13:06:45.377Z</time></trkpt><trkpt lat="44.1449601" lon="9.7112318"><ele>462.0</ele><time>2026-04-04T13:06:46.377Z</time></trkpt><trkpt lat="44.1450396" lon="9.7111681"><ele>461.8</ele><time>2026-04-04T13:06:47.38Z</time></trkpt><trkpt lat="44.1451339" lon="9.7111686"><ele>461.6</ele><time>2026-04-04T13:06:48.376Z</time></trkpt><trkpt lat="44.1452214" lon="9.7112306"><ele>461.40000000000003</ele><time>2026-04-04T13:06:49.388Z</time></trkpt><trkpt lat="44.1452942" lon="9.711305"><ele>461.20000000000005</ele><time>2026-04-04T13:06:50.376Z</time></trkpt><trkpt lat="44.1453666" lon="9.7113819"><ele>461.0</ele><time>2026-04-04T13:06:51.374Z</time></trkpt><trkpt lat="44.1454415" lon="9.7114694"><ele>460.99999999999994</ele><time>2026-04-04T13:06:52.375Z</time></trkpt><trkpt lat="44.1455121" lon="9.7115524"><ele>461.0</ele><time>2026-04-04T13:06:53.377Z</time></trkpt><trkpt lat="44.1455831" lon="9.7116068"><ele>461.0</ele><time>2026-04-04T13:06:54.402Z</time></trkpt><trkpt lat="44.1456546" lon="9.7116436"><ele>461.0</ele><time>2026-04-04T13:06:55.377Z</time></trkpt><trkpt lat="44.1457327" lon="9.7116587"><ele>460.99999999999994</ele><time>2026-04-04T13:06:56.38Z</time></trkpt><trkpt lat="44.1458217" lon="9.7116348"><ele>461.0</ele><time>2026-04-04T13:06:57.391Z</time></trkpt><trkpt lat="44.145911" lon="9.7115496"><ele>460.25</ele><time>2026-04-04T13:06:58.386Z</time></trkpt><trkpt lat="44.1459766" lon="9.711398"><ele>459.5</ele><time>2026-04-04T13:06:59.381Z</time></trkpt><trkpt lat="44.1460072" lon="9.7112053"><ele>458.75</ele><time>2026-04-04T13:07:00.372Z</time></trkpt><trkpt lat="44.1460194" lon="9.7109942"><ele>458.0</ele><time>2026-04-04T13:07:01.382Z</time></trkpt><trkpt lat="44.1460189" lon="9.7107279"><ele>458.0</ele><time>2026-04-04T13:07:02.373Z</time></trkpt><trkpt lat="44.14602" lon="9.7104574"><ele>458.0</ele><time>2026-04-04T13:07:03.366Z</time></trkpt><trkpt lat="44.1460181" lon="9.7101766"><ele>458.0</ele><time>2026-04-04T13:07:04.374Z</time></trkpt><trkpt lat="44.1459978" lon="9.7099312"><ele>457.0</ele><time>2026-04-04T13:07:05.365Z</time></trkpt><trkpt lat="44.1459601" lon="9.7097064"><ele>456.0</ele><time>2026-04-04T13:07:06.376Z</time></trkpt><trkpt lat="44.1459245" lon="9.7095049"><ele>455.0</ele><time>2026-04-04T13:07:07.373Z</time></trkpt><trkpt lat="44.1458928" lon="9.7093153"><ele>455.0</ele><time>2026-04-04T13:07:08.375Z</time></trkpt><trkpt lat="44.1458408" lon="9.7091319"><ele>455.0</ele><time>2026-04-04T13:07:09.369Z</time></trkpt><trkpt lat="44.1457772" lon="9.7089739"><ele>455.0</ele><time>2026-04-04T13:07:10.382Z</time></trkpt><trkpt lat="44.1457345" lon="9.7088332"><ele>455.0</ele><time>2026-04-04T13:07:11.382Z</time></trkpt><trkpt lat="44.1457288" lon="9.7087105"><ele>455.0</ele><time>2026-04-04T13:07:12.378Z</time></trkpt><trkpt lat="44.1457563" lon="9.7085846"><ele>455.0</ele><time>2026-04-04T13:07:13.382Z</time></trkpt><trkpt lat="44.1457954" lon="9.7084573"><ele>455.0</ele><time>2026-04-04T13:07:14.385Z</time></trkpt><trkpt lat="44.1458445" lon="9.7083239"><ele>455.0</ele><time>2026-04-04T13:07:15.377Z</time></trkpt><trkpt lat="44.1458901" lon="9.7081798"><ele>455.0</ele><time>2026-04-04T13:07:16.382Z</time></trkpt><trkpt lat="44.1459195" lon="9.7080278"><ele>455.4</ele><time>2026-04-04T13:07:17.379Z</time></trkpt><trkpt lat="44.1459278" lon="9.7078789"><ele>455.8</ele><time>2026-04-04T13:07:18.378Z</time></trkpt><trkpt lat="44.1459214" lon="9.7077399"><ele>456.20000000000005</ele><time>2026-04-04T13:07:19.388Z</time></trkpt><trkpt lat="44.1459348" lon="9.7076162"><ele>456.6</ele><time>2026-04-04T13:07:20.378Z</time></trkpt><trkpt lat="44.1459634" lon="9.7075109"><ele>457.0</ele><time>2026-04-04T13:07:21.368Z</time></trkpt><trkpt lat="44.1460241" lon="9.7074395"><ele>453.40000000000003</ele><time>2026-04-04T13:07:22.383Z</time></trkpt><trkpt lat="44.1461043" lon="9.7074055"><ele>449.80000000000007</ele><time>2026-04-04T13:07:23.379Z</time></trkpt><trkpt lat="44.1461971" lon="9.7074037"><ele>446.2</ele><time>2026-04-04T13:07:24.372Z</time></trkpt><trkpt lat="44.1462942" lon="9.7074329"><ele>442.6</ele><time>2026-04-04T13:07:25.378Z</time></trkpt><trkpt lat="44.1463957" lon="9.707487"><ele>439.0</ele><time>2026-04-04T13:07:26.381Z</time></trkpt><trkpt lat="44.1465103" lon="9.7075442"><ele>440.75</ele><time>2026-04-04T13:07:27.376Z</time></trkpt><trkpt lat="44.1466342" lon="9.7075989"><ele>442.5</ele><time>2026-04-04T13:07:28.387Z</time></trkpt><trkpt lat="44.1467635" lon="9.7076648"><ele>444.25</ele><time>2026-04-04T13:07:29.373Z</time></trkpt><trkpt lat="44.1468892" lon="9.7077435"><ele>446.0</ele><time>2026-04-04T13:07:30.398Z</time></trkpt><trkpt lat="44.1470024" lon="9.7078362"><ele>453.4</ele><time>2026-04-04T13:07:31.375Z</time></trkpt><trkpt lat="44.1471053" lon="9.7079159"><ele>460.8</ele><time>2026-04-04T13:07:32.376Z</time></trkpt><trkpt lat="44.1472057" lon="9.7079717"><ele>468.19999999999993</ele><time>2026-04-04T13:07:33.366Z</time></trkpt><trkpt lat="44.1473109" lon="9.7079843"><ele>475.59999999999997</ele><time>2026-04-04T13:07:34.371Z</time></trkpt><trkpt lat="44.1474239" lon="9.7079652"><ele>483.0</ele><time>2026-04-04T13:07:35.37Z</time></trkpt><trkpt lat="44.1475318" lon="9.7079241"><ele>483.0</ele><time>2026-04-04T13:07:36.369Z</time></trkpt><trkpt lat="44.1476357" lon="9.7078944"><ele>482.99999999999994</ele><time>2026-04-04T13:07:37.375Z</time></trkpt><trkpt lat="44.1477283" lon="9.7078866"><ele>482.99999999999994</ele><time>2026-04-04T13:07:38.374Z</time></trkpt><trkpt lat="44.1478181" lon="9.7079121"><ele>483.0</ele><time>2026-04-04T13:07:39.373Z</time></trkpt><trkpt lat="44.1479003" lon="9.7079694"><ele>483.0</ele><time>2026-04-04T13:07:40.373Z</time></trkpt><trkpt lat="44.1480004" lon="9.7080399"><ele>483.0</ele><time>2026-04-04T13:07:41.379Z</time></trkpt><trkpt lat="44.1481061" lon="9.7081136"><ele>483.0</ele><time>2026-04-04T13:07:42.374Z</time></trkpt><trkpt lat="44.1482123" lon="9.7081824"><ele>483.0</ele><time>2026-04-04T13:07:43.368Z</time></trkpt><trkpt lat="44.148313" lon="9.7082466"><ele>483.0</ele><time>2026-04-04T13:07:44.379Z</time></trkpt><trkpt lat="44.1484113" lon="9.7083029"><ele>479.25</ele><time>2026-04-04T13:07:45.382Z</time></trkpt><trkpt lat="44.1485082" lon="9.7083156"><ele>475.5</ele><time>2026-04-04T13:07:46.389Z</time></trkpt><trkpt lat="44.148613" lon="9.7082631"><ele>471.75</ele><time>2026-04-04T13:07:47.39Z</time></trkpt><trkpt lat="44.1487201" lon="9.7081554"><ele>468.0</ele><time>2026-04-04T13:07:48.389Z</time></trkpt><trkpt lat="44.1488371" lon="9.7079773"><ele>464.66666666666663</ele><time>2026-04-04T13:07:49.386Z</time></trkpt><trkpt lat="44.1489751" lon="9.7077248"><ele>461.3333333333333</ele><time>2026-04-04T13:07:50.376Z</time></trkpt><trkpt lat="44.1491023" lon="9.707537"><ele>458.0</ele><time>2026-04-04T13:07:51.386Z</time></trkpt><trkpt lat="44.1491938" lon="9.7073898"><ele>458.0</ele><time>2026-04-04T13:07:52.39Z</time></trkpt><trkpt lat="44.1492416" lon="9.7072248"><ele>458.0</ele><time>2026-04-04T13:07:53.39Z</time></trkpt><trkpt lat="44.1492408" lon="9.7070425"><ele>458.0</ele><time>2026-04-04T13:07:54.383Z</time></trkpt><trkpt lat="44.1491971" lon="9.7068675"><ele>458.0</ele><time>2026-04-04T13:07:55.373Z</time></trkpt><trkpt lat="44.1491683" lon="9.7066957"><ele>456.5</ele><time>2026-04-04T13:07:56.381Z</time></trkpt><trkpt lat="44.1491802" lon="9.7065367"><ele>455.0</ele><time>2026-04-04T13:07:57.391Z</time></trkpt><trkpt lat="44.1492267" lon="9.7064161"><ele>453.5</ele><time>2026-04-04T13:07:58.381Z</time></trkpt><trkpt lat="44.1493178" lon="9.7063282"><ele>452.0</ele><time>2026-04-04T13:07:59.392Z</time></trkpt><trkpt lat="44.1494594" lon="9.7062759"><ele>452.0</ele><time>2026-04-04T13:08:00.372Z</time></trkpt><trkpt lat="44.14962" lon="9.7062255"><ele>452.0</ele><time>2026-04-04T13:08:01.38Z</time></trkpt><trkpt lat="44.1497511" lon="9.706139"><ele>452.0</ele><time>2026-04-04T13:08:02.378Z</time></trkpt><trkpt lat="44.1498042" lon="9.7060083"><ele>452.0</ele><time>2026-04-04T13:08:03.374Z</time></trkpt><trkpt lat="44.1498122" lon="9.7058468"><ele>448.0</ele><time>2026-04-04T13:08:04.382Z</time></trkpt><trkpt lat="44.1497637" lon="9.7056817"><ele>444.0</ele><time>2026-04-04T13:08:05.383Z</time></trkpt><trkpt lat="44.1496701" lon="9.7055412"><ele>440.0</ele><time>2026-04-04T13:08:06.385Z</time></trkpt><trkpt lat="44.1495198" lon="9.7053317"><ele>446.3333333333333</ele><time>2026-04-04T13:08:07.383Z</time></trkpt><trkpt lat="44.1493565" lon="9.705109"><ele>452.66666666666663</ele><time>2026-04-04T13:08:08.393Z</time></trkpt><trkpt lat="44.1492246" lon="9.7049281"><ele>459.0</ele><time>2026-04-04T13:08:09.383Z</time></trkpt><trkpt lat="44.1490835" lon="9.7047829"><ele>454.0</ele><time>2026-04-04T13:08:10.378Z</time></trkpt><trkpt lat="44.148892" lon="9.7047028"><ele>449.0</ele><time>2026-04-04T13:08:11.384Z</time></trkpt><trkpt lat="44.1486521" lon="9.7046681"><ele>444.0</ele><time>2026-04-04T13:08:12.38Z</time></trkpt><trkpt lat="44.1484058" lon="9.7046422"><ele>437.0</ele><time>2026-04-04T13:08:13.375Z</time></trkpt><trkpt lat="44.1481736" lon="9.7046466"><ele>430.0</ele><time>2026-04-04T13:08:14.368Z</time></trkpt><trkpt lat="44.1479721" lon="9.7046423"><ele>423.0</ele><time>2026-04-04T13:08:15.375Z</time></trkpt><trkpt lat="44.1478361" lon="9.704614"><ele>423.0</ele><time>2026-04-04T13:08:16.375Z</time></trkpt><trkpt lat="44.1477528" lon="9.7045352"><ele>423.0</ele><time>2026-04-04T13:08:17.397Z</time></trkpt><trkpt lat="44.1477197" lon="9.7043988"><ele>423.0</ele><time>2026-04-04T13:08:18.398Z</time></trkpt><trkpt lat="44.1477279" lon="9.7042467"><ele>423.0</ele><time>2026-04-04T13:08:19.395Z</time></trkpt><trkpt lat="44.147778" lon="9.7040439"><ele>422.0</ele><time>2026-04-04T13:08:20.402Z</time></trkpt><trkpt lat="44.1478649" lon="9.7038029"><ele>421.0</ele><time>2026-04-04T13:08:21.396Z</time></trkpt><trkpt lat="44.1479795" lon="9.7034773"><ele>421.0</ele><time>2026-04-04T13:08:22.418Z</time></trkpt><trkpt lat="44.1480584" lon="9.7031473"><ele>421.0</ele><time>2026-04-04T13:08:23.416Z</time></trkpt><trkpt lat="44.1481088" lon="9.7028795"><ele>421.0</ele><time>2026-04-04T13:08:24.428Z</time></trkpt><trkpt lat="44.1481417" lon="9.7026861"><ele>427.75</ele><time>2026-04-04T13:08:25.408Z</time></trkpt><trkpt lat="44.1481317" lon="9.7025175"><ele>434.5</ele><time>2026-04-04T13:08:26.381Z</time></trkpt><trkpt lat="44.1480723" lon="9.7023873"><ele>441.25</ele><time>2026-04-04T13:08:27.377Z</time></trkpt><trkpt lat="44.1479757" lon="9.7023127"><ele>448.0</ele><time>2026-04-04T13:08:28.399Z</time></trkpt><trkpt lat="44.1478178" lon="9.7022772"><ele>448.0</ele><time>2026-04-04T13:08:29.392Z</time></trkpt><trkpt lat="44.1476031" lon="9.7022187"><ele>448.0</ele><time>2026-04-04T13:08:30.396Z</time></trkpt><trkpt lat="44.1473995" lon="9.7021916"><ele>448.0</ele><time>2026-04-04T13:08:31.378Z</time></trkpt><trkpt lat="44.1472385" lon="9.7021455"><ele>442.75</ele><time>2026-04-04T13:08:32.368Z</time></trkpt><trkpt lat="44.147107" lon="9.702058"><ele>437.5</ele><time>2026-04-04T13:08:33.372Z</time></trkpt><trkpt lat="44.1470081" lon="9.7019068"><ele>432.25</ele><time>2026-04-04T13:08:34.379Z</time></trkpt><trkpt lat="44.1469239" lon="9.7017239"><ele>427.0</ele><time>2026-04-04T13:08:35.387Z</time></trkpt><trkpt lat="44.1468718" lon="9.7015492"><ele>427.0</ele><time>2026-04-04T13:08:36.395Z</time></trkpt><trkpt lat="44.1468819" lon="9.7013963"><ele>427.0</ele><time>2026-04-04T13:08:37.393Z</time></trkpt><trkpt lat="44.1469537" lon="9.7012408"><ele>427.0</ele><time>2026-04-04T13:08:38.403Z</time></trkpt><trkpt lat="44.1470635" lon="9.7010418"><ele>427.0</ele><time>2026-04-04T13:08:39.406Z</time></trkpt><trkpt lat="44.147188" lon="9.7008056"><ele>422.0</ele><time>2026-04-04T13:08:40.392Z</time></trkpt><trkpt lat="44.1473263" lon="9.7004966"><ele>417.0</ele><time>2026-04-04T13:08:41.388Z</time></trkpt><trkpt lat="44.1474819" lon="9.7001411"><ele>431.5</ele><time>2026-04-04T13:08:42.377Z</time></trkpt><trkpt lat="44.1476002" lon="9.699824"><ele>446.0</ele><time>2026-04-04T13:08:43.379Z</time></trkpt><trkpt lat="44.1477076" lon="9.6995942"><ele>446.0</ele><time>2026-04-04T13:08:44.383Z</time></trkpt><trkpt lat="44.1478325" lon="9.6994242"><ele>446.0</ele><time>2026-04-04T13:08:45.38Z</time></trkpt><trkpt lat="44.1479649" lon="9.6992594"><ele>446.0</ele><time>2026-04-04T13:08:46.378Z</time></trkpt><trkpt lat="44.1480875" lon="9.699114"><ele>451.75</ele><time>2026-04-04T13:08:47.375Z</time></trkpt><trkpt lat="44.1482178" lon="9.699028"><ele>457.5</ele><time>2026-04-04T13:08:48.378Z</time></trkpt><trkpt lat="44.148347" lon="9.6989756"><ele>463.25</ele><time>2026-04-04T13:08:49.371Z</time></trkpt><trkpt lat="44.1484706" lon="9.6989149"><ele>469.0</ele><time>2026-04-04T13:08:50.379Z</time></trkpt><trkpt lat="44.1485533" lon="9.6988216"><ele>469.0</ele><time>2026-04-04T13:08:51.375Z</time></trkpt><trkpt lat="44.1485707" lon="9.6986814"><ele>469.0</ele><time>2026-04-04T13:08:52.37Z</time></trkpt><trkpt lat="44.1485775" lon="9.6984913"><ele>469.0</ele><time>2026-04-04T13:08:53.378Z</time></trkpt><trkpt lat="44.1486381" lon="9.6982887"><ele>469.0</ele><time>2026-04-04T13:08:54.374Z</time></trkpt><trkpt lat="44.148706" lon="9.6981093"><ele>469.25</ele><time>2026-04-04T13:08:55.373Z</time></trkpt><trkpt lat="44.1487943" lon="9.6979947"><ele>469.5</ele><time>2026-04-04T13:08:56.371Z</time></trkpt><trkpt lat="44.1488982" lon="9.6979349"><ele>469.75</ele><time>2026-04-04T13:08:57.38Z</time></trkpt><trkpt lat="44.1490034" lon="9.6978408"><ele>470.0</ele><time>2026-04-04T13:08:58.367Z</time></trkpt><trkpt lat="44.1490826" lon="9.6977338"><ele>470.0</ele><time>2026-04-04T13:08:59.376Z</time></trkpt><trkpt lat="44.1491153" lon="9.6975985"><ele>470.0</ele><time>2026-04-04T13:09:00.378Z</time></trkpt><trkpt lat="44.1490856" lon="9.6974636"><ele>470.0</ele><time>2026-04-04T13:09:01.403Z</time></trkpt><trkpt lat="44.1490301" lon="9.6973105"><ele>470.0</ele><time>2026-04-04T13:09:02.39Z</time></trkpt><trkpt lat="44.1489609" lon="9.697122"><ele>466.25</ele><time>2026-04-04T13:09:03.388Z</time></trkpt><trkpt lat="44.1488859" lon="9.6969193"><ele>462.5</ele><time>2026-04-04T13:09:04.395Z</time></trkpt><trkpt lat="44.1488348" lon="9.6967193"><ele>458.75</ele><time>2026-04-04T13:09:05.393Z</time></trkpt><trkpt lat="44.1487617" lon="9.6965789"><ele>455.0</ele><time>2026-04-04T13:09:06.39Z</time></trkpt><trkpt lat="44.1486389" lon="9.6965265"><ele>455.0</ele><time>2026-04-04T13:09:07.383Z</time></trkpt><trkpt lat="44.1484793" lon="9.6964989"><ele>455.0</ele><time>2026-04-04T13:09:08.384Z</time></trkpt><trkpt lat="44.1482851" lon="9.6965462"><ele>455.0</ele><time>2026-04-04T13:09:09.384Z</time></trkpt><trkpt lat="44.1480896" lon="9.696658"><ele>450.3333333333333</ele><time>2026-04-04T13:09:10.397Z</time></trkpt><trkpt lat="44.1479172" lon="9.6967663"><ele>445.66666666666663</ele><time>2026-04-04T13:09:11.391Z</time></trkpt><trkpt lat="44.1477707" lon="9.6968439"><ele>441.0</ele><time>2026-04-04T13:09:12.404Z</time></trkpt><trkpt lat="44.1476421" lon="9.696847"><ele>441.0</ele><time>2026-04-04T13:09:13.403Z</time></trkpt><trkpt lat="44.1475694" lon="9.6967705"><ele>441.0</ele><time>2026-04-04T13:09:14.403Z</time></trkpt><trkpt lat="44.147513" lon="9.6966111"><ele>441.0</ele><time>2026-04-04T13:09:15.4Z</time></trkpt><trkpt lat="44.1474501" lon="9.6963552"><ele>441.0</ele><time>2026-04-04T13:09:16.403Z</time></trkpt><trkpt lat="44.1474061" lon="9.6961082"><ele>442.0</ele><time>2026-04-04T13:09:17.402Z</time></trkpt><trkpt lat="44.1474083" lon="9.6959199"><ele>443.0</ele><time>2026-04-04T13:09:18.4Z</time></trkpt><trkpt lat="44.1474374" lon="9.6957637"><ele>444.0</ele><time>2026-04-04T13:09:19.395Z</time></trkpt><trkpt lat="44.1475234" lon="9.6956091"><ele>445.0</ele><time>2026-04-04T13:09:20.409Z</time></trkpt><trkpt lat="44.1476693" lon="9.6954826"><ele>445.0</ele><time>2026-04-04T13:09:21.399Z</time></trkpt><trkpt lat="44.1477908" lon="9.6953651"><ele>445.0</ele><time>2026-04-04T13:09:22.398Z</time></trkpt><trkpt lat="44.1478979" lon="9.6952772"><ele>445.0</ele><time>2026-04-04T13:09:23.392Z</time></trkpt><trkpt lat="44.1480083" lon="9.6951983"><ele>445.0</ele><time>2026-04-04T13:09:24.392Z</time></trkpt><trkpt lat="44.1481047" lon="9.6951558"><ele>445.57142857142856</ele><time>2026-04-04T13:09:25.391Z</time></trkpt><trkpt lat="44.1481842" lon="9.6951626"><ele>446.1428571428571</ele><time>2026-04-04T13:09:26.388Z</time></trkpt><trkpt lat="44.1482561" lon="9.6951683"><ele>446.71428571428567</ele><time>2026-04-04T13:09:27.388Z</time></trkpt><trkpt lat="44.1483293" lon="9.6951675"><ele>447.2857142857143</ele><time>2026-04-04T13:09:28.391Z</time></trkpt><trkpt lat="44.148396" lon="9.6951468"><ele>447.8571428571428</ele><time>2026-04-04T13:09:29.381Z</time></trkpt><trkpt lat="44.1484552" lon="9.6950905"><ele>448.4285714285714</ele><time>2026-04-04T13:09:30.392Z</time></trkpt><trkpt lat="44.148505" lon="9.6950089"><ele>449.0</ele><time>2026-04-04T13:09:31.392Z</time></trkpt><trkpt lat="44.1485531" lon="9.6949152"><ele>449.0</ele><time>2026-04-04T13:09:32.38Z</time></trkpt><trkpt lat="44.1485844" lon="9.6947982"><ele>449.0</ele><time>2026-04-04T13:09:33.389Z</time></trkpt><trkpt lat="44.1485987" lon="9.6946674"><ele>449.0</ele><time>2026-04-04T13:09:34.386Z</time></trkpt><trkpt lat="44.1486023" lon="9.6945396"><ele>449.0</ele><time>2026-04-04T13:09:35.387Z</time></trkpt><trkpt lat="44.1486115" lon="9.6944195"><ele>449.0</ele><time>2026-04-04T13:09:36.401Z</time></trkpt><trkpt lat="44.1486423" lon="9.6943035"><ele>445.99999999999994</ele><time>2026-04-04T13:09:37.396Z</time></trkpt><trkpt lat="44.148686" lon="9.6941918"><ele>443.0</ele><time>2026-04-04T13:09:38.393Z</time></trkpt><trkpt lat="44.1487375" lon="9.6941032"><ele>440.0</ele><time>2026-04-04T13:09:39.396Z</time></trkpt><trkpt lat="44.1487889" lon="9.6940238"><ele>437.0</ele><time>2026-04-04T13:09:40.391Z</time></trkpt><trkpt lat="44.1488364" lon="9.6939441"><ele>433.99999999999994</ele><time>2026-04-04T13:09:41.406Z</time></trkpt><trkpt lat="44.1488797" lon="9.693863"><ele>431.0</ele><time>2026-04-04T13:09:42.392Z</time></trkpt><trkpt lat="44.1489144" lon="9.6937779"><ele>431.0</ele><time>2026-04-04T13:09:43.388Z</time></trkpt><trkpt lat="44.1489403" lon="9.6936894"><ele>431.0</ele><time>2026-04-04T13:09:44.387Z</time></trkpt><trkpt lat="44.1489493" lon="9.6936001"><ele>431.0</ele><time>2026-04-04T13:09:45.373Z</time></trkpt><trkpt lat="44.1489125" lon="9.6934135"><ele>431.0</ele><time>2026-04-04T13:09:47.399Z</time></trkpt><trkpt lat="44.1488401" lon="9.6933198"><ele>431.0</ele><time>2026-04-04T13:09:48.368Z</time></trkpt><trkpt lat="44.1487482" lon="9.6932464"><ele>431.66666666666663</ele><time>2026-04-04T13:09:49.372Z</time></trkpt><trkpt lat="44.1486528" lon="9.693176"><ele>432.3333333333333</ele><time>2026-04-04T13:09:50.381Z</time></trkpt><trkpt lat="44.1485666" lon="9.6931189"><ele>433.0</ele><time>2026-04-04T13:09:51.379Z</time></trkpt><trkpt lat="44.1484978" lon="9.6930594"><ele>433.66666666666663</ele><time>2026-04-04T13:09:52.397Z</time></trkpt><trkpt lat="44.1484636" lon="9.6929656"><ele>434.3333333333333</ele><time>2026-04-04T13:09:53.382Z</time></trkpt><trkpt lat="44.1484458" lon="9.6928616"><ele>435.0</ele><time>2026-04-04T13:09:54.387Z</time></trkpt><trkpt lat="44.1484449" lon="9.6927591"><ele>437.8571428571429</ele><time>2026-04-04T13:09:55.388Z</time></trkpt><trkpt lat="44.1484545" lon="9.6926587"><ele>440.7142857142857</ele><time>2026-04-04T13:09:56.382Z</time></trkpt><trkpt lat="44.1484617" lon="9.6925701"><ele>443.57142857142856</ele><time>2026-04-04T13:09:57.384Z</time></trkpt><trkpt lat="44.1484507" lon="9.6924748"><ele>446.42857142857144</ele><time>2026-04-04T13:09:58.385Z</time></trkpt><trkpt lat="44.1484287" lon="9.6923849"><ele>449.2857142857143</ele><time>2026-04-04T13:09:59.392Z</time></trkpt><trkpt lat="44.1483934" lon="9.6923056"><ele>452.14285714285717</ele><time>2026-04-04T13:10:00.389Z</time></trkpt><trkpt lat="44.1483468" lon="9.692231"><ele>455.0</ele><time>2026-04-04T13:10:01.374Z</time></trkpt><trkpt lat="44.1482878" lon="9.6921693"><ele>455.0</ele><time>2026-04-04T13:10:02.381Z</time></trkpt><trkpt lat="44.1482227" lon="9.6921163"><ele>455.0</ele><time>2026-04-04T13:10:03.368Z</time></trkpt><trkpt lat="44.148159" lon="9.6920653"><ele>455.0</ele><time>2026-04-04T13:10:04.371Z</time></trkpt><trkpt lat="44.148092" lon="9.6920143"><ele>455.0</ele><time>2026-04-04T13:10:05.374Z</time></trkpt><trkpt lat="44.1480212" lon="9.6919711"><ele>455.0</ele><time>2026-04-04T13:10:06.38Z</time></trkpt><trkpt lat="44.1479543" lon="9.6919255"><ele>455.0</ele><time>2026-04-04T13:10:07.387Z</time></trkpt><trkpt lat="44.14791" lon="9.6918611"><ele>455.0</ele><time>2026-04-04T13:10:08.392Z</time></trkpt><trkpt lat="44.1478952" lon="9.6917708"><ele>449.2</ele><time>2026-04-04T13:10:09.399Z</time></trkpt><trkpt lat="44.147919" lon="9.6916612"><ele>443.4</ele><time>2026-04-04T13:10:10.404Z</time></trkpt><trkpt lat="44.147976" lon="9.6915602"><ele>437.6</ele><time>2026-04-04T13:10:11.398Z</time></trkpt><trkpt lat="44.1480435" lon="9.6914651"><ele>431.8</ele><time>2026-04-04T13:10:12.407Z</time></trkpt><trkpt lat="44.1481159" lon="9.691373"><ele>426.0</ele><time>2026-04-04T13:10:13.396Z</time></trkpt><trkpt lat="44.1481812" lon="9.6912947"><ele>431.71428571428567</ele><time>2026-04-04T13:10:14.392Z</time></trkpt><trkpt lat="44.1482356" lon="9.6912121"><ele>437.42857142857144</ele><time>2026-04-04T13:10:15.392Z</time></trkpt><trkpt lat="44.1482763" lon="9.6911342"><ele>443.1428571428571</ele><time>2026-04-04T13:10:16.389Z</time></trkpt><trkpt lat="44.1483031" lon="9.6910433"><ele>448.85714285714283</ele><time>2026-04-04T13:10:17.383Z</time></trkpt><trkpt lat="44.1483136" lon="9.6909465"><ele>454.57142857142856</ele><time>2026-04-04T13:10:18.372Z</time></trkpt><trkpt lat="44.1482954" lon="9.6908474"><ele>460.2857142857143</ele><time>2026-04-04T13:10:19.404Z</time></trkpt><trkpt lat="44.1482612" lon="9.6907565"><ele>466.0</ele><time>2026-04-04T13:10:20.379Z</time></trkpt><trkpt lat="44.1482147" lon="9.6906612"><ele>456.0</ele><time>2026-04-04T13:10:21.38Z</time></trkpt><trkpt lat="44.1481702" lon="9.6905493"><ele>446.0</ele><time>2026-04-04T13:10:22.383Z</time></trkpt><trkpt lat="44.1481367" lon="9.6904254"><ele>436.0</ele><time>2026-04-04T13:10:23.385Z</time></trkpt><trkpt lat="44.1481199" lon="9.6902917"><ele>426.0</ele><time>2026-04-04T13:10:24.385Z</time></trkpt><trkpt lat="44.1481041" lon="9.6901535"><ele>416.0</ele><time>2026-04-04T13:10:25.387Z</time></trkpt><trkpt lat="44.1480907" lon="9.6900113"><ele>415.99999999999994</ele><time>2026-04-04T13:10:26.39Z</time></trkpt><trkpt lat="44.1480804" lon="9.6898685"><ele>416.0</ele><time>2026-04-04T13:10:27.394Z</time></trkpt><trkpt lat="44.1480757" lon="9.6897338"><ele>416.0</ele><time>2026-04-04T13:10:28.408Z</time></trkpt><trkpt lat="44.1480922" lon="9.6896095"><ele>416.0</ele><time>2026-04-04T13:10:29.4Z</time></trkpt><trkpt lat="44.1481271" lon="9.6895127"><ele>415.99999999999994</ele><time>2026-04-04T13:10:30.399Z</time></trkpt><trkpt lat="44.1481915" lon="9.6894675"><ele>416.0</ele><time>2026-04-04T13:10:31.393Z</time></trkpt><trkpt lat="44.1482978" lon="9.6894664"><ele>427.25</ele><time>2026-04-04T13:10:32.382Z</time></trkpt><trkpt lat="44.148431" lon="9.6894636"><ele>438.5</ele><time>2026-04-04T13:10:33.382Z</time></trkpt><trkpt lat="44.1485759" lon="9.689481"><ele>449.75</ele><time>2026-04-04T13:10:34.378Z</time></trkpt><trkpt lat="44.1487253" lon="9.6895079"><ele>461.0</ele><time>2026-04-04T13:10:35.369Z</time></trkpt><trkpt lat="44.148863" lon="9.6895366"><ele>461.0</ele><time>2026-04-04T13:10:36.373Z</time></trkpt><trkpt lat="44.1489491" lon="9.6895255"><ele>461.0</ele><time>2026-04-04T13:10:37.368Z</time></trkpt><trkpt lat="44.1490175" lon="9.689464"><ele>461.0</ele><time>2026-04-04T13:10:38.377Z</time></trkpt><trkpt lat="44.1490562" lon="9.6893531"><ele>461.0</ele><time>2026-04-04T13:10:39.374Z</time></trkpt><trkpt lat="44.149067" lon="9.6891945"><ele>461.0</ele><time>2026-04-04T13:10:40.374Z</time></trkpt><trkpt lat="44.149044" lon="9.6890104"><ele>461.25</ele><time>2026-04-04T13:10:41.374Z</time></trkpt><trkpt lat="44.1490022" lon="9.6888397"><ele>461.5</ele><time>2026-04-04T13:10:42.383Z</time></trkpt><trkpt lat="44.1489992" lon="9.6886768"><ele>461.75</ele><time>2026-04-04T13:10:43.407Z</time></trkpt><trkpt lat="44.1490552" lon="9.6885332"><ele>462.0</ele><time>2026-04-04T13:10:44.386Z</time></trkpt><trkpt lat="44.1491431" lon="9.6884146"><ele>462.0</ele><time>2026-04-04T13:10:45.391Z</time></trkpt><trkpt lat="44.1492543" lon="9.6883018"><ele>462.0</ele><time>2026-04-04T13:10:46.391Z</time></trkpt><trkpt lat="44.1493628" lon="9.6881915"><ele>462.0</ele><time>2026-04-04T13:10:47.394Z</time></trkpt><trkpt lat="44.1494528" lon="9.6880849"><ele>462.0</ele><time>2026-04-04T13:10:48.397Z</time></trkpt><trkpt lat="44.1495133" lon="9.6879539"><ele>462.0</ele><time>2026-04-04T13:10:49.397Z</time></trkpt><trkpt lat="44.1495286" lon="9.6878048"><ele>462.0</ele><time>2026-04-04T13:10:50.386Z</time></trkpt><trkpt lat="44.1494983" lon="9.6876521"><ele>462.0</ele><time>2026-04-04T13:10:51.388Z</time></trkpt><trkpt lat="44.149425" lon="9.6875435"><ele>462.0</ele><time>2026-04-04T13:10:52.385Z</time></trkpt><trkpt lat="44.1493083" lon="9.6874548"><ele>465.0</ele><time>2026-04-04T13:10:53.391Z</time></trkpt><trkpt lat="44.1491752" lon="9.6873578"><ele>468.0</ele><time>2026-04-04T13:10:54.389Z</time></trkpt><trkpt lat="44.1490534" lon="9.6872298"><ele>471.0</ele><time>2026-04-04T13:10:55.389Z</time></trkpt><trkpt lat="44.148953" lon="9.6870934"><ele>474.0</ele><time>2026-04-04T13:10:56.378Z</time></trkpt><trkpt lat="44.1488809" lon="9.6869636"><ele>476.2</ele><time>2026-04-04T13:10:57.39Z</time></trkpt><trkpt lat="44.1488437" lon="9.6868543"><ele>478.4</ele><time>2026-04-04T13:10:58.399Z</time></trkpt><trkpt lat="44.148828" lon="9.6867619"><ele>480.6</ele><time>2026-04-04T13:10:59.398Z</time></trkpt><trkpt lat="44.1488704" lon="9.6866003"><ele>482.8</ele><time>2026-04-04T13:11:01.401Z</time></trkpt><trkpt lat="44.1489554" lon="9.6865237"><ele>485.0</ele><time>2026-04-04T13:11:02.396Z</time></trkpt><trkpt lat="44.1490496" lon="9.6864347"><ele>485.0</ele><time>2026-04-04T13:11:03.393Z</time></trkpt><trkpt lat="44.1491287" lon="9.6863185"><ele>485.0</ele><time>2026-04-04T13:11:04.4Z</time></trkpt><trkpt lat="44.1491549" lon="9.6861577"><ele>485.0</ele><time>2026-04-04T13:11:05.396Z</time></trkpt><trkpt lat="44.1491506" lon="9.6859362"><ele>485.0</ele><time>2026-04-04T13:11:06.39Z</time></trkpt><trkpt lat="44.1491263" lon="9.6857054"><ele>485.66666666666663</ele><time>2026-04-04T13:11:07.398Z</time></trkpt><trkpt lat="44.149058" lon="9.6855035"><ele>486.33333333333337</ele><time>2026-04-04T13:11:08.398Z</time></trkpt><trkpt lat="44.1489429" lon="9.685343"><ele>487.0</ele><time>2026-04-04T13:11:09.396Z</time></trkpt><trkpt lat="44.1487824" lon="9.6852364"><ele>487.0</ele><time>2026-04-04T13:11:10.398Z</time></trkpt><trkpt lat="44.1486213" lon="9.6850973"><ele>487.0</ele><time>2026-04-04T13:11:11.396Z</time></trkpt><trkpt lat="44.148493" lon="9.6849845"><ele>487.0</ele><time>2026-04-04T13:11:12.405Z</time></trkpt><trkpt lat="44.1483934" lon="9.6849004"><ele>487.0</ele><time>2026-04-04T13:11:13.383Z</time></trkpt><trkpt lat="44.1482772" lon="9.684914"><ele>487.0</ele><time>2026-04-04T13:11:14.413Z</time></trkpt><trkpt lat="44.1481966" lon="9.6849891"><ele>487.0</ele><time>2026-04-04T13:11:15.39Z</time></trkpt><trkpt lat="44.1481097" lon="9.6851261"><ele>487.0</ele><time>2026-04-04T13:11:16.381Z</time></trkpt><trkpt lat="44.1479999" lon="9.6852455"><ele>487.25</ele><time>2026-04-04T13:11:17.377Z</time></trkpt><trkpt lat="44.1478764" lon="9.6852574"><ele>487.5</ele><time>2026-04-04T13:11:18.377Z</time></trkpt><trkpt lat="44.1477423" lon="9.6852259"><ele>487.75</ele><time>2026-04-04T13:11:19.383Z</time></trkpt><trkpt lat="44.1476153" lon="9.6851707"><ele>488.0</ele><time>2026-04-04T13:11:20.385Z</time></trkpt><trkpt lat="44.1474965" lon="9.6850861"><ele>488.0</ele><time>2026-04-04T13:11:21.383Z</time></trkpt><trkpt lat="44.1473912" lon="9.6850025"><ele>488.0</ele><time>2026-04-04T13:11:22.388Z</time></trkpt><trkpt lat="44.147282" lon="9.6849727"><ele>488.0</ele><time>2026-04-04T13:11:23.385Z</time></trkpt><trkpt lat="44.147155" lon="9.6849776"><ele>488.0</ele><time>2026-04-04T13:11:24.381Z</time></trkpt><trkpt lat="44.1470106" lon="9.6849901"><ele>483.25</ele><time>2026-04-04T13:11:25.38Z</time></trkpt><trkpt lat="44.1468799" lon="9.6849484"><ele>478.5</ele><time>2026-04-04T13:11:26.376Z</time></trkpt><trkpt lat="44.1467726" lon="9.6848492"><ele>473.75</ele><time>2026-04-04T13:11:27.396Z</time></trkpt><trkpt lat="44.1466917" lon="9.6846901"><ele>469.0</ele><time>2026-04-04T13:11:28.395Z</time></trkpt><trkpt lat="44.1466291" lon="9.6845229"><ele>472.5</ele><time>2026-04-04T13:11:29.392Z</time></trkpt><trkpt lat="44.1465449" lon="9.6843969"><ele>476.0</ele><time>2026-04-04T13:11:30.406Z</time></trkpt><trkpt lat="44.14643" lon="9.6843027"><ele>479.5</ele><time>2026-04-04T13:11:31.394Z</time></trkpt><trkpt lat="44.1462592" lon="9.6842296"><ele>483.0</ele><time>2026-04-04T13:11:32.387Z</time></trkpt><trkpt lat="44.1460372" lon="9.6841755"><ele>483.0</ele><time>2026-04-04T13:11:33.373Z</time></trkpt><trkpt lat="44.1458485" lon="9.6841366"><ele>483.0</ele><time>2026-04-04T13:11:34.381Z</time></trkpt><trkpt lat="44.1456742" lon="9.6841031"><ele>483.0</ele><time>2026-04-04T13:11:35.376Z</time></trkpt><trkpt lat="44.1455174" lon="9.6840664"><ele>476.66666666666663</ele><time>2026-04-04T13:11:36.379Z</time></trkpt><trkpt lat="44.1453638" lon="9.6840014"><ele>470.3333333333333</ele><time>2026-04-04T13:11:37.372Z</time></trkpt><trkpt lat="44.1452203" lon="9.6838857"><ele>464.0</ele><time>2026-04-04T13:11:38.376Z</time></trkpt><trkpt lat="44.1450751" lon="9.6837113"><ele>465.66666666666663</ele><time>2026-04-04T13:11:39.375Z</time></trkpt><trkpt lat="44.1449196" lon="9.6835713"><ele>467.33333333333337</ele><time>2026-04-04T13:11:40.383Z</time></trkpt><trkpt lat="44.1447679" lon="9.6834672"><ele>469.0</ele><time>2026-04-04T13:11:41.379Z</time></trkpt><trkpt lat="44.1446152" lon="9.6834118"><ele>469.0</ele><time>2026-04-04T13:11:42.383Z</time></trkpt><trkpt lat="44.1445004" lon="9.6833291"><ele>469.0</ele><time>2026-04-04T13:11:43.385Z</time></trkpt><trkpt lat="44.1444346" lon="9.683207"><ele>469.0</ele><time>2026-04-04T13:11:44.387Z</time></trkpt><trkpt lat="44.1443864" lon="9.6830127"><ele>469.0</ele><time>2026-04-04T13:11:45.39Z</time></trkpt><trkpt lat="44.1443415" lon="9.6828"><ele>471.75</ele><time>2026-04-04T13:11:46.393Z</time></trkpt><trkpt lat="44.1442963" lon="9.6826047"><ele>474.5</ele><time>2026-04-04T13:11:47.412Z</time></trkpt><trkpt lat="44.1442485" lon="9.6824299"><ele>477.25</ele><time>2026-04-04T13:11:48.398Z</time></trkpt><trkpt lat="44.1442265" lon="9.6822743"><ele>480.0</ele><time>2026-04-04T13:11:49.412Z</time></trkpt><trkpt lat="44.1442456" lon="9.6821205"><ele>480.0</ele><time>2026-04-04T13:11:50.404Z</time></trkpt><trkpt lat="44.1443103" lon="9.6820122"><ele>480.0</ele><time>2026-04-04T13:11:51.392Z</time></trkpt><trkpt lat="44.1444221" lon="9.681933"><ele>480.0</ele><time>2026-04-04T13:11:52.403Z</time></trkpt><trkpt lat="44.1445866" lon="9.6818845"><ele>480.0</ele><time>2026-04-04T13:11:53.395Z</time></trkpt><trkpt lat="44.1447633" lon="9.6818344"><ele>481.0</ele><time>2026-04-04T13:11:54.392Z</time></trkpt><trkpt lat="44.1449542" lon="9.6818044"><ele>482.0</ele><time>2026-04-04T13:11:55.378Z</time></trkpt><trkpt lat="44.1451444" lon="9.6818203"><ele>483.0</ele><time>2026-04-04T13:11:56.384Z</time></trkpt><trkpt lat="44.1453106" lon="9.6818226"><ele>483.0</ele><time>2026-04-04T13:11:57.375Z</time></trkpt><trkpt lat="44.1454524" lon="9.6817932"><ele>483.0</ele><time>2026-04-04T13:11:58.385Z</time></trkpt><trkpt lat="44.1455748" lon="9.6816767"><ele>483.0</ele><time>2026-04-04T13:11:59.376Z</time></trkpt><trkpt lat="44.1457242" lon="9.6815223"><ele>492.66666666666663</ele><time>2026-04-04T13:12:00.375Z</time></trkpt><trkpt lat="44.1458806" lon="9.6813827"><ele>502.3333333333333</ele><time>2026-04-04T13:12:01.378Z</time></trkpt><trkpt lat="44.146018" lon="9.6812925"><ele>512.0</ele><time>2026-04-04T13:12:02.376Z</time></trkpt><trkpt lat="44.1461379" lon="9.6811716"><ele>505.75</ele><time>2026-04-04T13:12:03.38Z</time></trkpt><trkpt lat="44.1462301" lon="9.6810298"><ele>499.5</ele><time>2026-04-04T13:12:04.37Z</time></trkpt><trkpt lat="44.1462857" lon="9.6808525"><ele>493.25</ele><time>2026-04-04T13:12:05.378Z</time></trkpt><trkpt lat="44.1462897" lon="9.6806286"><ele>487.0</ele><time>2026-04-04T13:12:06.365Z</time></trkpt><trkpt lat="44.1462746" lon="9.6804038"><ele>482.25</ele><time>2026-04-04T13:12:07.365Z</time></trkpt><trkpt lat="44.1462854" lon="9.680213"><ele>477.5</ele><time>2026-04-04T13:12:08.38Z</time></trkpt><trkpt lat="44.1463548" lon="9.6800772"><ele>472.75</ele><time>2026-04-04T13:12:09.385Z</time></trkpt><trkpt lat="44.1464493" lon="9.6799449"><ele>468.0</ele><time>2026-04-04T13:12:10.378Z</time></trkpt><trkpt lat="44.1465171" lon="9.679747"><ele>479.0</ele><time>2026-04-04T13:12:11.387Z</time></trkpt><trkpt lat="44.1466016" lon="9.6795835"><ele>490.0</ele><time>2026-04-04T13:12:12.387Z</time></trkpt><trkpt lat="44.1467025" lon="9.6794763"><ele>501.0</ele><time>2026-04-04T13:12:13.381Z</time></trkpt><trkpt lat="44.1467627" lon="9.6793412"><ele>512.0</ele><time>2026-04-04T13:12:14.38Z</time></trkpt><trkpt lat="44.146792" lon="9.6791653"><ele>512.0</ele><time>2026-04-04T13:12:15.398Z</time></trkpt><trkpt lat="44.1467958" lon="9.6789275"><ele>512.0</ele><time>2026-04-04T13:12:16.374Z</time></trkpt><trkpt lat="44.1467684" lon="9.6786987"><ele>512.0</ele><time>2026-04-04T13:12:17.38Z</time></trkpt><trkpt lat="44.1467782" lon="9.6784808"><ele>509.3333333333333</ele><time>2026-04-04T13:12:18.381Z</time></trkpt><trkpt lat="44.1468249" lon="9.6782706"><ele>506.66666666666663</ele><time>2026-04-04T13:12:19.37Z</time></trkpt><trkpt lat="44.1468657" lon="9.6780438"><ele>504.0</ele><time>2026-04-04T13:12:20.358Z</time></trkpt><trkpt lat="44.1469165" lon="9.6778345"><ele>506.33333333333337</ele><time>2026-04-04T13:12:21.376Z</time></trkpt><trkpt lat="44.1469426" lon="9.6776397"><ele>508.6666666666667</ele><time>2026-04-04T13:12:22.377Z</time></trkpt><trkpt lat="44.1469223" lon="9.6774295"><ele>511.0</ele><time>2026-04-04T13:12:23.377Z</time></trkpt><trkpt lat="44.1468414" lon="9.6772156"><ele>511.0</ele><time>2026-04-04T13:12:24.386Z</time></trkpt><trkpt lat="44.1467286" lon="9.6770265"><ele>511.0</ele><time>2026-04-04T13:12:25.385Z</time></trkpt><trkpt lat="44.1466447" lon="9.6768732"><ele>511.0</ele><time>2026-04-04T13:12:26.396Z</time></trkpt><trkpt lat="44.1465932" lon="9.6767616"><ele>511.0</ele><time>2026-04-04T13:12:27.382Z</time></trkpt><trkpt lat="44.146572" lon="9.6766281"><ele>514.5</ele><time>2026-04-04T13:12:28.391Z</time></trkpt><trkpt lat="44.1465901" lon="9.6764776"><ele>518.0</ele><time>2026-04-04T13:12:29.388Z</time></trkpt><trkpt lat="44.1466436" lon="9.6763213"><ele>521.5</ele><time>2026-04-04T13:12:30.408Z</time></trkpt><trkpt lat="44.1467283" lon="9.6762077"><ele>525.0</ele><time>2026-04-04T13:12:31.385Z</time></trkpt><trkpt lat="44.1468062" lon="9.6761197"><ele>523.6</ele><time>2026-04-04T13:12:32.387Z</time></trkpt><trkpt lat="44.1468808" lon="9.6760437"><ele>522.2</ele><time>2026-04-04T13:12:33.392Z</time></trkpt><trkpt lat="44.1469639" lon="9.6759908"><ele>520.8</ele><time>2026-04-04T13:12:34.388Z</time></trkpt><trkpt lat="44.1470723" lon="9.6759784"><ele>519.4</ele><time>2026-04-04T13:12:35.383Z</time></trkpt><trkpt lat="44.1472197" lon="9.6760099"><ele>518.0</ele><time>2026-04-04T13:12:36.379Z</time></trkpt><trkpt lat="44.1473892" lon="9.6760838"><ele>534.5</ele><time>2026-04-04T13:12:37.383Z</time></trkpt><trkpt lat="44.1475797" lon="9.6762003"><ele>551.0</ele><time>2026-04-04T13:12:38.387Z</time></trkpt><trkpt lat="44.1478039" lon="9.6763649"><ele>551.0</ele><time>2026-04-04T13:12:39.399Z</time></trkpt><trkpt lat="44.1479933" lon="9.676508"><ele>551.0</ele><time>2026-04-04T13:12:40.396Z</time></trkpt><trkpt lat="44.1481484" lon="9.6766319"><ele>551.0</ele><time>2026-04-04T13:12:41.381Z</time></trkpt><trkpt lat="44.1483115" lon="9.6767731"><ele>546.6666666666666</ele><time>2026-04-04T13:12:42.376Z</time></trkpt><trkpt lat="44.1484698" lon="9.6769173"><ele>542.3333333333334</ele><time>2026-04-04T13:12:43.379Z</time></trkpt><trkpt lat="44.1486271" lon="9.6770832"><ele>538.0</ele><time>2026-04-04T13:12:44.372Z</time></trkpt><trkpt lat="44.1487738" lon="9.6772503"><ele>542.3333333333334</ele><time>2026-04-04T13:12:45.407Z</time></trkpt><trkpt lat="44.148898" lon="9.6773958"><ele>546.6666666666666</ele><time>2026-04-04T13:12:46.409Z</time></trkpt><trkpt lat="44.1490183" lon="9.6775264"><ele>551.0</ele><time>2026-04-04T13:12:47.404Z</time></trkpt><trkpt lat="44.1491323" lon="9.6776503"><ele>551.0</ele><time>2026-04-04T13:12:48.397Z</time></trkpt><trkpt lat="44.1492331" lon="9.6777619"><ele>551.0</ele><time>2026-04-04T13:12:49.409Z</time></trkpt><trkpt lat="44.1493309" lon="9.6778592"><ele>551.0</ele><time>2026-04-04T13:12:50.383Z</time></trkpt><trkpt lat="44.1494201" lon="9.6779056"><ele>551.0</ele><time>2026-04-04T13:12:51.39Z</time></trkpt><trkpt lat="44.1495043" lon="9.6778763"><ele>551.0</ele><time>2026-04-04T13:12:52.395Z</time></trkpt><trkpt lat="44.1495693" lon="9.6777718"><ele>551.0</ele><time>2026-04-04T13:12:53.386Z</time></trkpt><trkpt lat="44.149628" lon="9.6776178"><ele>551.0</ele><time>2026-04-04T13:12:54.377Z</time></trkpt><trkpt lat="44.1496937" lon="9.6774354"><ele>551.0</ele><time>2026-04-04T13:12:55.397Z</time></trkpt><trkpt lat="44.1497515" lon="9.6772278"><ele>551.0</ele><time>2026-04-04T13:12:56.401Z</time></trkpt><trkpt lat="44.1497913" lon="9.6770309"><ele>545.0</ele><time>2026-04-04T13:12:57.379Z</time></trkpt><trkpt lat="44.1497861" lon="9.6768527"><ele>539.0</ele><time>2026-04-04T13:12:58.38Z</time></trkpt><trkpt lat="44.1497411" lon="9.6766844"><ele>533.0</ele><time>2026-04-04T13:12:59.377Z</time></trkpt><trkpt lat="44.149734" lon="9.6764775"><ele>527.0</ele><time>2026-04-04T13:13:00.385Z</time></trkpt><trkpt lat="44.1497529" lon="9.6762869"><ele>527.0</ele><time>2026-04-04T13:13:01.387Z</time></trkpt><trkpt lat="44.1497771" lon="9.6761236"><ele>527.0</ele><time>2026-04-04T13:13:02.383Z</time></trkpt><trkpt lat="44.1497991" lon="9.6759731"><ele>527.0</ele><time>2026-04-04T13:13:03.382Z</time></trkpt><trkpt lat="44.1498351" lon="9.6758306"><ele>527.0</ele><time>2026-04-04T13:13:04.389Z</time></trkpt><trkpt lat="44.1498716" lon="9.6757007"><ele>527.0</ele><time>2026-04-04T13:13:05.385Z</time></trkpt><trkpt lat="44.1499184" lon="9.6755712"><ele>528.4</ele><time>2026-04-04T13:13:06.381Z</time></trkpt><trkpt lat="44.1499722" lon="9.6754455"><ele>529.8000000000001</ele><time>2026-04-04T13:13:07.387Z</time></trkpt><trkpt lat="44.1500286" lon="9.6753112"><ele>531.2</ele><time>2026-04-04T13:13:08.388Z</time></trkpt><trkpt lat="44.1500827" lon="9.675174"><ele>532.6</ele><time>2026-04-04T13:13:09.384Z</time></trkpt><trkpt lat="44.1501307" lon="9.6750472"><ele>534.0</ele><time>2026-04-04T13:13:10.386Z</time></trkpt><trkpt lat="44.1501573" lon="9.6749232"><ele>534.0</ele><time>2026-04-04T13:13:11.381Z</time></trkpt><trkpt lat="44.1501639" lon="9.6748086"><ele>534.0</ele><time>2026-04-04T13:13:12.385Z</time></trkpt><trkpt lat="44.1501615" lon="9.6746871"><ele>534.0</ele><time>2026-04-04T13:13:13.38Z</time></trkpt><trkpt lat="44.1501651" lon="9.6745593"><ele>534.0</ele><time>2026-04-04T13:13:14.394Z</time></trkpt><trkpt lat="44.150178" lon="9.6744334"><ele>534.0</ele><time>2026-04-04T13:13:15.386Z</time></trkpt><trkpt lat="44.1502045" lon="9.6743155"><ele>534.0</ele><time>2026-04-04T13:13:16.39Z</time></trkpt><trkpt lat="44.1502391" lon="9.6742125"><ele>531.6666666666666</ele><time>2026-04-04T13:13:17.403Z</time></trkpt><trkpt lat="44.1502805" lon="9.6741136"><ele>529.3333333333334</ele><time>2026-04-04T13:13:18.384Z</time></trkpt><trkpt lat="44.1503299" lon="9.6740135"><ele>527.0</ele><time>2026-04-04T13:13:19.394Z</time></trkpt><trkpt lat="44.1503865" lon="9.6739172"><ele>524.6666666666667</ele><time>2026-04-04T13:13:20.388Z</time></trkpt><trkpt lat="44.150456" lon="9.6738342"><ele>522.3333333333334</ele><time>2026-04-04T13:13:21.384Z</time></trkpt><trkpt lat="44.1505298" lon="9.673757"><ele>520.0</ele><time>2026-04-04T13:13:22.379Z</time></trkpt><trkpt lat="44.1506085" lon="9.6736904"><ele>520.0</ele><time>2026-04-04T13:13:23.376Z</time></trkpt><trkpt lat="44.1507005" lon="9.6736291"><ele>520.0</ele><time>2026-04-04T13:13:24.387Z</time></trkpt><trkpt lat="44.1507929" lon="9.6735708"><ele>520.0</ele><time>2026-04-04T13:13:25.384Z</time></trkpt><trkpt lat="44.1508899" lon="9.6735092"><ele>520.0</ele><time>2026-04-04T13:13:26.386Z</time></trkpt><trkpt lat="44.150989" lon="9.6734516"><ele>520.0</ele><time>2026-04-04T13:13:27.384Z</time></trkpt><trkpt lat="44.15109" lon="9.673396"><ele>522.0</ele><time>2026-04-04T13:13:28.379Z</time></trkpt><trkpt lat="44.1511863" lon="9.6733457"><ele>524.0</ele><time>2026-04-04T13:13:29.388Z</time></trkpt><trkpt lat="44.1512723" lon="9.6732937"><ele>526.0</ele><time>2026-04-04T13:13:30.392Z</time></trkpt><trkpt lat="44.1513497" lon="9.6732302"><ele>528.0</ele><time>2026-04-04T13:13:31.385Z</time></trkpt><trkpt lat="44.151417" lon="9.6731603"><ele>530.0</ele><time>2026-04-04T13:13:32.383Z</time></trkpt><trkpt lat="44.1514621" lon="9.673074"><ele>532.0</ele><time>2026-04-04T13:13:33.405Z</time></trkpt><trkpt lat="44.1514897" lon="9.6729838"><ele>532.0</ele><time>2026-04-04T13:13:34.38Z</time></trkpt><trkpt lat="44.1515127" lon="9.6728927"><ele>532.0</ele><time>2026-04-04T13:13:35.382Z</time></trkpt><trkpt lat="44.1515242" lon="9.6727968"><ele>532.0</ele><time>2026-04-04T13:13:36.374Z</time></trkpt><trkpt lat="44.1515397" lon="9.6727067"><ele>532.0</ele><time>2026-04-04T13:13:37.382Z</time></trkpt><trkpt lat="44.15156" lon="9.6726197"><ele>532.0</ele><time>2026-04-04T13:13:38.389Z</time></trkpt><trkpt lat="44.1515941" lon="9.6725379"><ele>532.0</ele><time>2026-04-04T13:13:39.383Z</time></trkpt><trkpt lat="44.1516484" lon="9.6724726"><ele>532.0</ele><time>2026-04-04T13:13:40.377Z</time></trkpt><trkpt lat="44.1517217" lon="9.6724267"><ele>533.6</ele><time>2026-04-04T13:13:41.381Z</time></trkpt><trkpt lat="44.1518066" lon="9.6724046"><ele>535.2</ele><time>2026-04-04T13:13:42.381Z</time></trkpt><trkpt lat="44.1519009" lon="9.6723894"><ele>536.8</ele><time>2026-04-04T13:13:43.388Z</time></trkpt><trkpt lat="44.152005" lon="9.6723728"><ele>538.4</ele><time>2026-04-04T13:13:44.381Z</time></trkpt><trkpt lat="44.1521114" lon="9.6723597"><ele>540.0</ele><time>2026-04-04T13:13:45.388Z</time></trkpt><trkpt lat="44.1522197" lon="9.6723394"><ele>540.0</ele><time>2026-04-04T13:13:46.386Z</time></trkpt><trkpt lat="44.1523298" lon="9.6723028"><ele>540.0</ele><time>2026-04-04T13:13:47.392Z</time></trkpt><trkpt lat="44.1524448" lon="9.6722558"><ele>540.0</ele><time>2026-04-04T13:13:48.398Z</time></trkpt><trkpt lat="44.1525685" lon="9.6722133"><ele>540.0</ele><time>2026-04-04T13:13:49.388Z</time></trkpt><trkpt lat="44.1526988" lon="9.6721759"><ele>544.25</ele><time>2026-04-04T13:13:50.385Z</time></trkpt><trkpt lat="44.1528325" lon="9.6721601"><ele>548.5</ele><time>2026-04-04T13:13:51.385Z</time></trkpt><trkpt lat="44.1529573" lon="9.672172"><ele>552.75</ele><time>2026-04-04T13:13:52.387Z</time></trkpt><trkpt lat="44.1530763" lon="9.6722317"><ele>557.0</ele><time>2026-04-04T13:13:53.391Z</time></trkpt><trkpt lat="44.1531953" lon="9.6723298"><ele>556.25</ele><time>2026-04-04T13:13:54.411Z</time></trkpt><trkpt lat="44.1533197" lon="9.6724299"><ele>555.5</ele><time>2026-04-04T13:13:55.416Z</time></trkpt><trkpt lat="44.1534438" lon="9.672546"><ele>554.75</ele><time>2026-04-04T13:13:56.409Z</time></trkpt><trkpt lat="44.1535453" lon="9.6726462"><ele>554.0</ele><time>2026-04-04T13:13:57.411Z</time></trkpt><trkpt lat="44.1536395" lon="9.6727228"><ele>554.0</ele><time>2026-04-04T13:13:58.414Z</time></trkpt><trkpt lat="44.1537174" lon="9.6727475"><ele>554.0</ele><time>2026-04-04T13:13:59.394Z</time></trkpt><trkpt lat="44.1537868" lon="9.6727259"><ele>554.0</ele><time>2026-04-04T13:14:00.399Z</time></trkpt><trkpt lat="44.1538709" lon="9.6726373"><ele>554.0</ele><time>2026-04-04T13:14:02.393Z</time></trkpt><trkpt lat="44.153876" lon="9.6725475"><ele>554.0</ele><time>2026-04-04T13:14:04.404Z</time></trkpt><trkpt lat="44.1538463" lon="9.6723578"><ele>554.0</ele><time>2026-04-04T13:14:06.398Z</time></trkpt><trkpt lat="44.1537814" lon="9.6722173"><ele>554.0</ele><time>2026-04-04T13:14:07.404Z</time></trkpt><trkpt lat="44.1536776" lon="9.6720331"><ele>554.0</ele><time>2026-04-04T13:14:08.397Z</time></trkpt><trkpt lat="44.1535593" lon="9.6718443"><ele>550.6666666666666</ele><time>2026-04-04T13:14:09.395Z</time></trkpt><trkpt lat="44.1534397" lon="9.6716679"><ele>547.3333333333334</ele><time>2026-04-04T13:14:10.395Z</time></trkpt><trkpt lat="44.1533427" lon="9.671489"><ele>544.0</ele><time>2026-04-04T13:14:11.401Z</time></trkpt><trkpt lat="44.1532811" lon="9.6712813"><ele>542.0</ele><time>2026-04-04T13:14:12.392Z</time></trkpt><trkpt lat="44.1532458" lon="9.6710383"><ele>540.0</ele><time>2026-04-04T13:14:13.386Z</time></trkpt><trkpt lat="44.1532097" lon="9.6708122"><ele>538.0</ele><time>2026-04-04T13:14:14.401Z</time></trkpt><trkpt lat="44.1531738" lon="9.6705927"><ele>527.0</ele><time>2026-04-04T13:14:15.384Z</time></trkpt><trkpt lat="44.1531396" lon="9.6703807"><ele>516.0</ele><time>2026-04-04T13:14:16.384Z</time></trkpt><trkpt lat="44.1531078" lon="9.6701725"><ele>505.0</ele><time>2026-04-04T13:14:17.389Z</time></trkpt><trkpt lat="44.1530726" lon="9.6699801"><ele>504.5</ele><time>2026-04-04T13:14:18.387Z</time></trkpt><trkpt lat="44.1530477" lon="9.6697979"><ele>504.0</ele><time>2026-04-04T13:14:19.405Z</time></trkpt><trkpt lat="44.1530399" lon="9.6696305"><ele>503.5</ele><time>2026-04-04T13:14:20.389Z</time></trkpt><trkpt lat="44.1530691" lon="9.6694666"><ele>503.0</ele><time>2026-04-04T13:14:21.393Z</time></trkpt><trkpt lat="44.1531443" lon="9.6693191"><ele>510.0</ele><time>2026-04-04T13:14:22.401Z</time></trkpt><trkpt lat="44.1532818" lon="9.669193"><ele>517.0</ele><time>2026-04-04T13:14:23.393Z</time></trkpt><trkpt lat="44.1534446" lon="9.66909"><ele>524.0</ele><time>2026-04-04T13:14:24.386Z</time></trkpt><trkpt lat="44.1535969" lon="9.6689857"><ele>524.0</ele><time>2026-04-04T13:14:25.381Z</time></trkpt><trkpt lat="44.1537443" lon="9.6689058"><ele>524.0</ele><time>2026-04-04T13:14:26.384Z</time></trkpt><trkpt lat="44.1538904" lon="9.6688926"><ele>524.0</ele><time>2026-04-04T13:14:27.392Z</time></trkpt><trkpt lat="44.1540436" lon="9.6689871"><ele>525.6666666666666</ele><time>2026-04-04T13:14:28.376Z</time></trkpt><trkpt lat="44.1541978" lon="9.6691113"><ele>527.3333333333334</ele><time>2026-04-04T13:14:29.384Z</time></trkpt><trkpt lat="44.1543728" lon="9.6692358"><ele>529.0</ele><time>2026-04-04T13:14:30.379Z</time></trkpt><trkpt lat="44.1545455" lon="9.6693503"><ele>529.0</ele><time>2026-04-04T13:14:31.387Z</time></trkpt><trkpt lat="44.1546899" lon="9.6694258"><ele>529.0</ele><time>2026-04-04T13:14:32.385Z</time></trkpt><trkpt lat="44.1548193" lon="9.6694522"><ele>529.0</ele><time>2026-04-04T13:14:33.384Z</time></trkpt><trkpt lat="44.1549266" lon="9.6694227"><ele>529.0</ele><time>2026-04-04T13:14:34.376Z</time></trkpt><trkpt lat="44.1550017" lon="9.6693097"><ele>528.5</ele><time>2026-04-04T13:14:35.384Z</time></trkpt><trkpt lat="44.1550498" lon="9.669145"><ele>528.0</ele><time>2026-04-04T13:14:36.373Z</time></trkpt><trkpt lat="44.1550639" lon="9.6689685"><ele>527.5</ele><time>2026-04-04T13:14:37.368Z</time></trkpt><trkpt lat="44.1550251" lon="9.6687456"><ele>527.0</ele><time>2026-04-04T13:14:38.365Z</time></trkpt><trkpt lat="44.1550211" lon="9.668506"><ele>524.0</ele><time>2026-04-04T13:14:39.378Z</time></trkpt><trkpt lat="44.1550719" lon="9.6682593"><ele>521.0</ele><time>2026-04-04T13:14:40.368Z</time></trkpt><trkpt lat="44.1551502" lon="9.6680332"><ele>518.0</ele><time>2026-04-04T13:14:41.368Z</time></trkpt><trkpt lat="44.1551811" lon="9.6678131"><ele>516.0</ele><time>2026-04-04T13:14:42.377Z</time></trkpt><trkpt lat="44.155157" lon="9.6675906"><ele>514.0</ele><time>2026-04-04T13:14:43.376Z</time></trkpt><trkpt lat="44.1550891" lon="9.667309"><ele>512.0</ele><time>2026-04-04T13:14:44.397Z</time></trkpt><trkpt lat="44.1550631" lon="9.667043"><ele>510.25</ele><time>2026-04-04T13:14:45.406Z</time></trkpt><trkpt lat="44.1550908" lon="9.6668439"><ele>508.5</ele><time>2026-04-04T13:14:46.404Z</time></trkpt><trkpt lat="44.1551564" lon="9.6666821"><ele>506.75</ele><time>2026-04-04T13:14:47.389Z</time></trkpt><trkpt lat="44.1552786" lon="9.6665687"><ele>505.0</ele><time>2026-04-04T13:14:48.386Z</time></trkpt><trkpt lat="44.1554497" lon="9.6664822"><ele>505.0</ele><time>2026-04-04T13:14:49.373Z</time></trkpt><trkpt lat="44.1556876" lon="9.6664177"><ele>505.0</ele><time>2026-04-04T13:14:50.377Z</time></trkpt><trkpt lat="44.1559648" lon="9.6663524"><ele>513.5</ele><time>2026-04-04T13:14:51.366Z</time></trkpt><trkpt lat="44.1562069" lon="9.6662829"><ele>522.0</ele><time>2026-04-04T13:14:52.378Z</time></trkpt><trkpt lat="44.1564178" lon="9.6662475"><ele>519.0</ele><time>2026-04-04T13:14:53.374Z</time></trkpt><trkpt lat="44.1566373" lon="9.6662591"><ele>516.0</ele><time>2026-04-04T13:14:54.382Z</time></trkpt><trkpt lat="44.1568464" lon="9.6662572"><ele>513.0</ele><time>2026-04-04T13:14:55.378Z</time></trkpt><trkpt lat="44.1570708" lon="9.6661816"><ele>507.5</ele><time>2026-04-04T13:14:56.379Z</time></trkpt><trkpt lat="44.1573234" lon="9.6660413"><ele>502.0</ele><time>2026-04-04T13:14:57.377Z</time></trkpt><trkpt lat="44.157601" lon="9.6659243"><ele>502.0</ele><time>2026-04-04T13:14:58.387Z</time></trkpt><trkpt lat="44.1578796" lon="9.6658542"><ele>502.0</ele><time>2026-04-04T13:14:59.385Z</time></trkpt><trkpt lat="44.1581435" lon="9.6658097"><ele>501.5</ele><time>2026-04-04T13:15:00.378Z</time></trkpt><trkpt lat="44.1583804" lon="9.6657641"><ele>501.0</ele><time>2026-04-04T13:15:01.383Z</time></trkpt><trkpt lat="44.1586017" lon="9.665709"><ele>501.0</ele><time>2026-04-04T13:15:02.362Z</time></trkpt><trkpt lat="44.1588199" lon="9.6656414"><ele>501.0</ele><time>2026-04-04T13:15:03.37Z</time></trkpt><trkpt lat="44.1590346" lon="9.6655516"><ele>501.0</ele><time>2026-04-04T13:15:04.372Z</time></trkpt><trkpt lat="44.1592509" lon="9.6654616"><ele>506.66666666666663</ele><time>2026-04-04T13:15:05.362Z</time></trkpt><trkpt lat="44.1594618" lon="9.6653692"><ele>512.3333333333333</ele><time>2026-04-04T13:15:06.36Z</time></trkpt><trkpt lat="44.1596571" lon="9.6652653"><ele>518.0</ele><time>2026-04-04T13:15:07.356Z</time></trkpt><trkpt lat="44.1598376" lon="9.6651145"><ele>507.5</ele><time>2026-04-04T13:15:08.375Z</time></trkpt><trkpt lat="44.1600054" lon="9.6649019"><ele>497.0</ele><time>2026-04-04T13:15:09.364Z</time></trkpt><trkpt lat="44.1601671" lon="9.6646543"><ele>484.0</ele><time>2026-04-04T13:15:10.359Z</time></trkpt><trkpt lat="44.1603272" lon="9.6644117"><ele>471.0</ele><time>2026-04-04T13:15:11.369Z</time></trkpt><trkpt lat="44.1604878" lon="9.6641885"><ele>471.0</ele><time>2026-04-04T13:15:12.366Z</time></trkpt><trkpt lat="44.1606412" lon="9.6639664"><ele>471.0</ele><time>2026-04-04T13:15:13.371Z</time></trkpt><trkpt lat="44.1607711" lon="9.6637375"><ele>471.0</ele><time>2026-04-04T13:15:14.364Z</time></trkpt><trkpt lat="44.1608713" lon="9.6634784"><ele>472.33333333333337</ele><time>2026-04-04T13:15:15.374Z</time></trkpt><trkpt lat="44.160932" lon="9.6631892"><ele>473.6666666666667</ele><time>2026-04-04T13:15:16.361Z</time></trkpt><trkpt lat="44.1610007" lon="9.662908"><ele>475.0</ele><time>2026-04-04T13:15:17.399Z</time></trkpt><trkpt lat="44.1610707" lon="9.662668"><ele>469.6666666666667</ele><time>2026-04-04T13:15:18.39Z</time></trkpt><trkpt lat="44.1611479" lon="9.6624429"><ele>464.33333333333337</ele><time>2026-04-04T13:15:19.358Z</time></trkpt><trkpt lat="44.1612318" lon="9.662233"><ele>459.0</ele><time>2026-04-04T13:15:20.358Z</time></trkpt><trkpt lat="44.1613195" lon="9.6620411"><ele>454.0</ele><time>2026-04-04T13:15:21.371Z</time></trkpt><trkpt lat="44.1613972" lon="9.6618649"><ele>449.0</ele><time>2026-04-04T13:15:22.361Z</time></trkpt><trkpt lat="44.1614359" lon="9.6617003"><ele>444.0</ele><time>2026-04-04T13:15:23.359Z</time></trkpt><trkpt lat="44.1614009" lon="9.6615528"><ele>439.0</ele><time>2026-04-04T13:15:24.366Z</time></trkpt><trkpt lat="44.1613212" lon="9.6613793"><ele>439.0</ele><time>2026-04-04T13:15:25.36Z</time></trkpt><trkpt lat="44.1612398" lon="9.6611641"><ele>439.0</ele><time>2026-04-04T13:15:26.366Z</time></trkpt><trkpt lat="44.161241" lon="9.6609357"><ele>439.0</ele><time>2026-04-04T13:15:27.38Z</time></trkpt><trkpt lat="44.1612889" lon="9.6606955"><ele>436.33333333333337</ele><time>2026-04-04T13:15:28.379Z</time></trkpt><trkpt lat="44.1613928" lon="9.6604377"><ele>433.66666666666663</ele><time>2026-04-04T13:15:29.368Z</time></trkpt><trkpt lat="44.1615008" lon="9.6601514"><ele>431.0</ele><time>2026-04-04T13:15:30.381Z</time></trkpt><trkpt lat="44.1615839" lon="9.6598973"><ele>436.5</ele><time>2026-04-04T13:15:31.364Z</time></trkpt><trkpt lat="44.1616623" lon="9.6596926"><ele>442.0</ele><time>2026-04-04T13:15:32.36Z</time></trkpt><trkpt lat="44.1617544" lon="9.6595827"><ele>447.5</ele><time>2026-04-04T13:15:33.369Z</time></trkpt><trkpt lat="44.1618642" lon="9.6595387"><ele>453.0</ele><time>2026-04-04T13:15:34.361Z</time></trkpt><trkpt lat="44.1620235" lon="9.659571"><ele>453.0</ele><time>2026-04-04T13:15:35.368Z</time></trkpt><trkpt lat="44.1622017" lon="9.6596421"><ele>453.0</ele><time>2026-04-04T13:15:36.347Z</time></trkpt><trkpt lat="44.1623852" lon="9.6597349"><ele>453.0</ele><time>2026-04-04T13:15:37.369Z</time></trkpt><trkpt lat="44.1625477" lon="9.6598532"><ele>457.0</ele><time>2026-04-04T13:15:38.361Z</time></trkpt><trkpt lat="44.1626943" lon="9.6600039"><ele>461.0</ele><time>2026-04-04T13:15:39.368Z</time></trkpt><trkpt lat="44.1628301" lon="9.6600889"><ele>465.0</ele><time>2026-04-04T13:15:40.366Z</time></trkpt><trkpt lat="44.1629778" lon="9.6601204"><ele>465.0</ele><time>2026-04-04T13:15:41.36Z</time></trkpt><trkpt lat="44.1631159" lon="9.6600702"><ele>465.0</ele><time>2026-04-04T13:15:42.351Z</time></trkpt><trkpt lat="44.1632701" lon="9.6599729"><ele>465.0</ele><time>2026-04-04T13:15:43.368Z</time></trkpt><trkpt lat="44.1633975" lon="9.6598439"><ele>462.33333333333337</ele><time>2026-04-04T13:15:44.372Z</time></trkpt><trkpt lat="44.1634932" lon="9.6596796"><ele>459.6666666666667</ele><time>2026-04-04T13:15:45.366Z</time></trkpt><trkpt lat="44.1634978" lon="9.6594518"><ele>457.0</ele><time>2026-04-04T13:15:46.364Z</time></trkpt><trkpt lat="44.1634905" lon="9.6592126"><ele>450.0</ele><time>2026-04-04T13:15:47.362Z</time></trkpt><trkpt lat="44.1634464" lon="9.6589069"><ele>443.0</ele><time>2026-04-04T13:15:48.35Z</time></trkpt><trkpt lat="44.1633635" lon="9.6585415"><ele>439.5</ele><time>2026-04-04T13:15:49.363Z</time></trkpt><trkpt lat="44.1632479" lon="9.6581902"><ele>436.0</ele><time>2026-04-04T13:15:50.395Z</time></trkpt><trkpt lat="44.1631633" lon="9.6578895"><ele>433.0</ele><time>2026-04-04T13:15:51.363Z</time></trkpt><trkpt lat="44.1631304" lon="9.6576288"><ele>430.0</ele><time>2026-04-04T13:15:52.395Z</time></trkpt><trkpt lat="44.1631621" lon="9.6574264"><ele>427.0</ele><time>2026-04-04T13:15:53.372Z</time></trkpt><trkpt lat="44.1632056" lon="9.6572897"><ele>424.0</ele><time>2026-04-04T13:15:54.367Z</time></trkpt><trkpt lat="44.1632996" lon="9.6572524"><ele>424.0</ele><time>2026-04-04T13:15:55.402Z</time></trkpt><trkpt lat="44.1634158" lon="9.6572606"><ele>424.0</ele><time>2026-04-04T13:15:56.378Z</time></trkpt><trkpt lat="44.1635951" lon="9.6572636"><ele>424.0</ele><time>2026-04-04T13:15:57.372Z</time></trkpt><trkpt lat="44.1637662" lon="9.6572613"><ele>424.0</ele><time>2026-04-04T13:15:58.367Z</time></trkpt><trkpt lat="44.1638989" lon="9.6572386"><ele>424.0</ele><time>2026-04-04T13:15:59.373Z</time></trkpt><trkpt lat="44.1639843" lon="9.6571296"><ele>424.0</ele><time>2026-04-04T13:16:00.377Z</time></trkpt><trkpt lat="44.1640418" lon="9.6569223"><ele>424.0</ele><time>2026-04-04T13:16:01.361Z</time></trkpt><trkpt lat="44.1640755" lon="9.6566621"><ele>422.0</ele><time>2026-04-04T13:16:02.367Z</time></trkpt><trkpt lat="44.164124" lon="9.6564512"><ele>420.0</ele><time>2026-04-04T13:16:03.37Z</time></trkpt><trkpt lat="44.1642266" lon="9.6563218"><ele>418.0</ele><time>2026-04-04T13:16:04.375Z</time></trkpt><trkpt lat="44.1643599" lon="9.6562814"><ele>416.0</ele><time>2026-04-04T13:16:05.37Z</time></trkpt><trkpt lat="44.164548" lon="9.6562868"><ele>416.0</ele><time>2026-04-04T13:16:06.369Z</time></trkpt><trkpt lat="44.1647675" lon="9.6563281"><ele>416.0</ele><time>2026-04-04T13:16:07.371Z</time></trkpt><trkpt lat="44.1649937" lon="9.6563822"><ele>417.66666666666663</ele><time>2026-04-04T13:16:08.364Z</time></trkpt><trkpt lat="44.1651855" lon="9.656451"><ele>419.33333333333337</ele><time>2026-04-04T13:16:09.365Z</time></trkpt><trkpt lat="44.1653551" lon="9.6565274"><ele>421.0</ele><time>2026-04-04T13:16:10.367Z</time></trkpt><trkpt lat="44.1654864" lon="9.656618"><ele>421.0</ele><time>2026-04-04T13:16:11.368Z</time></trkpt><trkpt lat="44.1656097" lon="9.6566585"><ele>421.0</ele><time>2026-04-04T13:16:12.364Z</time></trkpt><trkpt lat="44.1657187" lon="9.6566254"><ele>421.0</ele><time>2026-04-04T13:16:13.371Z</time></trkpt><trkpt lat="44.1658048" lon="9.6564791"><ele>421.0</ele><time>2026-04-04T13:16:14.362Z</time></trkpt><trkpt lat="44.1658276" lon="9.6562753"><ele>416.6666666666667</ele><time>2026-04-04T13:16:15.369Z</time></trkpt><trkpt lat="44.1657904" lon="9.6560433"><ele>412.33333333333337</ele><time>2026-04-04T13:16:16.364Z</time></trkpt><trkpt lat="44.1657133" lon="9.6557718"><ele>408.0</ele><time>2026-04-04T13:16:17.353Z</time></trkpt><trkpt lat="44.1656229" lon="9.6554517"><ele>398.0</ele><time>2026-04-04T13:16:18.369Z</time></trkpt><trkpt lat="44.1655497" lon="9.6551632"><ele>388.0</ele><time>2026-04-04T13:16:19.359Z</time></trkpt><trkpt lat="44.1654494" lon="9.6549277"><ele>378.0</ele><time>2026-04-04T13:16:20.359Z</time></trkpt><trkpt lat="44.1652937" lon="9.6547694"><ele>378.0</ele><time>2026-04-04T13:16:21.371Z</time></trkpt><trkpt lat="44.165088" lon="9.6545863"><ele>378.0</ele><time>2026-04-04T13:16:22.394Z</time></trkpt><trkpt lat="44.1648909" lon="9.654386"><ele>370.6666666666667</ele><time>2026-04-04T13:16:23.358Z</time></trkpt><trkpt lat="44.1647174" lon="9.6542065"><ele>363.33333333333337</ele><time>2026-04-04T13:16:24.355Z</time></trkpt><trkpt lat="44.1645643" lon="9.6540379"><ele>356.0</ele><time>2026-04-04T13:16:25.343Z</time></trkpt><trkpt lat="44.1644298" lon="9.6538829"><ele>356.0</ele><time>2026-04-04T13:16:26.365Z</time></trkpt><trkpt lat="44.1643248" lon="9.6537441"><ele>356.0</ele><time>2026-04-04T13:16:27.351Z</time></trkpt><trkpt lat="44.1642879" lon="9.6536254"><ele>356.0</ele><time>2026-04-04T13:16:28.374Z</time></trkpt><trkpt lat="44.1643207" lon="9.6534569"><ele>356.0</ele><time>2026-04-04T13:16:29.378Z</time></trkpt><trkpt lat="44.1644132" lon="9.6532858"><ele>355.6666666666667</ele><time>2026-04-04T13:16:30.405Z</time></trkpt><trkpt lat="44.1645422" lon="9.6530922"><ele>355.3333333333333</ele><time>2026-04-04T13:16:31.392Z</time></trkpt><trkpt lat="44.1646437" lon="9.6529107"><ele>355.0</ele><time>2026-04-04T13:16:32.368Z</time></trkpt><trkpt lat="44.1647313" lon="9.6527481"><ele>355.0</ele><time>2026-04-04T13:16:33.361Z</time></trkpt><trkpt lat="44.1647936" lon="9.6526054"><ele>355.0</ele><time>2026-04-04T13:16:34.365Z</time></trkpt><trkpt lat="44.1648224" lon="9.6524797"><ele>355.0</ele><time>2026-04-04T13:16:35.394Z</time></trkpt><trkpt lat="44.1647961" lon="9.6523707"><ele>355.0</ele><time>2026-04-04T13:16:36.402Z</time></trkpt><trkpt lat="44.1646993" lon="9.6523037"><ele>355.0</ele><time>2026-04-04T13:16:37.376Z</time></trkpt><trkpt lat="44.164538" lon="9.6522544"><ele>355.0</ele><time>2026-04-04T13:16:38.371Z</time></trkpt><trkpt lat="44.1643581" lon="9.6521878"><ele>355.0</ele><time>2026-04-04T13:16:39.368Z</time></trkpt><trkpt lat="44.1641601" lon="9.6521028"><ele>355.0</ele><time>2026-04-04T13:16:40.371Z</time></trkpt><trkpt lat="44.1639514" lon="9.6520022"><ele>352.0</ele><time>2026-04-04T13:16:41.345Z</time></trkpt><trkpt lat="44.1637595" lon="9.6519008"><ele>349.0</ele><time>2026-04-04T13:16:42.356Z</time></trkpt><trkpt lat="44.1636236" lon="9.651776"><ele>346.0</ele><time>2026-04-04T13:16:43.367Z</time></trkpt><trkpt lat="44.163516" lon="9.6516453"><ele>346.0</ele><time>2026-04-04T13:16:44.355Z</time></trkpt><trkpt lat="44.1634967" lon="9.6514875"><ele>346.0</ele><time>2026-04-04T13:16:45.372Z</time></trkpt><trkpt lat="44.1635064" lon="9.6513053"><ele>346.0</ele><time>2026-04-04T13:16:46.362Z</time></trkpt><trkpt lat="44.1635644" lon="9.6511075"><ele>346.0</ele><time>2026-04-04T13:16:47.371Z</time></trkpt><trkpt lat="44.1636846" lon="9.650861"><ele>343.25</ele><time>2026-04-04T13:16:48.372Z</time></trkpt><trkpt lat="44.1637944" lon="9.6506587"><ele>340.5</ele><time>2026-04-04T13:16:49.382Z</time></trkpt><trkpt lat="44.1638447" lon="9.6504796"><ele>337.75</ele><time>2026-04-04T13:16:50.393Z</time></trkpt><trkpt lat="44.1638165" lon="9.6503342"><ele>335.0</ele><time>2026-04-04T13:16:51.419Z</time></trkpt><trkpt lat="44.1637255" lon="9.6502275"><ele>335.0</ele><time>2026-04-04T13:16:52.378Z</time></trkpt><trkpt lat="44.1635888" lon="9.6501365"><ele>335.0</ele><time>2026-04-04T13:16:53.393Z</time></trkpt><trkpt lat="44.1634207" lon="9.650077"><ele>335.0</ele><time>2026-04-04T13:16:54.37Z</time></trkpt><trkpt lat="44.1632694" lon="9.650014"><ele>335.0</ele><time>2026-04-04T13:16:55.373Z</time></trkpt><trkpt lat="44.1631727" lon="9.6499193"><ele>335.0</ele><time>2026-04-04T13:16:56.374Z</time></trkpt><trkpt lat="44.1631019" lon="9.6498133"><ele>335.0</ele><time>2026-04-04T13:16:57.358Z</time></trkpt><trkpt lat="44.1630937" lon="9.6496616"><ele>335.0</ele><time>2026-04-04T13:16:58.39Z</time></trkpt><trkpt lat="44.1632018" lon="9.6495438"><ele>335.0</ele><time>2026-04-04T13:16:59.391Z</time></trkpt><trkpt lat="44.1633294" lon="9.6495055"><ele>335.0</ele><time>2026-04-04T13:17:00.39Z</time></trkpt><trkpt lat="44.163487" lon="9.6495429"><ele>335.0</ele><time>2026-04-04T13:17:01.372Z</time></trkpt><trkpt lat="44.1635991" lon="9.6496068"><ele>335.0</ele><time>2026-04-04T13:17:02.368Z</time></trkpt><trkpt lat="44.163679" lon="9.6496683"><ele>335.0</ele><time>2026-04-04T13:17:03.365Z</time></trkpt><trkpt lat="44.1637573" lon="9.6497358"><ele>335.0</ele><time>2026-04-04T13:17:04.37Z</time></trkpt><trkpt lat="44.1638229" lon="9.6498055"><ele>335.0</ele><time>2026-04-04T13:17:05.365Z</time></trkpt><trkpt lat="44.1638853" lon="9.6498662"><ele>335.0</ele><time>2026-04-04T13:17:06.365Z</time></trkpt><trkpt lat="44.1639881" lon="9.6498753"><ele>335.0</ele><time>2026-04-04T13:17:08.373Z</time></trkpt><trkpt lat="44.1640309" lon="9.6497989"><ele>335.0</ele><time>2026-04-04T13:17:10.377Z</time></trkpt><trkpt lat="44.163992" lon="9.6497204"><ele>335.0</ele><time>2026-04-04T13:17:42.378Z</time></trkpt><trkpt lat="44.163952" lon="9.6495911"><ele>335.0</ele><time>2026-04-04T13:17:44.379Z</time></trkpt><trkpt lat="44.1638942" lon="9.6494883"><ele>335.0</ele><time>2026-04-04T13:17:45.374Z</time></trkpt><trkpt lat="44.1637983" lon="9.6493767"><ele>335.0</ele><time>2026-04-04T13:17:46.367Z</time></trkpt><trkpt lat="44.1636683" lon="9.6492666"><ele>334.4</ele><time>2026-04-04T13:17:47.381Z</time></trkpt><trkpt lat="44.1635388" lon="9.6492094"><ele>333.8</ele><time>2026-04-04T13:17:48.374Z</time></trkpt><trkpt lat="44.1634276" lon="9.6491924"><ele>333.20000000000005</ele><time>2026-04-04T13:17:49.38Z</time></trkpt><trkpt lat="44.1633371" lon="9.6492061"><ele>332.6</ele><time>2026-04-04T13:17:50.364Z</time></trkpt><trkpt lat="44.1632481" lon="9.6492392"><ele>332.0</ele><time>2026-04-04T13:17:52.389Z</time></trkpt><trkpt lat="44.1631835" lon="9.649254"><ele>331.33333333333337</ele><time>2026-04-04T13:17:54.373Z</time></trkpt><trkpt lat="44.1631197" lon="9.6492697"><ele>330.6666666666667</ele><time>2026-04-04T13:17:56.379Z</time></trkpt><trkpt lat="44.1630424" lon="9.6493149"><ele>330.0</ele><time>2026-04-04T13:17:58.371Z</time></trkpt><trkpt lat="44.1629885" lon="9.6494077"><ele>329.3333333333333</ele><time>2026-04-04T13:18:00.381Z</time></trkpt><trkpt lat="44.1629697" lon="9.649496"><ele>328.66666666666663</ele><time>2026-04-04T13:18:01.376Z</time></trkpt><trkpt lat="44.1629498" lon="9.6495929"><ele>328.0</ele><time>2026-04-04T13:18:02.374Z</time></trkpt><trkpt lat="44.1629269" lon="9.6496997"><ele>325.75</ele><time>2026-04-04T13:18:03.374Z</time></trkpt><trkpt lat="44.1629175" lon="9.6498297"><ele>323.5</ele><time>2026-04-04T13:18:04.379Z</time></trkpt><trkpt lat="44.1629226" lon="9.6499831"><ele>321.25</ele><time>2026-04-04T13:18:05.384Z</time></trkpt><trkpt lat="44.1629481" lon="9.6501691"><ele>319.0</ele><time>2026-04-04T13:18:06.384Z</time></trkpt><trkpt lat="44.1629929" lon="9.6503783"><ele>314.3333333333333</ele><time>2026-04-04T13:18:07.376Z</time></trkpt><trkpt lat="44.1630537" lon="9.6505925"><ele>309.6666666666667</ele><time>2026-04-04T13:18:08.371Z</time></trkpt><trkpt lat="44.1631144" lon="9.6507962"><ele>305.0</ele><time>2026-04-04T13:18:09.381Z</time></trkpt><trkpt lat="44.1631722" lon="9.650998"><ele>318.6666666666667</ele><time>2026-04-04T13:18:10.381Z</time></trkpt><trkpt lat="44.1632364" lon="9.6512107"><ele>332.3333333333333</ele><time>2026-04-04T13:18:11.378Z</time></trkpt><trkpt lat="44.1632924" lon="9.6514242"><ele>346.0</ele><time>2026-04-04T13:18:12.37Z</time></trkpt><trkpt lat="44.1633555" lon="9.6516314"><ele>346.0</ele><time>2026-04-04T13:18:13.372Z</time></trkpt><trkpt lat="44.1634106" lon="9.6518196"><ele>346.0</ele><time>2026-04-04T13:18:14.357Z</time></trkpt><trkpt lat="44.1634857" lon="9.6520091"><ele>346.0</ele><time>2026-04-04T13:18:15.361Z</time></trkpt><trkpt lat="44.1635799" lon="9.6522613"><ele>341.66666666666663</ele><time>2026-04-04T13:18:16.344Z</time></trkpt><trkpt lat="44.1636528" lon="9.6525084"><ele>337.3333333333333</ele><time>2026-04-04T13:18:17.368Z</time></trkpt><trkpt lat="44.1637055" lon="9.6527119"><ele>333.0</ele><time>2026-04-04T13:18:18.352Z</time></trkpt><trkpt lat="44.1637316" lon="9.6529585"><ele>327.6666666666667</ele><time>2026-04-04T13:18:19.36Z</time></trkpt><trkpt lat="44.1637261" lon="9.6532151"><ele>322.33333333333337</ele><time>2026-04-04T13:18:20.374Z</time></trkpt><trkpt lat="44.1636925" lon="9.6534741"><ele>317.0</ele><time>2026-04-04T13:18:21.378Z</time></trkpt><trkpt lat="44.1636508" lon="9.6537149"><ele>317.0</ele><time>2026-04-04T13:18:22.38Z</time></trkpt><trkpt lat="44.1636078" lon="9.6539428"><ele>317.0</ele><time>2026-04-04T13:18:23.376Z</time></trkpt><trkpt lat="44.1635624" lon="9.6541607"><ele>317.0</ele><time>2026-04-04T13:18:24.368Z</time></trkpt><trkpt lat="44.1635162" lon="9.6543647"><ele>323.33333333333337</ele><time>2026-04-04T13:18:25.366Z</time></trkpt><trkpt lat="44.1634622" lon="9.6545535"><ele>329.6666666666667</ele><time>2026-04-04T13:18:26.377Z</time></trkpt><trkpt lat="44.1633775" lon="9.6547269"><ele>336.0</ele><time>2026-04-04T13:18:27.381Z</time></trkpt><trkpt lat="44.1632552" lon="9.6548633"><ele>335.3333333333333</ele><time>2026-04-04T13:18:28.372Z</time></trkpt><trkpt lat="44.1630959" lon="9.6549678"><ele>334.66666666666663</ele><time>2026-04-04T13:18:29.361Z</time></trkpt><trkpt lat="44.1629142" lon="9.6550471"><ele>334.0</ele><time>2026-04-04T13:18:30.374Z</time></trkpt><trkpt lat="44.1627165" lon="9.6551214"><ele>334.0</ele><time>2026-04-04T13:18:31.37Z</time></trkpt><trkpt lat="44.1625272" lon="9.6552"><ele>334.0</ele><time>2026-04-04T13:18:32.349Z</time></trkpt><trkpt lat="44.1623495" lon="9.6552923"><ele>334.0</ele><time>2026-04-04T13:18:33.356Z</time></trkpt><trkpt lat="44.1621849" lon="9.6553921"><ele>328.5</ele><time>2026-04-04T13:18:34.347Z</time></trkpt><trkpt lat="44.1620954" lon="9.655683"><ele>323.0</ele><time>2026-04-04T13:18:35.344Z</time></trkpt><trkpt lat="44.1618435" lon="9.6557189"><ele>323.0</ele><time>2026-04-04T13:18:36.342Z</time></trkpt><trkpt lat="44.1615804" lon="9.6557712"><ele>323.0</ele><time>2026-04-04T13:18:37.367Z</time></trkpt><trkpt lat="44.1613337" lon="9.6558228"><ele>314.0</ele><time>2026-04-04T13:18:38.371Z</time></trkpt><trkpt lat="44.1610913" lon="9.6558658"><ele>305.0</ele><time>2026-04-04T13:18:39.368Z</time></trkpt><trkpt lat="44.1608653" lon="9.6559101"><ele>300.6666666666667</ele><time>2026-04-04T13:18:40.371Z</time></trkpt><trkpt lat="44.1606495" lon="9.6559452"><ele>296.3333333333333</ele><time>2026-04-04T13:18:41.374Z</time></trkpt><trkpt lat="44.1604361" lon="9.6559391"><ele>292.0</ele><time>2026-04-04T13:18:42.386Z</time></trkpt><trkpt lat="44.160236" lon="9.6559276"><ele>292.0</ele><time>2026-04-04T13:18:43.396Z</time></trkpt><trkpt lat="44.1600474" lon="9.6559279"><ele>292.0</ele><time>2026-04-04T13:18:44.371Z</time></trkpt><trkpt lat="44.1598683" lon="9.655953"><ele>292.0</ele><time>2026-04-04T13:18:45.373Z</time></trkpt><trkpt lat="44.1597142" lon="9.6560022"><ele>285.66666666666663</ele><time>2026-04-04T13:18:46.368Z</time></trkpt><trkpt lat="44.159578" lon="9.6561003"><ele>279.3333333333333</ele><time>2026-04-04T13:18:47.372Z</time></trkpt><trkpt lat="44.1594711" lon="9.6562756"><ele>273.0</ele><time>2026-04-04T13:18:48.375Z</time></trkpt><trkpt lat="44.1593853" lon="9.6564922"><ele>273.0</ele><time>2026-04-04T13:18:49.386Z</time></trkpt><trkpt lat="44.1593417" lon="9.6567494"><ele>273.0</ele><time>2026-04-04T13:18:50.364Z</time></trkpt><trkpt lat="44.1593409" lon="9.6570331"><ele>273.0</ele><time>2026-04-04T13:18:51.371Z</time></trkpt><trkpt lat="44.1593537" lon="9.6573213"><ele>274.3333333333333</ele><time>2026-04-04T13:18:52.368Z</time></trkpt><trkpt lat="44.1593736" lon="9.6576123"><ele>275.66666666666663</ele><time>2026-04-04T13:18:53.381Z</time></trkpt><trkpt lat="44.1594098" lon="9.6578871"><ele>277.0</ele><time>2026-04-04T13:18:54.368Z</time></trkpt><trkpt lat="44.1594264" lon="9.6581217"><ele>279.0</ele><time>2026-04-04T13:18:55.378Z</time></trkpt><trkpt lat="44.159405" lon="9.6583526"><ele>281.0</ele><time>2026-04-04T13:18:56.371Z</time></trkpt><trkpt lat="44.159324" lon="9.6586175"><ele>283.0</ele><time>2026-04-04T13:18:57.386Z</time></trkpt><trkpt lat="44.1592146" lon="9.6588923"><ele>287.5</ele><time>2026-04-04T13:18:58.378Z</time></trkpt><trkpt lat="44.1590925" lon="9.659169"><ele>292.0</ele><time>2026-04-04T13:18:59.371Z</time></trkpt><trkpt lat="44.1589774" lon="9.6594373"><ele>282.3333333333333</ele><time>2026-04-04T13:19:00.379Z</time></trkpt><trkpt lat="44.1588809" lon="9.6596806"><ele>272.6666666666667</ele><time>2026-04-04T13:19:01.376Z</time></trkpt><trkpt lat="44.1587844" lon="9.6599097"><ele>263.0</ele><time>2026-04-04T13:19:02.376Z</time></trkpt><trkpt lat="44.1586988" lon="9.6601312"><ele>270.33333333333337</ele><time>2026-04-04T13:19:03.377Z</time></trkpt><trkpt lat="44.1586133" lon="9.6603571"><ele>277.6666666666667</ele><time>2026-04-04T13:19:04.372Z</time></trkpt><trkpt lat="44.1585251" lon="9.6605479"><ele>285.0</ele><time>2026-04-04T13:19:05.365Z</time></trkpt><trkpt lat="44.1584161" lon="9.6607009"><ele>285.0</ele><time>2026-04-04T13:19:06.37Z</time></trkpt><trkpt lat="44.1582891" lon="9.6608329"><ele>285.0</ele><time>2026-04-04T13:19:07.378Z</time></trkpt><trkpt lat="44.1581263" lon="9.6609218"><ele>285.0</ele><time>2026-04-04T13:19:08.367Z</time></trkpt><trkpt lat="44.1579367" lon="9.6609287"><ele>286.0</ele><time>2026-04-04T13:19:09.371Z</time></trkpt><trkpt lat="44.1577331" lon="9.6608812"><ele>287.0</ele><time>2026-04-04T13:19:10.365Z</time></trkpt><trkpt lat="44.1575242" lon="9.6607811"><ele>288.0</ele><time>2026-04-04T13:19:11.368Z</time></trkpt><trkpt lat="44.1573055" lon="9.6606835"><ele>286.0</ele><time>2026-04-04T13:19:12.365Z</time></trkpt><trkpt lat="44.1571023" lon="9.6605467"><ele>284.0</ele><time>2026-04-04T13:19:13.375Z</time></trkpt><trkpt lat="44.1569436" lon="9.6603983"><ele>282.0</ele><time>2026-04-04T13:19:14.399Z</time></trkpt><trkpt lat="44.1568089" lon="9.6602617"><ele>282.0</ele><time>2026-04-04T13:19:15.384Z</time></trkpt><trkpt lat="44.1566748" lon="9.660115"><ele>282.0</ele><time>2026-04-04T13:19:16.377Z</time></trkpt><trkpt lat="44.1565602" lon="9.659946"><ele>282.0</ele><time>2026-04-04T13:19:17.377Z</time></trkpt><trkpt lat="44.1564598" lon="9.659746"><ele>286.6666666666667</ele><time>2026-04-04T13:19:18.378Z</time></trkpt><trkpt lat="44.1563454" lon="9.659564"><ele>291.33333333333337</ele><time>2026-04-04T13:19:19.385Z</time></trkpt><trkpt lat="44.1562219" lon="9.6594063"><ele>296.0</ele><time>2026-04-04T13:19:20.374Z</time></trkpt><trkpt lat="44.1561055" lon="9.6592473"><ele>285.33333333333337</ele><time>2026-04-04T13:19:21.371Z</time></trkpt><trkpt lat="44.1559752" lon="9.6591099"><ele>274.6666666666667</ele><time>2026-04-04T13:19:22.372Z</time></trkpt><trkpt lat="44.1558274" lon="9.6590321"><ele>264.0</ele><time>2026-04-04T13:19:23.381Z</time></trkpt><trkpt lat="44.1556621" lon="9.6590184"><ele>260.0</ele><time>2026-04-04T13:19:24.379Z</time></trkpt><trkpt lat="44.1554763" lon="9.659057"><ele>256.0</ele><time>2026-04-04T13:19:25.37Z</time></trkpt><trkpt lat="44.1552822" lon="9.6591388"><ele>252.0</ele><time>2026-04-04T13:19:26.375Z</time></trkpt><trkpt lat="44.1550713" lon="9.6592154"><ele>252.0</ele><time>2026-04-04T13:19:27.373Z</time></trkpt><trkpt lat="44.1548712" lon="9.6593003"><ele>252.0</ele><time>2026-04-04T13:19:28.394Z</time></trkpt><trkpt lat="44.1546785" lon="9.6593858"><ele>252.0</ele><time>2026-04-04T13:19:29.375Z</time></trkpt><trkpt lat="44.1544864" lon="9.6594621"><ele>255.0</ele><time>2026-04-04T13:19:30.369Z</time></trkpt><trkpt lat="44.1543032" lon="9.6595414"><ele>258.0</ele><time>2026-04-04T13:19:31.369Z</time></trkpt><trkpt lat="44.1541176" lon="9.6596304"><ele>261.0</ele><time>2026-04-04T13:19:32.359Z</time></trkpt><trkpt lat="44.1539658" lon="9.6597319"><ele>241.0</ele><time>2026-04-04T13:19:33.352Z</time></trkpt><trkpt lat="44.1537804" lon="9.659932"><ele>221.0</ele><time>2026-04-04T13:19:34.366Z</time></trkpt><trkpt lat="44.1535926" lon="9.6601651"><ele>233.5</ele><time>2026-04-04T13:19:35.367Z</time></trkpt><trkpt lat="44.1533741" lon="9.6603967"><ele>246.0</ele><time>2026-04-04T13:19:36.371Z</time></trkpt><trkpt lat="44.1531762" lon="9.6605513"><ele>247.66666666666669</ele><time>2026-04-04T13:19:37.37Z</time></trkpt><trkpt lat="44.1529894" lon="9.6606631"><ele>249.33333333333334</ele><time>2026-04-04T13:19:38.368Z</time></trkpt><trkpt lat="44.1528101" lon="9.6607455"><ele>251.0</ele><time>2026-04-04T13:19:39.37Z</time></trkpt><trkpt lat="44.1526411" lon="9.6607919"><ele>251.0</ele><time>2026-04-04T13:19:40.37Z</time></trkpt><trkpt lat="44.1524755" lon="9.6607827"><ele>251.0</ele><time>2026-04-04T13:19:41.38Z</time></trkpt><trkpt lat="44.1523103" lon="9.6607214"><ele>251.0</ele><time>2026-04-04T13:19:42.379Z</time></trkpt><trkpt lat="44.152167" lon="9.6606392"><ele>244.66666666666669</ele><time>2026-04-04T13:19:43.377Z</time></trkpt><trkpt lat="44.1520234" lon="9.6605912"><ele>238.33333333333331</ele><time>2026-04-04T13:19:44.364Z</time></trkpt><trkpt lat="44.151872" lon="9.6606224"><ele>232.0</ele><time>2026-04-04T13:19:45.372Z</time></trkpt><trkpt lat="44.1517273" lon="9.6607289"><ele>232.0</ele><time>2026-04-04T13:19:46.361Z</time></trkpt><trkpt lat="44.1516162" lon="9.6609"><ele>232.0</ele><time>2026-04-04T13:19:47.368Z</time></trkpt><trkpt lat="44.151521" lon="9.6611114"><ele>232.0</ele><time>2026-04-04T13:19:48.367Z</time></trkpt><trkpt lat="44.1514761" lon="9.6613604"><ele>230.66666666666666</ele><time>2026-04-04T13:19:49.371Z</time></trkpt><trkpt lat="44.1514705" lon="9.66164"><ele>229.33333333333331</ele><time>2026-04-04T13:19:50.363Z</time></trkpt><trkpt lat="44.1514814" lon="9.6619146"><ele>228.0</ele><time>2026-04-04T13:19:51.368Z</time></trkpt><trkpt lat="44.1514707" lon="9.6621677"><ele>228.0</ele><time>2026-04-04T13:19:52.36Z</time></trkpt><trkpt lat="44.1514251" lon="9.6623942"><ele>228.0</ele><time>2026-04-04T13:19:53.359Z</time></trkpt><trkpt lat="44.1513476" lon="9.6625952"><ele>228.0</ele><time>2026-04-04T13:19:54.368Z</time></trkpt><trkpt lat="44.1512155" lon="9.6627447"><ele>242.33333333333331</ele><time>2026-04-04T13:19:55.371Z</time></trkpt><trkpt lat="44.1510492" lon="9.6628391"><ele>256.66666666666663</ele><time>2026-04-04T13:19:56.373Z</time></trkpt><trkpt lat="44.1508591" lon="9.6628686"><ele>271.0</ele><time>2026-04-04T13:19:57.368Z</time></trkpt><trkpt lat="44.1506729" lon="9.6628615"><ele>272.75</ele><time>2026-04-04T13:19:58.37Z</time></trkpt><trkpt lat="44.1504878" lon="9.6627816"><ele>274.5</ele><time>2026-04-04T13:19:59.377Z</time></trkpt><trkpt lat="44.1503738" lon="9.6626669"><ele>276.25</ele><time>2026-04-04T13:20:00.371Z</time></trkpt><trkpt lat="44.150298" lon="9.6625518"><ele>278.0</ele><time>2026-04-04T13:20:01.366Z</time></trkpt><trkpt lat="44.1502225" lon="9.6624351"><ele>268.75</ele><time>2026-04-04T13:20:02.356Z</time></trkpt><trkpt lat="44.1501428" lon="9.6623155"><ele>259.5</ele><time>2026-04-04T13:20:03.37Z</time></trkpt><trkpt lat="44.1500459" lon="9.6621683"><ele>250.25</ele><time>2026-04-04T13:20:04.367Z</time></trkpt><trkpt lat="44.1499231" lon="9.6620398"><ele>241.0</ele><time>2026-04-04T13:20:05.376Z</time></trkpt><trkpt lat="44.1497859" lon="9.661952"><ele>236.0</ele><time>2026-04-04T13:20:06.382Z</time></trkpt><trkpt lat="44.149629" lon="9.661946"><ele>231.0</ele><time>2026-04-04T13:20:07.381Z</time></trkpt><trkpt lat="44.1494668" lon="9.6619705"><ele>226.0</ele><time>2026-04-04T13:20:08.384Z</time></trkpt><trkpt lat="44.1493002" lon="9.6620478"><ele>226.0</ele><time>2026-04-04T13:20:09.37Z</time></trkpt><trkpt lat="44.1491506" lon="9.6621148"><ele>226.0</ele><time>2026-04-04T13:20:10.367Z</time></trkpt><trkpt lat="44.1490229" lon="9.6622076"><ele>226.0</ele><time>2026-04-04T13:20:11.378Z</time></trkpt><trkpt lat="44.1489084" lon="9.6623324"><ele>226.0</ele><time>2026-04-04T13:20:12.377Z</time></trkpt><trkpt lat="44.1488046" lon="9.6624877"><ele>218.33333333333331</ele><time>2026-04-04T13:20:13.375Z</time></trkpt><trkpt lat="44.1487223" lon="9.6626754"><ele>210.66666666666669</ele><time>2026-04-04T13:20:14.371Z</time></trkpt><trkpt lat="44.1486646" lon="9.6629185"><ele>203.0</ele><time>2026-04-04T13:20:15.37Z</time></trkpt><trkpt lat="44.148636" lon="9.6631993"><ele>203.0</ele><time>2026-04-04T13:20:16.372Z</time></trkpt><trkpt lat="44.1485888" lon="9.6634277"><ele>203.0</ele><time>2026-04-04T13:20:17.372Z</time></trkpt><trkpt lat="44.1485068" lon="9.6636258"><ele>203.0</ele><time>2026-04-04T13:20:18.383Z</time></trkpt><trkpt lat="44.1483889" lon="9.6637684"><ele>209.33333333333334</ele><time>2026-04-04T13:20:19.386Z</time></trkpt><trkpt lat="44.1482539" lon="9.6638744"><ele>215.66666666666669</ele><time>2026-04-04T13:20:20.38Z</time></trkpt><trkpt lat="44.1481159" lon="9.6639446"><ele>222.0</ele><time>2026-04-04T13:20:21.375Z</time></trkpt><trkpt lat="44.1479399" lon="9.6639588"><ele>223.0</ele><time>2026-04-04T13:20:22.386Z</time></trkpt><trkpt lat="44.1477369" lon="9.6639459"><ele>224.0</ele><time>2026-04-04T13:20:23.374Z</time></trkpt><trkpt lat="44.1475264" lon="9.6639448"><ele>225.0</ele><time>2026-04-04T13:20:24.365Z</time></trkpt><trkpt lat="44.14732" lon="9.6639477"><ele>221.66666666666669</ele><time>2026-04-04T13:20:25.378Z</time></trkpt><trkpt lat="44.1471285" lon="9.6639316"><ele>218.33333333333334</ele><time>2026-04-04T13:20:26.365Z</time></trkpt><trkpt lat="44.1469358" lon="9.6639278"><ele>215.0</ele><time>2026-04-04T13:20:27.367Z</time></trkpt><trkpt lat="44.1467502" lon="9.6639136"><ele>215.0</ele><time>2026-04-04T13:20:28.363Z</time></trkpt><trkpt lat="44.1465782" lon="9.6639012"><ele>215.0</ele><time>2026-04-04T13:20:29.367Z</time></trkpt><trkpt lat="44.14639" lon="9.6638978"><ele>215.0</ele><time>2026-04-04T13:20:30.377Z</time></trkpt><trkpt lat="44.1462049" lon="9.6638819"><ele>208.33333333333334</ele><time>2026-04-04T13:20:31.372Z</time></trkpt><trkpt lat="44.146036" lon="9.6638689"><ele>201.66666666666669</ele><time>2026-04-04T13:20:32.375Z</time></trkpt><trkpt lat="44.1458772" lon="9.6639017"><ele>195.0</ele><time>2026-04-04T13:20:33.368Z</time></trkpt><trkpt lat="44.1457371" lon="9.6639895"><ele>190.0</ele><time>2026-04-04T13:20:34.38Z</time></trkpt><trkpt lat="44.1456085" lon="9.664104"><ele>185.0</ele><time>2026-04-04T13:20:35.373Z</time></trkpt><trkpt lat="44.1455112" lon="9.6642106"><ele>180.0</ele><time>2026-04-04T13:20:36.374Z</time></trkpt><trkpt lat="44.1454473" lon="9.66429"><ele>175.0</ele><time>2026-04-04T13:20:37.367Z</time></trkpt><trkpt lat="44.1453869" lon="9.6643524"><ele>170.0</ele><time>2026-04-04T13:20:38.368Z</time></trkpt><trkpt lat="44.1453232" lon="9.6643869"><ele>170.0</ele><time>2026-04-04T13:20:39.376Z</time></trkpt><trkpt lat="44.1452573" lon="9.6644156"><ele>170.0</ele><time>2026-04-04T13:20:40.383Z</time></trkpt><trkpt lat="44.1451881" lon="9.6644311"><ele>170.0</ele><time>2026-04-04T13:20:41.384Z</time></trkpt><trkpt lat="44.1451262" lon="9.6644093"><ele>170.0</ele><time>2026-04-04T13:20:42.382Z</time></trkpt><trkpt lat="44.1450709" lon="9.664352"><ele>170.0</ele><time>2026-04-04T13:20:43.384Z</time></trkpt><trkpt lat="44.1450278" lon="9.6642682"><ele>170.0</ele><time>2026-04-04T13:20:44.396Z</time></trkpt><trkpt lat="44.1450081" lon="9.6641735"><ele>170.0</ele><time>2026-04-04T13:20:45.387Z</time></trkpt><trkpt lat="44.1450192" lon="9.6640626"><ele>170.0</ele><time>2026-04-04T13:20:46.392Z</time></trkpt><trkpt lat="44.1450632" lon="9.6639618"><ele>170.0</ele><time>2026-04-04T13:20:47.378Z</time></trkpt><trkpt lat="44.1451113" lon="9.6638757"><ele>170.0</ele><time>2026-04-04T13:20:48.385Z</time></trkpt><trkpt lat="44.1451847" lon="9.6638171"><ele>170.0</ele><time>2026-04-04T13:20:49.389Z</time></trkpt><trkpt lat="44.1452669" lon="9.6637731"><ele>170.0</ele><time>2026-04-04T13:20:50.384Z</time></trkpt><trkpt lat="44.1453498" lon="9.6637374"><ele>170.0</ele><time>2026-04-04T13:20:51.384Z</time></trkpt><trkpt lat="44.1454349" lon="9.663688"><ele>170.0</ele><time>2026-04-04T13:20:52.388Z</time></trkpt><trkpt lat="44.1455262" lon="9.66364"><ele>170.0</ele><time>2026-04-04T13:20:53.381Z</time></trkpt><trkpt lat="44.1456175" lon="9.6635914"><ele>170.0</ele><time>2026-04-04T13:20:54.378Z</time></trkpt><trkpt lat="44.1457095" lon="9.6635466"><ele>170.0</ele><time>2026-04-04T13:20:55.381Z</time></trkpt><trkpt lat="44.1458015" lon="9.6635002"><ele>170.0</ele><time>2026-04-04T13:20:56.382Z</time></trkpt><trkpt lat="44.1458909" lon="9.6634525"><ele>167.2</ele><time>2026-04-04T13:20:57.382Z</time></trkpt><trkpt lat="44.1459819" lon="9.6634046"><ele>164.4</ele><time>2026-04-04T13:20:58.382Z</time></trkpt><trkpt lat="44.1460765" lon="9.6633626"><ele>161.6</ele><time>2026-04-04T13:20:59.379Z</time></trkpt><trkpt lat="44.146173" lon="9.663333"><ele>158.8</ele><time>2026-04-04T13:21:00.382Z</time></trkpt><trkpt lat="44.1462685" lon="9.6633094"><ele>156.0</ele><time>2026-04-04T13:21:01.398Z</time></trkpt><trkpt lat="44.1463652" lon="9.6632806"><ele>156.0</ele><time>2026-04-04T13:21:02.385Z</time></trkpt><trkpt lat="44.1464617" lon="9.6632506"><ele>156.0</ele><time>2026-04-04T13:21:03.383Z</time></trkpt><trkpt lat="44.1465588" lon="9.6632223"><ele>156.0</ele><time>2026-04-04T13:21:04.38Z</time></trkpt><trkpt lat="44.1466578" lon="9.6631906"><ele>156.0</ele><time>2026-04-04T13:21:05.385Z</time></trkpt><trkpt lat="44.1467571" lon="9.6631623"><ele>156.0</ele><time>2026-04-04T13:21:06.38Z</time></trkpt><trkpt lat="44.1468567" lon="9.6631335"><ele>158.2</ele><time>2026-04-04T13:21:07.368Z</time></trkpt><trkpt lat="44.1469627" lon="9.6631033"><ele>160.39999999999998</ele><time>2026-04-04T13:21:08.368Z</time></trkpt><trkpt lat="44.147074" lon="9.6630786"><ele>162.6</ele><time>2026-04-04T13:21:09.367Z</time></trkpt><trkpt lat="44.147182" lon="9.6630488"><ele>164.79999999999998</ele><time>2026-04-04T13:21:10.361Z</time></trkpt><trkpt lat="44.1472924" lon="9.6630236"><ele>167.0</ele><time>2026-04-04T13:21:11.343Z</time></trkpt><trkpt lat="44.1474035" lon="9.6629923"><ele>169.2</ele><time>2026-04-04T13:21:12.364Z</time></trkpt><trkpt lat="44.1475155" lon="9.6629656"><ele>171.39999999999998</ele><time>2026-04-04T13:21:13.369Z</time></trkpt><trkpt lat="44.147622" lon="9.662934"><ele>173.60000000000002</ele><time>2026-04-04T13:21:14.369Z</time></trkpt><trkpt lat="44.1477217" lon="9.6628708"><ele>175.8</ele><time>2026-04-04T13:21:15.371Z</time></trkpt><trkpt lat="44.1478016" lon="9.6627612"><ele>178.0</ele><time>2026-04-04T13:21:16.367Z</time></trkpt><trkpt lat="44.1478254" lon="9.662626"><ele>170.0</ele><time>2026-04-04T13:21:17.36Z</time></trkpt><trkpt lat="44.1477914" lon="9.6624688"><ele>162.0</ele><time>2026-04-04T13:21:18.368Z</time></trkpt><trkpt lat="44.1477037" lon="9.6622971"><ele>154.0</ele><time>2026-04-04T13:21:19.366Z</time></trkpt><trkpt lat="44.14756" lon="9.6621151"><ele>141.5</ele><time>2026-04-04T13:21:20.371Z</time></trkpt><trkpt lat="44.1473066" lon="9.6619056"><ele>129.0</ele><time>2026-04-04T13:21:21.357Z</time></trkpt><trkpt lat="44.1470844" lon="9.6617067"><ele>129.0</ele><time>2026-04-04T13:21:22.356Z</time></trkpt><trkpt lat="44.1468861" lon="9.6614952"><ele>129.0</ele><time>2026-04-04T13:21:23.376Z</time></trkpt><trkpt lat="44.1467043" lon="9.661315"><ele>120.66666666666666</ele><time>2026-04-04T13:21:24.372Z</time></trkpt><trkpt lat="44.1465409" lon="9.6611509"><ele>112.33333333333333</ele><time>2026-04-04T13:21:25.372Z</time></trkpt><trkpt lat="44.1464007" lon="9.6609815"><ele>104.0</ele><time>2026-04-04T13:21:26.381Z</time></trkpt><trkpt lat="44.1462747" lon="9.6608239"><ele>104.0</ele><time>2026-04-04T13:21:27.372Z</time></trkpt><trkpt lat="44.1461717" lon="9.6606485"><ele>104.0</ele><time>2026-04-04T13:21:28.37Z</time></trkpt><trkpt lat="44.1460946" lon="9.6604696"><ele>104.0</ele><time>2026-04-04T13:21:29.373Z</time></trkpt><trkpt lat="44.1460418" lon="9.6602932"><ele>105.0</ele><time>2026-04-04T13:21:30.375Z</time></trkpt><trkpt lat="44.1460008" lon="9.6600707"><ele>106.0</ele><time>2026-04-04T13:21:31.38Z</time></trkpt><trkpt lat="44.1459614" lon="9.6598586"><ele>107.0</ele><time>2026-04-04T13:21:32.385Z</time></trkpt><trkpt lat="44.1459245" lon="9.6596708"><ele>107.0</ele><time>2026-04-04T13:21:33.367Z</time></trkpt><trkpt lat="44.1458886" lon="9.6595007"><ele>106.99999999999999</ele><time>2026-04-04T13:21:34.385Z</time></trkpt><trkpt lat="44.1458537" lon="9.6593552"><ele>106.99999999999999</ele><time>2026-04-04T13:21:35.379Z</time></trkpt><trkpt lat="44.1458402" lon="9.6592292"><ele>107.0</ele><time>2026-04-04T13:21:36.381Z</time></trkpt><trkpt lat="44.1458587" lon="9.6591051"><ele>107.0</ele><time>2026-04-04T13:21:37.379Z</time></trkpt><trkpt lat="44.1459208" lon="9.6590065"><ele>105.8</ele><time>2026-04-04T13:21:38.384Z</time></trkpt><trkpt lat="44.1460066" lon="9.6589559"><ele>104.6</ele><time>2026-04-04T13:21:39.38Z</time></trkpt><trkpt lat="44.1461137" lon="9.6589254"><ele>103.39999999999999</ele><time>2026-04-04T13:21:40.372Z</time></trkpt><trkpt lat="44.1462241" lon="9.6588982"><ele>102.19999999999999</ele><time>2026-04-04T13:21:41.366Z</time></trkpt><trkpt lat="44.1463425" lon="9.6589148"><ele>101.0</ele><time>2026-04-04T13:21:42.379Z</time></trkpt><trkpt lat="44.1464667" lon="9.6589846"><ele>103.33333333333333</ele><time>2026-04-04T13:21:43.376Z</time></trkpt><trkpt lat="44.14661" lon="9.6590995"><ele>105.66666666666666</ele><time>2026-04-04T13:21:44.379Z</time></trkpt><trkpt lat="44.1467537" lon="9.6592124"><ele>108.0</ele><time>2026-04-04T13:21:45.367Z</time></trkpt><trkpt lat="44.1469143" lon="9.6592984"><ele>108.0</ele><time>2026-04-04T13:21:46.379Z</time></trkpt><trkpt lat="44.1470979" lon="9.6593501"><ele>108.0</ele><time>2026-04-04T13:21:47.374Z</time></trkpt><trkpt lat="44.1472692" lon="9.659388"><ele>108.0</ele><time>2026-04-04T13:21:48.372Z</time></trkpt><trkpt lat="44.1474134" lon="9.6594245"><ele>110.4</ele><time>2026-04-04T13:21:49.373Z</time></trkpt><trkpt lat="44.1475386" lon="9.6594514"><ele>112.80000000000001</ele><time>2026-04-04T13:21:50.371Z</time></trkpt><trkpt lat="44.1476539" lon="9.6594669"><ele>115.2</ele><time>2026-04-04T13:21:51.365Z</time></trkpt><trkpt lat="44.1477634" lon="9.6594463"><ele>117.6</ele><time>2026-04-04T13:21:52.369Z</time></trkpt><trkpt lat="44.1478221" lon="9.6593723"><ele>120.0</ele><time>2026-04-04T13:21:53.464Z</time></trkpt><trkpt lat="44.1478606" lon="9.6592684"><ele>114.0</ele><time>2026-04-04T13:21:54.399Z</time></trkpt><trkpt lat="44.1478823" lon="9.6590912"><ele>108.0</ele><time>2026-04-04T13:21:55.397Z</time></trkpt><trkpt lat="44.1479096" lon="9.6588857"><ele>102.0</ele><time>2026-04-04T13:21:56.364Z</time></trkpt><trkpt lat="44.1479278" lon="9.6587191"><ele>96.0</ele><time>2026-04-04T13:21:57.379Z</time></trkpt><trkpt lat="44.1479434" lon="9.6585836"><ele>91.5</ele><time>2026-04-04T13:21:58.379Z</time></trkpt><trkpt lat="44.1480598" lon="9.6585008"><ele>87.0</ele><time>2026-04-04T13:22:00.368Z</time></trkpt><trkpt lat="44.1481763" lon="9.6585084"><ele>82.5</ele><time>2026-04-04T13:22:01.365Z</time></trkpt><trkpt lat="44.1483296" lon="9.6585257"><ele>78.0</ele><time>2026-04-04T13:22:02.36Z</time></trkpt><trkpt lat="44.148486" lon="9.6585303"><ele>78.0</ele><time>2026-04-04T13:22:03.376Z</time></trkpt><trkpt lat="44.1486279" lon="9.6585314"><ele>78.0</ele><time>2026-04-04T13:22:04.365Z</time></trkpt><trkpt lat="44.1487867" lon="9.6585323"><ele>78.0</ele><time>2026-04-04T13:22:05.373Z</time></trkpt><trkpt lat="44.1489469" lon="9.6585359"><ele>76.75</ele><time>2026-04-04T13:22:06.368Z</time></trkpt><trkpt lat="44.1491067" lon="9.6585481"><ele>75.5</ele><time>2026-04-04T13:22:07.362Z</time></trkpt><trkpt lat="44.149245" lon="9.6585565"><ele>74.25</ele><time>2026-04-04T13:22:08.362Z</time></trkpt><trkpt lat="44.1493554" lon="9.6585376"><ele>73.0</ele><time>2026-04-04T13:22:09.373Z</time></trkpt><trkpt lat="44.1494358" lon="9.6584741"><ele>73.0</ele><time>2026-04-04T13:22:10.367Z</time></trkpt><trkpt lat="44.1494571" lon="9.6583489"><ele>73.0</ele><time>2026-04-04T13:22:11.364Z</time></trkpt><trkpt lat="44.1494655" lon="9.6581808"><ele>73.0</ele><time>2026-04-04T13:22:12.367Z</time></trkpt><trkpt lat="44.1494224" lon="9.657964"><ele>73.0</ele><time>2026-04-04T13:22:13.381Z</time></trkpt><trkpt lat="44.1494025" lon="9.6577508"><ele>70.75</ele><time>2026-04-04T13:22:14.368Z</time></trkpt><trkpt lat="44.149373" lon="9.6575629"><ele>68.5</ele><time>2026-04-04T13:22:15.354Z</time></trkpt><trkpt lat="44.1493377" lon="9.65737"><ele>66.25</ele><time>2026-04-04T13:22:16.35Z</time></trkpt><trkpt lat="44.1492877" lon="9.6571732"><ele>64.0</ele><time>2026-04-04T13:22:17.362Z</time></trkpt><trkpt lat="44.1492246" lon="9.6569796"><ele>62.75</ele><time>2026-04-04T13:22:18.362Z</time></trkpt><trkpt lat="44.1491529" lon="9.6567967"><ele>61.5</ele><time>2026-04-04T13:22:19.358Z</time></trkpt><trkpt lat="44.1490933" lon="9.656647"><ele>60.25</ele><time>2026-04-04T13:22:20.359Z</time></trkpt><trkpt lat="44.1490458" lon="9.6565125"><ele>59.0</ele><time>2026-04-04T13:22:21.365Z</time></trkpt><trkpt lat="44.1490079" lon="9.656374"><ele>56.66666666666667</ele><time>2026-04-04T13:22:22.365Z</time></trkpt><trkpt lat="44.1489802" lon="9.6562495"><ele>54.333333333333336</ele><time>2026-04-04T13:22:23.362Z</time></trkpt><trkpt lat="44.1489635" lon="9.6560845"><ele>52.0</ele><time>2026-04-04T13:22:25.364Z</time></trkpt><trkpt lat="44.1489756" lon="9.6559884"><ele>49.66666666666667</ele><time>2026-04-04T13:22:26.365Z</time></trkpt><trkpt lat="44.1489988" lon="9.6558958"><ele>47.333333333333336</ele><time>2026-04-04T13:22:27.361Z</time></trkpt><trkpt lat="44.1490412" lon="9.6558162"><ele>45.0</ele><time>2026-04-04T13:22:28.352Z</time></trkpt><trkpt lat="44.1490956" lon="9.6557461"><ele>45.0</ele><time>2026-04-04T13:22:29.362Z</time></trkpt><trkpt lat="44.1491622" lon="9.6556893"><ele>45.0</ele><time>2026-04-04T13:22:30.368Z</time></trkpt><trkpt lat="44.1492382" lon="9.6556401"><ele>45.0</ele><time>2026-04-04T13:22:31.353Z</time></trkpt><trkpt lat="44.1493304" lon="9.6555951"><ele>45.0</ele><time>2026-04-04T13:22:32.36Z</time></trkpt><trkpt lat="44.1494254" lon="9.6555487"><ele>45.0</ele><time>2026-04-04T13:22:33.357Z</time></trkpt><trkpt lat="44.1495123" lon="9.6555056"><ele>45.0</ele><time>2026-04-04T13:22:34.374Z</time></trkpt><trkpt lat="44.149598" lon="9.655469"><ele>45.0</ele><time>2026-04-04T13:22:35.364Z</time></trkpt><trkpt lat="44.1496666" lon="9.6554385"><ele>45.0</ele><time>2026-04-04T13:22:36.359Z</time></trkpt><trkpt lat="44.1497352" lon="9.6554147"><ele>45.0</ele><time>2026-04-04T13:22:37.368Z</time></trkpt><trkpt lat="44.1497997" lon="9.6554134"><ele>45.0</ele><time>2026-04-04T13:22:38.364Z</time></trkpt><trkpt lat="44.1498662" lon="9.6554389"><ele>45.0</ele><time>2026-04-04T13:22:39.365Z</time></trkpt><trkpt lat="44.1499354" lon="9.6554976"><ele>45.0</ele><time>2026-04-04T13:22:40.37Z</time></trkpt><trkpt lat="44.1500005" lon="9.65556"><ele>46.71428571428571</ele><time>2026-04-04T13:22:41.363Z</time></trkpt><trkpt lat="44.1500718" lon="9.6555858"><ele>48.42857142857143</ele><time>2026-04-04T13:22:42.369Z</time></trkpt><trkpt lat="44.1501387" lon="9.655582"><ele>50.14285714285714</ele><time>2026-04-04T13:22:43.367Z</time></trkpt><trkpt lat="44.1501924" lon="9.6555249"><ele>51.857142857142854</ele><time>2026-04-04T13:22:44.365Z</time></trkpt><trkpt lat="44.1502233" lon="9.6554264"><ele>53.57142857142857</ele><time>2026-04-04T13:22:45.357Z</time></trkpt><trkpt lat="44.1502413" lon="9.6553239"><ele>55.285714285714285</ele><time>2026-04-04T13:22:46.36Z</time></trkpt><trkpt lat="44.1502342" lon="9.6552199"><ele>57.0</ele><time>2026-04-04T13:22:47.371Z</time></trkpt><trkpt lat="44.1501857" lon="9.655127"><ele>53.0</ele><time>2026-04-04T13:22:48.362Z</time></trkpt><trkpt lat="44.1501208" lon="9.6550571"><ele>49.0</ele><time>2026-04-04T13:22:49.363Z</time></trkpt><trkpt lat="44.1500561" lon="9.6550062"><ele>45.0</ele><time>2026-04-04T13:22:50.362Z</time></trkpt><trkpt lat="44.1499968" lon="9.6549704"><ele>41.0</ele><time>2026-04-04T13:22:51.365Z</time></trkpt><trkpt lat="44.1498957" lon="9.6549195"><ele>37.0</ele><time>2026-04-04T13:22:53.364Z</time></trkpt><trkpt lat="44.1498163" lon="9.6548745"><ele>33.0</ele><time>2026-04-04T13:22:55.365Z</time></trkpt><trkpt lat="44.1497496" lon="9.6548293"><ele>32.285714285714285</ele><time>2026-04-04T13:22:57.367Z</time></trkpt><trkpt lat="44.1496898" lon="9.6547588"><ele>31.571428571428573</ele><time>2026-04-04T13:23:25.365Z</time></trkpt><trkpt lat="44.1496474" lon="9.6546763"><ele>30.857142857142858</ele><time>2026-04-04T13:23:29.365Z</time></trkpt><trkpt lat="44.1495904" lon="9.6547322"><ele>30.142857142857142</ele><time>2026-04-04T13:23:34.36Z</time></trkpt><trkpt lat="44.1496126" lon="9.6548206"><ele>29.42857142857143</ele><time>2026-04-04T13:23:38.363Z</time></trkpt><trkpt lat="44.1496644" lon="9.6548754"><ele>28.714285714285715</ele><time>2026-04-04T13:23:57.376Z</time></trkpt><trkpt lat="44.1497381" lon="9.6549351"><ele>28.0</ele><time>2026-04-04T13:23:59.367Z</time></trkpt><trkpt lat="44.1498172" lon="9.6549855"><ele>28.0</ele><time>2026-04-04T13:24:01.375Z</time></trkpt><trkpt lat="44.1498999" lon="9.6550385"><ele>33.0</ele><time>2026-04-04T13:24:04.367Z</time></trkpt><trkpt lat="44.1499699" lon="9.6550868"><ele>33.0</ele><time>2026-04-04T13:24:07.377Z</time></trkpt><trkpt lat="44.1500313" lon="9.6551388"><ele>33.0</ele><time>2026-04-04T13:24:10.368Z</time></trkpt><trkpt lat="44.1501061" lon="9.6552105"><ele>33.0</ele><time>2026-04-04T13:24:14.371Z</time></trkpt><trkpt lat="44.1501473" lon="9.6552773"><ele>33.0</ele><time>2026-04-04T13:24:18.372Z</time></trkpt></trkseg><trkseg><trkpt lat="44.1497153" lon="9.6554762"><ele>45.0</ele><time>2026-04-04T15:04:26.515Z</time></trkpt><trkpt lat="44.1496349" lon="9.6555171"><ele>45.0</ele><time>2026-04-04T15:04:27.419Z</time></trkpt><trkpt lat="44.1495505" lon="9.6555674"><ele>45.0</ele><time>2026-04-04T15:04:28.425Z</time></trkpt><trkpt lat="44.1494488" lon="9.655633"><ele>45.0</ele><time>2026-04-04T15:04:29.416Z</time></trkpt><trkpt lat="44.1493403" lon="9.6557052"><ele>45.0</ele><time>2026-04-04T15:04:30.427Z</time></trkpt><trkpt lat="44.1492443" lon="9.6557788"><ele>45.0</ele><time>2026-04-04T15:04:31.411Z</time></trkpt><trkpt lat="44.1491559" lon="9.6558396"><ele>45.0</ele><time>2026-04-04T15:04:32.415Z</time></trkpt><trkpt lat="44.1490837" lon="9.6558967"><ele>45.0</ele><time>2026-04-04T15:04:33.433Z</time></trkpt><trkpt lat="44.1490288" lon="9.6559404"><ele>45.0</ele><time>2026-04-04T15:04:34.424Z</time></trkpt><trkpt lat="44.1489784" lon="9.6561167"><ele>45.0</ele><time>2026-04-04T15:04:52.424Z</time></trkpt><trkpt lat="44.1489841" lon="9.6562736"><ele>43.25</ele><time>2026-04-04T15:04:53.423Z</time></trkpt><trkpt lat="44.1490201" lon="9.6564517"><ele>41.5</ele><time>2026-04-04T15:04:54.418Z</time></trkpt><trkpt lat="44.1490721" lon="9.6566304"><ele>39.75</ele><time>2026-04-04T15:04:55.416Z</time></trkpt><trkpt lat="44.1491205" lon="9.6568142"><ele>38.0</ele><time>2026-04-04T15:04:56.432Z</time></trkpt><trkpt lat="44.1491718" lon="9.657003"><ele>46.666666666666664</ele><time>2026-04-04T15:04:57.424Z</time></trkpt><trkpt lat="44.1492278" lon="9.6572107"><ele>55.33333333333333</ele><time>2026-04-04T15:04:58.416Z</time></trkpt><trkpt lat="44.1492916" lon="9.6574387"><ele>64.0</ele><time>2026-04-04T15:04:59.416Z</time></trkpt><trkpt lat="44.1493411" lon="9.6576856"><ele>66.25</ele><time>2026-04-04T15:05:00.413Z</time></trkpt><trkpt lat="44.149366" lon="9.6579199"><ele>68.5</ele><time>2026-04-04T15:05:01.414Z</time></trkpt><trkpt lat="44.1493753" lon="9.6581117"><ele>70.75</ele><time>2026-04-04T15:05:02.413Z</time></trkpt><trkpt lat="44.1493797" lon="9.6582859"><ele>73.0</ele><time>2026-04-04T15:05:03.409Z</time></trkpt><trkpt lat="44.1493596" lon="9.6584098"><ele>73.0</ele><time>2026-04-04T15:05:04.43Z</time></trkpt><trkpt lat="44.1492989" lon="9.6585216"><ele>73.0</ele><time>2026-04-04T15:05:05.421Z</time></trkpt><trkpt lat="44.1492114" lon="9.6585691"><ele>73.0</ele><time>2026-04-04T15:05:06.412Z</time></trkpt><trkpt lat="44.1491014" lon="9.6585698"><ele>73.0</ele><time>2026-04-04T15:05:07.409Z</time></trkpt><trkpt lat="44.1489888" lon="9.6585351"><ele>73.0</ele><time>2026-04-04T15:05:08.406Z</time></trkpt><trkpt lat="44.1488588" lon="9.6585303"><ele>74.25</ele><time>2026-04-04T15:05:09.396Z</time></trkpt><trkpt lat="44.1487213" lon="9.6585339"><ele>75.5</ele><time>2026-04-04T15:05:10.398Z</time></trkpt><trkpt lat="44.1485736" lon="9.6585388"><ele>76.75</ele><time>2026-04-04T15:05:11.4Z</time></trkpt><trkpt lat="44.1484258" lon="9.658549"><ele>78.0</ele><time>2026-04-04T15:05:12.417Z</time></trkpt><trkpt lat="44.1482775" lon="9.6585468"><ele>77.6</ele><time>2026-04-04T15:05:13.416Z</time></trkpt><trkpt lat="44.1481378" lon="9.6585519"><ele>77.19999999999999</ele><time>2026-04-04T15:05:14.412Z</time></trkpt><trkpt lat="44.1480204" lon="9.6585639"><ele>76.8</ele><time>2026-04-04T15:05:15.419Z</time></trkpt><trkpt lat="44.1479299" lon="9.6585862"><ele>76.39999999999999</ele><time>2026-04-04T15:05:16.419Z</time></trkpt><trkpt lat="44.1478746" lon="9.658633"><ele>76.0</ele><time>2026-04-04T15:05:17.42Z</time></trkpt><trkpt lat="44.1478549" lon="9.6587569"><ele>81.0</ele><time>2026-04-04T15:05:18.416Z</time></trkpt><trkpt lat="44.1478254" lon="9.6589167"><ele>86.0</ele><time>2026-04-04T15:05:19.425Z</time></trkpt><trkpt lat="44.1477938" lon="9.6590955"><ele>91.0</ele><time>2026-04-04T15:05:20.428Z</time></trkpt><trkpt lat="44.1477593" lon="9.659269"><ele>96.0</ele><time>2026-04-04T15:05:21.421Z</time></trkpt><trkpt lat="44.1477126" lon="9.6594229"><ele>100.8</ele><time>2026-04-04T15:05:22.43Z</time></trkpt><trkpt lat="44.1476546" lon="9.6595254"><ele>105.6</ele><time>2026-04-04T15:05:23.453Z</time></trkpt><trkpt lat="44.1475778" lon="9.6595657"><ele>110.4</ele><time>2026-04-04T15:05:24.429Z</time></trkpt><trkpt lat="44.1474927" lon="9.6595547"><ele>115.2</ele><time>2026-04-04T15:05:25.436Z</time></trkpt><trkpt lat="44.1473943" lon="9.6595183"><ele>120.0</ele><time>2026-04-04T15:05:26.433Z</time></trkpt><trkpt lat="44.1472895" lon="9.659473"><ele>117.0</ele><time>2026-04-04T15:05:27.435Z</time></trkpt><trkpt lat="44.1471726" lon="9.6594271"><ele>114.0</ele><time>2026-04-04T15:05:28.438Z</time></trkpt><trkpt lat="44.1470427" lon="9.6593813"><ele>111.0</ele><time>2026-04-04T15:05:29.432Z</time></trkpt><trkpt lat="44.1469022" lon="9.6593359"><ele>108.0</ele><time>2026-04-04T15:05:30.438Z</time></trkpt><trkpt lat="44.1467599" lon="9.6592772"><ele>108.0</ele><time>2026-04-04T15:05:31.434Z</time></trkpt><trkpt lat="44.1466219" lon="9.6591798"><ele>108.0</ele><time>2026-04-04T15:05:32.426Z</time></trkpt><trkpt lat="44.146494" lon="9.6590685"><ele>108.0</ele><time>2026-04-04T15:05:33.426Z</time></trkpt><trkpt lat="44.1463594" lon="9.658991"><ele>106.25</ele><time>2026-04-04T15:05:34.431Z</time></trkpt><trkpt lat="44.1462379" lon="9.6589456"><ele>104.5</ele><time>2026-04-04T15:05:35.434Z</time></trkpt><trkpt lat="44.1461335" lon="9.6589304"><ele>102.75</ele><time>2026-04-04T15:05:36.427Z</time></trkpt><trkpt lat="44.1460218" lon="9.6589583"><ele>101.0</ele><time>2026-04-04T15:05:37.429Z</time></trkpt><trkpt lat="44.1459131" lon="9.6590093"><ele>100.99999999999999</ele><time>2026-04-04T15:05:38.421Z</time></trkpt><trkpt lat="44.1458282" lon="9.65909"><ele>101.0</ele><time>2026-04-04T15:05:39.416Z</time></trkpt><trkpt lat="44.145777" lon="9.6591793"><ele>101.0</ele><time>2026-04-04T15:05:40.43Z</time></trkpt><trkpt lat="44.1457628" lon="9.6592862"><ele>101.0</ele><time>2026-04-04T15:05:41.417Z</time></trkpt><trkpt lat="44.1457731" lon="9.6593971"><ele>100.99999999999999</ele><time>2026-04-04T15:05:42.415Z</time></trkpt><trkpt lat="44.1458054" lon="9.6595103"><ele>101.0</ele><time>2026-04-04T15:05:43.414Z</time></trkpt><trkpt lat="44.1458498" lon="9.6596366"><ele>102.5</ele><time>2026-04-04T15:05:44.419Z</time></trkpt><trkpt lat="44.145895" lon="9.6597752"><ele>104.0</ele><time>2026-04-04T15:05:45.413Z</time></trkpt><trkpt lat="44.1459441" lon="9.6599177"><ele>105.5</ele><time>2026-04-04T15:05:46.419Z</time></trkpt><trkpt lat="44.1459845" lon="9.6600669"><ele>107.0</ele><time>2026-04-04T15:05:47.413Z</time></trkpt><trkpt lat="44.1460219" lon="9.6602206"><ele>106.25</ele><time>2026-04-04T15:05:48.413Z</time></trkpt><trkpt lat="44.146057" lon="9.6603763"><ele>105.5</ele><time>2026-04-04T15:05:49.409Z</time></trkpt><trkpt lat="44.1460996" lon="9.6605325"><ele>104.75</ele><time>2026-04-04T15:05:50.411Z</time></trkpt><trkpt lat="44.1461544" lon="9.6606851"><ele>104.0</ele><time>2026-04-04T15:05:51.411Z</time></trkpt><trkpt lat="44.1462208" lon="9.6608293"><ele>104.0</ele><time>2026-04-04T15:05:52.408Z</time></trkpt><trkpt lat="44.1462946" lon="9.660963"><ele>104.0</ele><time>2026-04-04T15:05:53.396Z</time></trkpt><trkpt lat="44.1463798" lon="9.661082"><ele>104.0</ele><time>2026-04-04T15:05:54.407Z</time></trkpt><trkpt lat="44.1464685" lon="9.6611997"><ele>104.0</ele><time>2026-04-04T15:05:55.41Z</time></trkpt><trkpt lat="44.1465588" lon="9.6613126"><ele>109.0</ele><time>2026-04-04T15:05:56.416Z</time></trkpt><trkpt lat="44.1466394" lon="9.6614172"><ele>114.0</ele><time>2026-04-04T15:05:57.409Z</time></trkpt><trkpt lat="44.1467047" lon="9.661505"><ele>119.0</ele><time>2026-04-04T15:05:58.415Z</time></trkpt><trkpt lat="44.1467987" lon="9.6615618"><ele>124.0</ele><time>2026-04-04T15:06:00.407Z</time></trkpt><trkpt lat="44.1468963" lon="9.6615838"><ele>129.0</ele><time>2026-04-04T15:09:32.404Z</time></trkpt><trkpt lat="44.1469508" lon="9.6616544"><ele>129.0</ele><time>2026-04-04T15:09:33.414Z</time></trkpt><trkpt lat="44.1470175" lon="9.6617385"><ele>129.0</ele><time>2026-04-04T15:09:34.402Z</time></trkpt><trkpt lat="44.1471032" lon="9.6618378"><ele>129.0</ele><time>2026-04-04T15:09:35.401Z</time></trkpt><trkpt lat="44.1471992" lon="9.6619511"><ele>129.0</ele><time>2026-04-04T15:09:36.395Z</time></trkpt><trkpt lat="44.1472921" lon="9.6620701"><ele>135.25</ele><time>2026-04-04T15:09:37.394Z</time></trkpt><trkpt lat="44.1473943" lon="9.6621997"><ele>141.5</ele><time>2026-04-04T15:09:38.393Z</time></trkpt><trkpt lat="44.147499" lon="9.6623527"><ele>147.75</ele><time>2026-04-04T15:09:39.394Z</time></trkpt><trkpt lat="44.1475741" lon="9.6625025"><ele>154.0</ele><time>2026-04-04T15:09:40.427Z</time></trkpt><trkpt lat="44.1476182" lon="9.6626177"><ele>156.6</ele><time>2026-04-04T15:09:41.427Z</time></trkpt><trkpt lat="44.1476284" lon="9.6627879"><ele>159.2</ele><time>2026-04-04T15:09:43.41Z</time></trkpt><trkpt lat="44.147572" lon="9.6629458"><ele>161.79999999999998</ele><time>2026-04-04T15:09:45.408Z</time></trkpt><trkpt lat="44.1474764" lon="9.6630076"><ele>164.4</ele><time>2026-04-04T15:09:46.4Z</time></trkpt><trkpt lat="44.1474067" lon="9.6630246"><ele>167.0</ele><time>2026-04-04T15:09:47.392Z</time></trkpt><trkpt lat="44.1472825" lon="9.6630449"><ele>167.0</ele><time>2026-04-04T15:09:49.387Z</time></trkpt><trkpt lat="44.1471975" lon="9.6630706"><ele>167.0</ele><time>2026-04-04T15:09:50.392Z</time></trkpt><trkpt lat="44.1470534" lon="9.6631178"><ele>167.0</ele><time>2026-04-04T15:09:51.39Z</time></trkpt><trkpt lat="44.1468611" lon="9.6631812"><ele>167.0</ele><time>2026-04-04T15:09:52.387Z</time></trkpt><trkpt lat="44.1466175" lon="9.6632483"><ele>163.33333333333331</ele><time>2026-04-04T15:09:53.391Z</time></trkpt><trkpt lat="44.1464169" lon="9.6632855"><ele>159.66666666666666</ele><time>2026-04-04T15:09:54.389Z</time></trkpt><trkpt lat="44.1462524" lon="9.6633286"><ele>156.0</ele><time>2026-04-04T15:09:55.398Z</time></trkpt><trkpt lat="44.1461351" lon="9.6633463"><ele>156.0</ele><time>2026-04-04T15:09:56.409Z</time></trkpt><trkpt lat="44.1460423" lon="9.6633731"><ele>156.0</ele><time>2026-04-04T15:09:57.408Z</time></trkpt><trkpt lat="44.1459372" lon="9.6634206"><ele>156.0</ele><time>2026-04-04T15:09:59.418Z</time></trkpt><trkpt lat="44.1458838" lon="9.6634754"><ele>156.0</ele><time>2026-04-04T15:10:00.418Z</time></trkpt><trkpt lat="44.145813" lon="9.6635159"><ele>156.0</ele><time>2026-04-04T15:10:01.417Z</time></trkpt><trkpt lat="44.1457365" lon="9.6635587"><ele>156.0</ele><time>2026-04-04T15:10:02.422Z</time></trkpt><trkpt lat="44.1456735" lon="9.6635951"><ele>158.0</ele><time>2026-04-04T15:10:03.432Z</time></trkpt><trkpt lat="44.1456135" lon="9.6636346"><ele>160.0</ele><time>2026-04-04T15:10:05.428Z</time></trkpt><trkpt lat="44.1455428" lon="9.6636838"><ele>162.0</ele><time>2026-04-04T15:10:07.422Z</time></trkpt><trkpt lat="44.1454709" lon="9.6637288"><ele>164.0</ele><time>2026-04-04T15:10:09.429Z</time></trkpt><trkpt lat="44.1454111" lon="9.663777"><ele>166.0</ele><time>2026-04-04T15:10:10.428Z</time></trkpt><trkpt lat="44.1453475" lon="9.6638033"><ele>168.0</ele><time>2026-04-04T15:10:12.43Z</time></trkpt><trkpt lat="44.1452621" lon="9.6638397"><ele>170.0</ele><time>2026-04-04T15:10:16.431Z</time></trkpt><trkpt lat="44.145201" lon="9.6638854"><ele>170.0</ele><time>2026-04-04T15:10:17.437Z</time></trkpt><trkpt lat="44.1450993" lon="9.6639584"><ele>170.0</ele><time>2026-04-04T15:10:18.428Z</time></trkpt><trkpt lat="44.1450171" lon="9.6640175"><ele>170.0</ele><time>2026-04-04T15:10:19.435Z</time></trkpt><trkpt lat="44.1449617" lon="9.6641313"><ele>170.0</ele><time>2026-04-04T15:10:21.417Z</time></trkpt><trkpt lat="44.1450296" lon="9.6641176"><ele>170.0</ele><time>2026-04-04T15:12:00.449Z</time></trkpt><trkpt lat="44.1450938" lon="9.6640173"><ele>170.0</ele><time>2026-04-04T15:12:02.435Z</time></trkpt><trkpt lat="44.1451452" lon="9.663958"><ele>170.0</ele><time>2026-04-04T15:12:03.429Z</time></trkpt><trkpt lat="44.1452091" lon="9.6639016"><ele>170.0</ele><time>2026-04-04T15:12:04.416Z</time></trkpt><trkpt lat="44.1452988" lon="9.6638431"><ele>170.0</ele><time>2026-04-04T15:12:05.428Z</time></trkpt><trkpt lat="44.1454007" lon="9.6637901"><ele>170.0</ele><time>2026-04-04T15:12:06.423Z</time></trkpt><trkpt lat="44.1454913" lon="9.6637357"><ele>170.0</ele><time>2026-04-04T15:12:07.415Z</time></trkpt><trkpt lat="44.1455837" lon="9.6636789"><ele>166.5</ele><time>2026-04-04T15:12:08.427Z</time></trkpt><trkpt lat="44.1456925" lon="9.6636078"><ele>163.0</ele><time>2026-04-04T15:12:09.432Z</time></trkpt><trkpt lat="44.1458086" lon="9.6635318"><ele>159.5</ele><time>2026-04-04T15:12:10.435Z</time></trkpt><trkpt lat="44.1459134" lon="9.6634729"><ele>156.0</ele><time>2026-04-04T15:12:11.434Z</time></trkpt><trkpt lat="44.1459973" lon="9.6634346"><ele>156.0</ele><time>2026-04-04T15:12:12.426Z</time></trkpt><trkpt lat="44.1460729" lon="9.6634268"><ele>156.0</ele><time>2026-04-04T15:12:13.434Z</time></trkpt><trkpt lat="44.1461433" lon="9.663415"><ele>156.0</ele><time>2026-04-04T15:12:15.428Z</time></trkpt><trkpt lat="44.1460579" lon="9.6634089"><ele>156.0</ele><time>2026-04-04T15:12:18.431Z</time></trkpt><trkpt lat="44.1459369" lon="9.6634501"><ele>156.0</ele><time>2026-04-04T15:12:20.437Z</time></trkpt><trkpt lat="44.1458394" lon="9.6634947"><ele>156.0</ele><time>2026-04-04T15:12:22.453Z</time></trkpt><trkpt lat="44.1457595" lon="9.663534"><ele>156.0</ele><time>2026-04-04T15:12:25.451Z</time></trkpt><trkpt lat="44.1456715" lon="9.6635917"><ele>156.0</ele><time>2026-04-04T15:12:28.449Z</time></trkpt><trkpt lat="44.1456033" lon="9.6636365"><ele>156.0</ele><time>2026-04-04T15:12:31.447Z</time></trkpt><trkpt lat="44.1455378" lon="9.6636878"><ele>156.0</ele><time>2026-04-04T15:12:33.446Z</time></trkpt><trkpt lat="44.1453908" lon="9.6637796"><ele>159.5</ele><time>2026-04-04T15:12:35.429Z</time></trkpt><trkpt lat="44.1452666" lon="9.6638714"><ele>163.0</ele><time>2026-04-04T15:12:36.427Z</time></trkpt><trkpt lat="44.1451186" lon="9.6639869"><ele>166.5</ele><time>2026-04-04T15:12:37.431Z</time></trkpt><trkpt lat="44.1450194" lon="9.6640686"><ele>170.0</ele><time>2026-04-04T15:12:38.431Z</time></trkpt><trkpt lat="44.144974" lon="9.6641487"><ele>170.0</ele><time>2026-04-04T15:12:40.441Z</time></trkpt><trkpt lat="44.1449671" lon="9.6642932"><ele>170.0</ele><time>2026-04-04T15:13:11.449Z</time></trkpt><trkpt lat="44.1450431" lon="9.6644259"><ele>170.0</ele><time>2026-04-04T15:13:13.439Z</time></trkpt><trkpt lat="44.1451485" lon="9.6644852"><ele>170.0</ele><time>2026-04-04T15:13:15.439Z</time></trkpt><trkpt lat="44.1452485" lon="9.6644675"><ele>170.0</ele><time>2026-04-04T15:13:17.434Z</time></trkpt><trkpt lat="44.1453157" lon="9.6644536"><ele>170.0</ele><time>2026-04-04T15:13:19.458Z</time></trkpt><trkpt lat="44.1453865" lon="9.6644742"><ele>170.0</ele><time>2026-04-04T15:13:21.46Z</time></trkpt><trkpt lat="44.1454642" lon="9.664522"><ele>170.0</ele><time>2026-04-04T15:13:24.452Z</time></trkpt><trkpt lat="44.1455422" lon="9.6644298"><ele>170.0</ele><time>2026-04-04T15:13:26.453Z</time></trkpt><trkpt lat="44.1455978" lon="9.6642982"><ele>170.0</ele><time>2026-04-04T15:13:28.454Z</time></trkpt><trkpt lat="44.1456772" lon="9.6641695"><ele>175.0</ele><time>2026-04-04T15:13:30.443Z</time></trkpt><trkpt lat="44.1457346" lon="9.6641029"><ele>180.0</ele><time>2026-04-04T15:13:31.436Z</time></trkpt><trkpt lat="44.1458161" lon="9.664027"><ele>185.0</ele><time>2026-04-04T15:13:32.436Z</time></trkpt><trkpt lat="44.1459119" lon="9.6639563"><ele>190.0</ele><time>2026-04-04T15:13:33.438Z</time></trkpt><trkpt lat="44.146023" lon="9.6639039"><ele>195.0</ele><time>2026-04-04T15:13:34.429Z</time></trkpt><trkpt lat="44.146151" lon="9.6638817"><ele>195.0</ele><time>2026-04-04T15:13:35.423Z</time></trkpt><trkpt lat="44.146293" lon="9.6638805"><ele>195.0</ele><time>2026-04-04T15:13:36.426Z</time></trkpt><trkpt lat="44.1464439" lon="9.6638818"><ele>195.0</ele><time>2026-04-04T15:13:37.427Z</time></trkpt><trkpt lat="44.1465934" lon="9.6638832"><ele>195.0</ele><time>2026-04-04T15:13:38.426Z</time></trkpt><trkpt lat="44.1467459" lon="9.6638994"><ele>201.66666666666669</ele><time>2026-04-04T15:13:39.431Z</time></trkpt><trkpt lat="44.146905" lon="9.6639245"><ele>208.33333333333334</ele><time>2026-04-04T15:13:40.42Z</time></trkpt><trkpt lat="44.147056" lon="9.6639407"><ele>215.0</ele><time>2026-04-04T15:13:41.412Z</time></trkpt><trkpt lat="44.1472088" lon="9.6639602"><ele>215.0</ele><time>2026-04-04T15:13:42.416Z</time></trkpt><trkpt lat="44.1473461" lon="9.6639706"><ele>215.0</ele><time>2026-04-04T15:13:43.413Z</time></trkpt><trkpt lat="44.1474596" lon="9.6639612"><ele>215.0</ele><time>2026-04-04T15:13:44.414Z</time></trkpt><trkpt lat="44.1475677" lon="9.6639665"><ele>215.0</ele><time>2026-04-04T15:13:45.402Z</time></trkpt><trkpt lat="44.1476856" lon="9.6639656"><ele>217.5</ele><time>2026-04-04T15:13:46.424Z</time></trkpt><trkpt lat="44.147803" lon="9.6639651"><ele>220.0</ele><time>2026-04-04T15:13:47.414Z</time></trkpt><trkpt lat="44.1479143" lon="9.6639756"><ele>222.5</ele><time>2026-04-04T15:13:48.423Z</time></trkpt><trkpt lat="44.1480256" lon="9.6639635"><ele>225.0</ele><time>2026-04-04T15:13:49.426Z</time></trkpt><trkpt lat="44.1481412" lon="9.6639478"><ele>224.4</ele><time>2026-04-04T15:13:50.423Z</time></trkpt><trkpt lat="44.1482513" lon="9.6639113"><ele>223.8</ele><time>2026-04-04T15:13:51.425Z</time></trkpt><trkpt lat="44.1483499" lon="9.6638505"><ele>223.2</ele><time>2026-04-04T15:13:52.412Z</time></trkpt><trkpt lat="44.1484422" lon="9.6637678"><ele>222.6</ele><time>2026-04-04T15:13:53.421Z</time></trkpt><trkpt lat="44.1485302" lon="9.6636694"><ele>222.0</ele><time>2026-04-04T15:13:54.417Z</time></trkpt><trkpt lat="44.1486077" lon="9.6635546"><ele>217.25</ele><time>2026-04-04T15:13:55.432Z</time></trkpt><trkpt lat="44.1486739" lon="9.6634185"><ele>212.5</ele><time>2026-04-04T15:13:56.429Z</time></trkpt><trkpt lat="44.1487234" lon="9.6632655"><ele>207.75</ele><time>2026-04-04T15:13:57.424Z</time></trkpt><trkpt lat="44.1487574" lon="9.6631024"><ele>203.0</ele><time>2026-04-04T15:13:58.42Z</time></trkpt><trkpt lat="44.1487815" lon="9.662926"><ele>200.0</ele><time>2026-04-04T15:13:59.43Z</time></trkpt><trkpt lat="44.1488066" lon="9.6627589"><ele>197.0</ele><time>2026-04-04T15:14:00.439Z</time></trkpt><trkpt lat="44.1488429" lon="9.6625936"><ele>194.0</ele><time>2026-04-04T15:14:01.437Z</time></trkpt><trkpt lat="44.1488864" lon="9.6624393"><ele>191.0</ele><time>2026-04-04T15:14:02.438Z</time></trkpt><trkpt lat="44.1489557" lon="9.6622925"><ele>191.0</ele><time>2026-04-04T15:14:03.433Z</time></trkpt><trkpt lat="44.1490386" lon="9.6621723"><ele>191.0</ele><time>2026-04-04T15:14:04.444Z</time></trkpt><trkpt lat="44.1491358" lon="9.6620913"><ele>191.0</ele><time>2026-04-04T15:14:05.428Z</time></trkpt><trkpt lat="44.1492421" lon="9.6620364"><ele>191.0</ele><time>2026-04-04T15:14:06.434Z</time></trkpt><trkpt lat="44.1493591" lon="9.662001"><ele>191.60000000000002</ele><time>2026-04-04T15:14:07.439Z</time></trkpt><trkpt lat="44.1494734" lon="9.6619648"><ele>192.2</ele><time>2026-04-04T15:14:08.438Z</time></trkpt><trkpt lat="44.1495898" lon="9.6619357"><ele>192.8</ele><time>2026-04-04T15:14:09.441Z</time></trkpt><trkpt lat="44.149698" lon="9.6619301"><ele>193.39999999999998</ele><time>2026-04-04T15:14:10.438Z</time></trkpt><trkpt lat="44.1498022" lon="9.6619443"><ele>194.0</ele><time>2026-04-04T15:14:11.439Z</time></trkpt><trkpt lat="44.1499036" lon="9.6619781"><ele>205.75</ele><time>2026-04-04T15:14:12.441Z</time></trkpt><trkpt lat="44.1499995" lon="9.6620445"><ele>217.5</ele><time>2026-04-04T15:14:13.432Z</time></trkpt><trkpt lat="44.1500862" lon="9.6621324"><ele>229.25</ele><time>2026-04-04T15:14:14.431Z</time></trkpt><trkpt lat="44.1501696" lon="9.6622471"><ele>241.0</ele><time>2026-04-04T15:14:15.428Z</time></trkpt><trkpt lat="44.1502539" lon="9.6623816"><ele>241.0</ele><time>2026-04-04T15:14:16.429Z</time></trkpt><trkpt lat="44.1503459" lon="9.6625233"><ele>241.0</ele><time>2026-04-04T15:14:17.424Z</time></trkpt><trkpt lat="44.1504379" lon="9.6626662"><ele>241.0</ele><time>2026-04-04T15:14:18.426Z</time></trkpt><trkpt lat="44.1505432" lon="9.6627883"><ele>241.0</ele><time>2026-04-04T15:14:19.411Z</time></trkpt><trkpt lat="44.1506585" lon="9.6628685"><ele>248.5</ele><time>2026-04-04T15:14:20.411Z</time></trkpt><trkpt lat="44.1507838" lon="9.6629137"><ele>256.0</ele><time>2026-04-04T15:14:21.42Z</time></trkpt><trkpt lat="44.1509104" lon="9.662917"><ele>263.5</ele><time>2026-04-04T15:14:22.415Z</time></trkpt><trkpt lat="44.1510398" lon="9.6628894"><ele>271.0</ele><time>2026-04-04T15:14:23.394Z</time></trkpt><trkpt lat="44.151156" lon="9.6628366"><ele>260.25</ele><time>2026-04-04T15:14:24.398Z</time></trkpt><trkpt lat="44.151265" lon="9.6627553"><ele>249.5</ele><time>2026-04-04T15:14:25.4Z</time></trkpt><trkpt lat="44.1513614" lon="9.6626604"><ele>238.75</ele><time>2026-04-04T15:14:26.405Z</time></trkpt><trkpt lat="44.1514494" lon="9.6625433"><ele>228.0</ele><time>2026-04-04T15:14:27.391Z</time></trkpt><trkpt lat="44.1515217" lon="9.6624142"><ele>233.25</ele><time>2026-04-04T15:14:28.406Z</time></trkpt><trkpt lat="44.1515761" lon="9.6622702"><ele>238.5</ele><time>2026-04-04T15:14:29.406Z</time></trkpt><trkpt lat="44.1516033" lon="9.6621085"><ele>243.75</ele><time>2026-04-04T15:14:30.399Z</time></trkpt><trkpt lat="44.1516088" lon="9.6619424"><ele>249.0</ele><time>2026-04-04T15:14:31.392Z</time></trkpt><trkpt lat="44.1516003" lon="9.6617799"><ele>249.0</ele><time>2026-04-04T15:14:32.408Z</time></trkpt><trkpt lat="44.151581" lon="9.6616161"><ele>249.0</ele><time>2026-04-04T15:14:33.407Z</time></trkpt><trkpt lat="44.1515721" lon="9.661461"><ele>249.0</ele><time>2026-04-04T15:14:34.402Z</time></trkpt><trkpt lat="44.1515783" lon="9.6613036"><ele>249.0</ele><time>2026-04-04T15:14:35.41Z</time></trkpt><trkpt lat="44.1516031" lon="9.661154"><ele>244.75</ele><time>2026-04-04T15:14:36.411Z</time></trkpt><trkpt lat="44.1516522" lon="9.6610021"><ele>240.5</ele><time>2026-04-04T15:14:37.425Z</time></trkpt><trkpt lat="44.1517238" lon="9.6608709"><ele>236.25</ele><time>2026-04-04T15:14:38.423Z</time></trkpt><trkpt lat="44.1518146" lon="9.6607629"><ele>232.0</ele><time>2026-04-04T15:14:39.434Z</time></trkpt><trkpt lat="44.1519156" lon="9.6606796"><ele>232.0</ele><time>2026-04-04T15:14:40.419Z</time></trkpt><trkpt lat="44.1520254" lon="9.6606165"><ele>232.0</ele><time>2026-04-04T15:14:41.432Z</time></trkpt><trkpt lat="44.1521432" lon="9.660588"><ele>232.0</ele><time>2026-04-04T15:14:42.424Z</time></trkpt><trkpt lat="44.1522594" lon="9.6605843"><ele>232.0</ele><time>2026-04-04T15:14:43.424Z</time></trkpt><trkpt lat="44.1523762" lon="9.6606112"><ele>236.75</ele><time>2026-04-04T15:14:44.423Z</time></trkpt><trkpt lat="44.1524969" lon="9.660653"><ele>241.5</ele><time>2026-04-04T15:14:45.431Z</time></trkpt><trkpt lat="44.1526223" lon="9.6606968"><ele>246.25</ele><time>2026-04-04T15:14:46.424Z</time></trkpt><trkpt lat="44.1527482" lon="9.6607044"><ele>251.0</ele><time>2026-04-04T15:14:47.421Z</time></trkpt><trkpt lat="44.1528829" lon="9.6607023"><ele>251.0</ele><time>2026-04-04T15:14:48.425Z</time></trkpt><trkpt lat="44.1530161" lon="9.6606689"><ele>251.0</ele><time>2026-04-04T15:14:49.428Z</time></trkpt><trkpt lat="44.1531616" lon="9.6606171"><ele>251.0</ele><time>2026-04-04T15:14:50.432Z</time></trkpt><trkpt lat="44.1533234" lon="9.6605092"><ele>249.33333333333334</ele><time>2026-04-04T15:14:51.438Z</time></trkpt><trkpt lat="44.1534796" lon="9.6603874"><ele>247.66666666666669</ele><time>2026-04-04T15:14:52.453Z</time></trkpt><trkpt lat="44.1536189" lon="9.6602688"><ele>246.0</ele><time>2026-04-04T15:14:53.442Z</time></trkpt><trkpt lat="44.1537396" lon="9.6601442"><ele>249.75</ele><time>2026-04-04T15:14:54.438Z</time></trkpt><trkpt lat="44.1538519" lon="9.6600174"><ele>253.5</ele><time>2026-04-04T15:14:55.446Z</time></trkpt><trkpt lat="44.1539699" lon="9.6598945"><ele>257.25</ele><time>2026-04-04T15:14:56.443Z</time></trkpt><trkpt lat="44.1540846" lon="9.6597675"><ele>261.0</ele><time>2026-04-04T15:14:57.444Z</time></trkpt><trkpt lat="44.1542083" lon="9.659665"><ele>261.0</ele><time>2026-04-04T15:14:58.436Z</time></trkpt><trkpt lat="44.154336" lon="9.6595751"><ele>261.0</ele><time>2026-04-04T15:14:59.42Z</time></trkpt><trkpt lat="44.15446" lon="9.6595119"><ele>261.0</ele><time>2026-04-04T15:15:00.43Z</time></trkpt><trkpt lat="44.1545874" lon="9.6594377"><ele>261.0</ele><time>2026-04-04T15:15:01.386Z</time></trkpt><trkpt lat="44.1547541" lon="9.6593594"><ele>258.75</ele><time>2026-04-04T15:15:02.41Z</time></trkpt><trkpt lat="44.1548993" lon="9.659301"><ele>256.5</ele><time>2026-04-04T15:15:03.431Z</time></trkpt><trkpt lat="44.1550271" lon="9.6592557"><ele>254.25</ele><time>2026-04-04T15:15:04.43Z</time></trkpt><trkpt lat="44.1551634" lon="9.6592147"><ele>252.0</ele><time>2026-04-04T15:15:05.433Z</time></trkpt><trkpt lat="44.1553042" lon="9.6591688"><ele>252.0</ele><time>2026-04-04T15:15:06.429Z</time></trkpt><trkpt lat="44.1554415" lon="9.6591237"><ele>252.0</ele><time>2026-04-04T15:15:07.437Z</time></trkpt><trkpt lat="44.155578" lon="9.6590865"><ele>252.0</ele><time>2026-04-04T15:15:08.436Z</time></trkpt><trkpt lat="44.1557034" lon="9.6590597"><ele>252.0</ele><time>2026-04-04T15:15:09.433Z</time></trkpt><trkpt lat="44.1558188" lon="9.659083"><ele>255.0</ele><time>2026-04-04T15:15:10.431Z</time></trkpt><trkpt lat="44.155927" lon="9.65913"><ele>258.0</ele><time>2026-04-04T15:15:11.433Z</time></trkpt><trkpt lat="44.1560327" lon="9.6591992"><ele>261.0</ele><time>2026-04-04T15:15:12.443Z</time></trkpt><trkpt lat="44.1561287" lon="9.6593039"><ele>264.0</ele><time>2026-04-04T15:15:13.433Z</time></trkpt><trkpt lat="44.1562409" lon="9.6594357"><ele>270.0</ele><time>2026-04-04T15:15:14.445Z</time></trkpt><trkpt lat="44.1563658" lon="9.6595996"><ele>276.0</ele><time>2026-04-04T15:15:15.44Z</time></trkpt><trkpt lat="44.1565306" lon="9.6598276"><ele>282.0</ele><time>2026-04-04T15:15:16.447Z</time></trkpt><trkpt lat="44.156695" lon="9.6600758"><ele>296.0</ele><time>2026-04-04T15:15:17.431Z</time></trkpt><trkpt lat="44.1568612" lon="9.6603156"><ele>310.0</ele><time>2026-04-04T15:15:18.42Z</time></trkpt><trkpt lat="44.1570401" lon="9.6605277"><ele>310.0</ele><time>2026-04-04T15:15:19.418Z</time></trkpt><trkpt lat="44.1572373" lon="9.6607117"><ele>310.0</ele><time>2026-04-04T15:15:20.422Z</time></trkpt><trkpt lat="44.1574389" lon="9.6608251"><ele>302.66666666666663</ele><time>2026-04-04T15:15:21.41Z</time></trkpt><trkpt lat="44.157658" lon="9.6609077"><ele>295.3333333333333</ele><time>2026-04-04T15:15:22.429Z</time></trkpt><trkpt lat="44.1578672" lon="9.6609532"><ele>288.0</ele><time>2026-04-04T15:15:23.421Z</time></trkpt><trkpt lat="44.158048" lon="9.6609821"><ele>286.5</ele><time>2026-04-04T15:15:24.541Z</time></trkpt><trkpt lat="44.1583763" lon="9.6608945"><ele>285.0</ele><time>2026-04-04T15:15:26.414Z</time></trkpt><trkpt lat="44.1585227" lon="9.6607761"><ele>285.0</ele><time>2026-04-04T15:15:27.415Z</time></trkpt><trkpt lat="44.1586419" lon="9.6606057"><ele>285.0</ele><time>2026-04-04T15:15:28.424Z</time></trkpt><trkpt lat="44.1587262" lon="9.6603486"><ele>285.0</ele><time>2026-04-04T15:15:29.396Z</time></trkpt><trkpt lat="44.1588077" lon="9.6600856"><ele>287.3333333333333</ele><time>2026-04-04T15:15:30.403Z</time></trkpt><trkpt lat="44.1588998" lon="9.6598108"><ele>289.66666666666663</ele><time>2026-04-04T15:15:31.415Z</time></trkpt><trkpt lat="44.1590027" lon="9.6595576"><ele>292.0</ele><time>2026-04-04T15:15:32.407Z</time></trkpt><trkpt lat="44.1591057" lon="9.6592973"><ele>292.0</ele><time>2026-04-04T15:15:33.41Z</time></trkpt><trkpt lat="44.1592044" lon="9.6590596"><ele>292.0</ele><time>2026-04-04T15:15:34.413Z</time></trkpt><trkpt lat="44.1592932" lon="9.6588276"><ele>292.0</ele><time>2026-04-04T15:15:35.407Z</time></trkpt><trkpt lat="44.1593749" lon="9.6586005"><ele>289.0</ele><time>2026-04-04T15:15:36.395Z</time></trkpt><trkpt lat="44.1594401" lon="9.6583722"><ele>286.0</ele><time>2026-04-04T15:15:37.41Z</time></trkpt><trkpt lat="44.1594681" lon="9.658127"><ele>283.0</ele><time>2026-04-04T15:15:38.401Z</time></trkpt><trkpt lat="44.1594681" lon="9.6578988"><ele>281.0</ele><time>2026-04-04T15:15:39.397Z</time></trkpt><trkpt lat="44.159444" lon="9.6576789"><ele>279.0</ele><time>2026-04-04T15:15:40.405Z</time></trkpt><trkpt lat="44.1594154" lon="9.6574476"><ele>277.0</ele><time>2026-04-04T15:15:41.404Z</time></trkpt><trkpt lat="44.1593912" lon="9.6572228"><ele>277.0</ele><time>2026-04-04T15:15:42.406Z</time></trkpt><trkpt lat="44.1593751" lon="9.6569932"><ele>277.0</ele><time>2026-04-04T15:15:43.409Z</time></trkpt><trkpt lat="44.1593781" lon="9.6567619"><ele>277.0</ele><time>2026-04-04T15:15:44.404Z</time></trkpt><trkpt lat="44.1594066" lon="9.6565303"><ele>275.66666666666663</ele><time>2026-04-04T15:15:45.409Z</time></trkpt><trkpt lat="44.1594737" lon="9.6563137"><ele>274.3333333333333</ele><time>2026-04-04T15:15:46.409Z</time></trkpt><trkpt lat="44.1595838" lon="9.6561288"><ele>273.0</ele><time>2026-04-04T15:15:47.429Z</time></trkpt><trkpt lat="44.1597238" lon="9.6559934"><ele>279.3333333333333</ele><time>2026-04-04T15:15:48.425Z</time></trkpt><trkpt lat="44.1598892" lon="9.6559225"><ele>285.66666666666663</ele><time>2026-04-04T15:15:49.413Z</time></trkpt><trkpt lat="44.1600678" lon="9.6559112"><ele>292.0</ele><time>2026-04-04T15:15:50.413Z</time></trkpt><trkpt lat="44.1602629" lon="9.6559041"><ele>292.0</ele><time>2026-04-04T15:15:51.416Z</time></trkpt><trkpt lat="44.1604803" lon="9.655887"><ele>292.0</ele><time>2026-04-04T15:15:52.428Z</time></trkpt><trkpt lat="44.1607384" lon="9.6558614"><ele>298.5</ele><time>2026-04-04T15:15:53.421Z</time></trkpt><trkpt lat="44.1610073" lon="9.6557998"><ele>305.0</ele><time>2026-04-04T15:15:54.42Z</time></trkpt><trkpt lat="44.1612634" lon="9.655716"><ele>305.0</ele><time>2026-04-04T15:15:55.429Z</time></trkpt><trkpt lat="44.1615094" lon="9.6556376"><ele>305.0</ele><time>2026-04-04T15:15:56.436Z</time></trkpt><trkpt lat="44.1617218" lon="9.6555533"><ele>311.0</ele><time>2026-04-04T15:15:57.426Z</time></trkpt><trkpt lat="44.161917" lon="9.6554784"><ele>317.0</ele><time>2026-04-04T15:15:58.427Z</time></trkpt><trkpt lat="44.1621026" lon="9.655398"><ele>323.0</ele><time>2026-04-04T15:15:59.414Z</time></trkpt><trkpt lat="44.1622886" lon="9.6553134"><ele>326.6666666666667</ele><time>2026-04-04T15:16:00.421Z</time></trkpt><trkpt lat="44.162476" lon="9.6552249"><ele>330.3333333333333</ele><time>2026-04-04T15:16:01.405Z</time></trkpt><trkpt lat="44.1626235" lon="9.6551212"><ele>334.0</ele><time>2026-04-04T15:16:02.372Z</time></trkpt><trkpt lat="44.1627517" lon="9.6549698"><ele>334.0</ele><time>2026-04-04T15:16:03.374Z</time></trkpt><trkpt lat="44.1629525" lon="9.6549708"><ele>334.0</ele><time>2026-04-04T15:16:04.394Z</time></trkpt><trkpt lat="44.1631395" lon="9.654944"><ele>334.0</ele><time>2026-04-04T15:16:05.4Z</time></trkpt><trkpt lat="44.1633076" lon="9.6548835"><ele>334.66666666666663</ele><time>2026-04-04T15:16:06.404Z</time></trkpt><trkpt lat="44.1634508" lon="9.6547761"><ele>335.3333333333333</ele><time>2026-04-04T15:16:07.404Z</time></trkpt><trkpt lat="44.1635627" lon="9.6545909"><ele>336.0</ele><time>2026-04-04T15:16:08.409Z</time></trkpt><trkpt lat="44.1636207" lon="9.6543515"><ele>329.6666666666667</ele><time>2026-04-04T15:16:09.409Z</time></trkpt><trkpt lat="44.1636289" lon="9.6540844"><ele>323.33333333333337</ele><time>2026-04-04T15:16:10.401Z</time></trkpt><trkpt lat="44.1636487" lon="9.6538684"><ele>317.0</ele><time>2026-04-04T15:16:11.412Z</time></trkpt><trkpt lat="44.1636767" lon="9.6536362"><ele>317.0</ele><time>2026-04-04T15:16:12.39Z</time></trkpt><trkpt lat="44.1636991" lon="9.6533894"><ele>317.0</ele><time>2026-04-04T15:16:13.411Z</time></trkpt><trkpt lat="44.1637176" lon="9.6531484"><ele>317.0</ele><time>2026-04-04T15:16:14.411Z</time></trkpt><trkpt lat="44.1637108" lon="9.6528993"><ele>322.33333333333337</ele><time>2026-04-04T15:16:15.414Z</time></trkpt><trkpt lat="44.1636844" lon="9.6526697"><ele>327.6666666666667</ele><time>2026-04-04T15:16:16.393Z</time></trkpt><trkpt lat="44.1636163" lon="9.652435"><ele>333.0</ele><time>2026-04-04T15:16:17.416Z</time></trkpt><trkpt lat="44.1635474" lon="9.6522143"><ele>333.0</ele><time>2026-04-04T15:16:18.424Z</time></trkpt><trkpt lat="44.1634871" lon="9.6519933"><ele>333.0</ele><time>2026-04-04T15:16:19.401Z</time></trkpt><trkpt lat="44.1634314" lon="9.6517753"><ele>333.0</ele><time>2026-04-04T15:16:20.403Z</time></trkpt><trkpt lat="44.1633716" lon="9.6515412"><ele>333.3333333333333</ele><time>2026-04-04T15:16:21.395Z</time></trkpt><trkpt lat="44.1633191" lon="9.6513133"><ele>333.66666666666663</ele><time>2026-04-04T15:16:22.391Z</time></trkpt><trkpt lat="44.1632755" lon="9.6510613"><ele>334.0</ele><time>2026-04-04T15:16:23.411Z</time></trkpt><trkpt lat="44.1632058" lon="9.6508112"><ele>329.0</ele><time>2026-04-04T15:16:24.416Z</time></trkpt><trkpt lat="44.163142" lon="9.6505818"><ele>324.0</ele><time>2026-04-04T15:16:25.423Z</time></trkpt><trkpt lat="44.1630815" lon="9.650345"><ele>319.0</ele><time>2026-04-04T15:16:26.441Z</time></trkpt><trkpt lat="44.1630331" lon="9.6501455"><ele>319.0</ele><time>2026-04-04T15:16:27.421Z</time></trkpt><trkpt lat="44.1629909" lon="9.6499651"><ele>319.0</ele><time>2026-04-04T15:16:28.439Z</time></trkpt><trkpt lat="44.1629679" lon="9.6497887"><ele>319.0</ele><time>2026-04-04T15:16:29.416Z</time></trkpt><trkpt lat="44.1629848" lon="9.649616"><ele>319.0</ele><time>2026-04-04T15:16:30.45Z</time></trkpt><trkpt lat="44.163038" lon="9.6494801"><ele>320.5</ele><time>2026-04-04T15:16:31.437Z</time></trkpt><trkpt lat="44.1631068" lon="9.6493808"><ele>322.0</ele><time>2026-04-04T15:16:32.434Z</time></trkpt><trkpt lat="44.1631778" lon="9.649305"><ele>323.5</ele><time>2026-04-04T15:16:33.437Z</time></trkpt><trkpt lat="44.1632514" lon="9.6492448"><ele>325.0</ele><time>2026-04-04T15:16:34.427Z</time></trkpt><trkpt lat="44.1633273" lon="9.6492123"><ele>326.5</ele><time>2026-04-04T15:16:35.426Z</time></trkpt><trkpt lat="44.1634073" lon="9.6491981"><ele>328.0</ele><time>2026-04-04T15:16:36.446Z</time></trkpt><trkpt lat="44.1634881" lon="9.6492065"><ele>328.66666666666663</ele><time>2026-04-04T15:16:37.43Z</time></trkpt><trkpt lat="44.1635697" lon="9.6492271"><ele>329.3333333333333</ele><time>2026-04-04T15:16:38.435Z</time></trkpt><trkpt lat="44.1636419" lon="9.6492726"><ele>330.0</ele><time>2026-04-04T15:16:39.441Z</time></trkpt><trkpt lat="44.1637057" lon="9.6493381"><ele>330.6666666666667</ele><time>2026-04-04T15:16:40.436Z</time></trkpt><trkpt lat="44.1637653" lon="9.6494081"><ele>331.33333333333337</ele><time>2026-04-04T15:16:41.442Z</time></trkpt><trkpt lat="44.1638172" lon="9.6494835"><ele>332.0</ele><time>2026-04-04T15:16:42.444Z</time></trkpt><trkpt lat="44.1638801" lon="9.6495969"><ele>332.6</ele><time>2026-04-04T15:16:44.433Z</time></trkpt><trkpt lat="44.1638334" lon="9.6496588"><ele>333.20000000000005</ele><time>2026-04-04T15:16:50.438Z</time></trkpt><trkpt lat="44.1637365" lon="9.6496361"><ele>333.8</ele><time>2026-04-04T15:17:08.439Z</time></trkpt><trkpt lat="44.1636636" lon="9.6495765"><ele>334.4</ele><time>2026-04-04T15:17:09.432Z</time></trkpt><trkpt lat="44.1635709" lon="9.6495139"><ele>335.0</ele><time>2026-04-04T15:17:10.434Z</time></trkpt><trkpt lat="44.1634757" lon="9.6494725"><ele>335.0</ele><time>2026-04-04T15:17:11.432Z</time></trkpt><trkpt lat="44.1633798" lon="9.6494568"><ele>335.0</ele><time>2026-04-04T15:17:12.44Z</time></trkpt><trkpt lat="44.1632891" lon="9.6494767"><ele>335.0</ele><time>2026-04-04T15:17:13.431Z</time></trkpt><trkpt lat="44.1632095" lon="9.6495278"><ele>335.0</ele><time>2026-04-04T15:17:14.434Z</time></trkpt><trkpt lat="44.1631488" lon="9.6496116"><ele>335.0</ele><time>2026-04-04T15:17:15.44Z</time></trkpt><trkpt lat="44.163114" lon="9.6497224"><ele>335.0</ele><time>2026-04-04T15:17:16.431Z</time></trkpt><trkpt lat="44.1631083" lon="9.6498364"><ele>335.0</ele><time>2026-04-04T15:17:17.436Z</time></trkpt><trkpt lat="44.1631348" lon="9.6499492"><ele>335.0</ele><time>2026-04-04T15:17:18.437Z</time></trkpt><trkpt lat="44.1632033" lon="9.6500521"><ele>335.0</ele><time>2026-04-04T15:17:19.441Z</time></trkpt><trkpt lat="44.1633034" lon="9.6501297"><ele>335.0</ele><time>2026-04-04T15:17:20.447Z</time></trkpt><trkpt lat="44.1634159" lon="9.6501957"><ele>335.0</ele><time>2026-04-04T15:17:21.431Z</time></trkpt><trkpt lat="44.1635396" lon="9.6502562"><ele>334.75</ele><time>2026-04-04T15:17:22.427Z</time></trkpt><trkpt lat="44.1636648" lon="9.6503238"><ele>334.5</ele><time>2026-04-04T15:17:23.426Z</time></trkpt><trkpt lat="44.1637677" lon="9.6504122"><ele>334.25</ele><time>2026-04-04T15:17:24.418Z</time></trkpt><trkpt lat="44.1638337" lon="9.6505226"><ele>334.0</ele><time>2026-04-04T15:17:25.433Z</time></trkpt><trkpt lat="44.1638511" lon="9.6506648"><ele>334.0</ele><time>2026-04-04T15:17:26.445Z</time></trkpt><trkpt lat="44.1638291" lon="9.6508215"><ele>334.0</ele><time>2026-04-04T15:17:27.416Z</time></trkpt><trkpt lat="44.1637782" lon="9.6509659"><ele>334.0</ele><time>2026-04-04T15:17:28.433Z</time></trkpt><trkpt lat="44.1637045" lon="9.6510962"><ele>334.0</ele><time>2026-04-04T15:17:29.425Z</time></trkpt><trkpt lat="44.1636324" lon="9.6512264"><ele>337.0</ele><time>2026-04-04T15:17:30.424Z</time></trkpt><trkpt lat="44.1635807" lon="9.6513664"><ele>340.0</ele><time>2026-04-04T15:17:31.414Z</time></trkpt><trkpt lat="44.1635516" lon="9.6515275"><ele>343.0</ele><time>2026-04-04T15:17:32.434Z</time></trkpt><trkpt lat="44.1635634" lon="9.6516845"><ele>346.0</ele><time>2026-04-04T15:17:33.426Z</time></trkpt><trkpt lat="44.1636249" lon="9.6518233"><ele>346.0</ele><time>2026-04-04T15:17:34.419Z</time></trkpt><trkpt lat="44.1637186" lon="9.6519297"><ele>346.0</ele><time>2026-04-04T15:17:35.424Z</time></trkpt><trkpt lat="44.1638258" lon="9.6520197"><ele>346.0</ele><time>2026-04-04T15:17:36.426Z</time></trkpt><trkpt lat="44.1639313" lon="9.6521045"><ele>346.0</ele><time>2026-04-04T15:17:37.407Z</time></trkpt><trkpt lat="44.1640336" lon="9.6521825"><ele>347.8</ele><time>2026-04-04T15:17:38.423Z</time></trkpt><trkpt lat="44.1641279" lon="9.6522506"><ele>349.6</ele><time>2026-04-04T15:17:39.409Z</time></trkpt><trkpt lat="44.1642184" lon="9.6523036"><ele>351.4</ele><time>2026-04-04T15:17:40.417Z</time></trkpt><trkpt lat="44.1643126" lon="9.6523496"><ele>353.2</ele><time>2026-04-04T15:17:41.426Z</time></trkpt><trkpt lat="44.1644055" lon="9.6524015"><ele>355.0</ele><time>2026-04-04T15:17:42.419Z</time></trkpt><trkpt lat="44.1645002" lon="9.6524579"><ele>355.0</ele><time>2026-04-04T15:17:43.426Z</time></trkpt><trkpt lat="44.1645927" lon="9.6525163"><ele>355.0</ele><time>2026-04-04T15:17:44.427Z</time></trkpt><trkpt lat="44.1646757" lon="9.6525735"><ele>355.0</ele><time>2026-04-04T15:17:45.42Z</time></trkpt><trkpt lat="44.1647493" lon="9.652633"><ele>355.0</ele><time>2026-04-04T15:17:46.419Z</time></trkpt><trkpt lat="44.1648092" lon="9.6527192"><ele>355.0</ele><time>2026-04-04T15:17:47.419Z</time></trkpt><trkpt lat="44.1648268" lon="9.6528271"><ele>355.0</ele><time>2026-04-04T15:17:48.44Z</time></trkpt><trkpt lat="44.164804" lon="9.6529581"><ele>354.6</ele><time>2026-04-04T15:17:49.429Z</time></trkpt><trkpt lat="44.1647995" lon="9.6530576"><ele>354.2</ele><time>2026-04-04T15:17:50.413Z</time></trkpt><trkpt lat="44.1647156" lon="9.6531881"><ele>353.79999999999995</ele><time>2026-04-04T15:17:51.401Z</time></trkpt><trkpt lat="44.1646207" lon="9.6532706"><ele>353.4</ele><time>2026-04-04T15:17:52.408Z</time></trkpt><trkpt lat="44.1645648" lon="9.6533483"><ele>353.0</ele><time>2026-04-04T15:17:53.415Z</time></trkpt><trkpt lat="44.1644988" lon="9.653426"><ele>353.0</ele><time>2026-04-04T15:17:54.415Z</time></trkpt><trkpt lat="44.1644419" lon="9.6535246"><ele>353.0</ele><time>2026-04-04T15:17:55.417Z</time></trkpt><trkpt lat="44.1643847" lon="9.6536453"><ele>353.0</ele><time>2026-04-04T15:17:56.428Z</time></trkpt><trkpt lat="44.1643377" lon="9.6537776"><ele>353.0</ele><time>2026-04-04T15:17:57.434Z</time></trkpt><trkpt lat="44.1643575" lon="9.6539181"><ele>353.0</ele><time>2026-04-04T15:17:58.432Z</time></trkpt><trkpt lat="44.1644305" lon="9.654032"><ele>353.75</ele><time>2026-04-04T15:17:59.42Z</time></trkpt><trkpt lat="44.1645283" lon="9.6541337"><ele>354.5</ele><time>2026-04-04T15:18:00.429Z</time></trkpt><trkpt lat="44.1646335" lon="9.6542357"><ele>355.25</ele><time>2026-04-04T15:18:01.414Z</time></trkpt><trkpt lat="44.1647387" lon="9.6543337"><ele>356.0</ele><time>2026-04-04T15:18:02.412Z</time></trkpt><trkpt lat="44.1648296" lon="9.6544372"><ele>361.5</ele><time>2026-04-04T15:18:03.412Z</time></trkpt><trkpt lat="44.1649254" lon="9.6545415"><ele>367.0</ele><time>2026-04-04T15:18:04.402Z</time></trkpt><trkpt lat="44.1650198" lon="9.6546463"><ele>372.5</ele><time>2026-04-04T15:18:05.419Z</time></trkpt><trkpt lat="44.1651231" lon="9.6547479"><ele>378.0</ele><time>2026-04-04T15:18:06.401Z</time></trkpt><trkpt lat="44.1652261" lon="9.6548593"><ele>378.0</ele><time>2026-04-04T15:18:07.408Z</time></trkpt><trkpt lat="44.1653291" lon="9.654971"><ele>378.0</ele><time>2026-04-04T15:18:08.39Z</time></trkpt><trkpt lat="44.165416" lon="9.6550762"><ele>378.0</ele><time>2026-04-04T15:18:09.423Z</time></trkpt><trkpt lat="44.1654862" lon="9.6551573"><ele>378.0</ele><time>2026-04-04T15:18:10.403Z</time></trkpt><trkpt lat="44.1655403" lon="9.6552586"><ele>378.0</ele><time>2026-04-04T15:18:11.413Z</time></trkpt><trkpt lat="44.1655792" lon="9.6553766"><ele>380.2</ele><time>2026-04-04T15:18:12.418Z</time></trkpt><trkpt lat="44.1656059" lon="9.6555041"><ele>382.4</ele><time>2026-04-04T15:18:13.398Z</time></trkpt><trkpt lat="44.165618" lon="9.6556299"><ele>384.59999999999997</ele><time>2026-04-04T15:18:14.414Z</time></trkpt><trkpt lat="44.1656325" lon="9.6557527"><ele>386.79999999999995</ele><time>2026-04-04T15:18:15.396Z</time></trkpt><trkpt lat="44.1656437" lon="9.6558766"><ele>389.0</ele><time>2026-04-04T15:18:16.413Z</time></trkpt><trkpt lat="44.165654" lon="9.6560045"><ele>394.3333333333333</ele><time>2026-04-04T15:18:17.405Z</time></trkpt><trkpt lat="44.1656613" lon="9.6561342"><ele>399.66666666666663</ele><time>2026-04-04T15:18:18.417Z</time></trkpt><trkpt lat="44.165671" lon="9.6562501"><ele>405.0</ele><time>2026-04-04T15:18:19.41Z</time></trkpt><trkpt lat="44.1656854" lon="9.6563555"><ele>410.33333333333337</ele><time>2026-04-04T15:18:20.405Z</time></trkpt><trkpt lat="44.1656826" lon="9.6564539"><ele>415.6666666666667</ele><time>2026-04-04T15:18:21.427Z</time></trkpt><trkpt lat="44.1656649" lon="9.6565453"><ele>421.0</ele><time>2026-04-04T15:18:22.416Z</time></trkpt><trkpt lat="44.1656208" lon="9.6566117"><ele>421.0</ele><time>2026-04-04T15:18:23.409Z</time></trkpt><trkpt lat="44.1655474" lon="9.6566481"><ele>421.0</ele><time>2026-04-04T15:18:24.405Z</time></trkpt><trkpt lat="44.1654642" lon="9.6566416"><ele>421.0</ele><time>2026-04-04T15:18:25.41Z</time></trkpt><trkpt lat="44.1653722" lon="9.656586"><ele>421.0</ele><time>2026-04-04T15:18:26.406Z</time></trkpt><trkpt lat="44.1652826" lon="9.6565168"><ele>421.0</ele><time>2026-04-04T15:18:27.402Z</time></trkpt><trkpt lat="44.1651894" lon="9.6564527"><ele>421.0</ele><time>2026-04-04T15:18:28.417Z</time></trkpt><trkpt lat="44.165088" lon="9.656402"><ele>421.0</ele><time>2026-04-04T15:18:29.413Z</time></trkpt><trkpt lat="44.1649881" lon="9.6563587"><ele>421.0</ele><time>2026-04-04T15:18:30.413Z</time></trkpt><trkpt lat="44.1648753" lon="9.6563227"><ele>421.0</ele><time>2026-04-04T15:18:31.411Z</time></trkpt><trkpt lat="44.1647567" lon="9.6562934"><ele>421.0</ele><time>2026-04-04T15:18:32.421Z</time></trkpt><trkpt lat="44.164633" lon="9.6562681"><ele>419.75</ele><time>2026-04-04T15:18:33.419Z</time></trkpt><trkpt lat="44.1645035" lon="9.6562425"><ele>418.5</ele><time>2026-04-04T15:18:34.424Z</time></trkpt><trkpt lat="44.1643794" lon="9.656225"><ele>417.25</ele><time>2026-04-04T15:18:35.411Z</time></trkpt><trkpt lat="44.1642657" lon="9.656222"><ele>416.0</ele><time>2026-04-04T15:18:36.435Z</time></trkpt><trkpt lat="44.1641652" lon="9.6562616"><ele>415.99999999999994</ele><time>2026-04-04T15:18:37.434Z</time></trkpt><trkpt lat="44.1640831" lon="9.6563232"><ele>416.0</ele><time>2026-04-04T15:18:38.427Z</time></trkpt><trkpt lat="44.1640172" lon="9.6564118"><ele>416.0</ele><time>2026-04-04T15:18:39.436Z</time></trkpt><trkpt lat="44.1639637" lon="9.6565197"><ele>416.0</ele><time>2026-04-04T15:18:40.43Z</time></trkpt><trkpt lat="44.163925" lon="9.6566305"><ele>415.99999999999994</ele><time>2026-04-04T15:18:41.429Z</time></trkpt><trkpt lat="44.1639007" lon="9.6567336"><ele>416.0</ele><time>2026-04-04T15:18:42.44Z</time></trkpt><trkpt lat="44.1638822" lon="9.6568397"><ele>417.6</ele><time>2026-04-04T15:18:43.43Z</time></trkpt><trkpt lat="44.1638616" lon="9.6569486"><ele>419.20000000000005</ele><time>2026-04-04T15:18:44.426Z</time></trkpt><trkpt lat="44.1638353" lon="9.6570634"><ele>420.79999999999995</ele><time>2026-04-04T15:18:45.425Z</time></trkpt><trkpt lat="44.1637902" lon="9.6571701"><ele>422.4</ele><time>2026-04-04T15:18:46.448Z</time></trkpt><trkpt lat="44.1637174" lon="9.6572587"><ele>424.0</ele><time>2026-04-04T15:18:47.424Z</time></trkpt><trkpt lat="44.1636182" lon="9.6572933"><ele>424.0</ele><time>2026-04-04T15:18:48.436Z</time></trkpt><trkpt lat="44.1635042" lon="9.6572775"><ele>424.0</ele><time>2026-04-04T15:18:49.431Z</time></trkpt><trkpt lat="44.1633849" lon="9.657252"><ele>424.0</ele><time>2026-04-04T15:18:50.44Z</time></trkpt><trkpt lat="44.1632692" lon="9.6572485"><ele>424.0</ele><time>2026-04-04T15:18:51.439Z</time></trkpt><trkpt lat="44.1631622" lon="9.657273"><ele>420.0</ele><time>2026-04-04T15:18:52.445Z</time></trkpt><trkpt lat="44.1630721" lon="9.6573434"><ele>416.0</ele><time>2026-04-04T15:18:53.435Z</time></trkpt><trkpt lat="44.1630169" lon="9.657455"><ele>412.0</ele><time>2026-04-04T15:18:54.436Z</time></trkpt><trkpt lat="44.1630061" lon="9.6576054"><ele>408.0</ele><time>2026-04-04T15:18:55.439Z</time></trkpt><trkpt lat="44.1630258" lon="9.6577745"><ele>404.0</ele><time>2026-04-04T15:18:56.426Z</time></trkpt><trkpt lat="44.1630612" lon="9.6579472"><ele>404.0</ele><time>2026-04-04T15:18:57.435Z</time></trkpt><trkpt lat="44.1631103" lon="9.6581313"><ele>404.0</ele><time>2026-04-04T15:18:58.429Z</time></trkpt><trkpt lat="44.1631576" lon="9.6583463"><ele>404.0</ele><time>2026-04-04T15:18:59.44Z</time></trkpt><trkpt lat="44.1631992" lon="9.6585898"><ele>417.0</ele><time>2026-04-04T15:19:00.436Z</time></trkpt><trkpt lat="44.1632306" lon="9.6588275"><ele>430.0</ele><time>2026-04-04T15:19:01.425Z</time></trkpt><trkpt lat="44.1632662" lon="9.6590408"><ele>443.0</ele><time>2026-04-04T15:19:02.418Z</time></trkpt><trkpt lat="44.163305" lon="9.659224"><ele>443.0</ele><time>2026-04-04T15:19:03.418Z</time></trkpt><trkpt lat="44.1633321" lon="9.6593713"><ele>442.99999999999994</ele><time>2026-04-04T15:19:04.406Z</time></trkpt><trkpt lat="44.1633396" lon="9.6594937"><ele>442.99999999999994</ele><time>2026-04-04T15:19:05.418Z</time></trkpt><trkpt lat="44.1633333" lon="9.6596297"><ele>443.0</ele><time>2026-04-04T15:19:06.413Z</time></trkpt><trkpt lat="44.1632832" lon="9.6597511"><ele>443.0</ele><time>2026-04-04T15:19:07.412Z</time></trkpt><trkpt lat="44.1632143" lon="9.6598566"><ele>447.4</ele><time>2026-04-04T15:19:08.419Z</time></trkpt><trkpt lat="44.1631189" lon="9.6599237"><ele>451.79999999999995</ele><time>2026-04-04T15:19:09.419Z</time></trkpt><trkpt lat="44.1630093" lon="9.6599584"><ele>456.2</ele><time>2026-04-04T15:19:10.409Z</time></trkpt><trkpt lat="44.1629054" lon="9.6599951"><ele>460.6</ele><time>2026-04-04T15:19:11.404Z</time></trkpt><trkpt lat="44.1628093" lon="9.6600249"><ele>465.0</ele><time>2026-04-04T15:19:12.407Z</time></trkpt><trkpt lat="44.1627172" lon="9.6600534"><ele>465.0</ele><time>2026-04-04T15:19:13.41Z</time></trkpt><trkpt lat="44.1626235" lon="9.6600454"><ele>465.0</ele><time>2026-04-04T15:19:14.417Z</time></trkpt><trkpt lat="44.162534" lon="9.6600048"><ele>465.0</ele><time>2026-04-04T15:19:15.414Z</time></trkpt><trkpt lat="44.1624371" lon="9.659912"><ele>465.0</ele><time>2026-04-04T15:19:16.416Z</time></trkpt><trkpt lat="44.1623374" lon="9.6597932"><ele>465.0</ele><time>2026-04-04T15:19:17.429Z</time></trkpt><trkpt lat="44.1622391" lon="9.6596951"><ele>462.6</ele><time>2026-04-04T15:19:18.422Z</time></trkpt><trkpt lat="44.1621402" lon="9.6596386"><ele>460.2</ele><time>2026-04-04T15:19:19.422Z</time></trkpt><trkpt lat="44.1620334" lon="9.659609"><ele>457.79999999999995</ele><time>2026-04-04T15:19:20.419Z</time></trkpt><trkpt lat="44.1619225" lon="9.6595926"><ele>455.4</ele><time>2026-04-04T15:19:21.436Z</time></trkpt><trkpt lat="44.1618243" lon="9.6595901"><ele>453.0</ele><time>2026-04-04T15:19:22.431Z</time></trkpt><trkpt lat="44.1617423" lon="9.6595979"><ele>453.0</ele><time>2026-04-04T15:19:23.443Z</time></trkpt><trkpt lat="44.1616684" lon="9.6596316"><ele>452.99999999999994</ele><time>2026-04-04T15:19:24.444Z</time></trkpt><trkpt lat="44.1615955" lon="9.6597009"><ele>452.99999999999994</ele><time>2026-04-04T15:19:25.435Z</time></trkpt><trkpt lat="44.1615341" lon="9.6598171"><ele>453.0</ele><time>2026-04-04T15:19:26.445Z</time></trkpt><trkpt lat="44.161487" lon="9.6599522"><ele>453.0</ele><time>2026-04-04T15:19:27.423Z</time></trkpt><trkpt lat="44.1614504" lon="9.6600912"><ele>447.5</ele><time>2026-04-04T15:19:28.436Z</time></trkpt><trkpt lat="44.1614095" lon="9.6602378"><ele>442.0</ele><time>2026-04-04T15:19:29.417Z</time></trkpt><trkpt lat="44.1613618" lon="9.6603913"><ele>436.5</ele><time>2026-04-04T15:19:30.43Z</time></trkpt><trkpt lat="44.1613156" lon="9.6605543"><ele>431.0</ele><time>2026-04-04T15:19:31.417Z</time></trkpt><trkpt lat="44.1612649" lon="9.6607186"><ele>431.0</ele><time>2026-04-04T15:19:32.413Z</time></trkpt><trkpt lat="44.1612167" lon="9.6608777"><ele>431.0</ele><time>2026-04-04T15:19:33.406Z</time></trkpt><trkpt lat="44.1611822" lon="9.6610415"><ele>431.0</ele><time>2026-04-04T15:19:34.412Z</time></trkpt><trkpt lat="44.1611724" lon="9.6612077"><ele>431.0</ele><time>2026-04-04T15:19:35.41Z</time></trkpt><trkpt lat="44.1611952" lon="9.6613683"><ele>432.6</ele><time>2026-04-04T15:19:36.424Z</time></trkpt><trkpt lat="44.1612348" lon="9.6615193"><ele>434.20000000000005</ele><time>2026-04-04T15:19:37.41Z</time></trkpt><trkpt lat="44.1612848" lon="9.6616698"><ele>435.79999999999995</ele><time>2026-04-04T15:19:38.408Z</time></trkpt><trkpt lat="44.1613332" lon="9.6618117"><ele>437.4</ele><time>2026-04-04T15:19:39.413Z</time></trkpt><trkpt lat="44.1613565" lon="9.6619425"><ele>439.0</ele><time>2026-04-04T15:19:40.413Z</time></trkpt><trkpt lat="44.1613532" lon="9.6620686"><ele>443.0</ele><time>2026-04-04T15:19:41.419Z</time></trkpt><trkpt lat="44.1613131" lon="9.6621849"><ele>447.0</ele><time>2026-04-04T15:19:42.41Z</time></trkpt><trkpt lat="44.1612623" lon="9.6622932"><ele>451.0</ele><time>2026-04-04T15:19:43.414Z</time></trkpt><trkpt lat="44.1612075" lon="9.6624227"><ele>455.0</ele><time>2026-04-04T15:19:44.411Z</time></trkpt><trkpt lat="44.1611258" lon="9.6626064"><ele>459.0</ele><time>2026-04-04T15:19:45.414Z</time></trkpt><trkpt lat="44.1610247" lon="9.6628552"><ele>464.33333333333337</ele><time>2026-04-04T15:19:46.407Z</time></trkpt><trkpt lat="44.1609501" lon="9.663093"><ele>469.6666666666667</ele><time>2026-04-04T15:19:47.399Z</time></trkpt><trkpt lat="44.1608922" lon="9.6632896"><ele>475.0</ele><time>2026-04-04T15:19:48.41Z</time></trkpt><trkpt lat="44.1608439" lon="9.6634341"><ele>475.0</ele><time>2026-04-04T15:19:49.405Z</time></trkpt><trkpt lat="44.1608105" lon="9.6635516"><ele>475.0</ele><time>2026-04-04T15:19:50.403Z</time></trkpt><trkpt lat="44.1607636" lon="9.6636664"><ele>475.0</ele><time>2026-04-04T15:19:51.409Z</time></trkpt><trkpt lat="44.1607136" lon="9.6637955"><ele>475.0</ele><time>2026-04-04T15:19:52.402Z</time></trkpt><trkpt lat="44.160652" lon="9.6639216"><ele>475.0</ele><time>2026-04-04T15:19:53.408Z</time></trkpt><trkpt lat="44.1605897" lon="9.6640316"><ele>474.0</ele><time>2026-04-04T15:19:54.422Z</time></trkpt><trkpt lat="44.1605173" lon="9.6641393"><ele>473.0</ele><time>2026-04-04T15:19:55.41Z</time></trkpt><trkpt lat="44.1604328" lon="9.6642609"><ele>472.0</ele><time>2026-04-04T15:19:56.418Z</time></trkpt><trkpt lat="44.1603207" lon="9.6644276"><ele>471.0</ele><time>2026-04-04T15:19:57.416Z</time></trkpt><trkpt lat="44.1601278" lon="9.6646447"><ele>474.0</ele><time>2026-04-04T15:19:58.414Z</time></trkpt><trkpt lat="44.159911" lon="9.6648968"><ele>477.0</ele><time>2026-04-04T15:19:59.416Z</time></trkpt><trkpt lat="44.159728" lon="9.6651192"><ele>490.66666666666663</ele><time>2026-04-04T15:20:00.41Z</time></trkpt><trkpt lat="44.1595597" lon="9.665299"><ele>504.3333333333333</ele><time>2026-04-04T15:20:01.421Z</time></trkpt><trkpt lat="44.159373" lon="9.6654208"><ele>518.0</ele><time>2026-04-04T15:20:02.406Z</time></trkpt><trkpt lat="44.1591544" lon="9.6654964"><ele>512.3333333333333</ele><time>2026-04-04T15:20:03.403Z</time></trkpt><trkpt lat="44.1589594" lon="9.6655678"><ele>506.66666666666663</ele><time>2026-04-04T15:20:04.403Z</time></trkpt><trkpt lat="44.1587782" lon="9.6656307"><ele>501.0</ele><time>2026-04-04T15:20:05.412Z</time></trkpt><trkpt lat="44.1586015" lon="9.6657103"><ele>501.0</ele><time>2026-04-04T15:20:06.406Z</time></trkpt><trkpt lat="44.1584112" lon="9.6657664"><ele>501.0</ele><time>2026-04-04T15:20:07.418Z</time></trkpt><trkpt lat="44.1582057" lon="9.6658097"><ele>501.0</ele><time>2026-04-04T15:20:08.413Z</time></trkpt><trkpt lat="44.1580145" lon="9.6658422"><ele>501.33333333333337</ele><time>2026-04-04T15:20:09.413Z</time></trkpt><trkpt lat="44.1578307" lon="9.6658764"><ele>501.6666666666667</ele><time>2026-04-04T15:20:10.409Z</time></trkpt><trkpt lat="44.1576481" lon="9.6659104"><ele>502.0</ele><time>2026-04-04T15:20:11.42Z</time></trkpt><trkpt lat="44.1574647" lon="9.6659194"><ele>500.33333333333337</ele><time>2026-04-04T15:20:12.421Z</time></trkpt><trkpt lat="44.1572784" lon="9.6659459"><ele>498.66666666666663</ele><time>2026-04-04T15:20:13.424Z</time></trkpt><trkpt lat="44.157105" lon="9.6660013"><ele>497.0</ele><time>2026-04-04T15:20:14.424Z</time></trkpt><trkpt lat="44.1569417" lon="9.6660786"><ele>502.3333333333333</ele><time>2026-04-04T15:20:15.436Z</time></trkpt><trkpt lat="44.1567714" lon="9.6661651"><ele>507.66666666666663</ele><time>2026-04-04T15:20:16.447Z</time></trkpt><trkpt lat="44.1565925" lon="9.6662172"><ele>513.0</ele><time>2026-04-04T15:20:17.435Z</time></trkpt><trkpt lat="44.1564176" lon="9.6662199"><ele>516.0</ele><time>2026-04-04T15:20:18.434Z</time></trkpt><trkpt lat="44.1562469" lon="9.6662021"><ele>519.0</ele><time>2026-04-04T15:20:19.435Z</time></trkpt><trkpt lat="44.156084" lon="9.666198"><ele>522.0</ele><time>2026-04-04T15:20:20.421Z</time></trkpt><trkpt lat="44.155917" lon="9.6662224"><ele>522.0</ele><time>2026-04-04T15:20:21.436Z</time></trkpt><trkpt lat="44.1557339" lon="9.666277"><ele>522.0</ele><time>2026-04-04T15:20:22.434Z</time></trkpt><trkpt lat="44.1555512" lon="9.6663411"><ele>522.0</ele><time>2026-04-04T15:20:23.43Z</time></trkpt><trkpt lat="44.1553879" lon="9.666396"><ele>517.75</ele><time>2026-04-04T15:20:24.435Z</time></trkpt><trkpt lat="44.1552474" lon="9.6664646"><ele>513.5</ele><time>2026-04-04T15:20:25.419Z</time></trkpt><trkpt lat="44.1551184" lon="9.6665531"><ele>509.25</ele><time>2026-04-04T15:20:26.426Z</time></trkpt><trkpt lat="44.1550098" lon="9.6666743"><ele>505.0</ele><time>2026-04-04T15:20:27.433Z</time></trkpt><trkpt lat="44.1549515" lon="9.6668304"><ele>506.75</ele><time>2026-04-04T15:20:28.432Z</time></trkpt><trkpt lat="44.1549452" lon="9.6670181"><ele>508.5</ele><time>2026-04-04T15:20:29.437Z</time></trkpt><trkpt lat="44.1549579" lon="9.667207"><ele>510.25</ele><time>2026-04-04T15:20:30.442Z</time></trkpt><trkpt lat="44.1549978" lon="9.667428"><ele>512.0</ele><time>2026-04-04T15:20:31.423Z</time></trkpt><trkpt lat="44.1550377" lon="9.6676543"><ele>513.5</ele><time>2026-04-04T15:20:32.427Z</time></trkpt><trkpt lat="44.1550745" lon="9.6678626"><ele>515.0</ele><time>2026-04-04T15:20:33.429Z</time></trkpt><trkpt lat="44.1550669" lon="9.6680546"><ele>516.5</ele><time>2026-04-04T15:20:34.422Z</time></trkpt><trkpt lat="44.1550023" lon="9.6682254"><ele>518.0</ele><time>2026-04-04T15:20:35.413Z</time></trkpt><trkpt lat="44.154932" lon="9.6683878"><ele>518.0</ele><time>2026-04-04T15:20:36.423Z</time></trkpt><trkpt lat="44.1548775" lon="9.6685739"><ele>518.0</ele><time>2026-04-04T15:20:37.416Z</time></trkpt><trkpt lat="44.1548747" lon="9.6687802"><ele>518.0</ele><time>2026-04-04T15:20:38.432Z</time></trkpt><trkpt lat="44.1548946" lon="9.6689718"><ele>518.0</ele><time>2026-04-04T15:20:39.415Z</time></trkpt><trkpt lat="44.1549053" lon="9.669148"><ele>520.75</ele><time>2026-04-04T15:20:40.429Z</time></trkpt><trkpt lat="44.1548561" lon="9.669287"><ele>523.5</ele><time>2026-04-04T15:20:41.432Z</time></trkpt><trkpt lat="44.1547657" lon="9.6693765"><ele>526.25</ele><time>2026-04-04T15:20:42.433Z</time></trkpt><trkpt lat="44.1546532" lon="9.6694049"><ele>529.0</ele><time>2026-04-04T15:20:43.428Z</time></trkpt><trkpt lat="44.1545386" lon="9.6693536"><ele>529.0</ele><time>2026-04-04T15:20:44.438Z</time></trkpt><trkpt lat="44.1544074" lon="9.6692714"><ele>529.0</ele><time>2026-04-04T15:20:45.434Z</time></trkpt><trkpt lat="44.1542793" lon="9.6692012"><ele>529.0</ele><time>2026-04-04T15:20:46.439Z</time></trkpt><trkpt lat="44.1541493" lon="9.6691232"><ele>529.0</ele><time>2026-04-04T15:20:47.436Z</time></trkpt><trkpt lat="44.1540163" lon="9.6690309"><ele>527.75</ele><time>2026-04-04T15:20:48.444Z</time></trkpt><trkpt lat="44.1538855" lon="9.6689543"><ele>526.5</ele><time>2026-04-04T15:20:49.435Z</time></trkpt><trkpt lat="44.153756" lon="9.6689219"><ele>525.25</ele><time>2026-04-04T15:20:50.446Z</time></trkpt><trkpt lat="44.1536213" lon="9.6689544"><ele>524.0</ele><time>2026-04-04T15:20:51.444Z</time></trkpt><trkpt lat="44.1534829" lon="9.6690306"><ele>524.0</ele><time>2026-04-04T15:20:52.434Z</time></trkpt><trkpt lat="44.1533467" lon="9.6691634"><ele>524.0</ele><time>2026-04-04T15:20:53.441Z</time></trkpt><trkpt lat="44.1532184" lon="9.6692771"><ele>524.0</ele><time>2026-04-04T15:20:54.432Z</time></trkpt><trkpt lat="44.153103" lon="9.6693869"><ele>518.75</ele><time>2026-04-04T15:20:55.428Z</time></trkpt><trkpt lat="44.1530074" lon="9.6695038"><ele>513.5</ele><time>2026-04-04T15:20:56.449Z</time></trkpt><trkpt lat="44.1529648" lon="9.6696444"><ele>508.25</ele><time>2026-04-04T15:20:57.442Z</time></trkpt><trkpt lat="44.1529608" lon="9.6698271"><ele>503.0</ele><time>2026-04-04T15:20:58.45Z</time></trkpt><trkpt lat="44.1530112" lon="9.6700441"><ele>503.66666666666663</ele><time>2026-04-04T15:20:59.445Z</time></trkpt><trkpt lat="44.153072" lon="9.6702952"><ele>504.33333333333337</ele><time>2026-04-04T15:21:00.443Z</time></trkpt><trkpt lat="44.1531185" lon="9.6705351"><ele>505.0</ele><time>2026-04-04T15:21:01.43Z</time></trkpt><trkpt lat="44.15316" lon="9.6707823"><ele>505.0</ele><time>2026-04-04T15:21:02.433Z</time></trkpt><trkpt lat="44.1531993" lon="9.6710482"><ele>505.0</ele><time>2026-04-04T15:21:03.431Z</time></trkpt><trkpt lat="44.1532352" lon="9.6712975"><ele>505.0</ele><time>2026-04-04T15:21:04.432Z</time></trkpt><trkpt lat="44.1532763" lon="9.6715253"><ele>518.0</ele><time>2026-04-04T15:21:05.419Z</time></trkpt><trkpt lat="44.1533444" lon="9.6717324"><ele>531.0</ele><time>2026-04-04T15:21:06.42Z</time></trkpt><trkpt lat="44.1534411" lon="9.6719264"><ele>544.0</ele><time>2026-04-04T15:21:07.425Z</time></trkpt><trkpt lat="44.1535574" lon="9.6721103"><ele>547.3333333333334</ele><time>2026-04-04T15:21:08.425Z</time></trkpt><trkpt lat="44.153663" lon="9.6722997"><ele>550.6666666666666</ele><time>2026-04-04T15:21:09.443Z</time></trkpt><trkpt lat="44.1537622" lon="9.6724787"><ele>554.0</ele><time>2026-04-04T15:21:10.434Z</time></trkpt><trkpt lat="44.1538557" lon="9.6726568"><ele>553.3333333333333</ele><time>2026-04-04T15:21:11.435Z</time></trkpt><trkpt lat="44.1539472" lon="9.6728415"><ele>552.6666666666666</ele><time>2026-04-04T15:21:12.436Z</time></trkpt><trkpt lat="44.1540403" lon="9.6730186"><ele>552.0</ele><time>2026-04-04T15:21:13.431Z</time></trkpt><trkpt lat="44.1541327" lon="9.673176"><ele>552.0</ele><time>2026-04-04T15:21:14.435Z</time></trkpt><trkpt lat="44.1542195" lon="9.6733145"><ele>552.0</ele><time>2026-04-04T15:21:15.431Z</time></trkpt><trkpt lat="44.1543099" lon="9.6734447"><ele>552.0</ele><time>2026-04-04T15:21:16.438Z</time></trkpt><trkpt lat="44.1544197" lon="9.6735577"><ele>552.0</ele><time>2026-04-04T15:21:17.428Z</time></trkpt><trkpt lat="44.1545373" lon="9.6736476"><ele>553.3333333333334</ele><time>2026-04-04T15:21:18.433Z</time></trkpt><trkpt lat="44.1546658" lon="9.6737116"><ele>554.6666666666667</ele><time>2026-04-04T15:21:19.426Z</time></trkpt><trkpt lat="44.1548167" lon="9.6737599"><ele>556.0</ele><time>2026-04-04T15:21:20.431Z</time></trkpt><trkpt lat="44.1549791" lon="9.6737887"><ele>551.0</ele><time>2026-04-04T15:21:21.429Z</time></trkpt><trkpt lat="44.1551487" lon="9.6737862"><ele>546.0</ele><time>2026-04-04T15:21:22.439Z</time></trkpt><trkpt lat="44.1553335" lon="9.6738144"><ele>541.0</ele><time>2026-04-04T15:21:23.44Z</time></trkpt><trkpt lat="44.1555015" lon="9.6738503"><ele>541.0</ele><time>2026-04-04T15:21:24.443Z</time></trkpt><trkpt lat="44.1556532" lon="9.6738815"><ele>541.0</ele><time>2026-04-04T15:21:25.434Z</time></trkpt><trkpt lat="44.1557929" lon="9.6738783"><ele>541.0</ele><time>2026-04-04T15:21:26.446Z</time></trkpt><trkpt lat="44.1559196" lon="9.673804"><ele>541.0</ele><time>2026-04-04T15:21:27.436Z</time></trkpt><trkpt lat="44.1560509" lon="9.6736738"><ele>541.6666666666667</ele><time>2026-04-04T15:21:28.439Z</time></trkpt><trkpt lat="44.1561909" lon="9.673547"><ele>542.3333333333334</ele><time>2026-04-04T15:21:29.437Z</time></trkpt><trkpt lat="44.1563396" lon="9.6734245"><ele>543.0</ele><time>2026-04-04T15:21:30.445Z</time></trkpt><trkpt lat="44.1564926" lon="9.6732937"><ele>537.0</ele><time>2026-04-04T15:21:31.434Z</time></trkpt><trkpt lat="44.1566412" lon="9.6731575"><ele>531.0</ele><time>2026-04-04T15:21:32.443Z</time></trkpt><trkpt lat="44.156773" lon="9.6730499"><ele>525.0</ele><time>2026-04-04T15:21:33.424Z</time></trkpt><trkpt lat="44.1569076" lon="9.6729872"><ele>525.0</ele><time>2026-04-04T15:21:34.436Z</time></trkpt><trkpt lat="44.1570242" lon="9.6730063"><ele>525.0</ele><time>2026-04-04T15:21:35.418Z</time></trkpt><trkpt lat="44.1571063" lon="9.6730823"><ele>525.0</ele><time>2026-04-04T15:21:36.421Z</time></trkpt><trkpt lat="44.157169" lon="9.6731947"><ele>525.0</ele><time>2026-04-04T15:21:37.419Z</time></trkpt><trkpt lat="44.1572057" lon="9.6733124"><ele>525.0</ele><time>2026-04-04T15:21:38.411Z</time></trkpt><trkpt lat="44.1572429" lon="9.6734629"><ele>520.75</ele><time>2026-04-04T15:21:39.422Z</time></trkpt><trkpt lat="44.1572953" lon="9.6736212"><ele>516.5</ele><time>2026-04-04T15:21:40.404Z</time></trkpt><trkpt lat="44.157359" lon="9.6738066"><ele>512.25</ele><time>2026-04-04T15:21:41.412Z</time></trkpt><trkpt lat="44.1574333" lon="9.673995"><ele>508.0</ele><time>2026-04-04T15:21:42.419Z</time></trkpt><trkpt lat="44.1575313" lon="9.6741585"><ele>508.0</ele><time>2026-04-04T15:21:43.415Z</time></trkpt><trkpt lat="44.1576315" lon="9.6742639"><ele>508.0</ele><time>2026-04-04T15:21:44.435Z</time></trkpt><trkpt lat="44.1577325" lon="9.6743254"><ele>508.0</ele><time>2026-04-04T15:21:45.417Z</time></trkpt><trkpt lat="44.1578577" lon="9.674304"><ele>508.0</ele><time>2026-04-04T15:21:46.435Z</time></trkpt><trkpt lat="44.1580047" lon="9.6742425"><ele>508.0</ele><time>2026-04-04T15:21:47.429Z</time></trkpt><trkpt lat="44.158156" lon="9.6741707"><ele>508.0</ele><time>2026-04-04T15:21:48.444Z</time></trkpt><trkpt lat="44.1582999" lon="9.6740682"><ele>508.0</ele><time>2026-04-04T15:21:49.432Z</time></trkpt><trkpt lat="44.1584227" lon="9.6739525"><ele>507.25</ele><time>2026-04-04T15:21:50.433Z</time></trkpt><trkpt lat="44.1585319" lon="9.6738207"><ele>506.5</ele><time>2026-04-04T15:21:51.428Z</time></trkpt><trkpt lat="44.1586094" lon="9.6736956"><ele>505.75</ele><time>2026-04-04T15:21:52.444Z</time></trkpt><trkpt lat="44.1586699" lon="9.6735547"><ele>505.0</ele><time>2026-04-04T15:21:53.425Z</time></trkpt><trkpt lat="44.1587117" lon="9.6734047"><ele>511.33333333333337</ele><time>2026-04-04T15:21:54.429Z</time></trkpt><trkpt lat="44.1587324" lon="9.6732137"><ele>517.6666666666666</ele><time>2026-04-04T15:21:55.442Z</time></trkpt><trkpt lat="44.1587526" lon="9.6729993"><ele>524.0</ele><time>2026-04-04T15:21:56.425Z</time></trkpt><trkpt lat="44.1587728" lon="9.6727614"><ele>525.75</ele><time>2026-04-04T15:21:57.427Z</time></trkpt><trkpt lat="44.1587844" lon="9.6725212"><ele>527.5</ele><time>2026-04-04T15:21:58.44Z</time></trkpt><trkpt lat="44.1587795" lon="9.6723123"><ele>529.25</ele><time>2026-04-04T15:21:59.436Z</time></trkpt><trkpt lat="44.1587684" lon="9.6721669"><ele>531.0</ele><time>2026-04-04T15:22:00.427Z</time></trkpt><trkpt lat="44.1587918" lon="9.672046"><ele>531.0</ele><time>2026-04-04T15:22:01.431Z</time></trkpt><trkpt lat="44.158867" lon="9.6719752"><ele>531.0</ele><time>2026-04-04T15:22:02.427Z</time></trkpt><trkpt lat="44.1589572" lon="9.671982"><ele>531.0</ele><time>2026-04-04T15:22:03.432Z</time></trkpt><trkpt lat="44.1590414" lon="9.6720781"><ele>531.0</ele><time>2026-04-04T15:22:04.423Z</time></trkpt><trkpt lat="44.1590834" lon="9.6722512"><ele>531.0</ele><time>2026-04-04T15:22:05.437Z</time></trkpt><trkpt lat="44.159082" lon="9.6724097"><ele>531.0</ele><time>2026-04-04T15:22:06.438Z</time></trkpt><trkpt lat="44.1590481" lon="9.6725742"><ele>531.0</ele><time>2026-04-04T15:22:07.431Z</time></trkpt><trkpt lat="44.1589961" lon="9.6727631"><ele>531.0</ele><time>2026-04-04T15:22:08.411Z</time></trkpt><trkpt lat="44.1589476" lon="9.6729801"><ele>531.0</ele><time>2026-04-04T15:22:09.42Z</time></trkpt><trkpt lat="44.1589119" lon="9.673241"><ele>528.6666666666666</ele><time>2026-04-04T15:22:10.428Z</time></trkpt><trkpt lat="44.1588969" lon="9.6734838"><ele>526.3333333333333</ele><time>2026-04-04T15:22:11.428Z</time></trkpt><trkpt lat="44.1588854" lon="9.6737011"><ele>524.0</ele><time>2026-04-04T15:22:12.431Z</time></trkpt><trkpt lat="44.1588574" lon="9.673907"><ele>519.25</ele><time>2026-04-04T15:22:13.427Z</time></trkpt><trkpt lat="44.158815" lon="9.6741113"><ele>514.5</ele><time>2026-04-04T15:22:14.427Z</time></trkpt><trkpt lat="44.1587598" lon="9.6742939"><ele>509.75</ele><time>2026-04-04T15:22:15.419Z</time></trkpt><trkpt lat="44.158678" lon="9.674455"><ele>505.0</ele><time>2026-04-04T15:22:16.431Z</time></trkpt><trkpt lat="44.1585481" lon="9.6745886"><ele>498.33333333333337</ele><time>2026-04-04T15:22:17.433Z</time></trkpt><trkpt lat="44.1584083" lon="9.6747295"><ele>491.66666666666663</ele><time>2026-04-04T15:22:18.436Z</time></trkpt><trkpt lat="44.1582716" lon="9.6748697"><ele>485.0</ele><time>2026-04-04T15:22:19.435Z</time></trkpt><trkpt lat="44.1581331" lon="9.6749897"><ele>485.0</ele><time>2026-04-04T15:22:20.426Z</time></trkpt><trkpt lat="44.1579891" lon="9.6750939"><ele>485.0</ele><time>2026-04-04T15:22:21.427Z</time></trkpt><trkpt lat="44.1578471" lon="9.6751905"><ele>485.0</ele><time>2026-04-04T15:22:22.411Z</time></trkpt><trkpt lat="44.1577178" lon="9.6752815"><ele>481.5</ele><time>2026-04-04T15:22:23.425Z</time></trkpt><trkpt lat="44.1575902" lon="9.6753451"><ele>478.0</ele><time>2026-04-04T15:22:24.428Z</time></trkpt><trkpt lat="44.1574582" lon="9.6753773"><ele>474.5</ele><time>2026-04-04T15:22:25.434Z</time></trkpt><trkpt lat="44.1573078" lon="9.6753633"><ele>471.0</ele><time>2026-04-04T15:22:26.414Z</time></trkpt><trkpt lat="44.157167" lon="9.6753235"><ele>471.0</ele><time>2026-04-04T15:22:27.424Z</time></trkpt><trkpt lat="44.1570383" lon="9.6752706"><ele>471.0</ele><time>2026-04-04T15:22:28.437Z</time></trkpt><trkpt lat="44.1569058" lon="9.6752328"><ele>471.0</ele><time>2026-04-04T15:22:29.426Z</time></trkpt><trkpt lat="44.1567786" lon="9.6752481"><ele>471.0</ele><time>2026-04-04T15:22:30.434Z</time></trkpt><trkpt lat="44.1566808" lon="9.6753446"><ele>471.0</ele><time>2026-04-04T15:22:31.432Z</time></trkpt><trkpt lat="44.1565938" lon="9.675461"><ele>471.0</ele><time>2026-04-04T15:22:32.429Z</time></trkpt><trkpt lat="44.1565179" lon="9.6755719"><ele>471.0</ele><time>2026-04-04T15:22:33.43Z</time></trkpt><trkpt lat="44.1564669" lon="9.6756985"><ele>471.0</ele><time>2026-04-04T15:22:34.421Z</time></trkpt><trkpt lat="44.1564642" lon="9.6758432"><ele>471.0</ele><time>2026-04-04T15:22:35.433Z</time></trkpt><trkpt lat="44.1565021" lon="9.6760122"><ele>470.0</ele><time>2026-04-04T15:22:36.437Z</time></trkpt><trkpt lat="44.1565909" lon="9.6761846"><ele>469.0</ele><time>2026-04-04T15:22:37.454Z</time></trkpt><trkpt lat="44.1567075" lon="9.676394"><ele>468.0</ele><time>2026-04-04T15:22:38.431Z</time></trkpt><trkpt lat="44.1568348" lon="9.6765954"><ele>468.0</ele><time>2026-04-04T15:22:39.434Z</time></trkpt><trkpt lat="44.1569606" lon="9.6767854"><ele>468.0</ele><time>2026-04-04T15:22:40.437Z</time></trkpt><trkpt lat="44.1570715" lon="9.6769606"><ele>468.0</ele><time>2026-04-04T15:22:41.437Z</time></trkpt><trkpt lat="44.1571631" lon="9.6771156"><ele>467.25</ele><time>2026-04-04T15:22:42.432Z</time></trkpt><trkpt lat="44.15724" lon="9.6772577"><ele>466.5</ele><time>2026-04-04T15:22:43.427Z</time></trkpt><trkpt lat="44.1572993" lon="9.6773989"><ele>465.75</ele><time>2026-04-04T15:22:44.432Z</time></trkpt><trkpt lat="44.1573459" lon="9.677535"><ele>465.0</ele><time>2026-04-04T15:22:45.433Z</time></trkpt><trkpt lat="44.1573515" lon="9.6776895"><ele>462.5</ele><time>2026-04-04T15:22:46.434Z</time></trkpt><trkpt lat="44.1573102" lon="9.6778278"><ele>460.0</ele><time>2026-04-04T15:22:47.447Z</time></trkpt><trkpt lat="44.1572204" lon="9.6779246"><ele>457.5</ele><time>2026-04-04T15:22:48.442Z</time></trkpt><trkpt lat="44.1570944" lon="9.6779897"><ele>455.0</ele><time>2026-04-04T15:22:49.44Z</time></trkpt><trkpt lat="44.1569758" lon="9.6780617"><ele>455.0</ele><time>2026-04-04T15:22:50.437Z</time></trkpt><trkpt lat="44.1568519" lon="9.6781442"><ele>455.0</ele><time>2026-04-04T15:22:51.447Z</time></trkpt><trkpt lat="44.1567299" lon="9.6782198"><ele>455.0</ele><time>2026-04-04T15:22:52.443Z</time></trkpt><trkpt lat="44.1566087" lon="9.6782899"><ele>455.0</ele><time>2026-04-04T15:22:53.446Z</time></trkpt><trkpt lat="44.1564895" lon="9.6783619"><ele>454.25</ele><time>2026-04-04T15:22:54.442Z</time></trkpt><trkpt lat="44.1563701" lon="9.6784301"><ele>453.5</ele><time>2026-04-04T15:22:55.434Z</time></trkpt><trkpt lat="44.1562526" lon="9.6784989"><ele>452.75</ele><time>2026-04-04T15:22:56.434Z</time></trkpt><trkpt lat="44.1561382" lon="9.6785737"><ele>452.0</ele><time>2026-04-04T15:22:57.433Z</time></trkpt><trkpt lat="44.1560365" lon="9.678669"><ele>452.0</ele><time>2026-04-04T15:22:58.431Z</time></trkpt><trkpt lat="44.1559463" lon="9.6787895"><ele>452.0</ele><time>2026-04-04T15:22:59.442Z</time></trkpt><trkpt lat="44.1558672" lon="9.6789337"><ele>452.0</ele><time>2026-04-04T15:23:00.45Z</time></trkpt><trkpt lat="44.155813" lon="9.6791025"><ele>452.0</ele><time>2026-04-04T15:23:01.44Z</time></trkpt><trkpt lat="44.1557851" lon="9.6793051"><ele>449.0</ele><time>2026-04-04T15:23:02.435Z</time></trkpt><trkpt lat="44.1557834" lon="9.6795397"><ele>446.0</ele><time>2026-04-04T15:23:03.434Z</time></trkpt><trkpt lat="44.1557993" lon="9.6797561"><ele>443.0</ele><time>2026-04-04T15:23:04.437Z</time></trkpt><trkpt lat="44.1558141" lon="9.679955"><ele>443.0</ele><time>2026-04-04T15:23:05.445Z</time></trkpt><trkpt lat="44.155826" lon="9.6801343"><ele>443.0</ele><time>2026-04-04T15:23:06.442Z</time></trkpt><trkpt lat="44.1558228" lon="9.6802979"><ele>443.0</ele><time>2026-04-04T15:23:07.455Z</time></trkpt><trkpt lat="44.1557828" lon="9.6804543"><ele>443.0</ele><time>2026-04-04T15:23:08.439Z</time></trkpt><trkpt lat="44.1557252" lon="9.6805993"><ele>442.5</ele><time>2026-04-04T15:23:09.44Z</time></trkpt><trkpt lat="44.1556411" lon="9.6807599"><ele>442.0</ele><time>2026-04-04T15:23:10.445Z</time></trkpt><trkpt lat="44.1555493" lon="9.6808859"><ele>441.5</ele><time>2026-04-04T15:23:11.444Z</time></trkpt><trkpt lat="44.155455" lon="9.6810058"><ele>441.0</ele><time>2026-04-04T15:23:12.444Z</time></trkpt><trkpt lat="44.1553615" lon="9.6811331"><ele>438.75</ele><time>2026-04-04T15:23:13.449Z</time></trkpt><trkpt lat="44.1552575" lon="9.6812697"><ele>436.5</ele><time>2026-04-04T15:23:14.45Z</time></trkpt><trkpt lat="44.155149" lon="9.6814083"><ele>434.25</ele><time>2026-04-04T15:23:15.447Z</time></trkpt><trkpt lat="44.1550514" lon="9.681555"><ele>432.0</ele><time>2026-04-04T15:23:16.433Z</time></trkpt><trkpt lat="44.1549806" lon="9.6817263"><ele>432.0</ele><time>2026-04-04T15:23:17.446Z</time></trkpt><trkpt lat="44.1549386" lon="9.6819179"><ele>432.0</ele><time>2026-04-04T15:23:18.444Z</time></trkpt><trkpt lat="44.1549266" lon="9.6821162"><ele>432.0</ele><time>2026-04-04T15:23:19.43Z</time></trkpt><trkpt lat="44.1549509" lon="9.6823331"><ele>432.0</ele><time>2026-04-04T15:23:20.453Z</time></trkpt><trkpt lat="44.1550092" lon="9.682579"><ele>428.66666666666663</ele><time>2026-04-04T15:23:21.439Z</time></trkpt><trkpt lat="44.1550458" lon="9.6828041"><ele>425.3333333333333</ele><time>2026-04-04T15:23:22.442Z</time></trkpt><trkpt lat="44.1550799" lon="9.6830113"><ele>422.0</ele><time>2026-04-04T15:23:23.451Z</time></trkpt><trkpt lat="44.1551147" lon="9.6831942"><ele>422.0</ele><time>2026-04-04T15:23:24.452Z</time></trkpt><trkpt lat="44.1551529" lon="9.6833743"><ele>422.0</ele><time>2026-04-04T15:23:25.442Z</time></trkpt><trkpt lat="44.1552178" lon="9.6835217"><ele>422.0</ele><time>2026-04-04T15:23:26.454Z</time></trkpt><trkpt lat="44.1553255" lon="9.6836473"><ele>422.0</ele><time>2026-04-04T15:23:27.438Z</time></trkpt><trkpt lat="44.1554616" lon="9.6837375"><ele>423.0</ele><time>2026-04-04T15:23:28.443Z</time></trkpt><trkpt lat="44.1556126" lon="9.6837921"><ele>424.0</ele><time>2026-04-04T15:23:29.447Z</time></trkpt><trkpt lat="44.15576" lon="9.6838341"><ele>425.0</ele><time>2026-04-04T15:23:30.446Z</time></trkpt><trkpt lat="44.1559007" lon="9.6838522"><ele>426.0</ele><time>2026-04-04T15:23:31.444Z</time></trkpt><trkpt lat="44.1560345" lon="9.6838418"><ele>426.0</ele><time>2026-04-04T15:23:32.438Z</time></trkpt><trkpt lat="44.1561724" lon="9.6837863"><ele>426.0</ele><time>2026-04-04T15:23:33.432Z</time></trkpt><trkpt lat="44.1562977" lon="9.6836941"><ele>426.0</ele><time>2026-04-04T15:23:34.435Z</time></trkpt><trkpt lat="44.1563988" lon="9.6835265"><ele>426.0</ele><time>2026-04-04T15:23:35.441Z</time></trkpt><trkpt lat="44.1564794" lon="9.6833557"><ele>425.33333333333337</ele><time>2026-04-04T15:23:36.433Z</time></trkpt><trkpt lat="44.1565783" lon="9.6831695"><ele>424.6666666666667</ele><time>2026-04-04T15:23:37.433Z</time></trkpt><trkpt lat="44.1566804" lon="9.6829971"><ele>424.0</ele><time>2026-04-04T15:23:38.441Z</time></trkpt><trkpt lat="44.1567717" lon="9.6828641"><ele>422.25</ele><time>2026-04-04T15:23:39.424Z</time></trkpt><trkpt lat="44.1568637" lon="9.6827302"><ele>420.5</ele><time>2026-04-04T15:23:40.438Z</time></trkpt><trkpt lat="44.1569546" lon="9.682603"><ele>418.75</ele><time>2026-04-04T15:23:41.434Z</time></trkpt><trkpt lat="44.1570621" lon="9.682484"><ele>417.0</ele><time>2026-04-04T15:23:42.431Z</time></trkpt><trkpt lat="44.1571987" lon="9.6824068"><ele>417.0</ele><time>2026-04-04T15:23:43.449Z</time></trkpt><trkpt lat="44.157357" lon="9.682342"><ele>417.0</ele><time>2026-04-04T15:23:44.434Z</time></trkpt><trkpt lat="44.1575268" lon="9.6822796"><ele>417.0</ele><time>2026-04-04T15:23:45.43Z</time></trkpt><trkpt lat="44.1577049" lon="9.6822176"><ele>418.33333333333337</ele><time>2026-04-04T15:23:46.43Z</time></trkpt><trkpt lat="44.1578795" lon="9.6821342"><ele>419.6666666666667</ele><time>2026-04-04T15:23:47.427Z</time></trkpt><trkpt lat="44.1580519" lon="9.6820367"><ele>421.0</ele><time>2026-04-04T15:23:48.428Z</time></trkpt><trkpt lat="44.1582162" lon="9.681876"><ele>417.0</ele><time>2026-04-04T15:23:49.427Z</time></trkpt><trkpt lat="44.1583888" lon="9.6817206"><ele>413.0</ele><time>2026-04-04T15:23:50.443Z</time></trkpt><trkpt lat="44.1585534" lon="9.6815724"><ele>409.0</ele><time>2026-04-04T15:23:51.427Z</time></trkpt><trkpt lat="44.1587014" lon="9.6814515"><ele>409.0</ele><time>2026-04-04T15:23:52.445Z</time></trkpt><trkpt lat="44.1588466" lon="9.6813305"><ele>409.0</ele><time>2026-04-04T15:23:53.435Z</time></trkpt><trkpt lat="44.1589795" lon="9.6812207"><ele>409.0</ele><time>2026-04-04T15:23:54.431Z</time></trkpt><trkpt lat="44.1591267" lon="9.6811154"><ele>406.0</ele><time>2026-04-04T15:23:55.428Z</time></trkpt><trkpt lat="44.1592824" lon="9.6810165"><ele>403.0</ele><time>2026-04-04T15:23:56.433Z</time></trkpt><trkpt lat="44.1594609" lon="9.6809239"><ele>400.0</ele><time>2026-04-04T15:23:57.426Z</time></trkpt><trkpt lat="44.1596797" lon="9.6808492"><ele>401.5</ele><time>2026-04-04T15:23:58.442Z</time></trkpt><trkpt lat="44.1599303" lon="9.6807924"><ele>403.0</ele><time>2026-04-04T15:23:59.431Z</time></trkpt><trkpt lat="44.1601707" lon="9.6807402"><ele>403.0</ele><time>2026-04-04T15:24:00.432Z</time></trkpt><trkpt lat="44.1603838" lon="9.6806841"><ele>403.0</ele><time>2026-04-04T15:24:01.431Z</time></trkpt><trkpt lat="44.1605861" lon="9.6806226"><ele>403.0</ele><time>2026-04-04T15:24:02.426Z</time></trkpt><trkpt lat="44.1607795" lon="9.6805537"><ele>405.33333333333337</ele><time>2026-04-04T15:24:03.407Z</time></trkpt><trkpt lat="44.1609667" lon="9.6804793"><ele>407.66666666666663</ele><time>2026-04-04T15:24:04.411Z</time></trkpt><trkpt lat="44.1611438" lon="9.6804428"><ele>410.0</ele><time>2026-04-04T15:24:05.411Z</time></trkpt><trkpt lat="44.1612939" lon="9.680422"><ele>410.0</ele><time>2026-04-04T15:24:06.414Z</time></trkpt><trkpt lat="44.1614476" lon="9.6804264"><ele>410.0</ele><time>2026-04-04T15:24:07.42Z</time></trkpt><trkpt lat="44.1616253" lon="9.6805002"><ele>410.0</ele><time>2026-04-04T15:24:08.419Z</time></trkpt><trkpt lat="44.1618186" lon="9.6806064"><ele>407.3333333333333</ele><time>2026-04-04T15:24:09.437Z</time></trkpt><trkpt lat="44.1620102" lon="9.6807077"><ele>404.66666666666663</ele><time>2026-04-04T15:24:10.42Z</time></trkpt><trkpt lat="44.1621917" lon="9.6808054"><ele>402.0</ele><time>2026-04-04T15:24:11.428Z</time></trkpt><trkpt lat="44.162368" lon="9.6808938"><ele>403.66666666666663</ele><time>2026-04-04T15:24:12.431Z</time></trkpt><trkpt lat="44.1625303" lon="9.6809898"><ele>405.3333333333333</ele><time>2026-04-04T15:24:13.425Z</time></trkpt><trkpt lat="44.1626789" lon="9.681093"><ele>407.0</ele><time>2026-04-04T15:24:14.417Z</time></trkpt><trkpt lat="44.1627984" lon="9.6812398"><ele>407.0</ele><time>2026-04-04T15:24:15.42Z</time></trkpt><trkpt lat="44.1629051" lon="9.6814751"><ele>407.0</ele><time>2026-04-04T15:24:16.421Z</time></trkpt><trkpt lat="44.1630092" lon="9.6817309"><ele>407.0</ele><time>2026-04-04T15:24:17.415Z</time></trkpt><trkpt lat="44.1631199" lon="9.6819582"><ele>400.66666666666663</ele><time>2026-04-04T15:24:18.422Z</time></trkpt><trkpt lat="44.163255" lon="9.6821685"><ele>394.33333333333337</ele><time>2026-04-04T15:24:19.418Z</time></trkpt><trkpt lat="44.1633916" lon="9.6823552"><ele>388.0</ele><time>2026-04-04T15:24:20.41Z</time></trkpt><trkpt lat="44.1634979" lon="9.6825034"><ele>388.0</ele><time>2026-04-04T15:24:21.416Z</time></trkpt><trkpt lat="44.1635785" lon="9.6826475"><ele>388.0</ele><time>2026-04-04T15:24:22.418Z</time></trkpt><trkpt lat="44.1636266" lon="9.6828473"><ele>388.0</ele><time>2026-04-04T15:24:23.404Z</time></trkpt><trkpt lat="44.1636461" lon="9.6830478"><ele>388.0</ele><time>2026-04-04T15:24:24.418Z</time></trkpt><trkpt lat="44.1636718" lon="9.683249"><ele>391.33333333333337</ele><time>2026-04-04T15:24:25.405Z</time></trkpt><trkpt lat="44.163707" lon="9.6834563"><ele>394.66666666666663</ele><time>2026-04-04T15:24:26.425Z</time></trkpt><trkpt lat="44.16378" lon="9.6836451"><ele>398.0</ele><time>2026-04-04T15:24:27.416Z</time></trkpt><trkpt lat="44.1638899" lon="9.6838237"><ele>397.0</ele><time>2026-04-04T15:24:28.411Z</time></trkpt><trkpt lat="44.1640055" lon="9.6839899"><ele>396.0</ele><time>2026-04-04T15:24:29.413Z</time></trkpt><trkpt lat="44.1641396" lon="9.6841798"><ele>395.0</ele><time>2026-04-04T15:24:30.414Z</time></trkpt><trkpt lat="44.1642823" lon="9.6843505"><ele>401.0</ele><time>2026-04-04T15:24:31.408Z</time></trkpt><trkpt lat="44.1644359" lon="9.6844758"><ele>407.0</ele><time>2026-04-04T15:24:32.414Z</time></trkpt><trkpt lat="44.1645937" lon="9.6845911"><ele>413.0</ele><time>2026-04-04T15:24:33.407Z</time></trkpt><trkpt lat="44.1647415" lon="9.6846948"><ele>403.0</ele><time>2026-04-04T15:24:34.41Z</time></trkpt><trkpt lat="44.1648796" lon="9.684816"><ele>393.0</ele><time>2026-04-04T15:24:35.411Z</time></trkpt><trkpt lat="44.1650009" lon="9.6850126"><ele>383.0</ele><time>2026-04-04T15:24:36.405Z</time></trkpt><trkpt lat="44.1651021" lon="9.6852272"><ele>386.0</ele><time>2026-04-04T15:24:37.399Z</time></trkpt><trkpt lat="44.1652094" lon="9.6854439"><ele>389.0</ele><time>2026-04-04T15:24:38.404Z</time></trkpt><trkpt lat="44.1653319" lon="9.6856806"><ele>392.0</ele><time>2026-04-04T15:24:39.409Z</time></trkpt><trkpt lat="44.1654424" lon="9.6859303"><ele>392.0</ele><time>2026-04-04T15:24:40.406Z</time></trkpt><trkpt lat="44.1655446" lon="9.6861894"><ele>392.0</ele><time>2026-04-04T15:24:41.4Z</time></trkpt><trkpt lat="44.1656179" lon="9.6864486"><ele>392.0</ele><time>2026-04-04T15:24:42.411Z</time></trkpt><trkpt lat="44.1656859" lon="9.6867091"><ele>386.66666666666663</ele><time>2026-04-04T15:24:43.411Z</time></trkpt><trkpt lat="44.1657463" lon="9.6869382"><ele>381.3333333333333</ele><time>2026-04-04T15:24:44.405Z</time></trkpt><trkpt lat="44.1657997" lon="9.6871295"><ele>376.0</ele><time>2026-04-04T15:24:45.402Z</time></trkpt><trkpt lat="44.1658684" lon="9.6872804"><ele>376.0</ele><time>2026-04-04T15:24:46.411Z</time></trkpt><trkpt lat="44.165986" lon="9.6873871"><ele>376.0</ele><time>2026-04-04T15:24:47.384Z</time></trkpt><trkpt lat="44.1661413" lon="9.6874678"><ele>376.0</ele><time>2026-04-04T15:24:48.386Z</time></trkpt><trkpt lat="44.1663051" lon="9.6875487"><ele>376.0</ele><time>2026-04-04T15:24:49.393Z</time></trkpt><trkpt lat="44.1664631" lon="9.6876744"><ele>376.0</ele><time>2026-04-04T15:24:50.404Z</time></trkpt><trkpt lat="44.1666031" lon="9.6878114"><ele>376.0</ele><time>2026-04-04T15:24:51.374Z</time></trkpt><trkpt lat="44.16671" lon="9.6879965"><ele>373.66666666666663</ele><time>2026-04-04T15:24:52.4Z</time></trkpt><trkpt lat="44.1667789" lon="9.6881776"><ele>371.3333333333333</ele><time>2026-04-04T15:24:53.4Z</time></trkpt><trkpt lat="44.1668651" lon="9.6883707"><ele>369.0</ele><time>2026-04-04T15:24:54.39Z</time></trkpt><trkpt lat="44.1669806" lon="9.688539"><ele>369.6666666666667</ele><time>2026-04-04T15:24:55.402Z</time></trkpt><trkpt lat="44.1671174" lon="9.6886833"><ele>370.33333333333337</ele><time>2026-04-04T15:24:56.4Z</time></trkpt><trkpt lat="44.1672583" lon="9.688818"><ele>371.0</ele><time>2026-04-04T15:24:57.401Z</time></trkpt><trkpt lat="44.1673748" lon="9.688988"><ele>371.0</ele><time>2026-04-04T15:24:58.402Z</time></trkpt><trkpt lat="44.167458" lon="9.6891747"><ele>371.0</ele><time>2026-04-04T15:24:59.392Z</time></trkpt><trkpt lat="44.1675286" lon="9.6893643"><ele>371.0</ele><time>2026-04-04T15:25:00.397Z</time></trkpt><trkpt lat="44.167578" lon="9.6895571"><ele>369.5</ele><time>2026-04-04T15:25:01.401Z</time></trkpt><trkpt lat="44.167633" lon="9.6897304"><ele>368.0</ele><time>2026-04-04T15:25:02.397Z</time></trkpt><trkpt lat="44.1677147" lon="9.6898851"><ele>366.5</ele><time>2026-04-04T15:25:03.402Z</time></trkpt><trkpt lat="44.1678443" lon="9.6900206"><ele>365.0</ele><time>2026-04-04T15:25:04.401Z</time></trkpt><trkpt lat="44.1679782" lon="9.6901696"><ele>364.6666666666667</ele><time>2026-04-04T15:25:05.399Z</time></trkpt><trkpt lat="44.1681038" lon="9.6903481"><ele>364.3333333333333</ele><time>2026-04-04T15:25:06.397Z</time></trkpt><trkpt lat="44.1682" lon="9.6905353"><ele>364.0</ele><time>2026-04-04T15:25:07.398Z</time></trkpt><trkpt lat="44.1682587" lon="9.6907394"><ele>364.0</ele><time>2026-04-04T15:25:08.403Z</time></trkpt><trkpt lat="44.1682741" lon="9.6909739"><ele>364.0</ele><time>2026-04-04T15:25:09.403Z</time></trkpt><trkpt lat="44.1682751" lon="9.6912009"><ele>364.0</ele><time>2026-04-04T15:25:10.413Z</time></trkpt><trkpt lat="44.16827" lon="9.6914202"><ele>362.0</ele><time>2026-04-04T15:25:11.406Z</time></trkpt><trkpt lat="44.168271" lon="9.6916333"><ele>360.0</ele><time>2026-04-04T15:25:12.412Z</time></trkpt><trkpt lat="44.1682857" lon="9.6918405"><ele>358.0</ele><time>2026-04-04T15:25:13.387Z</time></trkpt><trkpt lat="44.1683429" lon="9.6920335"><ele>357.3333333333333</ele><time>2026-04-04T15:25:14.409Z</time></trkpt><trkpt lat="44.1684253" lon="9.6922331"><ele>356.6666666666667</ele><time>2026-04-04T15:25:15.405Z</time></trkpt><trkpt lat="44.1685021" lon="9.6924563"><ele>356.0</ele><time>2026-04-04T15:25:16.396Z</time></trkpt><trkpt lat="44.1685294" lon="9.6926957"><ele>355.0</ele><time>2026-04-04T15:25:17.397Z</time></trkpt><trkpt lat="44.1685269" lon="9.692937"><ele>354.0</ele><time>2026-04-04T15:25:18.408Z</time></trkpt><trkpt lat="44.1685124" lon="9.6931758"><ele>353.0</ele><time>2026-04-04T15:25:19.4Z</time></trkpt><trkpt lat="44.1684916" lon="9.6934093"><ele>353.0</ele><time>2026-04-04T15:25:20.396Z</time></trkpt><trkpt lat="44.1684411" lon="9.6936339"><ele>353.0</ele><time>2026-04-04T15:25:21.421Z</time></trkpt><trkpt lat="44.1683935" lon="9.6938643"><ele>353.0</ele><time>2026-04-04T15:25:22.396Z</time></trkpt><trkpt lat="44.1683611" lon="9.6940911"><ele>353.0</ele><time>2026-04-04T15:25:23.399Z</time></trkpt><trkpt lat="44.1683511" lon="9.6943182"><ele>353.0</ele><time>2026-04-04T15:25:24.395Z</time></trkpt><trkpt lat="44.1683506" lon="9.6945459"><ele>353.0</ele><time>2026-04-04T15:25:25.396Z</time></trkpt><trkpt lat="44.168351" lon="9.6947706"><ele>350.25</ele><time>2026-04-04T15:25:26.4Z</time></trkpt><trkpt lat="44.1683725" lon="9.6949784"><ele>347.5</ele><time>2026-04-04T15:25:27.399Z</time></trkpt><trkpt lat="44.1684168" lon="9.6951759"><ele>344.75</ele><time>2026-04-04T15:25:28.408Z</time></trkpt><trkpt lat="44.1684621" lon="9.6953448"><ele>342.0</ele><time>2026-04-04T15:25:29.405Z</time></trkpt><trkpt lat="44.1685226" lon="9.695477"><ele>342.5</ele><time>2026-04-04T15:25:30.405Z</time></trkpt><trkpt lat="44.1686112" lon="9.6955912"><ele>343.0</ele><time>2026-04-04T15:25:31.404Z</time></trkpt><trkpt lat="44.1687408" lon="9.6956866"><ele>343.5</ele><time>2026-04-04T15:25:32.39Z</time></trkpt><trkpt lat="44.1688959" lon="9.6957842"><ele>344.0</ele><time>2026-04-04T15:25:33.393Z</time></trkpt><trkpt lat="44.1690397" lon="9.6959015"><ele>344.0</ele><time>2026-04-04T15:25:34.41Z</time></trkpt><trkpt lat="44.1691692" lon="9.6960646"><ele>344.0</ele><time>2026-04-04T15:25:35.395Z</time></trkpt><trkpt lat="44.1692844" lon="9.6962572"><ele>344.0</ele><time>2026-04-04T15:25:36.39Z</time></trkpt><trkpt lat="44.169364" lon="9.6964603"><ele>338.0</ele><time>2026-04-04T15:25:37.399Z</time></trkpt><trkpt lat="44.1694066" lon="9.6966748"><ele>332.0</ele><time>2026-04-04T15:25:38.396Z</time></trkpt><trkpt lat="44.1694304" lon="9.6969048"><ele>326.0</ele><time>2026-04-04T15:25:39.408Z</time></trkpt><trkpt lat="44.1694316" lon="9.6971424"><ele>326.0</ele><time>2026-04-04T15:25:40.394Z</time></trkpt><trkpt lat="44.1694269" lon="9.697389"><ele>326.0</ele><time>2026-04-04T15:25:41.423Z</time></trkpt><trkpt lat="44.16943" lon="9.6976217"><ele>326.0</ele><time>2026-04-04T15:25:42.416Z</time></trkpt><trkpt lat="44.1694604" lon="9.697827"><ele>325.0</ele><time>2026-04-04T15:25:43.415Z</time></trkpt><trkpt lat="44.1695278" lon="9.6980247"><ele>324.0</ele><time>2026-04-04T15:25:44.417Z</time></trkpt><trkpt lat="44.1695787" lon="9.6982223"><ele>323.0</ele><time>2026-04-04T15:25:45.413Z</time></trkpt><trkpt lat="44.1695988" lon="9.6984496"><ele>322.0</ele><time>2026-04-04T15:25:46.422Z</time></trkpt><trkpt lat="44.1695653" lon="9.6986844"><ele>321.0</ele><time>2026-04-04T15:25:47.423Z</time></trkpt><trkpt lat="44.1695111" lon="9.6989137"><ele>320.0</ele><time>2026-04-04T15:25:48.423Z</time></trkpt><trkpt lat="44.1694455" lon="9.6991545"><ele>320.0</ele><time>2026-04-04T15:25:49.418Z</time></trkpt><trkpt lat="44.1693769" lon="9.6993843"><ele>320.0</ele><time>2026-04-04T15:25:50.414Z</time></trkpt><trkpt lat="44.1693115" lon="9.6995774"><ele>320.0</ele><time>2026-04-04T15:25:51.419Z</time></trkpt><trkpt lat="44.1692265" lon="9.6997229"><ele>320.25</ele><time>2026-04-04T15:25:52.419Z</time></trkpt><trkpt lat="44.1691265" lon="9.6998253"><ele>320.5</ele><time>2026-04-04T15:25:53.404Z</time></trkpt><trkpt lat="44.169059" lon="9.699949"><ele>320.75</ele><time>2026-04-04T15:25:54.404Z</time></trkpt><trkpt lat="44.1690298" lon="9.7001076"><ele>321.0</ele><time>2026-04-04T15:25:55.409Z</time></trkpt><trkpt lat="44.169056" lon="9.7003129"><ele>320.3333333333333</ele><time>2026-04-04T15:25:56.42Z</time></trkpt><trkpt lat="44.16912" lon="9.7005339"><ele>319.66666666666663</ele><time>2026-04-04T15:25:57.411Z</time></trkpt><trkpt lat="44.169177" lon="9.7007547"><ele>319.0</ele><time>2026-04-04T15:25:58.405Z</time></trkpt><trkpt lat="44.1692464" lon="9.7009761"><ele>316.0</ele><time>2026-04-04T15:25:59.411Z</time></trkpt><trkpt lat="44.1693103" lon="9.7011957"><ele>313.0</ele><time>2026-04-04T15:26:00.418Z</time></trkpt><trkpt lat="44.1693602" lon="9.7014181"><ele>310.0</ele><time>2026-04-04T15:26:01.403Z</time></trkpt><trkpt lat="44.1693559" lon="9.701644"><ele>310.0</ele><time>2026-04-04T15:26:02.405Z</time></trkpt><trkpt lat="44.1693178" lon="9.7018232"><ele>310.0</ele><time>2026-04-04T15:26:03.406Z</time></trkpt><trkpt lat="44.1692759" lon="9.7019634"><ele>310.0</ele><time>2026-04-04T15:26:04.398Z</time></trkpt><trkpt lat="44.1692603" lon="9.7020999"><ele>310.0</ele><time>2026-04-04T15:26:05.413Z</time></trkpt><trkpt lat="44.1692898" lon="9.7022352"><ele>310.0</ele><time>2026-04-04T15:26:06.418Z</time></trkpt><trkpt lat="44.1693886" lon="9.7023444"><ele>311.66666666666663</ele><time>2026-04-04T15:26:07.412Z</time></trkpt><trkpt lat="44.1695339" lon="9.7024368"><ele>313.3333333333333</ele><time>2026-04-04T15:26:08.408Z</time></trkpt><trkpt lat="44.1696882" lon="9.7025063"><ele>315.0</ele><time>2026-04-04T15:26:09.404Z</time></trkpt><trkpt lat="44.1698462" lon="9.7025626"><ele>315.5</ele><time>2026-04-04T15:26:10.411Z</time></trkpt><trkpt lat="44.1699712" lon="9.7026316"><ele>316.0</ele><time>2026-04-04T15:26:11.42Z</time></trkpt><trkpt lat="44.1700618" lon="9.7027505"><ele>316.5</ele><time>2026-04-04T15:26:12.415Z</time></trkpt><trkpt lat="44.1701151" lon="9.7028943"><ele>317.0</ele><time>2026-04-04T15:26:13.414Z</time></trkpt><trkpt lat="44.1701292" lon="9.7030291"><ele>316.5</ele><time>2026-04-04T15:26:14.42Z</time></trkpt><trkpt lat="44.1701376" lon="9.703154"><ele>316.0</ele><time>2026-04-04T15:26:15.417Z</time></trkpt><trkpt lat="44.1701562" lon="9.7032615"><ele>315.5</ele><time>2026-04-04T15:26:16.417Z</time></trkpt><trkpt lat="44.1701841" lon="9.7034031"><ele>315.0</ele><time>2026-04-04T15:26:18.424Z</time></trkpt><trkpt lat="44.1702173" lon="9.7034937"><ele>314.5</ele><time>2026-04-04T15:26:20.408Z</time></trkpt><trkpt lat="44.1702732" lon="9.7035416"><ele>314.0</ele><time>2026-04-04T15:26:23.413Z</time></trkpt><trkpt lat="44.1703473" lon="9.7035846"><ele>314.0</ele><time>2026-04-04T15:26:25.418Z</time></trkpt><trkpt lat="44.170417" lon="9.7036029"><ele>314.0</ele><time>2026-04-04T15:26:26.427Z</time></trkpt><trkpt lat="44.1705174" lon="9.7036"><ele>314.0</ele><time>2026-04-04T15:26:27.413Z</time></trkpt><trkpt lat="44.1706383" lon="9.7035861"><ele>314.0</ele><time>2026-04-04T15:26:28.415Z</time></trkpt><trkpt lat="44.1707714" lon="9.7035822"><ele>314.0</ele><time>2026-04-04T15:26:29.411Z</time></trkpt><trkpt lat="44.1709122" lon="9.7035995"><ele>309.0</ele><time>2026-04-04T15:26:30.422Z</time></trkpt><trkpt lat="44.1710518" lon="9.70365"><ele>304.0</ele><time>2026-04-04T15:26:31.418Z</time></trkpt><trkpt lat="44.1711949" lon="9.7037265"><ele>299.0</ele><time>2026-04-04T15:26:32.422Z</time></trkpt><trkpt lat="44.1713366" lon="9.703838"><ele>299.0</ele><time>2026-04-04T15:26:33.418Z</time></trkpt><trkpt lat="44.171467" lon="9.7039849"><ele>299.0</ele><time>2026-04-04T15:26:34.41Z</time></trkpt><trkpt lat="44.1715911" lon="9.7041569"><ele>299.0</ele><time>2026-04-04T15:26:35.427Z</time></trkpt><trkpt lat="44.1716928" lon="9.7043317"><ele>297.0</ele><time>2026-04-04T15:26:36.44Z</time></trkpt><trkpt lat="44.1717713" lon="9.7045235"><ele>295.0</ele><time>2026-04-04T15:26:37.422Z</time></trkpt><trkpt lat="44.1718011" lon="9.7047512"><ele>293.0</ele><time>2026-04-04T15:26:38.422Z</time></trkpt><trkpt lat="44.1718248" lon="9.7049888"><ele>289.5</ele><time>2026-04-04T15:26:39.419Z</time></trkpt><trkpt lat="44.1718338" lon="9.7053033"><ele>286.0</ele><time>2026-04-04T15:26:40.425Z</time></trkpt><trkpt lat="44.1718559" lon="9.7056554"><ele>286.0</ele><time>2026-04-04T15:26:41.429Z</time></trkpt><trkpt lat="44.1718607" lon="9.706033"><ele>286.0</ele><time>2026-04-04T15:26:42.431Z</time></trkpt><trkpt lat="44.1718508" lon="9.7064188"><ele>283.0</ele><time>2026-04-04T15:26:43.431Z</time></trkpt><trkpt lat="44.1718437" lon="9.7067697"><ele>280.0</ele><time>2026-04-04T15:26:44.429Z</time></trkpt><trkpt lat="44.1718335" lon="9.7070791"><ele>279.66666666666663</ele><time>2026-04-04T15:26:45.427Z</time></trkpt><trkpt lat="44.1717923" lon="9.7073474"><ele>279.3333333333333</ele><time>2026-04-04T15:26:46.431Z</time></trkpt><trkpt lat="44.1717142" lon="9.7076052"><ele>279.0</ele><time>2026-04-04T15:26:47.427Z</time></trkpt><trkpt lat="44.1715932" lon="9.7078433"><ele>279.3333333333333</ele><time>2026-04-04T15:26:48.43Z</time></trkpt><trkpt lat="44.1714732" lon="9.708064"><ele>279.66666666666663</ele><time>2026-04-04T15:26:49.419Z</time></trkpt><trkpt lat="44.1713951" lon="9.7083125"><ele>280.0</ele><time>2026-04-04T15:26:50.425Z</time></trkpt><trkpt lat="44.171378" lon="9.7085847"><ele>275.0</ele><time>2026-04-04T15:26:51.437Z</time></trkpt><trkpt lat="44.1714243" lon="9.7088483"><ele>270.0</ele><time>2026-04-04T15:26:52.432Z</time></trkpt><trkpt lat="44.1715357" lon="9.7091016"><ele>265.0</ele><time>2026-04-04T15:26:53.424Z</time></trkpt><trkpt lat="44.1716947" lon="9.7093863"><ele>264.3333333333333</ele><time>2026-04-04T15:26:54.426Z</time></trkpt><trkpt lat="44.1718138" lon="9.7096551"><ele>263.6666666666667</ele><time>2026-04-04T15:26:55.419Z</time></trkpt><trkpt lat="44.1719308" lon="9.7099194"><ele>263.0</ele><time>2026-04-04T15:26:56.425Z</time></trkpt><trkpt lat="44.1720264" lon="9.7101466"><ele>262.6666666666667</ele><time>2026-04-04T15:26:57.411Z</time></trkpt><trkpt lat="44.1720787" lon="9.7103691"><ele>262.3333333333333</ele><time>2026-04-04T15:26:58.423Z</time></trkpt><trkpt lat="44.1721" lon="9.7105877"><ele>262.0</ele><time>2026-04-04T15:26:59.411Z</time></trkpt><trkpt lat="44.1720085" lon="9.7107847"><ele>262.0</ele><time>2026-04-04T15:27:00.421Z</time></trkpt><trkpt lat="44.1718711" lon="9.71096"><ele>262.0</ele><time>2026-04-04T15:27:01.422Z</time></trkpt><trkpt lat="44.1717256" lon="9.7111372"><ele>262.0</ele><time>2026-04-04T15:27:02.414Z</time></trkpt><trkpt lat="44.171603" lon="9.7113544"><ele>262.66666666666663</ele><time>2026-04-04T15:27:03.417Z</time></trkpt><trkpt lat="44.1715309" lon="9.7115995"><ele>263.3333333333333</ele><time>2026-04-04T15:27:04.416Z</time></trkpt><trkpt lat="44.1714969" lon="9.7118589"><ele>264.0</ele><time>2026-04-04T15:27:05.415Z</time></trkpt><trkpt lat="44.171487" lon="9.7120897"><ele>265.0</ele><time>2026-04-04T15:27:06.435Z</time></trkpt><trkpt lat="44.171529" lon="9.7123174"><ele>266.0</ele><time>2026-04-04T15:27:07.403Z</time></trkpt><trkpt lat="44.1716032" lon="9.7125409"><ele>267.0</ele><time>2026-04-04T15:27:08.408Z</time></trkpt><trkpt lat="44.1717043" lon="9.7127719"><ele>267.0</ele><time>2026-04-04T15:27:09.413Z</time></trkpt><trkpt lat="44.1718489" lon="9.712979"><ele>267.0</ele><time>2026-04-04T15:27:10.413Z</time></trkpt><trkpt lat="44.1720197" lon="9.713134"><ele>267.0</ele><time>2026-04-04T15:27:11.411Z</time></trkpt><trkpt lat="44.1722336" lon="9.7132367"><ele>256.5</ele><time>2026-04-04T15:27:12.407Z</time></trkpt><trkpt lat="44.1724582" lon="9.7133512"><ele>246.0</ele><time>2026-04-04T15:27:13.406Z</time></trkpt><trkpt lat="44.1727068" lon="9.7134493"><ele>246.0</ele><time>2026-04-04T15:27:14.406Z</time></trkpt><trkpt lat="44.1729672" lon="9.7135437"><ele>246.0</ele><time>2026-04-04T15:27:15.398Z</time></trkpt><trkpt lat="44.1732408" lon="9.7136084"><ele>241.0</ele><time>2026-04-04T15:27:16.408Z</time></trkpt><trkpt lat="44.173473" lon="9.7137024"><ele>236.0</ele><time>2026-04-04T15:27:17.397Z</time></trkpt><trkpt lat="44.1736261" lon="9.7137888"><ele>231.0</ele><time>2026-04-04T15:27:18.404Z</time></trkpt><trkpt lat="44.1737814" lon="9.7138881"><ele>231.0</ele><time>2026-04-04T15:27:19.418Z</time></trkpt><trkpt lat="44.1739165" lon="9.7140447"><ele>231.0</ele><time>2026-04-04T15:27:20.419Z</time></trkpt><trkpt lat="44.1739925" lon="9.7142495"><ele>231.0</ele><time>2026-04-04T15:27:21.411Z</time></trkpt><trkpt lat="44.174028" lon="9.7145368"><ele>231.66666666666669</ele><time>2026-04-04T15:27:22.417Z</time></trkpt><trkpt lat="44.1740698" lon="9.7148342"><ele>232.33333333333334</ele><time>2026-04-04T15:27:23.418Z</time></trkpt><trkpt lat="44.1741237" lon="9.7151251"><ele>233.0</ele><time>2026-04-04T15:27:24.419Z</time></trkpt><trkpt lat="44.174203" lon="9.7153756"><ele>230.66666666666669</ele><time>2026-04-04T15:27:25.416Z</time></trkpt><trkpt lat="44.1743479" lon="9.7155723"><ele>228.33333333333331</ele><time>2026-04-04T15:27:26.417Z</time></trkpt><trkpt lat="44.1745217" lon="9.7157576"><ele>226.0</ele><time>2026-04-04T15:27:27.415Z</time></trkpt><trkpt lat="44.1746899" lon="9.7159794"><ele>223.5</ele><time>2026-04-04T15:27:28.413Z</time></trkpt><trkpt lat="44.1748529" lon="9.7162284"><ele>221.0</ele><time>2026-04-04T15:27:29.42Z</time></trkpt><trkpt lat="44.17497" lon="9.7165095"><ele>219.33333333333334</ele><time>2026-04-04T15:27:30.42Z</time></trkpt><trkpt lat="44.1750544" lon="9.7167759"><ele>217.66666666666669</ele><time>2026-04-04T15:27:31.417Z</time></trkpt><trkpt lat="44.1751136" lon="9.7170335"><ele>216.0</ele><time>2026-04-04T15:27:32.418Z</time></trkpt><trkpt lat="44.1751417" lon="9.7173071"><ele>212.33333333333331</ele><time>2026-04-04T15:27:33.419Z</time></trkpt><trkpt lat="44.1751414" lon="9.7176044"><ele>208.66666666666666</ele><time>2026-04-04T15:27:34.423Z</time></trkpt><trkpt lat="44.1751541" lon="9.7179058"><ele>205.0</ele><time>2026-04-04T15:27:35.425Z</time></trkpt><trkpt lat="44.17518" lon="9.7181883"><ele>203.0</ele><time>2026-04-04T15:27:36.417Z</time></trkpt><trkpt lat="44.1752404" lon="9.718455"><ele>201.0</ele><time>2026-04-04T15:27:37.437Z</time></trkpt><trkpt lat="44.1753465" lon="9.7187048"><ele>199.0</ele><time>2026-04-04T15:27:38.421Z</time></trkpt><trkpt lat="44.1754669" lon="9.7189405"><ele>198.33333333333331</ele><time>2026-04-04T15:27:39.426Z</time></trkpt><trkpt lat="44.1755952" lon="9.7191485"><ele>197.66666666666669</ele><time>2026-04-04T15:27:40.428Z</time></trkpt><trkpt lat="44.1757427" lon="9.7193221"><ele>197.0</ele><time>2026-04-04T15:27:41.42Z</time></trkpt><trkpt lat="44.1759359" lon="9.719443"><ele>194.66666666666669</ele><time>2026-04-04T15:27:42.419Z</time></trkpt><trkpt lat="44.1761037" lon="9.7195626"><ele>192.33333333333334</ele><time>2026-04-04T15:27:43.432Z</time></trkpt><trkpt lat="44.1762211" lon="9.7197013"><ele>190.0</ele><time>2026-04-04T15:27:44.436Z</time></trkpt><trkpt lat="44.1762893" lon="9.7198626"><ele>190.0</ele><time>2026-04-04T15:27:45.434Z</time></trkpt><trkpt lat="44.176315" lon="9.7200672"><ele>190.0</ele><time>2026-04-04T15:27:46.436Z</time></trkpt><trkpt lat="44.1763065" lon="9.7203156"><ele>190.0</ele><time>2026-04-04T15:27:47.432Z</time></trkpt><trkpt lat="44.1762902" lon="9.7205826"><ele>189.66666666666669</ele><time>2026-04-04T15:27:48.435Z</time></trkpt><trkpt lat="44.1762956" lon="9.7208499"><ele>189.33333333333334</ele><time>2026-04-04T15:27:49.432Z</time></trkpt><trkpt lat="44.176305" lon="9.7211013"><ele>189.0</ele><time>2026-04-04T15:27:50.436Z</time></trkpt><trkpt lat="44.1763055" lon="9.7213384"><ele>188.66666666666666</ele><time>2026-04-04T15:27:51.434Z</time></trkpt><trkpt lat="44.1762769" lon="9.7215864"><ele>188.33333333333331</ele><time>2026-04-04T15:27:52.432Z</time></trkpt><trkpt lat="44.1762176" lon="9.7218273"><ele>188.0</ele><time>2026-04-04T15:27:53.436Z</time></trkpt><trkpt lat="44.1761228" lon="9.7220501"><ele>190.0</ele><time>2026-04-04T15:27:54.416Z</time></trkpt><trkpt lat="44.1760445" lon="9.7222607"><ele>192.0</ele><time>2026-04-04T15:27:55.433Z</time></trkpt><trkpt lat="44.175988" lon="9.7224557"><ele>194.0</ele><time>2026-04-04T15:27:56.427Z</time></trkpt><trkpt lat="44.175963" lon="9.7226546"><ele>200.0</ele><time>2026-04-04T15:27:57.426Z</time></trkpt><trkpt lat="44.1759857" lon="9.7228718"><ele>206.0</ele><time>2026-04-04T15:27:58.443Z</time></trkpt><trkpt lat="44.1760892" lon="9.7230983"><ele>212.0</ele><time>2026-04-04T15:27:59.423Z</time></trkpt><trkpt lat="44.1762436" lon="9.7233451"><ele>219.0</ele><time>2026-04-04T15:28:00.418Z</time></trkpt><trkpt lat="44.1764089" lon="9.7236104"><ele>226.0</ele><time>2026-04-04T15:28:01.407Z</time></trkpt><trkpt lat="44.1765854" lon="9.7238925"><ele>216.5</ele><time>2026-04-04T15:28:02.408Z</time></trkpt><trkpt lat="44.1767543" lon="9.7241663"><ele>207.0</ele><time>2026-04-04T15:28:03.421Z</time></trkpt><trkpt lat="44.1768942" lon="9.7244036"><ele>207.0</ele><time>2026-04-04T15:28:04.412Z</time></trkpt><trkpt lat="44.1770166" lon="9.7246249"><ele>207.0</ele><time>2026-04-04T15:28:05.41Z</time></trkpt><trkpt lat="44.1771321" lon="9.7248509"><ele>207.0</ele><time>2026-04-04T15:28:06.419Z</time></trkpt><trkpt lat="44.1772387" lon="9.7250662"><ele>210.75</ele><time>2026-04-04T15:28:07.415Z</time></trkpt><trkpt lat="44.1773277" lon="9.7252605"><ele>214.5</ele><time>2026-04-04T15:28:08.422Z</time></trkpt><trkpt lat="44.1773962" lon="9.7254182"><ele>218.25</ele><time>2026-04-04T15:28:09.415Z</time></trkpt><trkpt lat="44.1774545" lon="9.7255756"><ele>222.0</ele><time>2026-04-04T15:28:10.422Z</time></trkpt><trkpt lat="44.1775113" lon="9.7257155"><ele>217.8</ele><time>2026-04-04T15:28:11.422Z</time></trkpt><trkpt lat="44.1775603" lon="9.725859"><ele>213.6</ele><time>2026-04-04T15:28:12.411Z</time></trkpt><trkpt lat="44.1775943" lon="9.7259898"><ele>209.4</ele><time>2026-04-04T15:28:13.419Z</time></trkpt><trkpt lat="44.1776119" lon="9.7261034"><ele>205.20000000000002</ele><time>2026-04-04T15:28:14.42Z</time></trkpt><trkpt lat="44.1776403" lon="9.7262254"><ele>201.0</ele><time>2026-04-04T15:28:15.422Z</time></trkpt><trkpt lat="44.1776694" lon="9.7263388"><ele>201.0</ele><time>2026-04-04T15:28:16.431Z</time></trkpt><trkpt lat="44.1777011" lon="9.7264439"><ele>201.0</ele><time>2026-04-04T15:28:17.428Z</time></trkpt><trkpt lat="44.1777336" lon="9.7265509"><ele>201.0</ele><time>2026-04-04T15:28:18.44Z</time></trkpt><trkpt lat="44.1777734" lon="9.7266607"><ele>201.0</ele><time>2026-04-04T15:28:19.43Z</time></trkpt><trkpt lat="44.1778164" lon="9.7267703"><ele>201.0</ele><time>2026-04-04T15:28:20.44Z</time></trkpt><trkpt lat="44.1778583" lon="9.7268787"><ele>201.0</ele><time>2026-04-04T15:28:21.437Z</time></trkpt><trkpt lat="44.1778928" lon="9.726997"><ele>201.83333333333334</ele><time>2026-04-04T15:28:22.436Z</time></trkpt><trkpt lat="44.1779131" lon="9.7271222"><ele>202.66666666666669</ele><time>2026-04-04T15:28:23.441Z</time></trkpt><trkpt lat="44.1779161" lon="9.7272439"><ele>203.5</ele><time>2026-04-04T15:28:24.443Z</time></trkpt><trkpt lat="44.1779124" lon="9.7273564"><ele>204.33333333333334</ele><time>2026-04-04T15:28:25.438Z</time></trkpt><trkpt lat="44.1779015" lon="9.7274629"><ele>205.16666666666669</ele><time>2026-04-04T15:28:26.443Z</time></trkpt><trkpt lat="44.1778831" lon="9.7275602"><ele>206.0</ele><time>2026-04-04T15:28:27.44Z</time></trkpt><trkpt lat="44.1778536" lon="9.7276574"><ele>206.16666666666669</ele><time>2026-04-04T15:28:28.445Z</time></trkpt><trkpt lat="44.1778153" lon="9.7277443"><ele>206.33333333333334</ele><time>2026-04-04T15:28:29.439Z</time></trkpt><trkpt lat="44.1777742" lon="9.7278251"><ele>206.5</ele><time>2026-04-04T15:28:30.453Z</time></trkpt><trkpt lat="44.1777351" lon="9.7279034"><ele>206.66666666666669</ele><time>2026-04-04T15:28:31.435Z</time></trkpt><trkpt lat="44.1777011" lon="9.7279888"><ele>206.83333333333334</ele><time>2026-04-04T15:28:32.447Z</time></trkpt><trkpt lat="44.1776831" lon="9.728078"><ele>207.0</ele><time>2026-04-04T15:28:33.439Z</time></trkpt><trkpt lat="44.1776803" lon="9.7282368"><ele>207.0</ele><time>2026-04-04T15:28:35.436Z</time></trkpt><trkpt lat="44.1777273" lon="9.7283979"><ele>207.0</ele><time>2026-04-04T15:28:37.445Z</time></trkpt><trkpt lat="44.1777627" lon="9.7284961"><ele>207.0</ele><time>2026-04-04T15:28:38.442Z</time></trkpt><trkpt lat="44.1777989" lon="9.728602"><ele>207.0</ele><time>2026-04-04T15:28:39.454Z</time></trkpt><trkpt lat="44.1778327" lon="9.7287101"><ele>207.0</ele><time>2026-04-04T15:28:40.438Z</time></trkpt><trkpt lat="44.1778633" lon="9.7288223"><ele>208.16666666666666</ele><time>2026-04-04T15:28:41.445Z</time></trkpt><trkpt lat="44.1778907" lon="9.7289323"><ele>209.33333333333331</ele><time>2026-04-04T15:28:42.438Z</time></trkpt><trkpt lat="44.1779184" lon="9.7290399"><ele>210.5</ele><time>2026-04-04T15:28:43.446Z</time></trkpt><trkpt lat="44.1779497" lon="9.7291501"><ele>211.66666666666666</ele><time>2026-04-04T15:28:44.434Z</time></trkpt><trkpt lat="44.1779786" lon="9.7292424"><ele>212.83333333333331</ele><time>2026-04-04T15:28:45.441Z</time></trkpt><trkpt lat="44.1779997" lon="9.7293276"><ele>214.0</ele><time>2026-04-04T15:28:46.442Z</time></trkpt><trkpt lat="44.1780379" lon="9.7294865"><ele>215.66666666666666</ele><time>2026-04-04T15:28:48.44Z</time></trkpt><trkpt lat="44.1780551" lon="9.7295714"><ele>217.33333333333331</ele><time>2026-04-04T15:28:49.445Z</time></trkpt><trkpt lat="44.1780712" lon="9.7296677"><ele>219.0</ele><time>2026-04-04T15:28:50.435Z</time></trkpt><trkpt lat="44.1780902" lon="9.7297681"><ele>220.66666666666669</ele><time>2026-04-04T15:28:51.439Z</time></trkpt><trkpt lat="44.1781166" lon="9.7298767"><ele>222.33333333333334</ele><time>2026-04-04T15:28:52.448Z</time></trkpt><trkpt lat="44.1781448" lon="9.7299967"><ele>224.0</ele><time>2026-04-04T15:28:53.442Z</time></trkpt><trkpt lat="44.1781679" lon="9.7301326"><ele>222.0</ele><time>2026-04-04T15:28:54.442Z</time></trkpt><trkpt lat="44.1781684" lon="9.730281"><ele>219.99999999999997</ele><time>2026-04-04T15:28:55.442Z</time></trkpt><trkpt lat="44.17815" lon="9.7304309"><ele>217.99999999999997</ele><time>2026-04-04T15:28:56.454Z</time></trkpt><trkpt lat="44.1780863" lon="9.7305522"><ele>216.0</ele><time>2026-04-04T15:28:57.442Z</time></trkpt><trkpt lat="44.1779759" lon="9.7306221"><ele>214.0</ele><time>2026-04-04T15:28:58.443Z</time></trkpt><trkpt lat="44.1778325" lon="9.7306626"><ele>214.0</ele><time>2026-04-04T15:28:59.437Z</time></trkpt><trkpt lat="44.1776683" lon="9.730699"><ele>214.0</ele><time>2026-04-04T15:29:00.441Z</time></trkpt><trkpt lat="44.1775031" lon="9.7307377"><ele>214.0</ele><time>2026-04-04T15:29:01.434Z</time></trkpt><trkpt lat="44.1773459" lon="9.7308184"><ele>214.0</ele><time>2026-04-04T15:29:02.433Z</time></trkpt><trkpt lat="44.1771899" lon="9.7309584"><ele>214.0</ele><time>2026-04-04T15:29:03.415Z</time></trkpt><trkpt lat="44.1770387" lon="9.7311211"><ele>214.0</ele><time>2026-04-04T15:29:04.447Z</time></trkpt><trkpt lat="44.1769098" lon="9.7312888"><ele>214.0</ele><time>2026-04-04T15:29:05.437Z</time></trkpt><trkpt lat="44.176811" lon="9.7314561"><ele>214.0</ele><time>2026-04-04T15:29:06.426Z</time></trkpt><trkpt lat="44.1767684" lon="9.731643"><ele>214.0</ele><time>2026-04-04T15:29:07.426Z</time></trkpt><trkpt lat="44.1767623" lon="9.7318837"><ele>213.0</ele><time>2026-04-04T15:29:08.435Z</time></trkpt><trkpt lat="44.1767372" lon="9.7320977"><ele>212.0</ele><time>2026-04-04T15:29:09.438Z</time></trkpt><trkpt lat="44.1766705" lon="9.7322741"><ele>211.0</ele><time>2026-04-04T15:29:10.454Z</time></trkpt><trkpt lat="44.1765622" lon="9.7323955"><ele>210.0</ele><time>2026-04-04T15:29:11.444Z</time></trkpt><trkpt lat="44.1764312" lon="9.7325123"><ele>210.0</ele><time>2026-04-04T15:29:12.448Z</time></trkpt><trkpt lat="44.1762773" lon="9.732626"><ele>210.0</ele><time>2026-04-04T15:29:13.448Z</time></trkpt><trkpt lat="44.1761347" lon="9.7326965"><ele>210.0</ele><time>2026-04-04T15:29:14.454Z</time></trkpt><trkpt lat="44.1759798" lon="9.7327073"><ele>210.0</ele><time>2026-04-04T15:29:15.447Z</time></trkpt><trkpt lat="44.1758204" lon="9.7326528"><ele>210.0</ele><time>2026-04-04T15:29:16.43Z</time></trkpt><trkpt lat="44.1756739" lon="9.7325398"><ele>210.0</ele><time>2026-04-04T15:29:17.424Z</time></trkpt><trkpt lat="44.1755442" lon="9.7323888"><ele>210.33333333333331</ele><time>2026-04-04T15:29:18.439Z</time></trkpt><trkpt lat="44.1754178" lon="9.7321994"><ele>210.66666666666666</ele><time>2026-04-04T15:29:19.418Z</time></trkpt><trkpt lat="44.1753023" lon="9.7320134"><ele>211.0</ele><time>2026-04-04T15:29:20.419Z</time></trkpt><trkpt lat="44.1751992" lon="9.7318314"><ele>211.0</ele><time>2026-04-04T15:29:21.42Z</time></trkpt><trkpt lat="44.1751012" lon="9.7316593"><ele>211.0</ele><time>2026-04-04T15:29:22.424Z</time></trkpt><trkpt lat="44.1750132" lon="9.7314969"><ele>211.0</ele><time>2026-04-04T15:29:23.413Z</time></trkpt><trkpt lat="44.1749212" lon="9.7313614"><ele>211.0</ele><time>2026-04-04T15:29:24.415Z</time></trkpt><trkpt lat="44.1748262" lon="9.7312697"><ele>212.75</ele><time>2026-04-04T15:29:25.416Z</time></trkpt><trkpt lat="44.1747184" lon="9.731242"><ele>214.5</ele><time>2026-04-04T15:29:26.41Z</time></trkpt><trkpt lat="44.1746095" lon="9.7313137"><ele>216.25</ele><time>2026-04-04T15:29:27.434Z</time></trkpt><trkpt lat="44.1745214" lon="9.7314663"><ele>218.0</ele><time>2026-04-04T15:29:28.436Z</time></trkpt><trkpt lat="44.1744724" lon="9.7315696"><ele>218.0</ele><time>2026-04-04T15:29:29.423Z</time></trkpt><trkpt lat="44.1744243" lon="9.7317791"><ele>218.0</ele><time>2026-04-04T15:29:30.419Z</time></trkpt><trkpt lat="44.1744191" lon="9.7319689"><ele>218.0</ele><time>2026-04-04T15:29:31.407Z</time></trkpt><trkpt lat="44.1744575" lon="9.7321505"><ele>218.0</ele><time>2026-04-04T15:29:32.423Z</time></trkpt><trkpt lat="44.1745304" lon="9.7322843"><ele>216.75</ele><time>2026-04-04T15:29:33.441Z</time></trkpt><trkpt lat="44.1746211" lon="9.7323505"><ele>215.5</ele><time>2026-04-04T15:29:34.414Z</time></trkpt><trkpt lat="44.1747351" lon="9.7324168"><ele>214.25</ele><time>2026-04-04T15:29:35.422Z</time></trkpt><trkpt lat="44.1748427" lon="9.7325217"><ele>213.0</ele><time>2026-04-04T15:29:36.428Z</time></trkpt><trkpt lat="44.1749174" lon="9.7326855"><ele>217.25</ele><time>2026-04-04T15:29:37.428Z</time></trkpt><trkpt lat="44.1749297" lon="9.732876"><ele>221.5</ele><time>2026-04-04T15:29:38.408Z</time></trkpt><trkpt lat="44.1749516" lon="9.7330688"><ele>225.75</ele><time>2026-04-04T15:29:39.414Z</time></trkpt><trkpt lat="44.1749922" lon="9.7332634"><ele>230.0</ele><time>2026-04-04T15:29:40.432Z</time></trkpt><trkpt lat="44.1750707" lon="9.7334451"><ele>234.0</ele><time>2026-04-04T15:29:41.43Z</time></trkpt><trkpt lat="44.1751502" lon="9.7335827"><ele>238.0</ele><time>2026-04-04T15:29:42.412Z</time></trkpt><trkpt lat="44.1751855" lon="9.7337492"><ele>242.0</ele><time>2026-04-04T15:29:43.407Z</time></trkpt><trkpt lat="44.1751601" lon="9.7339244"><ele>246.0</ele><time>2026-04-04T15:29:44.417Z</time></trkpt><trkpt lat="44.1751085" lon="9.7341153"><ele>246.0</ele><time>2026-04-04T15:29:45.408Z</time></trkpt><trkpt lat="44.1750525" lon="9.7342811"><ele>246.00000000000003</ele><time>2026-04-04T15:29:46.422Z</time></trkpt><trkpt lat="44.1750524" lon="9.7344154"><ele>246.00000000000003</ele><time>2026-04-04T15:29:47.426Z</time></trkpt><trkpt lat="44.1751011" lon="9.7345053"><ele>246.0</ele><time>2026-04-04T15:29:48.431Z</time></trkpt><trkpt lat="44.1751952" lon="9.7345388"><ele>246.0</ele><time>2026-04-04T15:29:49.416Z</time></trkpt><trkpt lat="44.1752729" lon="9.7345582"><ele>246.0</ele><time>2026-04-04T15:29:50.412Z</time></trkpt><trkpt lat="44.1754107" lon="9.7344463"><ele>246.0</ele><time>2026-04-04T15:29:51.418Z</time></trkpt><trkpt lat="44.1755441" lon="9.7342658"><ele>246.0</ele><time>2026-04-04T15:29:52.414Z</time></trkpt><trkpt lat="44.1756703" lon="9.7341597"><ele>242.0</ele><time>2026-04-04T15:29:53.415Z</time></trkpt><trkpt lat="44.1758076" lon="9.7341049"><ele>238.0</ele><time>2026-04-04T15:29:54.442Z</time></trkpt><trkpt lat="44.1759297" lon="9.7341069"><ele>234.0</ele><time>2026-04-04T15:29:55.431Z</time></trkpt><trkpt lat="44.1760453" lon="9.7341844"><ele>230.0</ele><time>2026-04-04T15:29:56.448Z</time></trkpt><trkpt lat="44.1761381" lon="9.7343231"><ele>232.5</ele><time>2026-04-04T15:29:57.425Z</time></trkpt><trkpt lat="44.1761881" lon="9.734491"><ele>235.0</ele><time>2026-04-04T15:29:58.442Z</time></trkpt><trkpt lat="44.1761857" lon="9.7346859"><ele>237.5</ele><time>2026-04-04T15:29:59.437Z</time></trkpt><trkpt lat="44.17615" lon="9.7349138"><ele>240.0</ele><time>2026-04-04T15:30:00.429Z</time></trkpt><trkpt lat="44.1760933" lon="9.7351365"><ele>238.5</ele><time>2026-04-04T15:30:01.42Z</time></trkpt><trkpt lat="44.1760489" lon="9.7353289"><ele>237.0</ele><time>2026-04-04T15:30:02.436Z</time></trkpt><trkpt lat="44.1760448" lon="9.7355272"><ele>235.5</ele><time>2026-04-04T15:30:03.435Z</time></trkpt><trkpt lat="44.176069" lon="9.7357141"><ele>234.0</ele><time>2026-04-04T15:30:04.41Z</time></trkpt><trkpt lat="44.17613" lon="9.7359085"><ele>229.33333333333331</ele><time>2026-04-04T15:30:05.444Z</time></trkpt><trkpt lat="44.1762134" lon="9.7360824"><ele>224.66666666666666</ele><time>2026-04-04T15:30:06.435Z</time></trkpt><trkpt lat="44.1763282" lon="9.7362414"><ele>220.0</ele><time>2026-04-04T15:30:07.425Z</time></trkpt><trkpt lat="44.1764469" lon="9.7363946"><ele>221.75</ele><time>2026-04-04T15:30:08.425Z</time></trkpt><trkpt lat="44.176553" lon="9.736562"><ele>223.5</ele><time>2026-04-04T15:30:09.438Z</time></trkpt><trkpt lat="44.1766528" lon="9.736713"><ele>225.25</ele><time>2026-04-04T15:30:10.439Z</time></trkpt><trkpt lat="44.1767469" lon="9.7368603"><ele>227.0</ele><time>2026-04-04T15:30:11.428Z</time></trkpt><trkpt lat="44.176828" lon="9.7370216"><ele>227.0</ele><time>2026-04-04T15:30:12.437Z</time></trkpt><trkpt lat="44.176872" lon="9.7371982"><ele>227.0</ele><time>2026-04-04T15:30:13.438Z</time></trkpt><trkpt lat="44.1768954" lon="9.7373899"><ele>227.0</ele><time>2026-04-04T15:30:14.435Z</time></trkpt><trkpt lat="44.1769247" lon="9.7375699"><ele>227.0</ele><time>2026-04-04T15:30:15.444Z</time></trkpt><trkpt lat="44.17695" lon="9.7377509"><ele>227.75</ele><time>2026-04-04T15:30:16.447Z</time></trkpt><trkpt lat="44.1769818" lon="9.737933"><ele>228.5</ele><time>2026-04-04T15:30:17.452Z</time></trkpt><trkpt lat="44.1770151" lon="9.7380996"><ele>229.25</ele><time>2026-04-04T15:30:18.45Z</time></trkpt><trkpt lat="44.1770446" lon="9.7382588"><ele>230.0</ele><time>2026-04-04T15:30:19.462Z</time></trkpt><trkpt lat="44.1770742" lon="9.7384185"><ele>229.0</ele><time>2026-04-04T15:30:20.452Z</time></trkpt><trkpt lat="44.1771121" lon="9.7385807"><ele>228.0</ele><time>2026-04-04T15:30:21.45Z</time></trkpt><trkpt lat="44.1771527" lon="9.7387484"><ele>227.0</ele><time>2026-04-04T15:30:22.455Z</time></trkpt><trkpt lat="44.1771962" lon="9.7389201"><ele>226.0</ele><time>2026-04-04T15:30:23.451Z</time></trkpt><trkpt lat="44.1772416" lon="9.7390852"><ele>226.0</ele><time>2026-04-04T15:30:24.449Z</time></trkpt><trkpt lat="44.1772927" lon="9.7392426"><ele>226.0</ele><time>2026-04-04T15:30:25.453Z</time></trkpt><trkpt lat="44.1773533" lon="9.7393812"><ele>226.0</ele><time>2026-04-04T15:30:26.456Z</time></trkpt><trkpt lat="44.1774348" lon="9.7394907"><ele>226.0</ele><time>2026-04-04T15:30:27.457Z</time></trkpt><trkpt lat="44.1775446" lon="9.7395802"><ele>228.75</ele><time>2026-04-04T15:30:28.452Z</time></trkpt><trkpt lat="44.1776758" lon="9.739646"><ele>231.5</ele><time>2026-04-04T15:30:29.452Z</time></trkpt><trkpt lat="44.1778064" lon="9.7397127"><ele>234.25</ele><time>2026-04-04T15:30:30.447Z</time></trkpt><trkpt lat="44.1779221" lon="9.7397963"><ele>237.0</ele><time>2026-04-04T15:30:31.443Z</time></trkpt><trkpt lat="44.1780096" lon="9.7399249"><ele>237.0</ele><time>2026-04-04T15:30:32.451Z</time></trkpt><trkpt lat="44.1780766" lon="9.7400911"><ele>237.0</ele><time>2026-04-04T15:30:33.441Z</time></trkpt><trkpt lat="44.1781428" lon="9.7402584"><ele>237.0</ele><time>2026-04-04T15:30:34.446Z</time></trkpt><trkpt lat="44.1782072" lon="9.7404145"><ele>237.0</ele><time>2026-04-04T15:30:35.442Z</time></trkpt><trkpt lat="44.178266" lon="9.7405648"><ele>237.8</ele><time>2026-04-04T15:30:36.432Z</time></trkpt><trkpt lat="44.178313" lon="9.7407215"><ele>238.6</ele><time>2026-04-04T15:30:37.443Z</time></trkpt><trkpt lat="44.1783373" lon="9.7408776"><ele>239.40000000000003</ele><time>2026-04-04T15:30:38.468Z</time></trkpt><trkpt lat="44.1783277" lon="9.7410168"><ele>240.20000000000002</ele><time>2026-04-04T15:30:39.454Z</time></trkpt><trkpt lat="44.1782927" lon="9.7411663"><ele>241.0</ele><time>2026-04-04T15:30:40.448Z</time></trkpt><trkpt lat="44.1782311" lon="9.7413336"><ele>237.66666666666666</ele><time>2026-04-04T15:30:41.448Z</time></trkpt><trkpt lat="44.1781621" lon="9.7415286"><ele>234.33333333333331</ele><time>2026-04-04T15:30:42.444Z</time></trkpt><trkpt lat="44.1780736" lon="9.7417129"><ele>231.0</ele><time>2026-04-04T15:30:43.447Z</time></trkpt><trkpt lat="44.1779519" lon="9.7418648"><ele>231.0</ele><time>2026-04-04T15:30:44.449Z</time></trkpt><trkpt lat="44.1778325" lon="9.7420004"><ele>231.0</ele><time>2026-04-04T15:30:45.442Z</time></trkpt><trkpt lat="44.1777494" lon="9.7421498"><ele>231.0</ele><time>2026-04-04T15:30:46.433Z</time></trkpt><trkpt lat="44.1776994" lon="9.7423145"><ele>231.0</ele><time>2026-04-04T15:30:47.427Z</time></trkpt><trkpt lat="44.1776721" lon="9.7424874"><ele>231.0</ele><time>2026-04-04T15:30:48.433Z</time></trkpt><trkpt lat="44.1776767" lon="9.7426619"><ele>231.0</ele><time>2026-04-04T15:30:49.428Z</time></trkpt><trkpt lat="44.1777299" lon="9.7428334"><ele>231.0</ele><time>2026-04-04T15:30:50.419Z</time></trkpt><trkpt lat="44.1778097" lon="9.7429967"><ele>231.0</ele><time>2026-04-04T15:30:51.435Z</time></trkpt><trkpt lat="44.1779137" lon="9.7431495"><ele>228.75</ele><time>2026-04-04T15:30:52.426Z</time></trkpt><trkpt lat="44.1779983" lon="9.7433014"><ele>226.5</ele><time>2026-04-04T15:30:53.419Z</time></trkpt><trkpt lat="44.1780587" lon="9.7434761"><ele>224.25</ele><time>2026-04-04T15:30:54.427Z</time></trkpt><trkpt lat="44.1780744" lon="9.7436918"><ele>222.0</ele><time>2026-04-04T15:30:55.441Z</time></trkpt><trkpt lat="44.178049" lon="9.7439224"><ele>218.33333333333331</ele><time>2026-04-04T15:30:56.438Z</time></trkpt><trkpt lat="44.1780294" lon="9.7441499"><ele>214.66666666666666</ele><time>2026-04-04T15:30:57.432Z</time></trkpt><trkpt lat="44.1780366" lon="9.7443748"><ele>211.0</ele><time>2026-04-04T15:30:58.443Z</time></trkpt><trkpt lat="44.1780391" lon="9.7445972"><ele>209.66666666666666</ele><time>2026-04-04T15:30:59.437Z</time></trkpt><trkpt lat="44.1780267" lon="9.7448164"><ele>208.33333333333331</ele><time>2026-04-04T15:31:00.444Z</time></trkpt><trkpt lat="44.1780169" lon="9.7450299"><ele>207.0</ele><time>2026-04-04T15:31:01.437Z</time></trkpt><trkpt lat="44.1780293" lon="9.7452374"><ele>205.0</ele><time>2026-04-04T15:31:02.433Z</time></trkpt><trkpt lat="44.1780937" lon="9.7454253"><ele>203.0</ele><time>2026-04-04T15:31:03.445Z</time></trkpt><trkpt lat="44.1782013" lon="9.7456214"><ele>201.0</ele><time>2026-04-04T15:31:04.447Z</time></trkpt><trkpt lat="44.1782867" lon="9.7458303"><ele>203.75</ele><time>2026-04-04T15:31:05.434Z</time></trkpt><trkpt lat="44.1783649" lon="9.7460131"><ele>206.5</ele><time>2026-04-04T15:31:06.436Z</time></trkpt><trkpt lat="44.1784225" lon="9.7461867"><ele>209.25</ele><time>2026-04-04T15:31:07.43Z</time></trkpt><trkpt lat="44.1784469" lon="9.7463532"><ele>212.0</ele><time>2026-04-04T15:31:08.433Z</time></trkpt><trkpt lat="44.1784146" lon="9.746534"><ele>212.0</ele><time>2026-04-04T15:31:09.44Z</time></trkpt><trkpt lat="44.1783356" lon="9.7467245"><ele>212.0</ele><time>2026-04-04T15:31:10.438Z</time></trkpt><trkpt lat="44.1782549" lon="9.7469087"><ele>212.0</ele><time>2026-04-04T15:31:11.438Z</time></trkpt><trkpt lat="44.1781883" lon="9.7471011"><ele>210.0</ele><time>2026-04-04T15:31:12.445Z</time></trkpt><trkpt lat="44.178137" lon="9.7472954"><ele>208.0</ele><time>2026-04-04T15:31:13.45Z</time></trkpt><trkpt lat="44.1780797" lon="9.7474852"><ele>206.0</ele><time>2026-04-04T15:31:14.451Z</time></trkpt><trkpt lat="44.1779983" lon="9.7476322"><ele>204.0</ele><time>2026-04-04T15:31:15.442Z</time></trkpt><trkpt lat="44.1778708" lon="9.7477287"><ele>202.75</ele><time>2026-04-04T15:31:16.453Z</time></trkpt><trkpt lat="44.1777228" lon="9.7477783"><ele>201.5</ele><time>2026-04-04T15:31:17.428Z</time></trkpt><trkpt lat="44.1775658" lon="9.7477674"><ele>200.25</ele><time>2026-04-04T15:31:18.447Z</time></trkpt><trkpt lat="44.1774312" lon="9.7477644"><ele>199.0</ele><time>2026-04-04T15:31:19.447Z</time></trkpt><trkpt lat="44.1773389" lon="9.7477176"><ele>198.0</ele><time>2026-04-04T15:31:20.432Z</time></trkpt><trkpt lat="44.1772987" lon="9.7476003"><ele>197.0</ele><time>2026-04-04T15:31:21.452Z</time></trkpt><trkpt lat="44.1773031" lon="9.7474488"><ele>196.0</ele><time>2026-04-04T15:31:22.439Z</time></trkpt><trkpt lat="44.1773636" lon="9.747297"><ele>195.0</ele><time>2026-04-04T15:31:23.443Z</time></trkpt><trkpt lat="44.1774539" lon="9.7471464"><ele>195.75</ele><time>2026-04-04T15:31:24.431Z</time></trkpt><trkpt lat="44.1775373" lon="9.7470154"><ele>196.5</ele><time>2026-04-04T15:31:25.423Z</time></trkpt><trkpt lat="44.177598" lon="9.7468742"><ele>197.25</ele><time>2026-04-04T15:31:26.447Z</time></trkpt><trkpt lat="44.177622" lon="9.7467291"><ele>198.0</ele><time>2026-04-04T15:31:27.436Z</time></trkpt><trkpt lat="44.1775735" lon="9.7465856"><ele>198.0</ele><time>2026-04-04T15:31:28.436Z</time></trkpt><trkpt lat="44.1774656" lon="9.746441"><ele>198.0</ele><time>2026-04-04T15:31:29.425Z</time></trkpt><trkpt lat="44.1773418" lon="9.7463007"><ele>198.0</ele><time>2026-04-04T15:31:30.418Z</time></trkpt><trkpt lat="44.1772201" lon="9.7461819"><ele>195.0</ele><time>2026-04-04T15:31:31.423Z</time></trkpt><trkpt lat="44.1771037" lon="9.7461161"><ele>192.0</ele><time>2026-04-04T15:31:32.419Z</time></trkpt><trkpt lat="44.1769765" lon="9.746141"><ele>189.0</ele><time>2026-04-04T15:31:33.432Z</time></trkpt><trkpt lat="44.1768774" lon="9.7462546"><ele>186.0</ele><time>2026-04-04T15:31:34.43Z</time></trkpt><trkpt lat="44.1768331" lon="9.7464411"><ele>186.0</ele><time>2026-04-04T15:31:35.428Z</time></trkpt><trkpt lat="44.1768202" lon="9.7466638"><ele>186.0</ele><time>2026-04-04T15:31:36.427Z</time></trkpt><trkpt lat="44.1767864" lon="9.7468635"><ele>186.0</ele><time>2026-04-04T15:31:37.43Z</time></trkpt><trkpt lat="44.176711" lon="9.7470227"><ele>186.0</ele><time>2026-04-04T15:31:38.423Z</time></trkpt><trkpt lat="44.1765766" lon="9.7471185"><ele>183.33333333333334</ele><time>2026-04-04T15:31:39.424Z</time></trkpt><trkpt lat="44.176426" lon="9.74715"><ele>180.66666666666669</ele><time>2026-04-04T15:31:40.419Z</time></trkpt><trkpt lat="44.1762639" lon="9.7471282"><ele>178.0</ele><time>2026-04-04T15:31:41.428Z</time></trkpt><trkpt lat="44.1760925" lon="9.7470569"><ele>178.0</ele><time>2026-04-04T15:31:42.429Z</time></trkpt><trkpt lat="44.1759371" lon="9.7469731"><ele>178.0</ele><time>2026-04-04T15:31:43.427Z</time></trkpt><trkpt lat="44.1757827" lon="9.7469103"><ele>178.0</ele><time>2026-04-04T15:31:44.43Z</time></trkpt><trkpt lat="44.1756366" lon="9.7468548"><ele>174.75</ele><time>2026-04-04T15:31:45.44Z</time></trkpt><trkpt lat="44.1755245" lon="9.7467948"><ele>171.5</ele><time>2026-04-04T15:31:46.432Z</time></trkpt><trkpt lat="44.1754422" lon="9.7467043"><ele>168.25</ele><time>2026-04-04T15:31:47.433Z</time></trkpt><trkpt lat="44.1753913" lon="9.7465476"><ele>165.0</ele><time>2026-04-04T15:31:48.442Z</time></trkpt><trkpt lat="44.175366" lon="9.7463443"><ele>165.0</ele><time>2026-04-04T15:31:49.434Z</time></trkpt><trkpt lat="44.1753892" lon="9.7461084"><ele>165.0</ele><time>2026-04-04T15:31:50.435Z</time></trkpt><trkpt lat="44.1754403" lon="9.7458534"><ele>165.0</ele><time>2026-04-04T15:31:51.43Z</time></trkpt><trkpt lat="44.1754824" lon="9.7456145"><ele>163.5</ele><time>2026-04-04T15:31:52.428Z</time></trkpt><trkpt lat="44.1755209" lon="9.7453955"><ele>162.0</ele><time>2026-04-04T15:31:53.428Z</time></trkpt><trkpt lat="44.1755481" lon="9.7452086"><ele>160.5</ele><time>2026-04-04T15:31:54.432Z</time></trkpt><trkpt lat="44.1755357" lon="9.7450795"><ele>159.0</ele><time>2026-04-04T15:31:55.439Z</time></trkpt><trkpt lat="44.1754784" lon="9.7449739"><ele>159.0</ele><time>2026-04-04T15:31:56.441Z</time></trkpt><trkpt lat="44.1753826" lon="9.744958"><ele>159.0</ele><time>2026-04-04T15:31:57.442Z</time></trkpt><trkpt lat="44.1752582" lon="9.7449918"><ele>159.0</ele><time>2026-04-04T15:31:58.436Z</time></trkpt><trkpt lat="44.1751299" lon="9.7451171"><ele>159.0</ele><time>2026-04-04T15:31:59.429Z</time></trkpt><trkpt lat="44.1750025" lon="9.7452738"><ele>155.33333333333334</ele><time>2026-04-04T15:32:00.422Z</time></trkpt><trkpt lat="44.1748501" lon="9.7454108"><ele>151.66666666666669</ele><time>2026-04-04T15:32:01.421Z</time></trkpt><trkpt lat="44.1747101" lon="9.7455433"><ele>148.0</ele><time>2026-04-04T15:32:02.421Z</time></trkpt><trkpt lat="44.1745946" lon="9.7457034"><ele>148.0</ele><time>2026-04-04T15:32:03.422Z</time></trkpt><trkpt lat="44.1745177" lon="9.7459318"><ele>148.0</ele><time>2026-04-04T15:32:04.42Z</time></trkpt><trkpt lat="44.1744526" lon="9.7461578"><ele>148.0</ele><time>2026-04-04T15:32:05.425Z</time></trkpt><trkpt lat="44.17439" lon="9.7463599"><ele>148.75</ele><time>2026-04-04T15:32:06.438Z</time></trkpt><trkpt lat="44.1743296" lon="9.7464984"><ele>149.5</ele><time>2026-04-04T15:32:07.429Z</time></trkpt><trkpt lat="44.1742394" lon="9.7465789"><ele>150.25</ele><time>2026-04-04T15:32:08.443Z</time></trkpt><trkpt lat="44.1741087" lon="9.7466235"><ele>151.0</ele><time>2026-04-04T15:32:09.44Z</time></trkpt><trkpt lat="44.1739431" lon="9.7466289"><ele>145.33333333333334</ele><time>2026-04-04T15:32:10.43Z</time></trkpt><trkpt lat="44.1737753" lon="9.7466258"><ele>139.66666666666666</ele><time>2026-04-04T15:32:11.432Z</time></trkpt><trkpt lat="44.1736216" lon="9.7466416"><ele>134.0</ele><time>2026-04-04T15:32:12.439Z</time></trkpt><trkpt lat="44.1734789" lon="9.7466959"><ele>134.0</ele><time>2026-04-04T15:32:13.431Z</time></trkpt><trkpt lat="44.1733808" lon="9.7468355"><ele>134.0</ele><time>2026-04-04T15:32:14.445Z</time></trkpt><trkpt lat="44.173326" lon="9.7470385"><ele>134.0</ele><time>2026-04-04T15:32:15.44Z</time></trkpt><trkpt lat="44.1732847" lon="9.7472376"><ele>134.0</ele><time>2026-04-04T15:32:16.437Z</time></trkpt><trkpt lat="44.1732763" lon="9.7474572"><ele>135.33333333333331</ele><time>2026-04-04T15:32:17.437Z</time></trkpt><trkpt lat="44.1732763" lon="9.7476634"><ele>136.66666666666666</ele><time>2026-04-04T15:32:18.432Z</time></trkpt><trkpt lat="44.1732635" lon="9.7478694"><ele>138.0</ele><time>2026-04-04T15:32:19.425Z</time></trkpt><trkpt lat="44.1731983" lon="9.7480717"><ele>132.25</ele><time>2026-04-04T15:32:20.419Z</time></trkpt><trkpt lat="44.1731426" lon="9.7482722"><ele>126.5</ele><time>2026-04-04T15:32:21.425Z</time></trkpt><trkpt lat="44.1730998" lon="9.7484716"><ele>120.75</ele><time>2026-04-04T15:32:22.427Z</time></trkpt><trkpt lat="44.1730671" lon="9.7486667"><ele>115.0</ele><time>2026-04-04T15:32:23.421Z</time></trkpt><trkpt lat="44.1730404" lon="9.7488535"><ele>114.25</ele><time>2026-04-04T15:32:24.42Z</time></trkpt><trkpt lat="44.1730119" lon="9.7490345"><ele>113.5</ele><time>2026-04-04T15:32:25.426Z</time></trkpt><trkpt lat="44.1729902" lon="9.7492065"><ele>112.75</ele><time>2026-04-04T15:32:26.423Z</time></trkpt><trkpt lat="44.17297" lon="9.7493583"><ele>112.0</ele><time>2026-04-04T15:32:27.422Z</time></trkpt><trkpt lat="44.1729516" lon="9.7495264"><ele>110.5</ele><time>2026-04-04T15:32:28.426Z</time></trkpt><trkpt lat="44.1729492" lon="9.7496947"><ele>109.0</ele><time>2026-04-04T15:32:29.426Z</time></trkpt><trkpt lat="44.1729734" lon="9.7498588"><ele>107.5</ele><time>2026-04-04T15:32:30.436Z</time></trkpt><trkpt lat="44.1730123" lon="9.7500202"><ele>106.0</ele><time>2026-04-04T15:32:31.432Z</time></trkpt><trkpt lat="44.173049" lon="9.7501926"><ele>104.75</ele><time>2026-04-04T15:32:32.433Z</time></trkpt><trkpt lat="44.1730876" lon="9.7503727"><ele>103.5</ele><time>2026-04-04T15:32:33.435Z</time></trkpt><trkpt lat="44.1731309" lon="9.7505497"><ele>102.25</ele><time>2026-04-04T15:32:34.444Z</time></trkpt><trkpt lat="44.1731791" lon="9.7507194"><ele>101.0</ele><time>2026-04-04T15:32:35.438Z</time></trkpt><trkpt lat="44.1732327" lon="9.7508778"><ele>102.5</ele><time>2026-04-04T15:32:36.437Z</time></trkpt><trkpt lat="44.1732946" lon="9.7510293"><ele>104.0</ele><time>2026-04-04T15:32:37.445Z</time></trkpt><trkpt lat="44.1733586" lon="9.7511877"><ele>105.5</ele><time>2026-04-04T15:32:38.448Z</time></trkpt><trkpt lat="44.1734125" lon="9.7513527"><ele>107.0</ele><time>2026-04-04T15:32:39.44Z</time></trkpt><trkpt lat="44.1734403" lon="9.7515326"><ele>107.0</ele><time>2026-04-04T15:32:40.438Z</time></trkpt><trkpt lat="44.1734419" lon="9.751729"><ele>107.0</ele><time>2026-04-04T15:32:41.436Z</time></trkpt><trkpt lat="44.173414" lon="9.7519279"><ele>107.0</ele><time>2026-04-04T15:32:42.43Z</time></trkpt><trkpt lat="44.173384" lon="9.7521133"><ele>107.0</ele><time>2026-04-04T15:32:43.448Z</time></trkpt><trkpt lat="44.1733711" lon="9.7522915"><ele>105.5</ele><time>2026-04-04T15:32:44.447Z</time></trkpt><trkpt lat="44.1733708" lon="9.7524611"><ele>104.0</ele><time>2026-04-04T15:32:45.446Z</time></trkpt><trkpt lat="44.1733826" lon="9.7526198"><ele>102.5</ele><time>2026-04-04T15:32:46.442Z</time></trkpt><trkpt lat="44.173404" lon="9.7527805"><ele>101.0</ele><time>2026-04-04T15:32:47.452Z</time></trkpt><trkpt lat="44.173439" lon="9.7529306"><ele>100.19999999999999</ele><time>2026-04-04T15:32:48.449Z</time></trkpt><trkpt lat="44.1734728" lon="9.7530804"><ele>99.39999999999999</ele><time>2026-04-04T15:32:49.449Z</time></trkpt><trkpt lat="44.1735056" lon="9.7532275"><ele>98.6</ele><time>2026-04-04T15:32:50.44Z</time></trkpt><trkpt lat="44.1735268" lon="9.7533759"><ele>97.8</ele><time>2026-04-04T15:32:51.436Z</time></trkpt><trkpt lat="44.1735414" lon="9.753525"><ele>97.0</ele><time>2026-04-04T15:32:52.44Z</time></trkpt><trkpt lat="44.1735438" lon="9.753672"><ele>96.19999999999999</ele><time>2026-04-04T15:32:53.432Z</time></trkpt><trkpt lat="44.1735308" lon="9.7538143"><ele>95.4</ele><time>2026-04-04T15:32:54.441Z</time></trkpt><trkpt lat="44.1735074" lon="9.753947"><ele>94.6</ele><time>2026-04-04T15:32:55.441Z</time></trkpt><trkpt lat="44.1734839" lon="9.754056"><ele>93.80000000000001</ele><time>2026-04-04T15:32:56.451Z</time></trkpt><trkpt lat="44.1734588" lon="9.7541614"><ele>93.0</ele><time>2026-04-04T15:32:58.452Z</time></trkpt><trkpt lat="44.1735539" lon="9.754258"><ele>93.0</ele><time>2026-04-04T15:33:02.454Z</time></trkpt><trkpt lat="44.1736616" lon="9.7543066"><ele>93.0</ele><time>2026-04-04T15:33:03.455Z</time></trkpt><trkpt lat="44.1737907" lon="9.7543768"><ele>93.0</ele><time>2026-04-04T15:33:04.438Z</time></trkpt><trkpt lat="44.1739329" lon="9.7544661"><ele>93.0</ele><time>2026-04-04T15:33:05.439Z</time></trkpt><trkpt lat="44.1741062" lon="9.754578"><ele>92.0</ele><time>2026-04-04T15:33:06.44Z</time></trkpt><trkpt lat="44.1743692" lon="9.7547459"><ele>91.0</ele><time>2026-04-04T15:33:07.432Z</time></trkpt><trkpt lat="44.1746728" lon="9.7549372"><ele>90.5</ele><time>2026-04-04T15:33:08.43Z</time></trkpt><trkpt lat="44.1749485" lon="9.7551152"><ele>90.0</ele><time>2026-04-04T15:33:09.439Z</time></trkpt><trkpt lat="44.1751735" lon="9.7552657"><ele>90.0</ele><time>2026-04-04T15:33:10.421Z</time></trkpt><trkpt lat="44.175373" lon="9.7553919"><ele>90.0</ele><time>2026-04-04T15:33:11.424Z</time></trkpt><trkpt lat="44.1755389" lon="9.7555158"><ele>90.0</ele><time>2026-04-04T15:33:12.438Z</time></trkpt><trkpt lat="44.1757022" lon="9.7556552"><ele>89.33333333333333</ele><time>2026-04-04T15:33:13.437Z</time></trkpt><trkpt lat="44.1758503" lon="9.7558361"><ele>88.66666666666666</ele><time>2026-04-04T15:33:14.436Z</time></trkpt><trkpt lat="44.1759901" lon="9.7560592"><ele>88.0</ele><time>2026-04-04T15:33:15.437Z</time></trkpt><trkpt lat="44.1761138" lon="9.7563235"><ele>88.0</ele><time>2026-04-04T15:33:16.426Z</time></trkpt><trkpt lat="44.1762393" lon="9.7566095"><ele>88.0</ele><time>2026-04-04T15:33:17.424Z</time></trkpt><trkpt lat="44.1763778" lon="9.7568767"><ele>88.0</ele><time>2026-04-04T15:33:18.438Z</time></trkpt><trkpt lat="44.1765133" lon="9.7571326"><ele>88.0</ele><time>2026-04-04T15:33:19.426Z</time></trkpt><trkpt lat="44.1766259" lon="9.7573792"><ele>88.0</ele><time>2026-04-04T15:33:20.423Z</time></trkpt><trkpt lat="44.1767379" lon="9.7575999"><ele>87.33333333333333</ele><time>2026-04-04T15:33:21.427Z</time></trkpt><trkpt lat="44.1768544" lon="9.7578271"><ele>86.66666666666667</ele><time>2026-04-04T15:33:22.418Z</time></trkpt><trkpt lat="44.1769966" lon="9.7580442"><ele>86.0</ele><time>2026-04-04T15:33:23.424Z</time></trkpt><trkpt lat="44.1771797" lon="9.7582313"><ele>85.5</ele><time>2026-04-04T15:33:24.429Z</time></trkpt><trkpt lat="44.1773898" lon="9.7584162"><ele>85.0</ele><time>2026-04-04T15:33:25.429Z</time></trkpt><trkpt lat="44.1775975" lon="9.7586064"><ele>85.0</ele><time>2026-04-04T15:33:26.428Z</time></trkpt><trkpt lat="44.1778038" lon="9.7587965"><ele>85.0</ele><time>2026-04-04T15:33:27.428Z</time></trkpt><trkpt lat="44.1779969" lon="9.7589857"><ele>85.0</ele><time>2026-04-04T15:33:28.424Z</time></trkpt><trkpt lat="44.1781771" lon="9.7591605"><ele>85.0</ele><time>2026-04-04T15:33:29.421Z</time></trkpt><trkpt lat="44.1783402" lon="9.7593254"><ele>85.0</ele><time>2026-04-04T15:33:30.435Z</time></trkpt><trkpt lat="44.1785049" lon="9.7594801"><ele>84.66666666666666</ele><time>2026-04-04T15:33:31.429Z</time></trkpt><trkpt lat="44.1786607" lon="9.7596319"><ele>84.33333333333333</ele><time>2026-04-04T15:33:32.428Z</time></trkpt><trkpt lat="44.1788132" lon="9.7597697"><ele>84.0</ele><time>2026-04-04T15:33:33.43Z</time></trkpt><trkpt lat="44.1789603" lon="9.759908"><ele>83.66666666666667</ele><time>2026-04-04T15:33:34.43Z</time></trkpt><trkpt lat="44.179107" lon="9.7600381"><ele>83.33333333333334</ele><time>2026-04-04T15:33:35.424Z</time></trkpt><trkpt lat="44.1792454" lon="9.760168"><ele>83.0</ele><time>2026-04-04T15:33:36.428Z</time></trkpt><trkpt lat="44.1794013" lon="9.7603093"><ele>83.0</ele><time>2026-04-04T15:33:37.425Z</time></trkpt><trkpt lat="44.1795576" lon="9.7604519"><ele>83.0</ele><time>2026-04-04T15:33:38.427Z</time></trkpt><trkpt lat="44.1797215" lon="9.7606039"><ele>83.0</ele><time>2026-04-04T15:33:39.426Z</time></trkpt><trkpt lat="44.179887" lon="9.7607694"><ele>83.66666666666667</ele><time>2026-04-04T15:33:40.43Z</time></trkpt><trkpt lat="44.1800592" lon="9.760928"><ele>84.33333333333333</ele><time>2026-04-04T15:33:41.429Z</time></trkpt><trkpt lat="44.1802262" lon="9.7610842"><ele>85.0</ele><time>2026-04-04T15:33:42.43Z</time></trkpt><trkpt lat="44.1803835" lon="9.7612352"><ele>84.0</ele><time>2026-04-04T15:33:43.438Z</time></trkpt><trkpt lat="44.1805356" lon="9.7613795"><ele>83.0</ele><time>2026-04-04T15:33:44.434Z</time></trkpt><trkpt lat="44.1806846" lon="9.7615125"><ele>82.0</ele><time>2026-04-04T15:33:45.441Z</time></trkpt><trkpt lat="44.1808249" lon="9.7616469"><ele>82.0</ele><time>2026-04-04T15:33:46.44Z</time></trkpt><trkpt lat="44.1809672" lon="9.7617779"><ele>82.0</ele><time>2026-04-04T15:33:47.437Z</time></trkpt><trkpt lat="44.1811044" lon="9.7619113"><ele>82.0</ele><time>2026-04-04T15:33:48.442Z</time></trkpt><trkpt lat="44.1812436" lon="9.7620431"><ele>82.0</ele><time>2026-04-04T15:33:49.444Z</time></trkpt><trkpt lat="44.1813899" lon="9.7621757"><ele>82.0</ele><time>2026-04-04T15:33:50.444Z</time></trkpt><trkpt lat="44.1815404" lon="9.7623151"><ele>82.0</ele><time>2026-04-04T15:33:51.44Z</time></trkpt><trkpt lat="44.1816971" lon="9.7624576"><ele>82.0</ele><time>2026-04-04T15:33:52.435Z</time></trkpt><trkpt lat="44.1818484" lon="9.7626045"><ele>82.0</ele><time>2026-04-04T15:33:53.435Z</time></trkpt><trkpt lat="44.1820056" lon="9.7627503"><ele>82.0</ele><time>2026-04-04T15:33:54.444Z</time></trkpt><trkpt lat="44.1821702" lon="9.7629025"><ele>84.33333333333333</ele><time>2026-04-04T15:33:55.424Z</time></trkpt><trkpt lat="44.1823484" lon="9.763062"><ele>86.66666666666667</ele><time>2026-04-04T15:33:56.431Z</time></trkpt><trkpt lat="44.1825243" lon="9.7632267"><ele>89.0</ele><time>2026-04-04T15:33:57.431Z</time></trkpt><trkpt lat="44.1826982" lon="9.7633867"><ele>87.0</ele><time>2026-04-04T15:33:58.432Z</time></trkpt><trkpt lat="44.1828825" lon="9.7635605"><ele>85.0</ele><time>2026-04-04T15:33:59.426Z</time></trkpt><trkpt lat="44.1830488" lon="9.7637214"><ele>83.0</ele><time>2026-04-04T15:34:00.436Z</time></trkpt><trkpt lat="44.1832245" lon="9.7638602"><ele>83.0</ele><time>2026-04-04T15:34:01.427Z</time></trkpt><trkpt lat="44.183389" lon="9.7639838"><ele>83.0</ele><time>2026-04-04T15:34:02.427Z</time></trkpt><trkpt lat="44.1835462" lon="9.7641019"><ele>83.0</ele><time>2026-04-04T15:34:03.43Z</time></trkpt><trkpt lat="44.183695" lon="9.7642158"><ele>83.0</ele><time>2026-04-04T15:34:04.426Z</time></trkpt><trkpt lat="44.1838369" lon="9.7643378"><ele>83.0</ele><time>2026-04-04T15:34:05.427Z</time></trkpt><trkpt lat="44.1839767" lon="9.7644547"><ele>83.0</ele><time>2026-04-04T15:34:06.431Z</time></trkpt><trkpt lat="44.1841106" lon="9.7645754"><ele>81.66666666666667</ele><time>2026-04-04T15:34:07.428Z</time></trkpt><trkpt lat="44.1842691" lon="9.7646859"><ele>80.33333333333333</ele><time>2026-04-04T15:34:08.434Z</time></trkpt><trkpt lat="44.1844541" lon="9.7647601"><ele>79.0</ele><time>2026-04-04T15:34:09.425Z</time></trkpt><trkpt lat="44.1846612" lon="9.7647823"><ele>79.0</ele><time>2026-04-04T15:34:10.425Z</time></trkpt><trkpt lat="44.1848872" lon="9.7647535"><ele>79.0</ele><time>2026-04-04T15:34:11.423Z</time></trkpt><trkpt lat="44.1851049" lon="9.7647331"><ele>79.0</ele><time>2026-04-04T15:34:12.429Z</time></trkpt><trkpt lat="44.185307" lon="9.7647198"><ele>79.0</ele><time>2026-04-04T15:34:13.43Z</time></trkpt><trkpt lat="44.1855055" lon="9.7647104"><ele>79.0</ele><time>2026-04-04T15:34:14.428Z</time></trkpt><trkpt lat="44.1856997" lon="9.7647039"><ele>79.0</ele><time>2026-04-04T15:34:15.428Z</time></trkpt><trkpt lat="44.1859083" lon="9.7647094"><ele>79.33333333333333</ele><time>2026-04-04T15:34:16.427Z</time></trkpt><trkpt lat="44.1861095" lon="9.7647496"><ele>79.66666666666667</ele><time>2026-04-04T15:34:17.421Z</time></trkpt><trkpt lat="44.1862996" lon="9.7648163"><ele>80.0</ele><time>2026-04-04T15:34:18.418Z</time></trkpt><trkpt lat="44.1864783" lon="9.7648795"><ele>82.66666666666667</ele><time>2026-04-04T15:34:19.42Z</time></trkpt><trkpt lat="44.1866503" lon="9.764952"><ele>85.33333333333333</ele><time>2026-04-04T15:34:20.422Z</time></trkpt><trkpt lat="44.1868141" lon="9.765023"><ele>88.0</ele><time>2026-04-04T15:34:21.423Z</time></trkpt><trkpt lat="44.1869702" lon="9.76508"><ele>88.0</ele><time>2026-04-04T15:34:22.429Z</time></trkpt><trkpt lat="44.1871221" lon="9.7651212"><ele>88.0</ele><time>2026-04-04T15:34:23.424Z</time></trkpt><trkpt lat="44.1872676" lon="9.7651671"><ele>88.0</ele><time>2026-04-04T15:34:24.419Z</time></trkpt><trkpt lat="44.1874118" lon="9.7652122"><ele>84.66666666666666</ele><time>2026-04-04T15:34:25.422Z</time></trkpt><trkpt lat="44.1875572" lon="9.7652565"><ele>81.33333333333333</ele><time>2026-04-04T15:34:26.41Z</time></trkpt><trkpt lat="44.1877244" lon="9.7652827"><ele>78.0</ele><time>2026-04-04T15:34:27.419Z</time></trkpt><trkpt lat="44.1879207" lon="9.7653417"><ele>78.0</ele><time>2026-04-04T15:34:28.42Z</time></trkpt><trkpt lat="44.188143" lon="9.7654258"><ele>78.0</ele><time>2026-04-04T15:34:29.417Z</time></trkpt><trkpt lat="44.1883776" lon="9.7655267"><ele>77.5</ele><time>2026-04-04T15:34:30.419Z</time></trkpt><trkpt lat="44.188619" lon="9.7656052"><ele>77.0</ele><time>2026-04-04T15:34:31.41Z</time></trkpt><trkpt lat="44.1888598" lon="9.7656823"><ele>80.5</ele><time>2026-04-04T15:34:32.417Z</time></trkpt><trkpt lat="44.1891017" lon="9.7657654"><ele>84.0</ele><time>2026-04-04T15:34:33.416Z</time></trkpt><trkpt lat="44.1893453" lon="9.7658626"><ele>84.0</ele><time>2026-04-04T15:34:34.419Z</time></trkpt><trkpt lat="44.1895859" lon="9.7659572"><ele>84.0</ele><time>2026-04-04T15:34:35.423Z</time></trkpt><trkpt lat="44.1898034" lon="9.766044"><ele>82.0</ele><time>2026-04-04T15:34:36.418Z</time></trkpt><trkpt lat="44.1900056" lon="9.7661292"><ele>80.0</ele><time>2026-04-04T15:34:37.413Z</time></trkpt><trkpt lat="44.1901945" lon="9.7661532"><ele>78.0</ele><time>2026-04-04T15:34:38.417Z</time></trkpt><trkpt lat="44.1903856" lon="9.7661211"><ele>77.33333333333333</ele><time>2026-04-04T15:34:39.424Z</time></trkpt><trkpt lat="44.1905846" lon="9.7660069"><ele>76.66666666666666</ele><time>2026-04-04T15:34:40.426Z</time></trkpt><trkpt lat="44.1907864" lon="9.765914"><ele>76.0</ele><time>2026-04-04T15:34:41.413Z</time></trkpt><trkpt lat="44.1909602" lon="9.7658792"><ele>76.0</ele><time>2026-04-04T15:34:42.421Z</time></trkpt><trkpt lat="44.1911109" lon="9.765921"><ele>76.0</ele><time>2026-04-04T15:34:43.425Z</time></trkpt><trkpt lat="44.1912583" lon="9.7660129"><ele>76.0</ele><time>2026-04-04T15:34:44.422Z</time></trkpt><trkpt lat="44.1913791" lon="9.7661539"><ele>76.0</ele><time>2026-04-04T15:34:45.435Z</time></trkpt><trkpt lat="44.1915008" lon="9.7663577"><ele>76.0</ele><time>2026-04-04T15:34:46.423Z</time></trkpt><trkpt lat="44.1916301" lon="9.7665728"><ele>76.0</ele><time>2026-04-04T15:34:47.429Z</time></trkpt><trkpt lat="44.191768" lon="9.7667727"><ele>75.66666666666666</ele><time>2026-04-04T15:34:48.419Z</time></trkpt><trkpt lat="44.1919086" lon="9.7669789"><ele>75.33333333333333</ele><time>2026-04-04T15:34:49.428Z</time></trkpt><trkpt lat="44.1920424" lon="9.7671803"><ele>75.0</ele><time>2026-04-04T15:34:50.438Z</time></trkpt><trkpt lat="44.1921693" lon="9.7673763"><ele>75.0</ele><time>2026-04-04T15:34:51.434Z</time></trkpt><trkpt lat="44.1922925" lon="9.7675696"><ele>75.0</ele><time>2026-04-04T15:34:52.436Z</time></trkpt><trkpt lat="44.1924094" lon="9.7677464"><ele>75.0</ele><time>2026-04-04T15:34:53.432Z</time></trkpt><trkpt lat="44.1925217" lon="9.7679202"><ele>74.66666666666667</ele><time>2026-04-04T15:34:54.431Z</time></trkpt><trkpt lat="44.192634" lon="9.7680935"><ele>74.33333333333334</ele><time>2026-04-04T15:34:55.426Z</time></trkpt><trkpt lat="44.1927508" lon="9.7682691"><ele>74.0</ele><time>2026-04-04T15:34:56.435Z</time></trkpt><trkpt lat="44.1928717" lon="9.7684426"><ele>74.66666666666667</ele><time>2026-04-04T15:34:57.431Z</time></trkpt><trkpt lat="44.1929943" lon="9.7686157"><ele>75.33333333333333</ele><time>2026-04-04T15:34:58.432Z</time></trkpt><trkpt lat="44.1931117" lon="9.7687457"><ele>76.0</ele><time>2026-04-04T15:34:59.426Z</time></trkpt><trkpt lat="44.1932369" lon="9.7688349"><ele>76.0</ele><time>2026-04-04T15:35:00.429Z</time></trkpt><trkpt lat="44.1933712" lon="9.7689003"><ele>76.0</ele><time>2026-04-04T15:35:01.427Z</time></trkpt><trkpt lat="44.1935269" lon="9.7689429"><ele>76.0</ele><time>2026-04-04T15:35:02.424Z</time></trkpt><trkpt lat="44.1937017" lon="9.7689459"><ele>76.0</ele><time>2026-04-04T15:35:03.429Z</time></trkpt><trkpt lat="44.1938755" lon="9.7689339"><ele>76.0</ele><time>2026-04-04T15:35:04.44Z</time></trkpt><trkpt lat="44.1940389" lon="9.7689221"><ele>76.0</ele><time>2026-04-04T15:35:05.443Z</time></trkpt><trkpt lat="44.1941987" lon="9.768919"><ele>76.66666666666666</ele><time>2026-04-04T15:35:06.439Z</time></trkpt><trkpt lat="44.1943674" lon="9.7689198"><ele>77.33333333333333</ele><time>2026-04-04T15:35:07.44Z</time></trkpt><trkpt lat="44.1945315" lon="9.7689212"><ele>78.0</ele><time>2026-04-04T15:35:08.438Z</time></trkpt><trkpt lat="44.1946869" lon="9.7688995"><ele>78.0</ele><time>2026-04-04T15:35:09.444Z</time></trkpt><trkpt lat="44.194831" lon="9.768846"><ele>78.0</ele><time>2026-04-04T15:35:10.443Z</time></trkpt><trkpt lat="44.194976" lon="9.7687909"><ele>78.0</ele><time>2026-04-04T15:35:11.438Z</time></trkpt><trkpt lat="44.1951272" lon="9.7687222"><ele>78.33333333333333</ele><time>2026-04-04T15:35:12.436Z</time></trkpt><trkpt lat="44.1952776" lon="9.7686255"><ele>78.66666666666666</ele><time>2026-04-04T15:35:13.429Z</time></trkpt><trkpt lat="44.1954182" lon="9.7685441"><ele>79.0</ele><time>2026-04-04T15:35:14.431Z</time></trkpt><trkpt lat="44.1955463" lon="9.7684414"><ele>78.5</ele><time>2026-04-04T15:35:15.43Z</time></trkpt><trkpt lat="44.1956758" lon="9.7683366"><ele>78.0</ele><time>2026-04-04T15:35:16.431Z</time></trkpt><trkpt lat="44.1958005" lon="9.7682558"><ele>77.5</ele><time>2026-04-04T15:35:17.427Z</time></trkpt><trkpt lat="44.1959311" lon="9.7681848"><ele>77.0</ele><time>2026-04-04T15:35:18.431Z</time></trkpt><trkpt lat="44.196051" lon="9.7681172"><ele>77.0</ele><time>2026-04-04T15:35:19.439Z</time></trkpt><trkpt lat="44.1961691" lon="9.7680456"><ele>77.0</ele><time>2026-04-04T15:35:20.437Z</time></trkpt><trkpt lat="44.1962852" lon="9.7679776"><ele>77.0</ele><time>2026-04-04T15:35:21.432Z</time></trkpt><trkpt lat="44.1963981" lon="9.7679067"><ele>77.0</ele><time>2026-04-04T15:35:22.448Z</time></trkpt><trkpt lat="44.1965102" lon="9.7678382"><ele>76.75</ele><time>2026-04-04T15:35:23.435Z</time></trkpt><trkpt lat="44.1966064" lon="9.7677645"><ele>76.5</ele><time>2026-04-04T15:35:24.445Z</time></trkpt><trkpt lat="44.1966927" lon="9.7676727"><ele>76.25</ele><time>2026-04-04T15:35:25.44Z</time></trkpt><trkpt lat="44.196783" lon="9.7675672"><ele>76.0</ele><time>2026-04-04T15:35:26.448Z</time></trkpt><trkpt lat="44.1968846" lon="9.7674522"><ele>76.0</ele><time>2026-04-04T15:35:27.444Z</time></trkpt><trkpt lat="44.196987" lon="9.7673329"><ele>76.0</ele><time>2026-04-04T15:35:28.441Z</time></trkpt><trkpt lat="44.1970916" lon="9.7672298"><ele>76.0</ele><time>2026-04-04T15:35:29.443Z</time></trkpt><trkpt lat="44.1971992" lon="9.7671682"><ele>76.0</ele><time>2026-04-04T15:35:30.445Z</time></trkpt><trkpt lat="44.1973095" lon="9.767154"><ele>74.25</ele><time>2026-04-04T15:35:31.431Z</time></trkpt><trkpt lat="44.1974152" lon="9.7672019"><ele>72.5</ele><time>2026-04-04T15:35:32.435Z</time></trkpt><trkpt lat="44.1975056" lon="9.7673109"><ele>70.75</ele><time>2026-04-04T15:35:33.442Z</time></trkpt><trkpt lat="44.1975873" lon="9.7674697"><ele>69.0</ele><time>2026-04-04T15:35:34.446Z</time></trkpt><trkpt lat="44.1976692" lon="9.7676744"><ele>68.33333333333333</ele><time>2026-04-04T15:35:35.434Z</time></trkpt><trkpt lat="44.1977629" lon="9.7679011"><ele>67.66666666666666</ele><time>2026-04-04T15:35:36.431Z</time></trkpt><trkpt lat="44.1978632" lon="9.7681197"><ele>67.0</ele><time>2026-04-04T15:35:37.433Z</time></trkpt><trkpt lat="44.1979615" lon="9.7683254"><ele>67.0</ele><time>2026-04-04T15:35:38.437Z</time></trkpt><trkpt lat="44.1980564" lon="9.7685242"><ele>67.0</ele><time>2026-04-04T15:35:39.429Z</time></trkpt><trkpt lat="44.1981523" lon="9.7687071"><ele>67.0</ele><time>2026-04-04T15:35:40.439Z</time></trkpt><trkpt lat="44.1982404" lon="9.7688915"><ele>66.33333333333333</ele><time>2026-04-04T15:35:41.436Z</time></trkpt><trkpt lat="44.1983315" lon="9.7690694"><ele>65.66666666666667</ele><time>2026-04-04T15:35:42.435Z</time></trkpt><trkpt lat="44.1984362" lon="9.7692652"><ele>65.0</ele><time>2026-04-04T15:35:43.442Z</time></trkpt><trkpt lat="44.1985457" lon="9.7694583"><ele>65.0</ele><time>2026-04-04T15:35:44.44Z</time></trkpt><trkpt lat="44.1986466" lon="9.7696458"><ele>65.0</ele><time>2026-04-04T15:35:45.437Z</time></trkpt><trkpt lat="44.1987445" lon="9.7698183"><ele>65.0</ele><time>2026-04-04T15:35:46.447Z</time></trkpt><trkpt lat="44.1988263" lon="9.7699809"><ele>65.0</ele><time>2026-04-04T15:35:47.442Z</time></trkpt><trkpt lat="44.198904" lon="9.7701452"><ele>65.0</ele><time>2026-04-04T15:35:48.432Z</time></trkpt><trkpt lat="44.1989706" lon="9.7703284"><ele>65.0</ele><time>2026-04-04T15:35:49.447Z</time></trkpt><trkpt lat="44.1990083" lon="9.7705583"><ele>70.66666666666667</ele><time>2026-04-04T15:35:50.442Z</time></trkpt><trkpt lat="44.1990396" lon="9.7708203"><ele>76.33333333333333</ele><time>2026-04-04T15:35:51.453Z</time></trkpt><trkpt lat="44.1990651" lon="9.7711418"><ele>82.0</ele><time>2026-04-04T15:35:52.44Z</time></trkpt><trkpt lat="44.1990827" lon="9.7715087"><ele>78.5</ele><time>2026-04-04T15:35:53.457Z</time></trkpt><trkpt lat="44.1991144" lon="9.7719047"><ele>75.0</ele><time>2026-04-04T15:35:54.432Z</time></trkpt><trkpt lat="44.1991367" lon="9.7721906"><ele>75.0</ele><time>2026-04-04T15:35:55.437Z</time></trkpt><trkpt lat="44.1991777" lon="9.7724196"><ele>75.0</ele><time>2026-04-04T15:35:56.417Z</time></trkpt><trkpt lat="44.1992526" lon="9.772652"><ele>75.0</ele><time>2026-04-04T15:35:57.407Z</time></trkpt><trkpt lat="44.1993485" lon="9.7728587"><ele>75.33333333333333</ele><time>2026-04-04T15:35:58.433Z</time></trkpt><trkpt lat="44.1994872" lon="9.7730417"><ele>75.66666666666666</ele><time>2026-04-04T15:35:59.412Z</time></trkpt><trkpt lat="44.1996665" lon="9.773184"><ele>76.0</ele><time>2026-04-04T15:36:00.429Z</time></trkpt><trkpt lat="44.1998793" lon="9.7733038"><ele>76.0</ele><time>2026-04-04T15:36:01.41Z</time></trkpt><trkpt lat="44.2000839" lon="9.773422"><ele>76.0</ele><time>2026-04-04T15:36:02.415Z</time></trkpt><trkpt lat="44.2003011" lon="9.7735422"><ele>75.0</ele><time>2026-04-04T15:36:03.41Z</time></trkpt><trkpt lat="44.2005285" lon="9.7736687"><ele>74.0</ele><time>2026-04-04T15:36:04.406Z</time></trkpt><trkpt lat="44.2007444" lon="9.7738066"><ele>74.0</ele><time>2026-04-04T15:36:05.422Z</time></trkpt><trkpt lat="44.200931" lon="9.7739203"><ele>74.0</ele><time>2026-04-04T15:36:06.414Z</time></trkpt><trkpt lat="44.2011128" lon="9.7740175"><ele>74.0</ele><time>2026-04-04T15:36:07.415Z</time></trkpt><trkpt lat="44.2012999" lon="9.7741147"><ele>71.66666666666667</ele><time>2026-04-04T15:36:08.411Z</time></trkpt><trkpt lat="44.2015072" lon="9.7742086"><ele>69.33333333333333</ele><time>2026-04-04T15:36:09.405Z</time></trkpt><trkpt lat="44.2016973" lon="9.7742949"><ele>67.0</ele><time>2026-04-04T15:36:10.41Z</time></trkpt><trkpt lat="44.2018757" lon="9.7744004"><ele>67.0</ele><time>2026-04-04T15:36:11.409Z</time></trkpt><trkpt lat="44.202043" lon="9.7745303"><ele>67.0</ele><time>2026-04-04T15:36:12.398Z</time></trkpt><trkpt lat="44.2021875" lon="9.7747763"><ele>67.0</ele><time>2026-04-04T15:36:13.41Z</time></trkpt><trkpt lat="44.2023063" lon="9.7750328"><ele>69.0</ele><time>2026-04-04T15:36:14.419Z</time></trkpt><trkpt lat="44.2024302" lon="9.7752499"><ele>71.0</ele><time>2026-04-04T15:36:15.416Z</time></trkpt><trkpt lat="44.2025507" lon="9.7754548"><ele>73.0</ele><time>2026-04-04T15:36:16.407Z</time></trkpt><trkpt lat="44.2026562" lon="9.7756816"><ele>73.0</ele><time>2026-04-04T15:36:17.407Z</time></trkpt><trkpt lat="44.2027288" lon="9.7759467"><ele>73.0</ele><time>2026-04-04T15:36:18.433Z</time></trkpt><trkpt lat="44.202808" lon="9.7761928"><ele>73.0</ele><time>2026-04-04T15:36:19.411Z</time></trkpt><trkpt lat="44.2029051" lon="9.7764269"><ele>70.33333333333333</ele><time>2026-04-04T15:36:20.41Z</time></trkpt><trkpt lat="44.2030005" lon="9.7766395"><ele>67.66666666666667</ele><time>2026-04-04T15:36:21.418Z</time></trkpt><trkpt lat="44.2030845" lon="9.776852"><ele>65.0</ele><time>2026-04-04T15:36:22.416Z</time></trkpt><trkpt lat="44.2031712" lon="9.7770486"><ele>71.0</ele><time>2026-04-04T15:36:23.421Z</time></trkpt><trkpt lat="44.2032487" lon="9.7772522"><ele>77.0</ele><time>2026-04-04T15:36:24.411Z</time></trkpt><trkpt lat="44.2032911" lon="9.7774798"><ele>83.0</ele><time>2026-04-04T15:36:25.403Z</time></trkpt><trkpt lat="44.20328" lon="9.7777316"><ele>83.0</ele><time>2026-04-04T15:36:26.412Z</time></trkpt><trkpt lat="44.2032685" lon="9.7779704"><ele>83.0</ele><time>2026-04-04T15:36:27.408Z</time></trkpt><trkpt lat="44.2032754" lon="9.7782028"><ele>83.0</ele><time>2026-04-04T15:36:28.41Z</time></trkpt><trkpt lat="44.2032726" lon="9.7784181"><ele>83.25</ele><time>2026-04-04T15:36:29.413Z</time></trkpt><trkpt lat="44.2032719" lon="9.7786162"><ele>83.5</ele><time>2026-04-04T15:36:30.422Z</time></trkpt><trkpt lat="44.2032638" lon="9.7787974"><ele>83.75</ele><time>2026-04-04T15:36:31.412Z</time></trkpt><trkpt lat="44.2032179" lon="9.7789682"><ele>84.0</ele><time>2026-04-04T15:36:32.399Z</time></trkpt><trkpt lat="44.2031261" lon="9.7790884"><ele>80.5</ele><time>2026-04-04T15:36:33.415Z</time></trkpt><trkpt lat="44.2030157" lon="9.7791978"><ele>77.0</ele><time>2026-04-04T15:36:34.407Z</time></trkpt><trkpt lat="44.2029082" lon="9.7793396"><ele>73.5</ele><time>2026-04-04T15:36:35.405Z</time></trkpt><trkpt lat="44.2028109" lon="9.7794968"><ele>70.0</ele><time>2026-04-04T15:36:36.414Z</time></trkpt><trkpt lat="44.2027285" lon="9.7796763"><ele>70.0</ele><time>2026-04-04T15:36:37.395Z</time></trkpt><trkpt lat="44.2026725" lon="9.7798841"><ele>70.0</ele><time>2026-04-04T15:36:38.402Z</time></trkpt><trkpt lat="44.2026258" lon="9.7801039"><ele>70.0</ele><time>2026-04-04T15:36:39.405Z</time></trkpt><trkpt lat="44.2025808" lon="9.7803618"><ele>71.66666666666666</ele><time>2026-04-04T15:36:40.406Z</time></trkpt><trkpt lat="44.2025285" lon="9.780633"><ele>73.33333333333333</ele><time>2026-04-04T15:36:41.397Z</time></trkpt><trkpt lat="44.2024726" lon="9.7809095"><ele>75.0</ele><time>2026-04-04T15:36:42.412Z</time></trkpt><trkpt lat="44.2024237" lon="9.7811855"><ele>76.66666666666667</ele><time>2026-04-04T15:36:43.412Z</time></trkpt><trkpt lat="44.2023751" lon="9.7814486"><ele>78.33333333333334</ele><time>2026-04-04T15:36:44.407Z</time></trkpt><trkpt lat="44.2023261" lon="9.7816995"><ele>80.0</ele><time>2026-04-04T15:36:45.412Z</time></trkpt><trkpt lat="44.202272" lon="9.7819464"><ele>75.33333333333334</ele><time>2026-04-04T15:36:46.42Z</time></trkpt><trkpt lat="44.2022215" lon="9.7821958"><ele>70.66666666666667</ele><time>2026-04-04T15:36:47.421Z</time></trkpt><trkpt lat="44.2021718" lon="9.782425"><ele>66.0</ele><time>2026-04-04T15:36:48.418Z</time></trkpt><trkpt lat="44.2021262" lon="9.782646"><ele>66.33333333333333</ele><time>2026-04-04T15:36:49.411Z</time></trkpt><trkpt lat="44.2020818" lon="9.7828639"><ele>66.66666666666666</ele><time>2026-04-04T15:36:50.411Z</time></trkpt><trkpt lat="44.2020392" lon="9.7830827"><ele>67.0</ele><time>2026-04-04T15:36:51.408Z</time></trkpt><trkpt lat="44.2019936" lon="9.7833"><ele>67.0</ele><time>2026-04-04T15:36:52.417Z</time></trkpt><trkpt lat="44.2019502" lon="9.7835127"><ele>67.0</ele><time>2026-04-04T15:36:53.416Z</time></trkpt><trkpt lat="44.2019073" lon="9.7837094"><ele>67.0</ele><time>2026-04-04T15:36:54.425Z</time></trkpt><trkpt lat="44.2018709" lon="9.7839163"><ele>67.25</ele><time>2026-04-04T15:36:55.413Z</time></trkpt><trkpt lat="44.2018578" lon="9.7841268"><ele>67.5</ele><time>2026-04-04T15:36:56.427Z</time></trkpt><trkpt lat="44.2018857" lon="9.7843276"><ele>67.75</ele><time>2026-04-04T15:36:57.401Z</time></trkpt><trkpt lat="44.2019284" lon="9.7845232"><ele>68.0</ele><time>2026-04-04T15:36:58.421Z</time></trkpt><trkpt lat="44.2019862" lon="9.7847121"><ele>68.0</ele><time>2026-04-04T15:36:59.419Z</time></trkpt><trkpt lat="44.2020551" lon="9.7848926"><ele>68.0</ele><time>2026-04-04T15:37:00.423Z</time></trkpt><trkpt lat="44.2021394" lon="9.7850747"><ele>68.0</ele><time>2026-04-04T15:37:01.414Z</time></trkpt><trkpt lat="44.2022327" lon="9.7852404"><ele>68.25</ele><time>2026-04-04T15:37:02.425Z</time></trkpt><trkpt lat="44.2023409" lon="9.7853851"><ele>68.5</ele><time>2026-04-04T15:37:03.418Z</time></trkpt><trkpt lat="44.2024632" lon="9.7855052"><ele>68.75</ele><time>2026-04-04T15:37:04.412Z</time></trkpt><trkpt lat="44.2025996" lon="9.7855839"><ele>69.0</ele><time>2026-04-04T15:37:05.424Z</time></trkpt><trkpt lat="44.2027416" lon="9.7856179"><ele>69.0</ele><time>2026-04-04T15:37:06.422Z</time></trkpt><trkpt lat="44.2029048" lon="9.7855693"><ele>69.0</ele><time>2026-04-04T15:37:07.433Z</time></trkpt><trkpt lat="44.2030692" lon="9.78553"><ele>69.0</ele><time>2026-04-04T15:37:08.427Z</time></trkpt><trkpt lat="44.2032314" lon="9.7854901"><ele>68.75</ele><time>2026-04-04T15:37:09.439Z</time></trkpt><trkpt lat="44.2033854" lon="9.7854637"><ele>68.5</ele><time>2026-04-04T15:37:10.429Z</time></trkpt><trkpt lat="44.203517" lon="9.7854469"><ele>68.25</ele><time>2026-04-04T15:37:11.438Z</time></trkpt><trkpt lat="44.2036355" lon="9.7854348"><ele>68.0</ele><time>2026-04-04T15:37:12.446Z</time></trkpt><trkpt lat="44.2037456" lon="9.7854282"><ele>68.0</ele><time>2026-04-04T15:37:13.433Z</time></trkpt><trkpt lat="44.2038495" lon="9.7854229"><ele>68.0</ele><time>2026-04-04T15:37:14.431Z</time></trkpt><trkpt lat="44.2039409" lon="9.7854371"><ele>68.0</ele><time>2026-04-04T15:37:15.434Z</time></trkpt><trkpt lat="44.2040155" lon="9.7854609"><ele>68.0</ele><time>2026-04-04T15:37:16.436Z</time></trkpt><trkpt lat="44.2040816" lon="9.7855115"><ele>68.0</ele><time>2026-04-04T15:37:17.433Z</time></trkpt><trkpt lat="44.2041358" lon="9.7855801"><ele>68.0</ele><time>2026-04-04T15:37:18.436Z</time></trkpt><trkpt lat="44.2041797" lon="9.7856682"><ele>67.5</ele><time>2026-04-04T15:37:19.433Z</time></trkpt><trkpt lat="44.2042305" lon="9.7857392"><ele>67.0</ele><time>2026-04-04T15:37:20.448Z</time></trkpt><trkpt lat="44.2042947" lon="9.7857588"><ele>66.5</ele><time>2026-04-04T15:37:21.447Z</time></trkpt><trkpt lat="44.2043674" lon="9.7857053"><ele>66.0</ele><time>2026-04-04T15:37:22.448Z</time></trkpt><trkpt lat="44.2044604" lon="9.7856248"><ele>65.5</ele><time>2026-04-04T15:37:23.433Z</time></trkpt><trkpt lat="44.2045681" lon="9.7855741"><ele>65.0</ele><time>2026-04-04T15:37:24.448Z</time></trkpt><trkpt lat="44.204693" lon="9.7855732"><ele>65.0</ele><time>2026-04-04T15:37:25.453Z</time></trkpt><trkpt lat="44.2048264" lon="9.7856155"><ele>65.0</ele><time>2026-04-04T15:37:26.441Z</time></trkpt><trkpt lat="44.2049512" lon="9.7856479"><ele>65.0</ele><time>2026-04-04T15:37:27.44Z</time></trkpt><trkpt lat="44.2050743" lon="9.7856823"><ele>65.0</ele><time>2026-04-04T15:37:28.442Z</time></trkpt><trkpt lat="44.2051938" lon="9.7857123"><ele>65.75</ele><time>2026-04-04T15:37:29.441Z</time></trkpt><trkpt lat="44.2053128" lon="9.7857398"><ele>66.5</ele><time>2026-04-04T15:37:30.435Z</time></trkpt><trkpt lat="44.2054332" lon="9.7857672"><ele>67.25</ele><time>2026-04-04T15:37:31.448Z</time></trkpt><trkpt lat="44.205545" lon="9.785793"><ele>68.0</ele><time>2026-04-04T15:37:32.439Z</time></trkpt><trkpt lat="44.2056418" lon="9.785818"><ele>68.8</ele><time>2026-04-04T15:37:33.439Z</time></trkpt><trkpt lat="44.2057269" lon="9.7858435"><ele>69.6</ele><time>2026-04-04T15:37:34.429Z</time></trkpt><trkpt lat="44.2058139" lon="9.7858702"><ele>70.4</ele><time>2026-04-04T15:37:35.429Z</time></trkpt><trkpt lat="44.2059088" lon="9.7858975"><ele>71.2</ele><time>2026-04-04T15:37:36.428Z</time></trkpt><trkpt lat="44.2059974" lon="9.7859167"><ele>72.0</ele><time>2026-04-04T15:37:37.423Z</time></trkpt><trkpt lat="44.2060876" lon="9.7859444"><ele>72.0</ele><time>2026-04-04T15:37:38.436Z</time></trkpt><trkpt lat="44.2061824" lon="9.7859661"><ele>72.0</ele><time>2026-04-04T15:37:39.416Z</time></trkpt><trkpt lat="44.2062748" lon="9.7859968"><ele>72.0</ele><time>2026-04-04T15:37:40.425Z</time></trkpt><trkpt lat="44.2063744" lon="9.7860473"><ele>72.0</ele><time>2026-04-04T15:37:41.437Z</time></trkpt><trkpt lat="44.2064682" lon="9.7861181"><ele>72.0</ele><time>2026-04-04T15:37:42.434Z</time></trkpt><trkpt lat="44.2065538" lon="9.786209"><ele>72.0</ele><time>2026-04-04T15:37:43.433Z</time></trkpt><trkpt lat="44.2066332" lon="9.7863165"><ele>72.0</ele><time>2026-04-04T15:37:44.434Z</time></trkpt><trkpt lat="44.206704" lon="9.7864476"><ele>72.0</ele><time>2026-04-04T15:37:45.433Z</time></trkpt><trkpt lat="44.2067632" lon="9.7865963"><ele>72.0</ele><time>2026-04-04T15:37:46.433Z</time></trkpt><trkpt lat="44.2068138" lon="9.7867584"><ele>71.75</ele><time>2026-04-04T15:37:47.43Z</time></trkpt><trkpt lat="44.2068454" lon="9.7869273"><ele>71.5</ele><time>2026-04-04T15:37:48.439Z</time></trkpt><trkpt lat="44.2068658" lon="9.787105"><ele>71.25</ele><time>2026-04-04T15:37:49.428Z</time></trkpt><trkpt lat="44.2068783" lon="9.7872992"><ele>71.0</ele><time>2026-04-04T15:37:50.439Z</time></trkpt><trkpt lat="44.2068916" lon="9.7875187"><ele>70.75</ele><time>2026-04-04T15:37:51.442Z</time></trkpt><trkpt lat="44.2068948" lon="9.787743"><ele>70.5</ele><time>2026-04-04T15:37:52.439Z</time></trkpt><trkpt lat="44.2069048" lon="9.7879484"><ele>70.25</ele><time>2026-04-04T15:37:53.439Z</time></trkpt><trkpt lat="44.2069215" lon="9.7881358"><ele>70.0</ele><time>2026-04-04T15:37:54.447Z</time></trkpt><trkpt lat="44.2069377" lon="9.7883088"><ele>70.0</ele><time>2026-04-04T15:37:55.43Z</time></trkpt><trkpt lat="44.2069323" lon="9.7884679"><ele>70.0</ele><time>2026-04-04T15:37:56.451Z</time></trkpt><trkpt lat="44.2069019" lon="9.7886193"><ele>70.0</ele><time>2026-04-04T15:37:57.431Z</time></trkpt><trkpt lat="44.2068813" lon="9.7887815"><ele>70.0</ele><time>2026-04-04T15:37:58.438Z</time></trkpt><trkpt lat="44.2068595" lon="9.7889455"><ele>69.8</ele><time>2026-04-04T15:37:59.432Z</time></trkpt><trkpt lat="44.2068524" lon="9.7891028"><ele>69.6</ele><time>2026-04-04T15:38:00.445Z</time></trkpt><trkpt lat="44.2068529" lon="9.7892523"><ele>69.4</ele><time>2026-04-04T15:38:01.419Z</time></trkpt><trkpt lat="44.2068538" lon="9.7894019"><ele>69.2</ele><time>2026-04-04T15:38:02.42Z</time></trkpt><trkpt lat="44.2068508" lon="9.7895612"><ele>69.0</ele><time>2026-04-04T15:38:03.424Z</time></trkpt><trkpt lat="44.2068298" lon="9.7897245"><ele>69.0</ele><time>2026-04-04T15:38:04.433Z</time></trkpt><trkpt lat="44.2067978" lon="9.7898781"><ele>69.0</ele><time>2026-04-04T15:38:05.432Z</time></trkpt><trkpt lat="44.2067692" lon="9.7900381"><ele>69.0</ele><time>2026-04-04T15:38:06.427Z</time></trkpt><trkpt lat="44.2067477" lon="9.7902103"><ele>69.0</ele><time>2026-04-04T15:38:07.422Z</time></trkpt><trkpt lat="44.2067349" lon="9.7903746"><ele>69.2</ele><time>2026-04-04T15:38:08.431Z</time></trkpt><trkpt lat="44.2067303" lon="9.7905274"><ele>69.4</ele><time>2026-04-04T15:38:09.432Z</time></trkpt><trkpt lat="44.2067174" lon="9.7906771"><ele>69.6</ele><time>2026-04-04T15:38:10.429Z</time></trkpt><trkpt lat="44.2066951" lon="9.7908295"><ele>69.8</ele><time>2026-04-04T15:38:11.433Z</time></trkpt><trkpt lat="44.2066736" lon="9.7909886"><ele>70.0</ele><time>2026-04-04T15:38:12.431Z</time></trkpt><trkpt lat="44.2066596" lon="9.7911589"><ele>70.0</ele><time>2026-04-04T15:38:13.436Z</time></trkpt><trkpt lat="44.2066539" lon="9.7913275"><ele>70.0</ele><time>2026-04-04T15:38:14.43Z</time></trkpt><trkpt lat="44.2066596" lon="9.7914942"><ele>70.0</ele><time>2026-04-04T15:38:15.436Z</time></trkpt><trkpt lat="44.2066685" lon="9.7916619"><ele>70.0</ele><time>2026-04-04T15:38:16.433Z</time></trkpt><trkpt lat="44.2066777" lon="9.7918314"><ele>68.5</ele><time>2026-04-04T15:38:17.434Z</time></trkpt><trkpt lat="44.2066962" lon="9.7919997"><ele>67.0</ele><time>2026-04-04T15:38:18.434Z</time></trkpt><trkpt lat="44.2067292" lon="9.7921624"><ele>65.5</ele><time>2026-04-04T15:38:19.434Z</time></trkpt><trkpt lat="44.206778" lon="9.7923123"><ele>64.0</ele><time>2026-04-04T15:38:20.43Z</time></trkpt><trkpt lat="44.206856" lon="9.7924548"><ele>64.0</ele><time>2026-04-04T15:38:21.45Z</time></trkpt><trkpt lat="44.2069508" lon="9.792588"><ele>64.0</ele><time>2026-04-04T15:38:22.441Z</time></trkpt><trkpt lat="44.2070298" lon="9.7927407"><ele>64.0</ele><time>2026-04-04T15:38:23.445Z</time></trkpt><trkpt lat="44.2070896" lon="9.7929089"><ele>64.0</ele><time>2026-04-04T15:38:24.438Z</time></trkpt><trkpt lat="44.2071349" lon="9.7930789"><ele>63.5</ele><time>2026-04-04T15:38:25.445Z</time></trkpt><trkpt lat="44.2071703" lon="9.7932425"><ele>63.0</ele><time>2026-04-04T15:38:26.445Z</time></trkpt><trkpt lat="44.2072026" lon="9.7933994"><ele>62.5</ele><time>2026-04-04T15:38:27.448Z</time></trkpt><trkpt lat="44.2072308" lon="9.7935579"><ele>62.0</ele><time>2026-04-04T15:38:28.445Z</time></trkpt><trkpt lat="44.2072592" lon="9.7937195"><ele>61.75</ele><time>2026-04-04T15:38:29.441Z</time></trkpt><trkpt lat="44.2072864" lon="9.7938889"><ele>61.5</ele><time>2026-04-04T15:38:30.444Z</time></trkpt><trkpt lat="44.2073059" lon="9.794061"><ele>61.25</ele><time>2026-04-04T15:38:31.435Z</time></trkpt><trkpt lat="44.2073133" lon="9.7942376"><ele>61.0</ele><time>2026-04-04T15:38:32.443Z</time></trkpt><trkpt lat="44.2073089" lon="9.794421"><ele>61.0</ele><time>2026-04-04T15:38:33.443Z</time></trkpt><trkpt lat="44.2072901" lon="9.794608"><ele>61.0</ele><time>2026-04-04T15:38:34.449Z</time></trkpt><trkpt lat="44.2072626" lon="9.7948057"><ele>61.0</ele><time>2026-04-04T15:38:35.445Z</time></trkpt><trkpt lat="44.2072396" lon="9.7950364"><ele>61.0</ele><time>2026-04-04T15:38:36.45Z</time></trkpt><trkpt lat="44.2072276" lon="9.7952943"><ele>61.0</ele><time>2026-04-04T15:38:37.449Z</time></trkpt><trkpt lat="44.2072168" lon="9.7955577"><ele>61.0</ele><time>2026-04-04T15:38:38.447Z</time></trkpt><trkpt lat="44.2072129" lon="9.795824"><ele>61.0</ele><time>2026-04-04T15:38:39.451Z</time></trkpt><trkpt lat="44.207212" lon="9.796076"><ele>61.0</ele><time>2026-04-04T15:38:40.454Z</time></trkpt><trkpt lat="44.2072053" lon="9.7962969"><ele>61.0</ele><time>2026-04-04T15:38:41.44Z</time></trkpt><trkpt lat="44.2071997" lon="9.7965052"><ele>61.0</ele><time>2026-04-04T15:38:42.452Z</time></trkpt><trkpt lat="44.2071942" lon="9.796703"><ele>61.25</ele><time>2026-04-04T15:38:43.447Z</time></trkpt><trkpt lat="44.2071886" lon="9.7968861"><ele>61.5</ele><time>2026-04-04T15:38:44.441Z</time></trkpt><trkpt lat="44.2071717" lon="9.7970678"><ele>61.75</ele><time>2026-04-04T15:38:45.442Z</time></trkpt><trkpt lat="44.2071396" lon="9.7972728"><ele>62.0</ele><time>2026-04-04T15:38:46.442Z</time></trkpt><trkpt lat="44.2070972" lon="9.7974848"><ele>62.333333333333336</ele><time>2026-04-04T15:38:47.437Z</time></trkpt><trkpt lat="44.2070469" lon="9.7977167"><ele>62.66666666666667</ele><time>2026-04-04T15:38:48.443Z</time></trkpt><trkpt lat="44.2069838" lon="9.7979771"><ele>63.0</ele><time>2026-04-04T15:38:49.431Z</time></trkpt><trkpt lat="44.2069043" lon="9.7982576"><ele>65.5</ele><time>2026-04-04T15:38:50.432Z</time></trkpt><trkpt lat="44.2068263" lon="9.7985664"><ele>68.0</ele><time>2026-04-04T15:38:51.431Z</time></trkpt><trkpt lat="44.2067559" lon="9.7988846"><ele>68.0</ele><time>2026-04-04T15:38:52.424Z</time></trkpt><trkpt lat="44.2066906" lon="9.7992048"><ele>68.0</ele><time>2026-04-04T15:38:53.43Z</time></trkpt><trkpt lat="44.206626" lon="9.7995404"><ele>71.5</ele><time>2026-04-04T15:38:54.424Z</time></trkpt><trkpt lat="44.2065553" lon="9.7998803"><ele>75.0</ele><time>2026-04-04T15:38:55.418Z</time></trkpt><trkpt lat="44.2064876" lon="9.8002135"><ele>67.0</ele><time>2026-04-04T15:38:56.426Z</time></trkpt><trkpt lat="44.2064186" lon="9.8005325"><ele>59.0</ele><time>2026-04-04T15:38:57.423Z</time></trkpt><trkpt lat="44.2063341" lon="9.8008414"><ele>62.0</ele><time>2026-04-04T15:38:58.436Z</time></trkpt><trkpt lat="44.2062047" lon="9.8011399"><ele>65.0</ele><time>2026-04-04T15:38:59.435Z</time></trkpt><trkpt lat="44.2060329" lon="9.801414"><ele>65.0</ele><time>2026-04-04T15:39:00.431Z</time></trkpt><trkpt lat="44.2058432" lon="9.8016842"><ele>65.0</ele><time>2026-04-04T15:39:01.431Z</time></trkpt><trkpt lat="44.2056466" lon="9.8019534"><ele>64.5</ele><time>2026-04-04T15:39:02.435Z</time></trkpt><trkpt lat="44.2054519" lon="9.8022234"><ele>64.0</ele><time>2026-04-04T15:39:03.447Z</time></trkpt><trkpt lat="44.2052525" lon="9.8024924"><ele>69.5</ele><time>2026-04-04T15:39:04.442Z</time></trkpt><trkpt lat="44.2050539" lon="9.8027692"><ele>75.0</ele><time>2026-04-04T15:39:05.442Z</time></trkpt><trkpt lat="44.2048577" lon="9.8030378"><ele>76.0</ele><time>2026-04-04T15:39:06.434Z</time></trkpt><trkpt lat="44.2046741" lon="9.8032991"><ele>77.0</ele><time>2026-04-04T15:39:07.439Z</time></trkpt><trkpt lat="44.2044954" lon="9.803551"><ele>77.0</ele><time>2026-04-04T15:39:08.438Z</time></trkpt><trkpt lat="44.2043021" lon="9.8037938"><ele>77.0</ele><time>2026-04-04T15:39:09.429Z</time></trkpt><trkpt lat="44.2040908" lon="9.8040129"><ele>76.5</ele><time>2026-04-04T15:39:10.438Z</time></trkpt><trkpt lat="44.2038688" lon="9.8042228"><ele>76.0</ele><time>2026-04-04T15:39:11.44Z</time></trkpt><trkpt lat="44.203644" lon="9.804437"><ele>76.0</ele><time>2026-04-04T15:39:12.435Z</time></trkpt><trkpt lat="44.2034222" lon="9.8046705"><ele>76.0</ele><time>2026-04-04T15:39:13.435Z</time></trkpt><trkpt lat="44.203208" lon="9.8048974"><ele>75.66666666666666</ele><time>2026-04-04T15:39:14.427Z</time></trkpt><trkpt lat="44.2030159" lon="9.8050859"><ele>75.33333333333333</ele><time>2026-04-04T15:39:15.435Z</time></trkpt><trkpt lat="44.2028394" lon="9.8052518"><ele>75.0</ele><time>2026-04-04T15:39:16.449Z</time></trkpt><trkpt lat="44.2026859" lon="9.8054088"><ele>75.0</ele><time>2026-04-04T15:39:17.423Z</time></trkpt><trkpt lat="44.2025375" lon="9.8055494"><ele>75.0</ele><time>2026-04-04T15:39:18.432Z</time></trkpt><trkpt lat="44.2024057" lon="9.8056809"><ele>75.0</ele><time>2026-04-04T15:39:19.421Z</time></trkpt><trkpt lat="44.2022799" lon="9.8058153"><ele>73.75</ele><time>2026-04-04T15:39:20.442Z</time></trkpt><trkpt lat="44.2021605" lon="9.8059479"><ele>72.5</ele><time>2026-04-04T15:39:21.438Z</time></trkpt><trkpt lat="44.2020468" lon="9.8060731"><ele>71.25</ele><time>2026-04-04T15:39:22.433Z</time></trkpt><trkpt lat="44.2019374" lon="9.8061802"><ele>70.0</ele><time>2026-04-04T15:39:23.44Z</time></trkpt><trkpt lat="44.2018357" lon="9.8062767"><ele>70.0</ele><time>2026-04-04T15:39:24.442Z</time></trkpt><trkpt lat="44.2017277" lon="9.8063791"><ele>70.0</ele><time>2026-04-04T15:39:25.443Z</time></trkpt><trkpt lat="44.201617" lon="9.8064905"><ele>70.0</ele><time>2026-04-04T15:39:26.447Z</time></trkpt><trkpt lat="44.2015143" lon="9.8066197"><ele>70.0</ele><time>2026-04-04T15:39:27.441Z</time></trkpt><trkpt lat="44.2014138" lon="9.8067708"><ele>68.75</ele><time>2026-04-04T15:39:28.449Z</time></trkpt><trkpt lat="44.2013185" lon="9.8069124"><ele>67.5</ele><time>2026-04-04T15:39:29.447Z</time></trkpt><trkpt lat="44.2012362" lon="9.8070581"><ele>66.25</ele><time>2026-04-04T15:39:30.45Z</time></trkpt><trkpt lat="44.2011527" lon="9.8072145"><ele>65.0</ele><time>2026-04-04T15:39:31.439Z</time></trkpt><trkpt lat="44.2010594" lon="9.8073563"><ele>65.0</ele><time>2026-04-04T15:39:32.445Z</time></trkpt><trkpt lat="44.2009539" lon="9.8074801"><ele>65.0</ele><time>2026-04-04T15:39:33.437Z</time></trkpt><trkpt lat="44.2008422" lon="9.8075952"><ele>65.0</ele><time>2026-04-04T15:39:34.443Z</time></trkpt><trkpt lat="44.2007371" lon="9.8077442"><ele>65.0</ele><time>2026-04-04T15:39:35.445Z</time></trkpt><trkpt lat="44.2006238" lon="9.8079714"><ele>63.0</ele><time>2026-04-04T15:39:36.448Z</time></trkpt><trkpt lat="44.2004757" lon="9.8082236"><ele>61.0</ele><time>2026-04-04T15:39:37.431Z</time></trkpt><trkpt lat="44.2003251" lon="9.8084969"><ele>61.0</ele><time>2026-04-04T15:39:38.433Z</time></trkpt><trkpt lat="44.2001815" lon="9.8087767"><ele>61.0</ele><time>2026-04-04T15:39:39.424Z</time></trkpt><trkpt lat="44.2000454" lon="9.8090323"><ele>61.0</ele><time>2026-04-04T15:39:40.42Z</time></trkpt><trkpt lat="44.1999279" lon="9.8092641"><ele>61.0</ele><time>2026-04-04T15:39:41.426Z</time></trkpt><trkpt lat="44.1998302" lon="9.8094881"><ele>61.0</ele><time>2026-04-04T15:39:42.437Z</time></trkpt><trkpt lat="44.1997637" lon="9.8097296"><ele>60.0</ele><time>2026-04-04T15:39:43.424Z</time></trkpt><trkpt lat="44.1997221" lon="9.8099777"><ele>59.0</ele><time>2026-04-04T15:39:44.425Z</time></trkpt><trkpt lat="44.1997211" lon="9.8102425"><ele>58.0</ele><time>2026-04-04T15:39:45.44Z</time></trkpt><trkpt lat="44.1997703" lon="9.8105191"><ele>58.0</ele><time>2026-04-04T15:39:46.427Z</time></trkpt><trkpt lat="44.1998157" lon="9.8108041"><ele>58.0</ele><time>2026-04-04T15:39:47.432Z</time></trkpt><trkpt lat="44.1998577" lon="9.8110689"><ele>58.0</ele><time>2026-04-04T15:39:48.439Z</time></trkpt><trkpt lat="44.1998976" lon="9.8113189"><ele>58.0</ele><time>2026-04-04T15:39:49.435Z</time></trkpt><trkpt lat="44.19994" lon="9.8115479"><ele>58.0</ele><time>2026-04-04T15:39:50.442Z</time></trkpt><trkpt lat="44.1999948" lon="9.8117431"><ele>58.0</ele><time>2026-04-04T15:39:51.434Z</time></trkpt><trkpt lat="44.2000494" lon="9.8119334"><ele>57.75</ele><time>2026-04-04T15:39:52.452Z</time></trkpt><trkpt lat="44.2000433" lon="9.812097"><ele>57.5</ele><time>2026-04-04T15:39:53.444Z</time></trkpt><trkpt lat="44.1999804" lon="9.8122839"><ele>57.25</ele><time>2026-04-04T15:39:54.448Z</time></trkpt><trkpt lat="44.1999106" lon="9.8125039"><ele>57.0</ele><time>2026-04-04T15:39:55.433Z</time></trkpt><trkpt lat="44.1998489" lon="9.8127534"><ele>55.5</ele><time>2026-04-04T15:39:56.424Z</time></trkpt><trkpt lat="44.1997765" lon="9.8130395"><ele>54.0</ele><time>2026-04-04T15:39:57.429Z</time></trkpt><trkpt lat="44.1996923" lon="9.8133471"><ele>54.33333333333333</ele><time>2026-04-04T15:39:58.436Z</time></trkpt><trkpt lat="44.1996189" lon="9.8136439"><ele>54.666666666666664</ele><time>2026-04-04T15:39:59.434Z</time></trkpt><trkpt lat="44.199562" lon="9.813921"><ele>55.0</ele><time>2026-04-04T15:40:00.443Z</time></trkpt><trkpt lat="44.1995077" lon="9.8141798"><ele>55.33333333333333</ele><time>2026-04-04T15:40:01.437Z</time></trkpt><trkpt lat="44.1994515" lon="9.8144301"><ele>55.66666666666667</ele><time>2026-04-04T15:40:02.43Z</time></trkpt><trkpt lat="44.199388" lon="9.8146614"><ele>56.0</ele><time>2026-04-04T15:40:03.428Z</time></trkpt><trkpt lat="44.1993396" lon="9.814894"><ele>57.0</ele><time>2026-04-04T15:40:04.431Z</time></trkpt><trkpt lat="44.1993166" lon="9.8151561"><ele>58.0</ele><time>2026-04-04T15:40:05.438Z</time></trkpt><trkpt lat="44.1993143" lon="9.8154673"><ele>59.0</ele><time>2026-04-04T15:40:06.425Z</time></trkpt><trkpt lat="44.1993116" lon="9.8157916"><ele>60.5</ele><time>2026-04-04T15:40:07.443Z</time></trkpt><trkpt lat="44.1992839" lon="9.8161414"><ele>62.0</ele><time>2026-04-04T15:40:08.438Z</time></trkpt><trkpt lat="44.1992333" lon="9.8164946"><ele>62.0</ele><time>2026-04-04T15:40:09.435Z</time></trkpt><trkpt lat="44.1991497" lon="9.8168097"><ele>62.0</ele><time>2026-04-04T15:40:10.43Z</time></trkpt><trkpt lat="44.1990545" lon="9.8171099"><ele>59.333333333333336</ele><time>2026-04-04T15:40:11.435Z</time></trkpt><trkpt lat="44.1989611" lon="9.8174092"><ele>56.66666666666667</ele><time>2026-04-04T15:40:12.435Z</time></trkpt><trkpt lat="44.1989018" lon="9.8176939"><ele>54.0</ele><time>2026-04-04T15:40:13.423Z</time></trkpt><trkpt lat="44.1988434" lon="9.8179484"><ele>54.0</ele><time>2026-04-04T15:40:14.433Z</time></trkpt><trkpt lat="44.1987599" lon="9.8181483"><ele>54.0</ele><time>2026-04-04T15:40:15.414Z</time></trkpt><trkpt lat="44.1986593" lon="9.8183203"><ele>54.0</ele><time>2026-04-04T15:40:16.407Z</time></trkpt><trkpt lat="44.1985787" lon="9.8184996"><ele>55.33333333333333</ele><time>2026-04-04T15:40:17.406Z</time></trkpt><trkpt lat="44.1985382" lon="9.8186923"><ele>56.666666666666664</ele><time>2026-04-04T15:40:18.421Z</time></trkpt><trkpt lat="44.1985303" lon="9.8189125"><ele>58.0</ele><time>2026-04-04T15:40:19.405Z</time></trkpt><trkpt lat="44.1985534" lon="9.8191749"><ele>56.5</ele><time>2026-04-04T15:40:20.415Z</time></trkpt><trkpt lat="44.1985883" lon="9.8195113"><ele>55.0</ele><time>2026-04-04T15:40:21.408Z</time></trkpt><trkpt lat="44.1986164" lon="9.8198323"><ele>53.5</ele><time>2026-04-04T15:40:22.405Z</time></trkpt><trkpt lat="44.1986412" lon="9.8201842"><ele>52.0</ele><time>2026-04-04T15:40:23.4Z</time></trkpt><trkpt lat="44.1986624" lon="9.8205273"><ele>52.0</ele><time>2026-04-04T15:40:24.401Z</time></trkpt><trkpt lat="44.1986797" lon="9.8208422"><ele>52.0</ele><time>2026-04-04T15:40:25.411Z</time></trkpt><trkpt lat="44.198707" lon="9.8211242"><ele>52.0</ele><time>2026-04-04T15:40:26.421Z</time></trkpt><trkpt lat="44.1987577" lon="9.821381"><ele>52.0</ele><time>2026-04-04T15:40:27.412Z</time></trkpt><trkpt lat="44.1988331" lon="9.8216094"><ele>52.0</ele><time>2026-04-04T15:40:28.422Z</time></trkpt><trkpt lat="44.1989482" lon="9.8218609"><ele>52.0</ele><time>2026-04-04T15:40:29.41Z</time></trkpt><trkpt lat="44.1991156" lon="9.8220875"><ele>53.33333333333333</ele><time>2026-04-04T15:40:30.422Z</time></trkpt><trkpt lat="44.1992596" lon="9.8223456"><ele>54.66666666666667</ele><time>2026-04-04T15:40:31.419Z</time></trkpt><trkpt lat="44.1993683" lon="9.8225756"><ele>56.0</ele><time>2026-04-04T15:40:32.414Z</time></trkpt><trkpt lat="44.1994677" lon="9.8227616"><ele>56.0</ele><time>2026-04-04T15:40:33.422Z</time></trkpt><trkpt lat="44.1996254" lon="9.8229273"><ele>56.0</ele><time>2026-04-04T15:40:34.417Z</time></trkpt><trkpt lat="44.1998076" lon="9.8230728"><ele>56.0</ele><time>2026-04-04T15:40:35.409Z</time></trkpt><trkpt lat="44.199954" lon="9.8232193"><ele>57.0</ele><time>2026-04-04T15:40:36.418Z</time></trkpt><trkpt lat="44.2000539" lon="9.8233657"><ele>58.0</ele><time>2026-04-04T15:40:37.415Z</time></trkpt><trkpt lat="44.2001112" lon="9.8235397"><ele>59.0</ele><time>2026-04-04T15:40:38.419Z</time></trkpt><trkpt lat="44.2001006" lon="9.8237818"><ele>59.0</ele><time>2026-04-04T15:40:39.424Z</time></trkpt><trkpt lat="44.2000906" lon="9.8240735"><ele>59.0</ele><time>2026-04-04T15:40:40.418Z</time></trkpt><trkpt lat="44.2000712" lon="9.8243943"><ele>59.0</ele><time>2026-04-04T15:40:41.423Z</time></trkpt><trkpt lat="44.2000616" lon="9.8247857"><ele>57.5</ele><time>2026-04-04T15:40:42.43Z</time></trkpt><trkpt lat="44.2000532" lon="9.8252109"><ele>56.0</ele><time>2026-04-04T15:40:43.426Z</time></trkpt><trkpt lat="44.2000412" lon="9.8256214"><ele>56.0</ele><time>2026-04-04T15:40:44.44Z</time></trkpt><trkpt lat="44.200027" lon="9.8259552"><ele>56.0</ele><time>2026-04-04T15:40:45.433Z</time></trkpt><trkpt lat="44.2000237" lon="9.8261971"><ele>56.0</ele><time>2026-04-04T15:40:46.439Z</time></trkpt><trkpt lat="44.2000222" lon="9.8264296"><ele>58.0</ele><time>2026-04-04T15:40:47.436Z</time></trkpt><trkpt lat="44.2000223" lon="9.8266524"><ele>60.0</ele><time>2026-04-04T15:40:48.442Z</time></trkpt><trkpt lat="44.2000187" lon="9.8268754"><ele>62.0</ele><time>2026-04-04T15:40:49.437Z</time></trkpt><trkpt lat="44.2000123" lon="9.8271038"><ele>63.75</ele><time>2026-04-04T15:40:50.428Z</time></trkpt><trkpt lat="44.2000129" lon="9.8273021"><ele>65.5</ele><time>2026-04-04T15:40:51.442Z</time></trkpt><trkpt lat="44.200016" lon="9.8274748"><ele>67.25</ele><time>2026-04-04T15:40:52.441Z</time></trkpt><trkpt lat="44.2000147" lon="9.8276641"><ele>69.0</ele><time>2026-04-04T15:40:53.442Z</time></trkpt><trkpt lat="44.1999988" lon="9.8278726"><ele>70.25</ele><time>2026-04-04T15:40:54.447Z</time></trkpt><trkpt lat="44.1999889" lon="9.8280744"><ele>71.5</ele><time>2026-04-04T15:40:55.446Z</time></trkpt><trkpt lat="44.1999762" lon="9.828265"><ele>72.75</ele><time>2026-04-04T15:40:56.442Z</time></trkpt><trkpt lat="44.1999646" lon="9.8284526"><ele>74.0</ele><time>2026-04-04T15:40:57.442Z</time></trkpt><trkpt lat="44.1999397" lon="9.8286422"><ele>75.0</ele><time>2026-04-04T15:40:58.44Z</time></trkpt><trkpt lat="44.1999079" lon="9.8288342"><ele>76.0</ele><time>2026-04-04T15:40:59.435Z</time></trkpt><trkpt lat="44.1998755" lon="9.8290242"><ele>77.0</ele><time>2026-04-04T15:41:00.434Z</time></trkpt><trkpt lat="44.1998367" lon="9.8292069"><ele>78.0</ele><time>2026-04-04T15:41:01.432Z</time></trkpt><trkpt lat="44.1998005" lon="9.8293949"><ele>72.0</ele><time>2026-04-04T15:41:02.418Z</time></trkpt><trkpt lat="44.1997598" lon="9.8295953"><ele>66.0</ele><time>2026-04-04T15:41:03.419Z</time></trkpt><trkpt lat="44.1997232" lon="9.8298009"><ele>60.0</ele><time>2026-04-04T15:41:04.417Z</time></trkpt><trkpt lat="44.1996865" lon="9.8299985"><ele>54.0</ele><time>2026-04-04T15:41:05.421Z</time></trkpt><trkpt lat="44.1996495" lon="9.8301922"><ele>54.0</ele><time>2026-04-04T15:41:06.42Z</time></trkpt><trkpt lat="44.1996166" lon="9.8303897"><ele>54.0</ele><time>2026-04-04T15:41:07.419Z</time></trkpt><trkpt lat="44.1996028" lon="9.830598"><ele>54.0</ele><time>2026-04-04T15:41:08.412Z</time></trkpt><trkpt lat="44.1995965" lon="9.8307849"><ele>54.0</ele><time>2026-04-04T15:41:09.408Z</time></trkpt><trkpt lat="44.1996156" lon="9.8309849"><ele>53.75</ele><time>2026-04-04T15:41:10.402Z</time></trkpt><trkpt lat="44.1996396" lon="9.8311968"><ele>53.5</ele><time>2026-04-04T15:41:11.41Z</time></trkpt><trkpt lat="44.1996396" lon="9.831382"><ele>53.25</ele><time>2026-04-04T15:41:12.416Z</time></trkpt><trkpt lat="44.1996363" lon="9.8315644"><ele>53.0</ele><time>2026-04-04T15:41:13.414Z</time></trkpt><trkpt lat="44.199663" lon="9.8317636"><ele>52.25</ele><time>2026-04-04T15:41:14.421Z</time></trkpt><trkpt lat="44.1997071" lon="9.8319407"><ele>51.5</ele><time>2026-04-04T15:41:15.417Z</time></trkpt><trkpt lat="44.1997572" lon="9.8321282"><ele>50.75</ele><time>2026-04-04T15:41:16.417Z</time></trkpt><trkpt lat="44.1997873" lon="9.8323327"><ele>50.0</ele><time>2026-04-04T15:41:17.42Z</time></trkpt><trkpt lat="44.1998102" lon="9.8325395"><ele>49.5</ele><time>2026-04-04T15:41:18.427Z</time></trkpt><trkpt lat="44.1998242" lon="9.8327424"><ele>49.0</ele><time>2026-04-04T15:41:19.417Z</time></trkpt><trkpt lat="44.1998477" lon="9.8329461"><ele>48.5</ele><time>2026-04-04T15:41:20.426Z</time></trkpt><trkpt lat="44.1998729" lon="9.8331471"><ele>48.0</ele><time>2026-04-04T15:41:21.406Z</time></trkpt><trkpt lat="44.1998944" lon="9.8333481"><ele>54.25</ele><time>2026-04-04T15:41:22.412Z</time></trkpt><trkpt lat="44.199921" lon="9.8335149"><ele>60.5</ele><time>2026-04-04T15:41:23.41Z</time></trkpt><trkpt lat="44.1999491" lon="9.8336862"><ele>66.75</ele><time>2026-04-04T15:41:24.399Z</time></trkpt><trkpt lat="44.1999441" lon="9.8338569"><ele>73.0</ele><time>2026-04-04T15:41:25.401Z</time></trkpt><trkpt lat="44.1998962" lon="9.8340211"><ele>73.0</ele><time>2026-04-04T15:41:26.403Z</time></trkpt><trkpt lat="44.1998338" lon="9.8341952"><ele>73.0</ele><time>2026-04-04T15:41:27.402Z</time></trkpt><trkpt lat="44.1997844" lon="9.834415"><ele>73.0</ele><time>2026-04-04T15:41:28.397Z</time></trkpt><trkpt lat="44.1997534" lon="9.8346302"><ele>63.666666666666664</ele><time>2026-04-04T15:41:29.408Z</time></trkpt><trkpt lat="44.1997264" lon="9.8348432"><ele>54.33333333333333</ele><time>2026-04-04T15:41:30.407Z</time></trkpt><trkpt lat="44.1996937" lon="9.8350481"><ele>45.0</ele><time>2026-04-04T15:41:31.394Z</time></trkpt><trkpt lat="44.1996688" lon="9.8352546"><ele>44.666666666666664</ele><time>2026-04-04T15:41:32.412Z</time></trkpt><trkpt lat="44.1996566" lon="9.8354666"><ele>44.33333333333333</ele><time>2026-04-04T15:41:33.408Z</time></trkpt><trkpt lat="44.1996679" lon="9.8356976"><ele>44.0</ele><time>2026-04-04T15:41:34.4Z</time></trkpt><trkpt lat="44.1996782" lon="9.8359255"><ele>44.33333333333333</ele><time>2026-04-04T15:41:35.412Z</time></trkpt><trkpt lat="44.1996802" lon="9.836152"><ele>44.666666666666664</ele><time>2026-04-04T15:41:36.412Z</time></trkpt><trkpt lat="44.199682" lon="9.8363793"><ele>45.0</ele><time>2026-04-04T15:41:37.418Z</time></trkpt><trkpt lat="44.1996954" lon="9.836618"><ele>45.0</ele><time>2026-04-04T15:41:38.416Z</time></trkpt><trkpt lat="44.1997217" lon="9.8368602"><ele>45.0</ele><time>2026-04-04T15:41:39.423Z</time></trkpt><trkpt lat="44.199754" lon="9.8371073"><ele>45.0</ele><time>2026-04-04T15:41:40.423Z</time></trkpt><trkpt lat="44.1997986" lon="9.8373335"><ele>46.33333333333333</ele><time>2026-04-04T15:41:41.409Z</time></trkpt><trkpt lat="44.1998357" lon="9.8375497"><ele>47.666666666666664</ele><time>2026-04-04T15:41:42.421Z</time></trkpt><trkpt lat="44.1998608" lon="9.8377632"><ele>49.0</ele><time>2026-04-04T15:41:43.416Z</time></trkpt><trkpt lat="44.1998732" lon="9.8379661"><ele>49.0</ele><time>2026-04-04T15:41:44.411Z</time></trkpt><trkpt lat="44.1998793" lon="9.8381748"><ele>49.0</ele><time>2026-04-04T15:41:45.421Z</time></trkpt><trkpt lat="44.1998754" lon="9.8383821"><ele>49.0</ele><time>2026-04-04T15:41:46.419Z</time></trkpt><trkpt lat="44.1998721" lon="9.8385771"><ele>49.0</ele><time>2026-04-04T15:41:47.422Z</time></trkpt><trkpt lat="44.1998916" lon="9.8387799"><ele>49.0</ele><time>2026-04-04T15:41:48.411Z</time></trkpt><trkpt lat="44.1999457" lon="9.8389918"><ele>49.0</ele><time>2026-04-04T15:41:49.41Z</time></trkpt><trkpt lat="44.200001" lon="9.839217"><ele>49.0</ele><time>2026-04-04T15:41:50.421Z</time></trkpt><trkpt lat="44.2000591" lon="9.8394196"><ele>49.0</ele><time>2026-04-04T15:41:51.418Z</time></trkpt><trkpt lat="44.2001183" lon="9.8396168"><ele>49.0</ele><time>2026-04-04T15:41:52.417Z</time></trkpt><trkpt lat="44.200175" lon="9.8397854"><ele>49.0</ele><time>2026-04-04T15:41:53.418Z</time></trkpt><trkpt lat="44.2002095" lon="9.8399594"><ele>49.0</ele><time>2026-04-04T15:41:54.426Z</time></trkpt><trkpt lat="44.2002336" lon="9.8401384"><ele>48.75</ele><time>2026-04-04T15:41:55.43Z</time></trkpt><trkpt lat="44.2002465" lon="9.840314"><ele>48.5</ele><time>2026-04-04T15:41:56.419Z</time></trkpt><trkpt lat="44.2002631" lon="9.8404757"><ele>48.25</ele><time>2026-04-04T15:41:57.434Z</time></trkpt><trkpt lat="44.2003018" lon="9.8406227"><ele>48.0</ele><time>2026-04-04T15:41:58.436Z</time></trkpt><trkpt lat="44.2003614" lon="9.8407672"><ele>48.0</ele><time>2026-04-04T15:41:59.428Z</time></trkpt><trkpt lat="44.2004178" lon="9.840894"><ele>48.0</ele><time>2026-04-04T15:42:00.436Z</time></trkpt><trkpt lat="44.2004794" lon="9.8410163"><ele>48.0</ele><time>2026-04-04T15:42:01.433Z</time></trkpt><trkpt lat="44.200536" lon="9.8411436"><ele>48.0</ele><time>2026-04-04T15:42:02.429Z</time></trkpt><trkpt lat="44.2005848" lon="9.8412661"><ele>48.0</ele><time>2026-04-04T15:42:03.445Z</time></trkpt><trkpt lat="44.2006212" lon="9.8413901"><ele>47.8</ele><time>2026-04-04T15:42:04.434Z</time></trkpt><trkpt lat="44.2006481" lon="9.841514"><ele>47.599999999999994</ele><time>2026-04-04T15:42:05.434Z</time></trkpt><trkpt lat="44.2006615" lon="9.8416415"><ele>47.400000000000006</ele><time>2026-04-04T15:42:06.435Z</time></trkpt><trkpt lat="44.2006629" lon="9.8417685"><ele>47.2</ele><time>2026-04-04T15:42:07.436Z</time></trkpt><trkpt lat="44.2006628" lon="9.8419017"><ele>47.0</ele><time>2026-04-04T15:42:08.44Z</time></trkpt><trkpt lat="44.200661" lon="9.8420387"><ele>47.0</ele><time>2026-04-04T15:42:09.437Z</time></trkpt><trkpt lat="44.2006652" lon="9.8421779"><ele>47.0</ele><time>2026-04-04T15:42:10.432Z</time></trkpt><trkpt lat="44.2006698" lon="9.842319"><ele>47.0</ele><time>2026-04-04T15:42:11.44Z</time></trkpt><trkpt lat="44.2006744" lon="9.8424712"><ele>47.0</ele><time>2026-04-04T15:42:12.436Z</time></trkpt><trkpt lat="44.200679" lon="9.8426296"><ele>47.0</ele><time>2026-04-04T15:42:13.428Z</time></trkpt><trkpt lat="44.2006855" lon="9.8427891"><ele>48.0</ele><time>2026-04-04T15:42:14.436Z</time></trkpt><trkpt lat="44.2006966" lon="9.8429385"><ele>49.0</ele><time>2026-04-04T15:42:15.43Z</time></trkpt><trkpt lat="44.2007119" lon="9.8430793"><ele>50.0</ele><time>2026-04-04T15:42:16.442Z</time></trkpt><trkpt lat="44.2007329" lon="9.8432111"><ele>51.0</ele><time>2026-04-04T15:42:17.438Z</time></trkpt><trkpt lat="44.2007529" lon="9.8433323"><ele>52.0</ele><time>2026-04-04T15:42:18.446Z</time></trkpt><trkpt lat="44.2007769" lon="9.8434481"><ele>53.0</ele><time>2026-04-04T15:42:19.437Z</time></trkpt><trkpt lat="44.2007953" lon="9.8435694"><ele>54.0</ele><time>2026-04-04T15:42:20.44Z</time></trkpt><trkpt lat="44.2008" lon="9.8437062"><ele>55.0</ele><time>2026-04-04T15:42:21.441Z</time></trkpt><trkpt lat="44.2007856" lon="9.8438515"><ele>56.0</ele><time>2026-04-04T15:42:22.441Z</time></trkpt><trkpt lat="44.200759" lon="9.8440008"><ele>57.0</ele><time>2026-04-04T15:42:23.435Z</time></trkpt><trkpt lat="44.2007253" lon="9.8441485"><ele>57.0</ele><time>2026-04-04T15:42:24.439Z</time></trkpt><trkpt lat="44.200695" lon="9.8442816"><ele>57.0</ele><time>2026-04-04T15:42:25.431Z</time></trkpt><trkpt lat="44.2006632" lon="9.8444014"><ele>57.0</ele><time>2026-04-04T15:42:26.438Z</time></trkpt><trkpt lat="44.200618" lon="9.8445146"><ele>57.0</ele><time>2026-04-04T15:42:27.435Z</time></trkpt><trkpt lat="44.20056" lon="9.8446293"><ele>57.0</ele><time>2026-04-04T15:42:28.441Z</time></trkpt><trkpt lat="44.2004926" lon="9.8447495"><ele>56.0</ele><time>2026-04-04T15:42:29.432Z</time></trkpt><trkpt lat="44.2004181" lon="9.8448805"><ele>55.0</ele><time>2026-04-04T15:42:30.43Z</time></trkpt><trkpt lat="44.2003436" lon="9.8450319"><ele>54.0</ele><time>2026-04-04T15:42:31.439Z</time></trkpt><trkpt lat="44.2002757" lon="9.8451976"><ele>53.0</ele><time>2026-04-04T15:42:32.433Z</time></trkpt><trkpt lat="44.2002033" lon="9.8453617"><ele>53.0</ele><time>2026-04-04T15:42:33.449Z</time></trkpt><trkpt lat="44.2001306" lon="9.8455222"><ele>53.0</ele><time>2026-04-04T15:42:34.437Z</time></trkpt><trkpt lat="44.200052" lon="9.845687"><ele>53.0</ele><time>2026-04-04T15:42:35.439Z</time></trkpt><trkpt lat="44.1999685" lon="9.8458542"><ele>53.0</ele><time>2026-04-04T15:42:36.44Z</time></trkpt><trkpt lat="44.1998828" lon="9.8460165"><ele>51.25</ele><time>2026-04-04T15:42:37.434Z</time></trkpt><trkpt lat="44.1998027" lon="9.8461733"><ele>49.5</ele><time>2026-04-04T15:42:38.441Z</time></trkpt><trkpt lat="44.1997393" lon="9.8463506"><ele>47.75</ele><time>2026-04-04T15:42:39.435Z</time></trkpt><trkpt lat="44.1996763" lon="9.8465319"><ele>46.0</ele><time>2026-04-04T15:42:40.439Z</time></trkpt><trkpt lat="44.1996217" lon="9.8467208"><ele>47.0</ele><time>2026-04-04T15:42:41.427Z</time></trkpt><trkpt lat="44.1995745" lon="9.8469184"><ele>48.0</ele><time>2026-04-04T15:42:42.444Z</time></trkpt><trkpt lat="44.199523" lon="9.8471265"><ele>49.0</ele><time>2026-04-04T15:42:43.445Z</time></trkpt><trkpt lat="44.1994716" lon="9.847336"><ele>49.0</ele><time>2026-04-04T15:42:44.438Z</time></trkpt><trkpt lat="44.1994173" lon="9.847524"><ele>49.0</ele><time>2026-04-04T15:42:45.441Z</time></trkpt><trkpt lat="44.1993755" lon="9.8477199"><ele>49.0</ele><time>2026-04-04T15:42:46.441Z</time></trkpt><trkpt lat="44.1993351" lon="9.8479222"><ele>49.0</ele><time>2026-04-04T15:42:47.452Z</time></trkpt><trkpt lat="44.1993119" lon="9.8481208"><ele>48.75</ele><time>2026-04-04T15:42:48.441Z</time></trkpt><trkpt lat="44.1992833" lon="9.8483149"><ele>48.5</ele><time>2026-04-04T15:42:49.446Z</time></trkpt><trkpt lat="44.199252" lon="9.8484928"><ele>48.25</ele><time>2026-04-04T15:42:50.433Z</time></trkpt><trkpt lat="44.199216" lon="9.8486466"><ele>48.0</ele><time>2026-04-04T15:42:51.446Z</time></trkpt><trkpt lat="44.1991802" lon="9.848797"><ele>48.0</ele><time>2026-04-04T15:42:52.433Z</time></trkpt><trkpt lat="44.1991361" lon="9.8489214"><ele>48.0</ele><time>2026-04-04T15:42:53.425Z</time></trkpt><trkpt lat="44.1990811" lon="9.8490242"><ele>48.0</ele><time>2026-04-04T15:42:54.418Z</time></trkpt><trkpt lat="44.1990244" lon="9.8491045"><ele>48.0</ele><time>2026-04-04T15:42:55.419Z</time></trkpt><trkpt lat="44.1989776" lon="9.8491707"><ele>48.0</ele><time>2026-04-04T15:42:56.435Z</time></trkpt><trkpt lat="44.1989298" lon="9.8492308"><ele>48.0</ele><time>2026-04-04T15:42:57.432Z</time></trkpt><trkpt lat="44.1988875" lon="9.8492967"><ele>47.666666666666664</ele><time>2026-04-04T15:42:58.42Z</time></trkpt><trkpt lat="44.1988488" lon="9.8493778"><ele>47.333333333333336</ele><time>2026-04-04T15:42:59.43Z</time></trkpt><trkpt lat="44.1988271" lon="9.8494618"><ele>47.0</ele><time>2026-04-04T15:43:00.447Z</time></trkpt><trkpt lat="44.1988557" lon="9.8495584"><ele>46.66666666666667</ele><time>2026-04-04T15:43:01.436Z</time></trkpt><trkpt lat="44.1989205" lon="9.8496729"><ele>46.333333333333336</ele><time>2026-04-04T15:43:02.423Z</time></trkpt><trkpt lat="44.1989936" lon="9.8498082"><ele>46.0</ele><time>2026-04-04T15:43:03.433Z</time></trkpt><trkpt lat="44.199074" lon="9.8499631"><ele>46.75</ele><time>2026-04-04T15:43:04.427Z</time></trkpt><trkpt lat="44.1991473" lon="9.850144"><ele>47.5</ele><time>2026-04-04T15:43:05.449Z</time></trkpt><trkpt lat="44.1991903" lon="9.8503355"><ele>48.25</ele><time>2026-04-04T15:43:06.434Z</time></trkpt><trkpt lat="44.1992017" lon="9.8505504"><ele>49.0</ele><time>2026-04-04T15:43:07.438Z</time></trkpt><trkpt lat="44.1991752" lon="9.8507725"><ele>50.666666666666664</ele><time>2026-04-04T15:43:08.437Z</time></trkpt><trkpt lat="44.1991231" lon="9.8510282"><ele>52.33333333333333</ele><time>2026-04-04T15:43:09.437Z</time></trkpt><trkpt lat="44.19907" lon="9.8513299"><ele>54.0</ele><time>2026-04-04T15:43:10.433Z</time></trkpt><trkpt lat="44.1990134" lon="9.851647"><ele>48.0</ele><time>2026-04-04T15:43:11.417Z</time></trkpt><trkpt lat="44.1989638" lon="9.8519833"><ele>42.0</ele><time>2026-04-04T15:43:12.436Z</time></trkpt><trkpt lat="44.1989174" lon="9.8523346"><ele>42.5</ele><time>2026-04-04T15:43:13.429Z</time></trkpt><trkpt lat="44.1988645" lon="9.8526884"><ele>43.0</ele><time>2026-04-04T15:43:14.428Z</time></trkpt><trkpt lat="44.1988099" lon="9.8530105"><ele>43.0</ele><time>2026-04-04T15:43:15.425Z</time></trkpt><trkpt lat="44.1987659" lon="9.8532984"><ele>43.0</ele><time>2026-04-04T15:43:16.428Z</time></trkpt><trkpt lat="44.1987269" lon="9.8535783"><ele>43.0</ele><time>2026-04-04T15:43:17.432Z</time></trkpt><trkpt lat="44.1986777" lon="9.8538642"><ele>44.333333333333336</ele><time>2026-04-04T15:43:18.44Z</time></trkpt><trkpt lat="44.1986189" lon="9.8541312"><ele>45.666666666666664</ele><time>2026-04-04T15:43:19.425Z</time></trkpt><trkpt lat="44.1985359" lon="9.8543892"><ele>47.0</ele><time>2026-04-04T15:43:20.423Z</time></trkpt><trkpt lat="44.1984436" lon="9.8546489"><ele>48.666666666666664</ele><time>2026-04-04T15:43:21.428Z</time></trkpt><trkpt lat="44.198356" lon="9.8548795"><ele>50.33333333333333</ele><time>2026-04-04T15:43:22.421Z</time></trkpt><trkpt lat="44.1982883" lon="9.8550671"><ele>52.0</ele><time>2026-04-04T15:43:23.42Z</time></trkpt><trkpt lat="44.1982291" lon="9.8552264"><ele>54.0</ele><time>2026-04-04T15:43:24.419Z</time></trkpt><trkpt lat="44.1981792" lon="9.85537"><ele>56.0</ele><time>2026-04-04T15:43:25.416Z</time></trkpt><trkpt lat="44.1981284" lon="9.8555174"><ele>58.0</ele><time>2026-04-04T15:43:26.421Z</time></trkpt><trkpt lat="44.1980798" lon="9.8556529"><ele>60.0</ele><time>2026-04-04T15:43:27.423Z</time></trkpt><trkpt lat="44.198008" lon="9.8557945"><ele>58.0</ele><time>2026-04-04T15:43:28.427Z</time></trkpt><trkpt lat="44.1979351" lon="9.8559373"><ele>56.0</ele><time>2026-04-04T15:43:29.431Z</time></trkpt><trkpt lat="44.1978631" lon="9.8560723"><ele>54.0</ele><time>2026-04-04T15:43:30.438Z</time></trkpt><trkpt lat="44.1978015" lon="9.8561947"><ele>52.0</ele><time>2026-04-04T15:43:31.427Z</time></trkpt><trkpt lat="44.1977397" lon="9.8563271"><ele>52.0</ele><time>2026-04-04T15:43:32.428Z</time></trkpt><trkpt lat="44.1976726" lon="9.8564656"><ele>52.0</ele><time>2026-04-04T15:43:33.427Z</time></trkpt><trkpt lat="44.1975898" lon="9.8566029"><ele>52.0</ele><time>2026-04-04T15:43:34.438Z</time></trkpt><trkpt lat="44.1974948" lon="9.8567445"><ele>52.0</ele><time>2026-04-04T15:43:35.43Z</time></trkpt><trkpt lat="44.1973896" lon="9.8568948"><ele>50.0</ele><time>2026-04-04T15:43:36.441Z</time></trkpt><trkpt lat="44.197276" lon="9.8570478"><ele>48.0</ele><time>2026-04-04T15:43:37.449Z</time></trkpt><trkpt lat="44.1971619" lon="9.857196"><ele>46.0</ele><time>2026-04-04T15:43:38.444Z</time></trkpt><trkpt lat="44.197051" lon="9.8573442"><ele>46.0</ele><time>2026-04-04T15:43:39.447Z</time></trkpt><trkpt lat="44.196936" lon="9.857498"><ele>46.0</ele><time>2026-04-04T15:43:40.444Z</time></trkpt><trkpt lat="44.1968214" lon="9.8576483"><ele>46.0</ele><time>2026-04-04T15:43:41.453Z</time></trkpt><trkpt lat="44.1967162" lon="9.8577906"><ele>46.0</ele><time>2026-04-04T15:43:42.438Z</time></trkpt><trkpt lat="44.1966129" lon="9.8579328"><ele>46.0</ele><time>2026-04-04T15:43:43.455Z</time></trkpt><trkpt lat="44.1965121" lon="9.8580781"><ele>46.0</ele><time>2026-04-04T15:43:44.44Z</time></trkpt><trkpt lat="44.1964038" lon="9.8582172"><ele>46.0</ele><time>2026-04-04T15:43:45.45Z</time></trkpt><trkpt lat="44.1963011" lon="9.8583445"><ele>46.5</ele><time>2026-04-04T15:43:46.441Z</time></trkpt><trkpt lat="44.1962138" lon="9.8584563"><ele>47.0</ele><time>2026-04-04T15:43:47.438Z</time></trkpt><trkpt lat="44.1961274" lon="9.8585645"><ele>47.5</ele><time>2026-04-04T15:43:48.451Z</time></trkpt><trkpt lat="44.1960352" lon="9.8586772"><ele>48.0</ele><time>2026-04-04T15:43:49.451Z</time></trkpt><trkpt lat="44.1959397" lon="9.8587976"><ele>48.0</ele><time>2026-04-04T15:43:50.449Z</time></trkpt><trkpt lat="44.1958431" lon="9.8589147"><ele>48.0</ele><time>2026-04-04T15:43:51.451Z</time></trkpt><trkpt lat="44.1957503" lon="9.859026"><ele>48.0</ele><time>2026-04-04T15:43:52.447Z</time></trkpt><trkpt lat="44.1956554" lon="9.8591435"><ele>48.0</ele><time>2026-04-04T15:43:53.45Z</time></trkpt><trkpt lat="44.1955596" lon="9.859265"><ele>49.75</ele><time>2026-04-04T15:43:54.452Z</time></trkpt><trkpt lat="44.1954686" lon="9.8593812"><ele>51.5</ele><time>2026-04-04T15:43:55.449Z</time></trkpt><trkpt lat="44.1953791" lon="9.8594933"><ele>53.25</ele><time>2026-04-04T15:43:56.448Z</time></trkpt><trkpt lat="44.1952982" lon="9.8595959"><ele>55.0</ele><time>2026-04-04T15:43:57.445Z</time></trkpt><trkpt lat="44.1952227" lon="9.8596828"><ele>55.0</ele><time>2026-04-04T15:43:58.452Z</time></trkpt><trkpt lat="44.1951458" lon="9.8597446"><ele>55.0</ele><time>2026-04-04T15:43:59.441Z</time></trkpt><trkpt lat="44.1950577" lon="9.8597881"><ele>55.0</ele><time>2026-04-04T15:44:00.465Z</time></trkpt><trkpt lat="44.1949576" lon="9.8597802"><ele>55.0</ele><time>2026-04-04T15:44:01.449Z</time></trkpt><trkpt lat="44.1948666" lon="9.8597428"><ele>55.0</ele><time>2026-04-04T15:44:02.431Z</time></trkpt><trkpt lat="44.19478" lon="9.8596945"><ele>55.6</ele><time>2026-04-04T15:44:03.447Z</time></trkpt><trkpt lat="44.194702" lon="9.8596409"><ele>56.2</ele><time>2026-04-04T15:44:04.437Z</time></trkpt><trkpt lat="44.1946187" lon="9.8595805"><ele>56.8</ele><time>2026-04-04T15:44:05.44Z</time></trkpt><trkpt lat="44.1945302" lon="9.8595342"><ele>57.4</ele><time>2026-04-04T15:44:06.437Z</time></trkpt><trkpt lat="44.1944329" lon="9.8594942"><ele>58.0</ele><time>2026-04-04T15:44:07.461Z</time></trkpt><trkpt lat="44.1943162" lon="9.8594902"><ele>58.0</ele><time>2026-04-04T15:44:08.445Z</time></trkpt><trkpt lat="44.1941872" lon="9.8595083"><ele>58.0</ele><time>2026-04-04T15:44:09.441Z</time></trkpt><trkpt lat="44.1940579" lon="9.8595241"><ele>58.0</ele><time>2026-04-04T15:44:10.427Z</time></trkpt><trkpt lat="44.1939289" lon="9.8595425"><ele>58.0</ele><time>2026-04-04T15:44:11.444Z</time></trkpt><trkpt lat="44.1938066" lon="9.8595553"><ele>56.75</ele><time>2026-04-04T15:44:12.432Z</time></trkpt><trkpt lat="44.1936905" lon="9.8595686"><ele>55.5</ele><time>2026-04-04T15:44:13.45Z</time></trkpt><trkpt lat="44.1935735" lon="9.859582"><ele>54.25</ele><time>2026-04-04T15:44:14.441Z</time></trkpt><trkpt lat="44.1934506" lon="9.8595972"><ele>53.0</ele><time>2026-04-04T15:44:15.447Z</time></trkpt><trkpt lat="44.193329" lon="9.8596133"><ele>53.0</ele><time>2026-04-04T15:44:16.444Z</time></trkpt><trkpt lat="44.1932147" lon="9.8596246"><ele>53.0</ele><time>2026-04-04T15:44:17.434Z</time></trkpt><trkpt lat="44.1931084" lon="9.8596353"><ele>53.0</ele><time>2026-04-04T15:44:18.446Z</time></trkpt><trkpt lat="44.193" lon="9.8596471"><ele>53.0</ele><time>2026-04-04T15:44:19.434Z</time></trkpt><trkpt lat="44.1928874" lon="9.8596581"><ele>53.0</ele><time>2026-04-04T15:44:20.441Z</time></trkpt><trkpt lat="44.1927777" lon="9.8596696"><ele>51.4</ele><time>2026-04-04T15:44:21.455Z</time></trkpt><trkpt lat="44.1926687" lon="9.8596798"><ele>49.8</ele><time>2026-04-04T15:44:22.453Z</time></trkpt><trkpt lat="44.1925643" lon="9.8597038"><ele>48.2</ele><time>2026-04-04T15:44:23.441Z</time></trkpt><trkpt lat="44.1924577" lon="9.8597545"><ele>46.6</ele><time>2026-04-04T15:44:24.453Z</time></trkpt><trkpt lat="44.1923526" lon="9.8598381"><ele>45.0</ele><time>2026-04-04T15:44:25.452Z</time></trkpt><trkpt lat="44.192243" lon="9.859949"><ele>43.5</ele><time>2026-04-04T15:44:26.447Z</time></trkpt><trkpt lat="44.1921367" lon="9.8600704"><ele>42.0</ele><time>2026-04-04T15:44:27.448Z</time></trkpt><trkpt lat="44.1920312" lon="9.8601944"><ele>40.5</ele><time>2026-04-04T15:44:28.438Z</time></trkpt><trkpt lat="44.1919396" lon="9.8603071"><ele>39.0</ele><time>2026-04-04T15:44:29.445Z</time></trkpt><trkpt lat="44.1918554" lon="9.8604116"><ele>40.714285714285715</ele><time>2026-04-04T15:44:30.446Z</time></trkpt><trkpt lat="44.1917882" lon="9.8604925"><ele>42.42857142857142</ele><time>2026-04-04T15:44:31.439Z</time></trkpt><trkpt lat="44.1917271" lon="9.8605511"><ele>44.14285714285714</ele><time>2026-04-04T15:44:32.441Z</time></trkpt><trkpt lat="44.1916679" lon="9.8605881"><ele>45.85714285714286</ele><time>2026-04-04T15:44:33.435Z</time></trkpt><trkpt lat="44.1916045" lon="9.8606069"><ele>47.57142857142857</ele><time>2026-04-04T15:44:34.442Z</time></trkpt><trkpt lat="44.1915353" lon="9.8606108"><ele>49.285714285714285</ele><time>2026-04-04T15:44:35.451Z</time></trkpt><trkpt lat="44.1914483" lon="9.8606043"><ele>51.0</ele><time>2026-04-04T15:44:36.45Z</time></trkpt><trkpt lat="44.1913334" lon="9.8605765"><ele>51.0</ele><time>2026-04-04T15:44:37.452Z</time></trkpt><trkpt lat="44.1911989" lon="9.860521"><ele>51.0</ele><time>2026-04-04T15:44:38.447Z</time></trkpt><trkpt lat="44.1910591" lon="9.8604841"><ele>51.0</ele><time>2026-04-04T15:44:39.437Z</time></trkpt><trkpt lat="44.1909151" lon="9.860474"><ele>51.0</ele><time>2026-04-04T15:44:40.433Z</time></trkpt><trkpt lat="44.1907871" lon="9.8605065"><ele>51.0</ele><time>2026-04-04T15:44:41.437Z</time></trkpt><trkpt lat="44.190692" lon="9.8605764"><ele>51.0</ele><time>2026-04-04T15:44:42.442Z</time></trkpt><trkpt lat="44.1906336" lon="9.860669"><ele>51.0</ele><time>2026-04-04T15:44:43.434Z</time></trkpt><trkpt lat="44.1905734" lon="9.860767"><ele>51.0</ele><time>2026-04-04T15:44:44.431Z</time></trkpt><trkpt lat="44.1905045" lon="9.8608963"><ele>51.0</ele><time>2026-04-04T15:44:45.434Z</time></trkpt><trkpt lat="44.1904255" lon="9.8610337"><ele>49.0</ele><time>2026-04-04T15:44:46.434Z</time></trkpt><trkpt lat="44.1903553" lon="9.8611552"><ele>47.0</ele><time>2026-04-04T15:44:47.517Z</time></trkpt><trkpt lat="44.1902894" lon="9.8612805"><ele>45.0</ele><time>2026-04-04T15:44:48.439Z</time></trkpt><trkpt lat="44.1902287" lon="9.8614035"><ele>43.0</ele><time>2026-04-04T15:44:49.434Z</time></trkpt><trkpt lat="44.190182" lon="9.861541"><ele>41.0</ele><time>2026-04-04T15:44:50.431Z</time></trkpt><trkpt lat="44.1901476" lon="9.8616784"><ele>43.0</ele><time>2026-04-04T15:44:51.452Z</time></trkpt><trkpt lat="44.1901162" lon="9.861821"><ele>45.0</ele><time>2026-04-04T15:44:52.451Z</time></trkpt><trkpt lat="44.190063" lon="9.86197"><ele>47.0</ele><time>2026-04-04T15:44:53.445Z</time></trkpt><trkpt lat="44.1899837" lon="9.862114"><ele>49.0</ele><time>2026-04-04T15:44:54.448Z</time></trkpt><trkpt lat="44.1898767" lon="9.8622604"><ele>46.666666666666664</ele><time>2026-04-04T15:44:55.434Z</time></trkpt><trkpt lat="44.1897585" lon="9.8624016"><ele>44.33333333333333</ele><time>2026-04-04T15:44:56.44Z</time></trkpt><trkpt lat="44.1896317" lon="9.8625353"><ele>42.0</ele><time>2026-04-04T15:44:57.446Z</time></trkpt><trkpt lat="44.1895007" lon="9.8626552"><ele>42.0</ele><time>2026-04-04T15:44:58.445Z</time></trkpt><trkpt lat="44.1893544" lon="9.8627521"><ele>42.0</ele><time>2026-04-04T15:44:59.45Z</time></trkpt><trkpt lat="44.1892011" lon="9.8628437"><ele>42.0</ele><time>2026-04-04T15:45:00.465Z</time></trkpt><trkpt lat="44.1890478" lon="9.8629364"><ele>41.666666666666664</ele><time>2026-04-04T15:45:01.459Z</time></trkpt><trkpt lat="44.1889058" lon="9.8630313"><ele>41.33333333333333</ele><time>2026-04-04T15:45:02.446Z</time></trkpt><trkpt lat="44.1887661" lon="9.8631114"><ele>41.0</ele><time>2026-04-04T15:45:03.451Z</time></trkpt><trkpt lat="44.1886266" lon="9.8631967"><ele>41.0</ele><time>2026-04-04T15:45:04.453Z</time></trkpt><trkpt lat="44.1884843" lon="9.8632958"><ele>41.0</ele><time>2026-04-04T15:45:05.447Z</time></trkpt><trkpt lat="44.188345" lon="9.8634095"><ele>41.0</ele><time>2026-04-04T15:45:06.452Z</time></trkpt><trkpt lat="44.188208" lon="9.8635392"><ele>41.666666666666664</ele><time>2026-04-04T15:45:07.454Z</time></trkpt><trkpt lat="44.1880604" lon="9.8636782"><ele>42.333333333333336</ele><time>2026-04-04T15:45:08.45Z</time></trkpt><trkpt lat="44.1879147" lon="9.8638014"><ele>43.0</ele><time>2026-04-04T15:45:09.46Z</time></trkpt><trkpt lat="44.187768" lon="9.8638912"><ele>43.0</ele><time>2026-04-04T15:45:10.44Z</time></trkpt><trkpt lat="44.187626" lon="9.8639555"><ele>43.0</ele><time>2026-04-04T15:45:11.446Z</time></trkpt><trkpt lat="44.1874866" lon="9.8639858"><ele>43.0</ele><time>2026-04-04T15:45:12.441Z</time></trkpt><trkpt lat="44.1873297" lon="9.8640138"><ele>43.0</ele><time>2026-04-04T15:45:13.446Z</time></trkpt><trkpt lat="44.187163" lon="9.8640435"><ele>42.0</ele><time>2026-04-04T15:45:14.441Z</time></trkpt><trkpt lat="44.1869944" lon="9.8640684"><ele>41.0</ele><time>2026-04-04T15:45:15.45Z</time></trkpt><trkpt lat="44.1868318" lon="9.8640939"><ele>40.0</ele><time>2026-04-04T15:45:16.467Z</time></trkpt><trkpt lat="44.1866804" lon="9.8641439"><ele>40.0</ele><time>2026-04-04T15:45:17.462Z</time></trkpt><trkpt lat="44.1865396" lon="9.8642152"><ele>40.0</ele><time>2026-04-04T15:45:18.445Z</time></trkpt><trkpt lat="44.1864094" lon="9.8642839"><ele>40.0</ele><time>2026-04-04T15:45:19.456Z</time></trkpt><trkpt lat="44.1862931" lon="9.8643315"><ele>40.0</ele><time>2026-04-04T15:45:20.448Z</time></trkpt><trkpt lat="44.1861648" lon="9.8643796"><ele>51.333333333333336</ele><time>2026-04-04T15:45:21.45Z</time></trkpt><trkpt lat="44.1860183" lon="9.8644089"><ele>62.66666666666667</ele><time>2026-04-04T15:45:22.451Z</time></trkpt><trkpt lat="44.185867" lon="9.864403"><ele>74.0</ele><time>2026-04-04T15:45:23.449Z</time></trkpt><trkpt lat="44.1857052" lon="9.8643491"><ele>69.66666666666667</ele><time>2026-04-04T15:45:24.439Z</time></trkpt><trkpt lat="44.185539" lon="9.8642469"><ele>65.33333333333333</ele><time>2026-04-04T15:45:25.437Z</time></trkpt><trkpt lat="44.1853831" lon="9.8641596"><ele>61.0</ele><time>2026-04-04T15:45:26.452Z</time></trkpt><trkpt lat="44.1852356" lon="9.864089"><ele>61.0</ele><time>2026-04-04T15:45:27.442Z</time></trkpt><trkpt lat="44.1851064" lon="9.8640292"><ele>61.0</ele><time>2026-04-04T15:45:28.438Z</time></trkpt><trkpt lat="44.1849765" lon="9.8639585"><ele>61.0</ele><time>2026-04-04T15:45:29.439Z</time></trkpt><trkpt lat="44.1848529" lon="9.8638853"><ele>61.0</ele><time>2026-04-04T15:45:30.448Z</time></trkpt><trkpt lat="44.1847293" lon="9.8637964"><ele>62.0</ele><time>2026-04-04T15:45:31.436Z</time></trkpt><trkpt lat="44.1846165" lon="9.8637095"><ele>63.0</ele><time>2026-04-04T15:45:32.443Z</time></trkpt><trkpt lat="44.1845201" lon="9.8636236"><ele>64.0</ele><time>2026-04-04T15:45:33.436Z</time></trkpt><trkpt lat="44.1844226" lon="9.8635384"><ele>65.0</ele><time>2026-04-04T15:45:34.443Z</time></trkpt><trkpt lat="44.1843157" lon="9.8634568"><ele>62.0</ele><time>2026-04-04T15:45:35.431Z</time></trkpt><trkpt lat="44.1842002" lon="9.8633876"><ele>59.0</ele><time>2026-04-04T15:45:36.439Z</time></trkpt><trkpt lat="44.184089" lon="9.8633318"><ele>56.0</ele><time>2026-04-04T15:45:37.443Z</time></trkpt><trkpt lat="44.1839773" lon="9.8632911"><ele>53.0</ele><time>2026-04-04T15:45:38.443Z</time></trkpt><trkpt lat="44.18386" lon="9.8632741"><ele>51.25</ele><time>2026-04-04T15:45:39.439Z</time></trkpt><trkpt lat="44.1837321" lon="9.8632806"><ele>49.5</ele><time>2026-04-04T15:45:40.441Z</time></trkpt><trkpt lat="44.1836026" lon="9.8633074"><ele>47.75</ele><time>2026-04-04T15:45:41.429Z</time></trkpt><trkpt lat="44.1834744" lon="9.8633705"><ele>46.0</ele><time>2026-04-04T15:45:42.427Z</time></trkpt><trkpt lat="44.1833487" lon="9.8634423"><ele>44.75</ele><time>2026-04-04T15:45:43.443Z</time></trkpt><trkpt lat="44.183222" lon="9.8635194"><ele>43.5</ele><time>2026-04-04T15:45:44.436Z</time></trkpt><trkpt lat="44.1830994" lon="9.8635847"><ele>42.25</ele><time>2026-04-04T15:45:45.433Z</time></trkpt><trkpt lat="44.1829801" lon="9.8636501"><ele>41.0</ele><time>2026-04-04T15:45:46.442Z</time></trkpt><trkpt lat="44.1828662" lon="9.8637164"><ele>41.0</ele><time>2026-04-04T15:45:47.443Z</time></trkpt><trkpt lat="44.1827533" lon="9.8637789"><ele>41.0</ele><time>2026-04-04T15:45:48.446Z</time></trkpt><trkpt lat="44.1826494" lon="9.8638457"><ele>41.0</ele><time>2026-04-04T15:45:49.437Z</time></trkpt><trkpt lat="44.1825492" lon="9.8639244"><ele>41.0</ele><time>2026-04-04T15:45:50.435Z</time></trkpt><trkpt lat="44.1824533" lon="9.8640122"><ele>41.0</ele><time>2026-04-04T15:45:51.449Z</time></trkpt><trkpt lat="44.1823553" lon="9.8640947"><ele>41.0</ele><time>2026-04-04T15:45:52.447Z</time></trkpt><trkpt lat="44.1822553" lon="9.8641775"><ele>41.0</ele><time>2026-04-04T15:45:53.443Z</time></trkpt><trkpt lat="44.1821508" lon="9.8642538"><ele>41.0</ele><time>2026-04-04T15:45:54.451Z</time></trkpt><trkpt lat="44.1820397" lon="9.8643202"><ele>41.25</ele><time>2026-04-04T15:45:55.464Z</time></trkpt><trkpt lat="44.1819214" lon="9.8643803"><ele>41.5</ele><time>2026-04-04T15:45:56.465Z</time></trkpt><trkpt lat="44.1817953" lon="9.8644366"><ele>41.75</ele><time>2026-04-04T15:45:57.466Z</time></trkpt><trkpt lat="44.1816702" lon="9.864485"><ele>42.0</ele><time>2026-04-04T15:45:58.466Z</time></trkpt><trkpt lat="44.1815488" lon="9.8645316"><ele>41.0</ele><time>2026-04-04T15:45:59.463Z</time></trkpt><trkpt lat="44.1814286" lon="9.8645774"><ele>40.0</ele><time>2026-04-04T15:46:00.471Z</time></trkpt><trkpt lat="44.1813136" lon="9.8646229"><ele>39.0</ele><time>2026-04-04T15:46:01.456Z</time></trkpt><trkpt lat="44.1812007" lon="9.8646729"><ele>38.0</ele><time>2026-04-04T15:46:02.441Z</time></trkpt><trkpt lat="44.1810929" lon="9.8647291"><ele>38.0</ele><time>2026-04-04T15:46:03.461Z</time></trkpt><trkpt lat="44.1809948" lon="9.8648051"><ele>38.0</ele><time>2026-04-04T15:46:04.463Z</time></trkpt><trkpt lat="44.1809076" lon="9.8649347"><ele>38.0</ele><time>2026-04-04T15:46:05.456Z</time></trkpt><trkpt lat="44.1808374" lon="9.8650814"><ele>38.0</ele><time>2026-04-04T15:46:06.455Z</time></trkpt><trkpt lat="44.1807736" lon="9.8652225"><ele>38.199999999999996</ele><time>2026-04-04T15:46:07.452Z</time></trkpt><trkpt lat="44.180712" lon="9.8653573"><ele>38.4</ele><time>2026-04-04T15:46:08.451Z</time></trkpt><trkpt lat="44.1806541" lon="9.8654783"><ele>38.599999999999994</ele><time>2026-04-04T15:46:09.452Z</time></trkpt><trkpt lat="44.1805889" lon="9.8655996"><ele>38.8</ele><time>2026-04-04T15:46:10.454Z</time></trkpt><trkpt lat="44.1805234" lon="9.8657248"><ele>39.0</ele><time>2026-04-04T15:46:11.46Z</time></trkpt><trkpt lat="44.1804586" lon="9.8658522"><ele>38.2</ele><time>2026-04-04T15:46:12.46Z</time></trkpt><trkpt lat="44.1803907" lon="9.8659857"><ele>37.4</ele><time>2026-04-04T15:46:13.461Z</time></trkpt><trkpt lat="44.1803233" lon="9.8661178"><ele>36.6</ele><time>2026-04-04T15:46:14.453Z</time></trkpt><trkpt lat="44.1802573" lon="9.8662422"><ele>35.8</ele><time>2026-04-04T15:46:15.455Z</time></trkpt><trkpt lat="44.1802033" lon="9.8663488"><ele>35.0</ele><time>2026-04-04T15:46:16.456Z</time></trkpt><trkpt lat="44.1801546" lon="9.8664487"><ele>35.0</ele><time>2026-04-04T15:46:17.45Z</time></trkpt><trkpt lat="44.1800993" lon="9.866545"><ele>35.0</ele><time>2026-04-04T15:46:18.458Z</time></trkpt><trkpt lat="44.180038" lon="9.8666494"><ele>35.0</ele><time>2026-04-04T15:46:19.451Z</time></trkpt><trkpt lat="44.1799757" lon="9.866761"><ele>35.0</ele><time>2026-04-04T15:46:20.445Z</time></trkpt><trkpt lat="44.1799065" lon="9.866871"><ele>35.0</ele><time>2026-04-04T15:46:21.447Z</time></trkpt><trkpt lat="44.1798316" lon="9.8669711"><ele>34.6</ele><time>2026-04-04T15:46:22.45Z</time></trkpt><trkpt lat="44.1797497" lon="9.8670637"><ele>34.2</ele><time>2026-04-04T15:46:23.436Z</time></trkpt><trkpt lat="44.1796654" lon="9.8671564"><ele>33.8</ele><time>2026-04-04T15:46:24.457Z</time></trkpt><trkpt lat="44.1795744" lon="9.8672455"><ele>33.4</ele><time>2026-04-04T15:46:25.455Z</time></trkpt><trkpt lat="44.1794811" lon="9.8673388"><ele>33.0</ele><time>2026-04-04T15:46:26.456Z</time></trkpt><trkpt lat="44.1793875" lon="9.8674354"><ele>33.0</ele><time>2026-04-04T15:46:27.454Z</time></trkpt><trkpt lat="44.1792896" lon="9.8675328"><ele>33.0</ele><time>2026-04-04T15:46:28.457Z</time></trkpt><trkpt lat="44.1791887" lon="9.8676396"><ele>33.0</ele><time>2026-04-04T15:46:29.46Z</time></trkpt><trkpt lat="44.1790898" lon="9.8677444"><ele>33.0</ele><time>2026-04-04T15:46:30.458Z</time></trkpt><trkpt lat="44.178999" lon="9.8678416"><ele>32.8</ele><time>2026-04-04T15:46:31.441Z</time></trkpt><trkpt lat="44.1789153" lon="9.8679412"><ele>32.599999999999994</ele><time>2026-04-04T15:46:32.443Z</time></trkpt><trkpt lat="44.1788395" lon="9.8680479"><ele>32.400000000000006</ele><time>2026-04-04T15:46:33.438Z</time></trkpt><trkpt lat="44.1787759" lon="9.8681663"><ele>32.2</ele><time>2026-04-04T15:46:34.452Z</time></trkpt><trkpt lat="44.1787173" lon="9.8683151"><ele>32.0</ele><time>2026-04-04T15:46:35.449Z</time></trkpt><trkpt lat="44.1786638" lon="9.8684801"><ele>32.0</ele><time>2026-04-04T15:46:36.449Z</time></trkpt><trkpt lat="44.1786194" lon="9.8686488"><ele>32.0</ele><time>2026-04-04T15:46:37.444Z</time></trkpt><trkpt lat="44.1785792" lon="9.8688182"><ele>32.0</ele><time>2026-04-04T15:46:38.454Z</time></trkpt><trkpt lat="44.1785361" lon="9.8689798"><ele>32.0</ele><time>2026-04-04T15:46:39.445Z</time></trkpt><trkpt lat="44.1784894" lon="9.8691326"><ele>32.0</ele><time>2026-04-04T15:46:40.447Z</time></trkpt><trkpt lat="44.1784353" lon="9.8692711"><ele>32.0</ele><time>2026-04-04T15:46:41.451Z</time></trkpt><trkpt lat="44.1783736" lon="9.8694094"><ele>32.0</ele><time>2026-04-04T15:46:42.46Z</time></trkpt><trkpt lat="44.1783138" lon="9.8695448"><ele>32.0</ele><time>2026-04-04T15:46:43.455Z</time></trkpt><trkpt lat="44.1782497" lon="9.8696786"><ele>32.2</ele><time>2026-04-04T15:46:44.461Z</time></trkpt><trkpt lat="44.1781894" lon="9.8698063"><ele>32.400000000000006</ele><time>2026-04-04T15:46:45.455Z</time></trkpt><trkpt lat="44.1781276" lon="9.8699367"><ele>32.599999999999994</ele><time>2026-04-04T15:46:46.454Z</time></trkpt><trkpt lat="44.1780648" lon="9.8700673"><ele>32.8</ele><time>2026-04-04T15:46:47.458Z</time></trkpt><trkpt lat="44.1780046" lon="9.8701952"><ele>33.0</ele><time>2026-04-04T15:46:48.469Z</time></trkpt><trkpt lat="44.1779485" lon="9.870312"><ele>33.0</ele><time>2026-04-04T15:46:49.466Z</time></trkpt><trkpt lat="44.1778953" lon="9.8704253"><ele>33.0</ele><time>2026-04-04T15:46:50.456Z</time></trkpt><trkpt lat="44.1778454" lon="9.8705236"><ele>33.0</ele><time>2026-04-04T15:46:51.464Z</time></trkpt><trkpt lat="44.1778019" lon="9.8706229"><ele>33.0</ele><time>2026-04-04T15:46:52.454Z</time></trkpt><trkpt lat="44.1777603" lon="9.8707175"><ele>33.0</ele><time>2026-04-04T15:46:53.46Z</time></trkpt><trkpt lat="44.1777158" lon="9.8708146"><ele>33.0</ele><time>2026-04-04T15:46:54.461Z</time></trkpt><trkpt lat="44.1776715" lon="9.8709053"><ele>33.166666666666664</ele><time>2026-04-04T15:46:55.462Z</time></trkpt><trkpt lat="44.1776305" lon="9.8709939"><ele>33.333333333333336</ele><time>2026-04-04T15:46:56.462Z</time></trkpt><trkpt lat="44.1775866" lon="9.8710854"><ele>33.5</ele><time>2026-04-04T15:46:57.464Z</time></trkpt><trkpt lat="44.1775418" lon="9.8711813"><ele>33.66666666666667</ele><time>2026-04-04T15:46:58.461Z</time></trkpt><trkpt lat="44.1774918" lon="9.8712801"><ele>33.833333333333336</ele><time>2026-04-04T15:46:59.454Z</time></trkpt><trkpt lat="44.1774423" lon="9.8713724"><ele>34.0</ele><time>2026-04-04T15:47:00.468Z</time></trkpt><trkpt lat="44.1773914" lon="9.8714692"><ele>33.8</ele><time>2026-04-04T15:47:01.451Z</time></trkpt><trkpt lat="44.1773278" lon="9.8715629"><ele>33.599999999999994</ele><time>2026-04-04T15:47:02.456Z</time></trkpt><trkpt lat="44.1772556" lon="9.8716637"><ele>33.4</ele><time>2026-04-04T15:47:03.463Z</time></trkpt><trkpt lat="44.1771757" lon="9.871765"><ele>33.199999999999996</ele><time>2026-04-04T15:47:04.462Z</time></trkpt><trkpt lat="44.1770961" lon="9.871866"><ele>33.0</ele><time>2026-04-04T15:47:05.464Z</time></trkpt><trkpt lat="44.1770132" lon="9.8719761"><ele>33.0</ele><time>2026-04-04T15:47:06.461Z</time></trkpt><trkpt lat="44.1769246" lon="9.872097"><ele>33.0</ele><time>2026-04-04T15:47:07.459Z</time></trkpt><trkpt lat="44.1768269" lon="9.8722317"><ele>33.0</ele><time>2026-04-04T15:47:08.457Z</time></trkpt><trkpt lat="44.1767143" lon="9.872382"><ele>33.0</ele><time>2026-04-04T15:47:09.456Z</time></trkpt><trkpt lat="44.1765829" lon="9.872547"><ele>33.333333333333336</ele><time>2026-04-04T15:47:10.459Z</time></trkpt><trkpt lat="44.1764504" lon="9.8727095"><ele>33.66666666666667</ele><time>2026-04-04T15:47:11.459Z</time></trkpt><trkpt lat="44.1763253" lon="9.8728732"><ele>34.0</ele><time>2026-04-04T15:47:12.457Z</time></trkpt><trkpt lat="44.1762087" lon="9.873033"><ele>34.0</ele><time>2026-04-04T15:47:13.469Z</time></trkpt><trkpt lat="44.1761114" lon="9.8731896"><ele>34.0</ele><time>2026-04-04T15:47:14.456Z</time></trkpt><trkpt lat="44.1760339" lon="9.8733425"><ele>34.0</ele><time>2026-04-04T15:47:15.462Z</time></trkpt><trkpt lat="44.1759713" lon="9.8734669"><ele>34.0</ele><time>2026-04-04T15:47:16.459Z</time></trkpt><trkpt lat="44.1759049" lon="9.8736033"><ele>34.25</ele><time>2026-04-04T15:47:17.462Z</time></trkpt><trkpt lat="44.1758418" lon="9.8737637"><ele>34.5</ele><time>2026-04-04T15:47:18.461Z</time></trkpt><trkpt lat="44.1757765" lon="9.8739478"><ele>34.75</ele><time>2026-04-04T15:47:19.45Z</time></trkpt><trkpt lat="44.1757175" lon="9.8741473"><ele>35.0</ele><time>2026-04-04T15:47:20.456Z</time></trkpt><trkpt lat="44.1756587" lon="9.8743502"><ele>35.0</ele><time>2026-04-04T15:47:21.457Z</time></trkpt><trkpt lat="44.175612" lon="9.8745475"><ele>35.0</ele><time>2026-04-04T15:47:22.46Z</time></trkpt><trkpt lat="44.1755679" lon="9.8747336"><ele>35.0</ele><time>2026-04-04T15:47:23.452Z</time></trkpt><trkpt lat="44.1755317" lon="9.8749034"><ele>35.0</ele><time>2026-04-04T15:47:24.452Z</time></trkpt><trkpt lat="44.1754969" lon="9.8750535"><ele>35.2</ele><time>2026-04-04T15:47:25.455Z</time></trkpt><trkpt lat="44.1754662" lon="9.8752033"><ele>35.4</ele><time>2026-04-04T15:47:26.461Z</time></trkpt><trkpt lat="44.1754418" lon="9.8753439"><ele>35.6</ele><time>2026-04-04T15:47:27.451Z</time></trkpt><trkpt lat="44.1754155" lon="9.8754695"><ele>35.8</ele><time>2026-04-04T15:47:28.458Z</time></trkpt><trkpt lat="44.1753911" lon="9.875582"><ele>36.0</ele><time>2026-04-04T15:47:29.457Z</time></trkpt><trkpt lat="44.1753612" lon="9.875698"><ele>36.0</ele><time>2026-04-04T15:47:30.468Z</time></trkpt><trkpt lat="44.1753305" lon="9.8758198"><ele>36.0</ele><time>2026-04-04T15:47:31.453Z</time></trkpt><trkpt lat="44.1753007" lon="9.875951"><ele>36.0</ele><time>2026-04-04T15:47:32.451Z</time></trkpt><trkpt lat="44.1752676" lon="9.8760847"><ele>36.0</ele><time>2026-04-04T15:47:33.451Z</time></trkpt><trkpt lat="44.175236" lon="9.8762141"><ele>36.0</ele><time>2026-04-04T15:47:34.444Z</time></trkpt><trkpt lat="44.1751932" lon="9.8763433"><ele>36.0</ele><time>2026-04-04T15:47:35.458Z</time></trkpt><trkpt lat="44.1751506" lon="9.8764791"><ele>36.0</ele><time>2026-04-04T15:47:36.455Z</time></trkpt><trkpt lat="44.175102" lon="9.8766213"><ele>36.0</ele><time>2026-04-04T15:47:37.452Z</time></trkpt><trkpt lat="44.1750539" lon="9.8767729"><ele>36.0</ele><time>2026-04-04T15:47:38.457Z</time></trkpt><trkpt lat="44.1750176" lon="9.876912"><ele>36.0</ele><time>2026-04-04T15:47:39.462Z</time></trkpt><trkpt lat="44.1749875" lon="9.8770458"><ele>36.2</ele><time>2026-04-04T15:47:40.455Z</time></trkpt><trkpt lat="44.1749629" lon="9.8771696"><ele>36.400000000000006</ele><time>2026-04-04T15:47:41.454Z</time></trkpt><trkpt lat="44.1749438" lon="9.8772964"><ele>36.6</ele><time>2026-04-04T15:47:42.455Z</time></trkpt><trkpt lat="44.1749222" lon="9.8774231"><ele>36.800000000000004</ele><time>2026-04-04T15:47:43.458Z</time></trkpt><trkpt lat="44.1748969" lon="9.8775501"><ele>37.0</ele><time>2026-04-04T15:47:44.457Z</time></trkpt><trkpt lat="44.1748635" lon="9.8776838"><ele>37.2</ele><time>2026-04-04T15:47:45.446Z</time></trkpt><trkpt lat="44.174821" lon="9.8778182"><ele>37.400000000000006</ele><time>2026-04-04T15:47:46.452Z</time></trkpt><trkpt lat="44.1747684" lon="9.8779527"><ele>37.599999999999994</ele><time>2026-04-04T15:47:47.456Z</time></trkpt><trkpt lat="44.1747108" lon="9.8780865"><ele>37.8</ele><time>2026-04-04T15:47:48.453Z</time></trkpt><trkpt lat="44.1746449" lon="9.8782083"><ele>38.0</ele><time>2026-04-04T15:47:49.456Z</time></trkpt><trkpt lat="44.1745733" lon="9.8783166"><ele>38.0</ele><time>2026-04-04T15:47:50.453Z</time></trkpt><trkpt lat="44.1744919" lon="9.8784106"><ele>38.0</ele><time>2026-04-04T15:47:51.463Z</time></trkpt><trkpt lat="44.1744022" lon="9.8784965"><ele>38.0</ele><time>2026-04-04T15:47:52.466Z</time></trkpt><trkpt lat="44.1743068" lon="9.878582"><ele>38.0</ele><time>2026-04-04T15:47:53.464Z</time></trkpt><trkpt lat="44.1742116" lon="9.8786639"><ele>38.0</ele><time>2026-04-04T15:47:54.454Z</time></trkpt><trkpt lat="44.1741298" lon="9.8787534"><ele>38.199999999999996</ele><time>2026-04-04T15:47:55.461Z</time></trkpt><trkpt lat="44.174051" lon="9.8788423"><ele>38.4</ele><time>2026-04-04T15:47:56.463Z</time></trkpt><trkpt lat="44.1739727" lon="9.8789393"><ele>38.599999999999994</ele><time>2026-04-04T15:47:57.465Z</time></trkpt><trkpt lat="44.173889" lon="9.8790336"><ele>38.8</ele><time>2026-04-04T15:47:58.455Z</time></trkpt><trkpt lat="44.1738101" lon="9.8791304"><ele>39.0</ele><time>2026-04-04T15:47:59.458Z</time></trkpt><trkpt lat="44.1737279" lon="9.8792354"><ele>38.5</ele><time>2026-04-04T15:48:00.466Z</time></trkpt><trkpt lat="44.1736412" lon="9.8793425"><ele>38.0</ele><time>2026-04-04T15:48:01.457Z</time></trkpt><trkpt lat="44.1735532" lon="9.8794475"><ele>37.5</ele><time>2026-04-04T15:48:02.461Z</time></trkpt><trkpt lat="44.1734691" lon="9.8795482"><ele>37.0</ele><time>2026-04-04T15:48:03.456Z</time></trkpt><trkpt lat="44.1733813" lon="9.8796467"><ele>37.0</ele><time>2026-04-04T15:48:04.45Z</time></trkpt><trkpt lat="44.1732907" lon="9.8797553"><ele>37.0</ele><time>2026-04-04T15:48:05.456Z</time></trkpt><trkpt lat="44.1732024" lon="9.879874"><ele>37.0</ele><time>2026-04-04T15:48:06.456Z</time></trkpt><trkpt lat="44.1731139" lon="9.8799981"><ele>37.0</ele><time>2026-04-04T15:48:07.459Z</time></trkpt><trkpt lat="44.173031" lon="9.8801196"><ele>36.800000000000004</ele><time>2026-04-04T15:48:08.456Z</time></trkpt><trkpt lat="44.1729541" lon="9.8802412"><ele>36.6</ele><time>2026-04-04T15:48:09.46Z</time></trkpt><trkpt lat="44.1728837" lon="9.8803541"><ele>36.400000000000006</ele><time>2026-04-04T15:48:10.461Z</time></trkpt><trkpt lat="44.1728154" lon="9.8804655"><ele>36.2</ele><time>2026-04-04T15:48:11.464Z</time></trkpt><trkpt lat="44.172746" lon="9.8805762"><ele>36.0</ele><time>2026-04-04T15:48:12.463Z</time></trkpt><trkpt lat="44.1726788" lon="9.8806868"><ele>36.0</ele><time>2026-04-04T15:48:13.467Z</time></trkpt><trkpt lat="44.1726133" lon="9.8807885"><ele>36.0</ele><time>2026-04-04T15:48:14.466Z</time></trkpt><trkpt lat="44.1725532" lon="9.8808831"><ele>36.0</ele><time>2026-04-04T15:48:15.479Z</time></trkpt><trkpt lat="44.1724949" lon="9.8809684"><ele>36.0</ele><time>2026-04-04T15:48:16.468Z</time></trkpt><trkpt lat="44.1724391" lon="9.8810559"><ele>36.0</ele><time>2026-04-04T15:48:17.473Z</time></trkpt><trkpt lat="44.1723836" lon="9.8811426"><ele>36.0</ele><time>2026-04-04T15:48:18.474Z</time></trkpt><trkpt lat="44.1723306" lon="9.8812273"><ele>36.5</ele><time>2026-04-04T15:48:19.466Z</time></trkpt><trkpt lat="44.1722723" lon="9.8813143"><ele>37.0</ele><time>2026-04-04T15:48:20.469Z</time></trkpt><trkpt lat="44.172216" lon="9.8814036"><ele>37.5</ele><time>2026-04-04T15:48:21.473Z</time></trkpt><trkpt lat="44.1721579" lon="9.8814978"><ele>38.0</ele><time>2026-04-04T15:48:22.48Z</time></trkpt><trkpt lat="44.1721021" lon="9.8815909"><ele>38.5</ele><time>2026-04-04T15:48:23.47Z</time></trkpt><trkpt lat="44.1720483" lon="9.8816799"><ele>39.0</ele><time>2026-04-04T15:48:24.465Z</time></trkpt><trkpt lat="44.1719934" lon="9.8817661"><ele>39.333333333333336</ele><time>2026-04-04T15:48:25.464Z</time></trkpt><trkpt lat="44.171935" lon="9.8818537"><ele>39.666666666666664</ele><time>2026-04-04T15:48:26.466Z</time></trkpt><trkpt lat="44.1718789" lon="9.8819447"><ele>40.0</ele><time>2026-04-04T15:48:27.457Z</time></trkpt><trkpt lat="44.1718237" lon="9.8820368"><ele>40.33333333333333</ele><time>2026-04-04T15:48:28.47Z</time></trkpt><trkpt lat="44.1717685" lon="9.8821209"><ele>40.666666666666664</ele><time>2026-04-04T15:48:29.458Z</time></trkpt><trkpt lat="44.1717123" lon="9.882203"><ele>41.0</ele><time>2026-04-04T15:48:30.468Z</time></trkpt><trkpt lat="44.171656" lon="9.8822866"><ele>41.0</ele><time>2026-04-04T15:48:31.46Z</time></trkpt><trkpt lat="44.1715954" lon="9.8823742"><ele>41.0</ele><time>2026-04-04T15:48:32.456Z</time></trkpt><trkpt lat="44.1715313" lon="9.8824623"><ele>41.0</ele><time>2026-04-04T15:48:33.462Z</time></trkpt><trkpt lat="44.171468" lon="9.8825588"><ele>41.0</ele><time>2026-04-04T15:48:34.448Z</time></trkpt><trkpt lat="44.1714076" lon="9.8826554"><ele>41.0</ele><time>2026-04-04T15:48:35.462Z</time></trkpt><trkpt lat="44.1713411" lon="9.882756"><ele>40.8</ele><time>2026-04-04T15:48:36.453Z</time></trkpt><trkpt lat="44.1712685" lon="9.882859"><ele>40.599999999999994</ele><time>2026-04-04T15:48:37.462Z</time></trkpt><trkpt lat="44.1711932" lon="9.882969"><ele>40.4</ele><time>2026-04-04T15:48:38.461Z</time></trkpt><trkpt lat="44.1711166" lon="9.8830817"><ele>40.2</ele><time>2026-04-04T15:48:39.452Z</time></trkpt><trkpt lat="44.171037" lon="9.8831947"><ele>40.0</ele><time>2026-04-04T15:48:40.465Z</time></trkpt><trkpt lat="44.1709668" lon="9.8833029"><ele>40.0</ele><time>2026-04-04T15:48:41.452Z</time></trkpt><trkpt lat="44.1708928" lon="9.8833902"><ele>40.0</ele><time>2026-04-04T15:48:42.449Z</time></trkpt><trkpt lat="44.1708233" lon="9.8834761"><ele>40.0</ele><time>2026-04-04T15:48:43.463Z</time></trkpt><trkpt lat="44.1707601" lon="9.883559"><ele>40.0</ele><time>2026-04-04T15:48:44.459Z</time></trkpt><trkpt lat="44.170701" lon="9.8836408"><ele>40.0</ele><time>2026-04-04T15:48:45.456Z</time></trkpt><trkpt lat="44.1706396" lon="9.8837171"><ele>40.0</ele><time>2026-04-04T15:48:46.464Z</time></trkpt><trkpt lat="44.1705827" lon="9.8837889"><ele>39.833333333333336</ele><time>2026-04-04T15:48:47.463Z</time></trkpt><trkpt lat="44.1705297" lon="9.8838583"><ele>39.66666666666667</ele><time>2026-04-04T15:48:48.459Z</time></trkpt><trkpt lat="44.1704806" lon="9.8839183"><ele>39.5</ele><time>2026-04-04T15:48:49.461Z</time></trkpt><trkpt lat="44.1704328" lon="9.8839806"><ele>39.333333333333336</ele><time>2026-04-04T15:48:50.466Z</time></trkpt><trkpt lat="44.1703862" lon="9.8840439"><ele>39.166666666666664</ele><time>2026-04-04T15:48:51.469Z</time></trkpt><trkpt lat="44.1702937" lon="9.8841645"><ele>39.0</ele><time>2026-04-04T15:48:53.459Z</time></trkpt><trkpt lat="44.1702312" lon="9.8842141"><ele>39.0</ele><time>2026-04-04T15:48:54.456Z</time></trkpt><trkpt lat="44.1701579" lon="9.8842519"><ele>39.0</ele><time>2026-04-04T15:48:55.452Z</time></trkpt><trkpt lat="44.170081" lon="9.8842862"><ele>39.0</ele><time>2026-04-04T15:48:56.45Z</time></trkpt><trkpt lat="44.1699996" lon="9.8843126"><ele>39.0</ele><time>2026-04-04T15:48:57.443Z</time></trkpt><trkpt lat="44.169923" lon="9.8843549"><ele>39.0</ele><time>2026-04-04T15:48:58.457Z</time></trkpt><trkpt lat="44.1698445" lon="9.8843937"><ele>39.0</ele><time>2026-04-04T15:48:59.472Z</time></trkpt><trkpt lat="44.1697693" lon="9.8844392"><ele>38.5</ele><time>2026-04-04T15:49:00.456Z</time></trkpt><trkpt lat="44.1696965" lon="9.8844914"><ele>38.0</ele><time>2026-04-04T15:49:01.454Z</time></trkpt><trkpt lat="44.16963" lon="9.8845561"><ele>37.5</ele><time>2026-04-04T15:49:02.443Z</time></trkpt><trkpt lat="44.1695796" lon="9.8846299"><ele>37.0</ele><time>2026-04-04T15:49:03.451Z</time></trkpt><trkpt lat="44.1695383" lon="9.8847067"><ele>36.5</ele><time>2026-04-04T15:49:04.439Z</time></trkpt><trkpt lat="44.1694825" lon="9.8848369"><ele>36.0</ele><time>2026-04-04T15:49:06.454Z</time></trkpt><trkpt lat="44.1694306" lon="9.8849484"><ele>36.0</ele><time>2026-04-04T15:49:08.449Z</time></trkpt><trkpt lat="44.1693724" lon="9.8850314"><ele>36.0</ele><time>2026-04-04T15:49:10.454Z</time></trkpt><trkpt lat="44.1693236" lon="9.8851118"><ele>36.0</ele><time>2026-04-04T15:49:12.461Z</time></trkpt><trkpt lat="44.1692652" lon="9.8851968"><ele>36.0</ele><time>2026-04-04T15:49:14.465Z</time></trkpt><trkpt lat="44.1691979" lon="9.8853103"><ele>36.0</ele><time>2026-04-04T15:49:16.464Z</time></trkpt><trkpt lat="44.1691143" lon="9.8854355"><ele>36.2</ele><time>2026-04-04T15:49:18.459Z</time></trkpt><trkpt lat="44.1690498" lon="9.885566"><ele>36.400000000000006</ele><time>2026-04-04T15:49:20.456Z</time></trkpt><trkpt lat="44.1689746" lon="9.8856936"><ele>36.6</ele><time>2026-04-04T15:49:22.464Z</time></trkpt><trkpt lat="44.1689035" lon="9.8857982"><ele>36.800000000000004</ele><time>2026-04-04T15:49:24.465Z</time></trkpt><trkpt lat="44.1688534" lon="9.8858664"><ele>37.0</ele><time>2026-04-04T15:49:26.458Z</time></trkpt><trkpt lat="44.1688005" lon="9.885934"><ele>36.66666666666667</ele><time>2026-04-04T15:49:28.46Z</time></trkpt><trkpt lat="44.1687385" lon="9.8860358"><ele>36.333333333333336</ele><time>2026-04-04T15:49:30.465Z</time></trkpt><trkpt lat="44.1686617" lon="9.8861745"><ele>36.0</ele><time>2026-04-04T15:49:32.456Z</time></trkpt><trkpt lat="44.1686148" lon="9.8862493"><ele>35.666666666666664</ele><time>2026-04-04T15:49:33.457Z</time></trkpt><trkpt lat="44.168566" lon="9.8863234"><ele>35.33333333333333</ele><time>2026-04-04T15:49:34.456Z</time></trkpt><trkpt lat="44.1685209" lon="9.8863906"><ele>35.0</ele><time>2026-04-04T15:49:35.463Z</time></trkpt><trkpt lat="44.1684379" lon="9.8865203"><ele>35.0</ele><time>2026-04-04T15:49:37.468Z</time></trkpt><trkpt lat="44.1683974" lon="9.8865895"><ele>35.0</ele><time>2026-04-04T15:49:38.462Z</time></trkpt><trkpt lat="44.1683199" lon="9.8867209"><ele>35.0</ele><time>2026-04-04T15:49:40.454Z</time></trkpt><trkpt lat="44.1682797" lon="9.8867909"><ele>35.0</ele><time>2026-04-04T15:49:41.463Z</time></trkpt><trkpt lat="44.1682375" lon="9.8868606"><ele>35.0</ele><time>2026-04-04T15:49:42.462Z</time></trkpt><trkpt lat="44.1681686" lon="9.8869992"><ele>35.0</ele><time>2026-04-04T15:49:44.453Z</time></trkpt><trkpt lat="44.1681244" lon="9.8870617"><ele>34.6</ele><time>2026-04-04T15:49:45.467Z</time></trkpt><trkpt lat="44.1680401" lon="9.8871924"><ele>34.2</ele><time>2026-04-04T15:49:47.459Z</time></trkpt><trkpt lat="44.16799" lon="9.887269"><ele>33.8</ele><time>2026-04-04T15:49:48.468Z</time></trkpt><trkpt lat="44.1679348" lon="9.8873569"><ele>33.4</ele><time>2026-04-04T15:49:49.458Z</time></trkpt><trkpt lat="44.1678797" lon="9.8874532"><ele>33.0</ele><time>2026-04-04T15:49:50.459Z</time></trkpt><trkpt lat="44.1678264" lon="9.8875429"><ele>33.14285714285714</ele><time>2026-04-04T15:49:51.462Z</time></trkpt><trkpt lat="44.167776" lon="9.8876261"><ele>33.285714285714285</ele><time>2026-04-04T15:49:52.457Z</time></trkpt><trkpt lat="44.1677258" lon="9.8877077"><ele>33.42857142857143</ele><time>2026-04-04T15:49:53.456Z</time></trkpt><trkpt lat="44.1676788" lon="9.8877829"><ele>33.57142857142857</ele><time>2026-04-04T15:49:54.458Z</time></trkpt><trkpt lat="44.1676407" lon="9.8878544"><ele>33.714285714285715</ele><time>2026-04-04T15:49:55.466Z</time></trkpt><trkpt lat="44.1675889" lon="9.8879463"><ele>33.857142857142854</ele><time>2026-04-04T15:49:57.456Z</time></trkpt><trkpt lat="44.1675503" lon="9.8880238"><ele>34.0</ele><time>2026-04-04T15:50:08.467Z</time></trkpt><trkpt lat="44.1674942" lon="9.8880908"><ele>34.0</ele><time>2026-04-04T15:50:11.467Z</time></trkpt><trkpt lat="44.1674086" lon="9.8881482"><ele>34.0</ele><time>2026-04-04T15:50:13.451Z</time></trkpt><trkpt lat="44.1674416" lon="9.8882864"><ele>34.0</ele><time>2026-04-04T15:50:15.46Z</time></trkpt><trkpt lat="44.1675087" lon="9.8883312"><ele>34.0</ele><time>2026-04-04T15:50:16.451Z</time></trkpt><trkpt lat="44.1675671" lon="9.8884013"><ele>34.0</ele><time>2026-04-04T15:50:17.45Z</time></trkpt><trkpt lat="44.1676142" lon="9.8884993"><ele>34.0</ele><time>2026-04-04T15:50:18.457Z</time></trkpt><trkpt lat="44.1676654" lon="9.8886102"><ele>33.4</ele><time>2026-04-04T15:50:19.46Z</time></trkpt><trkpt lat="44.1677155" lon="9.8887248"><ele>32.8</ele><time>2026-04-04T15:50:20.457Z</time></trkpt><trkpt lat="44.1677645" lon="9.8888402"><ele>32.2</ele><time>2026-04-04T15:50:21.461Z</time></trkpt><trkpt lat="44.1678159" lon="9.8889601"><ele>31.6</ele><time>2026-04-04T15:50:22.45Z</time></trkpt><trkpt lat="44.1678657" lon="9.8890784"><ele>31.0</ele><time>2026-04-04T15:50:23.459Z</time></trkpt><trkpt lat="44.1679075" lon="9.8891956"><ele>30.0</ele><time>2026-04-04T15:50:24.443Z</time></trkpt><trkpt lat="44.1679444" lon="9.8893206"><ele>29.0</ele><time>2026-04-04T15:50:25.444Z</time></trkpt><trkpt lat="44.1679661" lon="9.889455"><ele>28.0</ele><time>2026-04-04T15:50:26.459Z</time></trkpt><trkpt lat="44.1679775" lon="9.8895982"><ele>27.0</ele><time>2026-04-04T15:50:27.47Z</time></trkpt><trkpt lat="44.1679734" lon="9.8897316"><ele>26.0</ele><time>2026-04-04T15:50:28.457Z</time></trkpt><trkpt lat="44.1679634" lon="9.8898606"><ele>25.999999999999996</ele><time>2026-04-04T15:50:29.455Z</time></trkpt><trkpt lat="44.1679388" lon="9.8899776"><ele>26.0</ele><time>2026-04-04T15:50:30.477Z</time></trkpt><trkpt lat="44.1678879" lon="9.8900724"><ele>26.0</ele><time>2026-04-04T15:50:31.469Z</time></trkpt><trkpt lat="44.1678441" lon="9.8901603"><ele>26.0</ele><time>2026-04-04T15:50:32.456Z</time></trkpt><trkpt lat="44.1678311" lon="9.8902551"><ele>25.999999999999996</ele><time>2026-04-04T15:50:33.467Z</time></trkpt><trkpt lat="44.1678619" lon="9.8903396"><ele>26.0</ele><time>2026-04-04T15:50:34.471Z</time></trkpt><trkpt lat="44.167913" lon="9.8904111"><ele>26.0</ele><time>2026-04-04T15:50:35.461Z</time></trkpt><trkpt lat="44.1679522" lon="9.8905049"><ele>26.0</ele><time>2026-04-04T15:50:36.454Z</time></trkpt><trkpt lat="44.1679661" lon="9.8906278"><ele>26.0</ele><time>2026-04-04T15:50:37.472Z</time></trkpt><trkpt lat="44.1679676" lon="9.8907732"><ele>26.0</ele><time>2026-04-04T15:50:38.467Z</time></trkpt><trkpt lat="44.1679638" lon="9.8909338"><ele>26.0</ele><time>2026-04-04T15:50:39.455Z</time></trkpt><trkpt lat="44.1679582" lon="9.8911027"><ele>26.0</ele><time>2026-04-04T15:50:40.461Z</time></trkpt><trkpt lat="44.1679534" lon="9.8912723"><ele>26.0</ele><time>2026-04-04T15:50:41.462Z</time></trkpt><trkpt lat="44.1679523" lon="9.8914464"><ele>26.0</ele><time>2026-04-04T15:50:42.451Z</time></trkpt><trkpt lat="44.1679529" lon="9.8916262"><ele>26.0</ele><time>2026-04-04T15:50:43.453Z</time></trkpt><trkpt lat="44.1679531" lon="9.8918063"><ele>25.5</ele><time>2026-04-04T15:50:44.453Z</time></trkpt><trkpt lat="44.1679546" lon="9.8919831"><ele>25.0</ele><time>2026-04-04T15:50:45.456Z</time></trkpt><trkpt lat="44.1679586" lon="9.8921614"><ele>24.5</ele><time>2026-04-04T15:50:46.463Z</time></trkpt><trkpt lat="44.1679601" lon="9.8923361"><ele>24.0</ele><time>2026-04-04T15:50:47.454Z</time></trkpt><trkpt lat="44.1679621" lon="9.8925054"><ele>24.0</ele><time>2026-04-04T15:50:48.463Z</time></trkpt><trkpt lat="44.1679641" lon="9.8926725"><ele>24.0</ele><time>2026-04-04T15:50:49.458Z</time></trkpt><trkpt lat="44.1679683" lon="9.8928399"><ele>24.0</ele><time>2026-04-04T15:50:50.464Z</time></trkpt><trkpt lat="44.1679738" lon="9.8930135"><ele>24.0</ele><time>2026-04-04T15:50:51.476Z</time></trkpt><trkpt lat="44.1679769" lon="9.8931905"><ele>24.0</ele><time>2026-04-04T15:50:52.471Z</time></trkpt><trkpt lat="44.1679825" lon="9.8933692"><ele>24.0</ele><time>2026-04-04T15:50:53.465Z</time></trkpt><trkpt lat="44.1679877" lon="9.8935508"><ele>24.0</ele><time>2026-04-04T15:50:54.469Z</time></trkpt><trkpt lat="44.1679923" lon="9.8937222"><ele>24.0</ele><time>2026-04-04T15:50:55.469Z</time></trkpt><trkpt lat="44.1679984" lon="9.8938869"><ele>24.0</ele><time>2026-04-04T15:50:56.463Z</time></trkpt><trkpt lat="44.1680089" lon="9.8940496"><ele>24.0</ele><time>2026-04-04T15:50:57.472Z</time></trkpt><trkpt lat="44.1680209" lon="9.8942124"><ele>24.0</ele><time>2026-04-04T15:50:58.468Z</time></trkpt><trkpt lat="44.1680386" lon="9.8943748"><ele>24.0</ele><time>2026-04-04T15:50:59.46Z</time></trkpt><trkpt lat="44.1680606" lon="9.8945317"><ele>24.0</ele><time>2026-04-04T15:51:00.46Z</time></trkpt><trkpt lat="44.1680795" lon="9.8946831"><ele>24.0</ele><time>2026-04-04T15:51:01.453Z</time></trkpt><trkpt lat="44.1681004" lon="9.894833"><ele>24.0</ele><time>2026-04-04T15:51:02.468Z</time></trkpt><trkpt lat="44.1681251" lon="9.8949869"><ele>24.0</ele><time>2026-04-04T15:51:03.463Z</time></trkpt><trkpt lat="44.1681574" lon="9.8951418"><ele>24.0</ele><time>2026-04-04T15:51:04.452Z</time></trkpt><trkpt lat="44.1682031" lon="9.8953059"><ele>25.25</ele><time>2026-04-04T15:51:05.458Z</time></trkpt><trkpt lat="44.1682524" lon="9.8954674"><ele>26.5</ele><time>2026-04-04T15:51:06.461Z</time></trkpt><trkpt lat="44.1683029" lon="9.8956205"><ele>27.75</ele><time>2026-04-04T15:51:07.466Z</time></trkpt><trkpt lat="44.1683584" lon="9.8957651"><ele>29.0</ele><time>2026-04-04T15:51:08.449Z</time></trkpt><trkpt lat="44.168412" lon="9.8959068"><ele>28.75</ele><time>2026-04-04T15:51:09.458Z</time></trkpt><trkpt lat="44.1684649" lon="9.8960424"><ele>28.5</ele><time>2026-04-04T15:51:10.454Z</time></trkpt><trkpt lat="44.1685136" lon="9.89618"><ele>28.25</ele><time>2026-04-04T15:51:11.457Z</time></trkpt><trkpt lat="44.1685614" lon="9.896321"><ele>28.0</ele><time>2026-04-04T15:51:12.462Z</time></trkpt><trkpt lat="44.1686097" lon="9.8964729"><ele>28.0</ele><time>2026-04-04T15:51:13.458Z</time></trkpt><trkpt lat="44.1686475" lon="9.8966388"><ele>28.0</ele><time>2026-04-04T15:51:14.454Z</time></trkpt><trkpt lat="44.1686676" lon="9.8968167"><ele>28.0</ele><time>2026-04-04T15:51:15.46Z</time></trkpt><trkpt lat="44.1686718" lon="9.8969958"><ele>28.0</ele><time>2026-04-04T15:51:16.465Z</time></trkpt><trkpt lat="44.1686735" lon="9.8971767"><ele>28.25</ele><time>2026-04-04T15:51:17.457Z</time></trkpt><trkpt lat="44.1686795" lon="9.8973549"><ele>28.5</ele><time>2026-04-04T15:51:18.462Z</time></trkpt><trkpt lat="44.1686987" lon="9.8975285"><ele>28.75</ele><time>2026-04-04T15:51:19.46Z</time></trkpt><trkpt lat="44.168729" lon="9.8977063"><ele>29.0</ele><time>2026-04-04T15:51:20.46Z</time></trkpt><trkpt lat="44.1687751" lon="9.897878"><ele>29.0</ele><time>2026-04-04T15:51:21.447Z</time></trkpt><trkpt lat="44.1688298" lon="9.8980435"><ele>29.0</ele><time>2026-04-04T15:51:22.446Z</time></trkpt><trkpt lat="44.1688971" lon="9.8982075"><ele>29.0</ele><time>2026-04-04T15:51:23.446Z</time></trkpt><trkpt lat="44.1689672" lon="9.8983607"><ele>29.0</ele><time>2026-04-04T15:51:24.437Z</time></trkpt><trkpt lat="44.1690466" lon="9.8985055"><ele>30.75</ele><time>2026-04-04T15:51:25.441Z</time></trkpt><trkpt lat="44.169134" lon="9.8986429"><ele>32.5</ele><time>2026-04-04T15:51:26.448Z</time></trkpt><trkpt lat="44.169225" lon="9.898778"><ele>34.25</ele><time>2026-04-04T15:51:27.435Z</time></trkpt><trkpt lat="44.1693199" lon="9.8989103"><ele>36.0</ele><time>2026-04-04T15:51:28.443Z</time></trkpt><trkpt lat="44.1694192" lon="9.8990399"><ele>36.0</ele><time>2026-04-04T15:51:29.441Z</time></trkpt><trkpt lat="44.1695159" lon="9.8991657"><ele>36.0</ele><time>2026-04-04T15:51:30.441Z</time></trkpt><trkpt lat="44.1696206" lon="9.8992785"><ele>36.0</ele><time>2026-04-04T15:51:31.43Z</time></trkpt><trkpt lat="44.1697288" lon="9.8993738"><ele>36.0</ele><time>2026-04-04T15:51:32.429Z</time></trkpt><trkpt lat="44.1698364" lon="9.8994631"><ele>35.25</ele><time>2026-04-04T15:51:33.429Z</time></trkpt><trkpt lat="44.1699514" lon="9.8995371"><ele>34.5</ele><time>2026-04-04T15:51:34.433Z</time></trkpt><trkpt lat="44.1700674" lon="9.8996162"><ele>33.75</ele><time>2026-04-04T15:51:35.424Z</time></trkpt><trkpt lat="44.170168" lon="9.8997135"><ele>33.0</ele><time>2026-04-04T15:51:36.427Z</time></trkpt><trkpt lat="44.1702646" lon="9.8998207"><ele>33.0</ele><time>2026-04-04T15:51:37.429Z</time></trkpt><trkpt lat="44.1703553" lon="9.8999451"><ele>33.0</ele><time>2026-04-04T15:51:38.437Z</time></trkpt><trkpt lat="44.1704281" lon="9.9000858"><ele>33.0</ele><time>2026-04-04T15:51:39.429Z</time></trkpt><trkpt lat="44.1704928" lon="9.9002359"><ele>33.0</ele><time>2026-04-04T15:51:40.436Z</time></trkpt><trkpt lat="44.1705418" lon="9.9003828"><ele>33.75</ele><time>2026-04-04T15:51:41.443Z</time></trkpt><trkpt lat="44.1705869" lon="9.9005308"><ele>34.5</ele><time>2026-04-04T15:51:42.437Z</time></trkpt><trkpt lat="44.1706492" lon="9.9006697"><ele>35.25</ele><time>2026-04-04T15:51:43.448Z</time></trkpt><trkpt lat="44.1707364" lon="9.9008006"><ele>36.0</ele><time>2026-04-04T15:51:44.453Z</time></trkpt><trkpt lat="44.1708384" lon="9.9009251"><ele>34.5</ele><time>2026-04-04T15:51:45.454Z</time></trkpt><trkpt lat="44.1709473" lon="9.9010334"><ele>33.0</ele><time>2026-04-04T15:51:46.457Z</time></trkpt><trkpt lat="44.1710472" lon="9.901129"><ele>31.5</ele><time>2026-04-04T15:51:47.45Z</time></trkpt><trkpt lat="44.1711484" lon="9.9012133"><ele>30.0</ele><time>2026-04-04T15:51:48.452Z</time></trkpt><trkpt lat="44.1712465" lon="9.9012827"><ele>30.0</ele><time>2026-04-04T15:51:49.452Z</time></trkpt><trkpt lat="44.1713498" lon="9.9013222"><ele>30.0</ele><time>2026-04-04T15:51:50.457Z</time></trkpt><trkpt lat="44.1714643" lon="9.9013265"><ele>30.0</ele><time>2026-04-04T15:51:51.461Z</time></trkpt><trkpt lat="44.1715787" lon="9.9013403"><ele>30.0</ele><time>2026-04-04T15:51:52.459Z</time></trkpt><trkpt lat="44.1716807" lon="9.9014001"><ele>30.0</ele><time>2026-04-04T15:51:53.45Z</time></trkpt><trkpt lat="44.1717661" lon="9.9014968"><ele>30.75</ele><time>2026-04-04T15:51:54.463Z</time></trkpt><trkpt lat="44.1718131" lon="9.9016388"><ele>31.5</ele><time>2026-04-04T15:51:55.462Z</time></trkpt><trkpt lat="44.17182" lon="9.9018079"><ele>32.25</ele><time>2026-04-04T15:51:56.448Z</time></trkpt><trkpt lat="44.1718265" lon="9.9019785"><ele>33.0</ele><time>2026-04-04T15:51:57.459Z</time></trkpt><trkpt lat="44.1718383" lon="9.902148"><ele>33.0</ele><time>2026-04-04T15:51:58.444Z</time></trkpt><trkpt lat="44.1718385" lon="9.9023208"><ele>33.0</ele><time>2026-04-04T15:51:59.465Z</time></trkpt><trkpt lat="44.1718311" lon="9.9025041"><ele>33.0</ele><time>2026-04-04T15:52:00.456Z</time></trkpt><trkpt lat="44.1718275" lon="9.9026895"><ele>33.0</ele><time>2026-04-04T15:52:01.457Z</time></trkpt><trkpt lat="44.1718291" lon="9.9028748"><ele>32.25</ele><time>2026-04-04T15:52:02.457Z</time></trkpt><trkpt lat="44.1718395" lon="9.9030629"><ele>31.5</ele><time>2026-04-04T15:52:03.457Z</time></trkpt><trkpt lat="44.1718584" lon="9.9032544"><ele>30.75</ele><time>2026-04-04T15:52:04.467Z</time></trkpt><trkpt lat="44.1718794" lon="9.9034392"><ele>30.0</ele><time>2026-04-04T15:52:05.453Z</time></trkpt><trkpt lat="44.1718969" lon="9.9036277"><ele>30.0</ele><time>2026-04-04T15:52:06.458Z</time></trkpt><trkpt lat="44.1719035" lon="9.9038082"><ele>30.0</ele><time>2026-04-04T15:52:07.464Z</time></trkpt><trkpt lat="44.1719013" lon="9.9039794"><ele>30.0</ele><time>2026-04-04T15:52:08.466Z</time></trkpt><trkpt lat="44.1718917" lon="9.9041449"><ele>30.0</ele><time>2026-04-04T15:52:09.466Z</time></trkpt><trkpt lat="44.1718936" lon="9.904308"><ele>29.5</ele><time>2026-04-04T15:52:10.462Z</time></trkpt><trkpt lat="44.1719086" lon="9.9044752"><ele>29.0</ele><time>2026-04-04T15:52:11.467Z</time></trkpt><trkpt lat="44.1719367" lon="9.9046473"><ele>28.5</ele><time>2026-04-04T15:52:12.469Z</time></trkpt><trkpt lat="44.1719814" lon="9.9048197"><ele>28.0</ele><time>2026-04-04T15:52:13.468Z</time></trkpt><trkpt lat="44.1720359" lon="9.9049876"><ele>28.0</ele><time>2026-04-04T15:52:14.466Z</time></trkpt><trkpt lat="44.1720931" lon="9.9051448"><ele>28.0</ele><time>2026-04-04T15:52:15.461Z</time></trkpt><trkpt lat="44.1721428" lon="9.905292"><ele>28.0</ele><time>2026-04-04T15:52:16.471Z</time></trkpt><trkpt lat="44.1721948" lon="9.9054368"><ele>28.0</ele><time>2026-04-04T15:52:17.476Z</time></trkpt><trkpt lat="44.1722455" lon="9.9055822"><ele>28.0</ele><time>2026-04-04T15:52:18.476Z</time></trkpt><trkpt lat="44.1722966" lon="9.9057287"><ele>28.0</ele><time>2026-04-04T15:52:19.465Z</time></trkpt><trkpt lat="44.1723496" lon="9.9058763"><ele>28.0</ele><time>2026-04-04T15:52:20.459Z</time></trkpt><trkpt lat="44.1724003" lon="9.9060288"><ele>28.0</ele><time>2026-04-04T15:52:21.467Z</time></trkpt><trkpt lat="44.1724507" lon="9.9061749"><ele>28.75</ele><time>2026-04-04T15:52:22.458Z</time></trkpt><trkpt lat="44.1725057" lon="9.9063213"><ele>29.5</ele><time>2026-04-04T15:52:23.455Z</time></trkpt><trkpt lat="44.1725648" lon="9.9064669"><ele>30.25</ele><time>2026-04-04T15:52:24.447Z</time></trkpt><trkpt lat="44.172626" lon="9.9066072"><ele>31.0</ele><time>2026-04-04T15:52:25.457Z</time></trkpt><trkpt lat="44.1726963" lon="9.9067463"><ele>31.0</ele><time>2026-04-04T15:52:26.47Z</time></trkpt><trkpt lat="44.1727739" lon="9.9068845"><ele>31.0</ele><time>2026-04-04T15:52:27.463Z</time></trkpt><trkpt lat="44.1728602" lon="9.9070141"><ele>31.0</ele><time>2026-04-04T15:52:28.477Z</time></trkpt><trkpt lat="44.1729455" lon="9.9071348"><ele>31.0</ele><time>2026-04-04T15:52:29.483Z</time></trkpt><trkpt lat="44.1730221" lon="9.9072455"><ele>31.0</ele><time>2026-04-04T15:52:30.481Z</time></trkpt><trkpt lat="44.1730891" lon="9.9073464"><ele>31.0</ele><time>2026-04-04T15:52:31.466Z</time></trkpt><trkpt lat="44.1731433" lon="9.9074428"><ele>31.0</ele><time>2026-04-04T15:52:32.471Z</time></trkpt><trkpt lat="44.1731801" lon="9.907549"><ele>31.0</ele><time>2026-04-04T15:52:33.474Z</time></trkpt><trkpt lat="44.1731879" lon="9.9076703"><ele>31.0</ele><time>2026-04-04T15:52:34.45Z</time></trkpt><trkpt lat="44.1731858" lon="9.907806"><ele>31.0</ele><time>2026-04-04T15:52:35.47Z</time></trkpt><trkpt lat="44.1731871" lon="9.9079601"><ele>31.0</ele><time>2026-04-04T15:52:36.462Z</time></trkpt><trkpt lat="44.1731894" lon="9.9081181"><ele>31.0</ele><time>2026-04-04T15:52:37.468Z</time></trkpt><trkpt lat="44.1731982" lon="9.9082867"><ele>31.0</ele><time>2026-04-04T15:52:38.469Z</time></trkpt><trkpt lat="44.1732148" lon="9.9084579"><ele>32.0</ele><time>2026-04-04T15:52:39.47Z</time></trkpt><trkpt lat="44.1732406" lon="9.9086233"><ele>33.0</ele><time>2026-04-04T15:52:40.472Z</time></trkpt><trkpt lat="44.1732785" lon="9.9087814"><ele>34.0</ele><time>2026-04-04T15:52:41.465Z</time></trkpt><trkpt lat="44.1733245" lon="9.9089288"><ele>35.0</ele><time>2026-04-04T15:52:42.468Z</time></trkpt><trkpt lat="44.173386" lon="9.9090686"><ele>35.0</ele><time>2026-04-04T15:52:43.462Z</time></trkpt><trkpt lat="44.173465" lon="9.9091938"><ele>35.0</ele><time>2026-04-04T15:52:44.464Z</time></trkpt><trkpt lat="44.1735542" lon="9.9093145"><ele>35.0</ele><time>2026-04-04T15:52:45.459Z</time></trkpt><trkpt lat="44.1736456" lon="9.9094361"><ele>35.0</ele><time>2026-04-04T15:52:46.471Z</time></trkpt><trkpt lat="44.173743" lon="9.9095594"><ele>34.5</ele><time>2026-04-04T15:52:47.469Z</time></trkpt><trkpt lat="44.1738351" lon="9.9096859"><ele>34.0</ele><time>2026-04-04T15:52:48.47Z</time></trkpt><trkpt lat="44.1739227" lon="9.9098026"><ele>33.5</ele><time>2026-04-04T15:52:49.458Z</time></trkpt><trkpt lat="44.1740043" lon="9.9099129"><ele>33.0</ele><time>2026-04-04T15:52:50.461Z</time></trkpt><trkpt lat="44.1740799" lon="9.9100113"><ele>33.4</ele><time>2026-04-04T15:52:51.466Z</time></trkpt><trkpt lat="44.174152" lon="9.9101079"><ele>33.8</ele><time>2026-04-04T15:52:52.462Z</time></trkpt><trkpt lat="44.1742209" lon="9.910213"><ele>34.2</ele><time>2026-04-04T15:52:53.464Z</time></trkpt><trkpt lat="44.1742889" lon="9.9103267"><ele>34.6</ele><time>2026-04-04T15:52:54.459Z</time></trkpt><trkpt lat="44.1743536" lon="9.9104618"><ele>35.0</ele><time>2026-04-04T15:52:55.467Z</time></trkpt><trkpt lat="44.1744159" lon="9.910603"><ele>35.0</ele><time>2026-04-04T15:52:56.455Z</time></trkpt><trkpt lat="44.1744781" lon="9.9107538"><ele>35.0</ele><time>2026-04-04T15:52:57.46Z</time></trkpt><trkpt lat="44.1745349" lon="9.9109034"><ele>35.0</ele><time>2026-04-04T15:52:58.464Z</time></trkpt><trkpt lat="44.1745872" lon="9.9110496"><ele>35.0</ele><time>2026-04-04T15:52:59.459Z</time></trkpt><trkpt lat="44.1746331" lon="9.9112021"><ele>34.5</ele><time>2026-04-04T15:53:00.473Z</time></trkpt><trkpt lat="44.1746774" lon="9.9113603"><ele>34.0</ele><time>2026-04-04T15:53:01.464Z</time></trkpt><trkpt lat="44.174719" lon="9.9115224"><ele>33.5</ele><time>2026-04-04T15:53:02.462Z</time></trkpt><trkpt lat="44.1747552" lon="9.9116888"><ele>33.0</ele><time>2026-04-04T15:53:03.466Z</time></trkpt><trkpt lat="44.1747814" lon="9.9118481"><ele>32.5</ele><time>2026-04-04T15:53:04.455Z</time></trkpt><trkpt lat="44.1747998" lon="9.9120033"><ele>32.0</ele><time>2026-04-04T15:53:05.462Z</time></trkpt><trkpt lat="44.1748178" lon="9.9121549"><ele>31.5</ele><time>2026-04-04T15:53:06.455Z</time></trkpt><trkpt lat="44.1748364" lon="9.9123122"><ele>31.0</ele><time>2026-04-04T15:53:07.463Z</time></trkpt><trkpt lat="44.1748536" lon="9.9124681"><ele>32.0</ele><time>2026-04-04T15:53:08.459Z</time></trkpt><trkpt lat="44.1748645" lon="9.912624"><ele>33.0</ele><time>2026-04-04T15:53:09.462Z</time></trkpt><trkpt lat="44.1748814" lon="9.9127814"><ele>34.0</ele><time>2026-04-04T15:53:10.465Z</time></trkpt><trkpt lat="44.1748969" lon="9.912944"><ele>35.0</ele><time>2026-04-04T15:53:11.466Z</time></trkpt><trkpt lat="44.1749099" lon="9.9131071"><ele>35.0</ele><time>2026-04-04T15:53:12.465Z</time></trkpt><trkpt lat="44.1749258" lon="9.9132666"><ele>35.0</ele><time>2026-04-04T15:53:13.46Z</time></trkpt><trkpt lat="44.1749429" lon="9.9134246"><ele>35.0</ele><time>2026-04-04T15:53:14.457Z</time></trkpt><trkpt lat="44.1749588" lon="9.9135828"><ele>35.0</ele><time>2026-04-04T15:53:15.449Z</time></trkpt><trkpt lat="44.1749735" lon="9.913743"><ele>35.25</ele><time>2026-04-04T15:53:16.462Z</time></trkpt><trkpt lat="44.1749891" lon="9.9139081"><ele>35.5</ele><time>2026-04-04T15:53:17.46Z</time></trkpt><trkpt lat="44.1750113" lon="9.9140763"><ele>35.75</ele><time>2026-04-04T15:53:18.459Z</time></trkpt><trkpt lat="44.1750315" lon="9.9142354"><ele>36.0</ele><time>2026-04-04T15:53:19.463Z</time></trkpt><trkpt lat="44.1750446" lon="9.914384"><ele>36.2</ele><time>2026-04-04T15:53:20.459Z</time></trkpt><trkpt lat="44.1750637" lon="9.9145198"><ele>36.400000000000006</ele><time>2026-04-04T15:53:21.457Z</time></trkpt><trkpt lat="44.1750832" lon="9.9146512"><ele>36.6</ele><time>2026-04-04T15:53:22.457Z</time></trkpt><trkpt lat="44.1750968" lon="9.9147819"><ele>36.800000000000004</ele><time>2026-04-04T15:53:23.465Z</time></trkpt><trkpt lat="44.175109" lon="9.9149132"><ele>37.0</ele><time>2026-04-04T15:53:24.466Z</time></trkpt><trkpt lat="44.1751264" lon="9.915055"><ele>37.25</ele><time>2026-04-04T15:53:25.457Z</time></trkpt><trkpt lat="44.1751433" lon="9.9152062"><ele>37.5</ele><time>2026-04-04T15:53:26.454Z</time></trkpt><trkpt lat="44.1751557" lon="9.9153673"><ele>37.75</ele><time>2026-04-04T15:53:27.451Z</time></trkpt><trkpt lat="44.1751655" lon="9.9155371"><ele>38.0</ele><time>2026-04-04T15:53:28.452Z</time></trkpt><trkpt lat="44.1751674" lon="9.9157091"><ele>38.0</ele><time>2026-04-04T15:53:29.449Z</time></trkpt><trkpt lat="44.1751662" lon="9.9158793"><ele>38.0</ele><time>2026-04-04T15:53:30.455Z</time></trkpt><trkpt lat="44.1751572" lon="9.9160417"><ele>38.0</ele><time>2026-04-04T15:53:31.452Z</time></trkpt><trkpt lat="44.1751457" lon="9.916193"><ele>38.0</ele><time>2026-04-04T15:53:32.439Z</time></trkpt><trkpt lat="44.1751288" lon="9.9163496"><ele>37.6</ele><time>2026-04-04T15:53:33.458Z</time></trkpt><trkpt lat="44.1751106" lon="9.916501"><ele>37.199999999999996</ele><time>2026-04-04T15:53:34.451Z</time></trkpt><trkpt lat="44.1750958" lon="9.9166506"><ele>36.8</ele><time>2026-04-04T15:53:35.452Z</time></trkpt><trkpt lat="44.175084" lon="9.916802"><ele>36.4</ele><time>2026-04-04T15:53:36.458Z</time></trkpt><trkpt lat="44.1750702" lon="9.9169471"><ele>36.0</ele><time>2026-04-04T15:53:37.461Z</time></trkpt><trkpt lat="44.1750542" lon="9.9170895"><ele>35.6</ele><time>2026-04-04T15:53:38.454Z</time></trkpt><trkpt lat="44.1750389" lon="9.9172238"><ele>35.2</ele><time>2026-04-04T15:53:39.461Z</time></trkpt><trkpt lat="44.1750235" lon="9.9173542"><ele>34.8</ele><time>2026-04-04T15:53:40.458Z</time></trkpt><trkpt lat="44.1750077" lon="9.9174805"><ele>34.4</ele><time>2026-04-04T15:53:41.46Z</time></trkpt><trkpt lat="44.1749961" lon="9.9176084"><ele>34.0</ele><time>2026-04-04T15:53:42.464Z</time></trkpt><trkpt lat="44.1749844" lon="9.9177383"><ele>33.8</ele><time>2026-04-04T15:53:43.458Z</time></trkpt><trkpt lat="44.1749739" lon="9.9178728"><ele>33.599999999999994</ele><time>2026-04-04T15:53:44.461Z</time></trkpt><trkpt lat="44.1749639" lon="9.9180137"><ele>33.4</ele><time>2026-04-04T15:53:45.458Z</time></trkpt><trkpt lat="44.1749532" lon="9.918165"><ele>33.199999999999996</ele><time>2026-04-04T15:53:46.464Z</time></trkpt><trkpt lat="44.1749396" lon="9.9183229"><ele>33.0</ele><time>2026-04-04T15:53:47.464Z</time></trkpt><trkpt lat="44.1749269" lon="9.9184883"><ele>33.0</ele><time>2026-04-04T15:53:48.467Z</time></trkpt><trkpt lat="44.1749132" lon="9.9186502"><ele>33.0</ele><time>2026-04-04T15:53:49.459Z</time></trkpt><trkpt lat="44.1748987" lon="9.9188041"><ele>33.0</ele><time>2026-04-04T15:53:50.465Z</time></trkpt><trkpt lat="44.1748864" lon="9.9189552"><ele>33.0</ele><time>2026-04-04T15:53:51.463Z</time></trkpt><trkpt lat="44.1748755" lon="9.9191035"><ele>33.0</ele><time>2026-04-04T15:53:52.462Z</time></trkpt><trkpt lat="44.1748678" lon="9.9192498"><ele>33.199999999999996</ele><time>2026-04-04T15:53:53.462Z</time></trkpt><trkpt lat="44.1748592" lon="9.9193942"><ele>33.4</ele><time>2026-04-04T15:53:54.457Z</time></trkpt><trkpt lat="44.1748516" lon="9.919539"><ele>33.599999999999994</ele><time>2026-04-04T15:53:55.464Z</time></trkpt><trkpt lat="44.1748399" lon="9.9196831"><ele>33.8</ele><time>2026-04-04T15:53:56.466Z</time></trkpt><trkpt lat="44.1748275" lon="9.9198265"><ele>34.0</ele><time>2026-04-04T15:53:57.454Z</time></trkpt><trkpt lat="44.1748174" lon="9.9199636"><ele>34.2</ele><time>2026-04-04T15:53:58.454Z</time></trkpt><trkpt lat="44.1748052" lon="9.9200968"><ele>34.4</ele><time>2026-04-04T15:53:59.458Z</time></trkpt><trkpt lat="44.1747978" lon="9.9202293"><ele>34.6</ele><time>2026-04-04T15:54:00.453Z</time></trkpt><trkpt lat="44.1747904" lon="9.9203727"><ele>34.8</ele><time>2026-04-04T15:54:01.454Z</time></trkpt><trkpt lat="44.1747832" lon="9.9205225"><ele>35.0</ele><time>2026-04-04T15:54:02.455Z</time></trkpt><trkpt lat="44.1747737" lon="9.920679"><ele>35.0</ele><time>2026-04-04T15:54:03.449Z</time></trkpt><trkpt lat="44.1747627" lon="9.9208485"><ele>35.0</ele><time>2026-04-04T15:54:04.437Z</time></trkpt><trkpt lat="44.1747521" lon="9.9210181"><ele>35.0</ele><time>2026-04-04T15:54:05.453Z</time></trkpt><trkpt lat="44.1747332" lon="9.9211932"><ele>35.0</ele><time>2026-04-04T15:54:06.445Z</time></trkpt><trkpt lat="44.1747164" lon="9.9213691"><ele>35.4</ele><time>2026-04-04T15:54:07.445Z</time></trkpt><trkpt lat="44.1747006" lon="9.9215275"><ele>35.8</ele><time>2026-04-04T15:54:08.455Z</time></trkpt><trkpt lat="44.174686" lon="9.9216803"><ele>36.2</ele><time>2026-04-04T15:54:09.463Z</time></trkpt><trkpt lat="44.1746788" lon="9.9218233"><ele>36.6</ele><time>2026-04-04T15:54:10.464Z</time></trkpt><trkpt lat="44.1746729" lon="9.9219654"><ele>37.0</ele><time>2026-04-04T15:54:11.457Z</time></trkpt><trkpt lat="44.1746621" lon="9.9221101"><ele>37.0</ele><time>2026-04-04T15:54:12.453Z</time></trkpt><trkpt lat="44.174649" lon="9.9222526"><ele>37.0</ele><time>2026-04-04T15:54:13.466Z</time></trkpt><trkpt lat="44.1746384" lon="9.9224074"><ele>37.0</ele><time>2026-04-04T15:54:14.46Z</time></trkpt><trkpt lat="44.1746305" lon="9.9225673"><ele>37.0</ele><time>2026-04-04T15:54:15.455Z</time></trkpt><trkpt lat="44.1746271" lon="9.9227372"><ele>36.5</ele><time>2026-04-04T15:54:16.459Z</time></trkpt><trkpt lat="44.1746098" lon="9.922908"><ele>36.0</ele><time>2026-04-04T15:54:17.464Z</time></trkpt><trkpt lat="44.1745941" lon="9.9230774"><ele>35.5</ele><time>2026-04-04T15:54:18.455Z</time></trkpt><trkpt lat="44.1745785" lon="9.923248"><ele>35.0</ele><time>2026-04-04T15:54:19.447Z</time></trkpt><trkpt lat="44.1745616" lon="9.9234178"><ele>34.5</ele><time>2026-04-04T15:54:20.458Z</time></trkpt><trkpt lat="44.1745449" lon="9.9235834"><ele>34.0</ele><time>2026-04-04T15:54:21.459Z</time></trkpt><trkpt lat="44.1745302" lon="9.9237543"><ele>33.5</ele><time>2026-04-04T15:54:22.466Z</time></trkpt><trkpt lat="44.1745159" lon="9.9239278"><ele>33.0</ele><time>2026-04-04T15:54:23.46Z</time></trkpt><trkpt lat="44.1745041" lon="9.9240964"><ele>32.75</ele><time>2026-04-04T15:54:24.474Z</time></trkpt><trkpt lat="44.1744931" lon="9.9242589"><ele>32.5</ele><time>2026-04-04T15:54:25.469Z</time></trkpt><trkpt lat="44.1744832" lon="9.9244181"><ele>32.25</ele><time>2026-04-04T15:54:26.485Z</time></trkpt><trkpt lat="44.1744701" lon="9.9245782"><ele>32.0</ele><time>2026-04-04T15:54:27.479Z</time></trkpt><trkpt lat="44.1744562" lon="9.9247406"><ele>32.0</ele><time>2026-04-04T15:54:28.478Z</time></trkpt><trkpt lat="44.1744419" lon="9.9249079"><ele>32.0</ele><time>2026-04-04T15:54:29.474Z</time></trkpt><trkpt lat="44.1744263" lon="9.9250784"><ele>32.0</ele><time>2026-04-04T15:54:30.478Z</time></trkpt><trkpt lat="44.1744101" lon="9.9252496"><ele>32.0</ele><time>2026-04-04T15:54:31.477Z</time></trkpt><trkpt lat="44.1743935" lon="9.9254244"><ele>32.0</ele><time>2026-04-04T15:54:32.472Z</time></trkpt><trkpt lat="44.1743764" lon="9.9256023"><ele>32.0</ele><time>2026-04-04T15:54:33.487Z</time></trkpt><trkpt lat="44.1743622" lon="9.9257742"><ele>32.0</ele><time>2026-04-04T15:54:34.474Z</time></trkpt><trkpt lat="44.1743496" lon="9.9259392"><ele>32.0</ele><time>2026-04-04T15:54:35.477Z</time></trkpt><trkpt lat="44.1743328" lon="9.9261018"><ele>32.4</ele><time>2026-04-04T15:54:36.475Z</time></trkpt><trkpt lat="44.1743186" lon="9.9262546"><ele>32.800000000000004</ele><time>2026-04-04T15:54:37.475Z</time></trkpt><trkpt lat="44.174306" lon="9.9264041"><ele>33.2</ele><time>2026-04-04T15:54:38.48Z</time></trkpt><trkpt lat="44.1742976" lon="9.9265484"><ele>33.6</ele><time>2026-04-04T15:54:39.475Z</time></trkpt><trkpt lat="44.1742887" lon="9.9266873"><ele>34.0</ele><time>2026-04-04T15:54:40.474Z</time></trkpt><trkpt lat="44.1742778" lon="9.926816"><ele>35.333333333333336</ele><time>2026-04-04T15:54:41.475Z</time></trkpt><trkpt lat="44.174268" lon="9.9269419"><ele>36.66666666666667</ele><time>2026-04-04T15:54:42.471Z</time></trkpt><trkpt lat="44.1742615" lon="9.9270628"><ele>38.0</ele><time>2026-04-04T15:54:43.475Z</time></trkpt><trkpt lat="44.1742563" lon="9.9271813"><ele>39.333333333333336</ele><time>2026-04-04T15:54:44.481Z</time></trkpt><trkpt lat="44.1742493" lon="9.9272936"><ele>40.666666666666664</ele><time>2026-04-04T15:54:45.469Z</time></trkpt><trkpt lat="44.1742457" lon="9.9274004"><ele>42.0</ele><time>2026-04-04T15:54:46.478Z</time></trkpt><trkpt lat="44.1742322" lon="9.9275022"><ele>43.42857142857143</ele><time>2026-04-04T15:54:47.469Z</time></trkpt><trkpt lat="44.1742089" lon="9.9275947"><ele>44.85714285714286</ele><time>2026-04-04T15:54:48.471Z</time></trkpt><trkpt lat="44.1741745" lon="9.9276747"><ele>46.285714285714285</ele><time>2026-04-04T15:54:49.464Z</time></trkpt><trkpt lat="44.1741375" lon="9.9277591"><ele>47.714285714285715</ele><time>2026-04-04T15:54:50.468Z</time></trkpt><trkpt lat="44.174126" lon="9.9278495"><ele>49.142857142857146</ele><time>2026-04-04T15:54:51.466Z</time></trkpt><trkpt lat="44.1741601" lon="9.9279301"><ele>50.57142857142857</ele><time>2026-04-04T15:54:52.464Z</time></trkpt><trkpt lat="44.1742378" lon="9.9279548"><ele>52.0</ele><time>2026-04-04T15:54:53.446Z</time></trkpt><trkpt lat="44.1743431" lon="9.9279543"><ele>52.0</ele><time>2026-04-04T15:54:54.444Z</time></trkpt><trkpt lat="44.1744551" lon="9.9279778"><ele>52.0</ele><time>2026-04-04T15:54:55.454Z</time></trkpt><trkpt lat="44.1745761" lon="9.9280393"><ele>52.0</ele><time>2026-04-04T15:54:56.444Z</time></trkpt><trkpt lat="44.174704" lon="9.9281267"><ele>52.0</ele><time>2026-04-04T15:54:57.446Z</time></trkpt><trkpt lat="44.1748382" lon="9.92823"><ele>51.0</ele><time>2026-04-04T15:54:58.436Z</time></trkpt><trkpt lat="44.1749695" lon="9.9283425"><ele>50.0</ele><time>2026-04-04T15:54:59.441Z</time></trkpt><trkpt lat="44.1751105" lon="9.9284362"><ele>49.0</ele><time>2026-04-04T15:55:00.439Z</time></trkpt><trkpt lat="44.1752562" lon="9.9284893"><ele>54.33333333333333</ele><time>2026-04-04T15:55:01.434Z</time></trkpt><trkpt lat="44.1754214" lon="9.9285046"><ele>59.66666666666667</ele><time>2026-04-04T15:55:02.423Z</time></trkpt><trkpt lat="44.1755765" lon="9.9285016"><ele>65.0</ele><time>2026-04-04T15:55:03.422Z</time></trkpt><trkpt lat="44.1757249" lon="9.928542"><ele>65.0</ele><time>2026-04-04T15:55:04.432Z</time></trkpt><trkpt lat="44.1758713" lon="9.9286263"><ele>65.0</ele><time>2026-04-04T15:55:05.427Z</time></trkpt><trkpt lat="44.176011" lon="9.9287412"><ele>65.0</ele><time>2026-04-04T15:55:06.43Z</time></trkpt><trkpt lat="44.1761292" lon="9.9288651"><ele>65.0</ele><time>2026-04-04T15:55:07.432Z</time></trkpt><trkpt lat="44.1762513" lon="9.9289768"><ele>65.0</ele><time>2026-04-04T15:55:08.429Z</time></trkpt><trkpt lat="44.1763929" lon="9.9290448"><ele>65.0</ele><time>2026-04-04T15:55:09.443Z</time></trkpt><trkpt lat="44.1765575" lon="9.9290709"><ele>57.0</ele><time>2026-04-04T15:55:10.438Z</time></trkpt><trkpt lat="44.1767278" lon="9.9290384"><ele>49.0</ele><time>2026-04-04T15:55:11.446Z</time></trkpt><trkpt lat="44.1769037" lon="9.9289725"><ele>41.0</ele><time>2026-04-04T15:55:12.442Z</time></trkpt><trkpt lat="44.1770952" lon="9.928933"><ele>41.0</ele><time>2026-04-04T15:55:13.443Z</time></trkpt><trkpt lat="44.1772951" lon="9.9288853"><ele>41.0</ele><time>2026-04-04T15:55:14.444Z</time></trkpt><trkpt lat="44.1774978" lon="9.9288308"><ele>41.0</ele><time>2026-04-04T15:55:15.456Z</time></trkpt><trkpt lat="44.1776939" lon="9.9287799"><ele>41.666666666666664</ele><time>2026-04-04T15:55:16.444Z</time></trkpt><trkpt lat="44.1778645" lon="9.9287248"><ele>42.333333333333336</ele><time>2026-04-04T15:55:17.447Z</time></trkpt><trkpt lat="44.1780176" lon="9.9286664"><ele>43.0</ele><time>2026-04-04T15:55:18.453Z</time></trkpt><trkpt lat="44.1781768" lon="9.9286162"><ele>48.66666666666667</ele><time>2026-04-04T15:55:19.449Z</time></trkpt><trkpt lat="44.1783451" lon="9.9285526"><ele>54.333333333333336</ele><time>2026-04-04T15:55:20.444Z</time></trkpt><trkpt lat="44.1785282" lon="9.9285028"><ele>60.0</ele><time>2026-04-04T15:55:21.455Z</time></trkpt><trkpt lat="44.1787094" lon="9.9284579"><ele>58.66666666666667</ele><time>2026-04-04T15:55:22.45Z</time></trkpt><trkpt lat="44.1788839" lon="9.9283719"><ele>57.333333333333336</ele><time>2026-04-04T15:55:23.446Z</time></trkpt><trkpt lat="44.1790445" lon="9.9282634"><ele>56.0</ele><time>2026-04-04T15:55:24.447Z</time></trkpt><trkpt lat="44.1792067" lon="9.9281997"><ele>56.0</ele><time>2026-04-04T15:55:25.449Z</time></trkpt><trkpt lat="44.1793757" lon="9.9281752"><ele>56.0</ele><time>2026-04-04T15:55:26.433Z</time></trkpt><trkpt lat="44.1795466" lon="9.9281725"><ele>56.0</ele><time>2026-04-04T15:55:27.438Z</time></trkpt><trkpt lat="44.1797383" lon="9.9281103"><ele>59.0</ele><time>2026-04-04T15:55:28.434Z</time></trkpt><trkpt lat="44.1799324" lon="9.9280484"><ele>62.0</ele><time>2026-04-04T15:55:29.435Z</time></trkpt><trkpt lat="44.1801166" lon="9.9279706"><ele>65.0</ele><time>2026-04-04T15:55:30.439Z</time></trkpt><trkpt lat="44.1802922" lon="9.9278773"><ele>65.0</ele><time>2026-04-04T15:55:31.437Z</time></trkpt><trkpt lat="44.1804756" lon="9.9277746"><ele>65.0</ele><time>2026-04-04T15:55:32.437Z</time></trkpt><trkpt lat="44.1806576" lon="9.9276465"><ele>65.0</ele><time>2026-04-04T15:55:33.437Z</time></trkpt><trkpt lat="44.1808351" lon="9.9274996"><ele>61.0</ele><time>2026-04-04T15:55:34.443Z</time></trkpt><trkpt lat="44.1810135" lon="9.9273676"><ele>57.0</ele><time>2026-04-04T15:55:35.448Z</time></trkpt><trkpt lat="44.1811961" lon="9.9272525"><ele>53.0</ele><time>2026-04-04T15:55:36.442Z</time></trkpt><trkpt lat="44.1813773" lon="9.9271625"><ele>59.333333333333336</ele><time>2026-04-04T15:55:37.439Z</time></trkpt><trkpt lat="44.1815605" lon="9.9270965"><ele>65.66666666666667</ele><time>2026-04-04T15:55:38.447Z</time></trkpt><trkpt lat="44.1817388" lon="9.9270482"><ele>72.0</ele><time>2026-04-04T15:55:39.446Z</time></trkpt><trkpt lat="44.1819229" lon="9.9270169"><ele>72.0</ele><time>2026-04-04T15:55:40.451Z</time></trkpt><trkpt lat="44.1820994" lon="9.9269549"><ele>72.0</ele><time>2026-04-04T15:55:41.446Z</time></trkpt><trkpt lat="44.1822706" lon="9.9268799"><ele>72.0</ele><time>2026-04-04T15:55:42.448Z</time></trkpt><trkpt lat="44.182445" lon="9.9267929"><ele>68.66666666666667</ele><time>2026-04-04T15:55:43.444Z</time></trkpt><trkpt lat="44.1826231" lon="9.9267074"><ele>65.33333333333334</ele><time>2026-04-04T15:55:44.443Z</time></trkpt><trkpt lat="44.1827929" lon="9.9266086"><ele>62.0</ele><time>2026-04-04T15:55:45.464Z</time></trkpt><trkpt lat="44.1829734" lon="9.9264932"><ele>62.0</ele><time>2026-04-04T15:55:46.453Z</time></trkpt><trkpt lat="44.1831452" lon="9.9263682"><ele>62.0</ele><time>2026-04-04T15:55:47.451Z</time></trkpt><trkpt lat="44.1833123" lon="9.9262432"><ele>62.0</ele><time>2026-04-04T15:55:48.457Z</time></trkpt><trkpt lat="44.1834745" lon="9.9261297"><ele>59.0</ele><time>2026-04-04T15:55:49.451Z</time></trkpt><trkpt lat="44.1836298" lon="9.9260182"><ele>56.0</ele><time>2026-04-04T15:55:50.452Z</time></trkpt><trkpt lat="44.1837875" lon="9.9259281"><ele>53.0</ele><time>2026-04-04T15:55:51.447Z</time></trkpt><trkpt lat="44.1839326" lon="9.9258547"><ele>54.5</ele><time>2026-04-04T15:55:52.454Z</time></trkpt><trkpt lat="44.1840735" lon="9.9257825"><ele>56.0</ele><time>2026-04-04T15:55:53.448Z</time></trkpt><trkpt lat="44.1842144" lon="9.9257176"><ele>57.5</ele><time>2026-04-04T15:55:54.454Z</time></trkpt><trkpt lat="44.184357" lon="9.925683"><ele>59.0</ele><time>2026-04-04T15:55:55.446Z</time></trkpt><trkpt lat="44.1845041" lon="9.9257053"><ele>59.0</ele><time>2026-04-04T15:55:56.449Z</time></trkpt><trkpt lat="44.1846455" lon="9.9258079"><ele>59.0</ele><time>2026-04-04T15:55:57.434Z</time></trkpt><trkpt lat="44.1847612" lon="9.9259526"><ele>59.0</ele><time>2026-04-04T15:55:58.44Z</time></trkpt><trkpt lat="44.1848369" lon="9.9261405"><ele>56.0</ele><time>2026-04-04T15:55:59.442Z</time></trkpt><trkpt lat="44.1848629" lon="9.9263651"><ele>53.0</ele><time>2026-04-04T15:56:00.442Z</time></trkpt><trkpt lat="44.1848489" lon="9.9265972"><ele>50.0</ele><time>2026-04-04T15:56:01.413Z</time></trkpt><trkpt lat="44.1847757" lon="9.9268217"><ele>62.0</ele><time>2026-04-04T15:56:02.425Z</time></trkpt><trkpt lat="44.1846745" lon="9.927046"><ele>74.0</ele><time>2026-04-04T15:56:03.429Z</time></trkpt><trkpt lat="44.1845676" lon="9.927266"><ele>86.0</ele><time>2026-04-04T15:56:04.428Z</time></trkpt><trkpt lat="44.1844614" lon="9.9274948"><ele>81.0</ele><time>2026-04-04T15:56:05.426Z</time></trkpt><trkpt lat="44.1843764" lon="9.9277359"><ele>76.0</ele><time>2026-04-04T15:56:06.418Z</time></trkpt><trkpt lat="44.1842844" lon="9.928001"><ele>71.0</ele><time>2026-04-04T15:56:07.417Z</time></trkpt><trkpt lat="44.1842085" lon="9.9282831"><ele>66.66666666666667</ele><time>2026-04-04T15:56:08.423Z</time></trkpt><trkpt lat="44.1841477" lon="9.9285806"><ele>62.33333333333333</ele><time>2026-04-04T15:56:09.411Z</time></trkpt><trkpt lat="44.1841117" lon="9.9288928"><ele>58.0</ele><time>2026-04-04T15:56:10.422Z</time></trkpt><trkpt lat="44.1840741" lon="9.9292167"><ele>54.5</ele><time>2026-04-04T15:56:11.431Z</time></trkpt><trkpt lat="44.1840442" lon="9.9295461"><ele>51.0</ele><time>2026-04-04T15:56:12.427Z</time></trkpt><trkpt lat="44.1839934" lon="9.9298664"><ele>69.33333333333334</ele><time>2026-04-04T15:56:13.425Z</time></trkpt><trkpt lat="44.183942" lon="9.9301739"><ele>87.66666666666667</ele><time>2026-04-04T15:56:14.442Z</time></trkpt><trkpt lat="44.1838793" lon="9.9304695"><ele>106.0</ele><time>2026-04-04T15:56:15.441Z</time></trkpt><trkpt lat="44.1838202" lon="9.9307539"><ele>103.33333333333334</ele><time>2026-04-04T15:56:16.448Z</time></trkpt><trkpt lat="44.1837654" lon="9.9310313"><ele>100.66666666666666</ele><time>2026-04-04T15:56:17.442Z</time></trkpt><trkpt lat="44.1837205" lon="9.9312946"><ele>98.0</ele><time>2026-04-04T15:56:18.44Z</time></trkpt><trkpt lat="44.183686" lon="9.9315488"><ele>96.0</ele><time>2026-04-04T15:56:19.44Z</time></trkpt><trkpt lat="44.1836539" lon="9.9317883"><ele>94.0</ele><time>2026-04-04T15:56:20.444Z</time></trkpt><trkpt lat="44.1836301" lon="9.9320269"><ele>92.0</ele><time>2026-04-04T15:56:21.439Z</time></trkpt><trkpt lat="44.1836043" lon="9.9322455"><ele>92.0</ele><time>2026-04-04T15:56:22.441Z</time></trkpt><trkpt lat="44.1835659" lon="9.9324593"><ele>92.0</ele><time>2026-04-04T15:56:23.44Z</time></trkpt><trkpt lat="44.1835519" lon="9.9326342"><ele>92.0</ele><time>2026-04-04T15:56:24.452Z</time></trkpt><trkpt lat="44.1835763" lon="9.9327791"><ele>92.0</ele><time>2026-04-04T15:56:25.441Z</time></trkpt><trkpt lat="44.1836538" lon="9.9328974"><ele>89.75</ele><time>2026-04-04T15:56:26.45Z</time></trkpt><trkpt lat="44.1837751" lon="9.9329701"><ele>87.5</ele><time>2026-04-04T15:56:27.456Z</time></trkpt><trkpt lat="44.183921" lon="9.9330524"><ele>85.25</ele><time>2026-04-04T15:56:28.446Z</time></trkpt><trkpt lat="44.1840538" lon="9.9331582"><ele>83.0</ele><time>2026-04-04T15:56:29.46Z</time></trkpt><trkpt lat="44.184185" lon="9.9333477"><ele>74.66666666666667</ele><time>2026-04-04T15:56:30.46Z</time></trkpt><trkpt lat="44.1843038" lon="9.9335864"><ele>66.33333333333333</ele><time>2026-04-04T15:56:31.45Z</time></trkpt><trkpt lat="44.1844124" lon="9.9338672"><ele>58.0</ele><time>2026-04-04T15:56:32.448Z</time></trkpt><trkpt lat="44.1845059" lon="9.9341434"><ele>62.33333333333333</ele><time>2026-04-04T15:56:33.449Z</time></trkpt><trkpt lat="44.1845963" lon="9.9344213"><ele>66.66666666666667</ele><time>2026-04-04T15:56:34.446Z</time></trkpt><trkpt lat="44.1846948" lon="9.9347092"><ele>71.0</ele><time>2026-04-04T15:56:35.447Z</time></trkpt><trkpt lat="44.1847945" lon="9.9350059"><ele>65.0</ele><time>2026-04-04T15:56:36.452Z</time></trkpt><trkpt lat="44.1848842" lon="9.9353022"><ele>59.0</ele><time>2026-04-04T15:56:37.462Z</time></trkpt><trkpt lat="44.1849657" lon="9.9355906"><ele>59.0</ele><time>2026-04-04T15:56:38.458Z</time></trkpt><trkpt lat="44.1850636" lon="9.9358556"><ele>59.0</ele><time>2026-04-04T15:56:39.454Z</time></trkpt><trkpt lat="44.1851798" lon="9.9360952"><ele>59.0</ele><time>2026-04-04T15:56:40.444Z</time></trkpt><trkpt lat="44.1853041" lon="9.9363264"><ele>63.0</ele><time>2026-04-04T15:56:41.457Z</time></trkpt><trkpt lat="44.1854178" lon="9.9365457"><ele>67.0</ele><time>2026-04-04T15:56:42.458Z</time></trkpt><trkpt lat="44.1855264" lon="9.9367419"><ele>71.0</ele><time>2026-04-04T15:56:43.451Z</time></trkpt><trkpt lat="44.1856374" lon="9.9369234"><ele>70.66666666666667</ele><time>2026-04-04T15:56:44.452Z</time></trkpt><trkpt lat="44.185742" lon="9.9370972"><ele>70.33333333333333</ele><time>2026-04-04T15:56:45.446Z</time></trkpt><trkpt lat="44.1858398" lon="9.9372664"><ele>70.0</ele><time>2026-04-04T15:56:46.45Z</time></trkpt><trkpt lat="44.1859458" lon="9.9374263"><ele>78.0</ele><time>2026-04-04T15:56:47.455Z</time></trkpt><trkpt lat="44.1860695" lon="9.9375859"><ele>86.0</ele><time>2026-04-04T15:56:48.444Z</time></trkpt><trkpt lat="44.1861989" lon="9.9377321"><ele>94.0</ele><time>2026-04-04T15:56:49.445Z</time></trkpt><trkpt lat="44.1863407" lon="9.9378644"><ele>94.0</ele><time>2026-04-04T15:56:50.444Z</time></trkpt><trkpt lat="44.1864885" lon="9.937974"><ele>94.0</ele><time>2026-04-04T15:56:51.447Z</time></trkpt><trkpt lat="44.1866344" lon="9.9380912"><ele>94.0</ele><time>2026-04-04T15:56:52.447Z</time></trkpt><trkpt lat="44.1867665" lon="9.9382336"><ele>97.33333333333333</ele><time>2026-04-04T15:56:53.44Z</time></trkpt><trkpt lat="44.1868848" lon="9.9383746"><ele>100.66666666666666</ele><time>2026-04-04T15:56:54.452Z</time></trkpt><trkpt lat="44.1870011" lon="9.9385056"><ele>104.0</ele><time>2026-04-04T15:56:55.442Z</time></trkpt><trkpt lat="44.1871249" lon="9.9386145"><ele>104.0</ele><time>2026-04-04T15:56:56.435Z</time></trkpt><trkpt lat="44.1872691" lon="9.9387188"><ele>104.0</ele><time>2026-04-04T15:56:57.445Z</time></trkpt><trkpt lat="44.1874184" lon="9.9388403"><ele>104.0</ele><time>2026-04-04T15:56:58.451Z</time></trkpt><trkpt lat="44.1875473" lon="9.9389764"><ele>101.0</ele><time>2026-04-04T15:56:59.442Z</time></trkpt><trkpt lat="44.1876656" lon="9.9390981"><ele>98.0</ele><time>2026-04-04T15:57:00.439Z</time></trkpt><trkpt lat="44.1877768" lon="9.9392143"><ele>95.0</ele><time>2026-04-04T15:57:01.443Z</time></trkpt><trkpt lat="44.1878865" lon="9.9393235"><ele>92.0</ele><time>2026-04-04T15:57:02.444Z</time></trkpt><trkpt lat="44.1879979" lon="9.9394212"><ele>92.0</ele><time>2026-04-04T15:57:03.443Z</time></trkpt><trkpt lat="44.1881183" lon="9.9395148"><ele>92.0</ele><time>2026-04-04T15:57:04.439Z</time></trkpt><trkpt lat="44.1882343" lon="9.939612"><ele>92.0</ele><time>2026-04-04T15:57:05.439Z</time></trkpt><trkpt lat="44.188352" lon="9.9397189"><ele>92.0</ele><time>2026-04-04T15:57:06.444Z</time></trkpt><trkpt lat="44.1884669" lon="9.9398493"><ele>88.5</ele><time>2026-04-04T15:57:07.439Z</time></trkpt><trkpt lat="44.1885835" lon="9.9399788"><ele>85.0</ele><time>2026-04-04T15:57:08.434Z</time></trkpt><trkpt lat="44.188697" lon="9.9401131"><ele>81.5</ele><time>2026-04-04T15:57:09.449Z</time></trkpt><trkpt lat="44.1888113" lon="9.9402383"><ele>78.0</ele><time>2026-04-04T15:57:10.444Z</time></trkpt><trkpt lat="44.1889178" lon="9.9403653"><ele>79.25</ele><time>2026-04-04T15:57:11.436Z</time></trkpt><trkpt lat="44.1890243" lon="9.9404894"><ele>80.5</ele><time>2026-04-04T15:57:12.442Z</time></trkpt><trkpt lat="44.1891197" lon="9.9406103"><ele>81.75</ele><time>2026-04-04T15:57:13.452Z</time></trkpt><trkpt lat="44.1892236" lon="9.940729"><ele>83.0</ele><time>2026-04-04T15:57:14.435Z</time></trkpt><trkpt lat="44.1893407" lon="9.9408539"><ele>93.5</ele><time>2026-04-04T15:57:15.453Z</time></trkpt><trkpt lat="44.1894554" lon="9.9409794"><ele>104.0</ele><time>2026-04-04T15:57:16.443Z</time></trkpt><trkpt lat="44.1895688" lon="9.9410989"><ele>114.5</ele><time>2026-04-04T15:57:17.444Z</time></trkpt><trkpt lat="44.1896876" lon="9.9411972"><ele>125.0</ele><time>2026-04-04T15:57:18.443Z</time></trkpt><trkpt lat="44.1898222" lon="9.9412813"><ele>114.25</ele><time>2026-04-04T15:57:19.431Z</time></trkpt><trkpt lat="44.1899623" lon="9.9413443"><ele>103.5</ele><time>2026-04-04T15:57:20.443Z</time></trkpt><trkpt lat="44.1901017" lon="9.9414143"><ele>92.75</ele><time>2026-04-04T15:57:21.441Z</time></trkpt><trkpt lat="44.1902502" lon="9.9414669"><ele>82.0</ele><time>2026-04-04T15:57:22.434Z</time></trkpt><trkpt lat="44.1903999" lon="9.9415318"><ele>82.0</ele><time>2026-04-04T15:57:23.438Z</time></trkpt><trkpt lat="44.1905332" lon="9.9416106"><ele>82.0</ele><time>2026-04-04T15:57:24.435Z</time></trkpt><trkpt lat="44.1906645" lon="9.9416882"><ele>82.0</ele><time>2026-04-04T15:57:25.426Z</time></trkpt><trkpt lat="44.1908031" lon="9.9417626"><ele>82.0</ele><time>2026-04-04T15:57:26.434Z</time></trkpt><trkpt lat="44.1909417" lon="9.9418416"><ele>91.66666666666666</ele><time>2026-04-04T15:57:27.426Z</time></trkpt><trkpt lat="44.1910805" lon="9.9419262"><ele>101.33333333333333</ele><time>2026-04-04T15:57:28.426Z</time></trkpt><trkpt lat="44.1912242" lon="9.9419869"><ele>111.0</ele><time>2026-04-04T15:57:29.426Z</time></trkpt><trkpt lat="44.1913747" lon="9.9420459"><ele>103.66666666666667</ele><time>2026-04-04T15:57:30.433Z</time></trkpt><trkpt lat="44.1915375" lon="9.9420866"><ele>96.33333333333334</ele><time>2026-04-04T15:57:31.434Z</time></trkpt><trkpt lat="44.1916969" lon="9.9421134"><ele>89.0</ele><time>2026-04-04T15:57:32.437Z</time></trkpt><trkpt lat="44.1918485" lon="9.9421294"><ele>89.0</ele><time>2026-04-04T15:57:33.441Z</time></trkpt><trkpt lat="44.1920098" lon="9.9421138"><ele>89.0</ele><time>2026-04-04T15:57:34.444Z</time></trkpt><trkpt lat="44.1921717" lon="9.9421056"><ele>89.0</ele><time>2026-04-04T15:57:35.445Z</time></trkpt><trkpt lat="44.1923331" lon="9.9420991"><ele>84.33333333333334</ele><time>2026-04-04T15:57:36.452Z</time></trkpt><trkpt lat="44.1924924" lon="9.9421227"><ele>79.66666666666667</ele><time>2026-04-04T15:57:37.445Z</time></trkpt><trkpt lat="44.1926598" lon="9.9421867"><ele>75.0</ele><time>2026-04-04T15:57:38.461Z</time></trkpt><trkpt lat="44.1928202" lon="9.9422761"><ele>75.0</ele><time>2026-04-04T15:57:39.447Z</time></trkpt><trkpt lat="44.1929764" lon="9.9423862"><ele>75.0</ele><time>2026-04-04T15:57:40.45Z</time></trkpt><trkpt lat="44.1931329" lon="9.9425117"><ele>75.0</ele><time>2026-04-04T15:57:41.438Z</time></trkpt><trkpt lat="44.1932943" lon="9.9426328"><ele>80.33333333333333</ele><time>2026-04-04T15:57:42.432Z</time></trkpt><trkpt lat="44.1934608" lon="9.9427463"><ele>85.66666666666666</ele><time>2026-04-04T15:57:43.438Z</time></trkpt><trkpt lat="44.193627" lon="9.9428797"><ele>91.0</ele><time>2026-04-04T15:57:44.442Z</time></trkpt><trkpt lat="44.1937803" lon="9.9429972"><ele>91.0</ele><time>2026-04-04T15:57:45.431Z</time></trkpt><trkpt lat="44.1939358" lon="9.9431112"><ele>91.0</ele><time>2026-04-04T15:57:46.44Z</time></trkpt><trkpt lat="44.1940721" lon="9.9432404"><ele>91.0</ele><time>2026-04-04T15:57:47.443Z</time></trkpt><trkpt lat="44.1942017" lon="9.9433465"><ele>91.75</ele><time>2026-04-04T15:57:48.449Z</time></trkpt><trkpt lat="44.1943339" lon="9.9434593"><ele>92.5</ele><time>2026-04-04T15:57:49.454Z</time></trkpt><trkpt lat="44.1944616" lon="9.9435663"><ele>93.25</ele><time>2026-04-04T15:57:50.452Z</time></trkpt><trkpt lat="44.1945825" lon="9.9436715"><ele>94.0</ele><time>2026-04-04T15:57:51.443Z</time></trkpt><trkpt lat="44.1946899" lon="9.9437814"><ele>94.0</ele><time>2026-04-04T15:57:52.458Z</time></trkpt><trkpt lat="44.1947872" lon="9.9439107"><ele>94.0</ele><time>2026-04-04T15:57:53.462Z</time></trkpt><trkpt lat="44.1948664" lon="9.944068"><ele>94.0</ele><time>2026-04-04T15:57:54.452Z</time></trkpt><trkpt lat="44.1948921" lon="9.9442505"><ele>94.0</ele><time>2026-04-04T15:57:55.449Z</time></trkpt><trkpt lat="44.1948767" lon="9.94443"><ele>93.5</ele><time>2026-04-04T15:57:56.456Z</time></trkpt><trkpt lat="44.1948283" lon="9.9446212"><ele>93.0</ele><time>2026-04-04T15:57:57.442Z</time></trkpt><trkpt lat="44.1947608" lon="9.9448023"><ele>92.5</ele><time>2026-04-04T15:57:58.444Z</time></trkpt><trkpt lat="44.194678" lon="9.9449781"><ele>92.0</ele><time>2026-04-04T15:57:59.452Z</time></trkpt><trkpt lat="44.1946093" lon="9.9451672"><ele>92.0</ele><time>2026-04-04T15:58:00.448Z</time></trkpt><trkpt lat="44.1945273" lon="9.9453642"><ele>92.0</ele><time>2026-04-04T15:58:01.45Z</time></trkpt><trkpt lat="44.1944619" lon="9.9455826"><ele>92.0</ele><time>2026-04-04T15:58:02.451Z</time></trkpt><trkpt lat="44.1943915" lon="9.9457997"><ele>91.25</ele><time>2026-04-04T15:58:03.442Z</time></trkpt><trkpt lat="44.1943307" lon="9.9460022"><ele>90.5</ele><time>2026-04-04T15:58:04.445Z</time></trkpt><trkpt lat="44.1943057" lon="9.9461892"><ele>89.75</ele><time>2026-04-04T15:58:05.441Z</time></trkpt><trkpt lat="44.1942786" lon="9.9463674"><ele>89.0</ele><time>2026-04-04T15:58:06.433Z</time></trkpt><trkpt lat="44.1942556" lon="9.946522"><ele>89.0</ele><time>2026-04-04T15:58:07.437Z</time></trkpt><trkpt lat="44.1942408" lon="9.9466674"><ele>89.0</ele><time>2026-04-04T15:58:08.432Z</time></trkpt><trkpt lat="44.1942415" lon="9.9468209"><ele>89.0</ele><time>2026-04-04T15:58:09.454Z</time></trkpt><trkpt lat="44.1942305" lon="9.9469734"><ele>89.0</ele><time>2026-04-04T15:58:10.435Z</time></trkpt><trkpt lat="44.1942352" lon="9.9471364"><ele>89.0</ele><time>2026-04-04T15:58:11.453Z</time></trkpt><trkpt lat="44.1942426" lon="9.9472968"><ele>88.2</ele><time>2026-04-04T15:58:12.452Z</time></trkpt><trkpt lat="44.1942501" lon="9.9474528"><ele>87.4</ele><time>2026-04-04T15:58:13.444Z</time></trkpt><trkpt lat="44.1942684" lon="9.9476075"><ele>86.6</ele><time>2026-04-04T15:58:14.448Z</time></trkpt><trkpt lat="44.1942916" lon="9.9477551"><ele>85.8</ele><time>2026-04-04T15:58:15.438Z</time></trkpt><trkpt lat="44.194327" lon="9.9478976"><ele>85.0</ele><time>2026-04-04T15:58:16.452Z</time></trkpt><trkpt lat="44.1943691" lon="9.9480316"><ele>87.0</ele><time>2026-04-04T15:58:17.454Z</time></trkpt><trkpt lat="44.1944151" lon="9.9481639"><ele>89.0</ele><time>2026-04-04T15:58:18.456Z</time></trkpt><trkpt lat="44.1944666" lon="9.9483023"><ele>91.0</ele><time>2026-04-04T15:58:19.459Z</time></trkpt><trkpt lat="44.1945253" lon="9.9484442"><ele>93.0</ele><time>2026-04-04T15:58:20.46Z</time></trkpt><trkpt lat="44.1945904" lon="9.948596"><ele>98.25</ele><time>2026-04-04T15:58:21.459Z</time></trkpt><trkpt lat="44.194651" lon="9.9487478"><ele>103.5</ele><time>2026-04-04T15:58:22.455Z</time></trkpt><trkpt lat="44.1947087" lon="9.9489063"><ele>108.75</ele><time>2026-04-04T15:58:23.461Z</time></trkpt><trkpt lat="44.1947649" lon="9.9490658"><ele>114.0</ele><time>2026-04-04T15:58:24.459Z</time></trkpt><trkpt lat="44.1948178" lon="9.9492286"><ele>105.0</ele><time>2026-04-04T15:58:25.463Z</time></trkpt><trkpt lat="44.1948662" lon="9.9493895"><ele>96.0</ele><time>2026-04-04T15:58:26.455Z</time></trkpt><trkpt lat="44.1949101" lon="9.949558"><ele>87.0</ele><time>2026-04-04T15:58:27.462Z</time></trkpt><trkpt lat="44.1949564" lon="9.9497277"><ele>78.0</ele><time>2026-04-04T15:58:28.463Z</time></trkpt><trkpt lat="44.1950016" lon="9.9499005"><ele>78.75</ele><time>2026-04-04T15:58:29.465Z</time></trkpt><trkpt lat="44.1950461" lon="9.9500736"><ele>79.5</ele><time>2026-04-04T15:58:30.455Z</time></trkpt><trkpt lat="44.1950941" lon="9.9502447"><ele>80.25</ele><time>2026-04-04T15:58:31.462Z</time></trkpt><trkpt lat="44.1951437" lon="9.9504145"><ele>81.0</ele><time>2026-04-04T15:58:32.453Z</time></trkpt><trkpt lat="44.1951896" lon="9.9505803"><ele>81.0</ele><time>2026-04-04T15:58:33.457Z</time></trkpt><trkpt lat="44.1952345" lon="9.9507387"><ele>81.0</ele><time>2026-04-04T15:58:34.462Z</time></trkpt><trkpt lat="44.1952734" lon="9.9508966"><ele>81.0</ele><time>2026-04-04T15:58:35.459Z</time></trkpt><trkpt lat="44.1953128" lon="9.9510487"><ele>81.0</ele><time>2026-04-04T15:58:36.454Z</time></trkpt><trkpt lat="44.1953577" lon="9.9511901"><ele>80.6</ele><time>2026-04-04T15:58:37.45Z</time></trkpt><trkpt lat="44.1954117" lon="9.9513185"><ele>80.19999999999999</ele><time>2026-04-04T15:58:38.45Z</time></trkpt><trkpt lat="44.1954776" lon="9.9514293"><ele>79.80000000000001</ele><time>2026-04-04T15:58:39.449Z</time></trkpt><trkpt lat="44.1955617" lon="9.9515169"><ele>79.4</ele><time>2026-04-04T15:58:40.465Z</time></trkpt><trkpt lat="44.1956518" lon="9.9515986"><ele>79.0</ele><time>2026-04-04T15:58:41.459Z</time></trkpt><trkpt lat="44.195736" lon="9.9516812"><ele>77.2</ele><time>2026-04-04T15:58:42.469Z</time></trkpt><trkpt lat="44.1958167" lon="9.9517623"><ele>75.4</ele><time>2026-04-04T15:58:43.463Z</time></trkpt><trkpt lat="44.1958989" lon="9.9518448"><ele>73.6</ele><time>2026-04-04T15:58:44.465Z</time></trkpt><trkpt lat="44.1959838" lon="9.9519324"><ele>71.8</ele><time>2026-04-04T15:58:45.469Z</time></trkpt><trkpt lat="44.196074" lon="9.9520184"><ele>70.0</ele><time>2026-04-04T15:58:46.46Z</time></trkpt><trkpt lat="44.1961684" lon="9.9521036"><ele>70.0</ele><time>2026-04-04T15:58:47.462Z</time></trkpt><trkpt lat="44.1962646" lon="9.9521856"><ele>70.0</ele><time>2026-04-04T15:58:48.456Z</time></trkpt><trkpt lat="44.1963648" lon="9.9522554"><ele>70.0</ele><time>2026-04-04T15:58:49.458Z</time></trkpt><trkpt lat="44.1964681" lon="9.9522937"><ele>70.0</ele><time>2026-04-04T15:58:50.461Z</time></trkpt><trkpt lat="44.1965729" lon="9.9522861"><ele>70.0</ele><time>2026-04-04T15:58:51.476Z</time></trkpt><trkpt lat="44.1966809" lon="9.9522343"><ele>70.4</ele><time>2026-04-04T15:58:52.459Z</time></trkpt><trkpt lat="44.1967835" lon="9.9521717"><ele>70.8</ele><time>2026-04-04T15:58:53.45Z</time></trkpt><trkpt lat="44.1968824" lon="9.9521122"><ele>71.2</ele><time>2026-04-04T15:58:54.463Z</time></trkpt><trkpt lat="44.1969807" lon="9.9520622"><ele>71.6</ele><time>2026-04-04T15:58:55.448Z</time></trkpt><trkpt lat="44.1970807" lon="9.9520219"><ele>72.0</ele><time>2026-04-04T15:58:56.457Z</time></trkpt><trkpt lat="44.1971832" lon="9.9520044"><ele>72.0</ele><time>2026-04-04T15:58:57.458Z</time></trkpt><trkpt lat="44.1972879" lon="9.9519902"><ele>72.0</ele><time>2026-04-04T15:58:58.465Z</time></trkpt><trkpt lat="44.1973936" lon="9.9519769"><ele>72.0</ele><time>2026-04-04T15:58:59.454Z</time></trkpt><trkpt lat="44.1975003" lon="9.9519714"><ele>72.0</ele><time>2026-04-04T15:59:00.461Z</time></trkpt><trkpt lat="44.1976071" lon="9.9519721"><ele>72.0</ele><time>2026-04-04T15:59:01.445Z</time></trkpt><trkpt lat="44.1977101" lon="9.9519795"><ele>72.4</ele><time>2026-04-04T15:59:02.446Z</time></trkpt><trkpt lat="44.1978129" lon="9.95202"><ele>72.80000000000001</ele><time>2026-04-04T15:59:03.441Z</time></trkpt><trkpt lat="44.1979164" lon="9.9520705"><ele>73.2</ele><time>2026-04-04T15:59:04.456Z</time></trkpt><trkpt lat="44.1980175" lon="9.9521274"><ele>73.60000000000001</ele><time>2026-04-04T15:59:05.447Z</time></trkpt><trkpt lat="44.1981167" lon="9.9521747"><ele>74.0</ele><time>2026-04-04T15:59:06.451Z</time></trkpt><trkpt lat="44.1982193" lon="9.9522171"><ele>72.2</ele><time>2026-04-04T15:59:07.455Z</time></trkpt><trkpt lat="44.1983221" lon="9.9522615"><ele>70.4</ele><time>2026-04-04T15:59:08.458Z</time></trkpt><trkpt lat="44.1984239" lon="9.952306"><ele>68.6</ele><time>2026-04-04T15:59:09.449Z</time></trkpt><trkpt lat="44.1985206" lon="9.9523558"><ele>66.8</ele><time>2026-04-04T15:59:10.451Z</time></trkpt><trkpt lat="44.1986103" lon="9.9524191"><ele>65.0</ele><time>2026-04-04T15:59:11.455Z</time></trkpt><trkpt lat="44.198695" lon="9.9525029"><ele>69.5</ele><time>2026-04-04T15:59:12.451Z</time></trkpt><trkpt lat="44.1987709" lon="9.9526055"><ele>74.0</ele><time>2026-04-04T15:59:13.441Z</time></trkpt><trkpt lat="44.1988363" lon="9.9527348"><ele>78.5</ele><time>2026-04-04T15:59:14.453Z</time></trkpt><trkpt lat="44.1988856" lon="9.952883"><ele>83.0</ele><time>2026-04-04T15:59:15.452Z</time></trkpt><trkpt lat="44.1989163" lon="9.9530397"><ele>83.0</ele><time>2026-04-04T15:59:16.446Z</time></trkpt><trkpt lat="44.1989434" lon="9.953212"><ele>83.0</ele><time>2026-04-04T15:59:17.449Z</time></trkpt><trkpt lat="44.1989682" lon="9.9533879"><ele>83.0</ele><time>2026-04-04T15:59:18.445Z</time></trkpt><trkpt lat="44.1989938" lon="9.9535664"><ele>83.0</ele><time>2026-04-04T15:59:19.448Z</time></trkpt><trkpt lat="44.1990156" lon="9.9537561"><ele>79.5</ele><time>2026-04-04T15:59:20.449Z</time></trkpt><trkpt lat="44.1990365" lon="9.9539502"><ele>76.0</ele><time>2026-04-04T15:59:21.453Z</time></trkpt><trkpt lat="44.199071" lon="9.9541476"><ele>72.5</ele><time>2026-04-04T15:59:22.469Z</time></trkpt><trkpt lat="44.1991249" lon="9.9543418"><ele>69.0</ele><time>2026-04-04T15:59:23.457Z</time></trkpt><trkpt lat="44.1992063" lon="9.9545271"><ele>69.0</ele><time>2026-04-04T15:59:24.452Z</time></trkpt><trkpt lat="44.1992992" lon="9.9546974"><ele>69.0</ele><time>2026-04-04T15:59:25.455Z</time></trkpt><trkpt lat="44.19938" lon="9.9548571"><ele>69.0</ele><time>2026-04-04T15:59:26.455Z</time></trkpt><trkpt lat="44.1994585" lon="9.9549992"><ele>69.0</ele><time>2026-04-04T15:59:27.462Z</time></trkpt><trkpt lat="44.1995247" lon="9.9551471"><ele>71.0</ele><time>2026-04-04T15:59:28.459Z</time></trkpt><trkpt lat="44.1995832" lon="9.9553049"><ele>73.0</ele><time>2026-04-04T15:59:29.453Z</time></trkpt><trkpt lat="44.1996226" lon="9.9554879"><ele>75.0</ele><time>2026-04-04T15:59:30.455Z</time></trkpt><trkpt lat="44.1996199" lon="9.9556719"><ele>77.0</ele><time>2026-04-04T15:59:31.453Z</time></trkpt><trkpt lat="44.1996" lon="9.9558644"><ele>77.0</ele><time>2026-04-04T15:59:32.444Z</time></trkpt><trkpt lat="44.1995558" lon="9.9560569"><ele>77.0</ele><time>2026-04-04T15:59:33.444Z</time></trkpt><trkpt lat="44.1995157" lon="9.956233"><ele>77.0</ele><time>2026-04-04T15:59:34.451Z</time></trkpt><trkpt lat="44.1994706" lon="9.9564049"><ele>77.0</ele><time>2026-04-04T15:59:35.453Z</time></trkpt><trkpt lat="44.1994295" lon="9.956568"><ele>76.5</ele><time>2026-04-04T15:59:36.446Z</time></trkpt><trkpt lat="44.1993964" lon="9.9567257"><ele>76.0</ele><time>2026-04-04T15:59:37.453Z</time></trkpt><trkpt lat="44.1993724" lon="9.9568824"><ele>75.5</ele><time>2026-04-04T15:59:38.448Z</time></trkpt><trkpt lat="44.1993641" lon="9.9570398"><ele>75.0</ele><time>2026-04-04T15:59:39.451Z</time></trkpt><trkpt lat="44.1993617" lon="9.9571929"><ele>75.0</ele><time>2026-04-04T15:59:40.447Z</time></trkpt><trkpt lat="44.1993655" lon="9.9573501"><ele>75.0</ele><time>2026-04-04T15:59:41.457Z</time></trkpt><trkpt lat="44.1993758" lon="9.9574963"><ele>75.0</ele><time>2026-04-04T15:59:42.464Z</time></trkpt><trkpt lat="44.1993864" lon="9.957636"><ele>75.0</ele><time>2026-04-04T15:59:43.455Z</time></trkpt><trkpt lat="44.1993991" lon="9.9577688"><ele>75.0</ele><time>2026-04-04T15:59:44.465Z</time></trkpt><trkpt lat="44.1994081" lon="9.9578931"><ele>76.0</ele><time>2026-04-04T15:59:45.459Z</time></trkpt><trkpt lat="44.1994135" lon="9.9580168"><ele>77.0</ele><time>2026-04-04T15:59:46.457Z</time></trkpt><trkpt lat="44.1994189" lon="9.9581485"><ele>78.0</ele><time>2026-04-04T15:59:47.463Z</time></trkpt><trkpt lat="44.1994273" lon="9.9582855"><ele>79.0</ele><time>2026-04-04T15:59:48.456Z</time></trkpt><trkpt lat="44.1994387" lon="9.9584329"><ele>80.0</ele><time>2026-04-04T15:59:49.45Z</time></trkpt><trkpt lat="44.1994418" lon="9.9585892"><ele>81.5</ele><time>2026-04-04T15:59:50.457Z</time></trkpt><trkpt lat="44.1994496" lon="9.9587528"><ele>83.0</ele><time>2026-04-04T15:59:51.459Z</time></trkpt><trkpt lat="44.1994594" lon="9.9589185"><ele>84.5</ele><time>2026-04-04T15:59:52.446Z</time></trkpt><trkpt lat="44.1994801" lon="9.9590817"><ele>86.0</ele><time>2026-04-04T15:59:53.454Z</time></trkpt><trkpt lat="44.1995148" lon="9.9592393"><ele>90.0</ele><time>2026-04-04T15:59:54.446Z</time></trkpt><trkpt lat="44.1995529" lon="9.9594"><ele>94.0</ele><time>2026-04-04T15:59:55.454Z</time></trkpt><trkpt lat="44.1995925" lon="9.9595646"><ele>98.0</ele><time>2026-04-04T15:59:56.454Z</time></trkpt><trkpt lat="44.1996277" lon="9.9597246"><ele>102.0</ele><time>2026-04-04T15:59:57.443Z</time></trkpt><trkpt lat="44.199667" lon="9.9598845"><ele>106.39999999999999</ele><time>2026-04-04T15:59:58.451Z</time></trkpt><trkpt lat="44.1997085" lon="9.9600339"><ele>110.8</ele><time>2026-04-04T15:59:59.452Z</time></trkpt><trkpt lat="44.1997506" lon="9.9601742"><ele>115.2</ele><time>2026-04-04T16:00:00.45Z</time></trkpt><trkpt lat="44.1998111" lon="9.960307"><ele>119.6</ele><time>2026-04-04T16:00:01.45Z</time></trkpt><trkpt lat="44.1998737" lon="9.9604317"><ele>124.0</ele><time>2026-04-04T16:00:02.452Z</time></trkpt><trkpt lat="44.1999329" lon="9.9605518"><ele>118.0</ele><time>2026-04-04T16:00:03.449Z</time></trkpt><trkpt lat="44.1999951" lon="9.9606699"><ele>112.0</ele><time>2026-04-04T16:00:04.449Z</time></trkpt><trkpt lat="44.2000617" lon="9.9607849"><ele>106.0</ele><time>2026-04-04T16:00:05.453Z</time></trkpt><trkpt lat="44.2001268" lon="9.9608977"><ele>100.0</ele><time>2026-04-04T16:00:06.454Z</time></trkpt><trkpt lat="44.2001939" lon="9.9610177"><ele>94.0</ele><time>2026-04-04T16:00:07.452Z</time></trkpt><trkpt lat="44.2002597" lon="9.9611465"><ele>94.0</ele><time>2026-04-04T16:00:08.452Z</time></trkpt><trkpt lat="44.2003144" lon="9.9612774"><ele>94.0</ele><time>2026-04-04T16:00:09.449Z</time></trkpt><trkpt lat="44.2003646" lon="9.9614049"><ele>94.0</ele><time>2026-04-04T16:00:10.45Z</time></trkpt><trkpt lat="44.2004194" lon="9.9615343"><ele>94.0</ele><time>2026-04-04T16:00:11.451Z</time></trkpt><trkpt lat="44.2004741" lon="9.9616661"><ele>94.0</ele><time>2026-04-04T16:00:12.451Z</time></trkpt><trkpt lat="44.2005351" lon="9.9618009"><ele>99.0</ele><time>2026-04-04T16:00:13.46Z</time></trkpt><trkpt lat="44.200603" lon="9.9619271"><ele>104.0</ele><time>2026-04-04T16:00:14.455Z</time></trkpt><trkpt lat="44.2006807" lon="9.9620446"><ele>109.0</ele><time>2026-04-04T16:00:15.458Z</time></trkpt><trkpt lat="44.2007615" lon="9.9621616"><ele>114.0</ele><time>2026-04-04T16:00:16.45Z</time></trkpt><trkpt lat="44.2008417" lon="9.9622857"><ele>106.75</ele><time>2026-04-04T16:00:17.457Z</time></trkpt><trkpt lat="44.2009259" lon="9.9624064"><ele>99.5</ele><time>2026-04-04T16:00:18.461Z</time></trkpt><trkpt lat="44.2010137" lon="9.9625283"><ele>92.25</ele><time>2026-04-04T16:00:19.457Z</time></trkpt><trkpt lat="44.2011057" lon="9.9626435"><ele>85.0</ele><time>2026-04-04T16:00:20.454Z</time></trkpt><trkpt lat="44.201202" lon="9.9627538"><ele>85.0</ele><time>2026-04-04T16:00:21.445Z</time></trkpt><trkpt lat="44.2013062" lon="9.962859"><ele>85.0</ele><time>2026-04-04T16:00:22.447Z</time></trkpt><trkpt lat="44.2014062" lon="9.9629684"><ele>85.0</ele><time>2026-04-04T16:00:23.454Z</time></trkpt><trkpt lat="44.2015048" lon="9.9630598"><ele>85.0</ele><time>2026-04-04T16:00:24.449Z</time></trkpt><trkpt lat="44.2016035" lon="9.9631485"><ele>83.5</ele><time>2026-04-04T16:00:25.449Z</time></trkpt><trkpt lat="44.201691" lon="9.9632492"><ele>82.0</ele><time>2026-04-04T16:00:26.458Z</time></trkpt><trkpt lat="44.2017727" lon="9.9633654"><ele>80.5</ele><time>2026-04-04T16:00:27.452Z</time></trkpt><trkpt lat="44.2018424" lon="9.9634925"><ele>79.0</ele><time>2026-04-04T16:00:28.463Z</time></trkpt><trkpt lat="44.2019125" lon="9.9636259"><ele>79.0</ele><time>2026-04-04T16:00:29.453Z</time></trkpt><trkpt lat="44.2019947" lon="9.963747"><ele>79.0</ele><time>2026-04-04T16:00:30.457Z</time></trkpt><trkpt lat="44.2020888" lon="9.96384"><ele>79.0</ele><time>2026-04-04T16:00:31.454Z</time></trkpt><trkpt lat="44.2022007" lon="9.9639138"><ele>79.0</ele><time>2026-04-04T16:00:32.459Z</time></trkpt><trkpt lat="44.2023185" lon="9.9640024"><ele>78.0</ele><time>2026-04-04T16:00:33.465Z</time></trkpt><trkpt lat="44.2024388" lon="9.9641046"><ele>77.0</ele><time>2026-04-04T16:00:34.458Z</time></trkpt><trkpt lat="44.2025448" lon="9.9642111"><ele>76.0</ele><time>2026-04-04T16:00:35.463Z</time></trkpt><trkpt lat="44.2026475" lon="9.9643033"><ele>75.0</ele><time>2026-04-04T16:00:36.467Z</time></trkpt><trkpt lat="44.202749" lon="9.9643893"><ele>75.0</ele><time>2026-04-04T16:00:37.47Z</time></trkpt><trkpt lat="44.2028409" lon="9.9644743"><ele>75.0</ele><time>2026-04-04T16:00:38.475Z</time></trkpt><trkpt lat="44.2029298" lon="9.9645583"><ele>75.0</ele><time>2026-04-04T16:00:39.47Z</time></trkpt><trkpt lat="44.2030157" lon="9.9646431"><ele>75.0</ele><time>2026-04-04T16:00:40.463Z</time></trkpt><trkpt lat="44.2030944" lon="9.964738"><ele>75.0</ele><time>2026-04-04T16:00:41.457Z</time></trkpt><trkpt lat="44.2031672" lon="9.964855"><ele>73.0</ele><time>2026-04-04T16:00:42.463Z</time></trkpt><trkpt lat="44.2032243" lon="9.9650069"><ele>71.0</ele><time>2026-04-04T16:00:43.459Z</time></trkpt><trkpt lat="44.2032719" lon="9.9651664"><ele>69.0</ele><time>2026-04-04T16:00:44.462Z</time></trkpt><trkpt lat="44.2033175" lon="9.9653209"><ele>67.0</ele><time>2026-04-04T16:00:45.45Z</time></trkpt><trkpt lat="44.2033673" lon="9.9654665"><ele>67.0</ele><time>2026-04-04T16:00:46.459Z</time></trkpt><trkpt lat="44.2034169" lon="9.9656008"><ele>67.0</ele><time>2026-04-04T16:00:47.461Z</time></trkpt><trkpt lat="44.2034661" lon="9.9657242"><ele>67.0</ele><time>2026-04-04T16:00:48.454Z</time></trkpt><trkpt lat="44.2035208" lon="9.9658375"><ele>67.0</ele><time>2026-04-04T16:00:49.461Z</time></trkpt><trkpt lat="44.2035725" lon="9.9659468"><ele>67.0</ele><time>2026-04-04T16:00:50.46Z</time></trkpt><trkpt lat="44.2036281" lon="9.9660456"><ele>66.6</ele><time>2026-04-04T16:00:51.468Z</time></trkpt><trkpt lat="44.2036871" lon="9.9661387"><ele>66.2</ele><time>2026-04-04T16:00:52.457Z</time></trkpt><trkpt lat="44.2037471" lon="9.9662313"><ele>65.8</ele><time>2026-04-04T16:00:53.461Z</time></trkpt><trkpt lat="44.2038066" lon="9.9663322"><ele>65.4</ele><time>2026-04-04T16:00:54.465Z</time></trkpt><trkpt lat="44.2038615" lon="9.9664318"><ele>65.0</ele><time>2026-04-04T16:00:55.466Z</time></trkpt><trkpt lat="44.2039012" lon="9.966547"><ele>65.0</ele><time>2026-04-04T16:00:56.46Z</time></trkpt><trkpt lat="44.2039255" lon="9.966674"><ele>65.0</ele><time>2026-04-04T16:00:57.468Z</time></trkpt><trkpt lat="44.203939" lon="9.9668017"><ele>65.0</ele><time>2026-04-04T16:00:58.47Z</time></trkpt><trkpt lat="44.2039567" lon="9.9669208"><ele>65.0</ele><time>2026-04-04T16:00:59.48Z</time></trkpt><trkpt lat="44.2039815" lon="9.967027"><ele>65.0</ele><time>2026-04-04T16:01:00.469Z</time></trkpt><trkpt lat="44.2040092" lon="9.9671392"><ele>65.0</ele><time>2026-04-04T16:01:01.454Z</time></trkpt><trkpt lat="44.2040509" lon="9.967242"><ele>64.4</ele><time>2026-04-04T16:01:02.465Z</time></trkpt><trkpt lat="44.2040999" lon="9.9673529"><ele>63.8</ele><time>2026-04-04T16:01:03.464Z</time></trkpt><trkpt lat="44.204155" lon="9.9674581"><ele>63.2</ele><time>2026-04-04T16:01:04.466Z</time></trkpt><trkpt lat="44.2042135" lon="9.9675704"><ele>62.6</ele><time>2026-04-04T16:01:05.462Z</time></trkpt><trkpt lat="44.2042696" lon="9.9676818"><ele>62.0</ele><time>2026-04-04T16:01:06.463Z</time></trkpt><trkpt lat="44.2043241" lon="9.9677906"><ele>62.0</ele><time>2026-04-04T16:01:07.468Z</time></trkpt><trkpt lat="44.2043745" lon="9.9679009"><ele>62.0</ele><time>2026-04-04T16:01:08.479Z</time></trkpt><trkpt lat="44.2044295" lon="9.9679967"><ele>62.0</ele><time>2026-04-04T16:01:09.469Z</time></trkpt><trkpt lat="44.204486" lon="9.9680999"><ele>62.0</ele><time>2026-04-04T16:01:10.46Z</time></trkpt><trkpt lat="44.2045531" lon="9.9682079"><ele>62.0</ele><time>2026-04-04T16:01:11.469Z</time></trkpt><trkpt lat="44.2046221" lon="9.9683241"><ele>62.2</ele><time>2026-04-04T16:01:12.463Z</time></trkpt><trkpt lat="44.2046895" lon="9.9684385"><ele>62.400000000000006</ele><time>2026-04-04T16:01:13.466Z</time></trkpt><trkpt lat="44.2047503" lon="9.9685505"><ele>62.599999999999994</ele><time>2026-04-04T16:01:14.466Z</time></trkpt><trkpt lat="44.2048118" lon="9.9686616"><ele>62.8</ele><time>2026-04-04T16:01:15.473Z</time></trkpt><trkpt lat="44.2048757" lon="9.9687716"><ele>63.0</ele><time>2026-04-04T16:01:16.466Z</time></trkpt><trkpt lat="44.2049359" lon="9.9688818"><ele>63.2</ele><time>2026-04-04T16:01:17.468Z</time></trkpt><trkpt lat="44.2049966" lon="9.9689947"><ele>63.4</ele><time>2026-04-04T16:01:18.465Z</time></trkpt><trkpt lat="44.2050613" lon="9.9691133"><ele>63.60000000000001</ele><time>2026-04-04T16:01:19.461Z</time></trkpt><trkpt lat="44.2051246" lon="9.9692311"><ele>63.800000000000004</ele><time>2026-04-04T16:01:20.462Z</time></trkpt><trkpt lat="44.2051857" lon="9.9693449"><ele>64.0</ele><time>2026-04-04T16:01:21.46Z</time></trkpt><trkpt lat="44.2052496" lon="9.9694658"><ele>64.0</ele><time>2026-04-04T16:01:22.458Z</time></trkpt><trkpt lat="44.2053137" lon="9.969583"><ele>64.0</ele><time>2026-04-04T16:01:23.456Z</time></trkpt><trkpt lat="44.2053834" lon="9.9697007"><ele>64.0</ele><time>2026-04-04T16:01:24.458Z</time></trkpt><trkpt lat="44.2054535" lon="9.9698156"><ele>64.0</ele><time>2026-04-04T16:01:25.46Z</time></trkpt><trkpt lat="44.2055302" lon="9.9699094"><ele>64.0</ele><time>2026-04-04T16:01:26.468Z</time></trkpt><trkpt lat="44.2056152" lon="9.969987"><ele>65.0</ele><time>2026-04-04T16:01:27.476Z</time></trkpt><trkpt lat="44.2057108" lon="9.9700473"><ele>66.0</ele><time>2026-04-04T16:01:28.452Z</time></trkpt><trkpt lat="44.2058166" lon="9.9700979"><ele>67.0</ele><time>2026-04-04T16:01:29.466Z</time></trkpt><trkpt lat="44.2059216" lon="9.970129"><ele>68.0</ele><time>2026-04-04T16:01:30.455Z</time></trkpt><trkpt lat="44.2060272" lon="9.9701465"><ele>69.0</ele><time>2026-04-04T16:01:31.461Z</time></trkpt><trkpt lat="44.2061351" lon="9.9701652"><ele>69.0</ele><time>2026-04-04T16:01:32.462Z</time></trkpt><trkpt lat="44.2062429" lon="9.9701879"><ele>69.0</ele><time>2026-04-04T16:01:33.458Z</time></trkpt><trkpt lat="44.2063447" lon="9.9702059"><ele>69.0</ele><time>2026-04-04T16:01:34.459Z</time></trkpt><trkpt lat="44.206438" lon="9.970219"><ele>69.0</ele><time>2026-04-04T16:01:35.458Z</time></trkpt><trkpt lat="44.2065264" lon="9.9702305"><ele>69.0</ele><time>2026-04-04T16:01:36.453Z</time></trkpt><trkpt lat="44.2066123" lon="9.9702416"><ele>65.8</ele><time>2026-04-04T16:01:37.462Z</time></trkpt><trkpt lat="44.2067011" lon="9.97025"><ele>62.60000000000001</ele><time>2026-04-04T16:01:38.46Z</time></trkpt><trkpt lat="44.2067908" lon="9.970262"><ele>59.4</ele><time>2026-04-04T16:01:39.467Z</time></trkpt><trkpt lat="44.2068818" lon="9.9702723"><ele>56.2</ele><time>2026-04-04T16:01:40.455Z</time></trkpt><trkpt lat="44.2069756" lon="9.970284"><ele>53.0</ele><time>2026-04-04T16:01:41.463Z</time></trkpt><trkpt lat="44.2070659" lon="9.9702993"><ele>53.0</ele><time>2026-04-04T16:01:42.461Z</time></trkpt><trkpt lat="44.2071554" lon="9.9703166"><ele>53.0</ele><time>2026-04-04T16:01:43.457Z</time></trkpt><trkpt lat="44.207246" lon="9.9703301"><ele>53.0</ele><time>2026-04-04T16:01:44.464Z</time></trkpt><trkpt lat="44.2073349" lon="9.9703467"><ele>53.0</ele><time>2026-04-04T16:01:45.454Z</time></trkpt><trkpt lat="44.2074229" lon="9.9703632"><ele>53.0</ele><time>2026-04-04T16:01:46.468Z</time></trkpt><trkpt lat="44.2075118" lon="9.9703805"><ele>54.00000000000001</ele><time>2026-04-04T16:01:47.459Z</time></trkpt><trkpt lat="44.2076027" lon="9.9703987"><ele>55.0</ele><time>2026-04-04T16:01:48.467Z</time></trkpt><trkpt lat="44.2076884" lon="9.9704139"><ele>56.0</ele><time>2026-04-04T16:01:49.459Z</time></trkpt><trkpt lat="44.2077699" lon="9.9704282"><ele>57.0</ele><time>2026-04-04T16:01:50.459Z</time></trkpt><trkpt lat="44.2078485" lon="9.9704396"><ele>58.00000000000001</ele><time>2026-04-04T16:01:51.461Z</time></trkpt><trkpt lat="44.2079307" lon="9.9704509"><ele>59.0</ele><time>2026-04-04T16:01:52.458Z</time></trkpt><trkpt lat="44.2080157" lon="9.9704574"><ele>59.0</ele><time>2026-04-04T16:01:53.451Z</time></trkpt><trkpt lat="44.2081035" lon="9.9704551"><ele>59.00000000000001</ele><time>2026-04-04T16:01:54.451Z</time></trkpt><trkpt lat="44.2081942" lon="9.970437"><ele>59.00000000000001</ele><time>2026-04-04T16:01:55.448Z</time></trkpt><trkpt lat="44.2082878" lon="9.9703985"><ele>59.0</ele><time>2026-04-04T16:01:56.45Z</time></trkpt><trkpt lat="44.2083762" lon="9.9703447"><ele>59.0</ele><time>2026-04-04T16:01:57.454Z</time></trkpt><trkpt lat="44.2084552" lon="9.9702655"><ele>59.66666666666667</ele><time>2026-04-04T16:01:58.448Z</time></trkpt><trkpt lat="44.2085289" lon="9.9701815"><ele>60.333333333333336</ele><time>2026-04-04T16:01:59.445Z</time></trkpt><trkpt lat="44.2085961" lon="9.9700917"><ele>61.0</ele><time>2026-04-04T16:02:00.437Z</time></trkpt><trkpt lat="44.2086393" lon="9.9699951"><ele>61.66666666666667</ele><time>2026-04-04T16:02:01.451Z</time></trkpt><trkpt lat="44.2086724" lon="9.9698868"><ele>62.333333333333336</ele><time>2026-04-04T16:02:02.438Z</time></trkpt><trkpt lat="44.2087022" lon="9.9697778"><ele>63.0</ele><time>2026-04-04T16:02:03.442Z</time></trkpt><trkpt lat="44.2087117" lon="9.9696884"><ele>63.333333333333336</ele><time>2026-04-04T16:02:04.442Z</time></trkpt><trkpt lat="44.2087279" lon="9.9695858"><ele>63.66666666666667</ele><time>2026-04-04T16:02:09.456Z</time></trkpt><trkpt lat="44.2087405" lon="9.9694935"><ele>64.0</ele><time>2026-04-04T16:02:11.448Z</time></trkpt><trkpt lat="44.208767" lon="9.9693722"><ele>64.33333333333334</ele><time>2026-04-04T16:02:13.444Z</time></trkpt><trkpt lat="44.2088048" lon="9.9692868"><ele>64.66666666666667</ele><time>2026-04-04T16:02:15.458Z</time></trkpt><trkpt lat="44.2088665" lon="9.96923"><ele>65.0</ele><time>2026-04-04T16:02:17.464Z</time></trkpt><trkpt lat="44.2089869" lon="9.9691875"><ele>65.0</ele><time>2026-04-04T16:02:19.451Z</time></trkpt><trkpt lat="44.2090602" lon="9.9691699"><ele>65.0</ele><time>2026-04-04T16:02:20.438Z</time></trkpt><trkpt lat="44.2091266" lon="9.9691605"><ele>65.0</ele><time>2026-04-04T16:02:21.452Z</time></trkpt><trkpt lat="44.2091979" lon="9.9691544"><ele>65.0</ele><time>2026-04-04T16:02:22.451Z</time></trkpt><trkpt lat="44.2092626" lon="9.9691485"><ele>65.0</ele><time>2026-04-04T16:02:23.442Z</time></trkpt><trkpt lat="44.209368" lon="9.9691362"><ele>65.0</ele><time>2026-04-04T16:02:25.447Z</time></trkpt><trkpt lat="44.2094533" lon="9.9691409"><ele>65.0</ele><time>2026-04-04T16:02:27.447Z</time></trkpt><trkpt lat="44.209529" lon="9.9691507"><ele>65.0</ele><time>2026-04-04T16:02:29.447Z</time></trkpt><trkpt lat="44.2095956" lon="9.9691819"><ele>65.0</ele><time>2026-04-04T16:02:31.449Z</time></trkpt><trkpt lat="44.2096722" lon="9.9692134"><ele>65.0</ele><time>2026-04-04T16:02:34.454Z</time></trkpt><trkpt lat="44.2097549" lon="9.9691918"><ele>65.0</ele><time>2026-04-04T16:02:36.449Z</time></trkpt><trkpt lat="44.2098243" lon="9.9691722"><ele>65.0</ele><time>2026-04-04T16:02:37.447Z</time></trkpt><trkpt lat="44.2098962" lon="9.9691578"><ele>65.0</ele><time>2026-04-04T16:02:38.44Z</time></trkpt><trkpt lat="44.2099726" lon="9.9691583"><ele>65.0</ele><time>2026-04-04T16:02:39.444Z</time></trkpt><trkpt lat="44.2100504" lon="9.9691723"><ele>65.0</ele><time>2026-04-04T16:02:40.447Z</time></trkpt><trkpt lat="44.2101282" lon="9.9691992"><ele>65.0</ele><time>2026-04-04T16:02:41.455Z</time></trkpt><trkpt lat="44.2102055" lon="9.9692289"><ele>65.0</ele><time>2026-04-04T16:02:42.456Z</time></trkpt><trkpt lat="44.2102915" lon="9.9692589"><ele>65.0</ele><time>2026-04-04T16:02:43.457Z</time></trkpt><trkpt lat="44.2103811" lon="9.9692868"><ele>65.0</ele><time>2026-04-04T16:02:44.453Z</time></trkpt><trkpt lat="44.2104697" lon="9.9693074"><ele>65.0</ele><time>2026-04-04T16:02:45.454Z</time></trkpt><trkpt lat="44.2105557" lon="9.9693284"><ele>65.0</ele><time>2026-04-04T16:02:46.452Z</time></trkpt><trkpt lat="44.210651" lon="9.9693521"><ele>65.0</ele><time>2026-04-04T16:02:47.449Z</time></trkpt><trkpt lat="44.2107478" lon="9.969381"><ele>65.0</ele><time>2026-04-04T16:02:48.465Z</time></trkpt><trkpt lat="44.2108416" lon="9.9694112"><ele>65.0</ele><time>2026-04-04T16:02:49.462Z</time></trkpt><trkpt lat="44.2109351" lon="9.9694383"><ele>65.0</ele><time>2026-04-04T16:02:50.447Z</time></trkpt><trkpt lat="44.2110298" lon="9.9694671"><ele>65.0</ele><time>2026-04-04T16:02:51.447Z</time></trkpt><trkpt lat="44.2111256" lon="9.9694965"><ele>65.0</ele><time>2026-04-04T16:02:52.438Z</time></trkpt><trkpt lat="44.2112243" lon="9.9695269"><ele>65.0</ele><time>2026-04-04T16:02:53.455Z</time></trkpt><trkpt lat="44.2113205" lon="9.9695488"><ele>65.0</ele><time>2026-04-04T16:02:54.455Z</time></trkpt><trkpt lat="44.2114237" lon="9.9695658"><ele>65.0</ele><time>2026-04-04T16:02:55.453Z</time></trkpt><trkpt lat="44.2115309" lon="9.9695749"><ele>65.0</ele><time>2026-04-04T16:02:56.452Z</time></trkpt><trkpt lat="44.2116404" lon="9.9695698"><ele>65.0</ele><time>2026-04-04T16:02:57.457Z</time></trkpt><trkpt lat="44.2117471" lon="9.9695568"><ele>65.0</ele><time>2026-04-04T16:02:58.452Z</time></trkpt><trkpt lat="44.2118576" lon="9.9695404"><ele>65.6</ele><time>2026-04-04T16:02:59.458Z</time></trkpt><trkpt lat="44.2119583" lon="9.9695156"><ele>66.2</ele><time>2026-04-04T16:03:00.446Z</time></trkpt><trkpt lat="44.2120522" lon="9.9694892"><ele>66.8</ele><time>2026-04-04T16:03:01.452Z</time></trkpt><trkpt lat="44.2121474" lon="9.9694514"><ele>67.4</ele><time>2026-04-04T16:03:02.452Z</time></trkpt><trkpt lat="44.2122392" lon="9.9694042"><ele>68.0</ele><time>2026-04-04T16:03:03.454Z</time></trkpt><trkpt lat="44.212331" lon="9.9693614"><ele>67.2</ele><time>2026-04-04T16:03:04.453Z</time></trkpt><trkpt lat="44.2124279" lon="9.9693067"><ele>66.4</ele><time>2026-04-04T16:03:05.457Z</time></trkpt><trkpt lat="44.212528" lon="9.9692498"><ele>65.60000000000001</ele><time>2026-04-04T16:03:06.458Z</time></trkpt><trkpt lat="44.2126281" lon="9.9691839"><ele>64.8</ele><time>2026-04-04T16:03:07.46Z</time></trkpt><trkpt lat="44.2127298" lon="9.9691119"><ele>64.0</ele><time>2026-04-04T16:03:08.45Z</time></trkpt><trkpt lat="44.2128253" lon="9.9690323"><ele>64.0</ele><time>2026-04-04T16:03:09.456Z</time></trkpt><trkpt lat="44.212911" lon="9.9689462"><ele>64.0</ele><time>2026-04-04T16:03:10.454Z</time></trkpt><trkpt lat="44.2129948" lon="9.9688585"><ele>64.0</ele><time>2026-04-04T16:03:11.454Z</time></trkpt><trkpt lat="44.2130864" lon="9.9687676"><ele>64.0</ele><time>2026-04-04T16:03:12.462Z</time></trkpt><trkpt lat="44.2131823" lon="9.968686"><ele>64.0</ele><time>2026-04-04T16:03:13.454Z</time></trkpt><trkpt lat="44.2132783" lon="9.9686021"><ele>64.4</ele><time>2026-04-04T16:03:14.46Z</time></trkpt><trkpt lat="44.2133743" lon="9.96853"><ele>64.80000000000001</ele><time>2026-04-04T16:03:15.446Z</time></trkpt><trkpt lat="44.2134712" lon="9.9684608"><ele>65.19999999999999</ele><time>2026-04-04T16:03:16.465Z</time></trkpt><trkpt lat="44.2135761" lon="9.9683917"><ele>65.6</ele><time>2026-04-04T16:03:17.46Z</time></trkpt><trkpt lat="44.2136791" lon="9.9683297"><ele>66.0</ele><time>2026-04-04T16:03:18.462Z</time></trkpt><trkpt lat="44.2137855" lon="9.9682814"><ele>65.2</ele><time>2026-04-04T16:03:19.463Z</time></trkpt><trkpt lat="44.2138962" lon="9.9682441"><ele>64.39999999999999</ele><time>2026-04-04T16:03:20.458Z</time></trkpt><trkpt lat="44.214003" lon="9.9682097"><ele>63.6</ele><time>2026-04-04T16:03:21.462Z</time></trkpt><trkpt lat="44.2141115" lon="9.9681813"><ele>62.8</ele><time>2026-04-04T16:03:22.45Z</time></trkpt><trkpt lat="44.2142191" lon="9.9681525"><ele>62.0</ele><time>2026-04-04T16:03:23.454Z</time></trkpt><trkpt lat="44.2143365" lon="9.9681167"><ele>62.0</ele><time>2026-04-04T16:03:24.464Z</time></trkpt><trkpt lat="44.2144751" lon="9.9680716"><ele>62.0</ele><time>2026-04-04T16:03:25.459Z</time></trkpt><trkpt lat="44.2146453" lon="9.9680283"><ele>62.0</ele><time>2026-04-04T16:03:26.447Z</time></trkpt><trkpt lat="44.2147908" lon="9.9680064"><ele>61.8</ele><time>2026-04-04T16:03:27.458Z</time></trkpt><trkpt lat="44.2149069" lon="9.9679888"><ele>61.6</ele><time>2026-04-04T16:03:28.457Z</time></trkpt><trkpt lat="44.2150128" lon="9.9679782"><ele>61.39999999999999</ele><time>2026-04-04T16:03:29.465Z</time></trkpt><trkpt lat="44.2151131" lon="9.9679538"><ele>61.199999999999996</ele><time>2026-04-04T16:03:30.457Z</time></trkpt><trkpt lat="44.2152203" lon="9.9679286"><ele>61.0</ele><time>2026-04-04T16:03:31.461Z</time></trkpt><trkpt lat="44.215335" lon="9.9679169"><ele>61.0</ele><time>2026-04-04T16:03:32.458Z</time></trkpt><trkpt lat="44.2154581" lon="9.9679082"><ele>61.0</ele><time>2026-04-04T16:03:33.457Z</time></trkpt><trkpt lat="44.21558" lon="9.9678796"><ele>61.0</ele><time>2026-04-04T16:03:34.457Z</time></trkpt><trkpt lat="44.2156913" lon="9.9678504"><ele>61.0</ele><time>2026-04-04T16:03:35.459Z</time></trkpt><trkpt lat="44.2157923" lon="9.9678261"><ele>61.199999999999996</ele><time>2026-04-04T16:03:36.453Z</time></trkpt><trkpt lat="44.2158841" lon="9.9678075"><ele>61.39999999999999</ele><time>2026-04-04T16:03:37.46Z</time></trkpt><trkpt lat="44.2159766" lon="9.9677852"><ele>61.6</ele><time>2026-04-04T16:03:38.451Z</time></trkpt><trkpt lat="44.216082" lon="9.9677525"><ele>61.8</ele><time>2026-04-04T16:03:39.454Z</time></trkpt><trkpt lat="44.2161986" lon="9.9677239"><ele>62.0</ele><time>2026-04-04T16:03:40.458Z</time></trkpt><trkpt lat="44.2163313" lon="9.9676947"><ele>62.0</ele><time>2026-04-04T16:03:41.445Z</time></trkpt><trkpt lat="44.216455" lon="9.9676718"><ele>62.0</ele><time>2026-04-04T16:03:42.455Z</time></trkpt><trkpt lat="44.2165703" lon="9.9676745"><ele>62.0</ele><time>2026-04-04T16:03:43.466Z</time></trkpt><trkpt lat="44.2166726" lon="9.9677221"><ele>62.0</ele><time>2026-04-04T16:03:44.462Z</time></trkpt><trkpt lat="44.2167552" lon="9.9678111"><ele>61.75</ele><time>2026-04-04T16:03:45.452Z</time></trkpt><trkpt lat="44.2168334" lon="9.9679217"><ele>61.5</ele><time>2026-04-04T16:03:46.452Z</time></trkpt><trkpt lat="44.2169077" lon="9.9680425"><ele>61.25</ele><time>2026-04-04T16:03:47.45Z</time></trkpt><trkpt lat="44.216981" lon="9.9681722"><ele>61.0</ele><time>2026-04-04T16:03:48.46Z</time></trkpt><trkpt lat="44.217051" lon="9.9682992"><ele>61.49999999999999</ele><time>2026-04-04T16:03:49.445Z</time></trkpt><trkpt lat="44.217136" lon="9.9683923"><ele>62.0</ele><time>2026-04-04T16:03:50.471Z</time></trkpt><trkpt lat="44.2172129" lon="9.9684445"><ele>62.5</ele><time>2026-04-04T16:03:51.463Z</time></trkpt><trkpt lat="44.2172731" lon="9.9684878"><ele>63.0</ele><time>2026-04-04T16:03:52.466Z</time></trkpt><trkpt lat="44.2173231" lon="9.9685438"><ele>63.49999999999999</ele><time>2026-04-04T16:03:53.458Z</time></trkpt><trkpt lat="44.2173493" lon="9.9686237"><ele>64.0</ele><time>2026-04-04T16:03:54.462Z</time></trkpt><trkpt lat="44.2173749" lon="9.9687051"><ele>64.0</ele><time>2026-04-04T16:03:55.459Z</time></trkpt><trkpt lat="44.217427" lon="9.9688398"><ele>64.0</ele><time>2026-04-04T16:03:57.454Z</time></trkpt><trkpt lat="44.2174808" lon="9.9689579"><ele>64.0</ele><time>2026-04-04T16:03:59.465Z</time></trkpt><trkpt lat="44.2175476" lon="9.9691143"><ele>64.0</ele><time>2026-04-04T16:04:01.463Z</time></trkpt><trkpt lat="44.2175845" lon="9.9692041"><ele>64.0</ele><time>2026-04-04T16:04:02.454Z</time></trkpt><trkpt lat="44.2176226" lon="9.969304"><ele>64.83333333333333</ele><time>2026-04-04T16:04:03.454Z</time></trkpt><trkpt lat="44.2176668" lon="9.9694099"><ele>65.66666666666666</ele><time>2026-04-04T16:04:04.452Z</time></trkpt><trkpt lat="44.2177182" lon="9.96951"><ele>66.5</ele><time>2026-04-04T16:04:05.451Z</time></trkpt><trkpt lat="44.2177778" lon="9.9695937"><ele>67.33333333333333</ele><time>2026-04-04T16:04:06.456Z</time></trkpt><trkpt lat="44.2178438" lon="9.9696664"><ele>68.16666666666667</ele><time>2026-04-04T16:04:07.455Z</time></trkpt><trkpt lat="44.2179092" lon="9.9697327"><ele>69.0</ele><time>2026-04-04T16:04:08.46Z</time></trkpt><trkpt lat="44.2179761" lon="9.9697828"><ele>69.0</ele><time>2026-04-04T16:04:09.471Z</time></trkpt><trkpt lat="44.2180467" lon="9.9698257"><ele>69.0</ele><time>2026-04-04T16:04:10.458Z</time></trkpt><trkpt lat="44.2181192" lon="9.9698643"><ele>69.0</ele><time>2026-04-04T16:04:11.455Z</time></trkpt><trkpt lat="44.2181945" lon="9.9699035"><ele>69.0</ele><time>2026-04-04T16:04:12.457Z</time></trkpt><trkpt lat="44.2182751" lon="9.9699407"><ele>69.0</ele><time>2026-04-04T16:04:13.458Z</time></trkpt><trkpt lat="44.2183602" lon="9.9699753"><ele>69.0</ele><time>2026-04-04T16:04:14.459Z</time></trkpt><trkpt lat="44.2184532" lon="9.9700029"><ele>67.8</ele><time>2026-04-04T16:04:15.451Z</time></trkpt><trkpt lat="44.2185565" lon="9.9700244"><ele>66.60000000000001</ele><time>2026-04-04T16:04:16.456Z</time></trkpt><trkpt lat="44.2186634" lon="9.9700404"><ele>65.4</ele><time>2026-04-04T16:04:17.464Z</time></trkpt><trkpt lat="44.2187689" lon="9.970041"><ele>64.2</ele><time>2026-04-04T16:04:18.456Z</time></trkpt><trkpt lat="44.2188801" lon="9.970039"><ele>63.0</ele><time>2026-04-04T16:04:19.46Z</time></trkpt><trkpt lat="44.2189919" lon="9.970024"><ele>62.75</ele><time>2026-04-04T16:04:20.452Z</time></trkpt><trkpt lat="44.2191062" lon="9.9699935"><ele>62.5</ele><time>2026-04-04T16:04:21.465Z</time></trkpt><trkpt lat="44.2192219" lon="9.9699471"><ele>62.25</ele><time>2026-04-04T16:04:22.453Z</time></trkpt><trkpt lat="44.2193266" lon="9.9698871"><ele>62.0</ele><time>2026-04-04T16:04:23.456Z</time></trkpt><trkpt lat="44.2194259" lon="9.9698273"><ele>62.0</ele><time>2026-04-04T16:04:24.446Z</time></trkpt><trkpt lat="44.2195155" lon="9.9697601"><ele>62.0</ele><time>2026-04-04T16:04:25.458Z</time></trkpt><trkpt lat="44.219603" lon="9.9696812"><ele>62.0</ele><time>2026-04-04T16:04:26.468Z</time></trkpt><trkpt lat="44.2196971" lon="9.969602"><ele>62.0</ele><time>2026-04-04T16:04:27.454Z</time></trkpt><trkpt lat="44.2197979" lon="9.9695207"><ele>62.0</ele><time>2026-04-04T16:04:28.446Z</time></trkpt><trkpt lat="44.2198977" lon="9.9694413"><ele>62.0</ele><time>2026-04-04T16:04:29.455Z</time></trkpt><trkpt lat="44.2199982" lon="9.9693869"><ele>62.0</ele><time>2026-04-04T16:04:30.445Z</time></trkpt><trkpt lat="44.2200995" lon="9.9693534"><ele>62.0</ele><time>2026-04-04T16:04:31.441Z</time></trkpt><trkpt lat="44.2201946" lon="9.9693506"><ele>62.0</ele><time>2026-04-04T16:04:32.461Z</time></trkpt><trkpt lat="44.2202911" lon="9.9693666"><ele>62.0</ele><time>2026-04-04T16:04:33.446Z</time></trkpt><trkpt lat="44.220384" lon="9.969403"><ele>62.0</ele><time>2026-04-04T16:04:34.452Z</time></trkpt><trkpt lat="44.2204749" lon="9.9694556"><ele>62.0</ele><time>2026-04-04T16:04:35.451Z</time></trkpt><trkpt lat="44.2205558" lon="9.9695165"><ele>62.0</ele><time>2026-04-04T16:04:36.457Z</time></trkpt><trkpt lat="44.2206369" lon="9.9695724"><ele>62.0</ele><time>2026-04-04T16:04:37.451Z</time></trkpt><trkpt lat="44.2207154" lon="9.9696274"><ele>62.0</ele><time>2026-04-04T16:04:38.45Z</time></trkpt><trkpt lat="44.2207953" lon="9.9696785"><ele>62.2</ele><time>2026-04-04T16:04:39.453Z</time></trkpt><trkpt lat="44.2208786" lon="9.9697261"><ele>62.400000000000006</ele><time>2026-04-04T16:04:40.45Z</time></trkpt><trkpt lat="44.2209638" lon="9.9697777"><ele>62.599999999999994</ele><time>2026-04-04T16:04:41.448Z</time></trkpt><trkpt lat="44.2210555" lon="9.9698263"><ele>62.8</ele><time>2026-04-04T16:04:42.444Z</time></trkpt><trkpt lat="44.2211493" lon="9.9698752"><ele>63.0</ele><time>2026-04-04T16:04:43.447Z</time></trkpt><trkpt lat="44.2212454" lon="9.9699115"><ele>63.0</ele><time>2026-04-04T16:04:44.458Z</time></trkpt><trkpt lat="44.221347" lon="9.9699411"><ele>63.0</ele><time>2026-04-04T16:04:45.459Z</time></trkpt><trkpt lat="44.2214603" lon="9.9699709"><ele>63.0</ele><time>2026-04-04T16:04:46.453Z</time></trkpt><trkpt lat="44.2215782" lon="9.9699955"><ele>63.0</ele><time>2026-04-04T16:04:47.456Z</time></trkpt><trkpt lat="44.2216999" lon="9.9700184"><ele>63.5</ele><time>2026-04-04T16:04:48.464Z</time></trkpt><trkpt lat="44.221819" lon="9.9700388"><ele>64.0</ele><time>2026-04-04T16:04:49.459Z</time></trkpt><trkpt lat="44.2219353" lon="9.9700603"><ele>64.5</ele><time>2026-04-04T16:04:50.455Z</time></trkpt><trkpt lat="44.2220494" lon="9.970072"><ele>65.0</ele><time>2026-04-04T16:04:51.464Z</time></trkpt><trkpt lat="44.2221619" lon="9.9700746"><ele>65.0</ele><time>2026-04-04T16:04:52.465Z</time></trkpt><trkpt lat="44.2222729" lon="9.9700734"><ele>65.0</ele><time>2026-04-04T16:04:53.464Z</time></trkpt><trkpt lat="44.2223816" lon="9.9700661"><ele>65.0</ele><time>2026-04-04T16:04:54.456Z</time></trkpt><trkpt lat="44.2224874" lon="9.9700524"><ele>65.0</ele><time>2026-04-04T16:04:55.463Z</time></trkpt><trkpt lat="44.2225853" lon="9.9700349"><ele>65.0</ele><time>2026-04-04T16:04:56.458Z</time></trkpt><trkpt lat="44.2226774" lon="9.9700137"><ele>65.0</ele><time>2026-04-04T16:04:57.461Z</time></trkpt><trkpt lat="44.2227657" lon="9.9699871"><ele>65.0</ele><time>2026-04-04T16:04:58.444Z</time></trkpt><trkpt lat="44.2228526" lon="9.9699613"><ele>65.0</ele><time>2026-04-04T16:04:59.446Z</time></trkpt><trkpt lat="44.2229303" lon="9.9699342"><ele>65.0</ele><time>2026-04-04T16:05:00.447Z</time></trkpt><trkpt lat="44.2230028" lon="9.9699082"><ele>65.0</ele><time>2026-04-04T16:05:01.445Z</time></trkpt><trkpt lat="44.2230721" lon="9.9698723"><ele>65.0</ele><time>2026-04-04T16:05:02.458Z</time></trkpt><trkpt lat="44.2231354" lon="9.969836"><ele>65.2</ele><time>2026-04-04T16:05:03.444Z</time></trkpt><trkpt lat="44.2232473" lon="9.9697953"><ele>65.4</ele><time>2026-04-04T16:05:05.444Z</time></trkpt><trkpt lat="44.22333" lon="9.9699038"><ele>65.6</ele><time>2026-04-04T16:05:07.453Z</time></trkpt><trkpt lat="44.2233618" lon="9.9700114"><ele>65.8</ele><time>2026-04-04T16:05:08.453Z</time></trkpt><trkpt lat="44.2233862" lon="9.970118"><ele>66.0</ele><time>2026-04-04T16:05:09.457Z</time></trkpt><trkpt lat="44.2234094" lon="9.9702275"><ele>66.0</ele><time>2026-04-04T16:05:10.454Z</time></trkpt><trkpt lat="44.2234327" lon="9.9703443"><ele>66.0</ele><time>2026-04-04T16:05:11.451Z</time></trkpt><trkpt lat="44.2234598" lon="9.9704699"><ele>66.0</ele><time>2026-04-04T16:05:12.454Z</time></trkpt><trkpt lat="44.2234858" lon="9.9706007"><ele>66.0</ele><time>2026-04-04T16:05:13.459Z</time></trkpt><trkpt lat="44.2235149" lon="9.9707362"><ele>66.0</ele><time>2026-04-04T16:05:14.464Z</time></trkpt><trkpt lat="44.2235471" lon="9.970879"><ele>65.5</ele><time>2026-04-04T16:05:15.46Z</time></trkpt><trkpt lat="44.2235856" lon="9.9710397"><ele>65.0</ele><time>2026-04-04T16:05:16.456Z</time></trkpt><trkpt lat="44.2236239" lon="9.9712244"><ele>64.5</ele><time>2026-04-04T16:05:17.46Z</time></trkpt><trkpt lat="44.223661" lon="9.9714099"><ele>64.0</ele><time>2026-04-04T16:05:18.463Z</time></trkpt><trkpt lat="44.223703" lon="9.9715907"><ele>63.5</ele><time>2026-04-04T16:05:19.46Z</time></trkpt><trkpt lat="44.2237432" lon="9.97176"><ele>63.0</ele><time>2026-04-04T16:05:20.459Z</time></trkpt><trkpt lat="44.2237818" lon="9.9719101"><ele>62.5</ele><time>2026-04-04T16:05:21.466Z</time></trkpt><trkpt lat="44.2238169" lon="9.9720516"><ele>62.0</ele><time>2026-04-04T16:05:22.466Z</time></trkpt><trkpt lat="44.2238513" lon="9.9721988"><ele>62.0</ele><time>2026-04-04T16:05:23.472Z</time></trkpt><trkpt lat="44.2238887" lon="9.9723586"><ele>62.0</ele><time>2026-04-04T16:05:24.462Z</time></trkpt><trkpt lat="44.223929" lon="9.9725184"><ele>62.0</ele><time>2026-04-04T16:05:25.472Z</time></trkpt><trkpt lat="44.2239722" lon="9.9726894"><ele>62.0</ele><time>2026-04-04T16:05:26.467Z</time></trkpt><trkpt lat="44.2240175" lon="9.9728722"><ele>62.66666666666667</ele><time>2026-04-04T16:05:27.457Z</time></trkpt><trkpt lat="44.2240682" lon="9.9730892"><ele>63.33333333333333</ele><time>2026-04-04T16:05:28.461Z</time></trkpt><trkpt lat="44.2241306" lon="9.9733953"><ele>64.0</ele><time>2026-04-04T16:05:29.463Z</time></trkpt><trkpt lat="44.2241854" lon="9.9736374"><ele>64.33333333333333</ele><time>2026-04-04T16:05:30.469Z</time></trkpt><trkpt lat="44.2242205" lon="9.9737957"><ele>64.66666666666666</ele><time>2026-04-04T16:05:31.462Z</time></trkpt><trkpt lat="44.2242405" lon="9.9738971"><ele>65.0</ele><time>2026-04-04T16:05:32.45Z</time></trkpt><trkpt lat="44.2242636" lon="9.9740162"><ele>65.33333333333333</ele><time>2026-04-04T16:05:33.46Z</time></trkpt><trkpt lat="44.2242734" lon="9.9741161"><ele>65.66666666666667</ele><time>2026-04-04T16:05:34.452Z</time></trkpt><trkpt lat="44.2242539" lon="9.9742232"><ele>66.0</ele><time>2026-04-04T16:05:36.453Z</time></trkpt><trkpt lat="44.2243272" lon="9.9742395"><ele>66.6</ele><time>2026-04-04T16:11:14.465Z</time></trkpt><trkpt lat="44.2243714" lon="9.9743405"><ele>67.19999999999999</ele><time>2026-04-04T16:11:16.472Z</time></trkpt><trkpt lat="44.2243961" lon="9.9744476"><ele>67.80000000000001</ele><time>2026-04-04T16:11:17.472Z</time></trkpt><trkpt lat="44.2244306" lon="9.974584"><ele>68.4</ele><time>2026-04-04T16:11:18.46Z</time></trkpt><trkpt lat="44.2244626" lon="9.9747396"><ele>69.0</ele><time>2026-04-04T16:11:19.463Z</time></trkpt><trkpt lat="44.2244933" lon="9.9749065"><ele>70.25</ele><time>2026-04-04T16:11:20.46Z</time></trkpt><trkpt lat="44.2245205" lon="9.9750933"><ele>71.5</ele><time>2026-04-04T16:11:21.473Z</time></trkpt><trkpt lat="44.2245313" lon="9.9752662"><ele>72.75</ele><time>2026-04-04T16:11:22.458Z</time></trkpt><trkpt lat="44.2245502" lon="9.9754723"><ele>74.0</ele><time>2026-04-04T16:11:23.471Z</time></trkpt><trkpt lat="44.2245739" lon="9.9756761"><ele>77.66666666666667</ele><time>2026-04-04T16:11:24.473Z</time></trkpt><trkpt lat="44.2245987" lon="9.97588"><ele>81.33333333333333</ele><time>2026-04-04T16:11:25.473Z</time></trkpt><trkpt lat="44.2246274" lon="9.9760874"><ele>85.0</ele><time>2026-04-04T16:11:26.48Z</time></trkpt><trkpt lat="44.2246613" lon="9.9762988"><ele>85.0</ele><time>2026-04-04T16:11:27.471Z</time></trkpt><trkpt lat="44.2247085" lon="9.9765224"><ele>85.0</ele><time>2026-04-04T16:11:28.466Z</time></trkpt><trkpt lat="44.224785" lon="9.9767643"><ele>85.0</ele><time>2026-04-04T16:11:29.458Z</time></trkpt><trkpt lat="44.2248779" lon="9.9770227"><ele>83.33333333333333</ele><time>2026-04-04T16:11:30.467Z</time></trkpt><trkpt lat="44.2249684" lon="9.9772903"><ele>81.66666666666667</ele><time>2026-04-04T16:11:31.461Z</time></trkpt><trkpt lat="44.2250516" lon="9.9775489"><ele>80.0</ele><time>2026-04-04T16:11:32.461Z</time></trkpt><trkpt lat="44.2251276" lon="9.9777593"><ele>83.75</ele><time>2026-04-04T16:11:33.465Z</time></trkpt><trkpt lat="44.2251979" lon="9.9779244"><ele>87.5</ele><time>2026-04-04T16:11:34.46Z</time></trkpt><trkpt lat="44.225285" lon="9.9780607"><ele>91.25</ele><time>2026-04-04T16:11:35.458Z</time></trkpt><trkpt lat="44.2254162" lon="9.978146"><ele>95.0</ele><time>2026-04-04T16:11:36.458Z</time></trkpt><trkpt lat="44.2256001" lon="9.9782007"><ele>92.66666666666667</ele><time>2026-04-04T16:11:37.446Z</time></trkpt><trkpt lat="44.22578" lon="9.9783053"><ele>90.33333333333333</ele><time>2026-04-04T16:11:38.464Z</time></trkpt><trkpt lat="44.2259496" lon="9.9784479"><ele>88.0</ele><time>2026-04-04T16:11:39.461Z</time></trkpt><trkpt lat="44.2261188" lon="9.9786165"><ele>92.0</ele><time>2026-04-04T16:11:40.447Z</time></trkpt><trkpt lat="44.2262535" lon="9.9787718"><ele>96.0</ele><time>2026-04-04T16:11:41.438Z</time></trkpt><trkpt lat="44.2263532" lon="9.978909"><ele>100.0</ele><time>2026-04-04T16:11:42.457Z</time></trkpt><trkpt lat="44.226394" lon="9.9790452"><ele>104.0</ele><time>2026-04-04T16:11:43.449Z</time></trkpt><trkpt lat="44.226392" lon="9.979199"><ele>106.66666666666666</ele><time>2026-04-04T16:11:44.461Z</time></trkpt><trkpt lat="44.2263537" lon="9.9794217"><ele>109.33333333333334</ele><time>2026-04-04T16:11:45.447Z</time></trkpt><trkpt lat="44.2263232" lon="9.9797084"><ele>112.0</ele><time>2026-04-04T16:11:46.452Z</time></trkpt><trkpt lat="44.2263575" lon="9.9800554"><ele>115.0</ele><time>2026-04-04T16:11:47.451Z</time></trkpt><trkpt lat="44.2263876" lon="9.9803979"><ele>118.0</ele><time>2026-04-04T16:11:48.448Z</time></trkpt><trkpt lat="44.2264005" lon="9.9807303"><ele>118.0</ele><time>2026-04-04T16:11:49.445Z</time></trkpt><trkpt lat="44.2263874" lon="9.9810609"><ele>118.0</ele><time>2026-04-04T16:11:50.433Z</time></trkpt><trkpt lat="44.2263622" lon="9.9813909"><ele>118.0</ele><time>2026-04-04T16:11:51.438Z</time></trkpt><trkpt lat="44.2263333" lon="9.9816694"><ele>118.0</ele><time>2026-04-04T16:11:52.453Z</time></trkpt><trkpt lat="44.2263175" lon="9.9819028"><ele>118.0</ele><time>2026-04-04T16:11:53.45Z</time></trkpt><trkpt lat="44.2263573" lon="9.9821137"><ele>117.66666666666667</ele><time>2026-04-04T16:11:54.455Z</time></trkpt><trkpt lat="44.2264701" lon="9.9823415"><ele>117.33333333333334</ele><time>2026-04-04T16:11:55.448Z</time></trkpt><trkpt lat="44.2266088" lon="9.9826109"><ele>117.0</ele><time>2026-04-04T16:11:56.448Z</time></trkpt><trkpt lat="44.2267459" lon="9.982899"><ele>114.0</ele><time>2026-04-04T16:11:57.449Z</time></trkpt><trkpt lat="44.2268769" lon="9.9832053"><ele>111.0</ele><time>2026-04-04T16:11:58.456Z</time></trkpt><trkpt lat="44.2270109" lon="9.9835113"><ele>111.0</ele><time>2026-04-04T16:11:59.452Z</time></trkpt><trkpt lat="44.2271318" lon="9.9838013"><ele>111.0</ele><time>2026-04-04T16:12:00.447Z</time></trkpt><trkpt lat="44.2272559" lon="9.9840931"><ele>103.5</ele><time>2026-04-04T16:12:01.444Z</time></trkpt><trkpt lat="44.227382" lon="9.9843765"><ele>96.0</ele><time>2026-04-04T16:12:02.442Z</time></trkpt><trkpt lat="44.2275097" lon="9.9846363"><ele>96.0</ele><time>2026-04-04T16:12:03.447Z</time></trkpt><trkpt lat="44.2276332" lon="9.984886"><ele>96.0</ele><time>2026-04-04T16:12:04.455Z</time></trkpt><trkpt lat="44.2277613" lon="9.9851147"><ele>96.0</ele><time>2026-04-04T16:12:05.45Z</time></trkpt><trkpt lat="44.2279232" lon="9.9853305"><ele>96.66666666666666</ele><time>2026-04-04T16:12:06.452Z</time></trkpt><trkpt lat="44.2281067" lon="9.9855056"><ele>97.33333333333333</ele><time>2026-04-04T16:12:07.438Z</time></trkpt><trkpt lat="44.2282792" lon="9.9856676"><ele>98.0</ele><time>2026-04-04T16:12:08.451Z</time></trkpt><trkpt lat="44.2284158" lon="9.9858171"><ele>97.25</ele><time>2026-04-04T16:12:09.457Z</time></trkpt><trkpt lat="44.2285311" lon="9.9859303"><ele>96.5</ele><time>2026-04-04T16:12:10.433Z</time></trkpt><trkpt lat="44.2286388" lon="9.9860255"><ele>95.75</ele><time>2026-04-04T16:12:11.447Z</time></trkpt><trkpt lat="44.2287591" lon="9.9860404"><ele>95.0</ele><time>2026-04-04T16:12:12.448Z</time></trkpt><trkpt lat="44.2288813" lon="9.9859767"><ele>95.75</ele><time>2026-04-04T16:12:13.448Z</time></trkpt><trkpt lat="44.2289985" lon="9.9858407"><ele>96.5</ele><time>2026-04-04T16:12:14.454Z</time></trkpt><trkpt lat="44.2290982" lon="9.9857168"><ele>97.25</ele><time>2026-04-04T16:12:15.465Z</time></trkpt><trkpt lat="44.2292069" lon="9.9856916"><ele>98.0</ele><time>2026-04-04T16:12:16.464Z</time></trkpt><trkpt lat="44.2293449" lon="9.985754"><ele>98.0</ele><time>2026-04-04T16:12:17.453Z</time></trkpt><trkpt lat="44.2294914" lon="9.9858177"><ele>98.0</ele><time>2026-04-04T16:12:18.454Z</time></trkpt><trkpt lat="44.2296494" lon="9.9858848"><ele>98.0</ele><time>2026-04-04T16:12:19.45Z</time></trkpt><trkpt lat="44.2298091" lon="9.9859385"><ele>99.33333333333333</ele><time>2026-04-04T16:12:20.46Z</time></trkpt><trkpt lat="44.2299644" lon="9.9859933"><ele>100.66666666666666</ele><time>2026-04-04T16:12:21.466Z</time></trkpt><trkpt lat="44.2301161" lon="9.9860452"><ele>102.0</ele><time>2026-04-04T16:12:22.47Z</time></trkpt><trkpt lat="44.2302551" lon="9.9860956"><ele>102.0</ele><time>2026-04-04T16:12:23.467Z</time></trkpt><trkpt lat="44.2303792" lon="9.9861628"><ele>102.0</ele><time>2026-04-04T16:12:24.47Z</time></trkpt><trkpt lat="44.2304814" lon="9.986292"><ele>102.0</ele><time>2026-04-04T16:12:25.462Z</time></trkpt><trkpt lat="44.2305829" lon="9.9864583"><ele>102.0</ele><time>2026-04-04T16:12:26.454Z</time></trkpt><trkpt lat="44.2306801" lon="9.9866069"><ele>102.75</ele><time>2026-04-04T16:12:27.461Z</time></trkpt><trkpt lat="44.2307771" lon="9.986754"><ele>103.5</ele><time>2026-04-04T16:12:28.467Z</time></trkpt><trkpt lat="44.2308649" lon="9.9868898"><ele>104.25</ele><time>2026-04-04T16:12:29.463Z</time></trkpt><trkpt lat="44.2309699" lon="9.9870313"><ele>105.0</ele><time>2026-04-04T16:12:30.46Z</time></trkpt><trkpt lat="44.2310689" lon="9.9871632"><ele>105.0</ele><time>2026-04-04T16:12:31.458Z</time></trkpt><trkpt lat="44.2311575" lon="9.9872982"><ele>105.0</ele><time>2026-04-04T16:12:32.456Z</time></trkpt><trkpt lat="44.2312511" lon="9.9874376"><ele>105.0</ele><time>2026-04-04T16:12:33.468Z</time></trkpt><trkpt lat="44.231348" lon="9.9875786"><ele>105.0</ele><time>2026-04-04T16:12:34.461Z</time></trkpt><trkpt lat="44.2314464" lon="9.9877125"><ele>105.5</ele><time>2026-04-04T16:12:35.469Z</time></trkpt><trkpt lat="44.2315516" lon="9.9878457"><ele>106.0</ele><time>2026-04-04T16:12:36.461Z</time></trkpt><trkpt lat="44.2316609" lon="9.9879812"><ele>106.5</ele><time>2026-04-04T16:12:37.464Z</time></trkpt><trkpt lat="44.2317774" lon="9.9881211"><ele>107.0</ele><time>2026-04-04T16:12:38.464Z</time></trkpt><trkpt lat="44.2319028" lon="9.9882618"><ele>107.0</ele><time>2026-04-04T16:12:39.462Z</time></trkpt><trkpt lat="44.2320251" lon="9.9883967"><ele>107.0</ele><time>2026-04-04T16:12:40.464Z</time></trkpt><trkpt lat="44.2321498" lon="9.9885275"><ele>107.0</ele><time>2026-04-04T16:12:41.464Z</time></trkpt><trkpt lat="44.2322609" lon="9.9886561"><ele>107.25</ele><time>2026-04-04T16:12:42.47Z</time></trkpt><trkpt lat="44.2323514" lon="9.9887774"><ele>107.5</ele><time>2026-04-04T16:12:43.464Z</time></trkpt><trkpt lat="44.2324477" lon="9.9889222"><ele>107.75</ele><time>2026-04-04T16:12:44.458Z</time></trkpt><trkpt lat="44.2325409" lon="9.9890758"><ele>108.0</ele><time>2026-04-04T16:12:45.465Z</time></trkpt><trkpt lat="44.2326344" lon="9.9892385"><ele>108.33333333333334</ele><time>2026-04-04T16:12:46.468Z</time></trkpt><trkpt lat="44.2327399" lon="9.9894034"><ele>108.66666666666667</ele><time>2026-04-04T16:12:47.469Z</time></trkpt><trkpt lat="44.2328485" lon="9.9895684"><ele>109.0</ele><time>2026-04-04T16:12:48.463Z</time></trkpt><trkpt lat="44.2329624" lon="9.989749"><ele>109.0</ele><time>2026-04-04T16:12:49.462Z</time></trkpt><trkpt lat="44.2330638" lon="9.9899172"><ele>109.0</ele><time>2026-04-04T16:12:50.465Z</time></trkpt><trkpt lat="44.2331677" lon="9.9900845"><ele>109.0</ele><time>2026-04-04T16:12:51.477Z</time></trkpt><trkpt lat="44.2332636" lon="9.9902478"><ele>110.0</ele><time>2026-04-04T16:12:52.468Z</time></trkpt><trkpt lat="44.2333568" lon="9.9904014"><ele>111.0</ele><time>2026-04-04T16:12:53.472Z</time></trkpt><trkpt lat="44.2334535" lon="9.9905559"><ele>112.0</ele><time>2026-04-04T16:12:54.467Z</time></trkpt><trkpt lat="44.2335549" lon="9.9907056"><ele>113.0</ele><time>2026-04-04T16:12:55.473Z</time></trkpt><trkpt lat="44.2336626" lon="9.9908758"><ele>113.33333333333333</ele><time>2026-04-04T16:12:56.47Z</time></trkpt><trkpt lat="44.2337687" lon="9.9910449"><ele>113.66666666666666</ele><time>2026-04-04T16:12:57.472Z</time></trkpt><trkpt lat="44.233872" lon="9.991206"><ele>114.0</ele><time>2026-04-04T16:12:58.472Z</time></trkpt><trkpt lat="44.2339786" lon="9.991371"><ele>114.25</ele><time>2026-04-04T16:12:59.487Z</time></trkpt><trkpt lat="44.2340831" lon="9.9915101"><ele>114.5</ele><time>2026-04-04T16:13:00.466Z</time></trkpt><trkpt lat="44.2341788" lon="9.9916556"><ele>114.75</ele><time>2026-04-04T16:13:01.473Z</time></trkpt><trkpt lat="44.2342621" lon="9.9918"><ele>115.0</ele><time>2026-04-04T16:13:02.464Z</time></trkpt><trkpt lat="44.2343466" lon="9.9919292"><ele>115.0</ele><time>2026-04-04T16:13:03.473Z</time></trkpt><trkpt lat="44.2344251" lon="9.9920561"><ele>115.0</ele><time>2026-04-04T16:13:04.47Z</time></trkpt><trkpt lat="44.2345099" lon="9.9921828"><ele>115.0</ele><time>2026-04-04T16:13:05.466Z</time></trkpt><trkpt lat="44.2346009" lon="9.9923111"><ele>115.0</ele><time>2026-04-04T16:13:06.475Z</time></trkpt><trkpt lat="44.2346791" lon="9.9924411"><ele>114.75</ele><time>2026-04-04T16:13:07.461Z</time></trkpt><trkpt lat="44.2347567" lon="9.9925717"><ele>114.5</ele><time>2026-04-04T16:13:08.457Z</time></trkpt><trkpt lat="44.2348301" lon="9.9927136"><ele>114.25</ele><time>2026-04-04T16:13:09.461Z</time></trkpt><trkpt lat="44.2348983" lon="9.9928715"><ele>114.0</ele><time>2026-04-04T16:13:10.463Z</time></trkpt><trkpt lat="44.2349619" lon="9.9930313"><ele>113.75</ele><time>2026-04-04T16:13:11.457Z</time></trkpt><trkpt lat="44.2350331" lon="9.9932003"><ele>113.5</ele><time>2026-04-04T16:13:12.46Z</time></trkpt><trkpt lat="44.2351006" lon="9.9933726"><ele>113.25</ele><time>2026-04-04T16:13:13.465Z</time></trkpt><trkpt lat="44.2351732" lon="9.9935595"><ele>113.0</ele><time>2026-04-04T16:13:14.459Z</time></trkpt><trkpt lat="44.2352399" lon="9.9937426"><ele>113.75</ele><time>2026-04-04T16:13:15.457Z</time></trkpt><trkpt lat="44.2353033" lon="9.9939245"><ele>114.5</ele><time>2026-04-04T16:13:16.461Z</time></trkpt><trkpt lat="44.2353682" lon="9.9940974"><ele>115.25</ele><time>2026-04-04T16:13:17.463Z</time></trkpt><trkpt lat="44.2354435" lon="9.9942824"><ele>116.0</ele><time>2026-04-04T16:13:18.46Z</time></trkpt><trkpt lat="44.2355038" lon="9.99446"><ele>116.75</ele><time>2026-04-04T16:13:19.461Z</time></trkpt><trkpt lat="44.2355766" lon="9.9946098"><ele>117.5</ele><time>2026-04-04T16:13:20.465Z</time></trkpt><trkpt lat="44.2356627" lon="9.9947397"><ele>118.25</ele><time>2026-04-04T16:13:21.463Z</time></trkpt><trkpt lat="44.235776" lon="9.9948426"><ele>119.0</ele><time>2026-04-04T16:13:22.46Z</time></trkpt><trkpt lat="44.2358938" lon="9.9949231"><ele>118.75</ele><time>2026-04-04T16:13:23.465Z</time></trkpt><trkpt lat="44.2360017" lon="9.9950138"><ele>118.5</ele><time>2026-04-04T16:13:24.465Z</time></trkpt><trkpt lat="44.2361164" lon="9.9951092"><ele>118.25</ele><time>2026-04-04T16:13:25.463Z</time></trkpt><trkpt lat="44.2362299" lon="9.9952206"><ele>118.0</ele><time>2026-04-04T16:13:26.462Z</time></trkpt><trkpt lat="44.2363305" lon="9.9953533"><ele>118.0</ele><time>2026-04-04T16:13:27.463Z</time></trkpt><trkpt lat="44.2363944" lon="9.995526"><ele>118.0</ele><time>2026-04-04T16:13:28.452Z</time></trkpt><trkpt lat="44.2364595" lon="9.995691"><ele>118.0</ele><time>2026-04-04T16:13:29.463Z</time></trkpt><trkpt lat="44.2365435" lon="9.9958392"><ele>118.0</ele><time>2026-04-04T16:13:30.451Z</time></trkpt><trkpt lat="44.236668" lon="9.9959835"><ele>119.0</ele><time>2026-04-04T16:13:31.454Z</time></trkpt><trkpt lat="44.2368435" lon="9.996135"><ele>120.0</ele><time>2026-04-04T16:13:32.457Z</time></trkpt><trkpt lat="44.2370485" lon="9.996313"><ele>121.0</ele><time>2026-04-04T16:13:33.453Z</time></trkpt><trkpt lat="44.237269" lon="9.9965204"><ele>122.0</ele><time>2026-04-04T16:13:34.452Z</time></trkpt><trkpt lat="44.2374891" lon="9.9967226"><ele>123.0</ele><time>2026-04-04T16:13:35.455Z</time></trkpt><trkpt lat="44.2376855" lon="9.9969111"><ele>123.0</ele><time>2026-04-04T16:13:36.453Z</time></trkpt><trkpt lat="44.2378492" lon="9.9970769"><ele>123.0</ele><time>2026-04-04T16:13:37.467Z</time></trkpt><trkpt lat="44.2379712" lon="9.997204"><ele>123.0</ele><time>2026-04-04T16:13:38.457Z</time></trkpt><trkpt lat="44.2380925" lon="9.9973178"><ele>123.25</ele><time>2026-04-04T16:13:39.452Z</time></trkpt><trkpt lat="44.2382102" lon="9.9974311"><ele>123.5</ele><time>2026-04-04T16:13:40.455Z</time></trkpt><trkpt lat="44.2383238" lon="9.9975386"><ele>123.75</ele><time>2026-04-04T16:13:41.462Z</time></trkpt><trkpt lat="44.2384327" lon="9.9976596"><ele>124.0</ele><time>2026-04-04T16:13:42.449Z</time></trkpt><trkpt lat="44.2385351" lon="9.997817"><ele>124.0</ele><time>2026-04-04T16:13:43.459Z</time></trkpt><trkpt lat="44.2386379" lon="9.9980132"><ele>124.0</ele><time>2026-04-04T16:13:44.452Z</time></trkpt><trkpt lat="44.2387352" lon="9.9982154"><ele>124.0</ele><time>2026-04-04T16:13:45.454Z</time></trkpt><trkpt lat="44.2388541" lon="9.9984472"><ele>124.5</ele><time>2026-04-04T16:13:46.457Z</time></trkpt><trkpt lat="44.2389848" lon="9.9987097"><ele>125.0</ele><time>2026-04-04T16:13:47.461Z</time></trkpt><trkpt lat="44.2391182" lon="9.9989758"><ele>126.5</ele><time>2026-04-04T16:13:48.472Z</time></trkpt><trkpt lat="44.2392504" lon="9.9992482"><ele>128.0</ele><time>2026-04-04T16:13:49.459Z</time></trkpt><trkpt lat="44.2393756" lon="9.9994906"><ele>128.0</ele><time>2026-04-04T16:13:50.451Z</time></trkpt><trkpt lat="44.2395013" lon="9.9997249"><ele>128.0</ele><time>2026-04-04T16:13:51.458Z</time></trkpt><trkpt lat="44.2396264" lon="9.9999407"><ele>128.0</ele><time>2026-04-04T16:13:52.457Z</time></trkpt><trkpt lat="44.2397448" lon="10.0001566"><ele>127.33333333333333</ele><time>2026-04-04T16:13:53.456Z</time></trkpt><trkpt lat="44.239862" lon="10.0003751"><ele>126.66666666666666</ele><time>2026-04-04T16:13:54.453Z</time></trkpt><trkpt lat="44.2399776" lon="10.0005913"><ele>126.0</ele><time>2026-04-04T16:13:55.458Z</time></trkpt><trkpt lat="44.2400953" lon="10.0007979"><ele>126.75</ele><time>2026-04-04T16:13:56.457Z</time></trkpt><trkpt lat="44.2401995" lon="10.0009679"><ele>127.5</ele><time>2026-04-04T16:13:57.458Z</time></trkpt><trkpt lat="44.2402919" lon="10.0011255"><ele>128.25</ele><time>2026-04-04T16:13:58.458Z</time></trkpt><trkpt lat="44.2403794" lon="10.0012734"><ele>129.0</ele><time>2026-04-04T16:13:59.461Z</time></trkpt><trkpt lat="44.2404639" lon="10.0014251"><ele>129.0</ele><time>2026-04-04T16:14:00.462Z</time></trkpt><trkpt lat="44.2405438" lon="10.0015635"><ele>129.0</ele><time>2026-04-04T16:14:01.456Z</time></trkpt><trkpt lat="44.2406269" lon="10.0017117"><ele>129.0</ele><time>2026-04-04T16:14:02.45Z</time></trkpt><trkpt lat="44.2407085" lon="10.0018578"><ele>129.0</ele><time>2026-04-04T16:14:03.465Z</time></trkpt><trkpt lat="44.2407855" lon="10.0020243"><ele>129.25</ele><time>2026-04-04T16:14:04.455Z</time></trkpt><trkpt lat="44.2408604" lon="10.0021887"><ele>129.5</ele><time>2026-04-04T16:14:05.456Z</time></trkpt><trkpt lat="44.2409435" lon="10.0023438"><ele>129.75</ele><time>2026-04-04T16:14:06.459Z</time></trkpt><trkpt lat="44.2410261" lon="10.0024914"><ele>130.0</ele><time>2026-04-04T16:14:07.463Z</time></trkpt><trkpt lat="44.241107" lon="10.0026428"><ele>130.0</ele><time>2026-04-04T16:14:08.465Z</time></trkpt><trkpt lat="44.2411831" lon="10.0027875"><ele>130.0</ele><time>2026-04-04T16:14:09.462Z</time></trkpt><trkpt lat="44.2412595" lon="10.0029195"><ele>130.0</ele><time>2026-04-04T16:14:10.462Z</time></trkpt><trkpt lat="44.2413354" lon="10.0030348"><ele>130.0</ele><time>2026-04-04T16:14:11.462Z</time></trkpt><trkpt lat="44.2414088" lon="10.0031359"><ele>128.25</ele><time>2026-04-04T16:14:12.463Z</time></trkpt><trkpt lat="44.2414893" lon="10.0032179"><ele>126.5</ele><time>2026-04-04T16:14:13.464Z</time></trkpt><trkpt lat="44.241587" lon="10.0032857"><ele>124.75</ele><time>2026-04-04T16:14:14.458Z</time></trkpt><trkpt lat="44.2416989" lon="10.0033338"><ele>123.0</ele><time>2026-04-04T16:14:15.451Z</time></trkpt><trkpt lat="44.2418261" lon="10.0033674"><ele>123.0</ele><time>2026-04-04T16:14:16.464Z</time></trkpt><trkpt lat="44.2419638" lon="10.0033882"><ele>123.0</ele><time>2026-04-04T16:14:17.454Z</time></trkpt><trkpt lat="44.2421033" lon="10.0034039"><ele>123.0</ele><time>2026-04-04T16:14:18.469Z</time></trkpt><trkpt lat="44.2422318" lon="10.0034197"><ele>123.0</ele><time>2026-04-04T16:14:19.447Z</time></trkpt><trkpt lat="44.2423547" lon="10.0034385"><ele>122.0</ele><time>2026-04-04T16:14:20.469Z</time></trkpt><trkpt lat="44.2424736" lon="10.0034565"><ele>121.0</ele><time>2026-04-04T16:14:21.474Z</time></trkpt><trkpt lat="44.2425919" lon="10.0034761"><ele>120.0</ele><time>2026-04-04T16:14:22.467Z</time></trkpt><trkpt lat="44.2427071" lon="10.0034997"><ele>119.0</ele><time>2026-04-04T16:14:23.461Z</time></trkpt><trkpt lat="44.2428134" lon="10.0035235"><ele>119.0</ele><time>2026-04-04T16:14:24.462Z</time></trkpt><trkpt lat="44.2429112" lon="10.0035478"><ele>119.0</ele><time>2026-04-04T16:14:25.458Z</time></trkpt><trkpt lat="44.2430018" lon="10.0035902"><ele>119.0</ele><time>2026-04-04T16:14:26.46Z</time></trkpt><trkpt lat="44.2430887" lon="10.00365"><ele>119.0</ele><time>2026-04-04T16:14:27.464Z</time></trkpt><trkpt lat="44.2431696" lon="10.0037362"><ele>119.0</ele><time>2026-04-04T16:14:28.468Z</time></trkpt><trkpt lat="44.2432422" lon="10.003847"><ele>119.75</ele><time>2026-04-04T16:14:29.471Z</time></trkpt><trkpt lat="44.2433004" lon="10.0039809"><ele>120.5</ele><time>2026-04-04T16:14:30.457Z</time></trkpt><trkpt lat="44.2433642" lon="10.0041196"><ele>121.25</ele><time>2026-04-04T16:14:31.464Z</time></trkpt><trkpt lat="44.2434393" lon="10.0042713"><ele>122.0</ele><time>2026-04-04T16:14:32.462Z</time></trkpt><trkpt lat="44.2435076" lon="10.0044333"><ele>122.0</ele><time>2026-04-04T16:14:33.456Z</time></trkpt><trkpt lat="44.2435661" lon="10.0045896"><ele>122.0</ele><time>2026-04-04T16:14:34.463Z</time></trkpt><trkpt lat="44.2436238" lon="10.0047358"><ele>122.0</ele><time>2026-04-04T16:14:35.466Z</time></trkpt><trkpt lat="44.2436736" lon="10.0048773"><ele>122.0</ele><time>2026-04-04T16:14:36.46Z</time></trkpt><trkpt lat="44.2437249" lon="10.0050175"><ele>122.19999999999999</ele><time>2026-04-04T16:14:37.463Z</time></trkpt><trkpt lat="44.2437807" lon="10.0051544"><ele>122.39999999999999</ele><time>2026-04-04T16:14:38.464Z</time></trkpt><trkpt lat="44.2438353" lon="10.0052909"><ele>122.60000000000001</ele><time>2026-04-04T16:14:39.48Z</time></trkpt><trkpt lat="44.243885" lon="10.00543"><ele>122.80000000000001</ele><time>2026-04-04T16:14:40.451Z</time></trkpt><trkpt lat="44.2439263" lon="10.0055767"><ele>123.0</ele><time>2026-04-04T16:14:41.462Z</time></trkpt><trkpt lat="44.2439485" lon="10.0057303"><ele>123.0</ele><time>2026-04-04T16:14:42.45Z</time></trkpt><trkpt lat="44.2439586" lon="10.0058853"><ele>123.0</ele><time>2026-04-04T16:14:43.459Z</time></trkpt><trkpt lat="44.2439571" lon="10.0060403"><ele>123.0</ele><time>2026-04-04T16:14:44.467Z</time></trkpt><trkpt lat="44.2439576" lon="10.0061993"><ele>123.0</ele><time>2026-04-04T16:14:45.458Z</time></trkpt><trkpt lat="44.2439654" lon="10.0063573"><ele>126.25</ele><time>2026-04-04T16:14:46.46Z</time></trkpt><trkpt lat="44.243973" lon="10.0065253"><ele>129.5</ele><time>2026-04-04T16:14:47.458Z</time></trkpt><trkpt lat="44.2439789" lon="10.0066946"><ele>132.75</ele><time>2026-04-04T16:14:48.457Z</time></trkpt><trkpt lat="44.2439859" lon="10.0068602"><ele>136.0</ele><time>2026-04-04T16:14:49.469Z</time></trkpt><trkpt lat="44.2439887" lon="10.0070223"><ele>136.0</ele><time>2026-04-04T16:14:50.473Z</time></trkpt><trkpt lat="44.2439891" lon="10.0071857"><ele>136.0</ele><time>2026-04-04T16:14:51.466Z</time></trkpt><trkpt lat="44.2439828" lon="10.0073331"><ele>136.0</ele><time>2026-04-04T16:14:52.669Z</time></trkpt><trkpt lat="44.2439805" lon="10.0075941"><ele>136.0</ele><time>2026-04-04T16:14:54.472Z</time></trkpt><trkpt lat="44.2439948" lon="10.00771"><ele>136.75</ele><time>2026-04-04T16:14:55.474Z</time></trkpt><trkpt lat="44.2440357" lon="10.007805"><ele>137.5</ele><time>2026-04-04T16:14:56.473Z</time></trkpt><trkpt lat="44.2441173" lon="10.0079031"><ele>138.25</ele><time>2026-04-04T16:14:57.469Z</time></trkpt><trkpt lat="44.2442149" lon="10.0080478"><ele>139.0</ele><time>2026-04-04T16:14:58.475Z</time></trkpt><trkpt lat="44.2443375" lon="10.0082439"><ele>141.0</ele><time>2026-04-04T16:14:59.482Z</time></trkpt><trkpt lat="44.2444886" lon="10.0084907"><ele>143.0</ele><time>2026-04-04T16:15:00.466Z</time></trkpt><trkpt lat="44.2446344" lon="10.0087371"><ele>143.0</ele><time>2026-04-04T16:15:01.472Z</time></trkpt><trkpt lat="44.2447844" lon="10.0090074"><ele>143.0</ele><time>2026-04-04T16:15:02.475Z</time></trkpt><trkpt lat="44.2449495" lon="10.0093142"><ele>144.0</ele><time>2026-04-04T16:15:03.47Z</time></trkpt><trkpt lat="44.2451121" lon="10.0095753"><ele>145.0</ele><time>2026-04-04T16:15:04.464Z</time></trkpt><trkpt lat="44.2452681" lon="10.009833"><ele>145.33333333333334</ele><time>2026-04-04T16:15:05.473Z</time></trkpt><trkpt lat="44.2453949" lon="10.0100657"><ele>145.66666666666666</ele><time>2026-04-04T16:15:06.477Z</time></trkpt><trkpt lat="44.2455145" lon="10.0102918"><ele>146.0</ele><time>2026-04-04T16:15:07.473Z</time></trkpt><trkpt lat="44.2456369" lon="10.0105075"><ele>146.0</ele><time>2026-04-04T16:15:08.467Z</time></trkpt><trkpt lat="44.2457581" lon="10.0107028"><ele>146.0</ele><time>2026-04-04T16:15:09.474Z</time></trkpt><trkpt lat="44.2458792" lon="10.0109116"><ele>146.0</ele><time>2026-04-04T16:15:10.489Z</time></trkpt><trkpt lat="44.2460086" lon="10.0111242"><ele>146.66666666666666</ele><time>2026-04-04T16:15:11.475Z</time></trkpt><trkpt lat="44.2461377" lon="10.0113453"><ele>147.33333333333334</ele><time>2026-04-04T16:15:12.478Z</time></trkpt><trkpt lat="44.2462722" lon="10.0115666"><ele>148.0</ele><time>2026-04-04T16:15:13.475Z</time></trkpt><trkpt lat="44.2464003" lon="10.0117875"><ele>148.66666666666669</ele><time>2026-04-04T16:15:14.473Z</time></trkpt><trkpt lat="44.2465157" lon="10.0120062"><ele>149.33333333333334</ele><time>2026-04-04T16:15:15.478Z</time></trkpt><trkpt lat="44.2466153" lon="10.0122125"><ele>150.0</ele><time>2026-04-04T16:15:16.47Z</time></trkpt><trkpt lat="44.2467174" lon="10.0123885"><ele>150.66666666666666</ele><time>2026-04-04T16:15:17.47Z</time></trkpt><trkpt lat="44.2468424" lon="10.0125519"><ele>151.33333333333331</ele><time>2026-04-04T16:15:18.468Z</time></trkpt><trkpt lat="44.2470002" lon="10.0126573"><ele>152.0</ele><time>2026-04-04T16:15:19.475Z</time></trkpt><trkpt lat="44.2471846" lon="10.012709"><ele>153.0</ele><time>2026-04-04T16:15:20.465Z</time></trkpt><trkpt lat="44.2473689" lon="10.0127733"><ele>154.0</ele><time>2026-04-04T16:15:21.469Z</time></trkpt><trkpt lat="44.2475555" lon="10.0128434"><ele>155.0</ele><time>2026-04-04T16:15:22.475Z</time></trkpt><trkpt lat="44.2477421" lon="10.0129126"><ele>155.0</ele><time>2026-04-04T16:15:23.48Z</time></trkpt><trkpt lat="44.2479145" lon="10.0129869"><ele>155.0</ele><time>2026-04-04T16:15:24.48Z</time></trkpt><trkpt lat="44.2480559" lon="10.0130849"><ele>155.0</ele><time>2026-04-04T16:15:25.483Z</time></trkpt><trkpt lat="44.2481735" lon="10.0132213"><ele>156.0</ele><time>2026-04-04T16:15:26.474Z</time></trkpt><trkpt lat="44.2482846" lon="10.013404"><ele>157.0</ele><time>2026-04-04T16:15:27.479Z</time></trkpt><trkpt lat="44.2483857" lon="10.0135638"><ele>158.0</ele><time>2026-04-04T16:15:28.477Z</time></trkpt><trkpt lat="44.248497" lon="10.0136868"><ele>158.0</ele><time>2026-04-04T16:15:29.483Z</time></trkpt><trkpt lat="44.2486349" lon="10.0137409"><ele>158.0</ele><time>2026-04-04T16:15:30.478Z</time></trkpt><trkpt lat="44.2487735" lon="10.0137327"><ele>158.0</ele><time>2026-04-04T16:15:31.48Z</time></trkpt><trkpt lat="44.2489093" lon="10.0136972"><ele>158.0</ele><time>2026-04-04T16:15:32.465Z</time></trkpt><trkpt lat="44.24903" lon="10.0136301"><ele>158.5</ele><time>2026-04-04T16:15:33.48Z</time></trkpt><trkpt lat="44.2491568" lon="10.0135624"><ele>159.0</ele><time>2026-04-04T16:15:34.468Z</time></trkpt><trkpt lat="44.2492752" lon="10.0135109"><ele>159.5</ele><time>2026-04-04T16:15:35.456Z</time></trkpt><trkpt lat="44.2493856" lon="10.0134525"><ele>160.0</ele><time>2026-04-04T16:15:36.461Z</time></trkpt><trkpt lat="44.2494785" lon="10.0133889"><ele>160.0</ele><time>2026-04-04T16:15:37.458Z</time></trkpt><trkpt lat="44.2495708" lon="10.0133249"><ele>160.0</ele><time>2026-04-04T16:15:38.458Z</time></trkpt><trkpt lat="44.2496732" lon="10.0132629"><ele>160.0</ele><time>2026-04-04T16:15:39.46Z</time></trkpt><trkpt lat="44.2497768" lon="10.013211"><ele>160.0</ele><time>2026-04-04T16:15:40.464Z</time></trkpt><trkpt lat="44.2498666" lon="10.0131702"><ele>160.0</ele><time>2026-04-04T16:15:41.462Z</time></trkpt><trkpt lat="44.2499586" lon="10.0131531"><ele>160.5</ele><time>2026-04-04T16:15:43.46Z</time></trkpt><trkpt lat="44.2500331" lon="10.0131353"><ele>161.0</ele><time>2026-04-04T16:15:48.46Z</time></trkpt><trkpt lat="44.2500391" lon="10.0130075"><ele>161.5</ele><time>2026-04-04T16:15:51.468Z</time></trkpt><trkpt lat="44.2499677" lon="10.0128377"><ele>162.0</ele><time>2026-04-04T16:15:52.481Z</time></trkpt><trkpt lat="44.2498901" lon="10.0126204"><ele>161.66666666666666</ele><time>2026-04-04T16:15:53.456Z</time></trkpt><trkpt lat="44.24981" lon="10.0123876"><ele>161.33333333333331</ele><time>2026-04-04T16:15:54.442Z</time></trkpt><trkpt lat="44.2497042" lon="10.0121162"><ele>161.0</ele><time>2026-04-04T16:15:55.45Z</time></trkpt><trkpt lat="44.2495989" lon="10.0118541"><ele>159.66666666666666</ele><time>2026-04-04T16:15:56.452Z</time></trkpt><trkpt lat="44.249513" lon="10.0116177"><ele>158.33333333333334</ele><time>2026-04-04T16:15:57.445Z</time></trkpt><trkpt lat="44.2494252" lon="10.0114095"><ele>157.0</ele><time>2026-04-04T16:15:58.464Z</time></trkpt><trkpt lat="44.2493617" lon="10.0112174"><ele>157.0</ele><time>2026-04-04T16:15:59.465Z</time></trkpt><trkpt lat="44.249303" lon="10.0110306"><ele>157.0</ele><time>2026-04-04T16:16:00.455Z</time></trkpt><trkpt lat="44.2492613" lon="10.0108859"><ele>157.0</ele><time>2026-04-04T16:16:01.462Z</time></trkpt><trkpt lat="44.249206" lon="10.0107762"><ele>157.0</ele><time>2026-04-04T16:16:02.463Z</time></trkpt><trkpt lat="44.2491608" lon="10.0106425"><ele>156.75</ele><time>2026-04-04T16:16:03.465Z</time></trkpt><trkpt lat="44.2491138" lon="10.0104887"><ele>156.5</ele><time>2026-04-04T16:16:04.471Z</time></trkpt><trkpt lat="44.2490596" lon="10.0103288"><ele>156.25</ele><time>2026-04-04T16:16:05.461Z</time></trkpt><trkpt lat="44.2490095" lon="10.0101737"><ele>156.0</ele><time>2026-04-04T16:16:06.474Z</time></trkpt><trkpt lat="44.2489617" lon="10.0100241"><ele>155.8</ele><time>2026-04-04T16:16:07.463Z</time></trkpt><trkpt lat="44.2489145" lon="10.0098828"><ele>155.6</ele><time>2026-04-04T16:16:08.459Z</time></trkpt><trkpt lat="44.2488678" lon="10.0097428"><ele>155.4</ele><time>2026-04-04T16:16:09.459Z</time></trkpt><trkpt lat="44.2488271" lon="10.0096003"><ele>155.2</ele><time>2026-04-04T16:16:10.455Z</time></trkpt><trkpt lat="44.2487886" lon="10.0094644"><ele>155.0</ele><time>2026-04-04T16:16:11.453Z</time></trkpt><trkpt lat="44.248763" lon="10.0093242"><ele>155.0</ele><time>2026-04-04T16:16:12.454Z</time></trkpt><trkpt lat="44.2487534" lon="10.0091761"><ele>155.0</ele><time>2026-04-04T16:16:13.453Z</time></trkpt><trkpt lat="44.2487727" lon="10.0090243"><ele>155.0</ele><time>2026-04-04T16:16:14.446Z</time></trkpt><trkpt lat="44.2488204" lon="10.0088495"><ele>155.0</ele><time>2026-04-04T16:16:15.452Z</time></trkpt><trkpt lat="44.2488802" lon="10.0086451"><ele>154.66666666666666</ele><time>2026-04-04T16:16:16.447Z</time></trkpt><trkpt lat="44.2489429" lon="10.0084259"><ele>154.33333333333334</ele><time>2026-04-04T16:16:17.455Z</time></trkpt><trkpt lat="44.2490008" lon="10.0081993"><ele>154.0</ele><time>2026-04-04T16:16:18.455Z</time></trkpt><trkpt lat="44.2490601" lon="10.0079754"><ele>155.0</ele><time>2026-04-04T16:16:19.466Z</time></trkpt><trkpt lat="44.2491109" lon="10.0077428"><ele>156.0</ele><time>2026-04-04T16:16:20.452Z</time></trkpt><trkpt lat="44.2491619" lon="10.0075182"><ele>157.0</ele><time>2026-04-04T16:16:21.465Z</time></trkpt><trkpt lat="44.2492198" lon="10.0072934"><ele>159.33333333333334</ele><time>2026-04-04T16:16:22.467Z</time></trkpt><trkpt lat="44.2492707" lon="10.0070626"><ele>161.66666666666666</ele><time>2026-04-04T16:16:23.452Z</time></trkpt><trkpt lat="44.2492905" lon="10.0068383"><ele>164.0</ele><time>2026-04-04T16:16:24.458Z</time></trkpt><trkpt lat="44.249273" lon="10.0066317"><ele>166.66666666666666</ele><time>2026-04-04T16:16:25.45Z</time></trkpt><trkpt lat="44.2492432" lon="10.0064314"><ele>169.33333333333334</ele><time>2026-04-04T16:16:26.454Z</time></trkpt><trkpt lat="44.2491933" lon="10.0062271"><ele>172.0</ele><time>2026-04-04T16:16:27.442Z</time></trkpt><trkpt lat="44.2491459" lon="10.00603"><ele>172.75</ele><time>2026-04-04T16:16:28.441Z</time></trkpt><trkpt lat="44.2491017" lon="10.0058282"><ele>173.5</ele><time>2026-04-04T16:16:29.443Z</time></trkpt><trkpt lat="44.2490647" lon="10.005657"><ele>174.25</ele><time>2026-04-04T16:16:30.438Z</time></trkpt><trkpt lat="44.2490371" lon="10.0054926"><ele>175.0</ele><time>2026-04-04T16:16:31.442Z</time></trkpt><trkpt lat="44.2490226" lon="10.0053316"><ele>175.0</ele><time>2026-04-04T16:16:32.443Z</time></trkpt><trkpt lat="44.2490169" lon="10.0051641"><ele>175.0</ele><time>2026-04-04T16:16:33.448Z</time></trkpt><trkpt lat="44.249021" lon="10.0050039"><ele>175.0</ele><time>2026-04-04T16:16:34.44Z</time></trkpt><trkpt lat="44.2490237" lon="10.0048304"><ele>175.0</ele><time>2026-04-04T16:16:35.455Z</time></trkpt><trkpt lat="44.2490141" lon="10.0046304"><ele>174.0</ele><time>2026-04-04T16:16:36.451Z</time></trkpt><trkpt lat="44.248993" lon="10.0044041"><ele>173.0</ele><time>2026-04-04T16:16:37.447Z</time></trkpt><trkpt lat="44.2489454" lon="10.0041861"><ele>172.0</ele><time>2026-04-04T16:16:38.447Z</time></trkpt><trkpt lat="44.2488726" lon="10.0039654"><ele>172.0</ele><time>2026-04-04T16:16:39.449Z</time></trkpt><trkpt lat="44.2487805" lon="10.0037488"><ele>172.0</ele><time>2026-04-04T16:16:40.446Z</time></trkpt><trkpt lat="44.2486942" lon="10.0035297"><ele>172.0</ele><time>2026-04-04T16:16:41.445Z</time></trkpt><trkpt lat="44.2485993" lon="10.0032936"><ele>178.5</ele><time>2026-04-04T16:16:42.446Z</time></trkpt><trkpt lat="44.2484668" lon="10.0030517"><ele>185.0</ele><time>2026-04-04T16:16:43.439Z</time></trkpt><trkpt lat="44.2482932" lon="10.0027814"><ele>185.0</ele><time>2026-04-04T16:16:44.444Z</time></trkpt><trkpt lat="44.2481448" lon="10.0025133"><ele>185.0</ele><time>2026-04-04T16:16:45.439Z</time></trkpt><trkpt lat="44.2480131" lon="10.0022496"><ele>183.33333333333331</ele><time>2026-04-04T16:16:46.441Z</time></trkpt><trkpt lat="44.2478849" lon="10.0019919"><ele>181.66666666666666</ele><time>2026-04-04T16:16:47.444Z</time></trkpt><trkpt lat="44.2477683" lon="10.0017414"><ele>180.0</ele><time>2026-04-04T16:16:48.442Z</time></trkpt><trkpt lat="44.2476631" lon="10.0014894"><ele>184.0</ele><time>2026-04-04T16:16:49.444Z</time></trkpt><trkpt lat="44.247554" lon="10.0012442"><ele>188.0</ele><time>2026-04-04T16:16:50.437Z</time></trkpt><trkpt lat="44.2474602" lon="10.0010087"><ele>192.0</ele><time>2026-04-04T16:16:51.445Z</time></trkpt><trkpt lat="44.2473728" lon="10.000797"><ele>188.33333333333334</ele><time>2026-04-04T16:16:52.454Z</time></trkpt><trkpt lat="44.2472918" lon="10.0005949"><ele>184.66666666666669</ele><time>2026-04-04T16:16:53.443Z</time></trkpt><trkpt lat="44.2472124" lon="10.0004096"><ele>181.0</ele><time>2026-04-04T16:16:54.442Z</time></trkpt><trkpt lat="44.2471596" lon="10.0002376"><ele>181.0</ele><time>2026-04-04T16:16:55.441Z</time></trkpt><trkpt lat="44.2471271" lon="10.0000479"><ele>181.0</ele><time>2026-04-04T16:16:56.438Z</time></trkpt><trkpt lat="44.2471168" lon="9.9998381"><ele>181.0</ele><time>2026-04-04T16:16:57.445Z</time></trkpt><trkpt lat="44.2471422" lon="9.9996088"><ele>181.0</ele><time>2026-04-04T16:16:58.457Z</time></trkpt><trkpt lat="44.2471961" lon="9.9993845"><ele>181.0</ele><time>2026-04-04T16:16:59.457Z</time></trkpt><trkpt lat="44.2472803" lon="9.9991943"><ele>181.0</ele><time>2026-04-04T16:17:00.459Z</time></trkpt><trkpt lat="44.2473988" lon="9.9990794"><ele>187.33333333333334</ele><time>2026-04-04T16:17:01.456Z</time></trkpt><trkpt lat="44.2475406" lon="9.9989967"><ele>193.66666666666669</ele><time>2026-04-04T16:17:02.451Z</time></trkpt><trkpt lat="44.2476807" lon="9.9989428"><ele>200.0</ele><time>2026-04-04T16:17:03.456Z</time></trkpt><trkpt lat="44.2478355" lon="9.9989332"><ele>200.0</ele><time>2026-04-04T16:17:04.451Z</time></trkpt><trkpt lat="44.2479982" lon="9.9989691"><ele>200.0</ele><time>2026-04-04T16:17:05.462Z</time></trkpt><trkpt lat="44.24817" lon="9.999067"><ele>200.0</ele><time>2026-04-04T16:17:06.457Z</time></trkpt><trkpt lat="44.2483589" lon="9.9991978"><ele>198.0</ele><time>2026-04-04T16:17:07.446Z</time></trkpt><trkpt lat="44.2485615" lon="9.9993074"><ele>196.0</ele><time>2026-04-04T16:17:08.44Z</time></trkpt><trkpt lat="44.248777" lon="9.9994221"><ele>194.0</ele><time>2026-04-04T16:17:09.445Z</time></trkpt><trkpt lat="44.2489853" lon="9.9995434"><ele>194.0</ele><time>2026-04-04T16:17:10.44Z</time></trkpt><trkpt lat="44.2491679" lon="9.9996812"><ele>194.0</ele><time>2026-04-04T16:17:11.447Z</time></trkpt><trkpt lat="44.249326" lon="9.9997982"><ele>194.0</ele><time>2026-04-04T16:17:12.439Z</time></trkpt><trkpt lat="44.2494778" lon="9.9998564"><ele>194.0</ele><time>2026-04-04T16:17:13.441Z</time></trkpt><trkpt lat="44.2496292" lon="9.9998362"><ele>194.0</ele><time>2026-04-04T16:17:14.439Z</time></trkpt><trkpt lat="44.2497656" lon="9.9997279"><ele>194.0</ele><time>2026-04-04T16:17:15.449Z</time></trkpt><trkpt lat="44.2498626" lon="9.9995503"><ele>192.66666666666669</ele><time>2026-04-04T16:17:16.449Z</time></trkpt><trkpt lat="44.2499139" lon="9.9993527"><ele>191.33333333333334</ele><time>2026-04-04T16:17:17.448Z</time></trkpt><trkpt lat="44.2499307" lon="9.999119"><ele>190.0</ele><time>2026-04-04T16:17:18.45Z</time></trkpt><trkpt lat="44.2498975" lon="9.9988192"><ele>186.66666666666669</ele><time>2026-04-04T16:17:19.441Z</time></trkpt><trkpt lat="44.2498689" lon="9.9985028"><ele>183.33333333333334</ele><time>2026-04-04T16:17:20.433Z</time></trkpt><trkpt lat="44.249841" lon="9.9982561"><ele>180.0</ele><time>2026-04-04T16:17:21.451Z</time></trkpt><trkpt lat="44.2498502" lon="9.9980799"><ele>178.0</ele><time>2026-04-04T16:17:22.449Z</time></trkpt><trkpt lat="44.2498718" lon="9.9979125"><ele>176.0</ele><time>2026-04-04T16:17:23.435Z</time></trkpt><trkpt lat="44.2499334" lon="9.9977822"><ele>174.0</ele><time>2026-04-04T16:17:24.452Z</time></trkpt><trkpt lat="44.2500426" lon="9.99773"><ele>172.0</ele><time>2026-04-04T16:17:25.443Z</time></trkpt><trkpt lat="44.2501702" lon="9.9977346"><ele>172.0</ele><time>2026-04-04T16:17:26.441Z</time></trkpt><trkpt lat="44.2503005" lon="9.9978419"><ele>172.0</ele><time>2026-04-04T16:17:27.448Z</time></trkpt><trkpt lat="44.2503933" lon="9.9979954"><ele>172.0</ele><time>2026-04-04T16:17:28.442Z</time></trkpt><trkpt lat="44.2504355" lon="9.9981985"><ele>172.0</ele><time>2026-04-04T16:17:29.452Z</time></trkpt><trkpt lat="44.2504453" lon="9.9984589"><ele>174.66666666666669</ele><time>2026-04-04T16:17:30.431Z</time></trkpt><trkpt lat="44.2504596" lon="9.9987094"><ele>177.33333333333334</ele><time>2026-04-04T16:17:31.43Z</time></trkpt><trkpt lat="44.2504828" lon="9.9989354"><ele>180.0</ele><time>2026-04-04T16:17:32.432Z</time></trkpt><trkpt lat="44.2505983" lon="9.9990786"><ele>181.33333333333334</ele><time>2026-04-04T16:17:33.447Z</time></trkpt><trkpt lat="44.2507611" lon="9.9991826"><ele>182.66666666666669</ele><time>2026-04-04T16:17:34.439Z</time></trkpt><trkpt lat="44.2509117" lon="9.9991997"><ele>184.0</ele><time>2026-04-04T16:17:35.431Z</time></trkpt><trkpt lat="44.251068" lon="9.9991545"><ele>181.0</ele><time>2026-04-04T16:17:36.434Z</time></trkpt><trkpt lat="44.2512321" lon="9.9990212"><ele>178.0</ele><time>2026-04-04T16:17:37.441Z</time></trkpt><trkpt lat="44.251406" lon="9.9988354"><ele>175.0</ele><time>2026-04-04T16:17:38.44Z</time></trkpt><trkpt lat="44.2515611" lon="9.9986026"><ele>172.33333333333334</ele><time>2026-04-04T16:17:39.435Z</time></trkpt><trkpt lat="44.251707" lon="9.9984103"><ele>169.66666666666666</ele><time>2026-04-04T16:17:40.446Z</time></trkpt><trkpt lat="44.2518347" lon="9.9982656"><ele>167.0</ele><time>2026-04-04T16:17:41.446Z</time></trkpt><trkpt lat="44.2519468" lon="9.9981707"><ele>164.25</ele><time>2026-04-04T16:17:42.432Z</time></trkpt><trkpt lat="44.2520661" lon="9.9981238"><ele>161.5</ele><time>2026-04-04T16:17:43.445Z</time></trkpt><trkpt lat="44.2522067" lon="9.998156"><ele>158.75</ele><time>2026-04-04T16:17:44.453Z</time></trkpt><trkpt lat="44.2523504" lon="9.9983077"><ele>156.0</ele><time>2026-04-04T16:17:45.451Z</time></trkpt><trkpt lat="44.2524467" lon="9.9985164"><ele>155.0</ele><time>2026-04-04T16:17:46.452Z</time></trkpt><trkpt lat="44.252494" lon="9.9987703"><ele>154.0</ele><time>2026-04-04T16:17:47.443Z</time></trkpt><trkpt lat="44.2525254" lon="9.999037"><ele>153.0</ele><time>2026-04-04T16:17:48.44Z</time></trkpt><trkpt lat="44.2526014" lon="9.9992998"><ele>153.0</ele><time>2026-04-04T16:17:49.45Z</time></trkpt><trkpt lat="44.2526644" lon="9.9995503"><ele>153.0</ele><time>2026-04-04T16:17:50.437Z</time></trkpt><trkpt lat="44.2527382" lon="9.999774"><ele>153.0</ele><time>2026-04-04T16:17:51.442Z</time></trkpt><trkpt lat="44.2528208" lon="9.9999371"><ele>153.0</ele><time>2026-04-04T16:17:52.457Z</time></trkpt><trkpt lat="44.2529628" lon="10.000031"><ele>153.0</ele><time>2026-04-04T16:17:53.441Z</time></trkpt><trkpt lat="44.2531363" lon="10.0000295"><ele>153.0</ele><time>2026-04-04T16:17:54.45Z</time></trkpt><trkpt lat="44.2533461" lon="9.999982"><ele>150.33333333333334</ele><time>2026-04-04T16:17:55.439Z</time></trkpt><trkpt lat="44.2535723" lon="9.9999679"><ele>147.66666666666669</ele><time>2026-04-04T16:17:56.42Z</time></trkpt><trkpt lat="44.2537614" lon="10.0000201"><ele>145.0</ele><time>2026-04-04T16:17:57.429Z</time></trkpt><trkpt lat="44.2539455" lon="10.0001246"><ele>141.66666666666669</ele><time>2026-04-04T16:17:58.44Z</time></trkpt><trkpt lat="44.254139" lon="10.0002764"><ele>138.33333333333334</ele><time>2026-04-04T16:17:59.44Z</time></trkpt><trkpt lat="44.2543102" lon="10.0003681"><ele>135.0</ele><time>2026-04-04T16:18:00.443Z</time></trkpt><trkpt lat="44.2544982" lon="10.0003992"><ele>135.0</ele><time>2026-04-04T16:18:01.449Z</time></trkpt><trkpt lat="44.2546968" lon="10.0003669"><ele>135.0</ele><time>2026-04-04T16:18:02.445Z</time></trkpt><trkpt lat="44.2548848" lon="10.0002534"><ele>135.0</ele><time>2026-04-04T16:18:03.439Z</time></trkpt><trkpt lat="44.255055" lon="10.0000515"><ele>133.5</ele><time>2026-04-04T16:18:04.445Z</time></trkpt><trkpt lat="44.2552288" lon="9.9998107"><ele>132.0</ele><time>2026-04-04T16:18:05.445Z</time></trkpt><trkpt lat="44.2554101" lon="9.9995328"><ele>132.0</ele><time>2026-04-04T16:18:06.439Z</time></trkpt><trkpt lat="44.2555594" lon="9.9993313"><ele>132.0</ele><time>2026-04-04T16:18:07.441Z</time></trkpt><trkpt lat="44.2556829" lon="9.9991543"><ele>132.0</ele><time>2026-04-04T16:18:08.434Z</time></trkpt><trkpt lat="44.2557882" lon="9.9989653"><ele>132.66666666666666</ele><time>2026-04-04T16:18:09.441Z</time></trkpt><trkpt lat="44.2558619" lon="9.9987535"><ele>133.33333333333331</ele><time>2026-04-04T16:18:10.44Z</time></trkpt><trkpt lat="44.2558748" lon="9.9984788"><ele>134.0</ele><time>2026-04-04T16:18:11.442Z</time></trkpt><trkpt lat="44.2558576" lon="9.9981885"><ele>134.0</ele><time>2026-04-04T16:18:12.453Z</time></trkpt><trkpt lat="44.2557987" lon="9.9979104"><ele>134.0</ele><time>2026-04-04T16:18:13.435Z</time></trkpt><trkpt lat="44.2557468" lon="9.9976295"><ele>134.0</ele><time>2026-04-04T16:18:14.445Z</time></trkpt><trkpt lat="44.2557242" lon="9.9974289"><ele>135.33333333333331</ele><time>2026-04-04T16:18:15.454Z</time></trkpt><trkpt lat="44.255712" lon="9.9972302"><ele>136.66666666666666</ele><time>2026-04-04T16:18:16.452Z</time></trkpt><trkpt lat="44.2557617" lon="9.9970262"><ele>138.0</ele><time>2026-04-04T16:18:17.455Z</time></trkpt><trkpt lat="44.2558408" lon="9.9968263"><ele>137.66666666666666</ele><time>2026-04-04T16:18:18.445Z</time></trkpt><trkpt lat="44.2559497" lon="9.9965887"><ele>137.33333333333331</ele><time>2026-04-04T16:18:19.451Z</time></trkpt><trkpt lat="44.2560706" lon="9.9963016"><ele>137.0</ele><time>2026-04-04T16:18:20.455Z</time></trkpt><trkpt lat="44.2562046" lon="9.9959834"><ele>134.5</ele><time>2026-04-04T16:18:21.459Z</time></trkpt><trkpt lat="44.256324" lon="9.9957042"><ele>132.0</ele><time>2026-04-04T16:18:22.463Z</time></trkpt><trkpt lat="44.2564361" lon="9.9954403"><ele>135.66666666666666</ele><time>2026-04-04T16:18:23.45Z</time></trkpt><trkpt lat="44.2565409" lon="9.9951986"><ele>139.33333333333331</ele><time>2026-04-04T16:18:24.451Z</time></trkpt><trkpt lat="44.2566345" lon="9.9949837"><ele>143.0</ele><time>2026-04-04T16:18:25.451Z</time></trkpt><trkpt lat="44.2567231" lon="9.9947834"><ele>143.0</ele><time>2026-04-04T16:18:26.467Z</time></trkpt><trkpt lat="44.2568153" lon="9.9945749"><ele>143.0</ele><time>2026-04-04T16:18:27.458Z</time></trkpt><trkpt lat="44.2569224" lon="9.9943676"><ele>143.0</ele><time>2026-04-04T16:18:28.461Z</time></trkpt><trkpt lat="44.2570412" lon="9.9941335"><ele>144.33333333333331</ele><time>2026-04-04T16:18:29.46Z</time></trkpt><trkpt lat="44.2571632" lon="9.9938983"><ele>145.66666666666666</ele><time>2026-04-04T16:18:30.452Z</time></trkpt><trkpt lat="44.2572716" lon="9.9936927"><ele>147.0</ele><time>2026-04-04T16:18:31.459Z</time></trkpt><trkpt lat="44.2573878" lon="9.9935129"><ele>147.0</ele><time>2026-04-04T16:18:32.456Z</time></trkpt><trkpt lat="44.2575338" lon="9.9933628"><ele>147.0</ele><time>2026-04-04T16:18:33.452Z</time></trkpt><trkpt lat="44.2577" lon="9.9932382"><ele>147.0</ele><time>2026-04-04T16:18:34.453Z</time></trkpt><trkpt lat="44.2578877" lon="9.9931159"><ele>147.5</ele><time>2026-04-04T16:18:35.453Z</time></trkpt><trkpt lat="44.2580959" lon="9.9929718"><ele>148.0</ele><time>2026-04-04T16:18:36.445Z</time></trkpt><trkpt lat="44.2582966" lon="9.9928513"><ele>148.0</ele><time>2026-04-04T16:18:37.452Z</time></trkpt><trkpt lat="44.2584923" lon="9.9927348"><ele>148.0</ele><time>2026-04-04T16:18:38.457Z</time></trkpt><trkpt lat="44.2586717" lon="9.992653"><ele>148.0</ele><time>2026-04-04T16:18:39.448Z</time></trkpt><trkpt lat="44.2588558" lon="9.9926053"><ele>148.66666666666669</ele><time>2026-04-04T16:18:40.454Z</time></trkpt><trkpt lat="44.2590429" lon="9.9926279"><ele>149.33333333333334</ele><time>2026-04-04T16:18:41.455Z</time></trkpt><trkpt lat="44.2592282" lon="9.9926867"><ele>150.0</ele><time>2026-04-04T16:18:42.449Z</time></trkpt><trkpt lat="44.2594238" lon="9.992765"><ele>150.0</ele><time>2026-04-04T16:18:43.457Z</time></trkpt><trkpt lat="44.259623" lon="9.9928542"><ele>150.0</ele><time>2026-04-04T16:18:44.458Z</time></trkpt><trkpt lat="44.2598222" lon="9.9929368"><ele>150.0</ele><time>2026-04-04T16:18:45.459Z</time></trkpt><trkpt lat="44.26002" lon="9.9930283"><ele>149.0</ele><time>2026-04-04T16:18:46.473Z</time></trkpt><trkpt lat="44.2601998" lon="9.9930932"><ele>148.0</ele><time>2026-04-04T16:18:47.462Z</time></trkpt><trkpt lat="44.2604072" lon="9.9931068"><ele>147.0</ele><time>2026-04-04T16:18:48.465Z</time></trkpt><trkpt lat="44.2606226" lon="9.9930941"><ele>146.0</ele><time>2026-04-04T16:18:49.455Z</time></trkpt><trkpt lat="44.2608267" lon="9.9930757"><ele>145.0</ele><time>2026-04-04T16:18:50.455Z</time></trkpt><trkpt lat="44.2610169" lon="9.9930629"><ele>144.0</ele><time>2026-04-04T16:18:51.453Z</time></trkpt><trkpt lat="44.2611965" lon="9.9930537"><ele>144.0</ele><time>2026-04-04T16:18:52.464Z</time></trkpt><trkpt lat="44.2613566" lon="9.9930446"><ele>144.0</ele><time>2026-04-04T16:18:53.46Z</time></trkpt><trkpt lat="44.2615128" lon="9.9930332"><ele>144.0</ele><time>2026-04-04T16:18:54.454Z</time></trkpt><trkpt lat="44.2616527" lon="9.9930289"><ele>143.75</ele><time>2026-04-04T16:18:55.453Z</time></trkpt><trkpt lat="44.2617868" lon="9.9930171"><ele>143.5</ele><time>2026-04-04T16:18:56.458Z</time></trkpt><trkpt lat="44.261915" lon="9.9930027"><ele>143.25</ele><time>2026-04-04T16:18:57.46Z</time></trkpt><trkpt lat="44.2620472" lon="9.9930043"><ele>143.0</ele><time>2026-04-04T16:18:58.455Z</time></trkpt><trkpt lat="44.2621684" lon="9.9929949"><ele>145.25</ele><time>2026-04-04T16:18:59.453Z</time></trkpt><trkpt lat="44.2622961" lon="9.9929607"><ele>147.5</ele><time>2026-04-04T16:19:00.48Z</time></trkpt><trkpt lat="44.2624156" lon="9.9929004"><ele>149.75</ele><time>2026-04-04T16:19:01.475Z</time></trkpt><trkpt lat="44.262537" lon="9.9928098"><ele>152.0</ele><time>2026-04-04T16:19:02.479Z</time></trkpt><trkpt lat="44.2626463" lon="9.9927076"><ele>152.0</ele><time>2026-04-04T16:19:03.452Z</time></trkpt><trkpt lat="44.2627418" lon="9.9925562"><ele>152.0</ele><time>2026-04-04T16:19:04.454Z</time></trkpt><trkpt lat="44.2628381" lon="9.9924028"><ele>152.0</ele><time>2026-04-04T16:19:05.453Z</time></trkpt><trkpt lat="44.2629169" lon="9.9922234"><ele>152.0</ele><time>2026-04-04T16:19:06.458Z</time></trkpt><trkpt lat="44.262984" lon="9.9920256"><ele>149.33333333333331</ele><time>2026-04-04T16:19:07.449Z</time></trkpt><trkpt lat="44.2630485" lon="9.9918259"><ele>146.66666666666666</ele><time>2026-04-04T16:19:08.455Z</time></trkpt><trkpt lat="44.2631112" lon="9.9916252"><ele>144.0</ele><time>2026-04-04T16:19:09.465Z</time></trkpt><trkpt lat="44.2631784" lon="9.9914247"><ele>144.0</ele><time>2026-04-04T16:19:10.455Z</time></trkpt><trkpt lat="44.2632485" lon="9.9912245"><ele>144.0</ele><time>2026-04-04T16:19:11.455Z</time></trkpt><trkpt lat="44.2633175" lon="9.9910322"><ele>144.0</ele><time>2026-04-04T16:19:12.458Z</time></trkpt><trkpt lat="44.2633796" lon="9.9908553"><ele>142.75</ele><time>2026-04-04T16:19:13.459Z</time></trkpt><trkpt lat="44.2634386" lon="9.9906751"><ele>141.5</ele><time>2026-04-04T16:19:14.454Z</time></trkpt><trkpt lat="44.2635175" lon="9.9905256"><ele>140.25</ele><time>2026-04-04T16:19:15.458Z</time></trkpt><trkpt lat="44.2636209" lon="9.9903655"><ele>139.0</ele><time>2026-04-04T16:19:16.45Z</time></trkpt><trkpt lat="44.2637308" lon="9.9902376"><ele>139.0</ele><time>2026-04-04T16:19:17.456Z</time></trkpt><trkpt lat="44.263862" lon="9.9901342"><ele>139.0</ele><time>2026-04-04T16:19:18.456Z</time></trkpt><trkpt lat="44.264" lon="9.990061"><ele>139.0</ele><time>2026-04-04T16:19:19.443Z</time></trkpt><trkpt lat="44.2641444" lon="9.9900061"><ele>139.0</ele><time>2026-04-04T16:19:20.446Z</time></trkpt><trkpt lat="44.2642884" lon="9.9899486"><ele>140.25</ele><time>2026-04-04T16:19:21.453Z</time></trkpt><trkpt lat="44.2644294" lon="9.9898727"><ele>141.5</ele><time>2026-04-04T16:19:22.445Z</time></trkpt><trkpt lat="44.2645694" lon="9.9898032"><ele>142.75</ele><time>2026-04-04T16:19:23.442Z</time></trkpt><trkpt lat="44.2647036" lon="9.9897191"><ele>144.0</ele><time>2026-04-04T16:19:24.437Z</time></trkpt><trkpt lat="44.2648251" lon="9.9895912"><ele>148.66666666666666</ele><time>2026-04-04T16:19:25.445Z</time></trkpt><trkpt lat="44.2649423" lon="9.9894457"><ele>153.33333333333331</ele><time>2026-04-04T16:19:26.45Z</time></trkpt><trkpt lat="44.2650634" lon="9.9893"><ele>158.0</ele><time>2026-04-04T16:19:27.448Z</time></trkpt><trkpt lat="44.2651872" lon="9.98919"><ele>154.33333333333331</ele><time>2026-04-04T16:19:28.449Z</time></trkpt><trkpt lat="44.2653357" lon="9.9890856"><ele>150.66666666666666</ele><time>2026-04-04T16:19:29.449Z</time></trkpt><trkpt lat="44.2654721" lon="9.9890031"><ele>147.0</ele><time>2026-04-04T16:19:30.453Z</time></trkpt><trkpt lat="44.2656379" lon="9.9889891"><ele>147.0</ele><time>2026-04-04T16:19:31.456Z</time></trkpt><trkpt lat="44.2658011" lon="9.9889839"><ele>147.0</ele><time>2026-04-04T16:19:32.447Z</time></trkpt><trkpt lat="44.2659603" lon="9.9889912"><ele>147.0</ele><time>2026-04-04T16:19:33.45Z</time></trkpt><trkpt lat="44.2661227" lon="9.9890067"><ele>147.0</ele><time>2026-04-04T16:19:34.446Z</time></trkpt><trkpt lat="44.2662986" lon="9.989042"><ele>147.0</ele><time>2026-04-04T16:19:35.447Z</time></trkpt><trkpt lat="44.2664631" lon="9.9890797"><ele>147.0</ele><time>2026-04-04T16:19:36.443Z</time></trkpt><trkpt lat="44.2666278" lon="9.9891117"><ele>146.66666666666666</ele><time>2026-04-04T16:19:37.446Z</time></trkpt><trkpt lat="44.2667869" lon="9.9891574"><ele>146.33333333333331</ele><time>2026-04-04T16:19:38.443Z</time></trkpt><trkpt lat="44.2669438" lon="9.9891911"><ele>146.0</ele><time>2026-04-04T16:19:39.445Z</time></trkpt><trkpt lat="44.2670951" lon="9.9892707"><ele>151.33333333333331</ele><time>2026-04-04T16:19:40.443Z</time></trkpt><trkpt lat="44.2672457" lon="9.9894053"><ele>156.66666666666666</ele><time>2026-04-04T16:19:41.439Z</time></trkpt><trkpt lat="44.267389" lon="9.98952"><ele>162.0</ele><time>2026-04-04T16:19:42.425Z</time></trkpt><trkpt lat="44.2675385" lon="9.9896309"><ele>162.0</ele><time>2026-04-04T16:19:43.415Z</time></trkpt><trkpt lat="44.2676869" lon="9.9897076"><ele>162.0</ele><time>2026-04-04T16:19:44.422Z</time></trkpt><trkpt lat="44.2678367" lon="9.9897252"><ele>162.0</ele><time>2026-04-04T16:19:45.411Z</time></trkpt><trkpt lat="44.2679999" lon="9.9896844"><ele>156.0</ele><time>2026-04-04T16:19:46.419Z</time></trkpt><trkpt lat="44.2681446" lon="9.9896319"><ele>150.0</ele><time>2026-04-04T16:19:47.431Z</time></trkpt><trkpt lat="44.2682964" lon="9.9895941"><ele>144.0</ele><time>2026-04-04T16:19:48.439Z</time></trkpt><trkpt lat="44.2684509" lon="9.9895575"><ele>144.0</ele><time>2026-04-04T16:19:49.419Z</time></trkpt><trkpt lat="44.2685817" lon="9.9895667"><ele>144.0</ele><time>2026-04-04T16:19:50.422Z</time></trkpt><trkpt lat="44.268701" lon="9.9896268"><ele>144.0</ele><time>2026-04-04T16:19:51.413Z</time></trkpt><trkpt lat="44.2687939" lon="9.9897509"><ele>144.0</ele><time>2026-04-04T16:19:52.427Z</time></trkpt><trkpt lat="44.2688565" lon="9.9899188"><ele>144.4</ele><time>2026-04-04T16:19:53.425Z</time></trkpt><trkpt lat="44.268898" lon="9.9900834"><ele>144.8</ele><time>2026-04-04T16:19:54.424Z</time></trkpt><trkpt lat="44.2689274" lon="9.9902358"><ele>145.2</ele><time>2026-04-04T16:19:55.429Z</time></trkpt><trkpt lat="44.268957" lon="9.9903685"><ele>145.6</ele><time>2026-04-04T16:19:56.426Z</time></trkpt><trkpt lat="44.2689859" lon="9.9905031"><ele>146.0</ele><time>2026-04-04T16:19:57.419Z</time></trkpt><trkpt lat="44.2690148" lon="9.990628"><ele>146.8</ele><time>2026-04-04T16:19:58.432Z</time></trkpt><trkpt lat="44.2690482" lon="9.9907556"><ele>147.6</ele><time>2026-04-04T16:19:59.427Z</time></trkpt><trkpt lat="44.2690827" lon="9.9908973"><ele>148.4</ele><time>2026-04-04T16:20:00.426Z</time></trkpt><trkpt lat="44.2691185" lon="9.9910461"><ele>149.2</ele><time>2026-04-04T16:20:01.428Z</time></trkpt><trkpt lat="44.2691552" lon="9.9912069"><ele>150.0</ele><time>2026-04-04T16:20:02.429Z</time></trkpt><trkpt lat="44.2691931" lon="9.991367"><ele>150.0</ele><time>2026-04-04T16:20:03.426Z</time></trkpt><trkpt lat="44.2692409" lon="9.9915283"><ele>150.0</ele><time>2026-04-04T16:20:04.43Z</time></trkpt><trkpt lat="44.2693131" lon="9.9916654"><ele>150.0</ele><time>2026-04-04T16:20:05.436Z</time></trkpt><trkpt lat="44.2694062" lon="9.9917893"><ele>150.0</ele><time>2026-04-04T16:20:06.431Z</time></trkpt><trkpt lat="44.2695084" lon="9.9918882"><ele>148.25</ele><time>2026-04-04T16:20:07.422Z</time></trkpt><trkpt lat="44.2696198" lon="9.9919737"><ele>146.5</ele><time>2026-04-04T16:20:08.429Z</time></trkpt><trkpt lat="44.2697299" lon="9.9920628"><ele>144.75</ele><time>2026-04-04T16:20:09.43Z</time></trkpt><trkpt lat="44.2698231" lon="9.9921772"><ele>143.0</ele><time>2026-04-04T16:20:10.425Z</time></trkpt><trkpt lat="44.2698959" lon="9.9923133"><ele>145.5</ele><time>2026-04-04T16:20:11.431Z</time></trkpt><trkpt lat="44.269952" lon="9.9924558"><ele>148.0</ele><time>2026-04-04T16:20:12.423Z</time></trkpt><trkpt lat="44.2699964" lon="9.9926071"><ele>150.5</ele><time>2026-04-04T16:20:13.416Z</time></trkpt><trkpt lat="44.2700486" lon="9.9927514"><ele>153.0</ele><time>2026-04-04T16:20:14.427Z</time></trkpt><trkpt lat="44.2701129" lon="9.9928849"><ele>153.0</ele><time>2026-04-04T16:20:15.421Z</time></trkpt><trkpt lat="44.2701884" lon="9.9930051"><ele>153.0</ele><time>2026-04-04T16:20:16.416Z</time></trkpt><trkpt lat="44.270279" lon="9.9931123"><ele>153.0</ele><time>2026-04-04T16:20:17.434Z</time></trkpt><trkpt lat="44.2703789" lon="9.9932203"><ele>153.0</ele><time>2026-04-04T16:20:18.439Z</time></trkpt><trkpt lat="44.2704756" lon="9.9933195"><ele>154.0</ele><time>2026-04-04T16:20:19.431Z</time></trkpt><trkpt lat="44.2705719" lon="9.9934098"><ele>155.0</ele><time>2026-04-04T16:20:20.434Z</time></trkpt><trkpt lat="44.2706683" lon="9.9934889"><ele>156.0</ele><time>2026-04-04T16:20:21.442Z</time></trkpt><trkpt lat="44.270765" lon="9.9935622"><ele>157.0</ele><time>2026-04-04T16:20:22.441Z</time></trkpt><trkpt lat="44.2708649" lon="9.9936"><ele>158.0</ele><time>2026-04-04T16:20:23.435Z</time></trkpt><trkpt lat="44.2709736" lon="9.9936146"><ele>158.0</ele><time>2026-04-04T16:20:24.444Z</time></trkpt><trkpt lat="44.2710862" lon="9.993616"><ele>158.0</ele><time>2026-04-04T16:20:25.429Z</time></trkpt><trkpt lat="44.2712005" lon="9.9936244"><ele>158.0</ele><time>2026-04-04T16:20:26.435Z</time></trkpt><trkpt lat="44.2713132" lon="9.9936291"><ele>158.0</ele><time>2026-04-04T16:20:27.433Z</time></trkpt><trkpt lat="44.2714254" lon="9.9936411"><ele>158.5</ele><time>2026-04-04T16:20:28.442Z</time></trkpt><trkpt lat="44.2715402" lon="9.9936495"><ele>159.0</ele><time>2026-04-04T16:20:29.439Z</time></trkpt><trkpt lat="44.2716562" lon="9.9936663"><ele>159.5</ele><time>2026-04-04T16:20:30.431Z</time></trkpt><trkpt lat="44.2717713" lon="9.9936874"><ele>160.0</ele><time>2026-04-04T16:20:31.427Z</time></trkpt><trkpt lat="44.2718844" lon="9.9937006"><ele>160.0</ele><time>2026-04-04T16:20:32.426Z</time></trkpt><trkpt lat="44.2719928" lon="9.9937223"><ele>160.0</ele><time>2026-04-04T16:20:33.44Z</time></trkpt><trkpt lat="44.2721027" lon="9.9937404"><ele>160.0</ele><time>2026-04-04T16:20:34.42Z</time></trkpt><trkpt lat="44.2722157" lon="9.993767"><ele>160.0</ele><time>2026-04-04T16:20:35.436Z</time></trkpt><trkpt lat="44.2723299" lon="9.9937887"><ele>161.25</ele><time>2026-04-04T16:20:36.432Z</time></trkpt><trkpt lat="44.2724458" lon="9.993813"><ele>162.5</ele><time>2026-04-04T16:20:37.434Z</time></trkpt><trkpt lat="44.2725612" lon="9.9938365"><ele>163.75</ele><time>2026-04-04T16:20:38.433Z</time></trkpt><trkpt lat="44.2726756" lon="9.9938561"><ele>165.0</ele><time>2026-04-04T16:20:39.426Z</time></trkpt><trkpt lat="44.2727966" lon="9.9938741"><ele>165.0</ele><time>2026-04-04T16:20:40.436Z</time></trkpt><trkpt lat="44.2729285" lon="9.9938957"><ele>165.0</ele><time>2026-04-04T16:20:41.433Z</time></trkpt><trkpt lat="44.273077" lon="9.9939249"><ele>165.0</ele><time>2026-04-04T16:20:42.441Z</time></trkpt><trkpt lat="44.2732379" lon="9.9939648"><ele>165.0</ele><time>2026-04-04T16:20:43.434Z</time></trkpt><trkpt lat="44.2734299" lon="9.9939946"><ele>168.0</ele><time>2026-04-04T16:20:44.412Z</time></trkpt><trkpt lat="44.2736493" lon="9.994001"><ele>171.0</ele><time>2026-04-04T16:20:45.425Z</time></trkpt><trkpt lat="44.2739475" lon="9.9939601"><ele>171.5</ele><time>2026-04-04T16:20:46.414Z</time></trkpt><trkpt lat="44.2742689" lon="9.9939183"><ele>172.0</ele><time>2026-04-04T16:20:47.408Z</time></trkpt><trkpt lat="44.2745764" lon="9.9938679"><ele>174.0</ele><time>2026-04-04T16:20:48.42Z</time></trkpt><trkpt lat="44.2748634" lon="9.9938459"><ele>176.0</ele><time>2026-04-04T16:20:49.422Z</time></trkpt><trkpt lat="44.2751646" lon="9.9938433"><ele>176.0</ele><time>2026-04-04T16:20:50.434Z</time></trkpt><trkpt lat="44.2754982" lon="9.9938669"><ele>176.0</ele><time>2026-04-04T16:20:51.446Z</time></trkpt><trkpt lat="44.2758099" lon="9.9939192"><ele>177.0</ele><time>2026-04-04T16:20:52.462Z</time></trkpt><trkpt lat="44.2760954" lon="9.9939594"><ele>178.0</ele><time>2026-04-04T16:20:53.448Z</time></trkpt><trkpt lat="44.2763482" lon="9.9939969"><ele>178.5</ele><time>2026-04-04T16:20:54.457Z</time></trkpt><trkpt lat="44.2765885" lon="9.99403"><ele>179.0</ele><time>2026-04-04T16:20:55.457Z</time></trkpt><trkpt lat="44.2768088" lon="9.9940714"><ele>179.0</ele><time>2026-04-04T16:20:56.461Z</time></trkpt><trkpt lat="44.2770252" lon="9.9941037"><ele>179.0</ele><time>2026-04-04T16:20:57.47Z</time></trkpt><trkpt lat="44.2772332" lon="9.9941149"><ele>179.0</ele><time>2026-04-04T16:20:58.469Z</time></trkpt><trkpt lat="44.2774564" lon="9.9940421"><ele>181.0</ele><time>2026-04-04T16:20:59.468Z</time></trkpt><trkpt lat="44.2776954" lon="9.9939202"><ele>183.0</ele><time>2026-04-04T16:21:00.469Z</time></trkpt><trkpt lat="44.2779284" lon="9.9938043"><ele>182.0</ele><time>2026-04-04T16:21:01.463Z</time></trkpt><trkpt lat="44.2781366" lon="9.9936899"><ele>181.0</ele><time>2026-04-04T16:21:02.46Z</time></trkpt><trkpt lat="44.2782942" lon="9.9935552"><ele>180.0</ele><time>2026-04-04T16:21:03.462Z</time></trkpt><trkpt lat="44.2784168" lon="9.9933607"><ele>182.66666666666666</ele><time>2026-04-04T16:21:04.46Z</time></trkpt><trkpt lat="44.2785437" lon="9.9931839"><ele>185.33333333333331</ele><time>2026-04-04T16:21:05.459Z</time></trkpt><trkpt lat="44.2786981" lon="9.9930416"><ele>188.0</ele><time>2026-04-04T16:21:06.454Z</time></trkpt><trkpt lat="44.2788653" lon="9.9929322"><ele>189.66666666666666</ele><time>2026-04-04T16:21:07.459Z</time></trkpt><trkpt lat="44.2790202" lon="9.9928848"><ele>191.33333333333331</ele><time>2026-04-04T16:21:08.468Z</time></trkpt><trkpt lat="44.2791909" lon="9.9928976"><ele>193.0</ele><time>2026-04-04T16:21:09.454Z</time></trkpt><trkpt lat="44.2793504" lon="9.9928862"><ele>193.0</ele><time>2026-04-04T16:21:10.452Z</time></trkpt><trkpt lat="44.2795063" lon="9.9928292"><ele>193.0</ele><time>2026-04-04T16:21:11.455Z</time></trkpt><trkpt lat="44.2796579" lon="9.9926822"><ele>193.0</ele><time>2026-04-04T16:21:12.447Z</time></trkpt><trkpt lat="44.2798116" lon="9.992545"><ele>191.0</ele><time>2026-04-04T16:21:13.46Z</time></trkpt><trkpt lat="44.2799643" lon="9.9924181"><ele>189.0</ele><time>2026-04-04T16:21:14.445Z</time></trkpt><trkpt lat="44.2801055" lon="9.9923076"><ele>187.0</ele><time>2026-04-04T16:21:15.459Z</time></trkpt><trkpt lat="44.2802243" lon="9.9922085"><ele>187.0</ele><time>2026-04-04T16:21:16.452Z</time></trkpt><trkpt lat="44.2803631" lon="9.992126"><ele>187.0</ele><time>2026-04-04T16:21:17.449Z</time></trkpt><trkpt lat="44.2805017" lon="9.9920591"><ele>187.0</ele><time>2026-04-04T16:21:18.452Z</time></trkpt><trkpt lat="44.2806741" lon="9.9919989"><ele>188.33333333333334</ele><time>2026-04-04T16:21:19.454Z</time></trkpt><trkpt lat="44.2808826" lon="9.9919813"><ele>189.66666666666666</ele><time>2026-04-04T16:21:20.462Z</time></trkpt><trkpt lat="44.2811197" lon="9.9920109"><ele>191.0</ele><time>2026-04-04T16:21:21.453Z</time></trkpt><trkpt lat="44.2813687" lon="9.9920111"><ele>192.0</ele><time>2026-04-04T16:21:22.459Z</time></trkpt><trkpt lat="44.2816208" lon="9.9919781"><ele>193.0</ele><time>2026-04-04T16:21:23.443Z</time></trkpt><trkpt lat="44.2818788" lon="9.9919033"><ele>193.0</ele><time>2026-04-04T16:21:24.449Z</time></trkpt><trkpt lat="44.2821225" lon="9.9918201"><ele>193.0</ele><time>2026-04-04T16:21:25.451Z</time></trkpt><trkpt lat="44.2823514" lon="9.9917335"><ele>187.0</ele><time>2026-04-04T16:21:26.45Z</time></trkpt><trkpt lat="44.2825632" lon="9.9915957"><ele>181.0</ele><time>2026-04-04T16:21:27.45Z</time></trkpt><trkpt lat="44.2827681" lon="9.9914441"><ele>181.0</ele><time>2026-04-04T16:21:28.46Z</time></trkpt><trkpt lat="44.2829782" lon="9.9913052"><ele>181.0</ele><time>2026-04-04T16:21:29.46Z</time></trkpt><trkpt lat="44.2831643" lon="9.9911695"><ele>181.0</ele><time>2026-04-04T16:21:30.453Z</time></trkpt><trkpt lat="44.2833521" lon="9.9910276"><ele>181.0</ele><time>2026-04-04T16:21:31.457Z</time></trkpt><trkpt lat="44.2835583" lon="9.9908997"><ele>181.0</ele><time>2026-04-04T16:21:32.452Z</time></trkpt><trkpt lat="44.2837649" lon="9.9907813"><ele>181.0</ele><time>2026-04-04T16:21:33.441Z</time></trkpt><trkpt lat="44.2839476" lon="9.9906855"><ele>184.0</ele><time>2026-04-04T16:21:34.463Z</time></trkpt><trkpt lat="44.2840903" lon="9.9905899"><ele>187.0</ele><time>2026-04-04T16:21:35.455Z</time></trkpt><trkpt lat="44.2842056" lon="9.9904849"><ele>190.0</ele><time>2026-04-04T16:21:36.45Z</time></trkpt><trkpt lat="44.2842723" lon="9.9903228"><ele>193.0</ele><time>2026-04-04T16:21:37.46Z</time></trkpt><trkpt lat="44.28428" lon="9.9900874"><ele>189.0</ele><time>2026-04-04T16:21:38.457Z</time></trkpt><trkpt lat="44.2842655" lon="9.9898588"><ele>185.0</ele><time>2026-04-04T16:21:39.462Z</time></trkpt><trkpt lat="44.2842102" lon="9.9896606"><ele>181.0</ele><time>2026-04-04T16:21:40.471Z</time></trkpt><trkpt lat="44.2841015" lon="9.9894412"><ele>183.0</ele><time>2026-04-04T16:21:41.458Z</time></trkpt><trkpt lat="44.2839495" lon="9.9891336"><ele>185.0</ele><time>2026-04-04T16:21:42.452Z</time></trkpt><trkpt lat="44.283817" lon="9.9888566"><ele>189.0</ele><time>2026-04-04T16:21:43.448Z</time></trkpt><trkpt lat="44.2837306" lon="9.9886289"><ele>193.0</ele><time>2026-04-04T16:21:44.464Z</time></trkpt><trkpt lat="44.2837136" lon="9.9884435"><ele>197.0</ele><time>2026-04-04T16:21:45.454Z</time></trkpt><trkpt lat="44.2837318" lon="9.9882179"><ele>200.0</ele><time>2026-04-04T16:21:46.444Z</time></trkpt><trkpt lat="44.2837501" lon="9.9879728"><ele>203.0</ele><time>2026-04-04T16:21:47.441Z</time></trkpt><trkpt lat="44.283745" lon="9.9877138"><ele>206.0</ele><time>2026-04-04T16:21:48.455Z</time></trkpt><trkpt lat="44.2836994" lon="9.9874002"><ele>209.0</ele><time>2026-04-04T16:21:49.45Z</time></trkpt><trkpt lat="44.2836859" lon="9.9871504"><ele>212.0</ele><time>2026-04-04T16:21:50.458Z</time></trkpt><trkpt lat="44.2837002" lon="9.9869476"><ele>215.0</ele><time>2026-04-04T16:21:51.471Z</time></trkpt><trkpt lat="44.2837497" lon="9.986754"><ele>216.25</ele><time>2026-04-04T16:21:52.469Z</time></trkpt><trkpt lat="44.2838418" lon="9.9866022"><ele>217.5</ele><time>2026-04-04T16:21:53.447Z</time></trkpt><trkpt lat="44.2839653" lon="9.9865087"><ele>218.75</ele><time>2026-04-04T16:21:54.463Z</time></trkpt><trkpt lat="44.2841225" lon="9.9864652"><ele>220.0</ele><time>2026-04-04T16:21:55.461Z</time></trkpt><trkpt lat="44.2842852" lon="9.986451"><ele>215.66666666666666</ele><time>2026-04-04T16:21:56.446Z</time></trkpt><trkpt lat="44.2844614" lon="9.98648"><ele>211.33333333333331</ele><time>2026-04-04T16:21:57.456Z</time></trkpt><trkpt lat="44.2846409" lon="9.9865147"><ele>207.0</ele><time>2026-04-04T16:21:58.467Z</time></trkpt><trkpt lat="44.2848223" lon="9.9865371"><ele>206.0</ele><time>2026-04-04T16:21:59.465Z</time></trkpt><trkpt lat="44.2850341" lon="9.9865819"><ele>205.0</ele><time>2026-04-04T16:22:00.465Z</time></trkpt><trkpt lat="44.2851952" lon="9.9865962"><ele>204.0</ele><time>2026-04-04T16:22:01.465Z</time></trkpt><trkpt lat="44.2853093" lon="9.9866108"><ele>204.0</ele><time>2026-04-04T16:22:02.467Z</time></trkpt><trkpt lat="44.2854123" lon="9.9866271"><ele>204.0</ele><time>2026-04-04T16:22:03.463Z</time></trkpt><trkpt lat="44.285514" lon="9.9866413"><ele>204.0</ele><time>2026-04-04T16:22:04.456Z</time></trkpt><trkpt lat="44.2856064" lon="9.9866534"><ele>204.0</ele><time>2026-04-04T16:22:05.465Z</time></trkpt><trkpt lat="44.2856947" lon="9.9866772"><ele>204.0</ele><time>2026-04-04T16:22:06.458Z</time></trkpt><trkpt lat="44.2857789" lon="9.986709"><ele>202.6</ele><time>2026-04-04T16:22:07.465Z</time></trkpt><trkpt lat="44.285864" lon="9.9867385"><ele>201.2</ele><time>2026-04-04T16:22:08.47Z</time></trkpt><trkpt lat="44.2859432" lon="9.9867668"><ele>199.79999999999998</ele><time>2026-04-04T16:22:09.466Z</time></trkpt><trkpt lat="44.2860341" lon="9.9868079"><ele>198.39999999999998</ele><time>2026-04-04T16:22:10.467Z</time></trkpt><trkpt lat="44.2861366" lon="9.9868522"><ele>197.0</ele><time>2026-04-04T16:22:11.457Z</time></trkpt><trkpt lat="44.286244" lon="9.9869043"><ele>197.0</ele><time>2026-04-04T16:22:12.463Z</time></trkpt><trkpt lat="44.2863512" lon="9.9869551"><ele>197.0</ele><time>2026-04-04T16:22:13.47Z</time></trkpt><trkpt lat="44.2864598" lon="9.9870061"><ele>197.0</ele><time>2026-04-04T16:22:14.468Z</time></trkpt><trkpt lat="44.2865735" lon="9.9870477"><ele>197.0</ele><time>2026-04-04T16:22:15.481Z</time></trkpt><trkpt lat="44.2866894" lon="9.9870748"><ele>197.5</ele><time>2026-04-04T16:22:16.477Z</time></trkpt><trkpt lat="44.2868226" lon="9.9870744"><ele>198.0</ele><time>2026-04-04T16:22:17.471Z</time></trkpt><trkpt lat="44.2869564" lon="9.987031"><ele>198.5</ele><time>2026-04-04T16:22:18.462Z</time></trkpt><trkpt lat="44.2870974" lon="9.9869791"><ele>199.0</ele><time>2026-04-04T16:22:19.465Z</time></trkpt><trkpt lat="44.2872384" lon="9.9869172"><ele>198.75</ele><time>2026-04-04T16:22:20.472Z</time></trkpt><trkpt lat="44.287374" lon="9.9868577"><ele>198.5</ele><time>2026-04-04T16:22:21.462Z</time></trkpt><trkpt lat="44.2875243" lon="9.9867985"><ele>198.25</ele><time>2026-04-04T16:22:22.482Z</time></trkpt><trkpt lat="44.2876662" lon="9.9867348"><ele>198.0</ele><time>2026-04-04T16:22:23.466Z</time></trkpt><trkpt lat="44.2878015" lon="9.9866844"><ele>200.66666666666669</ele><time>2026-04-04T16:22:24.463Z</time></trkpt><trkpt lat="44.2879478" lon="9.986636"><ele>203.33333333333334</ele><time>2026-04-04T16:22:25.467Z</time></trkpt><trkpt lat="44.288099" lon="9.9865811"><ele>206.0</ele><time>2026-04-04T16:22:26.466Z</time></trkpt><trkpt lat="44.2882576" lon="9.9865185"><ele>208.75</ele><time>2026-04-04T16:22:27.467Z</time></trkpt><trkpt lat="44.2884117" lon="9.9864326"><ele>211.5</ele><time>2026-04-04T16:22:28.467Z</time></trkpt><trkpt lat="44.288538" lon="9.9863567"><ele>214.25</ele><time>2026-04-04T16:22:29.467Z</time></trkpt><trkpt lat="44.2886631" lon="9.9862759"><ele>217.0</ele><time>2026-04-04T16:22:30.47Z</time></trkpt><trkpt lat="44.2887932" lon="9.9861986"><ele>219.0</ele><time>2026-04-04T16:22:31.445Z</time></trkpt><trkpt lat="44.288932" lon="9.9861094"><ele>221.0</ele><time>2026-04-04T16:22:32.449Z</time></trkpt><trkpt lat="44.2890795" lon="9.9860041"><ele>223.0</ele><time>2026-04-04T16:22:33.462Z</time></trkpt><trkpt lat="44.2892334" lon="9.9859003"><ele>223.75</ele><time>2026-04-04T16:22:34.446Z</time></trkpt><trkpt lat="44.2893746" lon="9.9857906"><ele>224.5</ele><time>2026-04-04T16:22:35.449Z</time></trkpt><trkpt lat="44.2895042" lon="9.9856941"><ele>225.25</ele><time>2026-04-04T16:22:36.45Z</time></trkpt><trkpt lat="44.2896234" lon="9.9856016"><ele>226.0</ele><time>2026-04-04T16:22:37.453Z</time></trkpt><trkpt lat="44.2897267" lon="9.9855151"><ele>229.5</ele><time>2026-04-04T16:22:38.45Z</time></trkpt><trkpt lat="44.2898249" lon="9.9854377"><ele>233.0</ele><time>2026-04-04T16:22:39.452Z</time></trkpt><trkpt lat="44.2899124" lon="9.9853681"><ele>236.5</ele><time>2026-04-04T16:22:40.454Z</time></trkpt><trkpt lat="44.290036" lon="9.9853199"><ele>240.0</ele><time>2026-04-04T16:22:41.46Z</time></trkpt><trkpt lat="44.2901504" lon="9.9852738"><ele>240.0</ele><time>2026-04-04T16:22:42.453Z</time></trkpt><trkpt lat="44.2902603" lon="9.9852689"><ele>240.0</ele><time>2026-04-04T16:22:43.453Z</time></trkpt><trkpt lat="44.290354" lon="9.9852798"><ele>240.0</ele><time>2026-04-04T16:22:44.449Z</time></trkpt><trkpt lat="44.2904489" lon="9.9853061"><ele>240.0</ele><time>2026-04-04T16:22:45.462Z</time></trkpt><trkpt lat="44.2905341" lon="9.9853378"><ele>240.0</ele><time>2026-04-04T16:22:46.461Z</time></trkpt><trkpt lat="44.2906116" lon="9.9853712"><ele>239.28571428571428</ele><time>2026-04-04T16:22:47.458Z</time></trkpt><trkpt lat="44.2906913" lon="9.9853986"><ele>238.57142857142856</ele><time>2026-04-04T16:22:48.453Z</time></trkpt><trkpt lat="44.2907692" lon="9.98541"><ele>237.85714285714283</ele><time>2026-04-04T16:22:49.455Z</time></trkpt><trkpt lat="44.2908438" lon="9.9854134"><ele>237.14285714285714</ele><time>2026-04-04T16:22:50.456Z</time></trkpt><trkpt lat="44.2909204" lon="9.9854088"><ele>236.4285714285714</ele><time>2026-04-04T16:22:51.46Z</time></trkpt><trkpt lat="44.2909868" lon="9.9853946"><ele>235.7142857142857</ele><time>2026-04-04T16:22:52.469Z</time></trkpt><trkpt lat="44.2910517" lon="9.9853717"><ele>235.0</ele><time>2026-04-04T16:22:53.465Z</time></trkpt><trkpt lat="44.291118" lon="9.9853568"><ele>234.99999999999997</ele><time>2026-04-04T16:22:54.458Z</time></trkpt><trkpt lat="44.2911817" lon="9.9853391"><ele>235.0</ele><time>2026-04-04T16:22:55.463Z</time></trkpt><trkpt lat="44.2912431" lon="9.9853159"><ele>235.0</ele><time>2026-04-04T16:22:56.461Z</time></trkpt><trkpt lat="44.2913106" lon="9.9852977"><ele>235.0</ele><time>2026-04-04T16:22:57.461Z</time></trkpt><trkpt lat="44.2913768" lon="9.9852794"><ele>234.99999999999997</ele><time>2026-04-04T16:22:58.468Z</time></trkpt><trkpt lat="44.2914939" lon="9.9852386"><ele>235.0</ele><time>2026-04-04T16:23:00.461Z</time></trkpt><trkpt lat="44.2916104" lon="9.9851713"><ele>234.8</ele><time>2026-04-04T16:23:02.459Z</time></trkpt><trkpt lat="44.2916734" lon="9.9851171"><ele>234.6</ele><time>2026-04-04T16:23:03.46Z</time></trkpt><trkpt lat="44.2917359" lon="9.985053"><ele>234.39999999999998</ele><time>2026-04-04T16:23:04.464Z</time></trkpt><trkpt lat="44.2918056" lon="9.9849476"><ele>234.2</ele><time>2026-04-04T16:23:05.462Z</time></trkpt><trkpt lat="44.2918881" lon="9.9848015"><ele>234.0</ele><time>2026-04-04T16:23:06.449Z</time></trkpt><trkpt lat="44.2919632" lon="9.9846396"><ele>234.66666666666669</ele><time>2026-04-04T16:23:07.465Z</time></trkpt><trkpt lat="44.2920476" lon="9.9844594"><ele>235.33333333333334</ele><time>2026-04-04T16:23:08.449Z</time></trkpt><trkpt lat="44.2921365" lon="9.9842698"><ele>236.0</ele><time>2026-04-04T16:23:09.449Z</time></trkpt><trkpt lat="44.2922281" lon="9.9840755"><ele>235.33333333333334</ele><time>2026-04-04T16:23:10.446Z</time></trkpt><trkpt lat="44.2923214" lon="9.9838851"><ele>234.66666666666669</ele><time>2026-04-04T16:23:11.451Z</time></trkpt><trkpt lat="44.2924155" lon="9.9836971"><ele>234.0</ele><time>2026-04-04T16:23:12.453Z</time></trkpt><trkpt lat="44.2925069" lon="9.9835122"><ele>230.33333333333331</ele><time>2026-04-04T16:23:13.452Z</time></trkpt><trkpt lat="44.2926111" lon="9.983314"><ele>226.66666666666666</ele><time>2026-04-04T16:23:14.462Z</time></trkpt><trkpt lat="44.2927447" lon="9.983062"><ele>223.0</ele><time>2026-04-04T16:23:15.463Z</time></trkpt><trkpt lat="44.2929013" lon="9.9827521"><ele>220.5</ele><time>2026-04-04T16:23:16.461Z</time></trkpt><trkpt lat="44.2930683" lon="9.9824509"><ele>218.0</ele><time>2026-04-04T16:23:17.462Z</time></trkpt><trkpt lat="44.293195" lon="9.9822087"><ele>217.66666666666669</ele><time>2026-04-04T16:23:18.452Z</time></trkpt><trkpt lat="44.2933129" lon="9.981995"><ele>217.33333333333331</ele><time>2026-04-04T16:23:19.467Z</time></trkpt><trkpt lat="44.2934194" lon="9.981813"><ele>217.0</ele><time>2026-04-04T16:23:20.456Z</time></trkpt><trkpt lat="44.2935104" lon="9.9816323"><ele>217.0</ele><time>2026-04-04T16:23:21.459Z</time></trkpt><trkpt lat="44.2936111" lon="9.981456"><ele>217.0</ele><time>2026-04-04T16:23:22.463Z</time></trkpt><trkpt lat="44.2937218" lon="9.9812635"><ele>217.0</ele><time>2026-04-04T16:23:23.446Z</time></trkpt><trkpt lat="44.2938255" lon="9.9810732"><ele>217.0</ele><time>2026-04-04T16:23:24.471Z</time></trkpt><trkpt lat="44.2939249" lon="9.9808881"><ele>217.0</ele><time>2026-04-04T16:23:25.455Z</time></trkpt><trkpt lat="44.29402" lon="9.9806966"><ele>217.0</ele><time>2026-04-04T16:23:26.453Z</time></trkpt><trkpt lat="44.2941182" lon="9.9805239"><ele>217.0</ele><time>2026-04-04T16:23:27.459Z</time></trkpt><trkpt lat="44.2942115" lon="9.9803568"><ele>217.0</ele><time>2026-04-04T16:23:28.463Z</time></trkpt><trkpt lat="44.2942914" lon="9.9802041"><ele>217.0</ele><time>2026-04-04T16:23:29.468Z</time></trkpt><trkpt lat="44.2943529" lon="9.9800587"><ele>217.0</ele><time>2026-04-04T16:23:30.462Z</time></trkpt><trkpt lat="44.2944059" lon="9.9799001"><ele>216.75</ele><time>2026-04-04T16:23:31.451Z</time></trkpt><trkpt lat="44.2944091" lon="9.9797232"><ele>216.5</ele><time>2026-04-04T16:23:32.463Z</time></trkpt><trkpt lat="44.2943627" lon="9.9795577"><ele>216.25</ele><time>2026-04-04T16:23:33.464Z</time></trkpt><trkpt lat="44.2942556" lon="9.9794136"><ele>216.0</ele><time>2026-04-04T16:23:34.459Z</time></trkpt><trkpt lat="44.2940694" lon="9.9792784"><ele>215.33333333333331</ele><time>2026-04-04T16:23:35.469Z</time></trkpt><trkpt lat="44.2939053" lon="9.9791625"><ele>214.66666666666666</ele><time>2026-04-04T16:23:36.458Z</time></trkpt><trkpt lat="44.2937515" lon="9.9790456"><ele>214.0</ele><time>2026-04-04T16:23:37.46Z</time></trkpt><trkpt lat="44.2936072" lon="9.9789151"><ele>214.0</ele><time>2026-04-04T16:23:38.47Z</time></trkpt><trkpt lat="44.2934791" lon="9.9787833"><ele>214.0</ele><time>2026-04-04T16:23:39.477Z</time></trkpt><trkpt lat="44.2933777" lon="9.9786156"><ele>214.0</ele><time>2026-04-04T16:23:40.473Z</time></trkpt><trkpt lat="44.2933036" lon="9.9783953"><ele>214.66666666666666</ele><time>2026-04-04T16:23:41.471Z</time></trkpt><trkpt lat="44.2932532" lon="9.9781427"><ele>215.33333333333331</ele><time>2026-04-04T16:23:42.456Z</time></trkpt><trkpt lat="44.2931928" lon="9.9778938"><ele>216.0</ele><time>2026-04-04T16:23:43.463Z</time></trkpt><trkpt lat="44.2931427" lon="9.9776376"><ele>215.66666666666669</ele><time>2026-04-04T16:23:44.47Z</time></trkpt><trkpt lat="44.2931035" lon="9.9773512"><ele>215.33333333333334</ele><time>2026-04-04T16:23:45.469Z</time></trkpt><trkpt lat="44.2930786" lon="9.9770602"><ele>215.0</ele><time>2026-04-04T16:23:46.481Z</time></trkpt><trkpt lat="44.2930741" lon="9.9767718"><ele>215.66666666666669</ele><time>2026-04-04T16:23:47.48Z</time></trkpt><trkpt lat="44.293076" lon="9.976495"><ele>216.33333333333331</ele><time>2026-04-04T16:23:48.487Z</time></trkpt><trkpt lat="44.2930691" lon="9.9762063"><ele>217.0</ele><time>2026-04-04T16:23:49.468Z</time></trkpt><trkpt lat="44.2930607" lon="9.9759393"><ele>216.0</ele><time>2026-04-04T16:23:50.475Z</time></trkpt><trkpt lat="44.2930424" lon="9.9756834"><ele>215.0</ele><time>2026-04-04T16:23:51.477Z</time></trkpt><trkpt lat="44.2930167" lon="9.9754473"><ele>214.0</ele><time>2026-04-04T16:23:52.484Z</time></trkpt><trkpt lat="44.2929574" lon="9.9752145"><ele>213.66666666666666</ele><time>2026-04-04T16:23:53.477Z</time></trkpt><trkpt lat="44.2928548" lon="9.9749759"><ele>213.33333333333331</ele><time>2026-04-04T16:23:54.478Z</time></trkpt><trkpt lat="44.2927505" lon="9.9747558"><ele>213.0</ele><time>2026-04-04T16:23:55.486Z</time></trkpt><trkpt lat="44.2926446" lon="9.974528"><ele>213.0</ele><time>2026-04-04T16:23:56.475Z</time></trkpt><trkpt lat="44.2925436" lon="9.9742963"><ele>213.0</ele><time>2026-04-04T16:23:57.485Z</time></trkpt><trkpt lat="44.2924453" lon="9.9740796"><ele>213.0</ele><time>2026-04-04T16:23:58.481Z</time></trkpt><trkpt lat="44.2923439" lon="9.9738563"><ele>213.33333333333331</ele><time>2026-04-04T16:23:59.481Z</time></trkpt><trkpt lat="44.2922439" lon="9.9736335"><ele>213.66666666666666</ele><time>2026-04-04T16:24:00.485Z</time></trkpt><trkpt lat="44.2921437" lon="9.9734126"><ele>214.0</ele><time>2026-04-04T16:24:01.475Z</time></trkpt><trkpt lat="44.2920367" lon="9.9731838"><ele>214.0</ele><time>2026-04-04T16:24:02.465Z</time></trkpt><trkpt lat="44.2919367" lon="9.9729444"><ele>214.0</ele><time>2026-04-04T16:24:03.474Z</time></trkpt><trkpt lat="44.2918263" lon="9.9727067"><ele>214.0</ele><time>2026-04-04T16:24:04.477Z</time></trkpt><trkpt lat="44.2917193" lon="9.9724611"><ele>212.33333333333331</ele><time>2026-04-04T16:24:05.472Z</time></trkpt><trkpt lat="44.2916168" lon="9.9722077"><ele>210.66666666666669</ele><time>2026-04-04T16:24:06.475Z</time></trkpt><trkpt lat="44.2915277" lon="9.9719616"><ele>209.0</ele><time>2026-04-04T16:24:07.47Z</time></trkpt><trkpt lat="44.2914392" lon="9.971712"><ele>208.66666666666669</ele><time>2026-04-04T16:24:08.471Z</time></trkpt><trkpt lat="44.291371" lon="9.9714588"><ele>208.33333333333331</ele><time>2026-04-04T16:24:09.467Z</time></trkpt><trkpt lat="44.2913268" lon="9.9711754"><ele>208.0</ele><time>2026-04-04T16:24:10.472Z</time></trkpt><trkpt lat="44.2913083" lon="9.9708737"><ele>207.0</ele><time>2026-04-04T16:24:11.465Z</time></trkpt><trkpt lat="44.2912988" lon="9.9705586"><ele>206.0</ele><time>2026-04-04T16:24:12.462Z</time></trkpt><trkpt lat="44.2913005" lon="9.9702326"><ele>205.5</ele><time>2026-04-04T16:24:13.464Z</time></trkpt><trkpt lat="44.2912973" lon="9.9699005"><ele>205.0</ele><time>2026-04-04T16:24:14.459Z</time></trkpt><trkpt lat="44.2912845" lon="9.969565"><ele>205.0</ele><time>2026-04-04T16:24:15.471Z</time></trkpt><trkpt lat="44.2912779" lon="9.9692471"><ele>205.0</ele><time>2026-04-04T16:24:16.464Z</time></trkpt><trkpt lat="44.2912628" lon="9.9689616"><ele>205.0</ele><time>2026-04-04T16:24:17.47Z</time></trkpt><trkpt lat="44.2912528" lon="9.9686813"><ele>203.66666666666666</ele><time>2026-04-04T16:24:18.47Z</time></trkpt><trkpt lat="44.291241" lon="9.9684231"><ele>202.33333333333331</ele><time>2026-04-04T16:24:19.472Z</time></trkpt><trkpt lat="44.2912334" lon="9.9681762"><ele>201.0</ele><time>2026-04-04T16:24:20.476Z</time></trkpt><trkpt lat="44.2912305" lon="9.9679314"><ele>200.66666666666669</ele><time>2026-04-04T16:24:21.471Z</time></trkpt><trkpt lat="44.2912326" lon="9.9676731"><ele>200.33333333333334</ele><time>2026-04-04T16:24:22.478Z</time></trkpt><trkpt lat="44.2912192" lon="9.9673984"><ele>200.0</ele><time>2026-04-04T16:24:23.469Z</time></trkpt><trkpt lat="44.2912069" lon="9.967123"><ele>198.66666666666669</ele><time>2026-04-04T16:24:24.473Z</time></trkpt><trkpt lat="44.2911977" lon="9.9668467"><ele>197.33333333333331</ele><time>2026-04-04T16:24:25.472Z</time></trkpt><trkpt lat="44.2911912" lon="9.9665837"><ele>196.0</ele><time>2026-04-04T16:24:26.475Z</time></trkpt><trkpt lat="44.2911852" lon="9.9663328"><ele>195.66666666666666</ele><time>2026-04-04T16:24:27.475Z</time></trkpt><trkpt lat="44.2911751" lon="9.9660656"><ele>195.33333333333331</ele><time>2026-04-04T16:24:28.476Z</time></trkpt><trkpt lat="44.2911615" lon="9.9658022"><ele>195.0</ele><time>2026-04-04T16:24:29.473Z</time></trkpt><trkpt lat="44.291153" lon="9.9655243"><ele>194.0</ele><time>2026-04-04T16:24:30.469Z</time></trkpt><trkpt lat="44.2911412" lon="9.9652455"><ele>193.0</ele><time>2026-04-04T16:24:31.48Z</time></trkpt><trkpt lat="44.2911337" lon="9.9649765"><ele>192.0</ele><time>2026-04-04T16:24:32.476Z</time></trkpt><trkpt lat="44.2911222" lon="9.964704"><ele>192.0</ele><time>2026-04-04T16:24:33.481Z</time></trkpt><trkpt lat="44.2911154" lon="9.9644378"><ele>192.0</ele><time>2026-04-04T16:24:34.475Z</time></trkpt><trkpt lat="44.2911081" lon="9.9641958"><ele>192.0</ele><time>2026-04-04T16:24:35.477Z</time></trkpt><trkpt lat="44.2911028" lon="9.963937"><ele>192.0</ele><time>2026-04-04T16:24:36.469Z</time></trkpt><trkpt lat="44.291101" lon="9.9636953"><ele>192.0</ele><time>2026-04-04T16:24:37.481Z</time></trkpt><trkpt lat="44.2910944" lon="9.9634638"><ele>192.0</ele><time>2026-04-04T16:24:38.471Z</time></trkpt><trkpt lat="44.2910853" lon="9.9632248"><ele>192.0</ele><time>2026-04-04T16:24:39.471Z</time></trkpt><trkpt lat="44.291075" lon="9.9629907"><ele>192.0</ele><time>2026-04-04T16:24:40.473Z</time></trkpt><trkpt lat="44.2910761" lon="9.9627504"><ele>192.0</ele><time>2026-04-04T16:24:41.467Z</time></trkpt><trkpt lat="44.2910966" lon="9.9624898"><ele>192.0</ele><time>2026-04-04T16:24:42.466Z</time></trkpt><trkpt lat="44.291141" lon="9.9622185"><ele>192.0</ele><time>2026-04-04T16:24:43.459Z</time></trkpt><trkpt lat="44.2912044" lon="9.9619587"><ele>192.0</ele><time>2026-04-04T16:24:44.472Z</time></trkpt><trkpt lat="44.29126" lon="9.9617086"><ele>191.0</ele><time>2026-04-04T16:24:45.472Z</time></trkpt><trkpt lat="44.2913031" lon="9.9614478"><ele>190.0</ele><time>2026-04-04T16:24:46.471Z</time></trkpt><trkpt lat="44.2913139" lon="9.9611669"><ele>189.0</ele><time>2026-04-04T16:24:47.471Z</time></trkpt><trkpt lat="44.291294" lon="9.9608559"><ele>187.0</ele><time>2026-04-04T16:24:48.475Z</time></trkpt><trkpt lat="44.2912233" lon="9.9605397"><ele>185.0</ele><time>2026-04-04T16:24:49.462Z</time></trkpt><trkpt lat="44.2911591" lon="9.960219"><ele>182.5</ele><time>2026-04-04T16:24:50.463Z</time></trkpt><trkpt lat="44.291109" lon="9.9599024"><ele>180.0</ele><time>2026-04-04T16:24:51.464Z</time></trkpt><trkpt lat="44.2910609" lon="9.9596052"><ele>180.0</ele><time>2026-04-04T16:24:52.473Z</time></trkpt><trkpt lat="44.2910202" lon="9.9593179"><ele>180.0</ele><time>2026-04-04T16:24:53.468Z</time></trkpt><trkpt lat="44.2909829" lon="9.9590306"><ele>180.0</ele><time>2026-04-04T16:24:54.464Z</time></trkpt><trkpt lat="44.2909596" lon="9.9587721"><ele>178.0</ele><time>2026-04-04T16:24:55.468Z</time></trkpt><trkpt lat="44.2909303" lon="9.9585159"><ele>176.0</ele><time>2026-04-04T16:24:56.458Z</time></trkpt><trkpt lat="44.2908885" lon="9.9582762"><ele>174.0</ele><time>2026-04-04T16:24:57.464Z</time></trkpt><trkpt lat="44.2908268" lon="9.9580259"><ele>172.33333333333334</ele><time>2026-04-04T16:24:58.465Z</time></trkpt><trkpt lat="44.2907612" lon="9.9577737"><ele>170.66666666666669</ele><time>2026-04-04T16:24:59.463Z</time></trkpt><trkpt lat="44.2906953" lon="9.9575419"><ele>169.0</ele><time>2026-04-04T16:25:00.464Z</time></trkpt><trkpt lat="44.2906366" lon="9.9573122"><ele>169.66666666666669</ele><time>2026-04-04T16:25:01.462Z</time></trkpt><trkpt lat="44.2905948" lon="9.9570664"><ele>170.33333333333334</ele><time>2026-04-04T16:25:02.467Z</time></trkpt><trkpt lat="44.2905641" lon="9.9568036"><ele>171.0</ele><time>2026-04-04T16:25:03.462Z</time></trkpt><trkpt lat="44.2905481" lon="9.9565244"><ele>171.0</ele><time>2026-04-04T16:25:04.456Z</time></trkpt><trkpt lat="44.2905421" lon="9.9562472"><ele>171.0</ele><time>2026-04-04T16:25:05.462Z</time></trkpt><trkpt lat="44.2905576" lon="9.9559448"><ele>171.0</ele><time>2026-04-04T16:25:06.454Z</time></trkpt><trkpt lat="44.290554" lon="9.9556472"><ele>170.0</ele><time>2026-04-04T16:25:07.465Z</time></trkpt><trkpt lat="44.2905201" lon="9.9553305"><ele>169.0</ele><time>2026-04-04T16:25:08.454Z</time></trkpt><trkpt lat="44.2904833" lon="9.955017"><ele>166.5</ele><time>2026-04-04T16:25:09.451Z</time></trkpt><trkpt lat="44.2904371" lon="9.9546981"><ele>164.0</ele><time>2026-04-04T16:25:10.463Z</time></trkpt><trkpt lat="44.2903834" lon="9.9543994"><ele>161.0</ele><time>2026-04-04T16:25:11.465Z</time></trkpt><trkpt lat="44.290333" lon="9.9541328"><ele>158.0</ele><time>2026-04-04T16:25:12.46Z</time></trkpt><trkpt lat="44.2902979" lon="9.9538848"><ele>155.0</ele><time>2026-04-04T16:25:13.464Z</time></trkpt><trkpt lat="44.2902852" lon="9.9536338"><ele>155.0</ele><time>2026-04-04T16:25:14.467Z</time></trkpt><trkpt lat="44.2902968" lon="9.9533881"><ele>155.0</ele><time>2026-04-04T16:25:15.459Z</time></trkpt><trkpt lat="44.2903088" lon="9.9531468"><ele>155.0</ele><time>2026-04-04T16:25:16.457Z</time></trkpt><trkpt lat="44.2903218" lon="9.9529204"><ele>154.0</ele><time>2026-04-04T16:25:17.463Z</time></trkpt><trkpt lat="44.2903383" lon="9.9526922"><ele>153.0</ele><time>2026-04-04T16:25:18.457Z</time></trkpt><trkpt lat="44.2903445" lon="9.9524836"><ele>152.0</ele><time>2026-04-04T16:25:19.459Z</time></trkpt><trkpt lat="44.2903283" lon="9.9522943"><ele>151.75</ele><time>2026-04-04T16:25:20.452Z</time></trkpt><trkpt lat="44.2903015" lon="9.9521213"><ele>151.5</ele><time>2026-04-04T16:25:21.465Z</time></trkpt><trkpt lat="44.2902819" lon="9.9519627"><ele>151.25</ele><time>2026-04-04T16:25:22.468Z</time></trkpt><trkpt lat="44.2902598" lon="9.9518025"><ele>151.0</ele><time>2026-04-04T16:25:23.456Z</time></trkpt><trkpt lat="44.2902252" lon="9.9516522"><ele>149.83333333333334</ele><time>2026-04-04T16:25:24.454Z</time></trkpt><trkpt lat="44.2902043" lon="9.9515304"><ele>148.66666666666669</ele><time>2026-04-04T16:25:25.464Z</time></trkpt><trkpt lat="44.2901916" lon="9.951419"><ele>147.5</ele><time>2026-04-04T16:25:26.469Z</time></trkpt><trkpt lat="44.2901787" lon="9.9513103"><ele>146.33333333333334</ele><time>2026-04-04T16:25:27.465Z</time></trkpt><trkpt lat="44.2901645" lon="9.9512151"><ele>145.16666666666666</ele><time>2026-04-04T16:25:28.474Z</time></trkpt><trkpt lat="44.2901627" lon="9.9511123"><ele>144.0</ele><time>2026-04-04T16:25:29.461Z</time></trkpt><trkpt lat="44.2901732" lon="9.9509566"><ele>144.0</ele><time>2026-04-04T16:25:31.448Z</time></trkpt><trkpt lat="44.2901791" lon="9.9508511"><ele>144.0</ele><time>2026-04-04T16:25:33.468Z</time></trkpt><trkpt lat="44.2901994" lon="9.9507501"><ele>144.0</ele><time>2026-04-04T16:25:37.456Z</time></trkpt><trkpt lat="44.2902053" lon="9.9506469"><ele>144.0</ele><time>2026-04-04T16:25:41.46Z</time></trkpt><trkpt lat="44.2902931" lon="9.9506813"><ele>144.0</ele><time>2026-04-04T16:25:45.474Z</time></trkpt><trkpt lat="44.2903295" lon="9.9507759"><ele>144.0</ele><time>2026-04-04T16:25:46.458Z</time></trkpt><trkpt lat="44.2903923" lon="9.9509084"><ele>144.0</ele><time>2026-04-04T16:25:47.453Z</time></trkpt><trkpt lat="44.2904529" lon="9.9510427"><ele>144.0</ele><time>2026-04-04T16:25:48.453Z</time></trkpt><trkpt lat="44.2905117" lon="9.9511816"><ele>144.0</ele><time>2026-04-04T16:25:49.445Z</time></trkpt><trkpt lat="44.2905956" lon="9.9513042"><ele>144.0</ele><time>2026-04-04T16:25:50.443Z</time></trkpt><trkpt lat="44.2906993" lon="9.9514301"><ele>141.25</ele><time>2026-04-04T16:25:51.444Z</time></trkpt><trkpt lat="44.2908254" lon="9.951541"><ele>138.5</ele><time>2026-04-04T16:25:52.459Z</time></trkpt><trkpt lat="44.2909642" lon="9.9515981"><ele>135.75</ele><time>2026-04-04T16:25:53.432Z</time></trkpt><trkpt lat="44.2910922" lon="9.9516416"><ele>133.0</ele><time>2026-04-04T16:25:54.449Z</time></trkpt><trkpt lat="44.2912124" lon="9.9516685"><ele>133.0</ele><time>2026-04-04T16:25:55.451Z</time></trkpt><trkpt lat="44.2913366" lon="9.9516953"><ele>133.0</ele><time>2026-04-04T16:25:56.465Z</time></trkpt><trkpt lat="44.2914635" lon="9.9517157"><ele>133.0</ele><time>2026-04-04T16:25:57.466Z</time></trkpt><trkpt lat="44.2915842" lon="9.9517436"><ele>133.0</ele><time>2026-04-04T16:25:58.473Z</time></trkpt><trkpt lat="44.2916899" lon="9.9517716"><ele>131.8</ele><time>2026-04-04T16:25:59.469Z</time></trkpt><trkpt lat="44.2917973" lon="9.9518021"><ele>130.60000000000002</ele><time>2026-04-04T16:26:00.468Z</time></trkpt><trkpt lat="44.2919037" lon="9.9518246"><ele>129.39999999999998</ele><time>2026-04-04T16:26:01.468Z</time></trkpt><trkpt lat="44.2920053" lon="9.9518468"><ele>128.2</ele><time>2026-04-04T16:26:02.463Z</time></trkpt><trkpt lat="44.2921006" lon="9.9518623"><ele>127.0</ele><time>2026-04-04T16:26:03.469Z</time></trkpt><trkpt lat="44.2921888" lon="9.951864"><ele>127.00000000000001</ele><time>2026-04-04T16:26:04.481Z</time></trkpt><trkpt lat="44.2922753" lon="9.9518596"><ele>127.0</ele><time>2026-04-04T16:26:05.463Z</time></trkpt><trkpt lat="44.2923608" lon="9.9518464"><ele>127.0</ele><time>2026-04-04T16:26:06.467Z</time></trkpt><trkpt lat="44.2924388" lon="9.9518226"><ele>127.0</ele><time>2026-04-04T16:26:07.471Z</time></trkpt><trkpt lat="44.2925194" lon="9.9517923"><ele>127.00000000000001</ele><time>2026-04-04T16:26:08.466Z</time></trkpt><trkpt lat="44.2926097" lon="9.9517588"><ele>127.0</ele><time>2026-04-04T16:26:09.462Z</time></trkpt><trkpt lat="44.2926965" lon="9.9517282"><ele>127.19999999999999</ele><time>2026-04-04T16:26:10.474Z</time></trkpt><trkpt lat="44.2927861" lon="9.9516974"><ele>127.39999999999999</ele><time>2026-04-04T16:26:11.467Z</time></trkpt><trkpt lat="44.2928824" lon="9.9516568"><ele>127.60000000000001</ele><time>2026-04-04T16:26:12.468Z</time></trkpt><trkpt lat="44.2929949" lon="9.9516063"><ele>127.80000000000001</ele><time>2026-04-04T16:26:13.471Z</time></trkpt><trkpt lat="44.2931161" lon="9.9515624"><ele>128.0</ele><time>2026-04-04T16:26:14.473Z</time></trkpt><trkpt lat="44.2932321" lon="9.9515166"><ele>128.25</ele><time>2026-04-04T16:26:15.473Z</time></trkpt><trkpt lat="44.2933505" lon="9.9514687"><ele>128.5</ele><time>2026-04-04T16:26:16.473Z</time></trkpt><trkpt lat="44.2934633" lon="9.9514249"><ele>128.75</ele><time>2026-04-04T16:26:17.464Z</time></trkpt><trkpt lat="44.2935817" lon="9.951372"><ele>129.0</ele><time>2026-04-04T16:26:18.475Z</time></trkpt><trkpt lat="44.2936969" lon="9.9513151"><ele>129.0</ele><time>2026-04-04T16:26:19.465Z</time></trkpt><trkpt lat="44.2938201" lon="9.9512572"><ele>129.0</ele><time>2026-04-04T16:26:20.456Z</time></trkpt><trkpt lat="44.2939491" lon="9.9511963"><ele>129.0</ele><time>2026-04-04T16:26:21.47Z</time></trkpt><trkpt lat="44.294081" lon="9.9511467"><ele>129.0</ele><time>2026-04-04T16:26:22.481Z</time></trkpt><trkpt lat="44.2942161" lon="9.9510984"><ele>130.0</ele><time>2026-04-04T16:26:23.476Z</time></trkpt><trkpt lat="44.2943451" lon="9.9510476"><ele>131.0</ele><time>2026-04-04T16:26:24.472Z</time></trkpt><trkpt lat="44.29446" lon="9.9510079"><ele>132.0</ele><time>2026-04-04T16:26:25.461Z</time></trkpt><trkpt lat="44.2945595" lon="9.9509816"><ele>133.0</ele><time>2026-04-04T16:26:26.468Z</time></trkpt><trkpt lat="44.2946547" lon="9.9509521"><ele>133.0</ele><time>2026-04-04T16:26:27.468Z</time></trkpt><trkpt lat="44.2947401" lon="9.9509212"><ele>133.0</ele><time>2026-04-04T16:26:28.476Z</time></trkpt><trkpt lat="44.2948206" lon="9.9508893"><ele>133.0</ele><time>2026-04-04T16:26:29.469Z</time></trkpt><trkpt lat="44.2948947" lon="9.9508645"><ele>133.0</ele><time>2026-04-04T16:26:30.481Z</time></trkpt><trkpt lat="44.2949618" lon="9.9508462"><ele>133.0</ele><time>2026-04-04T16:26:31.472Z</time></trkpt><trkpt lat="44.2950561" lon="9.9508199"><ele>133.0</ele><time>2026-04-04T16:26:33.468Z</time></trkpt><trkpt lat="44.295178" lon="9.9507989"><ele>133.6</ele><time>2026-04-04T16:26:48.476Z</time></trkpt><trkpt lat="44.2952637" lon="9.9507627"><ele>134.20000000000002</ele><time>2026-04-04T16:26:49.47Z</time></trkpt><trkpt lat="44.2953317" lon="9.9507206"><ele>134.8</ele><time>2026-04-04T16:26:50.459Z</time></trkpt><trkpt lat="44.295298" lon="9.9505668"><ele>135.4</ele><time>2026-04-04T16:26:52.473Z</time></trkpt><trkpt lat="44.2952398" lon="9.9504957"><ele>136.0</ele><time>2026-04-04T16:26:53.458Z</time></trkpt><trkpt lat="44.2951525" lon="9.9504001"><ele>136.0</ele><time>2026-04-04T16:26:54.472Z</time></trkpt><trkpt lat="44.295037" lon="9.9501872"><ele>136.0</ele><time>2026-04-04T16:26:55.454Z</time></trkpt><trkpt lat="44.294899" lon="9.9499642"><ele>136.0</ele><time>2026-04-04T16:26:56.459Z</time></trkpt><trkpt lat="44.2947912" lon="9.9497774"><ele>135.25</ele><time>2026-04-04T16:26:57.466Z</time></trkpt><trkpt lat="44.2946934" lon="9.9496305"><ele>134.5</ele><time>2026-04-04T16:26:58.456Z</time></trkpt><trkpt lat="44.2946245" lon="9.9494767"><ele>133.75</ele><time>2026-04-04T16:26:59.451Z</time></trkpt><trkpt lat="44.2946098" lon="9.9493261"><ele>133.0</ele><time>2026-04-04T16:27:00.471Z</time></trkpt><trkpt lat="44.2945872" lon="9.9492127"><ele>132.83333333333334</ele><time>2026-04-04T16:27:01.475Z</time></trkpt><trkpt lat="44.2945725" lon="9.9491092"><ele>132.66666666666669</ele><time>2026-04-04T16:27:02.465Z</time></trkpt><trkpt lat="44.2945531" lon="9.9490036"><ele>132.5</ele><time>2026-04-04T16:27:03.469Z</time></trkpt><trkpt lat="44.2945319" lon="9.9489"><ele>132.33333333333334</ele><time>2026-04-04T16:27:04.463Z</time></trkpt><trkpt lat="44.2945054" lon="9.9487989"><ele>132.16666666666666</ele><time>2026-04-04T16:27:05.458Z</time></trkpt><trkpt lat="44.2944777" lon="9.9486939"><ele>132.0</ele><time>2026-04-04T16:27:06.469Z</time></trkpt><trkpt lat="44.2944444" lon="9.9486007"><ele>132.0</ele><time>2026-04-04T16:27:07.47Z</time></trkpt><trkpt lat="44.2943838" lon="9.9485311"><ele>132.0</ele><time>2026-04-04T16:27:08.468Z</time></trkpt><trkpt lat="44.2942999" lon="9.9484999"><ele>132.0</ele><time>2026-04-04T16:27:09.463Z</time></trkpt><trkpt lat="44.2942005" lon="9.9484916"><ele>132.0</ele><time>2026-04-04T16:27:10.468Z</time></trkpt><trkpt lat="44.2940799" lon="9.9485128"><ele>132.0</ele><time>2026-04-04T16:27:11.465Z</time></trkpt><trkpt lat="44.2939282" lon="9.9485582"><ele>130.75</ele><time>2026-04-04T16:27:12.47Z</time></trkpt><trkpt lat="44.2937872" lon="9.9485994"><ele>129.5</ele><time>2026-04-04T16:27:13.455Z</time></trkpt><trkpt lat="44.2936606" lon="9.9486296"><ele>128.25</ele><time>2026-04-04T16:27:14.464Z</time></trkpt><trkpt lat="44.293538" lon="9.9486428"><ele>127.0</ele><time>2026-04-04T16:27:15.479Z</time></trkpt><trkpt lat="44.2934269" lon="9.9486575"><ele>127.0</ele><time>2026-04-04T16:27:16.467Z</time></trkpt><trkpt lat="44.2933287" lon="9.948662"><ele>126.99999999999999</ele><time>2026-04-04T16:27:17.479Z</time></trkpt><trkpt lat="44.2932593" lon="9.9486454"><ele>126.99999999999999</ele><time>2026-04-04T16:27:18.478Z</time></trkpt><trkpt lat="44.2932" lon="9.9484829"><ele>127.0</ele><time>2026-04-04T16:27:20.448Z</time></trkpt><trkpt lat="44.2931992" lon="9.9483484"><ele>127.0</ele><time>2026-04-04T16:27:21.457Z</time></trkpt><trkpt lat="44.2932053" lon="9.9482059"><ele>127.0</ele><time>2026-04-04T16:27:22.458Z</time></trkpt><trkpt lat="44.2932503" lon="9.9480464"><ele>127.0</ele><time>2026-04-04T16:27:23.458Z</time></trkpt><trkpt lat="44.2933287" lon="9.9479701"><ele>127.0</ele><time>2026-04-04T16:27:24.461Z</time></trkpt><trkpt lat="44.2934229" lon="9.9479126"><ele>127.0</ele><time>2026-04-04T16:27:25.456Z</time></trkpt><trkpt lat="44.2935519" lon="9.9478885"><ele>127.0</ele><time>2026-04-04T16:27:26.453Z</time></trkpt><trkpt lat="44.2937021" lon="9.9478785"><ele>127.0</ele><time>2026-04-04T16:27:27.454Z</time></trkpt><trkpt lat="44.2938612" lon="9.9478702"><ele>127.0</ele><time>2026-04-04T16:27:28.456Z</time></trkpt><trkpt lat="44.2940067" lon="9.9478584"><ele>127.00000000000001</ele><time>2026-04-04T16:27:29.454Z</time></trkpt><trkpt lat="44.2941186" lon="9.9478605"><ele>127.0</ele><time>2026-04-04T16:27:30.451Z</time></trkpt><trkpt lat="44.2942074" lon="9.9478576"><ele>127.0</ele><time>2026-04-04T16:27:31.454Z</time></trkpt><trkpt lat="44.2942874" lon="9.947815"><ele>127.0</ele><time>2026-04-04T16:27:32.462Z</time></trkpt><trkpt lat="44.2943426" lon="9.9477457"><ele>127.00000000000001</ele><time>2026-04-04T16:27:33.475Z</time></trkpt><trkpt lat="44.2943472" lon="9.9476279"><ele>127.0</ele><time>2026-04-04T16:27:34.463Z</time></trkpt><trkpt lat="44.2943512" lon="9.9474828"><ele>127.0</ele><time>2026-04-04T16:27:35.469Z</time></trkpt><trkpt lat="44.2943353" lon="9.9473149"><ele>127.0</ele><time>2026-04-04T16:27:36.467Z</time></trkpt><trkpt lat="44.2943202" lon="9.9471443"><ele>127.0</ele><time>2026-04-04T16:27:37.475Z</time></trkpt><trkpt lat="44.2943037" lon="9.946961"><ele>127.0</ele><time>2026-04-04T16:27:38.471Z</time></trkpt><trkpt lat="44.2942917" lon="9.9467643"><ele>126.33333333333334</ele><time>2026-04-04T16:27:39.471Z</time></trkpt><trkpt lat="44.2942779" lon="9.9465485"><ele>125.66666666666666</ele><time>2026-04-04T16:27:40.473Z</time></trkpt><trkpt lat="44.2942584" lon="9.9463142"><ele>125.0</ele><time>2026-04-04T16:27:41.476Z</time></trkpt><trkpt lat="44.2942477" lon="9.9460491"><ele>124.66666666666666</ele><time>2026-04-04T16:27:42.472Z</time></trkpt><trkpt lat="44.294235" lon="9.9458114"><ele>124.33333333333334</ele><time>2026-04-04T16:27:43.487Z</time></trkpt><trkpt lat="44.2942299" lon="9.9455976"><ele>124.0</ele><time>2026-04-04T16:27:44.481Z</time></trkpt><trkpt lat="44.2942193" lon="9.9454042"><ele>124.0</ele><time>2026-04-04T16:27:45.469Z</time></trkpt><trkpt lat="44.2942143" lon="9.9452222"><ele>124.0</ele><time>2026-04-04T16:27:46.477Z</time></trkpt><trkpt lat="44.2942055" lon="9.9450213"><ele>124.0</ele><time>2026-04-04T16:27:47.477Z</time></trkpt><trkpt lat="44.2941957" lon="9.9448207"><ele>124.0</ele><time>2026-04-04T16:27:48.473Z</time></trkpt><trkpt lat="44.2941769" lon="9.9446415"><ele>124.0</ele><time>2026-04-04T16:27:49.466Z</time></trkpt><trkpt lat="44.2941581" lon="9.9444557"><ele>124.0</ele><time>2026-04-04T16:27:50.462Z</time></trkpt><trkpt lat="44.2941357" lon="9.9442687"><ele>124.0</ele><time>2026-04-04T16:27:51.471Z</time></trkpt><trkpt lat="44.2940998" lon="9.9440631"><ele>124.0</ele><time>2026-04-04T16:27:52.475Z</time></trkpt><trkpt lat="44.2940448" lon="9.9438586"><ele>123.33333333333334</ele><time>2026-04-04T16:27:53.46Z</time></trkpt><trkpt lat="44.293972" lon="9.9436535"><ele>122.66666666666666</ele><time>2026-04-04T16:27:54.464Z</time></trkpt><trkpt lat="44.2938814" lon="9.9434585"><ele>122.0</ele><time>2026-04-04T16:27:55.47Z</time></trkpt><trkpt lat="44.2937868" lon="9.9432617"><ele>120.0</ele><time>2026-04-04T16:27:56.47Z</time></trkpt><trkpt lat="44.2936807" lon="9.9430628"><ele>118.0</ele><time>2026-04-04T16:27:57.477Z</time></trkpt><trkpt lat="44.2935746" lon="9.9428613"><ele>116.0</ele><time>2026-04-04T16:27:58.476Z</time></trkpt><trkpt lat="44.2934751" lon="9.942671"><ele>116.0</ele><time>2026-04-04T16:27:59.485Z</time></trkpt><trkpt lat="44.29338" lon="9.942482"><ele>116.0</ele><time>2026-04-04T16:28:00.482Z</time></trkpt><trkpt lat="44.2932812" lon="9.9422931"><ele>116.0</ele><time>2026-04-04T16:28:01.483Z</time></trkpt><trkpt lat="44.2931822" lon="9.9421112"><ele>116.0</ele><time>2026-04-04T16:28:02.485Z</time></trkpt><trkpt lat="44.2930967" lon="9.9419424"><ele>116.0</ele><time>2026-04-04T16:28:03.496Z</time></trkpt><trkpt lat="44.2930108" lon="9.9417939"><ele>116.0</ele><time>2026-04-04T16:28:04.483Z</time></trkpt><trkpt lat="44.2929361" lon="9.9416552"><ele>116.0</ele><time>2026-04-04T16:28:05.481Z</time></trkpt><trkpt lat="44.2928991" lon="9.941512"><ele>118.25</ele><time>2026-04-04T16:28:06.473Z</time></trkpt><trkpt lat="44.2929145" lon="9.9413818"><ele>120.5</ele><time>2026-04-04T16:28:07.474Z</time></trkpt><trkpt lat="44.2929464" lon="9.9412155"><ele>122.75</ele><time>2026-04-04T16:28:08.475Z</time></trkpt><trkpt lat="44.292996" lon="9.9410348"><ele>125.0</ele><time>2026-04-04T16:28:09.471Z</time></trkpt><trkpt lat="44.2930534" lon="9.9408285"><ele>124.0</ele><time>2026-04-04T16:28:10.462Z</time></trkpt><trkpt lat="44.2931218" lon="9.9406081"><ele>123.0</ele><time>2026-04-04T16:28:11.462Z</time></trkpt><trkpt lat="44.293189" lon="9.9403885"><ele>122.0</ele><time>2026-04-04T16:28:12.467Z</time></trkpt><trkpt lat="44.2932506" lon="9.9401596"><ele>124.33333333333333</ele><time>2026-04-04T16:28:13.467Z</time></trkpt><trkpt lat="44.2933309" lon="9.9399228"><ele>126.66666666666666</ele><time>2026-04-04T16:28:14.459Z</time></trkpt><trkpt lat="44.2934158" lon="9.9396883"><ele>129.0</ele><time>2026-04-04T16:28:15.459Z</time></trkpt><trkpt lat="44.2935247" lon="9.9394535"><ele>129.0</ele><time>2026-04-04T16:28:16.464Z</time></trkpt><trkpt lat="44.2936755" lon="9.9392805"><ele>129.0</ele><time>2026-04-04T16:28:17.464Z</time></trkpt><trkpt lat="44.2938165" lon="9.9391002"><ele>129.0</ele><time>2026-04-04T16:28:18.462Z</time></trkpt><trkpt lat="44.2939562" lon="9.9389042"><ele>129.33333333333334</ele><time>2026-04-04T16:28:19.446Z</time></trkpt><trkpt lat="44.2940747" lon="9.938701"><ele>129.66666666666669</ele><time>2026-04-04T16:28:20.461Z</time></trkpt><trkpt lat="44.2941972" lon="9.9385003"><ele>130.0</ele><time>2026-04-04T16:28:21.464Z</time></trkpt><trkpt lat="44.2943245" lon="9.9383034"><ele>133.0</ele><time>2026-04-04T16:28:22.466Z</time></trkpt><trkpt lat="44.2944369" lon="9.938102"><ele>136.0</ele><time>2026-04-04T16:28:23.453Z</time></trkpt><trkpt lat="44.2945529" lon="9.9379025"><ele>139.0</ele><time>2026-04-04T16:28:24.465Z</time></trkpt><trkpt lat="44.2946677" lon="9.9377237"><ele>139.0</ele><time>2026-04-04T16:28:25.468Z</time></trkpt><trkpt lat="44.2947777" lon="9.937559"><ele>139.0</ele><time>2026-04-04T16:28:26.467Z</time></trkpt><trkpt lat="44.294882" lon="9.9373907"><ele>139.0</ele><time>2026-04-04T16:28:27.472Z</time></trkpt><trkpt lat="44.2949908" lon="9.9372187"><ele>139.0</ele><time>2026-04-04T16:28:28.471Z</time></trkpt><trkpt lat="44.2951049" lon="9.9370465"><ele>139.0</ele><time>2026-04-04T16:28:29.466Z</time></trkpt><trkpt lat="44.2952291" lon="9.9368939"><ele>139.0</ele><time>2026-04-04T16:28:30.469Z</time></trkpt><trkpt lat="44.2953508" lon="9.9367754"><ele>139.0</ele><time>2026-04-04T16:28:31.461Z</time></trkpt><trkpt lat="44.2954726" lon="9.9366768"><ele>139.0</ele><time>2026-04-04T16:28:32.464Z</time></trkpt><trkpt lat="44.295582" lon="9.9365568"><ele>139.0</ele><time>2026-04-04T16:28:33.46Z</time></trkpt><trkpt lat="44.2956841" lon="9.9364456"><ele>139.0</ele><time>2026-04-04T16:28:34.468Z</time></trkpt><trkpt lat="44.2957893" lon="9.9363382"><ele>139.0</ele><time>2026-04-04T16:28:35.463Z</time></trkpt><trkpt lat="44.2958963" lon="9.9362277"><ele>139.0</ele><time>2026-04-04T16:28:36.462Z</time></trkpt><trkpt lat="44.2960006" lon="9.9361163"><ele>139.0</ele><time>2026-04-04T16:28:37.456Z</time></trkpt><trkpt lat="44.2961134" lon="9.9360038"><ele>139.0</ele><time>2026-04-04T16:28:38.459Z</time></trkpt><trkpt lat="44.2962349" lon="9.935885"><ele>138.75</ele><time>2026-04-04T16:28:39.452Z</time></trkpt><trkpt lat="44.2963601" lon="9.9357585"><ele>138.5</ele><time>2026-04-04T16:28:40.454Z</time></trkpt><trkpt lat="44.2964797" lon="9.9356341"><ele>138.25</ele><time>2026-04-04T16:28:41.46Z</time></trkpt><trkpt lat="44.2965876" lon="9.9355298"><ele>138.0</ele><time>2026-04-04T16:28:42.471Z</time></trkpt><trkpt lat="44.2966841" lon="9.9354117"><ele>138.0</ele><time>2026-04-04T16:28:43.459Z</time></trkpt><trkpt lat="44.296769" lon="9.9352882"><ele>138.0</ele><time>2026-04-04T16:28:44.465Z</time></trkpt><trkpt lat="44.296826" lon="9.9351615"><ele>138.0</ele><time>2026-04-04T16:28:45.47Z</time></trkpt><trkpt lat="44.2968473" lon="9.9350285"><ele>138.0</ele><time>2026-04-04T16:28:46.459Z</time></trkpt><trkpt lat="44.2968426" lon="9.9348481"><ele>141.5</ele><time>2026-04-04T16:28:47.449Z</time></trkpt><trkpt lat="44.2968456" lon="9.9346685"><ele>145.0</ele><time>2026-04-04T16:28:48.438Z</time></trkpt><trkpt lat="44.2968462" lon="9.9345014"><ele>148.5</ele><time>2026-04-04T16:28:49.441Z</time></trkpt><trkpt lat="44.2968341" lon="9.9343409"><ele>152.0</ele><time>2026-04-04T16:28:50.447Z</time></trkpt><trkpt lat="44.2968122" lon="9.9341785"><ele>153.0</ele><time>2026-04-04T16:28:51.453Z</time></trkpt><trkpt lat="44.2967878" lon="9.9340191"><ele>154.0</ele><time>2026-04-04T16:28:52.472Z</time></trkpt><trkpt lat="44.2967628" lon="9.9338747"><ele>155.0</ele><time>2026-04-04T16:28:53.469Z</time></trkpt><trkpt lat="44.2967426" lon="9.9337376"><ele>156.0</ele><time>2026-04-04T16:28:54.46Z</time></trkpt><trkpt lat="44.2967395" lon="9.9336069"><ele>157.0</ele><time>2026-04-04T16:28:55.458Z</time></trkpt><trkpt lat="44.2967552" lon="9.9334913"><ele>157.0</ele><time>2026-04-04T16:28:56.464Z</time></trkpt><trkpt lat="44.2967925" lon="9.9334039"><ele>157.0</ele><time>2026-04-04T16:28:57.469Z</time></trkpt><trkpt lat="44.2968561" lon="9.9333411"><ele>157.0</ele><time>2026-04-04T16:28:58.474Z</time></trkpt><trkpt lat="44.2969476" lon="9.9332783"><ele>157.0</ele><time>2026-04-04T16:28:59.477Z</time></trkpt><trkpt lat="44.2970637" lon="9.9332112"><ele>157.0</ele><time>2026-04-04T16:29:00.468Z</time></trkpt><trkpt lat="44.2971853" lon="9.9331376"><ele>154.5</ele><time>2026-04-04T16:29:01.474Z</time></trkpt><trkpt lat="44.2973078" lon="9.9330517"><ele>152.0</ele><time>2026-04-04T16:29:02.464Z</time></trkpt><trkpt lat="44.2974163" lon="9.9329578"><ele>149.5</ele><time>2026-04-04T16:29:03.47Z</time></trkpt><trkpt lat="44.2975127" lon="9.9328579"><ele>147.0</ele><time>2026-04-04T16:29:04.479Z</time></trkpt><trkpt lat="44.2975798" lon="9.9327182"><ele>150.33333333333334</ele><time>2026-04-04T16:29:05.486Z</time></trkpt><trkpt lat="44.2976331" lon="9.9325262"><ele>153.66666666666669</ele><time>2026-04-04T16:29:06.483Z</time></trkpt><trkpt lat="44.2976655" lon="9.9322881"><ele>157.0</ele><time>2026-04-04T16:29:07.468Z</time></trkpt><trkpt lat="44.2976867" lon="9.9320556"><ele>157.0</ele><time>2026-04-04T16:29:08.466Z</time></trkpt><trkpt lat="44.2977022" lon="9.931826"><ele>157.0</ele><time>2026-04-04T16:29:09.465Z</time></trkpt><trkpt lat="44.2977205" lon="9.9316145"><ele>157.0</ele><time>2026-04-04T16:29:10.451Z</time></trkpt><trkpt lat="44.2977302" lon="9.9314294"><ele>157.8</ele><time>2026-04-04T16:29:11.469Z</time></trkpt><trkpt lat="44.2977445" lon="9.9312725"><ele>158.6</ele><time>2026-04-04T16:29:12.467Z</time></trkpt><trkpt lat="44.2977674" lon="9.9311148"><ele>159.4</ele><time>2026-04-04T16:29:13.466Z</time></trkpt><trkpt lat="44.2978017" lon="9.9309614"><ele>160.20000000000002</ele><time>2026-04-04T16:29:14.461Z</time></trkpt><trkpt lat="44.2978478" lon="9.9308313"><ele>161.0</ele><time>2026-04-04T16:29:15.464Z</time></trkpt><trkpt lat="44.2979084" lon="9.9307051"><ele>160.8</ele><time>2026-04-04T16:29:16.454Z</time></trkpt><trkpt lat="44.2979823" lon="9.9306046"><ele>160.60000000000002</ele><time>2026-04-04T16:29:17.466Z</time></trkpt><trkpt lat="44.2980733" lon="9.9305313"><ele>160.4</ele><time>2026-04-04T16:29:18.464Z</time></trkpt><trkpt lat="44.298183" lon="9.9304679"><ele>160.2</ele><time>2026-04-04T16:29:19.453Z</time></trkpt><trkpt lat="44.2982957" lon="9.9304043"><ele>160.0</ele><time>2026-04-04T16:29:20.46Z</time></trkpt><trkpt lat="44.2984194" lon="9.9303304"><ele>160.0</ele><time>2026-04-04T16:29:21.461Z</time></trkpt><trkpt lat="44.2985477" lon="9.9302516"><ele>160.0</ele><time>2026-04-04T16:29:22.467Z</time></trkpt><trkpt lat="44.2986758" lon="9.9301731"><ele>160.0</ele><time>2026-04-04T16:29:23.464Z</time></trkpt><trkpt lat="44.2988033" lon="9.9300857"><ele>160.0</ele><time>2026-04-04T16:29:24.465Z</time></trkpt><trkpt lat="44.2989264" lon="9.9299974"><ele>161.0</ele><time>2026-04-04T16:29:25.457Z</time></trkpt><trkpt lat="44.2990399" lon="9.9299099"><ele>162.0</ele><time>2026-04-04T16:29:26.469Z</time></trkpt><trkpt lat="44.2991422" lon="9.9298022"><ele>163.0</ele><time>2026-04-04T16:29:27.469Z</time></trkpt><trkpt lat="44.2992403" lon="9.9296768"><ele>164.0</ele><time>2026-04-04T16:29:28.482Z</time></trkpt><trkpt lat="44.2993391" lon="9.9295451"><ele>164.0</ele><time>2026-04-04T16:29:29.467Z</time></trkpt><trkpt lat="44.2994378" lon="9.9294183"><ele>164.0</ele><time>2026-04-04T16:29:30.469Z</time></trkpt><trkpt lat="44.299534" lon="9.9292805"><ele>164.0</ele><time>2026-04-04T16:29:31.468Z</time></trkpt><trkpt lat="44.2996306" lon="9.9291498"><ele>164.0</ele><time>2026-04-04T16:29:32.455Z</time></trkpt><trkpt lat="44.29973" lon="9.9290284"><ele>163.2</ele><time>2026-04-04T16:29:33.462Z</time></trkpt><trkpt lat="44.2998185" lon="9.9289108"><ele>162.39999999999998</ele><time>2026-04-04T16:29:34.458Z</time></trkpt><trkpt lat="44.299902" lon="9.9287986"><ele>161.6</ele><time>2026-04-04T16:29:35.472Z</time></trkpt><trkpt lat="44.2999841" lon="9.9287027"><ele>160.8</ele><time>2026-04-04T16:29:36.467Z</time></trkpt><trkpt lat="44.3000634" lon="9.928641"><ele>160.0</ele><time>2026-04-04T16:29:37.463Z</time></trkpt><trkpt lat="44.3001474" lon="9.9286103"><ele>160.0</ele><time>2026-04-04T16:29:38.452Z</time></trkpt><trkpt lat="44.3002477" lon="9.9286008"><ele>160.0</ele><time>2026-04-04T16:29:39.459Z</time></trkpt><trkpt lat="44.3003605" lon="9.9285921"><ele>160.0</ele><time>2026-04-04T16:29:40.46Z</time></trkpt><trkpt lat="44.3005033" lon="9.9285833"><ele>160.0</ele><time>2026-04-04T16:29:41.469Z</time></trkpt><trkpt lat="44.3006843" lon="9.9285745"><ele>157.5</ele><time>2026-04-04T16:29:42.463Z</time></trkpt><trkpt lat="44.3009023" lon="9.9285884"><ele>155.0</ele><time>2026-04-04T16:29:43.464Z</time></trkpt><trkpt lat="44.3011397" lon="9.9286082"><ele>155.0</ele><time>2026-04-04T16:29:44.463Z</time></trkpt><trkpt lat="44.3013759" lon="9.9286325"><ele>155.0</ele><time>2026-04-04T16:29:45.459Z</time></trkpt><trkpt lat="44.3016132" lon="9.9286445"><ele>155.33333333333331</ele><time>2026-04-04T16:29:46.475Z</time></trkpt><trkpt lat="44.301838" lon="9.9286459"><ele>155.66666666666666</ele><time>2026-04-04T16:29:47.472Z</time></trkpt><trkpt lat="44.3020415" lon="9.928644"><ele>156.0</ele><time>2026-04-04T16:29:48.467Z</time></trkpt><trkpt lat="44.3022316" lon="9.9286362"><ele>156.66666666666666</ele><time>2026-04-04T16:29:49.454Z</time></trkpt><trkpt lat="44.3024232" lon="9.928638"><ele>157.33333333333331</ele><time>2026-04-04T16:29:50.465Z</time></trkpt><trkpt lat="44.3026033" lon="9.9286147"><ele>158.0</ele><time>2026-04-04T16:29:51.473Z</time></trkpt><trkpt lat="44.3027877" lon="9.9285773"><ele>158.0</ele><time>2026-04-04T16:29:52.472Z</time></trkpt><trkpt lat="44.3029862" lon="9.9285207"><ele>158.0</ele><time>2026-04-04T16:29:53.46Z</time></trkpt><trkpt lat="44.3031699" lon="9.928451"><ele>158.0</ele><time>2026-04-04T16:29:54.47Z</time></trkpt><trkpt lat="44.3033619" lon="9.9283912"><ele>157.66666666666666</ele><time>2026-04-04T16:29:55.468Z</time></trkpt><trkpt lat="44.3035429" lon="9.9283273"><ele>157.33333333333334</ele><time>2026-04-04T16:29:56.466Z</time></trkpt><trkpt lat="44.3037152" lon="9.9282665"><ele>157.0</ele><time>2026-04-04T16:29:57.468Z</time></trkpt><trkpt lat="44.30388" lon="9.9282142"><ele>155.66666666666669</ele><time>2026-04-04T16:29:58.456Z</time></trkpt><trkpt lat="44.3040335" lon="9.9281608"><ele>154.33333333333334</ele><time>2026-04-04T16:29:59.469Z</time></trkpt><trkpt lat="44.3041781" lon="9.9281063"><ele>153.0</ele><time>2026-04-04T16:30:00.462Z</time></trkpt><trkpt lat="44.3043221" lon="9.9280583"><ele>153.0</ele><time>2026-04-04T16:30:01.462Z</time></trkpt><trkpt lat="44.3044656" lon="9.9280022"><ele>153.0</ele><time>2026-04-04T16:30:02.447Z</time></trkpt><trkpt lat="44.3046055" lon="9.9279298"><ele>153.0</ele><time>2026-04-04T16:30:03.459Z</time></trkpt><trkpt lat="44.3047329" lon="9.9278525"><ele>153.0</ele><time>2026-04-04T16:30:04.462Z</time></trkpt><trkpt lat="44.3048454" lon="9.9277569"><ele>151.66666666666666</ele><time>2026-04-04T16:30:05.471Z</time></trkpt><trkpt lat="44.3049556" lon="9.9276045"><ele>150.33333333333331</ele><time>2026-04-04T16:30:06.481Z</time></trkpt><trkpt lat="44.3050424" lon="9.9274093"><ele>149.0</ele><time>2026-04-04T16:30:07.47Z</time></trkpt><trkpt lat="44.3051169" lon="9.9272084"><ele>149.0</ele><time>2026-04-04T16:30:08.475Z</time></trkpt><trkpt lat="44.3051876" lon="9.9270135"><ele>149.0</ele><time>2026-04-04T16:30:09.473Z</time></trkpt><trkpt lat="44.3052667" lon="9.9268167"><ele>149.0</ele><time>2026-04-04T16:30:10.469Z</time></trkpt><trkpt lat="44.3053514" lon="9.9266201"><ele>149.25</ele><time>2026-04-04T16:30:11.469Z</time></trkpt><trkpt lat="44.3054267" lon="9.9264452"><ele>149.5</ele><time>2026-04-04T16:30:12.47Z</time></trkpt><trkpt lat="44.3055033" lon="9.9262815"><ele>149.75</ele><time>2026-04-04T16:30:13.468Z</time></trkpt><trkpt lat="44.3055873" lon="9.9261215"><ele>150.0</ele><time>2026-04-04T16:30:14.464Z</time></trkpt><trkpt lat="44.3056693" lon="9.9259708"><ele>150.0</ele><time>2026-04-04T16:30:15.464Z</time></trkpt><trkpt lat="44.3057551" lon="9.925819"><ele>150.0</ele><time>2026-04-04T16:30:16.464Z</time></trkpt><trkpt lat="44.3058581" lon="9.9257028"><ele>150.0</ele><time>2026-04-04T16:30:17.479Z</time></trkpt><trkpt lat="44.3059876" lon="9.9256549"><ele>150.0</ele><time>2026-04-04T16:30:18.471Z</time></trkpt><trkpt lat="44.3061214" lon="9.9256082"><ele>150.0</ele><time>2026-04-04T16:30:19.464Z</time></trkpt><trkpt lat="44.3062561" lon="9.9255585"><ele>150.0</ele><time>2026-04-04T16:30:20.46Z</time></trkpt><trkpt lat="44.3063909" lon="9.9255152"><ele>150.0</ele><time>2026-04-04T16:30:21.468Z</time></trkpt><trkpt lat="44.3065379" lon="9.9254638"><ele>150.0</ele><time>2026-04-04T16:30:22.471Z</time></trkpt><trkpt lat="44.3066753" lon="9.9254065"><ele>151.0</ele><time>2026-04-04T16:30:23.457Z</time></trkpt><trkpt lat="44.306818" lon="9.9253332"><ele>152.0</ele><time>2026-04-04T16:30:24.457Z</time></trkpt><trkpt lat="44.3069583" lon="9.925246"><ele>153.0</ele><time>2026-04-04T16:30:25.448Z</time></trkpt><trkpt lat="44.3070967" lon="9.9251485"><ele>154.0</ele><time>2026-04-04T16:30:26.461Z</time></trkpt><trkpt lat="44.3072212" lon="9.9250531"><ele>155.0</ele><time>2026-04-04T16:30:27.456Z</time></trkpt><trkpt lat="44.3073451" lon="9.9249531"><ele>156.0</ele><time>2026-04-04T16:30:28.458Z</time></trkpt><trkpt lat="44.3074656" lon="9.9248369"><ele>157.0</ele><time>2026-04-04T16:30:29.451Z</time></trkpt><trkpt lat="44.3075859" lon="9.924687"><ele>157.0</ele><time>2026-04-04T16:30:30.452Z</time></trkpt><trkpt lat="44.3077126" lon="9.924523"><ele>157.0</ele><time>2026-04-04T16:30:31.438Z</time></trkpt><trkpt lat="44.3078311" lon="9.9243543"><ele>157.0</ele><time>2026-04-04T16:30:32.448Z</time></trkpt><trkpt lat="44.3079609" lon="9.9241808"><ele>156.0</ele><time>2026-04-04T16:30:33.456Z</time></trkpt><trkpt lat="44.3080874" lon="9.9240115"><ele>155.0</ele><time>2026-04-04T16:30:34.445Z</time></trkpt><trkpt lat="44.3082171" lon="9.9238321"><ele>154.0</ele><time>2026-04-04T16:30:35.448Z</time></trkpt><trkpt lat="44.308345" lon="9.9236657"><ele>154.0</ele><time>2026-04-04T16:30:36.442Z</time></trkpt><trkpt lat="44.3084709" lon="9.9234992"><ele>154.0</ele><time>2026-04-04T16:30:37.452Z</time></trkpt><trkpt lat="44.308605" lon="9.9233162"><ele>154.0</ele><time>2026-04-04T16:30:38.459Z</time></trkpt><trkpt lat="44.3087322" lon="9.9231468"><ele>154.66666666666669</ele><time>2026-04-04T16:30:39.447Z</time></trkpt><trkpt lat="44.3088536" lon="9.9229804"><ele>155.33333333333334</ele><time>2026-04-04T16:30:40.437Z</time></trkpt><trkpt lat="44.3089649" lon="9.9228181"><ele>156.0</ele><time>2026-04-04T16:30:41.439Z</time></trkpt><trkpt lat="44.3090902" lon="9.9226607"><ele>159.33333333333334</ele><time>2026-04-04T16:30:42.446Z</time></trkpt><trkpt lat="44.3092283" lon="9.9225233"><ele>162.66666666666669</ele><time>2026-04-04T16:30:43.457Z</time></trkpt><trkpt lat="44.3093738" lon="9.9224004"><ele>166.0</ele><time>2026-04-04T16:30:44.453Z</time></trkpt><trkpt lat="44.3095144" lon="9.9222686"><ele>166.0</ele><time>2026-04-04T16:30:45.445Z</time></trkpt><trkpt lat="44.3096473" lon="9.9221316"><ele>166.0</ele><time>2026-04-04T16:30:46.45Z</time></trkpt><trkpt lat="44.3097771" lon="9.9219777"><ele>166.0</ele><time>2026-04-04T16:30:47.444Z</time></trkpt><trkpt lat="44.309885" lon="9.921803"><ele>166.0</ele><time>2026-04-04T16:30:48.451Z</time></trkpt><trkpt lat="44.3099884" lon="9.9216045"><ele>166.0</ele><time>2026-04-04T16:30:49.45Z</time></trkpt><trkpt lat="44.3101075" lon="9.9213824"><ele>166.0</ele><time>2026-04-04T16:30:50.444Z</time></trkpt><trkpt lat="44.3102539" lon="9.921162"><ele>166.0</ele><time>2026-04-04T16:30:51.465Z</time></trkpt><trkpt lat="44.3104272" lon="9.9209432"><ele>166.0</ele><time>2026-04-04T16:30:52.465Z</time></trkpt><trkpt lat="44.310628" lon="9.9207682"><ele>166.0</ele><time>2026-04-04T16:30:53.455Z</time></trkpt><trkpt lat="44.3108327" lon="9.9206333"><ele>166.0</ele><time>2026-04-04T16:30:54.457Z</time></trkpt><trkpt lat="44.3110089" lon="9.9205022"><ele>166.0</ele><time>2026-04-04T16:30:55.443Z</time></trkpt><trkpt lat="44.3111749" lon="9.9203824"><ele>166.0</ele><time>2026-04-04T16:30:56.449Z</time></trkpt><trkpt lat="44.3113281" lon="9.920261"><ele>166.0</ele><time>2026-04-04T16:30:57.457Z</time></trkpt><trkpt lat="44.3114826" lon="9.9201311"><ele>166.0</ele><time>2026-04-04T16:30:58.454Z</time></trkpt><trkpt lat="44.3116405" lon="9.9199946"><ele>169.0</ele><time>2026-04-04T16:30:59.454Z</time></trkpt><trkpt lat="44.3117882" lon="9.919875"><ele>172.0</ele><time>2026-04-04T16:31:00.449Z</time></trkpt><trkpt lat="44.311923" lon="9.9197553"><ele>175.0</ele><time>2026-04-04T16:31:01.457Z</time></trkpt><trkpt lat="44.3120587" lon="9.919636"><ele>175.0</ele><time>2026-04-04T16:31:02.446Z</time></trkpt><trkpt lat="44.3121839" lon="9.9195533"><ele>175.0</ele><time>2026-04-04T16:31:03.447Z</time></trkpt><trkpt lat="44.3123192" lon="9.9195164"><ele>175.0</ele><time>2026-04-04T16:31:04.448Z</time></trkpt><trkpt lat="44.3124678" lon="9.9195052"><ele>175.0</ele><time>2026-04-04T16:31:05.439Z</time></trkpt><trkpt lat="44.3126274" lon="9.9195364"><ele>173.0</ele><time>2026-04-04T16:31:06.441Z</time></trkpt><trkpt lat="44.3127892" lon="9.9195619"><ele>171.0</ele><time>2026-04-04T16:31:07.437Z</time></trkpt><trkpt lat="44.3129626" lon="9.9195755"><ele>169.0</ele><time>2026-04-04T16:31:08.447Z</time></trkpt><trkpt lat="44.3131509" lon="9.9195635"><ele>169.0</ele><time>2026-04-04T16:31:09.461Z</time></trkpt><trkpt lat="44.3133271" lon="9.9195403"><ele>169.0</ele><time>2026-04-04T16:31:10.457Z</time></trkpt><trkpt lat="44.3135027" lon="9.919531"><ele>169.0</ele><time>2026-04-04T16:31:11.457Z</time></trkpt><trkpt lat="44.3136715" lon="9.9195026"><ele>169.0</ele><time>2026-04-04T16:31:12.447Z</time></trkpt><trkpt lat="44.3138164" lon="9.9194743"><ele>169.0</ele><time>2026-04-04T16:31:13.443Z</time></trkpt><trkpt lat="44.3139709" lon="9.9194285"><ele>169.0</ele><time>2026-04-04T16:31:14.452Z</time></trkpt><trkpt lat="44.3141272" lon="9.9193359"><ele>171.33333333333334</ele><time>2026-04-04T16:31:15.472Z</time></trkpt><trkpt lat="44.3142659" lon="9.9192114"><ele>173.66666666666666</ele><time>2026-04-04T16:31:16.465Z</time></trkpt><trkpt lat="44.3144204" lon="9.9190981"><ele>176.0</ele><time>2026-04-04T16:31:17.455Z</time></trkpt><trkpt lat="44.3145674" lon="9.9189888"><ele>176.0</ele><time>2026-04-04T16:31:18.451Z</time></trkpt><trkpt lat="44.3147276" lon="9.9188987"><ele>176.0</ele><time>2026-04-04T16:31:19.463Z</time></trkpt><trkpt lat="44.3148935" lon="9.918815"><ele>176.0</ele><time>2026-04-04T16:31:20.453Z</time></trkpt><trkpt lat="44.3150537" lon="9.9187318"><ele>175.33333333333331</ele><time>2026-04-04T16:31:21.449Z</time></trkpt><trkpt lat="44.3152153" lon="9.9186517"><ele>174.66666666666666</ele><time>2026-04-04T16:31:22.452Z</time></trkpt><trkpt lat="44.3153707" lon="9.9185689"><ele>174.0</ele><time>2026-04-04T16:31:23.439Z</time></trkpt><trkpt lat="44.3155355" lon="9.9184716"><ele>173.0</ele><time>2026-04-04T16:31:24.452Z</time></trkpt><trkpt lat="44.3157076" lon="9.9184037"><ele>172.0</ele><time>2026-04-04T16:31:25.436Z</time></trkpt><trkpt lat="44.3158907" lon="9.9183446"><ele>171.0</ele><time>2026-04-04T16:31:26.445Z</time></trkpt><trkpt lat="44.3160674" lon="9.918289"><ele>172.0</ele><time>2026-04-04T16:31:27.438Z</time></trkpt><trkpt lat="44.3162311" lon="9.9182172"><ele>173.0</ele><time>2026-04-04T16:31:28.456Z</time></trkpt><trkpt lat="44.3163982" lon="9.9181473"><ele>174.0</ele><time>2026-04-04T16:31:29.449Z</time></trkpt><trkpt lat="44.3165496" lon="9.9180676"><ele>174.0</ele><time>2026-04-04T16:31:30.45Z</time></trkpt><trkpt lat="44.316698" lon="9.9179536"><ele>174.0</ele><time>2026-04-04T16:31:31.444Z</time></trkpt><trkpt lat="44.3168243" lon="9.9178369"><ele>174.0</ele><time>2026-04-04T16:31:32.466Z</time></trkpt><trkpt lat="44.3169522" lon="9.9176892"><ele>173.0</ele><time>2026-04-04T16:31:33.45Z</time></trkpt><trkpt lat="44.3170617" lon="9.9174995"><ele>172.0</ele><time>2026-04-04T16:31:34.455Z</time></trkpt><trkpt lat="44.317151" lon="9.9172609"><ele>171.0</ele><time>2026-04-04T16:31:35.461Z</time></trkpt><trkpt lat="44.3172545" lon="9.9170542"><ele>171.0</ele><time>2026-04-04T16:31:36.451Z</time></trkpt><trkpt lat="44.3173698" lon="9.9168671"><ele>171.0</ele><time>2026-04-04T16:31:37.456Z</time></trkpt><trkpt lat="44.3175167" lon="9.9167209"><ele>171.0</ele><time>2026-04-04T16:31:38.465Z</time></trkpt><trkpt lat="44.317703" lon="9.9166166"><ele>171.66666666666666</ele><time>2026-04-04T16:31:39.477Z</time></trkpt><trkpt lat="44.3179013" lon="9.9165548"><ele>172.33333333333331</ele><time>2026-04-04T16:31:40.463Z</time></trkpt><trkpt lat="44.3180988" lon="9.9164832"><ele>173.0</ele><time>2026-04-04T16:31:41.463Z</time></trkpt><trkpt lat="44.3182941" lon="9.9164175"><ele>171.33333333333331</ele><time>2026-04-04T16:31:42.466Z</time></trkpt><trkpt lat="44.3184938" lon="9.916345"><ele>169.66666666666666</ele><time>2026-04-04T16:31:43.463Z</time></trkpt><trkpt lat="44.3186988" lon="9.9162719"><ele>168.0</ele><time>2026-04-04T16:31:44.477Z</time></trkpt><trkpt lat="44.3189131" lon="9.9161875"><ele>168.0</ele><time>2026-04-04T16:31:45.482Z</time></trkpt><trkpt lat="44.3191266" lon="9.9161154"><ele>168.0</ele><time>2026-04-04T16:31:46.471Z</time></trkpt><trkpt lat="44.3193224" lon="9.9160414"><ele>168.0</ele><time>2026-04-04T16:31:47.476Z</time></trkpt><trkpt lat="44.3195213" lon="9.9159799"><ele>168.0</ele><time>2026-04-04T16:31:48.478Z</time></trkpt><trkpt lat="44.3197211" lon="9.9159074"><ele>168.0</ele><time>2026-04-04T16:31:49.462Z</time></trkpt><trkpt lat="44.3199025" lon="9.915849"><ele>168.0</ele><time>2026-04-04T16:31:50.474Z</time></trkpt><trkpt lat="44.3200847" lon="9.9158071"><ele>170.66666666666666</ele><time>2026-04-04T16:31:51.473Z</time></trkpt><trkpt lat="44.3202422" lon="9.9157665"><ele>173.33333333333331</ele><time>2026-04-04T16:31:52.483Z</time></trkpt><trkpt lat="44.3204018" lon="9.9157339"><ele>176.0</ele><time>2026-04-04T16:31:53.472Z</time></trkpt><trkpt lat="44.3205646" lon="9.9157186"><ele>175.66666666666666</ele><time>2026-04-04T16:31:54.477Z</time></trkpt><trkpt lat="44.3207345" lon="9.915717"><ele>175.33333333333334</ele><time>2026-04-04T16:31:55.473Z</time></trkpt><trkpt lat="44.3208984" lon="9.9157053"><ele>175.0</ele><time>2026-04-04T16:31:56.474Z</time></trkpt><trkpt lat="44.3210608" lon="9.9156811"><ele>175.0</ele><time>2026-04-04T16:31:57.482Z</time></trkpt><trkpt lat="44.3212226" lon="9.9156478"><ele>175.0</ele><time>2026-04-04T16:31:58.469Z</time></trkpt><trkpt lat="44.3213937" lon="9.9155897"><ele>175.0</ele><time>2026-04-04T16:31:59.483Z</time></trkpt><trkpt lat="44.3215594" lon="9.9155282"><ele>175.0</ele><time>2026-04-04T16:32:00.473Z</time></trkpt><trkpt lat="44.3217169" lon="9.9154678"><ele>175.0</ele><time>2026-04-04T16:32:01.481Z</time></trkpt><trkpt lat="44.321882" lon="9.9154139"><ele>175.0</ele><time>2026-04-04T16:32:02.484Z</time></trkpt><trkpt lat="44.3220538" lon="9.9153657"><ele>175.33333333333334</ele><time>2026-04-04T16:32:03.479Z</time></trkpt><trkpt lat="44.3222322" lon="9.9153229"><ele>175.66666666666666</ele><time>2026-04-04T16:32:04.469Z</time></trkpt><trkpt lat="44.3223911" lon="9.9152856"><ele>176.0</ele><time>2026-04-04T16:32:05.476Z</time></trkpt><trkpt lat="44.3225506" lon="9.9152372"><ele>176.0</ele><time>2026-04-04T16:32:06.48Z</time></trkpt><trkpt lat="44.3227027" lon="9.9151979"><ele>176.0</ele><time>2026-04-04T16:32:07.477Z</time></trkpt><trkpt lat="44.3228463" lon="9.9151658"><ele>176.0</ele><time>2026-04-04T16:32:08.479Z</time></trkpt><trkpt lat="44.3229889" lon="9.9151175"><ele>176.0</ele><time>2026-04-04T16:32:09.478Z</time></trkpt><trkpt lat="44.3231143" lon="9.9149965"><ele>177.0</ele><time>2026-04-04T16:32:10.472Z</time></trkpt><trkpt lat="44.3232378" lon="9.9148435"><ele>178.0</ele><time>2026-04-04T16:32:11.461Z</time></trkpt><trkpt lat="44.3233436" lon="9.9146601"><ele>179.0</ele><time>2026-04-04T16:32:12.472Z</time></trkpt><trkpt lat="44.3234274" lon="9.9144763"><ele>179.0</ele><time>2026-04-04T16:32:13.465Z</time></trkpt><trkpt lat="44.3234947" lon="9.9142895"><ele>179.0</ele><time>2026-04-04T16:32:14.473Z</time></trkpt><trkpt lat="44.3235704" lon="9.9141209"><ele>179.0</ele><time>2026-04-04T16:32:15.473Z</time></trkpt><trkpt lat="44.3236481" lon="9.9139338"><ele>179.0</ele><time>2026-04-04T16:32:16.466Z</time></trkpt><trkpt lat="44.3237348" lon="9.9137589"><ele>179.0</ele><time>2026-04-04T16:32:17.468Z</time></trkpt><trkpt lat="44.3238194" lon="9.9136076"><ele>179.0</ele><time>2026-04-04T16:32:18.473Z</time></trkpt><trkpt lat="44.3238995" lon="9.9134722"><ele>179.0</ele><time>2026-04-04T16:32:19.473Z</time></trkpt><trkpt lat="44.3239679" lon="9.913344"><ele>179.0</ele><time>2026-04-04T16:32:20.462Z</time></trkpt><trkpt lat="44.3240298" lon="9.913209"><ele>179.75</ele><time>2026-04-04T16:32:21.496Z</time></trkpt><trkpt lat="44.3240964" lon="9.9130766"><ele>180.5</ele><time>2026-04-04T16:32:22.482Z</time></trkpt><trkpt lat="44.3241501" lon="9.9129328"><ele>181.25</ele><time>2026-04-04T16:32:23.475Z</time></trkpt><trkpt lat="44.3242042" lon="9.9127674"><ele>182.0</ele><time>2026-04-04T16:32:24.482Z</time></trkpt><trkpt lat="44.3242372" lon="9.9125739"><ele>182.5</ele><time>2026-04-04T16:32:25.467Z</time></trkpt><trkpt lat="44.3242512" lon="9.9123652"><ele>183.0</ele><time>2026-04-04T16:32:26.476Z</time></trkpt><trkpt lat="44.3242416" lon="9.912174"><ele>183.5</ele><time>2026-04-04T16:32:27.474Z</time></trkpt><trkpt lat="44.3242361" lon="9.9119982"><ele>184.0</ele><time>2026-04-04T16:32:28.48Z</time></trkpt><trkpt lat="44.3242322" lon="9.9118392"><ele>184.25</ele><time>2026-04-04T16:32:29.482Z</time></trkpt><trkpt lat="44.3242387" lon="9.9116663"><ele>184.5</ele><time>2026-04-04T16:32:30.478Z</time></trkpt><trkpt lat="44.3242444" lon="9.911505"><ele>184.75</ele><time>2026-04-04T16:32:31.476Z</time></trkpt><trkpt lat="44.3242507" lon="9.9113422"><ele>185.0</ele><time>2026-04-04T16:32:32.474Z</time></trkpt><trkpt lat="44.3242591" lon="9.9111886"><ele>185.0</ele><time>2026-04-04T16:32:33.478Z</time></trkpt><trkpt lat="44.3242652" lon="9.9110375"><ele>185.0</ele><time>2026-04-04T16:32:34.477Z</time></trkpt><trkpt lat="44.3242736" lon="9.9108922"><ele>185.0</ele><time>2026-04-04T16:32:35.479Z</time></trkpt><trkpt lat="44.3242831" lon="9.9107566"><ele>185.0</ele><time>2026-04-04T16:32:36.472Z</time></trkpt><trkpt lat="44.3242911" lon="9.9106268"><ele>185.0</ele><time>2026-04-04T16:32:37.476Z</time></trkpt><trkpt lat="44.3243025" lon="9.9104905"><ele>185.33333333333331</ele><time>2026-04-04T16:32:38.478Z</time></trkpt><trkpt lat="44.324317" lon="9.9103571"><ele>185.66666666666666</ele><time>2026-04-04T16:32:39.476Z</time></trkpt><trkpt lat="44.324338" lon="9.9102285"><ele>186.0</ele><time>2026-04-04T16:32:40.472Z</time></trkpt><trkpt lat="44.3243575" lon="9.9101189"><ele>186.33333333333334</ele><time>2026-04-04T16:32:41.507Z</time></trkpt><trkpt lat="44.3243702" lon="9.9100103"><ele>186.66666666666669</ele><time>2026-04-04T16:32:43.473Z</time></trkpt><trkpt lat="44.3243856" lon="9.9099082"><ele>187.0</ele><time>2026-04-04T16:32:50.477Z</time></trkpt><trkpt lat="44.3244666" lon="9.9097824"><ele>187.16666666666669</ele><time>2026-04-04T16:32:52.481Z</time></trkpt><trkpt lat="44.3245235" lon="9.9097094"><ele>187.33333333333334</ele><time>2026-04-04T16:32:53.469Z</time></trkpt><trkpt lat="44.3245774" lon="9.9096391"><ele>187.5</ele><time>2026-04-04T16:32:54.466Z</time></trkpt><trkpt lat="44.3246402" lon="9.9095718"><ele>187.66666666666666</ele><time>2026-04-04T16:32:55.461Z</time></trkpt><trkpt lat="44.3247009" lon="9.9094998"><ele>187.83333333333331</ele><time>2026-04-04T16:32:56.449Z</time></trkpt><trkpt lat="44.3247655" lon="9.9094348"><ele>188.0</ele><time>2026-04-04T16:32:57.459Z</time></trkpt><trkpt lat="44.3248298" lon="9.9093548"><ele>188.0</ele><time>2026-04-04T16:32:58.455Z</time></trkpt><trkpt lat="44.3248863" lon="9.9092662"><ele>188.0</ele><time>2026-04-04T16:32:59.457Z</time></trkpt><trkpt lat="44.3249528" lon="9.9091885"><ele>188.0</ele><time>2026-04-04T16:33:00.451Z</time></trkpt><trkpt lat="44.3250123" lon="9.9091034"><ele>188.0</ele><time>2026-04-04T16:33:01.444Z</time></trkpt><trkpt lat="44.32507" lon="9.9090202"><ele>188.0</ele><time>2026-04-04T16:33:02.446Z</time></trkpt><trkpt lat="44.325128" lon="9.9089459"><ele>188.0</ele><time>2026-04-04T16:33:03.454Z</time></trkpt><trkpt lat="44.3251914" lon="9.9088574"><ele>188.2</ele><time>2026-04-04T16:33:04.444Z</time></trkpt><trkpt lat="44.3252642" lon="9.908758"><ele>188.4</ele><time>2026-04-04T16:33:05.439Z</time></trkpt><trkpt lat="44.3253387" lon="9.9086544"><ele>188.6</ele><time>2026-04-04T16:33:06.439Z</time></trkpt><trkpt lat="44.3254105" lon="9.9085539"><ele>188.79999999999998</ele><time>2026-04-04T16:33:07.443Z</time></trkpt><trkpt lat="44.325486" lon="9.9084531"><ele>189.0</ele><time>2026-04-04T16:33:08.45Z</time></trkpt><trkpt lat="44.3255694" lon="9.9083503"><ele>188.25</ele><time>2026-04-04T16:33:09.45Z</time></trkpt><trkpt lat="44.3256558" lon="9.9082428"><ele>187.5</ele><time>2026-04-04T16:33:10.45Z</time></trkpt><trkpt lat="44.3257471" lon="9.908136"><ele>186.75</ele><time>2026-04-04T16:33:11.453Z</time></trkpt><trkpt lat="44.3258404" lon="9.908033"><ele>186.0</ele><time>2026-04-04T16:33:12.457Z</time></trkpt><trkpt lat="44.3259401" lon="9.9079302"><ele>186.0</ele><time>2026-04-04T16:33:13.442Z</time></trkpt><trkpt lat="44.3260429" lon="9.9078274"><ele>186.0</ele><time>2026-04-04T16:33:14.452Z</time></trkpt><trkpt lat="44.3261447" lon="9.9077216"><ele>186.0</ele><time>2026-04-04T16:33:15.451Z</time></trkpt><trkpt lat="44.3262496" lon="9.9076074"><ele>186.0</ele><time>2026-04-04T16:33:16.454Z</time></trkpt><trkpt lat="44.3263552" lon="9.9074907"><ele>186.25</ele><time>2026-04-04T16:33:17.459Z</time></trkpt><trkpt lat="44.3264614" lon="9.9073704"><ele>186.5</ele><time>2026-04-04T16:33:18.456Z</time></trkpt><trkpt lat="44.3265686" lon="9.9072556"><ele>186.75</ele><time>2026-04-04T16:33:19.456Z</time></trkpt><trkpt lat="44.3266745" lon="9.9071449"><ele>187.0</ele><time>2026-04-04T16:33:20.455Z</time></trkpt><trkpt lat="44.3267765" lon="9.9070396"><ele>187.0</ele><time>2026-04-04T16:33:21.455Z</time></trkpt><trkpt lat="44.326879" lon="9.9069427"><ele>187.0</ele><time>2026-04-04T16:33:22.466Z</time></trkpt><trkpt lat="44.3269846" lon="9.906845"><ele>187.0</ele><time>2026-04-04T16:33:23.444Z</time></trkpt><trkpt lat="44.3270909" lon="9.9067542"><ele>187.0</ele><time>2026-04-04T16:33:24.454Z</time></trkpt><trkpt lat="44.3271998" lon="9.9066635"><ele>188.25</ele><time>2026-04-04T16:33:25.449Z</time></trkpt><trkpt lat="44.3273093" lon="9.906571"><ele>189.5</ele><time>2026-04-04T16:33:26.453Z</time></trkpt><trkpt lat="44.3274147" lon="9.9064716"><ele>190.75</ele><time>2026-04-04T16:33:27.449Z</time></trkpt><trkpt lat="44.3275225" lon="9.9063663"><ele>192.0</ele><time>2026-04-04T16:33:28.45Z</time></trkpt><trkpt lat="44.3276409" lon="9.9062444"><ele>192.0</ele><time>2026-04-04T16:33:29.451Z</time></trkpt><trkpt lat="44.3277902" lon="9.906074"><ele>192.0</ele><time>2026-04-04T16:33:30.445Z</time></trkpt><trkpt lat="44.3279629" lon="9.9059033"><ele>192.0</ele><time>2026-04-04T16:33:31.446Z</time></trkpt><trkpt lat="44.3280889" lon="9.905746"><ele>192.66666666666669</ele><time>2026-04-04T16:33:32.453Z</time></trkpt><trkpt lat="44.3281938" lon="9.9055771"><ele>193.33333333333334</ele><time>2026-04-04T16:33:33.456Z</time></trkpt><trkpt lat="44.3282729" lon="9.9054031"><ele>194.0</ele><time>2026-04-04T16:33:34.461Z</time></trkpt><trkpt lat="44.3283386" lon="9.9052205"><ele>195.39999999999998</ele><time>2026-04-04T16:33:35.464Z</time></trkpt><trkpt lat="44.3284061" lon="9.9050768"><ele>196.8</ele><time>2026-04-04T16:33:36.451Z</time></trkpt><trkpt lat="44.3284447" lon="9.9049607"><ele>198.2</ele><time>2026-04-04T16:33:37.453Z</time></trkpt><trkpt lat="44.3285021" lon="9.9048633"><ele>199.60000000000002</ele><time>2026-04-04T16:33:38.447Z</time></trkpt><trkpt lat="44.3285826" lon="9.9047947"><ele>201.0</ele><time>2026-04-04T16:33:39.444Z</time></trkpt><trkpt lat="44.3286756" lon="9.9047515"><ele>201.0</ele><time>2026-04-04T16:33:40.442Z</time></trkpt><trkpt lat="44.3287736" lon="9.90476"><ele>201.0</ele><time>2026-04-04T16:33:41.446Z</time></trkpt><trkpt lat="44.3288696" lon="9.9047922"><ele>201.0</ele><time>2026-04-04T16:33:42.433Z</time></trkpt><trkpt lat="44.328975" lon="9.9048457"><ele>201.0</ele><time>2026-04-04T16:33:43.452Z</time></trkpt><trkpt lat="44.3290859" lon="9.904905"><ele>201.0</ele><time>2026-04-04T16:33:44.452Z</time></trkpt><trkpt lat="44.3292016" lon="9.90496"><ele>198.0</ele><time>2026-04-04T16:33:45.443Z</time></trkpt><trkpt lat="44.3293237" lon="9.905019"><ele>195.0</ele><time>2026-04-04T16:33:46.441Z</time></trkpt><trkpt lat="44.3294511" lon="9.9050598"><ele>192.0</ele><time>2026-04-04T16:33:47.443Z</time></trkpt><trkpt lat="44.3295992" lon="9.90506"><ele>189.0</ele><time>2026-04-04T16:33:48.458Z</time></trkpt><trkpt lat="44.3297431" lon="9.9050052"><ele>188.33333333333334</ele><time>2026-04-04T16:33:49.454Z</time></trkpt><trkpt lat="44.329886" lon="9.9049126"><ele>187.66666666666669</ele><time>2026-04-04T16:33:50.451Z</time></trkpt><trkpt lat="44.3300193" lon="9.9048088"><ele>187.0</ele><time>2026-04-04T16:33:51.462Z</time></trkpt><trkpt lat="44.3301527" lon="9.9047101"><ele>187.0</ele><time>2026-04-04T16:33:52.451Z</time></trkpt><trkpt lat="44.3302657" lon="9.9046212"><ele>187.0</ele><time>2026-04-04T16:33:53.464Z</time></trkpt><trkpt lat="44.3303727" lon="9.9045344"><ele>187.0</ele><time>2026-04-04T16:33:54.451Z</time></trkpt><trkpt lat="44.3304899" lon="9.9044572"><ele>187.0</ele><time>2026-04-04T16:33:55.446Z</time></trkpt><trkpt lat="44.3306158" lon="9.9043995"><ele>186.75</ele><time>2026-04-04T16:33:56.449Z</time></trkpt><trkpt lat="44.3307549" lon="9.9043819"><ele>186.5</ele><time>2026-04-04T16:33:57.455Z</time></trkpt><trkpt lat="44.3309017" lon="9.9043647"><ele>186.25</ele><time>2026-04-04T16:33:58.472Z</time></trkpt><trkpt lat="44.3310434" lon="9.9043547"><ele>186.0</ele><time>2026-04-04T16:33:59.465Z</time></trkpt><trkpt lat="44.3311831" lon="9.9043509"><ele>186.0</ele><time>2026-04-04T16:34:00.47Z</time></trkpt><trkpt lat="44.3313364" lon="9.9043232"><ele>186.0</ele><time>2026-04-04T16:34:01.459Z</time></trkpt><trkpt lat="44.3315318" lon="9.9043114"><ele>186.0</ele><time>2026-04-04T16:34:02.456Z</time></trkpt><trkpt lat="44.3317799" lon="9.9042998"><ele>187.5</ele><time>2026-04-04T16:34:03.464Z</time></trkpt><trkpt lat="44.3320775" lon="9.9042901"><ele>189.0</ele><time>2026-04-04T16:34:04.458Z</time></trkpt><trkpt lat="44.3323349" lon="9.9042738"><ele>189.0</ele><time>2026-04-04T16:34:05.462Z</time></trkpt><trkpt lat="44.3325493" lon="9.9042525"><ele>189.0</ele><time>2026-04-04T16:34:06.469Z</time></trkpt><trkpt lat="44.3327398" lon="9.9042255"><ele>189.0</ele><time>2026-04-04T16:34:07.463Z</time></trkpt><trkpt lat="44.3329259" lon="9.9041819"><ele>188.33333333333334</ele><time>2026-04-04T16:34:08.456Z</time></trkpt><trkpt lat="44.3330991" lon="9.9040817"><ele>187.66666666666669</ele><time>2026-04-04T16:34:09.473Z</time></trkpt><trkpt lat="44.333238" lon="9.9039242"><ele>187.0</ele><time>2026-04-04T16:34:10.468Z</time></trkpt><trkpt lat="44.3333574" lon="9.9037532"><ele>187.0</ele><time>2026-04-04T16:34:11.467Z</time></trkpt><trkpt lat="44.333466" lon="9.9035924"><ele>187.0</ele><time>2026-04-04T16:34:12.468Z</time></trkpt><trkpt lat="44.333571" lon="9.9034313"><ele>187.0</ele><time>2026-04-04T16:34:13.482Z</time></trkpt><trkpt lat="44.3336901" lon="9.9032838"><ele>188.33333333333334</ele><time>2026-04-04T16:34:14.464Z</time></trkpt><trkpt lat="44.3338325" lon="9.9031779"><ele>189.66666666666666</ele><time>2026-04-04T16:34:15.462Z</time></trkpt><trkpt lat="44.3339719" lon="9.9030803"><ele>191.0</ele><time>2026-04-04T16:34:16.487Z</time></trkpt><trkpt lat="44.3341002" lon="9.9029903"><ele>191.5</ele><time>2026-04-04T16:34:17.479Z</time></trkpt><trkpt lat="44.3342284" lon="9.9028964"><ele>192.0</ele><time>2026-04-04T16:34:18.476Z</time></trkpt><trkpt lat="44.3343497" lon="9.9028148"><ele>192.5</ele><time>2026-04-04T16:34:19.483Z</time></trkpt><trkpt lat="44.33446" lon="9.9027275"><ele>193.0</ele><time>2026-04-04T16:34:20.478Z</time></trkpt><trkpt lat="44.3345638" lon="9.9026333"><ele>193.5</ele><time>2026-04-04T16:34:21.471Z</time></trkpt><trkpt lat="44.3346681" lon="9.9025109"><ele>194.0</ele><time>2026-04-04T16:34:22.484Z</time></trkpt><trkpt lat="44.3347568" lon="9.9023669"><ele>194.5</ele><time>2026-04-04T16:34:23.475Z</time></trkpt><trkpt lat="44.3348342" lon="9.9022178"><ele>195.0</ele><time>2026-04-04T16:34:24.481Z</time></trkpt><trkpt lat="44.3348988" lon="9.9020548"><ele>195.0</ele><time>2026-04-04T16:34:25.467Z</time></trkpt><trkpt lat="44.3349568" lon="9.9018759"><ele>195.0</ele><time>2026-04-04T16:34:26.471Z</time></trkpt><trkpt lat="44.335006" lon="9.9016916"><ele>195.0</ele><time>2026-04-04T16:34:27.469Z</time></trkpt><trkpt lat="44.3350262" lon="9.901488"><ele>195.0</ele><time>2026-04-04T16:34:28.477Z</time></trkpt><trkpt lat="44.3350451" lon="9.9012888"><ele>195.0</ele><time>2026-04-04T16:34:29.46Z</time></trkpt><trkpt lat="44.3350584" lon="9.9011021"><ele>195.0</ele><time>2026-04-04T16:34:30.478Z</time></trkpt><trkpt lat="44.3350882" lon="9.9009245"><ele>195.0</ele><time>2026-04-04T16:34:31.464Z</time></trkpt><trkpt lat="44.3351179" lon="9.9007715"><ele>195.0</ele><time>2026-04-04T16:34:32.474Z</time></trkpt><trkpt lat="44.3351453" lon="9.9006107"><ele>195.4</ele><time>2026-04-04T16:34:33.462Z</time></trkpt><trkpt lat="44.3351709" lon="9.9004652"><ele>195.8</ele><time>2026-04-04T16:34:34.461Z</time></trkpt><trkpt lat="44.3351838" lon="9.9003046"><ele>196.2</ele><time>2026-04-04T16:34:35.46Z</time></trkpt><trkpt lat="44.335191" lon="9.9001489"><ele>196.6</ele><time>2026-04-04T16:34:36.465Z</time></trkpt><trkpt lat="44.3351945" lon="9.9000017"><ele>197.0</ele><time>2026-04-04T16:34:37.46Z</time></trkpt><trkpt lat="44.335196" lon="9.899866"><ele>197.16666666666669</ele><time>2026-04-04T16:34:38.459Z</time></trkpt><trkpt lat="44.3352025" lon="9.8997487"><ele>197.33333333333334</ele><time>2026-04-04T16:34:39.456Z</time></trkpt><trkpt lat="44.3352202" lon="9.8996499"><ele>197.5</ele><time>2026-04-04T16:34:40.456Z</time></trkpt><trkpt lat="44.3352545" lon="9.8995568"><ele>197.66666666666669</ele><time>2026-04-04T16:34:41.464Z</time></trkpt><trkpt lat="44.3353173" lon="9.8994878"><ele>197.83333333333334</ele><time>2026-04-04T16:34:42.466Z</time></trkpt><trkpt lat="44.3354028" lon="9.8994403"><ele>198.0</ele><time>2026-04-04T16:34:43.456Z</time></trkpt><trkpt lat="44.3354979" lon="9.8994009"><ele>197.0</ele><time>2026-04-04T16:34:44.47Z</time></trkpt><trkpt lat="44.3356024" lon="9.8993622"><ele>196.0</ele><time>2026-04-04T16:34:45.466Z</time></trkpt><trkpt lat="44.3357181" lon="9.899323"><ele>195.0</ele><time>2026-04-04T16:34:46.466Z</time></trkpt><trkpt lat="44.335837" lon="9.8992712"><ele>194.0</ele><time>2026-04-04T16:34:47.458Z</time></trkpt><trkpt lat="44.3359602" lon="9.8992169"><ele>194.0</ele><time>2026-04-04T16:34:48.468Z</time></trkpt><trkpt lat="44.3360853" lon="9.8991574"><ele>194.0</ele><time>2026-04-04T16:34:49.464Z</time></trkpt><trkpt lat="44.3362077" lon="9.8991027"><ele>194.0</ele><time>2026-04-04T16:34:50.468Z</time></trkpt><trkpt lat="44.3363258" lon="9.8990517"><ele>194.0</ele><time>2026-04-04T16:34:51.462Z</time></trkpt><trkpt lat="44.3364309" lon="9.8990077"><ele>193.66666666666669</ele><time>2026-04-04T16:34:52.469Z</time></trkpt><trkpt lat="44.3365309" lon="9.8989752"><ele>193.33333333333334</ele><time>2026-04-04T16:34:53.462Z</time></trkpt><trkpt lat="44.3366202" lon="9.8989658"><ele>193.0</ele><time>2026-04-04T16:34:54.461Z</time></trkpt><trkpt lat="44.3366966" lon="9.8989867"><ele>192.66666666666669</ele><time>2026-04-04T16:34:55.468Z</time></trkpt><trkpt lat="44.3367608" lon="9.8990427"><ele>192.33333333333334</ele><time>2026-04-04T16:34:56.459Z</time></trkpt><trkpt lat="44.3368234" lon="9.8991045"><ele>192.0</ele><time>2026-04-04T16:34:57.467Z</time></trkpt><trkpt lat="44.336887" lon="9.8991567"><ele>192.0</ele><time>2026-04-04T16:34:58.472Z</time></trkpt><trkpt lat="44.3369422" lon="9.8992086"><ele>192.0</ele><time>2026-04-04T16:34:59.464Z</time></trkpt><trkpt lat="44.3369907" lon="9.8992658"><ele>192.0</ele><time>2026-04-04T16:35:00.466Z</time></trkpt><trkpt lat="44.3370299" lon="9.8993479"><ele>192.0</ele><time>2026-04-04T16:35:01.463Z</time></trkpt><trkpt lat="44.3370618" lon="9.8994582"><ele>192.0</ele><time>2026-04-04T16:35:02.466Z</time></trkpt><trkpt lat="44.337079" lon="9.899599"><ele>192.0</ele><time>2026-04-04T16:35:03.467Z</time></trkpt><trkpt lat="44.3370879" lon="9.899763"><ele>191.5</ele><time>2026-04-04T16:35:04.461Z</time></trkpt><trkpt lat="44.3370945" lon="9.899931"><ele>191.0</ele><time>2026-04-04T16:35:05.464Z</time></trkpt><trkpt lat="44.3371091" lon="9.9001172"><ele>190.5</ele><time>2026-04-04T16:35:06.489Z</time></trkpt><trkpt lat="44.3371268" lon="9.900309"><ele>190.0</ele><time>2026-04-04T16:35:07.458Z</time></trkpt><trkpt lat="44.33714" lon="9.9004952"><ele>189.75</ele><time>2026-04-04T16:35:08.468Z</time></trkpt><trkpt lat="44.3371549" lon="9.9006746"><ele>189.5</ele><time>2026-04-04T16:35:09.486Z</time></trkpt><trkpt lat="44.3371774" lon="9.9008458"><ele>189.25</ele><time>2026-04-04T16:35:10.454Z</time></trkpt><trkpt lat="44.3372001" lon="9.9010114"><ele>189.0</ele><time>2026-04-04T16:35:11.455Z</time></trkpt><trkpt lat="44.3372156" lon="9.9011751"><ele>189.75</ele><time>2026-04-04T16:35:12.458Z</time></trkpt><trkpt lat="44.3372322" lon="9.9013347"><ele>190.5</ele><time>2026-04-04T16:35:13.459Z</time></trkpt><trkpt lat="44.3372455" lon="9.9014949"><ele>191.25</ele><time>2026-04-04T16:35:14.455Z</time></trkpt><trkpt lat="44.3372656" lon="9.9016517"><ele>192.0</ele><time>2026-04-04T16:35:15.462Z</time></trkpt><trkpt lat="44.3372894" lon="9.9018088"><ele>192.0</ele><time>2026-04-04T16:35:16.463Z</time></trkpt><trkpt lat="44.3373289" lon="9.9019706"><ele>192.0</ele><time>2026-04-04T16:35:17.466Z</time></trkpt><trkpt lat="44.3373811" lon="9.9021257"><ele>192.0</ele><time>2026-04-04T16:35:18.457Z</time></trkpt><trkpt lat="44.3374447" lon="9.9022792"><ele>192.0</ele><time>2026-04-04T16:35:19.456Z</time></trkpt><trkpt lat="44.3375204" lon="9.9024437"><ele>191.0</ele><time>2026-04-04T16:35:20.446Z</time></trkpt><trkpt lat="44.3376009" lon="9.9026118"><ele>190.0</ele><time>2026-04-04T16:35:21.455Z</time></trkpt><trkpt lat="44.337681" lon="9.9027848"><ele>189.0</ele><time>2026-04-04T16:35:22.469Z</time></trkpt><trkpt lat="44.337756" lon="9.9029791"><ele>189.0</ele><time>2026-04-04T16:35:23.444Z</time></trkpt><trkpt lat="44.3377904" lon="9.9031705"><ele>189.0</ele><time>2026-04-04T16:35:24.443Z</time></trkpt><trkpt lat="44.3378299" lon="9.9033686"><ele>189.0</ele><time>2026-04-04T16:35:25.447Z</time></trkpt><trkpt lat="44.337887" lon="9.9035678"><ele>189.0</ele><time>2026-04-04T16:35:26.448Z</time></trkpt><trkpt lat="44.3379872" lon="9.9037477"><ele>189.33333333333334</ele><time>2026-04-04T16:35:27.438Z</time></trkpt><trkpt lat="44.3381173" lon="9.9038827"><ele>189.66666666666669</ele><time>2026-04-04T16:35:28.449Z</time></trkpt><trkpt lat="44.3382584" lon="9.9040171"><ele>190.0</ele><time>2026-04-04T16:35:29.444Z</time></trkpt><trkpt lat="44.3384103" lon="9.9041506"><ele>187.66666666666669</ele><time>2026-04-04T16:35:30.447Z</time></trkpt><trkpt lat="44.338551" lon="9.9042774"><ele>185.33333333333334</ele><time>2026-04-04T16:35:31.448Z</time></trkpt><trkpt lat="44.3386824" lon="9.904389"><ele>183.0</ele><time>2026-04-04T16:35:32.467Z</time></trkpt><trkpt lat="44.3388053" lon="9.9044858"><ele>183.75</ele><time>2026-04-04T16:35:33.454Z</time></trkpt><trkpt lat="44.3389314" lon="9.9045549"><ele>184.5</ele><time>2026-04-04T16:35:34.447Z</time></trkpt><trkpt lat="44.3390547" lon="9.9046013"><ele>185.25</ele><time>2026-04-04T16:35:35.457Z</time></trkpt><trkpt lat="44.3391992" lon="9.9045664"><ele>186.0</ele><time>2026-04-04T16:35:36.461Z</time></trkpt><trkpt lat="44.3393526" lon="9.9044827"><ele>186.0</ele><time>2026-04-04T16:35:37.462Z</time></trkpt><trkpt lat="44.3394838" lon="9.9044113"><ele>186.0</ele><time>2026-04-04T16:35:38.467Z</time></trkpt><trkpt lat="44.3396116" lon="9.9043609"><ele>186.0</ele><time>2026-04-04T16:35:39.473Z</time></trkpt><trkpt lat="44.3397386" lon="9.904311"><ele>186.0</ele><time>2026-04-04T16:35:40.467Z</time></trkpt><trkpt lat="44.3398752" lon="9.9042494"><ele>186.5</ele><time>2026-04-04T16:35:41.464Z</time></trkpt><trkpt lat="44.3400096" lon="9.9041899"><ele>187.0</ele><time>2026-04-04T16:35:42.465Z</time></trkpt><trkpt lat="44.3401546" lon="9.9041335"><ele>187.5</ele><time>2026-04-04T16:35:43.463Z</time></trkpt><trkpt lat="44.3403081" lon="9.9040817"><ele>188.0</ele><time>2026-04-04T16:35:44.454Z</time></trkpt><trkpt lat="44.3404573" lon="9.9040324"><ele>187.0</ele><time>2026-04-04T16:35:45.461Z</time></trkpt><trkpt lat="44.3406207" lon="9.9040028"><ele>186.0</ele><time>2026-04-04T16:35:46.468Z</time></trkpt><trkpt lat="44.3407797" lon="9.9039721"><ele>185.0</ele><time>2026-04-04T16:35:47.455Z</time></trkpt><trkpt lat="44.3409311" lon="9.9039398"><ele>185.0</ele><time>2026-04-04T16:35:48.464Z</time></trkpt><trkpt lat="44.3410909" lon="9.9039091"><ele>185.0</ele><time>2026-04-04T16:35:49.46Z</time></trkpt><trkpt lat="44.3412572" lon="9.9038656"><ele>185.0</ele><time>2026-04-04T16:35:50.464Z</time></trkpt><trkpt lat="44.341422" lon="9.9038446"><ele>185.33333333333331</ele><time>2026-04-04T16:35:51.474Z</time></trkpt><trkpt lat="44.341588" lon="9.9038378"><ele>185.66666666666666</ele><time>2026-04-04T16:35:52.48Z</time></trkpt><trkpt lat="44.3417587" lon="9.9038196"><ele>186.0</ele><time>2026-04-04T16:35:53.47Z</time></trkpt><trkpt lat="44.3419259" lon="9.9038078"><ele>186.0</ele><time>2026-04-04T16:35:54.469Z</time></trkpt><trkpt lat="44.3420988" lon="9.903807"><ele>186.0</ele><time>2026-04-04T16:35:55.462Z</time></trkpt><trkpt lat="44.3422541" lon="9.903801"><ele>186.0</ele><time>2026-04-04T16:35:56.463Z</time></trkpt><trkpt lat="44.3424097" lon="9.9037842"><ele>186.33333333333334</ele><time>2026-04-04T16:35:57.454Z</time></trkpt><trkpt lat="44.3425577" lon="9.9037736"><ele>186.66666666666669</ele><time>2026-04-04T16:35:58.46Z</time></trkpt><trkpt lat="44.3427035" lon="9.9037573"><ele>187.0</ele><time>2026-04-04T16:35:59.462Z</time></trkpt><trkpt lat="44.3428724" lon="9.9036834"><ele>187.0</ele><time>2026-04-04T16:36:00.464Z</time></trkpt><trkpt lat="44.3430817" lon="9.9035655"><ele>187.0</ele><time>2026-04-04T16:36:01.456Z</time></trkpt><trkpt lat="44.343316" lon="9.903475"><ele>188.0</ele><time>2026-04-04T16:36:02.456Z</time></trkpt><trkpt lat="44.3435413" lon="9.9033791"><ele>189.0</ele><time>2026-04-04T16:36:03.456Z</time></trkpt><trkpt lat="44.343732" lon="9.9032659"><ele>190.0</ele><time>2026-04-04T16:36:04.454Z</time></trkpt><trkpt lat="44.3439041" lon="9.9031746"><ele>190.0</ele><time>2026-04-04T16:36:05.451Z</time></trkpt><trkpt lat="44.3440624" lon="9.9030995"><ele>190.0</ele><time>2026-04-04T16:36:06.459Z</time></trkpt><trkpt lat="44.34422" lon="9.9029879"><ele>190.0</ele><time>2026-04-04T16:36:07.454Z</time></trkpt><trkpt lat="44.3444118" lon="9.9028984"><ele>190.0</ele><time>2026-04-04T16:36:08.451Z</time></trkpt><trkpt lat="44.3446306" lon="9.9028211"><ele>190.0</ele><time>2026-04-04T16:36:09.458Z</time></trkpt><trkpt lat="44.3448652" lon="9.9027362"><ele>190.0</ele><time>2026-04-04T16:36:10.464Z</time></trkpt><trkpt lat="44.3451054" lon="9.9026593"><ele>190.0</ele><time>2026-04-04T16:36:11.457Z</time></trkpt><trkpt lat="44.3453493" lon="9.9025841"><ele>191.5</ele><time>2026-04-04T16:36:12.464Z</time></trkpt><trkpt lat="44.3455773" lon="9.9025193"><ele>193.0</ele><time>2026-04-04T16:36:13.464Z</time></trkpt><trkpt lat="44.3457959" lon="9.9024692"><ele>193.0</ele><time>2026-04-04T16:36:14.461Z</time></trkpt><trkpt lat="44.3460164" lon="9.9023993"><ele>193.0</ele><time>2026-04-04T16:36:15.474Z</time></trkpt><trkpt lat="44.3462308" lon="9.9023509"><ele>193.0</ele><time>2026-04-04T16:36:16.465Z</time></trkpt><trkpt lat="44.3464494" lon="9.9022927"><ele>196.5</ele><time>2026-04-04T16:36:17.488Z</time></trkpt><trkpt lat="44.3466848" lon="9.9021914"><ele>200.0</ele><time>2026-04-04T16:36:18.485Z</time></trkpt><trkpt lat="44.3469394" lon="9.9020265"><ele>204.0</ele><time>2026-04-04T16:36:19.486Z</time></trkpt><trkpt lat="44.3472218" lon="9.901789"><ele>208.0</ele><time>2026-04-04T16:36:20.466Z</time></trkpt><trkpt lat="44.3475088" lon="9.9015352"><ele>208.5</ele><time>2026-04-04T16:36:21.466Z</time></trkpt><trkpt lat="44.3477615" lon="9.9013139"><ele>209.0</ele><time>2026-04-04T16:36:22.468Z</time></trkpt><trkpt lat="44.3480021" lon="9.9011216"><ele>210.0</ele><time>2026-04-04T16:36:23.446Z</time></trkpt><trkpt lat="44.3482178" lon="9.9009294"><ele>211.0</ele><time>2026-04-04T16:36:24.46Z</time></trkpt><trkpt lat="44.3484177" lon="9.9007474"><ele>212.0</ele><time>2026-04-04T16:36:25.464Z</time></trkpt><trkpt lat="44.3486051" lon="9.9005486"><ele>213.0</ele><time>2026-04-04T16:36:26.451Z</time></trkpt><trkpt lat="44.3487769" lon="9.9003779"><ele>214.0</ele><time>2026-04-04T16:36:27.451Z</time></trkpt><trkpt lat="44.3489214" lon="9.9002314"><ele>215.33333333333331</ele><time>2026-04-04T16:36:28.478Z</time></trkpt><trkpt lat="44.3490353" lon="9.9000744"><ele>216.66666666666669</ele><time>2026-04-04T16:36:29.462Z</time></trkpt><trkpt lat="44.349125" lon="9.8998424"><ele>218.0</ele><time>2026-04-04T16:36:30.47Z</time></trkpt><trkpt lat="44.3492176" lon="9.8995609"><ele>218.0</ele><time>2026-04-04T16:36:31.463Z</time></trkpt><trkpt lat="44.3492927" lon="9.8992559"><ele>218.0</ele><time>2026-04-04T16:36:32.45Z</time></trkpt><trkpt lat="44.3493781" lon="9.8989665"><ele>219.0</ele><time>2026-04-04T16:36:33.464Z</time></trkpt><trkpt lat="44.3494582" lon="9.8986836"><ele>220.0</ele><time>2026-04-04T16:36:34.451Z</time></trkpt><trkpt lat="44.3495297" lon="9.898438"><ele>221.0</ele><time>2026-04-04T16:36:35.458Z</time></trkpt><trkpt lat="44.349589" lon="9.8981881"><ele>221.33333333333334</ele><time>2026-04-04T16:36:36.452Z</time></trkpt><trkpt lat="44.3496581" lon="9.8979491"><ele>221.66666666666669</ele><time>2026-04-04T16:36:37.465Z</time></trkpt><trkpt lat="44.3497396" lon="9.8977042"><ele>222.0</ele><time>2026-04-04T16:36:38.466Z</time></trkpt><trkpt lat="44.3498147" lon="9.8974568"><ele>223.0</ele><time>2026-04-04T16:36:39.461Z</time></trkpt><trkpt lat="44.3498793" lon="9.8972324"><ele>224.0</ele><time>2026-04-04T16:36:40.459Z</time></trkpt><trkpt lat="44.3499375" lon="9.897027"><ele>225.0</ele><time>2026-04-04T16:36:41.465Z</time></trkpt><trkpt lat="44.3500001" lon="9.8968289"><ele>225.66666666666669</ele><time>2026-04-04T16:36:42.464Z</time></trkpt><trkpt lat="44.350061" lon="9.8966385"><ele>226.33333333333334</ele><time>2026-04-04T16:36:43.469Z</time></trkpt><trkpt lat="44.3501245" lon="9.8964387"><ele>227.0</ele><time>2026-04-04T16:36:44.466Z</time></trkpt><trkpt lat="44.3501814" lon="9.8962439"><ele>227.0</ele><time>2026-04-04T16:36:45.464Z</time></trkpt><trkpt lat="44.350237" lon="9.8960449"><ele>227.0</ele><time>2026-04-04T16:36:46.455Z</time></trkpt><trkpt lat="44.3503206" lon="9.8958544"><ele>227.0</ele><time>2026-04-04T16:36:47.469Z</time></trkpt><trkpt lat="44.3504424" lon="9.8956849"><ele>227.0</ele><time>2026-04-04T16:36:48.469Z</time></trkpt><trkpt lat="44.3505845" lon="9.8955279"><ele>227.0</ele><time>2026-04-04T16:36:49.461Z</time></trkpt><trkpt lat="44.3507319" lon="9.895395"><ele>227.0</ele><time>2026-04-04T16:36:50.457Z</time></trkpt><trkpt lat="44.3508967" lon="9.895293"><ele>227.0</ele><time>2026-04-04T16:36:51.467Z</time></trkpt><trkpt lat="44.3510705" lon="9.8951833"><ele>227.0</ele><time>2026-04-04T16:36:52.46Z</time></trkpt><trkpt lat="44.3512494" lon="9.8950566"><ele>227.0</ele><time>2026-04-04T16:36:53.474Z</time></trkpt><trkpt lat="44.3514238" lon="9.8949273"><ele>228.0</ele><time>2026-04-04T16:36:54.478Z</time></trkpt><trkpt lat="44.3515965" lon="9.8948047"><ele>229.0</ele><time>2026-04-04T16:36:55.475Z</time></trkpt><trkpt lat="44.3517802" lon="9.8946741"><ele>230.0</ele><time>2026-04-04T16:36:56.472Z</time></trkpt><trkpt lat="44.351975" lon="9.8945491"><ele>230.0</ele><time>2026-04-04T16:36:57.487Z</time></trkpt><trkpt lat="44.3521772" lon="9.8944531"><ele>230.0</ele><time>2026-04-04T16:36:58.459Z</time></trkpt><trkpt lat="44.3523833" lon="9.8944065"><ele>230.0</ele><time>2026-04-04T16:36:59.467Z</time></trkpt><trkpt lat="44.3525769" lon="9.894412"><ele>230.33333333333334</ele><time>2026-04-04T16:37:00.457Z</time></trkpt><trkpt lat="44.3527547" lon="9.8944365"><ele>230.66666666666669</ele><time>2026-04-04T16:37:01.453Z</time></trkpt><trkpt lat="44.3529363" lon="9.8944517"><ele>231.0</ele><time>2026-04-04T16:37:02.453Z</time></trkpt><trkpt lat="44.353121" lon="9.8944441"><ele>231.33333333333331</ele><time>2026-04-04T16:37:03.474Z</time></trkpt><trkpt lat="44.3533027" lon="9.8944441"><ele>231.66666666666666</ele><time>2026-04-04T16:37:04.483Z</time></trkpt><trkpt lat="44.3534916" lon="9.8944268"><ele>232.0</ele><time>2026-04-04T16:37:05.456Z</time></trkpt><trkpt lat="44.3536724" lon="9.8944116"><ele>232.0</ele><time>2026-04-04T16:37:06.463Z</time></trkpt><trkpt lat="44.3538327" lon="9.8943869"><ele>232.0</ele><time>2026-04-04T16:37:07.463Z</time></trkpt><trkpt lat="44.3539891" lon="9.8943762"><ele>232.0</ele><time>2026-04-04T16:37:08.466Z</time></trkpt><trkpt lat="44.3541474" lon="9.8943786"><ele>232.33333333333331</ele><time>2026-04-04T16:37:09.464Z</time></trkpt><trkpt lat="44.354301" lon="9.8943684"><ele>232.66666666666669</ele><time>2026-04-04T16:37:10.459Z</time></trkpt><trkpt lat="44.3544656" lon="9.8943552"><ele>233.0</ele><time>2026-04-04T16:37:11.465Z</time></trkpt><trkpt lat="44.3546339" lon="9.8943298"><ele>233.0</ele><time>2026-04-04T16:37:12.464Z</time></trkpt><trkpt lat="44.3547955" lon="9.8942727"><ele>233.0</ele><time>2026-04-04T16:37:13.464Z</time></trkpt><trkpt lat="44.3549496" lon="9.8942287"><ele>233.0</ele><time>2026-04-04T16:37:14.464Z</time></trkpt><trkpt lat="44.3550842" lon="9.894188"><ele>233.5</ele><time>2026-04-04T16:37:15.455Z</time></trkpt><trkpt lat="44.3552243" lon="9.894144"><ele>234.0</ele><time>2026-04-04T16:37:16.452Z</time></trkpt><trkpt lat="44.3553592" lon="9.8940738"><ele>234.5</ele><time>2026-04-04T16:37:17.444Z</time></trkpt><trkpt lat="44.3555015" lon="9.8940573"><ele>235.0</ele><time>2026-04-04T16:37:18.452Z</time></trkpt><trkpt lat="44.3556304" lon="9.8940231"><ele>235.0</ele><time>2026-04-04T16:37:19.452Z</time></trkpt><trkpt lat="44.3557477" lon="9.8939787"><ele>235.0</ele><time>2026-04-04T16:37:20.457Z</time></trkpt><trkpt lat="44.3558692" lon="9.8939255"><ele>235.0</ele><time>2026-04-04T16:37:21.46Z</time></trkpt><trkpt lat="44.3560085" lon="9.8939014"><ele>235.0</ele><time>2026-04-04T16:37:22.467Z</time></trkpt><trkpt lat="44.3561473" lon="9.8938603"><ele>235.0</ele><time>2026-04-04T16:37:23.464Z</time></trkpt><trkpt lat="44.3563098" lon="9.8938453"><ele>235.0</ele><time>2026-04-04T16:37:24.461Z</time></trkpt><trkpt lat="44.3564754" lon="9.8938176"><ele>235.0</ele><time>2026-04-04T16:37:25.466Z</time></trkpt><trkpt lat="44.3566695" lon="9.8937862"><ele>235.0</ele><time>2026-04-04T16:37:26.466Z</time></trkpt><trkpt lat="44.3568798" lon="9.8937589"><ele>235.0</ele><time>2026-04-04T16:37:27.475Z</time></trkpt><trkpt lat="44.3570759" lon="9.8937147"><ele>235.0</ele><time>2026-04-04T16:37:28.464Z</time></trkpt><trkpt lat="44.3572766" lon="9.8936784"><ele>234.0</ele><time>2026-04-04T16:37:29.464Z</time></trkpt><trkpt lat="44.357458" lon="9.8936563"><ele>233.0</ele><time>2026-04-04T16:37:30.455Z</time></trkpt><trkpt lat="44.3576156" lon="9.8936352"><ele>232.0</ele><time>2026-04-04T16:37:31.461Z</time></trkpt><trkpt lat="44.3577764" lon="9.8936071"><ele>232.0</ele><time>2026-04-04T16:37:32.451Z</time></trkpt><trkpt lat="44.3579206" lon="9.8935782"><ele>232.0</ele><time>2026-04-04T16:37:33.457Z</time></trkpt><trkpt lat="44.3580632" lon="9.8935565"><ele>232.0</ele><time>2026-04-04T16:37:34.456Z</time></trkpt><trkpt lat="44.358192" lon="9.8935335"><ele>232.0</ele><time>2026-04-04T16:37:35.463Z</time></trkpt><trkpt lat="44.358326" lon="9.8935031"><ele>232.5</ele><time>2026-04-04T16:37:36.458Z</time></trkpt><trkpt lat="44.3584532" lon="9.8934601"><ele>233.0</ele><time>2026-04-04T16:37:37.457Z</time></trkpt><trkpt lat="44.3585676" lon="9.8934068"><ele>233.5</ele><time>2026-04-04T16:37:38.457Z</time></trkpt><trkpt lat="44.3586781" lon="9.8933232"><ele>234.0</ele><time>2026-04-04T16:37:39.457Z</time></trkpt><trkpt lat="44.3587979" lon="9.8932201"><ele>228.66666666666669</ele><time>2026-04-04T16:37:40.455Z</time></trkpt><trkpt lat="44.3589172" lon="9.8931212"><ele>223.33333333333334</ele><time>2026-04-04T16:37:41.466Z</time></trkpt><trkpt lat="44.3590241" lon="9.8929698"><ele>218.0</ele><time>2026-04-04T16:37:42.465Z</time></trkpt><trkpt lat="44.3591265" lon="9.8927324"><ele>223.0</ele><time>2026-04-04T16:37:43.46Z</time></trkpt><trkpt lat="44.3592567" lon="9.8924811"><ele>228.0</ele><time>2026-04-04T16:37:44.456Z</time></trkpt><trkpt lat="44.359413" lon="9.8922304"><ele>228.0</ele><time>2026-04-04T16:37:45.446Z</time></trkpt><trkpt lat="44.3595782" lon="9.891998"><ele>228.0</ele><time>2026-04-04T16:37:46.448Z</time></trkpt><trkpt lat="44.359717" lon="9.8917774"><ele>228.0</ele><time>2026-04-04T16:37:47.449Z</time></trkpt><trkpt lat="44.3598597" lon="9.8915708"><ele>225.33333333333331</ele><time>2026-04-04T16:37:48.445Z</time></trkpt><trkpt lat="44.3600342" lon="9.8913889"><ele>222.66666666666666</ele><time>2026-04-04T16:37:49.438Z</time></trkpt><trkpt lat="44.3602414" lon="9.8912473"><ele>220.0</ele><time>2026-04-04T16:37:50.442Z</time></trkpt><trkpt lat="44.3604609" lon="9.8911068"><ele>220.5</ele><time>2026-04-04T16:37:51.437Z</time></trkpt><trkpt lat="44.3606921" lon="9.8909654"><ele>221.0</ele><time>2026-04-04T16:37:52.448Z</time></trkpt><trkpt lat="44.3609123" lon="9.8908286"><ele>221.0</ele><time>2026-04-04T16:37:53.44Z</time></trkpt><trkpt lat="44.3611282" lon="9.8906886"><ele>221.0</ele><time>2026-04-04T16:37:54.438Z</time></trkpt><trkpt lat="44.3613381" lon="9.8905289"><ele>218.0</ele><time>2026-04-04T16:37:55.444Z</time></trkpt><trkpt lat="44.3615333" lon="9.8903718"><ele>215.0</ele><time>2026-04-04T16:37:56.445Z</time></trkpt><trkpt lat="44.3617073" lon="9.890201"><ele>212.0</ele><time>2026-04-04T16:37:57.442Z</time></trkpt><trkpt lat="44.3618752" lon="9.890061"><ele>212.0</ele><time>2026-04-04T16:37:58.447Z</time></trkpt><trkpt lat="44.3620246" lon="9.8899249"><ele>212.0</ele><time>2026-04-04T16:37:59.449Z</time></trkpt><trkpt lat="44.3621494" lon="9.8897402"><ele>212.0</ele><time>2026-04-04T16:38:00.457Z</time></trkpt><trkpt lat="44.3622441" lon="9.8895121"><ele>212.0</ele><time>2026-04-04T16:38:01.456Z</time></trkpt><trkpt lat="44.362317" lon="9.8893228"><ele>212.0</ele><time>2026-04-04T16:38:02.443Z</time></trkpt><trkpt lat="44.3623595" lon="9.889141"><ele>212.0</ele><time>2026-04-04T16:38:03.445Z</time></trkpt><trkpt lat="44.3623633" lon="9.8889318"><ele>212.0</ele><time>2026-04-04T16:38:04.438Z</time></trkpt><trkpt lat="44.3623583" lon="9.8886968"><ele>212.75</ele><time>2026-04-04T16:38:05.458Z</time></trkpt><trkpt lat="44.3623613" lon="9.8884775"><ele>213.5</ele><time>2026-04-04T16:38:06.456Z</time></trkpt><trkpt lat="44.3623684" lon="9.8882829"><ele>214.25</ele><time>2026-04-04T16:38:07.444Z</time></trkpt><trkpt lat="44.3623753" lon="9.8881"><ele>215.0</ele><time>2026-04-04T16:38:08.442Z</time></trkpt><trkpt lat="44.3623793" lon="9.8879232"><ele>216.0</ele><time>2026-04-04T16:38:09.449Z</time></trkpt><trkpt lat="44.3623873" lon="9.8877538"><ele>217.0</ele><time>2026-04-04T16:38:10.443Z</time></trkpt><trkpt lat="44.3623862" lon="9.8875982"><ele>218.0</ele><time>2026-04-04T16:38:11.445Z</time></trkpt><trkpt lat="44.3623884" lon="9.8874374"><ele>219.0</ele><time>2026-04-04T16:38:12.447Z</time></trkpt><trkpt lat="44.3623985" lon="9.8872794"><ele>220.0</ele><time>2026-04-04T16:38:13.439Z</time></trkpt><trkpt lat="44.3624127" lon="9.8871173"><ele>221.0</ele><time>2026-04-04T16:38:14.443Z</time></trkpt><trkpt lat="44.3624242" lon="9.8869325"><ele>222.0</ele><time>2026-04-04T16:38:15.439Z</time></trkpt><trkpt lat="44.3624378" lon="9.8867453"><ele>223.0</ele><time>2026-04-04T16:38:16.443Z</time></trkpt><trkpt lat="44.3624501" lon="9.8865621"><ele>223.0</ele><time>2026-04-04T16:38:17.436Z</time></trkpt><trkpt lat="44.3624453" lon="9.8863669"><ele>223.0</ele><time>2026-04-04T16:38:18.438Z</time></trkpt><trkpt lat="44.3624051" lon="9.8861446"><ele>223.0</ele><time>2026-04-04T16:38:19.425Z</time></trkpt><trkpt lat="44.3623514" lon="9.8859267"><ele>221.25</ele><time>2026-04-04T16:38:20.451Z</time></trkpt><trkpt lat="44.3623084" lon="9.885723"><ele>219.5</ele><time>2026-04-04T16:38:21.468Z</time></trkpt><trkpt lat="44.362303" lon="9.8855315"><ele>217.75</ele><time>2026-04-04T16:38:22.475Z</time></trkpt><trkpt lat="44.3623279" lon="9.8853745"><ele>216.0</ele><time>2026-04-04T16:38:23.458Z</time></trkpt><trkpt lat="44.362377" lon="9.8852592"><ele>216.0</ele><time>2026-04-04T16:38:24.454Z</time></trkpt><trkpt lat="44.3624612" lon="9.885143"><ele>216.0</ele><time>2026-04-04T16:38:25.461Z</time></trkpt><trkpt lat="44.3625538" lon="9.8850489"><ele>216.0</ele><time>2026-04-04T16:38:26.456Z</time></trkpt><trkpt lat="44.3626622" lon="9.8849428"><ele>216.0</ele><time>2026-04-04T16:38:27.474Z</time></trkpt><trkpt lat="44.362775" lon="9.8848312"><ele>216.0</ele><time>2026-04-04T16:38:28.472Z</time></trkpt><trkpt lat="44.3628889" lon="9.8847191"><ele>216.0</ele><time>2026-04-04T16:38:29.47Z</time></trkpt><trkpt lat="44.3630002" lon="9.8846102"><ele>216.0</ele><time>2026-04-04T16:38:30.471Z</time></trkpt><trkpt lat="44.3631076" lon="9.8845112"><ele>216.0</ele><time>2026-04-04T16:38:31.472Z</time></trkpt><trkpt lat="44.3632097" lon="9.8844088"><ele>216.0</ele><time>2026-04-04T16:38:32.472Z</time></trkpt><trkpt lat="44.3633135" lon="9.8843111"><ele>216.0</ele><time>2026-04-04T16:38:33.467Z</time></trkpt><trkpt lat="44.3634114" lon="9.8842169"><ele>216.0</ele><time>2026-04-04T16:38:34.47Z</time></trkpt><trkpt lat="44.3634987" lon="9.884138"><ele>216.0</ele><time>2026-04-04T16:38:35.467Z</time></trkpt><trkpt lat="44.3635843" lon="9.8840549"><ele>216.0</ele><time>2026-04-04T16:38:36.469Z</time></trkpt><trkpt lat="44.3636637" lon="9.8839729"><ele>216.00000000000003</ele><time>2026-04-04T16:38:37.469Z</time></trkpt><trkpt lat="44.3637416" lon="9.883895"><ele>216.00000000000003</ele><time>2026-04-04T16:38:38.467Z</time></trkpt><trkpt lat="44.3638137" lon="9.8838113"><ele>216.0</ele><time>2026-04-04T16:38:39.481Z</time></trkpt><trkpt lat="44.363889" lon="9.8837307"><ele>216.0</ele><time>2026-04-04T16:38:40.472Z</time></trkpt><trkpt lat="44.3639676" lon="9.8836486"><ele>216.0</ele><time>2026-04-04T16:38:41.473Z</time></trkpt><trkpt lat="44.3640517" lon="9.8835642"><ele>216.0</ele><time>2026-04-04T16:38:42.474Z</time></trkpt><trkpt lat="44.3641433" lon="9.8834693"><ele>216.0</ele><time>2026-04-04T16:38:43.471Z</time></trkpt><trkpt lat="44.3642462" lon="9.8833681"><ele>216.0</ele><time>2026-04-04T16:38:44.466Z</time></trkpt><trkpt lat="44.3643589" lon="9.8832562"><ele>217.33333333333331</ele><time>2026-04-04T16:38:45.475Z</time></trkpt><trkpt lat="44.3644741" lon="9.8831402"><ele>218.66666666666666</ele><time>2026-04-04T16:38:46.467Z</time></trkpt><trkpt lat="44.3646001" lon="9.8830146"><ele>220.0</ele><time>2026-04-04T16:38:47.467Z</time></trkpt><trkpt lat="44.3647326" lon="9.8828867"><ele>221.0</ele><time>2026-04-04T16:38:48.475Z</time></trkpt><trkpt lat="44.3648608" lon="9.8827554"><ele>222.0</ele><time>2026-04-04T16:38:49.472Z</time></trkpt><trkpt lat="44.3649939" lon="9.8826266"><ele>223.0</ele><time>2026-04-04T16:38:50.471Z</time></trkpt><trkpt lat="44.3651375" lon="9.8825067"><ele>225.0</ele><time>2026-04-04T16:38:51.466Z</time></trkpt><trkpt lat="44.3652939" lon="9.882388"><ele>227.0</ele><time>2026-04-04T16:38:52.471Z</time></trkpt><trkpt lat="44.3654635" lon="9.882285"><ele>229.0</ele><time>2026-04-04T16:38:53.458Z</time></trkpt><trkpt lat="44.3656401" lon="9.8822189"><ele>229.0</ele><time>2026-04-04T16:38:54.453Z</time></trkpt><trkpt lat="44.3658078" lon="9.88217"><ele>229.0</ele><time>2026-04-04T16:38:55.446Z</time></trkpt><trkpt lat="44.3659868" lon="9.8821346"><ele>229.0</ele><time>2026-04-04T16:38:56.439Z</time></trkpt><trkpt lat="44.3661759" lon="9.8821122"><ele>228.66666666666666</ele><time>2026-04-04T16:38:57.446Z</time></trkpt><trkpt lat="44.3663751" lon="9.8820818"><ele>228.33333333333331</ele><time>2026-04-04T16:38:58.444Z</time></trkpt><trkpt lat="44.3665544" lon="9.8820542"><ele>228.0</ele><time>2026-04-04T16:38:59.444Z</time></trkpt><trkpt lat="44.3667429" lon="9.882027"><ele>228.0</ele><time>2026-04-04T16:39:00.441Z</time></trkpt><trkpt lat="44.3669345" lon="9.8819983"><ele>228.0</ele><time>2026-04-04T16:39:01.446Z</time></trkpt><trkpt lat="44.3671306" lon="9.8819654"><ele>228.0</ele><time>2026-04-04T16:39:02.441Z</time></trkpt><trkpt lat="44.3673349" lon="9.8819338"><ele>226.33333333333331</ele><time>2026-04-04T16:39:03.458Z</time></trkpt><trkpt lat="44.3675371" lon="9.8818868"><ele>224.66666666666666</ele><time>2026-04-04T16:39:04.449Z</time></trkpt><trkpt lat="44.3677394" lon="9.8818486"><ele>223.0</ele><time>2026-04-04T16:39:05.45Z</time></trkpt><trkpt lat="44.3679493" lon="9.8818014"><ele>225.33333333333331</ele><time>2026-04-04T16:39:06.458Z</time></trkpt><trkpt lat="44.3681592" lon="9.8817594"><ele>227.66666666666669</ele><time>2026-04-04T16:39:07.457Z</time></trkpt><trkpt lat="44.3683786" lon="9.8817115"><ele>230.0</ele><time>2026-04-04T16:39:08.459Z</time></trkpt><trkpt lat="44.3686049" lon="9.881661"><ele>230.0</ele><time>2026-04-04T16:39:09.455Z</time></trkpt><trkpt lat="44.3688338" lon="9.8816153"><ele>230.0</ele><time>2026-04-04T16:39:10.452Z</time></trkpt><trkpt lat="44.3690626" lon="9.8815958"><ele>232.5</ele><time>2026-04-04T16:39:11.455Z</time></trkpt><trkpt lat="44.3692976" lon="9.8816043"><ele>235.0</ele><time>2026-04-04T16:39:12.461Z</time></trkpt><trkpt lat="44.3695217" lon="9.8816179"><ele>234.66666666666666</ele><time>2026-04-04T16:39:13.458Z</time></trkpt><trkpt lat="44.3697265" lon="9.8816306"><ele>234.33333333333331</ele><time>2026-04-04T16:39:14.455Z</time></trkpt><trkpt lat="44.3699147" lon="9.8816402"><ele>234.0</ele><time>2026-04-04T16:39:15.454Z</time></trkpt><trkpt lat="44.3700912" lon="9.8816347"><ele>234.0</ele><time>2026-04-04T16:39:16.455Z</time></trkpt><trkpt lat="44.370253" lon="9.8816194"><ele>234.0</ele><time>2026-04-04T16:39:17.459Z</time></trkpt><trkpt lat="44.3704019" lon="9.8816205"><ele>234.0</ele><time>2026-04-04T16:39:18.453Z</time></trkpt><trkpt lat="44.3705435" lon="9.8816092"><ele>234.0</ele><time>2026-04-04T16:39:19.442Z</time></trkpt><trkpt lat="44.370666" lon="9.8815886"><ele>233.99999999999997</ele><time>2026-04-04T16:39:20.459Z</time></trkpt><trkpt lat="44.3707644" lon="9.8815885"><ele>233.99999999999997</ele><time>2026-04-04T16:39:21.464Z</time></trkpt><trkpt lat="44.370846" lon="9.8816201"><ele>234.0</ele><time>2026-04-04T16:39:22.467Z</time></trkpt><trkpt lat="44.3709188" lon="9.8817136"><ele>234.0</ele><time>2026-04-04T16:39:23.467Z</time></trkpt><trkpt lat="44.3709635" lon="9.8818412"><ele>233.5</ele><time>2026-04-04T16:39:24.471Z</time></trkpt><trkpt lat="44.370963" lon="9.8820116"><ele>233.0</ele><time>2026-04-04T16:39:25.475Z</time></trkpt><trkpt lat="44.3709244" lon="9.882185"><ele>232.5</ele><time>2026-04-04T16:39:26.466Z</time></trkpt><trkpt lat="44.3709043" lon="9.8823423"><ele>232.0</ele><time>2026-04-04T16:39:27.455Z</time></trkpt><trkpt lat="44.3708821" lon="9.8825205"><ele>230.75</ele><time>2026-04-04T16:39:28.457Z</time></trkpt><trkpt lat="44.3708639" lon="9.8827072"><ele>229.5</ele><time>2026-04-04T16:39:29.461Z</time></trkpt><trkpt lat="44.3708417" lon="9.8829094"><ele>228.25</ele><time>2026-04-04T16:39:30.457Z</time></trkpt><trkpt lat="44.3708198" lon="9.8831183"><ele>227.0</ele><time>2026-04-04T16:39:31.452Z</time></trkpt><trkpt lat="44.3708063" lon="9.8833286"><ele>226.5</ele><time>2026-04-04T16:39:32.454Z</time></trkpt><trkpt lat="44.3707974" lon="9.8835149"><ele>226.0</ele><time>2026-04-04T16:39:33.464Z</time></trkpt><trkpt lat="44.370781" lon="9.883698"><ele>225.5</ele><time>2026-04-04T16:39:34.457Z</time></trkpt><trkpt lat="44.3707651" lon="9.8838742"><ele>225.0</ele><time>2026-04-04T16:39:35.451Z</time></trkpt><trkpt lat="44.3707506" lon="9.8840424"><ele>225.0</ele><time>2026-04-04T16:39:36.451Z</time></trkpt><trkpt lat="44.3707388" lon="9.8842119"><ele>225.0</ele><time>2026-04-04T16:39:37.462Z</time></trkpt><trkpt lat="44.3707288" lon="9.8843953"><ele>225.0</ele><time>2026-04-04T16:39:38.469Z</time></trkpt><trkpt lat="44.3707134" lon="9.8845711"><ele>225.0</ele><time>2026-04-04T16:39:39.47Z</time></trkpt><trkpt lat="44.3706982" lon="9.8847378"><ele>224.8</ele><time>2026-04-04T16:39:40.461Z</time></trkpt><trkpt lat="44.3706857" lon="9.8849004"><ele>224.6</ele><time>2026-04-04T16:39:41.464Z</time></trkpt><trkpt lat="44.3706793" lon="9.8850478"><ele>224.39999999999998</ele><time>2026-04-04T16:39:42.46Z</time></trkpt><trkpt lat="44.3706691" lon="9.8851899"><ele>224.2</ele><time>2026-04-04T16:39:43.47Z</time></trkpt><trkpt lat="44.3706537" lon="9.8853346"><ele>224.0</ele><time>2026-04-04T16:39:44.463Z</time></trkpt><trkpt lat="44.3706411" lon="9.8854797"><ele>224.79999999999998</ele><time>2026-04-04T16:39:45.464Z</time></trkpt><trkpt lat="44.3706292" lon="9.8856209"><ele>225.59999999999997</ele><time>2026-04-04T16:39:46.464Z</time></trkpt><trkpt lat="44.3706166" lon="9.8857634"><ele>226.4</ele><time>2026-04-04T16:39:47.473Z</time></trkpt><trkpt lat="44.3705965" lon="9.885907"><ele>227.2</ele><time>2026-04-04T16:39:48.464Z</time></trkpt><trkpt lat="44.3705689" lon="9.8860427"><ele>228.0</ele><time>2026-04-04T16:39:49.448Z</time></trkpt><trkpt lat="44.3705278" lon="9.8861606"><ele>228.60000000000002</ele><time>2026-04-04T16:39:50.457Z</time></trkpt><trkpt lat="44.370482" lon="9.8862559"><ele>229.20000000000002</ele><time>2026-04-04T16:39:51.466Z</time></trkpt><trkpt lat="44.3704333" lon="9.8863366"><ele>229.8</ele><time>2026-04-04T16:39:52.473Z</time></trkpt><trkpt lat="44.3703969" lon="9.8864129"><ele>230.4</ele><time>2026-04-04T16:39:53.461Z</time></trkpt><trkpt lat="44.3703489" lon="9.8865745"><ele>231.0</ele><time>2026-04-04T16:39:55.468Z</time></trkpt><trkpt lat="44.3703281" lon="9.8867165"><ele>231.20000000000002</ele><time>2026-04-04T16:39:57.458Z</time></trkpt><trkpt lat="44.3703982" lon="9.8868331"><ele>231.40000000000003</ele><time>2026-04-04T16:40:02.463Z</time></trkpt><trkpt lat="44.3704711" lon="9.8868817"><ele>231.6</ele><time>2026-04-04T16:40:03.455Z</time></trkpt><trkpt lat="44.3705638" lon="9.8869249"><ele>231.8</ele><time>2026-04-04T16:40:04.455Z</time></trkpt><trkpt lat="44.3706683" lon="9.8869791"><ele>232.0</ele><time>2026-04-04T16:40:05.456Z</time></trkpt><trkpt lat="44.3707923" lon="9.887044"><ele>232.0</ele><time>2026-04-04T16:40:06.455Z</time></trkpt><trkpt lat="44.3709375" lon="9.8871072"><ele>232.0</ele><time>2026-04-04T16:40:07.455Z</time></trkpt><trkpt lat="44.3710935" lon="9.8871607"><ele>232.0</ele><time>2026-04-04T16:40:08.456Z</time></trkpt><trkpt lat="44.3712884" lon="9.887205"><ele>232.66666666666666</ele><time>2026-04-04T16:40:09.462Z</time></trkpt><trkpt lat="44.371484" lon="9.8872321"><ele>233.33333333333331</ele><time>2026-04-04T16:40:10.463Z</time></trkpt><trkpt lat="44.3716828" lon="9.8872508"><ele>234.0</ele><time>2026-04-04T16:40:11.453Z</time></trkpt><trkpt lat="44.3718839" lon="9.8872381"><ele>234.0</ele><time>2026-04-04T16:40:12.455Z</time></trkpt><trkpt lat="44.3720968" lon="9.8871998"><ele>234.0</ele><time>2026-04-04T16:40:13.456Z</time></trkpt><trkpt lat="44.3723179" lon="9.8871151"><ele>234.0</ele><time>2026-04-04T16:40:14.456Z</time></trkpt><trkpt lat="44.3725444" lon="9.8870407"><ele>234.33333333333331</ele><time>2026-04-04T16:40:15.447Z</time></trkpt><trkpt lat="44.3727477" lon="9.8869767"><ele>234.66666666666666</ele><time>2026-04-04T16:40:16.45Z</time></trkpt><trkpt lat="44.3729404" lon="9.8869217"><ele>235.0</ele><time>2026-04-04T16:40:17.454Z</time></trkpt><trkpt lat="44.373126" lon="9.8868513"><ele>235.33333333333331</ele><time>2026-04-04T16:40:18.458Z</time></trkpt><trkpt lat="44.3733088" lon="9.8867963"><ele>235.66666666666669</ele><time>2026-04-04T16:40:19.453Z</time></trkpt><trkpt lat="44.373475" lon="9.8867439"><ele>236.0</ele><time>2026-04-04T16:40:20.458Z</time></trkpt><trkpt lat="44.3736404" lon="9.8866996"><ele>235.66666666666669</ele><time>2026-04-04T16:40:21.463Z</time></trkpt><trkpt lat="44.3738039" lon="9.886658"><ele>235.33333333333331</ele><time>2026-04-04T16:40:22.47Z</time></trkpt><trkpt lat="44.3739601" lon="9.8866115"><ele>235.0</ele><time>2026-04-04T16:40:23.457Z</time></trkpt><trkpt lat="44.3741107" lon="9.8865727"><ele>235.0</ele><time>2026-04-04T16:40:24.459Z</time></trkpt><trkpt lat="44.3742629" lon="9.8865407"><ele>235.0</ele><time>2026-04-04T16:40:25.472Z</time></trkpt><trkpt lat="44.3744154" lon="9.886508"><ele>235.0</ele><time>2026-04-04T16:40:26.452Z</time></trkpt><trkpt lat="44.3745595" lon="9.8864642"><ele>236.0</ele><time>2026-04-04T16:40:27.459Z</time></trkpt><trkpt lat="44.3746991" lon="9.886422"><ele>237.0</ele><time>2026-04-04T16:40:28.46Z</time></trkpt><trkpt lat="44.3748462" lon="9.8863825"><ele>238.0</ele><time>2026-04-04T16:40:29.457Z</time></trkpt><trkpt lat="44.3749927" lon="9.8863345"><ele>239.0</ele><time>2026-04-04T16:40:30.462Z</time></trkpt><trkpt lat="44.375138" lon="9.8862678"><ele>239.0</ele><time>2026-04-04T16:40:31.454Z</time></trkpt><trkpt lat="44.3752771" lon="9.8861803"><ele>239.0</ele><time>2026-04-04T16:40:32.45Z</time></trkpt><trkpt lat="44.3754135" lon="9.8860611"><ele>239.0</ele><time>2026-04-04T16:40:33.448Z</time></trkpt><trkpt lat="44.3755498" lon="9.885944"><ele>240.66666666666669</ele><time>2026-04-04T16:40:34.448Z</time></trkpt><trkpt lat="44.3756801" lon="9.8858423"><ele>242.33333333333331</ele><time>2026-04-04T16:40:35.456Z</time></trkpt><trkpt lat="44.3758135" lon="9.8857409"><ele>244.0</ele><time>2026-04-04T16:40:36.462Z</time></trkpt><trkpt lat="44.3759451" lon="9.8856422"><ele>244.0</ele><time>2026-04-04T16:40:37.453Z</time></trkpt><trkpt lat="44.3760729" lon="9.8855518"><ele>244.0</ele><time>2026-04-04T16:40:38.446Z</time></trkpt><trkpt lat="44.3761999" lon="9.8854754"><ele>244.0</ele><time>2026-04-04T16:40:39.459Z</time></trkpt><trkpt lat="44.3763203" lon="9.8854308"><ele>244.0</ele><time>2026-04-04T16:40:40.453Z</time></trkpt><trkpt lat="44.3764306" lon="9.8853781"><ele>246.5</ele><time>2026-04-04T16:40:41.456Z</time></trkpt><trkpt lat="44.3765402" lon="9.8853261"><ele>249.0</ele><time>2026-04-04T16:40:42.458Z</time></trkpt><trkpt lat="44.3766565" lon="9.8852755"><ele>251.5</ele><time>2026-04-04T16:40:43.462Z</time></trkpt><trkpt lat="44.3767645" lon="9.8852375"><ele>254.0</ele><time>2026-04-04T16:40:44.456Z</time></trkpt><trkpt lat="44.3768814" lon="9.8851936"><ele>254.0</ele><time>2026-04-04T16:40:45.468Z</time></trkpt><trkpt lat="44.377009" lon="9.8851464"><ele>254.0</ele><time>2026-04-04T16:40:46.46Z</time></trkpt><trkpt lat="44.3771463" lon="9.8851045"><ele>254.0</ele><time>2026-04-04T16:40:47.449Z</time></trkpt><trkpt lat="44.377293" lon="9.8850537"><ele>254.0</ele><time>2026-04-04T16:40:48.459Z</time></trkpt><trkpt lat="44.3774386" lon="9.8849946"><ele>250.66666666666669</ele><time>2026-04-04T16:40:49.47Z</time></trkpt><trkpt lat="44.3775925" lon="9.8849363"><ele>247.33333333333331</ele><time>2026-04-04T16:40:50.463Z</time></trkpt><trkpt lat="44.3777372" lon="9.8848842"><ele>244.0</ele><time>2026-04-04T16:40:51.463Z</time></trkpt><trkpt lat="44.3778762" lon="9.884828"><ele>245.0</ele><time>2026-04-04T16:40:52.471Z</time></trkpt><trkpt lat="44.3780202" lon="9.8847676"><ele>246.0</ele><time>2026-04-04T16:40:53.463Z</time></trkpt><trkpt lat="44.3781587" lon="9.8847178"><ele>247.0</ele><time>2026-04-04T16:40:54.457Z</time></trkpt><trkpt lat="44.3782972" lon="9.8846715"><ele>248.0</ele><time>2026-04-04T16:40:55.46Z</time></trkpt><trkpt lat="44.3784344" lon="9.8846251"><ele>248.0</ele><time>2026-04-04T16:40:56.47Z</time></trkpt><trkpt lat="44.37858" lon="9.884567"><ele>248.0</ele><time>2026-04-04T16:40:57.46Z</time></trkpt><trkpt lat="44.3787361" lon="9.8845035"><ele>248.0</ele><time>2026-04-04T16:40:58.47Z</time></trkpt><trkpt lat="44.3788916" lon="9.8844334"><ele>249.66666666666669</ele><time>2026-04-04T16:40:59.465Z</time></trkpt><trkpt lat="44.3790564" lon="9.8843529"><ele>251.33333333333331</ele><time>2026-04-04T16:41:00.462Z</time></trkpt><trkpt lat="44.3792183" lon="9.8842685"><ele>253.0</ele><time>2026-04-04T16:41:01.465Z</time></trkpt><trkpt lat="44.3793794" lon="9.8841793"><ele>251.66666666666666</ele><time>2026-04-04T16:41:02.453Z</time></trkpt><trkpt lat="44.3795338" lon="9.8841074"><ele>250.33333333333331</ele><time>2026-04-04T16:41:03.458Z</time></trkpt><trkpt lat="44.3796855" lon="9.8840385"><ele>249.0</ele><time>2026-04-04T16:41:04.429Z</time></trkpt><trkpt lat="44.3798498" lon="9.8839881"><ele>249.0</ele><time>2026-04-04T16:41:05.415Z</time></trkpt><trkpt lat="44.3800081" lon="9.8839325"><ele>249.0</ele><time>2026-04-04T16:41:06.407Z</time></trkpt><trkpt lat="44.3801921" lon="9.8838757"><ele>249.0</ele><time>2026-04-04T16:41:07.405Z</time></trkpt><trkpt lat="44.3803528" lon="9.8838237"><ele>249.0</ele><time>2026-04-04T16:41:08.392Z</time></trkpt><trkpt lat="44.3805089" lon="9.8837742"><ele>249.0</ele><time>2026-04-04T16:41:09.353Z</time></trkpt><trkpt lat="44.3806656" lon="9.8837243"><ele>249.0</ele><time>2026-04-04T16:41:10.329Z</time></trkpt><trkpt lat="44.3819962" lon="9.8846097"><ele>249.0</ele><time>2026-04-04T16:41:18.428Z</time></trkpt><trkpt lat="44.3821432" lon="9.8844781"><ele>249.0</ele><time>2026-04-04T16:41:19.429Z</time></trkpt><trkpt lat="44.382279" lon="9.8843413"><ele>249.0</ele><time>2026-04-04T16:41:20.436Z</time></trkpt><trkpt lat="44.3824279" lon="9.8841768"><ele>249.0</ele><time>2026-04-04T16:41:21.449Z</time></trkpt><trkpt lat="44.382579" lon="9.8840093"><ele>249.0</ele><time>2026-04-04T16:41:22.466Z</time></trkpt><trkpt lat="44.3827437" lon="9.8838971"><ele>249.0</ele><time>2026-04-04T16:41:23.444Z</time></trkpt><trkpt lat="44.3828826" lon="9.8837819"><ele>249.0</ele><time>2026-04-04T16:41:24.445Z</time></trkpt><trkpt lat="44.3830511" lon="9.8837461"><ele>249.0</ele><time>2026-04-04T16:41:25.443Z</time></trkpt><trkpt lat="44.3832568" lon="9.8837073"><ele>249.0</ele><time>2026-04-04T16:41:26.433Z</time></trkpt><trkpt lat="44.3834827" lon="9.8836581"><ele>249.0</ele><time>2026-04-04T16:41:27.435Z</time></trkpt><trkpt lat="44.383715" lon="9.8836323"><ele>249.0</ele><time>2026-04-04T16:41:28.43Z</time></trkpt><trkpt lat="44.3839686" lon="9.8836167"><ele>251.0</ele><time>2026-04-04T16:41:29.436Z</time></trkpt><trkpt lat="44.3842216" lon="9.883619"><ele>253.0</ele><time>2026-04-04T16:41:30.425Z</time></trkpt><trkpt lat="44.3844639" lon="9.8836295"><ele>254.0</ele><time>2026-04-04T16:41:31.419Z</time></trkpt><trkpt lat="44.384685" lon="9.8836782"><ele>255.0</ele><time>2026-04-04T16:41:32.436Z</time></trkpt><trkpt lat="44.3848854" lon="9.8837395"><ele>256.0</ele><time>2026-04-04T16:41:33.438Z</time></trkpt><trkpt lat="44.3850766" lon="9.8837868"><ele>256.0</ele><time>2026-04-04T16:41:34.444Z</time></trkpt><trkpt lat="44.3852683" lon="9.8838315"><ele>256.0</ele><time>2026-04-04T16:41:35.452Z</time></trkpt><trkpt lat="44.3854609" lon="9.8838781"><ele>256.0</ele><time>2026-04-04T16:41:36.44Z</time></trkpt><trkpt lat="44.3856364" lon="9.883916"><ele>256.66666666666663</ele><time>2026-04-04T16:41:37.447Z</time></trkpt><trkpt lat="44.3857987" lon="9.8839592"><ele>257.3333333333333</ele><time>2026-04-04T16:41:38.452Z</time></trkpt><trkpt lat="44.3859464" lon="9.8839826"><ele>258.0</ele><time>2026-04-04T16:41:39.45Z</time></trkpt><trkpt lat="44.3860871" lon="9.8840147"><ele>258.0</ele><time>2026-04-04T16:41:40.44Z</time></trkpt><trkpt lat="44.3862384" lon="9.8840406"><ele>258.0</ele><time>2026-04-04T16:41:41.445Z</time></trkpt><trkpt lat="44.38638" lon="9.884062"><ele>258.0</ele><time>2026-04-04T16:41:42.441Z</time></trkpt><trkpt lat="44.3865144" lon="9.8840775"><ele>258.0</ele><time>2026-04-04T16:41:43.449Z</time></trkpt><trkpt lat="44.386652" lon="9.8840921"><ele>259.0</ele><time>2026-04-04T16:41:44.44Z</time></trkpt><trkpt lat="44.3867937" lon="9.8841128"><ele>260.0</ele><time>2026-04-04T16:41:45.446Z</time></trkpt><trkpt lat="44.3869442" lon="9.8841475"><ele>261.0</ele><time>2026-04-04T16:41:46.442Z</time></trkpt><trkpt lat="44.3870982" lon="9.8841807"><ele>262.0</ele><time>2026-04-04T16:41:47.45Z</time></trkpt><trkpt lat="44.3872532" lon="9.8842018"><ele>263.0</ele><time>2026-04-04T16:41:48.448Z</time></trkpt><trkpt lat="44.387399" lon="9.8842147"><ele>264.0</ele><time>2026-04-04T16:41:49.446Z</time></trkpt><trkpt lat="44.387537" lon="9.8842408"><ele>265.0</ele><time>2026-04-04T16:41:50.453Z</time></trkpt><trkpt lat="44.3876715" lon="9.8842539"><ele>265.0</ele><time>2026-04-04T16:41:51.449Z</time></trkpt><trkpt lat="44.3878044" lon="9.8842717"><ele>265.0</ele><time>2026-04-04T16:41:52.454Z</time></trkpt><trkpt lat="44.3879401" lon="9.8842879"><ele>265.0</ele><time>2026-04-04T16:41:53.447Z</time></trkpt><trkpt lat="44.3880718" lon="9.8843125"><ele>265.0</ele><time>2026-04-04T16:41:54.454Z</time></trkpt><trkpt lat="44.3882035" lon="9.8843245"><ele>265.0</ele><time>2026-04-04T16:41:55.451Z</time></trkpt><trkpt lat="44.3883332" lon="9.8843379"><ele>265.0</ele><time>2026-04-04T16:41:56.45Z</time></trkpt><trkpt lat="44.3884656" lon="9.8843567"><ele>265.0</ele><time>2026-04-04T16:41:57.454Z</time></trkpt><trkpt lat="44.3885999" lon="9.8843787"><ele>265.0</ele><time>2026-04-04T16:41:58.459Z</time></trkpt><trkpt lat="44.388737" lon="9.8843968"><ele>265.0</ele><time>2026-04-04T16:41:59.45Z</time></trkpt><trkpt lat="44.3888847" lon="9.8844185"><ele>265.0</ele><time>2026-04-04T16:42:00.456Z</time></trkpt><trkpt lat="44.3890442" lon="9.8844367"><ele>265.0</ele><time>2026-04-04T16:42:01.449Z</time></trkpt><trkpt lat="44.3892117" lon="9.8844457"><ele>265.0</ele><time>2026-04-04T16:42:02.448Z</time></trkpt><trkpt lat="44.3893856" lon="9.8844517"><ele>265.0</ele><time>2026-04-04T16:42:03.454Z</time></trkpt><trkpt lat="44.3895654" lon="9.8844367"><ele>265.0</ele><time>2026-04-04T16:42:04.448Z</time></trkpt><trkpt lat="44.3897583" lon="9.8844097"><ele>266.0</ele><time>2026-04-04T16:42:05.447Z</time></trkpt><trkpt lat="44.3899549" lon="9.8843583"><ele>267.0</ele><time>2026-04-04T16:42:06.438Z</time></trkpt><trkpt lat="44.3901697" lon="9.8842839"><ele>268.0</ele><time>2026-04-04T16:42:07.44Z</time></trkpt><trkpt lat="44.3903904" lon="9.8841763"><ele>272.5</ele><time>2026-04-04T16:42:08.444Z</time></trkpt><trkpt lat="44.3906199" lon="9.8840332"><ele>277.0</ele><time>2026-04-04T16:42:09.433Z</time></trkpt><trkpt lat="44.3908509" lon="9.8838539"><ele>277.0</ele><time>2026-04-04T16:42:10.439Z</time></trkpt><trkpt lat="44.3910724" lon="9.8836203"><ele>277.0</ele><time>2026-04-04T16:42:11.437Z</time></trkpt><trkpt lat="44.391289" lon="9.883402"><ele>279.5</ele><time>2026-04-04T16:42:12.434Z</time></trkpt><trkpt lat="44.3914893" lon="9.8832011"><ele>282.0</ele><time>2026-04-04T16:42:13.437Z</time></trkpt><trkpt lat="44.3916616" lon="9.8830197"><ele>282.0</ele><time>2026-04-04T16:42:14.437Z</time></trkpt><trkpt lat="44.3918175" lon="9.8828445"><ele>282.0</ele><time>2026-04-04T16:42:15.44Z</time></trkpt><trkpt lat="44.3919667" lon="9.8826734"><ele>282.0</ele><time>2026-04-04T16:42:16.429Z</time></trkpt><trkpt lat="44.3921255" lon="9.8824934"><ele>284.0</ele><time>2026-04-04T16:42:17.441Z</time></trkpt><trkpt lat="44.3922871" lon="9.8823197"><ele>286.0</ele><time>2026-04-04T16:42:18.437Z</time></trkpt><trkpt lat="44.3924522" lon="9.8821472"><ele>288.0</ele><time>2026-04-04T16:42:19.436Z</time></trkpt><trkpt lat="44.3926239" lon="9.8819936"><ele>288.0</ele><time>2026-04-04T16:42:20.429Z</time></trkpt><trkpt lat="44.3927834" lon="9.8818313"><ele>288.0</ele><time>2026-04-04T16:42:21.435Z</time></trkpt><trkpt lat="44.3929478" lon="9.8816609"><ele>288.0</ele><time>2026-04-04T16:42:22.441Z</time></trkpt><trkpt lat="44.3931077" lon="9.8815113"><ele>287.0</ele><time>2026-04-04T16:42:23.43Z</time></trkpt><trkpt lat="44.3932522" lon="9.8813638"><ele>286.0</ele><time>2026-04-04T16:42:24.429Z</time></trkpt><trkpt lat="44.3933707" lon="9.8812597"><ele>285.0</ele><time>2026-04-04T16:42:25.421Z</time></trkpt><trkpt lat="44.3934637" lon="9.8812099"><ele>284.0</ele><time>2026-04-04T16:42:26.428Z</time></trkpt><trkpt lat="44.3935642" lon="9.8812421"><ele>284.0</ele><time>2026-04-04T16:42:27.433Z</time></trkpt><trkpt lat="44.3936442" lon="9.8813182"><ele>284.0</ele><time>2026-04-04T16:42:28.428Z</time></trkpt><trkpt lat="44.3937121" lon="9.8814273"><ele>284.0</ele><time>2026-04-04T16:42:29.431Z</time></trkpt><trkpt lat="44.3938056" lon="9.8816074"><ele>284.0</ele><time>2026-04-04T16:42:30.427Z</time></trkpt><trkpt lat="44.3939202" lon="9.8817969"><ele>284.33333333333337</ele><time>2026-04-04T16:42:31.429Z</time></trkpt><trkpt lat="44.3940419" lon="9.8819898"><ele>284.6666666666667</ele><time>2026-04-04T16:42:32.433Z</time></trkpt><trkpt lat="44.3941508" lon="9.8821873"><ele>285.0</ele><time>2026-04-04T16:42:33.444Z</time></trkpt><trkpt lat="44.3942625" lon="9.8823448"><ele>285.0</ele><time>2026-04-04T16:42:34.445Z</time></trkpt><trkpt lat="44.3943774" lon="9.8824766"><ele>285.0</ele><time>2026-04-04T16:42:35.441Z</time></trkpt><trkpt lat="44.3945302" lon="9.8825464"><ele>285.0</ele><time>2026-04-04T16:42:36.441Z</time></trkpt><trkpt lat="44.3947346" lon="9.8825561"><ele>293.0</ele><time>2026-04-04T16:42:37.438Z</time></trkpt><trkpt lat="44.3949553" lon="9.8825048"><ele>301.0</ele><time>2026-04-04T16:42:38.434Z</time></trkpt><trkpt lat="44.3951931" lon="9.8824981"><ele>301.0</ele><time>2026-04-04T16:42:39.432Z</time></trkpt><trkpt lat="44.3954462" lon="9.8825379"><ele>301.0</ele><time>2026-04-04T16:42:40.432Z</time></trkpt><trkpt lat="44.3957438" lon="9.882665"><ele>298.5</ele><time>2026-04-04T16:42:41.428Z</time></trkpt><trkpt lat="44.3960265" lon="9.8827772"><ele>296.0</ele><time>2026-04-04T16:42:42.422Z</time></trkpt><trkpt lat="44.3962614" lon="9.8828598"><ele>303.33333333333337</ele><time>2026-04-04T16:42:43.432Z</time></trkpt><trkpt lat="44.3964668" lon="9.8829769"><ele>310.6666666666667</ele><time>2026-04-04T16:42:44.434Z</time></trkpt><trkpt lat="44.3965983" lon="9.8831102"><ele>318.0</ele><time>2026-04-04T16:42:45.433Z</time></trkpt><trkpt lat="44.3966807" lon="9.883284"><ele>314.6666666666667</ele><time>2026-04-04T16:42:46.425Z</time></trkpt><trkpt lat="44.3967297" lon="9.8834621"><ele>311.33333333333337</ele><time>2026-04-04T16:42:47.433Z</time></trkpt><trkpt lat="44.3967902" lon="9.8836771"><ele>308.0</ele><time>2026-04-04T16:42:48.426Z</time></trkpt><trkpt lat="44.3968718" lon="9.883943"><ele>308.0</ele><time>2026-04-04T16:42:49.431Z</time></trkpt><trkpt lat="44.3969872" lon="9.8842278"><ele>308.0</ele><time>2026-04-04T16:42:50.436Z</time></trkpt><trkpt lat="44.3971435" lon="9.8845536"><ele>310.5</ele><time>2026-04-04T16:42:51.442Z</time></trkpt><trkpt lat="44.3972889" lon="9.8848555"><ele>313.0</ele><time>2026-04-04T16:42:52.439Z</time></trkpt><trkpt lat="44.397419" lon="9.885122"><ele>313.0</ele><time>2026-04-04T16:42:53.437Z</time></trkpt><trkpt lat="44.3975335" lon="9.8853447"><ele>313.0</ele><time>2026-04-04T16:42:54.431Z</time></trkpt><trkpt lat="44.3976646" lon="9.8855377"><ele>313.0</ele><time>2026-04-04T16:42:55.429Z</time></trkpt><trkpt lat="44.3978078" lon="9.885667"><ele>313.0</ele><time>2026-04-04T16:42:56.433Z</time></trkpt><trkpt lat="44.397936" lon="9.8857602"><ele>313.0</ele><time>2026-04-04T16:42:57.428Z</time></trkpt><trkpt lat="44.3980513" lon="9.8857822"><ele>313.0</ele><time>2026-04-04T16:42:58.431Z</time></trkpt><trkpt lat="44.3981858" lon="9.8856632"><ele>313.0</ele><time>2026-04-04T16:42:59.425Z</time></trkpt><trkpt lat="44.3983369" lon="9.8855947"><ele>318.0</ele><time>2026-04-04T16:43:00.449Z</time></trkpt><trkpt lat="44.3984777" lon="9.8855996"><ele>323.0</ele><time>2026-04-04T16:43:01.431Z</time></trkpt><trkpt lat="44.3986175" lon="9.8856717"><ele>328.0</ele><time>2026-04-04T16:43:02.422Z</time></trkpt><trkpt lat="44.3987775" lon="9.8856998"><ele>322.66666666666663</ele><time>2026-04-04T16:43:03.427Z</time></trkpt><trkpt lat="44.398928" lon="9.8857378"><ele>317.3333333333333</ele><time>2026-04-04T16:43:04.432Z</time></trkpt><trkpt lat="44.3990496" lon="9.8858348"><ele>312.0</ele><time>2026-04-04T16:43:05.431Z</time></trkpt><trkpt lat="44.3991563" lon="9.8860019"><ele>312.0</ele><time>2026-04-04T16:43:06.422Z</time></trkpt><trkpt lat="44.3992688" lon="9.8861394"><ele>312.0</ele><time>2026-04-04T16:43:07.419Z</time></trkpt><trkpt lat="44.3994369" lon="9.8862107"><ele>312.0</ele><time>2026-04-04T16:43:08.429Z</time></trkpt><trkpt lat="44.3996701" lon="9.8862243"><ele>323.3333333333333</ele><time>2026-04-04T16:43:09.426Z</time></trkpt><trkpt lat="44.3998525" lon="9.8862511"><ele>334.66666666666663</ele><time>2026-04-04T16:43:10.43Z</time></trkpt><trkpt lat="44.3999982" lon="9.8863434"><ele>346.0</ele><time>2026-04-04T16:43:11.424Z</time></trkpt><trkpt lat="44.4000907" lon="9.8865181"><ele>346.0</ele><time>2026-04-04T16:43:12.416Z</time></trkpt><trkpt lat="44.4001678" lon="9.8867069"><ele>346.0</ele><time>2026-04-04T16:43:13.424Z</time></trkpt><trkpt lat="44.4002274" lon="9.8869604"><ele>346.0</ele><time>2026-04-04T16:43:14.422Z</time></trkpt><trkpt lat="44.4002771" lon="9.8872178"><ele>346.3333333333333</ele><time>2026-04-04T16:43:15.42Z</time></trkpt><trkpt lat="44.400344" lon="9.8874297"><ele>346.6666666666667</ele><time>2026-04-04T16:43:16.428Z</time></trkpt><trkpt lat="44.4004508" lon="9.8876188"><ele>347.0</ele><time>2026-04-04T16:43:17.437Z</time></trkpt><trkpt lat="44.40063" lon="9.8877538"><ele>347.0</ele><time>2026-04-04T16:43:18.432Z</time></trkpt><trkpt lat="44.4008441" lon="9.8879057"><ele>347.0</ele><time>2026-04-04T16:43:19.427Z</time></trkpt><trkpt lat="44.4010183" lon="9.8880688"><ele>347.0</ele><time>2026-04-04T16:43:20.429Z</time></trkpt><trkpt lat="44.4011739" lon="9.8882122"><ele>347.0</ele><time>2026-04-04T16:43:21.435Z</time></trkpt><trkpt lat="44.4012902" lon="9.8882996"><ele>347.0</ele><time>2026-04-04T16:43:22.441Z</time></trkpt><trkpt lat="44.401363" lon="9.8883022"><ele>347.0</ele><time>2026-04-04T16:43:23.429Z</time></trkpt><trkpt lat="44.4014005" lon="9.8882245"><ele>347.0</ele><time>2026-04-04T16:43:24.43Z</time></trkpt><trkpt lat="44.4014056" lon="9.8881044"><ele>347.0</ele><time>2026-04-04T16:43:25.429Z</time></trkpt><trkpt lat="44.4013427" lon="9.8879643"><ele>347.0</ele><time>2026-04-04T16:43:26.43Z</time></trkpt><trkpt lat="44.401232" lon="9.8878513"><ele>347.0</ele><time>2026-04-04T16:43:27.425Z</time></trkpt><trkpt lat="44.4010713" lon="9.887728"><ele>351.75</ele><time>2026-04-04T16:43:28.426Z</time></trkpt><trkpt lat="44.4009426" lon="9.887578"><ele>356.5</ele><time>2026-04-04T16:43:29.428Z</time></trkpt><trkpt lat="44.4008228" lon="9.8874505"><ele>361.25</ele><time>2026-04-04T16:43:30.436Z</time></trkpt><trkpt lat="44.4007278" lon="9.8873265"><ele>366.0</ele><time>2026-04-04T16:43:31.437Z</time></trkpt><trkpt lat="44.4006746" lon="9.8871925"><ele>366.0</ele><time>2026-04-04T16:43:32.433Z</time></trkpt><trkpt lat="44.4006632" lon="9.8870255"><ele>366.0</ele><time>2026-04-04T16:43:33.438Z</time></trkpt><trkpt lat="44.4006517" lon="9.8868405"><ele>366.0</ele><time>2026-04-04T16:43:34.436Z</time></trkpt><trkpt lat="44.400639" lon="9.8866608"><ele>366.0</ele><time>2026-04-04T16:43:35.43Z</time></trkpt><trkpt lat="44.4006158" lon="9.8864834"><ele>367.75</ele><time>2026-04-04T16:43:36.434Z</time></trkpt><trkpt lat="44.4005837" lon="9.8863244"><ele>369.5</ele><time>2026-04-04T16:43:37.435Z</time></trkpt><trkpt lat="44.4005253" lon="9.8861665"><ele>371.25</ele><time>2026-04-04T16:43:38.424Z</time></trkpt><trkpt lat="44.4004602" lon="9.8860245"><ele>373.0</ele><time>2026-04-04T16:43:39.429Z</time></trkpt><trkpt lat="44.4003983" lon="9.8858966"><ele>373.0</ele><time>2026-04-04T16:43:40.428Z</time></trkpt><trkpt lat="44.400341" lon="9.8857798"><ele>373.0</ele><time>2026-04-04T16:43:41.428Z</time></trkpt><trkpt lat="44.4002789" lon="9.8856653"><ele>373.0</ele><time>2026-04-04T16:43:42.428Z</time></trkpt><trkpt lat="44.4002145" lon="9.8855692"><ele>373.0</ele><time>2026-04-04T16:43:43.438Z</time></trkpt><trkpt lat="44.400138" lon="9.885488"><ele>373.0</ele><time>2026-04-04T16:43:44.439Z</time></trkpt><trkpt lat="44.4000567" lon="9.8854173"><ele>373.0</ele><time>2026-04-04T16:43:45.429Z</time></trkpt><trkpt lat="44.3999689" lon="9.885364"><ele>373.0</ele><time>2026-04-04T16:43:46.425Z</time></trkpt><trkpt lat="44.3998815" lon="9.8853262"><ele>373.0</ele><time>2026-04-04T16:43:47.433Z</time></trkpt><trkpt lat="44.3997937" lon="9.8852909"><ele>373.0</ele><time>2026-04-04T16:43:48.43Z</time></trkpt><trkpt lat="44.3997035" lon="9.885272"><ele>373.0</ele><time>2026-04-04T16:43:49.433Z</time></trkpt><trkpt lat="44.3996134" lon="9.8852512"><ele>373.8333333333333</ele><time>2026-04-04T16:43:50.427Z</time></trkpt><trkpt lat="44.3995362" lon="9.8851996"><ele>374.66666666666663</ele><time>2026-04-04T16:43:51.434Z</time></trkpt><trkpt lat="44.3994752" lon="9.8851254"><ele>375.5</ele><time>2026-04-04T16:43:52.446Z</time></trkpt><trkpt lat="44.3994301" lon="9.8850315"><ele>376.3333333333333</ele><time>2026-04-04T16:43:53.435Z</time></trkpt><trkpt lat="44.3993895" lon="9.8849338"><ele>377.1666666666667</ele><time>2026-04-04T16:43:54.437Z</time></trkpt><trkpt lat="44.3993461" lon="9.8848323"><ele>378.0</ele><time>2026-04-04T16:43:55.44Z</time></trkpt><trkpt lat="44.3992976" lon="9.8847269"><ele>378.0</ele><time>2026-04-04T16:43:56.439Z</time></trkpt><trkpt lat="44.3992484" lon="9.8846121"><ele>378.0</ele><time>2026-04-04T16:43:57.432Z</time></trkpt><trkpt lat="44.3991963" lon="9.8844963"><ele>378.0</ele><time>2026-04-04T16:43:58.432Z</time></trkpt><trkpt lat="44.3991407" lon="9.8843844"><ele>378.0</ele><time>2026-04-04T16:43:59.437Z</time></trkpt><trkpt lat="44.3990909" lon="9.8842755"><ele>378.0</ele><time>2026-04-04T16:44:00.443Z</time></trkpt><trkpt lat="44.3990296" lon="9.8841842"><ele>376.1666666666667</ele><time>2026-04-04T16:44:01.447Z</time></trkpt><trkpt lat="44.3989632" lon="9.8840934"><ele>374.3333333333333</ele><time>2026-04-04T16:44:02.43Z</time></trkpt><trkpt lat="44.3989058" lon="9.8840011"><ele>372.5</ele><time>2026-04-04T16:44:03.436Z</time></trkpt><trkpt lat="44.3988517" lon="9.8839088"><ele>370.66666666666663</ele><time>2026-04-04T16:44:04.437Z</time></trkpt><trkpt lat="44.3988063" lon="9.8838046"><ele>368.8333333333333</ele><time>2026-04-04T16:44:05.427Z</time></trkpt><trkpt lat="44.398769" lon="9.8837028"><ele>367.0</ele><time>2026-04-04T16:44:06.431Z</time></trkpt><trkpt lat="44.3987382" lon="9.8836003"><ele>367.0</ele><time>2026-04-04T16:44:07.438Z</time></trkpt><trkpt lat="44.3987237" lon="9.8834913"><ele>367.0</ele><time>2026-04-04T16:44:08.428Z</time></trkpt><trkpt lat="44.3987185" lon="9.8833947"><ele>367.0</ele><time>2026-04-04T16:44:09.434Z</time></trkpt><trkpt lat="44.3987145" lon="9.8832927"><ele>367.0</ele><time>2026-04-04T16:44:10.437Z</time></trkpt><trkpt lat="44.3987236" lon="9.8831916"><ele>367.0</ele><time>2026-04-04T16:44:11.445Z</time></trkpt><trkpt lat="44.3987319" lon="9.8830965"><ele>367.0</ele><time>2026-04-04T16:44:12.455Z</time></trkpt><trkpt lat="44.3987409" lon="9.8830063"><ele>367.0</ele><time>2026-04-04T16:44:13.429Z</time></trkpt><trkpt lat="44.3987523" lon="9.8828368"><ele>369.6</ele><time>2026-04-04T16:44:15.436Z</time></trkpt><trkpt lat="44.3987462" lon="9.8827479"><ele>372.20000000000005</ele><time>2026-04-04T16:44:16.436Z</time></trkpt><trkpt lat="44.3987047" lon="9.8825738"><ele>374.8</ele><time>2026-04-04T16:44:18.436Z</time></trkpt><trkpt lat="44.3986624" lon="9.8824809"><ele>377.4</ele><time>2026-04-04T16:44:19.43Z</time></trkpt><trkpt lat="44.3986053" lon="9.882376"><ele>380.0</ele><time>2026-04-04T16:44:20.442Z</time></trkpt><trkpt lat="44.3985507" lon="9.8822647"><ele>382.2</ele><time>2026-04-04T16:44:21.434Z</time></trkpt><trkpt lat="44.3984863" lon="9.8821474"><ele>384.4</ele><time>2026-04-04T16:44:22.467Z</time></trkpt><trkpt lat="44.3984356" lon="9.8820163"><ele>386.6</ele><time>2026-04-04T16:44:23.444Z</time></trkpt><trkpt lat="44.3983926" lon="9.8818828"><ele>388.8</ele><time>2026-04-04T16:44:24.443Z</time></trkpt><trkpt lat="44.3983613" lon="9.8817467"><ele>391.0</ele><time>2026-04-04T16:44:25.449Z</time></trkpt><trkpt lat="44.3983487" lon="9.881623"><ele>391.0</ele><time>2026-04-04T16:44:26.446Z</time></trkpt><trkpt lat="44.3983555" lon="9.8815287"><ele>391.0</ele><time>2026-04-04T16:44:27.44Z</time></trkpt><trkpt lat="44.3984622" lon="9.881591"><ele>391.0</ele><time>2026-04-04T16:44:29.454Z</time></trkpt><trkpt lat="44.3985305" lon="9.8817395"><ele>391.0</ele><time>2026-04-04T16:44:30.452Z</time></trkpt><trkpt lat="44.3985802" lon="9.8819209"><ele>391.0</ele><time>2026-04-04T16:44:31.438Z</time></trkpt><trkpt lat="44.3986348" lon="9.8821209"><ele>391.0</ele><time>2026-04-04T16:44:32.445Z</time></trkpt><trkpt lat="44.3987226" lon="9.8822895"><ele>391.0</ele><time>2026-04-04T16:44:33.436Z</time></trkpt><trkpt lat="44.3988481" lon="9.8824137"><ele>391.0</ele><time>2026-04-04T16:44:34.436Z</time></trkpt><trkpt lat="44.3990112" lon="9.8824981"><ele>398.0</ele><time>2026-04-04T16:44:35.426Z</time></trkpt><trkpt lat="44.399172" lon="9.8825708"><ele>405.0</ele><time>2026-04-04T16:44:36.423Z</time></trkpt><trkpt lat="44.3992957" lon="9.8827218"><ele>412.0</ele><time>2026-04-04T16:44:37.437Z</time></trkpt><trkpt lat="44.3993384" lon="9.8829147"><ele>412.0</ele><time>2026-04-04T16:44:38.429Z</time></trkpt><trkpt lat="44.3993578" lon="9.8831473"><ele>412.0</ele><time>2026-04-04T16:44:39.433Z</time></trkpt><trkpt lat="44.3993865" lon="9.8833553"><ele>412.0</ele><time>2026-04-04T16:44:40.426Z</time></trkpt><trkpt lat="44.3994928" lon="9.8835016"><ele>416.0</ele><time>2026-04-04T16:44:41.434Z</time></trkpt><trkpt lat="44.3996413" lon="9.8836457"><ele>420.0</ele><time>2026-04-04T16:44:42.434Z</time></trkpt><trkpt lat="44.3998363" lon="9.8838203"><ele>424.0</ele><time>2026-04-04T16:44:43.431Z</time></trkpt><trkpt lat="44.4000274" lon="9.8840161"><ele>424.0</ele><time>2026-04-04T16:44:44.475Z</time></trkpt><trkpt lat="44.4002269" lon="9.8841846"><ele>424.0</ele><time>2026-04-04T16:44:45.416Z</time></trkpt><trkpt lat="44.4004124" lon="9.8842636"><ele>424.0</ele><time>2026-04-04T16:44:46.413Z</time></trkpt><trkpt lat="44.4006092" lon="9.8843847"><ele>423.6666666666667</ele><time>2026-04-04T16:44:47.428Z</time></trkpt><trkpt lat="44.4007806" lon="9.8845605"><ele>423.33333333333337</ele><time>2026-04-04T16:44:48.427Z</time></trkpt><trkpt lat="44.4009508" lon="9.8847496"><ele>423.0</ele><time>2026-04-04T16:44:49.431Z</time></trkpt><trkpt lat="44.4011441" lon="9.884877"><ele>423.5</ele><time>2026-04-04T16:44:50.416Z</time></trkpt><trkpt lat="44.4013694" lon="9.8850006"><ele>424.0</ele><time>2026-04-04T16:44:51.424Z</time></trkpt><trkpt lat="44.4016291" lon="9.8851176"><ele>424.0</ele><time>2026-04-04T16:44:52.421Z</time></trkpt><trkpt lat="44.4019368" lon="9.8852059"><ele>424.0</ele><time>2026-04-04T16:44:53.414Z</time></trkpt><trkpt lat="44.40224" lon="9.8852644"><ele>434.0</ele><time>2026-04-04T16:44:54.424Z</time></trkpt><trkpt lat="44.4025255" lon="9.8853157"><ele>444.0</ele><time>2026-04-04T16:44:55.414Z</time></trkpt><trkpt lat="44.4027491" lon="9.8853802"><ele>444.0</ele><time>2026-04-04T16:44:56.431Z</time></trkpt><trkpt lat="44.4029237" lon="9.8855078"><ele>444.0</ele><time>2026-04-04T16:44:57.427Z</time></trkpt><trkpt lat="44.4030668" lon="9.8856705"><ele>444.0</ele><time>2026-04-04T16:44:58.433Z</time></trkpt><trkpt lat="44.403207" lon="9.8859369"><ele>444.0</ele><time>2026-04-04T16:44:59.432Z</time></trkpt><trkpt lat="44.4033952" lon="9.8861659"><ele>444.0</ele><time>2026-04-04T16:45:00.431Z</time></trkpt><trkpt lat="44.4036129" lon="9.8863283"><ele>449.0</ele><time>2026-04-04T16:45:01.424Z</time></trkpt><trkpt lat="44.40384" lon="9.886481"><ele>454.0</ele><time>2026-04-04T16:45:02.436Z</time></trkpt><trkpt lat="44.4040152" lon="9.8865769"><ele>459.0</ele><time>2026-04-04T16:45:03.439Z</time></trkpt><trkpt lat="44.4041328" lon="9.8866409"><ele>459.0</ele><time>2026-04-04T16:45:04.412Z</time></trkpt><trkpt lat="44.4042327" lon="9.8867058"><ele>459.0</ele><time>2026-04-04T16:45:05.427Z</time></trkpt><trkpt lat="44.4043274" lon="9.8865497"><ele>459.0</ele><time>2026-04-04T16:45:07.428Z</time></trkpt><trkpt lat="44.4043124" lon="9.8864138"><ele>459.0</ele><time>2026-04-04T16:45:08.423Z</time></trkpt><trkpt lat="44.4042101" lon="9.8863174"><ele>459.0</ele><time>2026-04-04T16:45:09.432Z</time></trkpt><trkpt lat="44.4040413" lon="9.8862424"><ele>459.0</ele><time>2026-04-04T16:45:10.437Z</time></trkpt><trkpt lat="44.4038467" lon="9.8861158"><ele>459.0</ele><time>2026-04-04T16:45:11.427Z</time></trkpt><trkpt lat="44.4036547" lon="9.8859627"><ele>459.66666666666663</ele><time>2026-04-04T16:45:12.43Z</time></trkpt><trkpt lat="44.4035088" lon="9.8857956"><ele>460.3333333333333</ele><time>2026-04-04T16:45:13.432Z</time></trkpt><trkpt lat="44.4034075" lon="9.885588"><ele>461.0</ele><time>2026-04-04T16:45:14.446Z</time></trkpt><trkpt lat="44.4033275" lon="9.8853275"><ele>461.66666666666663</ele><time>2026-04-04T16:45:15.43Z</time></trkpt><trkpt lat="44.4032286" lon="9.8850799"><ele>462.33333333333337</ele><time>2026-04-04T16:45:16.429Z</time></trkpt><trkpt lat="44.4030716" lon="9.8849017"><ele>463.0</ele><time>2026-04-04T16:45:17.44Z</time></trkpt><trkpt lat="44.4028621" lon="9.8847504"><ele>463.0</ele><time>2026-04-04T16:45:18.438Z</time></trkpt><trkpt lat="44.402623" lon="9.8846067"><ele>463.0</ele><time>2026-04-04T16:45:19.436Z</time></trkpt><trkpt lat="44.4023992" lon="9.8844885"><ele>463.0</ele><time>2026-04-04T16:45:20.431Z</time></trkpt><trkpt lat="44.4022075" lon="9.884386"><ele>463.0</ele><time>2026-04-04T16:45:21.437Z</time></trkpt><trkpt lat="44.4020381" lon="9.8842607"><ele>463.0</ele><time>2026-04-04T16:45:22.447Z</time></trkpt><trkpt lat="44.4019043" lon="9.8841301"><ele>464.6666666666667</ele><time>2026-04-04T16:45:23.443Z</time></trkpt><trkpt lat="44.401814" lon="9.8839714"><ele>466.33333333333337</ele><time>2026-04-04T16:45:24.438Z</time></trkpt><trkpt lat="44.401741" lon="9.8837783"><ele>468.0</ele><time>2026-04-04T16:45:25.435Z</time></trkpt><trkpt lat="44.4016868" lon="9.8835715"><ele>471.0</ele><time>2026-04-04T16:45:26.442Z</time></trkpt><trkpt lat="44.4016208" lon="9.8833891"><ele>474.0</ele><time>2026-04-04T16:45:27.451Z</time></trkpt><trkpt lat="44.4015512" lon="9.8832279"><ele>477.0</ele><time>2026-04-04T16:45:28.447Z</time></trkpt><trkpt lat="44.4014889" lon="9.8830934"><ele>480.0</ele><time>2026-04-04T16:45:29.453Z</time></trkpt><trkpt lat="44.4014196" lon="9.8829752"><ele>480.0</ele><time>2026-04-04T16:45:30.47Z</time></trkpt><trkpt lat="44.4013561" lon="9.882906"><ele>480.0</ele><time>2026-04-04T16:45:31.461Z</time></trkpt><trkpt lat="44.401311" lon="9.8828248"><ele>480.0</ele><time>2026-04-04T16:45:32.464Z</time></trkpt><trkpt lat="44.4013032" lon="9.8827257"><ele>480.0</ele><time>2026-04-04T16:45:33.48Z</time></trkpt><trkpt lat="44.4013515" lon="9.8826394"><ele>480.0</ele><time>2026-04-04T16:45:34.477Z</time></trkpt><trkpt lat="44.4014164" lon="9.8825987"><ele>480.0</ele><time>2026-04-04T16:45:35.468Z</time></trkpt><trkpt lat="44.4014864" lon="9.8826242"><ele>480.0</ele><time>2026-04-04T16:45:36.472Z</time></trkpt><trkpt lat="44.401551" lon="9.8827137"><ele>480.0</ele><time>2026-04-04T16:45:37.47Z</time></trkpt><trkpt lat="44.4016051" lon="9.8828765"><ele>480.0</ele><time>2026-04-04T16:45:38.466Z</time></trkpt><trkpt lat="44.4016811" lon="9.8830808"><ele>480.0</ele><time>2026-04-04T16:45:39.465Z</time></trkpt><trkpt lat="44.4017904" lon="9.8833331"><ele>480.66666666666663</ele><time>2026-04-04T16:45:40.451Z</time></trkpt><trkpt lat="44.4019159" lon="9.8835647"><ele>481.3333333333333</ele><time>2026-04-04T16:45:41.442Z</time></trkpt><trkpt lat="44.4020735" lon="9.8837604"><ele>482.0</ele><time>2026-04-04T16:45:42.454Z</time></trkpt><trkpt lat="44.4022482" lon="9.8838813"><ele>482.0</ele><time>2026-04-04T16:45:43.437Z</time></trkpt><trkpt lat="44.4024567" lon="9.8838932"><ele>482.0</ele><time>2026-04-04T16:45:44.452Z</time></trkpt><trkpt lat="44.4026972" lon="9.8838723"><ele>482.0</ele><time>2026-04-04T16:45:45.449Z</time></trkpt><trkpt lat="44.4029364" lon="9.8838807"><ele>482.0</ele><time>2026-04-04T16:45:46.429Z</time></trkpt><trkpt lat="44.4031789" lon="9.8839384"><ele>488.5</ele><time>2026-04-04T16:45:47.448Z</time></trkpt><trkpt lat="44.4034257" lon="9.8840599"><ele>495.0</ele><time>2026-04-04T16:45:48.438Z</time></trkpt><trkpt lat="44.4036622" lon="9.8841432"><ele>495.0</ele><time>2026-04-04T16:45:49.444Z</time></trkpt><trkpt lat="44.4038482" lon="9.8842673"><ele>495.0</ele><time>2026-04-04T16:45:50.449Z</time></trkpt><trkpt lat="44.4040197" lon="9.8844751"><ele>495.0</ele><time>2026-04-04T16:45:51.439Z</time></trkpt><trkpt lat="44.4042013" lon="9.8846988"><ele>495.0</ele><time>2026-04-04T16:45:52.451Z</time></trkpt><trkpt lat="44.4044035" lon="9.8848704"><ele>495.0</ele><time>2026-04-04T16:45:53.438Z</time></trkpt><trkpt lat="44.4045729" lon="9.8850083"><ele>495.0</ele><time>2026-04-04T16:45:54.445Z</time></trkpt><trkpt lat="44.4046769" lon="9.8851231"><ele>495.2</ele><time>2026-04-04T16:45:55.434Z</time></trkpt><trkpt lat="44.404758" lon="9.8852069"><ele>495.4</ele><time>2026-04-04T16:45:56.429Z</time></trkpt><trkpt lat="44.404837" lon="9.8852177"><ele>495.6</ele><time>2026-04-04T16:45:57.437Z</time></trkpt><trkpt lat="44.4049097" lon="9.8851039"><ele>495.8</ele><time>2026-04-04T16:45:58.442Z</time></trkpt><trkpt lat="44.4049531" lon="9.8849542"><ele>496.0</ele><time>2026-04-04T16:45:59.439Z</time></trkpt><trkpt lat="44.4048873" lon="9.8848058"><ele>495.6666666666667</ele><time>2026-04-04T16:46:00.436Z</time></trkpt><trkpt lat="44.4047437" lon="9.8846734"><ele>495.33333333333337</ele><time>2026-04-04T16:46:01.431Z</time></trkpt><trkpt lat="44.4045752" lon="9.8844899"><ele>495.0</ele><time>2026-04-04T16:46:02.434Z</time></trkpt><trkpt lat="44.4043935" lon="9.8842367"><ele>502.0</ele><time>2026-04-04T16:46:03.44Z</time></trkpt><trkpt lat="44.4041827" lon="9.8839615"><ele>509.0</ele><time>2026-04-04T16:46:04.436Z</time></trkpt><trkpt lat="44.4039996" lon="9.8837421"><ele>509.0</ele><time>2026-04-04T16:46:05.448Z</time></trkpt><trkpt lat="44.4038362" lon="9.883602"><ele>509.0</ele><time>2026-04-04T16:46:06.442Z</time></trkpt><trkpt lat="44.4037253" lon="9.8835036"><ele>509.0</ele><time>2026-04-04T16:46:07.448Z</time></trkpt><trkpt lat="44.403657" lon="9.8834499"><ele>509.0</ele><time>2026-04-04T16:46:08.452Z</time></trkpt><trkpt lat="44.4036114" lon="9.8833639"><ele>509.5</ele><time>2026-04-04T16:46:09.476Z</time></trkpt><trkpt lat="44.4036471" lon="9.8832617"><ele>510.0</ele><time>2026-04-04T16:46:10.465Z</time></trkpt><trkpt lat="44.4037528" lon="9.8832416"><ele>510.5</ele><time>2026-04-04T16:46:11.466Z</time></trkpt><trkpt lat="44.4038821" lon="9.8832978"><ele>511.0</ele><time>2026-04-04T16:46:12.465Z</time></trkpt><trkpt lat="44.4040503" lon="9.8833879"><ele>510.0</ele><time>2026-04-04T16:46:13.463Z</time></trkpt><trkpt lat="44.4042718" lon="9.8835128"><ele>509.0</ele><time>2026-04-04T16:46:14.442Z</time></trkpt><trkpt lat="44.4044907" lon="9.8836347"><ele>514.3333333333333</ele><time>2026-04-04T16:46:15.449Z</time></trkpt><trkpt lat="44.4046952" lon="9.883746"><ele>519.6666666666666</ele><time>2026-04-04T16:46:16.456Z</time></trkpt><trkpt lat="44.4048661" lon="9.8838476"><ele>525.0</ele><time>2026-04-04T16:46:17.45Z</time></trkpt><trkpt lat="44.4050263" lon="9.88397"><ele>525.0</ele><time>2026-04-04T16:46:18.448Z</time></trkpt><trkpt lat="44.4051716" lon="9.8840922"><ele>525.0</ele><time>2026-04-04T16:46:19.442Z</time></trkpt><trkpt lat="44.4052991" lon="9.8842279"><ele>525.0</ele><time>2026-04-04T16:46:20.439Z</time></trkpt><trkpt lat="44.4054293" lon="9.8843654"><ele>527.6666666666666</ele><time>2026-04-04T16:46:21.445Z</time></trkpt><trkpt lat="44.4055549" lon="9.8845006"><ele>530.3333333333333</ele><time>2026-04-04T16:46:22.456Z</time></trkpt><trkpt lat="44.4056569" lon="9.8846456"><ele>533.0</ele><time>2026-04-04T16:46:23.441Z</time></trkpt><trkpt lat="44.4057526" lon="9.8848105"><ele>533.0</ele><time>2026-04-04T16:46:24.439Z</time></trkpt><trkpt lat="44.4058401" lon="9.8849808"><ele>533.0</ele><time>2026-04-04T16:46:25.447Z</time></trkpt><trkpt lat="44.4059108" lon="9.8851475"><ele>533.0</ele><time>2026-04-04T16:46:26.442Z</time></trkpt><trkpt lat="44.4059978" lon="9.8853124"><ele>533.0</ele><time>2026-04-04T16:46:27.447Z</time></trkpt><trkpt lat="44.4061159" lon="9.8854615"><ele>535.3333333333333</ele><time>2026-04-04T16:46:28.445Z</time></trkpt><trkpt lat="44.4062623" lon="9.8855888"><ele>537.6666666666666</ele><time>2026-04-04T16:46:29.449Z</time></trkpt><trkpt lat="44.4064044" lon="9.8857017"><ele>540.0</ele><time>2026-04-04T16:46:30.437Z</time></trkpt><trkpt lat="44.4065444" lon="9.8858116"><ele>540.0</ele><time>2026-04-04T16:46:31.436Z</time></trkpt><trkpt lat="44.4067231" lon="9.8859225"><ele>540.0</ele><time>2026-04-04T16:46:32.437Z</time></trkpt><trkpt lat="44.406966" lon="9.8860007"><ele>540.0</ele><time>2026-04-04T16:46:33.426Z</time></trkpt><trkpt lat="44.4071976" lon="9.8860993"><ele>537.6666666666666</ele><time>2026-04-04T16:46:34.427Z</time></trkpt><trkpt lat="44.4074067" lon="9.8862041"><ele>535.3333333333333</ele><time>2026-04-04T16:46:35.433Z</time></trkpt><trkpt lat="44.4076144" lon="9.8862978"><ele>533.0</ele><time>2026-04-04T16:46:36.436Z</time></trkpt><trkpt lat="44.4078424" lon="9.8864481"><ele>536.5</ele><time>2026-04-04T16:46:37.426Z</time></trkpt><trkpt lat="44.4080342" lon="9.8866538"><ele>540.0</ele><time>2026-04-04T16:46:38.431Z</time></trkpt><trkpt lat="44.4082198" lon="9.8868815"><ele>540.0</ele><time>2026-04-04T16:46:39.432Z</time></trkpt><trkpt lat="44.4083943" lon="9.8871192"><ele>540.0</ele><time>2026-04-04T16:46:40.431Z</time></trkpt><trkpt lat="44.4085898" lon="9.8873406"><ele>540.0</ele><time>2026-04-04T16:46:41.428Z</time></trkpt><trkpt lat="44.4087919" lon="9.8875152"><ele>540.0</ele><time>2026-04-04T16:46:42.431Z</time></trkpt><trkpt lat="44.4089676" lon="9.8876653"><ele>540.0</ele><time>2026-04-04T16:46:43.423Z</time></trkpt><trkpt lat="44.4091231" lon="9.8878316"><ele>546.0</ele><time>2026-04-04T16:46:44.428Z</time></trkpt><trkpt lat="44.4092587" lon="9.8880257"><ele>552.0</ele><time>2026-04-04T16:46:45.44Z</time></trkpt><trkpt lat="44.4093832" lon="9.8882088"><ele>558.0</ele><time>2026-04-04T16:46:46.437Z</time></trkpt><trkpt lat="44.40946" lon="9.8883435"><ele>560.0</ele><time>2026-04-04T16:46:47.43Z</time></trkpt><trkpt lat="44.4094941" lon="9.8885068"><ele>562.0</ele><time>2026-04-04T16:46:48.435Z</time></trkpt><trkpt lat="44.4094326" lon="9.8886636"><ele>564.0</ele><time>2026-04-04T16:46:49.435Z</time></trkpt><trkpt lat="44.4093269" lon="9.8888368"><ele>566.0</ele><time>2026-04-04T16:46:50.431Z</time></trkpt><trkpt lat="44.4091987" lon="9.8890576"><ele>568.6666666666666</ele><time>2026-04-04T16:46:51.435Z</time></trkpt><trkpt lat="44.4090586" lon="9.8893142"><ele>571.3333333333334</ele><time>2026-04-04T16:46:52.435Z</time></trkpt><trkpt lat="44.4089341" lon="9.8895052"><ele>574.0</ele><time>2026-04-04T16:46:53.44Z</time></trkpt><trkpt lat="44.4088528" lon="9.8896923"><ele>570.0</ele><time>2026-04-04T16:46:54.443Z</time></trkpt><trkpt lat="44.4088257" lon="9.8899066"><ele>566.0</ele><time>2026-04-04T16:46:55.436Z</time></trkpt><trkpt lat="44.4088635" lon="9.8901509"><ele>562.0</ele><time>2026-04-04T16:46:56.439Z</time></trkpt><trkpt lat="44.4089444" lon="9.8903929"><ele>562.0</ele><time>2026-04-04T16:46:57.431Z</time></trkpt><trkpt lat="44.4090661" lon="9.8906344"><ele>562.0</ele><time>2026-04-04T16:46:58.435Z</time></trkpt><trkpt lat="44.4092058" lon="9.8908666"><ele>562.0</ele><time>2026-04-04T16:46:59.431Z</time></trkpt><trkpt lat="44.4093454" lon="9.8910811"><ele>568.5</ele><time>2026-04-04T16:47:00.434Z</time></trkpt><trkpt lat="44.4095206" lon="9.8912548"><ele>575.0</ele><time>2026-04-04T16:47:01.43Z</time></trkpt><trkpt lat="44.4097922" lon="9.8914044"><ele>575.0</ele><time>2026-04-04T16:47:02.441Z</time></trkpt><trkpt lat="44.4101235" lon="9.8915332"><ele>575.0</ele><time>2026-04-04T16:47:03.446Z</time></trkpt><trkpt lat="44.4104506" lon="9.8916791"><ele>583.0</ele><time>2026-04-04T16:47:04.437Z</time></trkpt><trkpt lat="44.4107291" lon="9.891866"><ele>591.0</ele><time>2026-04-04T16:47:05.441Z</time></trkpt><trkpt lat="44.4109748" lon="9.8920167"><ele>591.0</ele><time>2026-04-04T16:47:06.465Z</time></trkpt><trkpt lat="44.4111953" lon="9.8921146"><ele>591.0</ele><time>2026-04-04T16:47:07.449Z</time></trkpt><trkpt lat="44.4114277" lon="9.8922404"><ele>592.5</ele><time>2026-04-04T16:47:08.451Z</time></trkpt><trkpt lat="44.4116335" lon="9.8923806"><ele>594.0</ele><time>2026-04-04T16:47:09.451Z</time></trkpt><trkpt lat="44.411821" lon="9.8925483"><ele>595.0</ele><time>2026-04-04T16:47:10.437Z</time></trkpt><trkpt lat="44.411965" lon="9.8927548"><ele>596.0</ele><time>2026-04-04T16:47:11.444Z</time></trkpt><trkpt lat="44.4120918" lon="9.8929723"><ele>597.0</ele><time>2026-04-04T16:47:12.425Z</time></trkpt><trkpt lat="44.4121892" lon="9.8932041"><ele>602.3333333333334</ele><time>2026-04-04T16:47:13.428Z</time></trkpt><trkpt lat="44.4122575" lon="9.893435"><ele>607.6666666666667</ele><time>2026-04-04T16:47:14.432Z</time></trkpt><trkpt lat="44.4123353" lon="9.8936536"><ele>613.0</ele><time>2026-04-04T16:47:15.427Z</time></trkpt><trkpt lat="44.4124341" lon="9.8938281"><ele>613.0</ele><time>2026-04-04T16:47:16.425Z</time></trkpt><trkpt lat="44.4125438" lon="9.893978"><ele>613.0</ele><time>2026-04-04T16:47:17.425Z</time></trkpt><trkpt lat="44.4126518" lon="9.8941138"><ele>613.0</ele><time>2026-04-04T16:47:18.432Z</time></trkpt><trkpt lat="44.4127616" lon="9.8942404"><ele>613.0</ele><time>2026-04-04T16:47:19.442Z</time></trkpt><trkpt lat="44.4128768" lon="9.8943599"><ele>611.0</ele><time>2026-04-04T16:47:20.431Z</time></trkpt><trkpt lat="44.4129908" lon="9.8945111"><ele>609.0</ele><time>2026-04-04T16:47:21.434Z</time></trkpt><trkpt lat="44.4130695" lon="9.8946904"><ele>607.0</ele><time>2026-04-04T16:47:22.448Z</time></trkpt><trkpt lat="44.4131054" lon="9.8948865"><ele>610.3333333333334</ele><time>2026-04-04T16:47:23.454Z</time></trkpt><trkpt lat="44.4131303" lon="9.8951154"><ele>613.6666666666666</ele><time>2026-04-04T16:47:24.444Z</time></trkpt><trkpt lat="44.4131511" lon="9.8953348"><ele>617.0</ele><time>2026-04-04T16:47:25.443Z</time></trkpt><trkpt lat="44.4131808" lon="9.8955518"><ele>617.0</ele><time>2026-04-04T16:47:26.435Z</time></trkpt><trkpt lat="44.413194" lon="9.8957693"><ele>617.0</ele><time>2026-04-04T16:47:27.448Z</time></trkpt><trkpt lat="44.4132051" lon="9.8959882"><ele>617.0</ele><time>2026-04-04T16:47:28.449Z</time></trkpt><trkpt lat="44.4132146" lon="9.8962014"><ele>615.3333333333333</ele><time>2026-04-04T16:47:29.449Z</time></trkpt><trkpt lat="44.4132366" lon="9.8964194"><ele>613.6666666666666</ele><time>2026-04-04T16:47:30.45Z</time></trkpt><trkpt lat="44.4132762" lon="9.8966364"><ele>612.0</ele><time>2026-04-04T16:47:31.468Z</time></trkpt><trkpt lat="44.413316" lon="9.8968253"><ele>607.25</ele><time>2026-04-04T16:47:32.457Z</time></trkpt><trkpt lat="44.4133765" lon="9.8969998"><ele>602.5</ele><time>2026-04-04T16:47:33.452Z</time></trkpt><trkpt lat="44.4134571" lon="9.89715"><ele>597.75</ele><time>2026-04-04T16:47:34.461Z</time></trkpt><trkpt lat="44.4135897" lon="9.8972625"><ele>593.0</ele><time>2026-04-04T16:47:35.456Z</time></trkpt><trkpt lat="44.4137432" lon="9.8972966"><ele>604.0</ele><time>2026-04-04T16:47:36.453Z</time></trkpt><trkpt lat="44.4138775" lon="9.897365"><ele>615.0</ele><time>2026-04-04T16:47:37.444Z</time></trkpt><trkpt lat="44.4140201" lon="9.8974489"><ele>626.0</ele><time>2026-04-04T16:47:38.442Z</time></trkpt><trkpt lat="44.4141524" lon="9.8975782"><ele>619.6666666666666</ele><time>2026-04-04T16:47:39.452Z</time></trkpt><trkpt lat="44.4142751" lon="9.8977607"><ele>613.3333333333334</ele><time>2026-04-04T16:47:40.449Z</time></trkpt><trkpt lat="44.4143417" lon="9.8979908"><ele>607.0</ele><time>2026-04-04T16:47:41.434Z</time></trkpt><trkpt lat="44.4143656" lon="9.8982519"><ele>603.3333333333334</ele><time>2026-04-04T16:47:42.439Z</time></trkpt><trkpt lat="44.4143853" lon="9.8985288"><ele>599.6666666666666</ele><time>2026-04-04T16:47:43.438Z</time></trkpt><trkpt lat="44.4144046" lon="9.8987713"><ele>596.0</ele><time>2026-04-04T16:47:44.434Z</time></trkpt><trkpt lat="44.4144277" lon="9.8990052"><ele>596.0</ele><time>2026-04-04T16:47:45.442Z</time></trkpt><trkpt lat="44.4144573" lon="9.8992316"><ele>596.0</ele><time>2026-04-04T16:47:46.437Z</time></trkpt><trkpt lat="44.4144771" lon="9.8994538"><ele>596.0</ele><time>2026-04-04T16:47:47.436Z</time></trkpt><trkpt lat="44.4145144" lon="9.8996582"><ele>593.0</ele><time>2026-04-04T16:47:48.432Z</time></trkpt><trkpt lat="44.4146046" lon="9.8998455"><ele>590.0</ele><time>2026-04-04T16:47:49.442Z</time></trkpt><trkpt lat="44.414734" lon="9.9000257"><ele>587.0</ele><time>2026-04-04T16:47:50.428Z</time></trkpt><trkpt lat="44.4148477" lon="9.9002079"><ele>593.6666666666666</ele><time>2026-04-04T16:47:51.428Z</time></trkpt><trkpt lat="44.4149257" lon="9.9004068"><ele>600.3333333333334</ele><time>2026-04-04T16:47:52.435Z</time></trkpt><trkpt lat="44.4150045" lon="9.9005974"><ele>607.0</ele><time>2026-04-04T16:47:53.441Z</time></trkpt><trkpt lat="44.4151052" lon="9.9007892"><ele>600.0</ele><time>2026-04-04T16:47:54.438Z</time></trkpt><trkpt lat="44.4152153" lon="9.9009442"><ele>593.0</ele><time>2026-04-04T16:47:55.435Z</time></trkpt><trkpt lat="44.4153252" lon="9.9010984"><ele>586.0</ele><time>2026-04-04T16:47:56.441Z</time></trkpt><trkpt lat="44.4154169" lon="9.9012868"><ele>586.0</ele><time>2026-04-04T16:47:57.44Z</time></trkpt><trkpt lat="44.4154801" lon="9.901504"><ele>586.0</ele><time>2026-04-04T16:47:58.437Z</time></trkpt><trkpt lat="44.4155185" lon="9.9016999"><ele>586.0</ele><time>2026-04-04T16:47:59.447Z</time></trkpt><trkpt lat="44.415568" lon="9.9018935"><ele>590.3333333333334</ele><time>2026-04-04T16:48:00.449Z</time></trkpt><trkpt lat="44.4156609" lon="9.9020709"><ele>594.6666666666666</ele><time>2026-04-04T16:48:01.442Z</time></trkpt><trkpt lat="44.4157758" lon="9.9021882"><ele>599.0</ele><time>2026-04-04T16:48:02.446Z</time></trkpt><trkpt lat="44.4159255" lon="9.9022279"><ele>599.0</ele><time>2026-04-04T16:48:03.445Z</time></trkpt><trkpt lat="44.4161364" lon="9.902239"><ele>599.0</ele><time>2026-04-04T16:48:04.429Z</time></trkpt><trkpt lat="44.4163545" lon="9.9022534"><ele>599.0</ele><time>2026-04-04T16:48:05.43Z</time></trkpt><trkpt lat="44.4165763" lon="9.9022663"><ele>600.6666666666666</ele><time>2026-04-04T16:48:06.432Z</time></trkpt><trkpt lat="44.4167823" lon="9.9023233"><ele>602.3333333333334</ele><time>2026-04-04T16:48:07.447Z</time></trkpt><trkpt lat="44.4169748" lon="9.9023761"><ele>604.0</ele><time>2026-04-04T16:48:08.442Z</time></trkpt><trkpt lat="44.4171346" lon="9.9024286"><ele>600.6666666666667</ele><time>2026-04-04T16:48:09.448Z</time></trkpt><trkpt lat="44.4172642" lon="9.9025267"><ele>597.3333333333334</ele><time>2026-04-04T16:48:10.447Z</time></trkpt><trkpt lat="44.4173694" lon="9.9026986"><ele>594.0</ele><time>2026-04-04T16:48:11.443Z</time></trkpt><trkpt lat="44.4174467" lon="9.902892"><ele>594.0</ele><time>2026-04-04T16:48:12.447Z</time></trkpt><trkpt lat="44.4175374" lon="9.9030681"><ele>594.0</ele><time>2026-04-04T16:48:13.447Z</time></trkpt><trkpt lat="44.4176891" lon="9.9031962"><ele>594.0</ele><time>2026-04-04T16:48:14.438Z</time></trkpt><trkpt lat="44.4178874" lon="9.9032518"><ele>595.3333333333334</ele><time>2026-04-04T16:48:15.43Z</time></trkpt><trkpt lat="44.4180975" lon="9.9033212"><ele>596.6666666666667</ele><time>2026-04-04T16:48:16.429Z</time></trkpt><trkpt lat="44.4182683" lon="9.9033821"><ele>598.0</ele><time>2026-04-04T16:48:17.435Z</time></trkpt><trkpt lat="44.418447" lon="9.9033573"><ele>598.0</ele><time>2026-04-04T16:48:18.431Z</time></trkpt><trkpt lat="44.418663" lon="9.9033073"><ele>598.0</ele><time>2026-04-04T16:48:19.455Z</time></trkpt><trkpt lat="44.4188402" lon="9.9032156"><ele>598.0</ele><time>2026-04-04T16:48:20.454Z</time></trkpt><trkpt lat="44.4189871" lon="9.9031715"><ele>599.3333333333334</ele><time>2026-04-04T16:48:21.449Z</time></trkpt><trkpt lat="44.4191213" lon="9.9032133"><ele>600.6666666666666</ele><time>2026-04-04T16:48:22.457Z</time></trkpt><trkpt lat="44.419273" lon="9.9033508"><ele>602.0</ele><time>2026-04-04T16:48:23.458Z</time></trkpt><trkpt lat="44.4194253" lon="9.9035328"><ele>602.0</ele><time>2026-04-04T16:48:24.448Z</time></trkpt><trkpt lat="44.4196065" lon="9.9037265"><ele>602.0</ele><time>2026-04-04T16:48:25.452Z</time></trkpt><trkpt lat="44.4198055" lon="9.9038836"><ele>605.0</ele><time>2026-04-04T16:48:26.448Z</time></trkpt><trkpt lat="44.4199863" lon="9.9040499"><ele>608.0</ele><time>2026-04-04T16:48:27.451Z</time></trkpt><trkpt lat="44.4201262" lon="9.9042268"><ele>611.0</ele><time>2026-04-04T16:48:28.452Z</time></trkpt><trkpt lat="44.4202467" lon="9.9044507"><ele>611.0</ele><time>2026-04-04T16:48:29.455Z</time></trkpt><trkpt lat="44.4203634" lon="9.9046684"><ele>611.0</ele><time>2026-04-04T16:48:30.446Z</time></trkpt><trkpt lat="44.4205212" lon="9.9048449"><ele>611.0</ele><time>2026-04-04T16:48:31.46Z</time></trkpt><trkpt lat="44.4207052" lon="9.9049522"><ele>612.3333333333333</ele><time>2026-04-04T16:48:32.454Z</time></trkpt><trkpt lat="44.4209011" lon="9.9049759"><ele>613.6666666666666</ele><time>2026-04-04T16:48:33.448Z</time></trkpt><trkpt lat="44.4211385" lon="9.9049266"><ele>615.0</ele><time>2026-04-04T16:48:34.46Z</time></trkpt><trkpt lat="44.4214057" lon="9.9048202"><ele>620.5</ele><time>2026-04-04T16:48:35.455Z</time></trkpt><trkpt lat="44.4216693" lon="9.9047285"><ele>626.0</ele><time>2026-04-04T16:48:36.452Z</time></trkpt><trkpt lat="44.4219265" lon="9.9047082"><ele>627.6666666666666</ele><time>2026-04-04T16:48:37.447Z</time></trkpt><trkpt lat="44.422153" lon="9.9047037"><ele>629.3333333333334</ele><time>2026-04-04T16:48:38.446Z</time></trkpt><trkpt lat="44.4223592" lon="9.9046319"><ele>631.0</ele><time>2026-04-04T16:48:39.436Z</time></trkpt><trkpt lat="44.4225527" lon="9.9044731"><ele>631.0</ele><time>2026-04-04T16:48:40.442Z</time></trkpt><trkpt lat="44.422691" lon="9.9042634"><ele>631.0</ele><time>2026-04-04T16:48:41.439Z</time></trkpt><trkpt lat="44.4228391" lon="9.9041094"><ele>631.0</ele><time>2026-04-04T16:48:42.439Z</time></trkpt><trkpt lat="44.42299" lon="9.9039991"><ele>632.3333333333334</ele><time>2026-04-04T16:48:43.451Z</time></trkpt><trkpt lat="44.4231812" lon="9.9039698"><ele>633.6666666666666</ele><time>2026-04-04T16:48:44.457Z</time></trkpt><trkpt lat="44.423383" lon="9.9039983"><ele>635.0</ele><time>2026-04-04T16:48:45.453Z</time></trkpt><trkpt lat="44.4236019" lon="9.9040846"><ele>636.6666666666666</ele><time>2026-04-04T16:48:46.45Z</time></trkpt><trkpt lat="44.4238244" lon="9.9041987"><ele>638.3333333333334</ele><time>2026-04-04T16:48:47.457Z</time></trkpt><trkpt lat="44.423995" lon="9.9043269"><ele>640.0</ele><time>2026-04-04T16:48:48.463Z</time></trkpt><trkpt lat="44.4241295" lon="9.9044879"><ele>640.0</ele><time>2026-04-04T16:48:49.46Z</time></trkpt><trkpt lat="44.4242206" lon="9.9046578"><ele>640.0</ele><time>2026-04-04T16:48:50.45Z</time></trkpt><trkpt lat="44.4242608" lon="9.9048635"><ele>640.0</ele><time>2026-04-04T16:48:51.461Z</time></trkpt><trkpt lat="44.4242945" lon="9.9051037"><ele>635.6666666666667</ele><time>2026-04-04T16:48:52.449Z</time></trkpt><trkpt lat="44.4243768" lon="9.9053518"><ele>631.3333333333334</ele><time>2026-04-04T16:48:53.446Z</time></trkpt><trkpt lat="44.4244991" lon="9.9055846"><ele>627.0</ele><time>2026-04-04T16:48:54.443Z</time></trkpt><trkpt lat="44.4246259" lon="9.9057853"><ele>629.3333333333334</ele><time>2026-04-04T16:48:55.432Z</time></trkpt><trkpt lat="44.4247776" lon="9.9059552"><ele>631.6666666666667</ele><time>2026-04-04T16:48:56.432Z</time></trkpt><trkpt lat="44.4249503" lon="9.9060753"><ele>634.0</ele><time>2026-04-04T16:48:57.433Z</time></trkpt><trkpt lat="44.4251141" lon="9.9061727"><ele>634.0</ele><time>2026-04-04T16:48:58.435Z</time></trkpt><trkpt lat="44.425239" lon="9.9062606"><ele>634.0</ele><time>2026-04-04T16:48:59.44Z</time></trkpt><trkpt lat="44.4253612" lon="9.906379"><ele>634.0</ele><time>2026-04-04T16:49:00.438Z</time></trkpt><trkpt lat="44.4254656" lon="9.9065097"><ele>634.0</ele><time>2026-04-04T16:49:01.433Z</time></trkpt><trkpt lat="44.4255442" lon="9.9066477"><ele>636.8</ele><time>2026-04-04T16:49:02.427Z</time></trkpt><trkpt lat="44.4256126" lon="9.9067768"><ele>639.5999999999999</ele><time>2026-04-04T16:49:03.435Z</time></trkpt><trkpt lat="44.4256726" lon="9.9069006"><ele>642.4</ele><time>2026-04-04T16:49:04.431Z</time></trkpt><trkpt lat="44.4257324" lon="9.9070188"><ele>645.1999999999999</ele><time>2026-04-04T16:49:05.437Z</time></trkpt><trkpt lat="44.4258017" lon="9.9071351"><ele>648.0</ele><time>2026-04-04T16:49:06.43Z</time></trkpt><trkpt lat="44.4258464" lon="9.9072691"><ele>648.0</ele><time>2026-04-04T16:49:07.435Z</time></trkpt><trkpt lat="44.4258838" lon="9.9074032"><ele>648.0</ele><time>2026-04-04T16:49:08.441Z</time></trkpt><trkpt lat="44.4259209" lon="9.9075275"><ele>648.0</ele><time>2026-04-04T16:49:09.456Z</time></trkpt><trkpt lat="44.4259643" lon="9.9076386"><ele>648.0</ele><time>2026-04-04T16:49:10.444Z</time></trkpt><trkpt lat="44.4260108" lon="9.9077295"><ele>648.0</ele><time>2026-04-04T16:49:11.447Z</time></trkpt><trkpt lat="44.4260591" lon="9.9078113"><ele>648.0</ele><time>2026-04-04T16:49:12.445Z</time></trkpt><trkpt lat="44.4261134" lon="9.9078641"><ele>647.5999999999999</ele><time>2026-04-04T16:49:13.453Z</time></trkpt><trkpt lat="44.4261809" lon="9.9078824"><ele>647.1999999999999</ele><time>2026-04-04T16:49:14.448Z</time></trkpt><trkpt lat="44.4262638" lon="9.9078615"><ele>646.8</ele><time>2026-04-04T16:49:15.45Z</time></trkpt><trkpt lat="44.4263581" lon="9.90783"><ele>646.4</ele><time>2026-04-04T16:49:16.45Z</time></trkpt><trkpt lat="44.4264611" lon="9.9077777"><ele>646.0</ele><time>2026-04-04T16:49:17.449Z</time></trkpt><trkpt lat="44.4265677" lon="9.9077155"><ele>646.0</ele><time>2026-04-04T16:49:18.451Z</time></trkpt><trkpt lat="44.4266716" lon="9.9076711"><ele>646.0</ele><time>2026-04-04T16:49:19.446Z</time></trkpt><trkpt lat="44.4267772" lon="9.9076531"><ele>646.0</ele><time>2026-04-04T16:49:20.46Z</time></trkpt><trkpt lat="44.4268862" lon="9.90767"><ele>646.0</ele><time>2026-04-04T16:49:21.46Z</time></trkpt><trkpt lat="44.4269947" lon="9.9077267"><ele>646.0</ele><time>2026-04-04T16:49:22.454Z</time></trkpt><trkpt lat="44.4271101" lon="9.9077865"><ele>649.3333333333334</ele><time>2026-04-04T16:49:23.458Z</time></trkpt><trkpt lat="44.4272385" lon="9.9078462"><ele>652.6666666666666</ele><time>2026-04-04T16:49:24.452Z</time></trkpt><trkpt lat="44.4273763" lon="9.9079073"><ele>656.0</ele><time>2026-04-04T16:49:25.459Z</time></trkpt><trkpt lat="44.4275497" lon="9.9079748"><ele>656.0</ele><time>2026-04-04T16:49:26.459Z</time></trkpt><trkpt lat="44.4277844" lon="9.9080909"><ele>656.0</ele><time>2026-04-04T16:49:27.451Z</time></trkpt><trkpt lat="44.4280116" lon="9.9081913"><ele>656.3333333333333</ele><time>2026-04-04T16:49:28.454Z</time></trkpt><trkpt lat="44.4282209" lon="9.9082994"><ele>656.6666666666666</ele><time>2026-04-04T16:49:29.453Z</time></trkpt><trkpt lat="44.4284008" lon="9.9084322"><ele>657.0</ele><time>2026-04-04T16:49:30.449Z</time></trkpt><trkpt lat="44.4285654" lon="9.9085168"><ele>657.0</ele><time>2026-04-04T16:49:31.439Z</time></trkpt><trkpt lat="44.4287426" lon="9.9085745"><ele>657.0</ele><time>2026-04-04T16:49:32.434Z</time></trkpt><trkpt lat="44.4289398" lon="9.9085706"><ele>657.0</ele><time>2026-04-04T16:49:33.44Z</time></trkpt><trkpt lat="44.4291603" lon="9.9085111"><ele>657.3333333333334</ele><time>2026-04-04T16:49:34.437Z</time></trkpt><trkpt lat="44.4293559" lon="9.9084395"><ele>657.6666666666667</ele><time>2026-04-04T16:49:35.436Z</time></trkpt><trkpt lat="44.4295161" lon="9.9084183"><ele>658.0</ele><time>2026-04-04T16:49:36.446Z</time></trkpt><trkpt lat="44.429654" lon="9.9084859"><ele>659.0</ele><time>2026-04-04T16:49:37.445Z</time></trkpt><trkpt lat="44.4297574" lon="9.9086111"><ele>660.0</ele><time>2026-04-04T16:49:38.44Z</time></trkpt><trkpt lat="44.4298595" lon="9.9087473"><ele>661.0</ele><time>2026-04-04T16:49:39.441Z</time></trkpt><trkpt lat="44.4300021" lon="9.9087693"><ele>662.0</ele><time>2026-04-04T16:49:40.452Z</time></trkpt><trkpt lat="44.4301597" lon="9.9087443"><ele>662.0</ele><time>2026-04-04T16:49:41.445Z</time></trkpt><trkpt lat="44.4303128" lon="9.9086528"><ele>662.0</ele><time>2026-04-04T16:49:42.448Z</time></trkpt><trkpt lat="44.4304786" lon="9.9084879"><ele>662.0</ele><time>2026-04-04T16:49:43.438Z</time></trkpt><trkpt lat="44.4306675" lon="9.9083053"><ele>666.3333333333333</ele><time>2026-04-04T16:49:44.425Z</time></trkpt><trkpt lat="44.4308618" lon="9.9081636"><ele>670.6666666666666</ele><time>2026-04-04T16:49:45.442Z</time></trkpt><trkpt lat="44.4310248" lon="9.9080645"><ele>675.0</ele><time>2026-04-04T16:49:46.44Z</time></trkpt><trkpt lat="44.4312074" lon="9.9080171"><ele>673.0</ele><time>2026-04-04T16:49:47.436Z</time></trkpt><trkpt lat="44.4314259" lon="9.907996"><ele>671.0</ele><time>2026-04-04T16:49:48.453Z</time></trkpt><trkpt lat="44.4316749" lon="9.9080013"><ele>671.0</ele><time>2026-04-04T16:49:49.448Z</time></trkpt><trkpt lat="44.4319088" lon="9.9080113"><ele>671.0</ele><time>2026-04-04T16:49:50.453Z</time></trkpt><trkpt lat="44.43212" lon="9.9080359"><ele>671.0</ele><time>2026-04-04T16:49:51.446Z</time></trkpt><trkpt lat="44.4323053" lon="9.9080596"><ele>674.3333333333333</ele><time>2026-04-04T16:49:52.449Z</time></trkpt><trkpt lat="44.4325034" lon="9.9081486"><ele>677.6666666666666</ele><time>2026-04-04T16:49:53.467Z</time></trkpt><trkpt lat="44.4327012" lon="9.9082877"><ele>681.0</ele><time>2026-04-04T16:49:54.453Z</time></trkpt><trkpt lat="44.4328833" lon="9.9083989"><ele>682.0</ele><time>2026-04-04T16:49:55.456Z</time></trkpt><trkpt lat="44.4330424" lon="9.9084221"><ele>683.0</ele><time>2026-04-04T16:49:56.456Z</time></trkpt><trkpt lat="44.4331791" lon="9.9083562"><ele>684.0</ele><time>2026-04-04T16:49:57.444Z</time></trkpt><trkpt lat="44.433279" lon="9.9081856"><ele>684.0</ele><time>2026-04-04T16:49:58.454Z</time></trkpt><trkpt lat="44.4333756" lon="9.9079679"><ele>684.0</ele><time>2026-04-04T16:49:59.453Z</time></trkpt><trkpt lat="44.4334514" lon="9.9078448"><ele>684.0</ele><time>2026-04-04T16:50:00.448Z</time></trkpt><trkpt lat="44.43352" lon="9.9078038"><ele>684.0</ele><time>2026-04-04T16:50:01.448Z</time></trkpt><trkpt lat="44.433624" lon="9.9078603"><ele>684.0</ele><time>2026-04-04T16:50:02.459Z</time></trkpt><trkpt lat="44.433737" lon="9.9080206"><ele>684.0</ele><time>2026-04-04T16:50:03.461Z</time></trkpt><trkpt lat="44.4338459" lon="9.908263"><ele>684.0</ele><time>2026-04-04T16:50:04.457Z</time></trkpt><trkpt lat="44.4339657" lon="9.9085434"><ele>686.3333333333334</ele><time>2026-04-04T16:50:05.452Z</time></trkpt><trkpt lat="44.4340858" lon="9.9087633"><ele>688.6666666666667</ele><time>2026-04-04T16:50:06.458Z</time></trkpt><trkpt lat="44.4342221" lon="9.9089371"><ele>691.0</ele><time>2026-04-04T16:50:07.447Z</time></trkpt><trkpt lat="44.434373" lon="9.9090539"><ele>691.0</ele><time>2026-04-04T16:50:08.453Z</time></trkpt><trkpt lat="44.4345545" lon="9.9090845"><ele>691.0</ele><time>2026-04-04T16:50:09.454Z</time></trkpt><trkpt lat="44.4347388" lon="9.9090504"><ele>691.0</ele><time>2026-04-04T16:50:10.443Z</time></trkpt><trkpt lat="44.4348935" lon="9.9090717"><ele>690.6666666666667</ele><time>2026-04-04T16:50:11.456Z</time></trkpt><trkpt lat="44.4350367" lon="9.909164"><ele>690.3333333333334</ele><time>2026-04-04T16:50:12.461Z</time></trkpt><trkpt lat="44.4351343" lon="9.9093784"><ele>690.0</ele><time>2026-04-04T16:50:13.461Z</time></trkpt><trkpt lat="44.4352354" lon="9.9096076"><ele>693.0</ele><time>2026-04-04T16:50:14.451Z</time></trkpt><trkpt lat="44.4353749" lon="9.9097842"><ele>696.0</ele><time>2026-04-04T16:50:15.455Z</time></trkpt><trkpt lat="44.4355873" lon="9.9099179"><ele>699.0</ele><time>2026-04-04T16:50:16.454Z</time></trkpt><trkpt lat="44.4358446" lon="9.9100659"><ele>705.0</ele><time>2026-04-04T16:50:17.443Z</time></trkpt><trkpt lat="44.4360928" lon="9.910217"><ele>711.0</ele><time>2026-04-04T16:50:18.447Z</time></trkpt><trkpt lat="44.4362998" lon="9.9103298"><ele>711.0</ele><time>2026-04-04T16:50:19.436Z</time></trkpt><trkpt lat="44.4364932" lon="9.9104409"><ele>711.0</ele><time>2026-04-04T16:50:20.437Z</time></trkpt><trkpt lat="44.4366705" lon="9.9104933"><ele>711.0</ele><time>2026-04-04T16:50:21.427Z</time></trkpt><trkpt lat="44.4368567" lon="9.9104607"><ele>711.0</ele><time>2026-04-04T16:50:22.439Z</time></trkpt><trkpt lat="44.4370417" lon="9.9103551"><ele>711.0</ele><time>2026-04-04T16:50:23.449Z</time></trkpt><trkpt lat="44.437182" lon="9.9101828"><ele>711.0</ele><time>2026-04-04T16:50:24.446Z</time></trkpt><trkpt lat="44.437322" lon="9.9099625"><ele>710.0</ele><time>2026-04-04T16:50:25.443Z</time></trkpt><trkpt lat="44.4374719" lon="9.9097637"><ele>709.0</ele><time>2026-04-04T16:50:26.445Z</time></trkpt><trkpt lat="44.4376303" lon="9.9096559"><ele>708.0</ele><time>2026-04-04T16:50:27.451Z</time></trkpt><trkpt lat="44.4378005" lon="9.9096542"><ele>709.3333333333334</ele><time>2026-04-04T16:50:28.461Z</time></trkpt><trkpt lat="44.4379833" lon="9.9097053"><ele>710.6666666666667</ele><time>2026-04-04T16:50:29.46Z</time></trkpt><trkpt lat="44.4382333" lon="9.9097868"><ele>712.0</ele><time>2026-04-04T16:50:30.442Z</time></trkpt><trkpt lat="44.438497" lon="9.9098365"><ele>712.0</ele><time>2026-04-04T16:50:31.438Z</time></trkpt><trkpt lat="44.4387399" lon="9.9098577"><ele>712.0</ele><time>2026-04-04T16:50:32.445Z</time></trkpt><trkpt lat="44.4389345" lon="9.9098409"><ele>712.0</ele><time>2026-04-04T16:50:33.448Z</time></trkpt><trkpt lat="44.4390997" lon="9.9098642"><ele>711.75</ele><time>2026-04-04T16:50:34.452Z</time></trkpt><trkpt lat="44.4392323" lon="9.9099376"><ele>711.5</ele><time>2026-04-04T16:50:35.446Z</time></trkpt><trkpt lat="44.4393373" lon="9.9100702"><ele>711.25</ele><time>2026-04-04T16:50:36.458Z</time></trkpt><trkpt lat="44.4393989" lon="9.9102636"><ele>711.0</ele><time>2026-04-04T16:50:37.455Z</time></trkpt><trkpt lat="44.4394758" lon="9.910441"><ele>712.3333333333334</ele><time>2026-04-04T16:50:38.456Z</time></trkpt><trkpt lat="44.4395883" lon="9.9105062"><ele>713.6666666666667</ele><time>2026-04-04T16:50:39.457Z</time></trkpt><trkpt lat="44.4397459" lon="9.9105224"><ele>715.0</ele><time>2026-04-04T16:50:40.459Z</time></trkpt><trkpt lat="44.4399782" lon="9.9104811"><ele>715.5</ele><time>2026-04-04T16:50:41.459Z</time></trkpt><trkpt lat="44.440254" lon="9.910436"><ele>716.0</ele><time>2026-04-04T16:50:42.461Z</time></trkpt><trkpt lat="44.4405321" lon="9.9103871"><ele>722.5</ele><time>2026-04-04T16:50:43.454Z</time></trkpt><trkpt lat="44.4407864" lon="9.9103133"><ele>729.0</ele><time>2026-04-04T16:50:44.458Z</time></trkpt><trkpt lat="44.4410005" lon="9.9102331"><ele>729.0</ele><time>2026-04-04T16:50:45.447Z</time></trkpt><trkpt lat="44.4411782" lon="9.9100992"><ele>729.0</ele><time>2026-04-04T16:50:46.442Z</time></trkpt><trkpt lat="44.4413619" lon="9.9099139"><ele>729.0</ele><time>2026-04-04T16:50:47.443Z</time></trkpt><trkpt lat="44.4415305" lon="9.9097129"><ele>730.6666666666666</ele><time>2026-04-04T16:50:48.444Z</time></trkpt><trkpt lat="44.4416875" lon="9.9095184"><ele>732.3333333333333</ele><time>2026-04-04T16:50:49.453Z</time></trkpt><trkpt lat="44.4418056" lon="9.9093744"><ele>734.0</ele><time>2026-04-04T16:50:50.462Z</time></trkpt><trkpt lat="44.4419053" lon="9.9092938"><ele>734.0</ele><time>2026-04-04T16:50:51.457Z</time></trkpt><trkpt lat="44.4419938" lon="9.9093219"><ele>734.0</ele><time>2026-04-04T16:50:52.461Z</time></trkpt><trkpt lat="44.4420814" lon="9.9094197"><ele>734.0</ele><time>2026-04-04T16:50:53.47Z</time></trkpt><trkpt lat="44.4421711" lon="9.909599"><ele>734.0</ele><time>2026-04-04T16:50:54.452Z</time></trkpt><trkpt lat="44.4422983" lon="9.9098018"><ele>735.6666666666666</ele><time>2026-04-04T16:50:55.467Z</time></trkpt><trkpt lat="44.4424567" lon="9.9099284"><ele>737.3333333333334</ele><time>2026-04-04T16:50:56.461Z</time></trkpt><trkpt lat="44.4426487" lon="9.9099849"><ele>739.0</ele><time>2026-04-04T16:50:57.453Z</time></trkpt><trkpt lat="44.4428517" lon="9.9099507"><ele>743.3333333333334</ele><time>2026-04-04T16:50:58.447Z</time></trkpt><trkpt lat="44.4430824" lon="9.9098603"><ele>747.6666666666666</ele><time>2026-04-04T16:50:59.449Z</time></trkpt><trkpt lat="44.4432723" lon="9.9097711"><ele>752.0</ele><time>2026-04-04T16:51:00.446Z</time></trkpt><trkpt lat="44.4434382" lon="9.909694"><ele>752.0</ele><time>2026-04-04T16:51:01.437Z</time></trkpt><trkpt lat="44.4435694" lon="9.9095706"><ele>752.0</ele><time>2026-04-04T16:51:02.457Z</time></trkpt><trkpt lat="44.4436685" lon="9.9093403"><ele>752.0</ele><time>2026-04-04T16:51:03.458Z</time></trkpt><trkpt lat="44.4437742" lon="9.9091353"><ele>755.3333333333333</ele><time>2026-04-04T16:51:04.449Z</time></trkpt><trkpt lat="44.4438685" lon="9.9089076"><ele>758.6666666666666</ele><time>2026-04-04T16:51:05.447Z</time></trkpt><trkpt lat="44.4439309" lon="9.9086409"><ele>762.0</ele><time>2026-04-04T16:51:06.446Z</time></trkpt><trkpt lat="44.4439663" lon="9.908366"><ele>763.0</ele><time>2026-04-04T16:51:07.451Z</time></trkpt><trkpt lat="44.4440078" lon="9.9081383"><ele>764.0</ele><time>2026-04-04T16:51:08.442Z</time></trkpt><trkpt lat="44.4440702" lon="9.9079163"><ele>765.0</ele><time>2026-04-04T16:51:09.453Z</time></trkpt><trkpt lat="44.444189" lon="9.907716"><ele>762.0</ele><time>2026-04-04T16:51:10.453Z</time></trkpt><trkpt lat="44.4443275" lon="9.907531"><ele>759.0</ele><time>2026-04-04T16:51:11.444Z</time></trkpt><trkpt lat="44.4444413" lon="9.9073379"><ele>756.0</ele><time>2026-04-04T16:51:12.431Z</time></trkpt><trkpt lat="44.4445384" lon="9.9071506"><ele>756.0</ele><time>2026-04-04T16:51:13.452Z</time></trkpt><trkpt lat="44.4445649" lon="9.9069436"><ele>756.0</ele><time>2026-04-04T16:51:14.439Z</time></trkpt><trkpt lat="44.444518" lon="9.9067113"><ele>756.0</ele><time>2026-04-04T16:51:15.438Z</time></trkpt><trkpt lat="44.4444333" lon="9.9064929"><ele>755.6666666666666</ele><time>2026-04-04T16:51:16.442Z</time></trkpt><trkpt lat="44.4443891" lon="9.9062905"><ele>755.3333333333333</ele><time>2026-04-04T16:51:17.453Z</time></trkpt><trkpt lat="44.4443791" lon="9.906096"><ele>755.0</ele><time>2026-04-04T16:51:18.463Z</time></trkpt><trkpt lat="44.4444408" lon="9.9058547"><ele>755.0</ele><time>2026-04-04T16:51:19.446Z</time></trkpt><trkpt lat="44.4445235" lon="9.9057001"><ele>755.0</ele><time>2026-04-04T16:51:20.452Z</time></trkpt><trkpt lat="44.4446363" lon="9.90556"><ele>755.0</ele><time>2026-04-04T16:51:21.443Z</time></trkpt><trkpt lat="44.4447457" lon="9.905498"><ele>755.0</ele><time>2026-04-04T16:51:22.441Z</time></trkpt><trkpt lat="44.4448646" lon="9.9055579"><ele>761.3333333333333</ele><time>2026-04-04T16:51:23.451Z</time></trkpt><trkpt lat="44.4449746" lon="9.9056379"><ele>767.6666666666666</ele><time>2026-04-04T16:51:24.431Z</time></trkpt><trkpt lat="44.4451326" lon="9.9058205"><ele>774.0</ele><time>2026-04-04T16:51:25.426Z</time></trkpt><trkpt lat="44.4453435" lon="9.9059407"><ele>785.0</ele><time>2026-04-04T16:51:26.424Z</time></trkpt><trkpt lat="44.4456017" lon="9.9060501"><ele>796.0</ele><time>2026-04-04T16:51:27.429Z</time></trkpt><trkpt lat="44.4458801" lon="9.9061479"><ele>796.0</ele><time>2026-04-04T16:51:28.439Z</time></trkpt><trkpt lat="44.4461372" lon="9.9062414"><ele>796.0</ele><time>2026-04-04T16:51:29.447Z</time></trkpt><trkpt lat="44.4463456" lon="9.9063121"><ele>796.1999999999999</ele><time>2026-04-04T16:51:30.442Z</time></trkpt><trkpt lat="44.4465327" lon="9.9063683"><ele>796.4</ele><time>2026-04-04T16:51:31.446Z</time></trkpt><trkpt lat="44.4466421" lon="9.9063968"><ele>796.6</ele><time>2026-04-04T16:51:32.448Z</time></trkpt><trkpt lat="44.4466887" lon="9.9064638"><ele>796.8</ele><time>2026-04-04T16:51:33.448Z</time></trkpt><trkpt lat="44.4467192" lon="9.9065545"><ele>797.0</ele><time>2026-04-04T16:51:34.443Z</time></trkpt><trkpt lat="44.4466883" lon="9.9066801"><ele>796.75</ele><time>2026-04-04T16:51:35.442Z</time></trkpt><trkpt lat="44.4466029" lon="9.9067604"><ele>796.5</ele><time>2026-04-04T16:51:36.436Z</time></trkpt><trkpt lat="44.4464624" lon="9.9067828"><ele>796.25</ele><time>2026-04-04T16:51:37.443Z</time></trkpt><trkpt lat="44.4462908" lon="9.9067745"><ele>796.0</ele><time>2026-04-04T16:51:38.457Z</time></trkpt><trkpt lat="44.4460422" lon="9.9067382"><ele>796.0</ele><time>2026-04-04T16:51:39.453Z</time></trkpt><trkpt lat="44.4458027" lon="9.9066895"><ele>796.0</ele><time>2026-04-04T16:51:40.465Z</time></trkpt><trkpt lat="44.4456381" lon="9.9067007"><ele>796.0</ele><time>2026-04-04T16:51:41.459Z</time></trkpt><trkpt lat="44.4455113" lon="9.9067498"><ele>793.75</ele><time>2026-04-04T16:51:42.463Z</time></trkpt><trkpt lat="44.445438" lon="9.906842"><ele>791.5</ele><time>2026-04-04T16:51:43.456Z</time></trkpt><trkpt lat="44.445396" lon="9.9069754"><ele>789.25</ele><time>2026-04-04T16:51:44.478Z</time></trkpt><trkpt lat="44.4454001" lon="9.9071872"><ele>787.0</ele><time>2026-04-04T16:51:45.471Z</time></trkpt><trkpt lat="44.4454082" lon="9.9074768"><ele>789.0</ele><time>2026-04-04T16:51:46.459Z</time></trkpt><trkpt lat="44.4454103" lon="9.9077453"><ele>791.0</ele><time>2026-04-04T16:51:47.456Z</time></trkpt><trkpt lat="44.4454102" lon="9.9079899"><ele>793.0</ele><time>2026-04-04T16:51:48.456Z</time></trkpt><trkpt lat="44.4454102" lon="9.9082069"><ele>793.0</ele><time>2026-04-04T16:51:49.455Z</time></trkpt><trkpt lat="44.4454036" lon="9.9083875"><ele>793.0</ele><time>2026-04-04T16:51:50.456Z</time></trkpt><trkpt lat="44.445406" lon="9.9085553"><ele>793.0</ele><time>2026-04-04T16:51:51.472Z</time></trkpt><trkpt lat="44.4454191" lon="9.9087034"><ele>793.0</ele><time>2026-04-04T16:51:52.454Z</time></trkpt><trkpt lat="44.4454606" lon="9.9088308"><ele>796.0</ele><time>2026-04-04T16:51:53.471Z</time></trkpt><trkpt lat="44.4455554" lon="9.9088915"><ele>799.0</ele><time>2026-04-04T16:51:54.456Z</time></trkpt><trkpt lat="44.445701" lon="9.9088863"><ele>802.0</ele><time>2026-04-04T16:51:55.454Z</time></trkpt><trkpt lat="44.4458717" lon="9.90886"><ele>805.0</ele><time>2026-04-04T16:51:56.443Z</time></trkpt><trkpt lat="44.4460398" lon="9.9088481"><ele>805.0</ele><time>2026-04-04T16:51:57.445Z</time></trkpt><trkpt lat="44.4462024" lon="9.9087956"><ele>805.0</ele><time>2026-04-04T16:51:58.449Z</time></trkpt><trkpt lat="44.4463487" lon="9.9086776"><ele>805.0</ele><time>2026-04-04T16:51:59.437Z</time></trkpt><trkpt lat="44.4464872" lon="9.9086057"><ele>807.0</ele><time>2026-04-04T16:52:00.441Z</time></trkpt><trkpt lat="44.4466359" lon="9.9086107"><ele>809.0</ele><time>2026-04-04T16:52:01.444Z</time></trkpt><trkpt lat="44.4467763" lon="9.9086914"><ele>811.0</ele><time>2026-04-04T16:52:02.436Z</time></trkpt><trkpt lat="44.4469108" lon="9.9087718"><ele>813.0</ele><time>2026-04-04T16:52:03.438Z</time></trkpt><trkpt lat="44.4470541" lon="9.9088218"><ele>815.6666666666667</ele><time>2026-04-04T16:52:04.433Z</time></trkpt><trkpt lat="44.4471979" lon="9.9087831"><ele>818.3333333333334</ele><time>2026-04-04T16:52:05.427Z</time></trkpt><trkpt lat="44.4473368" lon="9.9087183"><ele>821.0</ele><time>2026-04-04T16:52:06.433Z</time></trkpt><trkpt lat="44.4474719" lon="9.9085783"><ele>821.0</ele><time>2026-04-04T16:52:07.437Z</time></trkpt><trkpt lat="44.4476125" lon="9.9084348"><ele>821.0</ele><time>2026-04-04T16:52:08.442Z</time></trkpt><trkpt lat="44.4477521" lon="9.9082794"><ele>821.0</ele><time>2026-04-04T16:52:09.47Z</time></trkpt><trkpt lat="44.4478919" lon="9.9081356"><ele>827.3333333333334</ele><time>2026-04-04T16:52:10.446Z</time></trkpt><trkpt lat="44.4480097" lon="9.9080021"><ele>833.6666666666667</ele><time>2026-04-04T16:52:11.437Z</time></trkpt><trkpt lat="44.4481164" lon="9.9078595"><ele>840.0</ele><time>2026-04-04T16:52:12.434Z</time></trkpt><trkpt lat="44.448189" lon="9.907671"><ele>840.0</ele><time>2026-04-04T16:52:13.443Z</time></trkpt><trkpt lat="44.4482476" lon="9.9074655"><ele>840.0</ele><time>2026-04-04T16:52:14.45Z</time></trkpt><trkpt lat="44.4483089" lon="9.9072645"><ele>840.0</ele><time>2026-04-04T16:52:15.442Z</time></trkpt><trkpt lat="44.4483999" lon="9.9070678"><ele>840.0</ele><time>2026-04-04T16:52:16.44Z</time></trkpt><trkpt lat="44.4485093" lon="9.9069006"><ele>840.0</ele><time>2026-04-04T16:52:17.444Z</time></trkpt><trkpt lat="44.4486327" lon="9.906749"><ele>840.0</ele><time>2026-04-04T16:52:18.443Z</time></trkpt><trkpt lat="44.4487766" lon="9.9066188"><ele>842.3333333333333</ele><time>2026-04-04T16:52:19.437Z</time></trkpt><trkpt lat="44.4489341" lon="9.9064917"><ele>844.6666666666666</ele><time>2026-04-04T16:52:20.434Z</time></trkpt><trkpt lat="44.4491146" lon="9.9063994"><ele>847.0</ele><time>2026-04-04T16:52:21.441Z</time></trkpt><trkpt lat="44.449285" lon="9.9063149"><ele>847.0</ele><time>2026-04-04T16:52:22.437Z</time></trkpt><trkpt lat="44.4494272" lon="9.9062485"><ele>847.0</ele><time>2026-04-04T16:52:23.456Z</time></trkpt><trkpt lat="44.4495247" lon="9.9062217"><ele>847.0</ele><time>2026-04-04T16:52:24.449Z</time></trkpt><trkpt lat="44.449603" lon="9.9063711"><ele>847.0</ele><time>2026-04-04T16:52:26.443Z</time></trkpt><trkpt lat="44.4495786" lon="9.9065208"><ele>847.0</ele><time>2026-04-04T16:52:27.461Z</time></trkpt><trkpt lat="44.4494827" lon="9.9066002"><ele>847.0</ele><time>2026-04-04T16:52:28.453Z</time></trkpt><trkpt lat="44.449376" lon="9.9066973"><ele>847.0</ele><time>2026-04-04T16:52:29.439Z</time></trkpt><trkpt lat="44.4492275" lon="9.906804"><ele>847.0</ele><time>2026-04-04T16:52:30.442Z</time></trkpt><trkpt lat="44.4490689" lon="9.9069469"><ele>844.6666666666666</ele><time>2026-04-04T16:52:31.447Z</time></trkpt><trkpt lat="44.4489136" lon="9.907123"><ele>842.3333333333333</ele><time>2026-04-04T16:52:32.451Z</time></trkpt><trkpt lat="44.4488027" lon="9.9072923"><ele>840.0</ele><time>2026-04-04T16:52:33.45Z</time></trkpt><trkpt lat="44.4487641" lon="9.9074104"><ele>840.0</ele><time>2026-04-04T16:52:34.459Z</time></trkpt><trkpt lat="44.448772" lon="9.9075011"><ele>840.0</ele><time>2026-04-04T16:52:35.461Z</time></trkpt><trkpt lat="44.4488382" lon="9.9075419"><ele>840.0</ele><time>2026-04-04T16:52:36.459Z</time></trkpt><trkpt lat="44.4489469" lon="9.9075287"><ele>840.0</ele><time>2026-04-04T16:52:37.446Z</time></trkpt><trkpt lat="44.4490535" lon="9.9074725"><ele>840.0</ele><time>2026-04-04T16:52:38.453Z</time></trkpt><trkpt lat="44.4491801" lon="9.9073597"><ele>844.75</ele><time>2026-04-04T16:52:39.454Z</time></trkpt><trkpt lat="44.4493288" lon="9.907216"><ele>849.5</ele><time>2026-04-04T16:52:40.438Z</time></trkpt><trkpt lat="44.4494455" lon="9.9071073"><ele>854.25</ele><time>2026-04-04T16:52:41.44Z</time></trkpt><trkpt lat="44.4495299" lon="9.9071136"><ele>859.0</ele><time>2026-04-04T16:52:42.436Z</time></trkpt><trkpt lat="44.4495835" lon="9.9072329"><ele>859.0</ele><time>2026-04-04T16:52:43.438Z</time></trkpt><trkpt lat="44.4496054" lon="9.9074346"><ele>859.0</ele><time>2026-04-04T16:52:44.445Z</time></trkpt><trkpt lat="44.4496137" lon="9.9075641"><ele>859.0</ele><time>2026-04-04T16:52:45.443Z</time></trkpt><trkpt lat="44.449523" lon="9.907867"><ele>860.3333333333333</ele><time>2026-04-04T16:52:46.427Z</time></trkpt><trkpt lat="44.449401" lon="9.9081184"><ele>861.6666666666667</ele><time>2026-04-04T16:52:47.433Z</time></trkpt><trkpt lat="44.4492706" lon="9.9082509"><ele>863.0</ele><time>2026-04-04T16:52:48.419Z</time></trkpt><trkpt lat="44.4491646" lon="9.908363"><ele>861.0</ele><time>2026-04-04T16:52:49.428Z</time></trkpt><trkpt lat="44.4490997" lon="9.9084676"><ele>859.0</ele><time>2026-04-04T16:52:50.442Z</time></trkpt><trkpt lat="44.4490929" lon="9.9086206"><ele>857.0</ele><time>2026-04-04T16:52:51.447Z</time></trkpt><trkpt lat="44.4491401" lon="9.9087927"><ele>855.0</ele><time>2026-04-04T16:52:52.46Z</time></trkpt><trkpt lat="44.4492061" lon="9.9089249"><ele>855.0</ele><time>2026-04-04T16:52:53.478Z</time></trkpt><trkpt lat="44.4493132" lon="9.9089923"><ele>855.0</ele><time>2026-04-04T16:52:54.435Z</time></trkpt><trkpt lat="44.4494508" lon="9.9090092"><ele>855.0</ele><time>2026-04-04T16:52:55.433Z</time></trkpt><trkpt lat="44.4496471" lon="9.9090254"><ele>859.0</ele><time>2026-04-04T16:52:56.413Z</time></trkpt><trkpt lat="44.4498762" lon="9.9090488"><ele>863.0</ele><time>2026-04-04T16:52:57.427Z</time></trkpt><trkpt lat="44.4500764" lon="9.9090926"><ele>867.0</ele><time>2026-04-04T16:52:58.43Z</time></trkpt><trkpt lat="44.4502207" lon="9.9091004"><ele>867.0</ele><time>2026-04-04T16:52:59.438Z</time></trkpt><trkpt lat="44.4503378" lon="9.9090091"><ele>867.0</ele><time>2026-04-04T16:53:00.422Z</time></trkpt><trkpt lat="44.4504449" lon="9.9088414"><ele>867.0</ele><time>2026-04-04T16:53:01.434Z</time></trkpt><trkpt lat="44.4505616" lon="9.9086291"><ele>870.0</ele><time>2026-04-04T16:53:02.425Z</time></trkpt><trkpt lat="44.4507144" lon="9.90841"><ele>873.0</ele><time>2026-04-04T16:53:03.429Z</time></trkpt><trkpt lat="44.4509395" lon="9.9082232"><ele>879.5</ele><time>2026-04-04T16:53:04.417Z</time></trkpt><trkpt lat="44.4511958" lon="9.9080747"><ele>886.0</ele><time>2026-04-04T16:53:05.434Z</time></trkpt><trkpt lat="44.4514141" lon="9.9079437"><ele>887.6666666666666</ele><time>2026-04-04T16:53:06.438Z</time></trkpt><trkpt lat="44.4515841" lon="9.9078401"><ele>889.3333333333333</ele><time>2026-04-04T16:53:07.438Z</time></trkpt><trkpt lat="44.4517305" lon="9.9077935"><ele>891.0</ele><time>2026-04-04T16:53:08.428Z</time></trkpt><trkpt lat="44.4518518" lon="9.9077948"><ele>891.0</ele><time>2026-04-04T16:53:09.427Z</time></trkpt><trkpt lat="44.4519663" lon="9.9079189"><ele>891.0</ele><time>2026-04-04T16:53:10.435Z</time></trkpt><trkpt lat="44.4520691" lon="9.9081455"><ele>891.0</ele><time>2026-04-04T16:53:11.447Z</time></trkpt><trkpt lat="44.4521781" lon="9.9085024"><ele>896.3333333333333</ele><time>2026-04-04T16:53:12.437Z</time></trkpt><trkpt lat="44.4523233" lon="9.9087828"><ele>901.6666666666666</ele><time>2026-04-04T16:53:13.447Z</time></trkpt><trkpt lat="44.4524234" lon="9.9090066"><ele>907.0</ele><time>2026-04-04T16:53:14.444Z</time></trkpt><trkpt lat="44.4524621" lon="9.9091878"><ele>908.3333333333333</ele><time>2026-04-04T16:53:15.455Z</time></trkpt><trkpt lat="44.4524306" lon="9.9093735"><ele>909.6666666666667</ele><time>2026-04-04T16:53:16.448Z</time></trkpt><trkpt lat="44.4523187" lon="9.9095457"><ele>911.0</ele><time>2026-04-04T16:53:17.439Z</time></trkpt><trkpt lat="44.4522518" lon="9.9097346"><ele>911.0</ele><time>2026-04-04T16:53:18.447Z</time></trkpt><trkpt lat="44.452234" lon="9.9099301"><ele>911.0</ele><time>2026-04-04T16:53:19.455Z</time></trkpt><trkpt lat="44.4523033" lon="9.9101064"><ele>911.0</ele><time>2026-04-04T16:53:20.452Z</time></trkpt><trkpt lat="44.4524118" lon="9.9102782"><ele>911.0</ele><time>2026-04-04T16:53:21.448Z</time></trkpt><trkpt lat="44.4525838" lon="9.9104989"><ele>908.5</ele><time>2026-04-04T16:53:22.453Z</time></trkpt><trkpt lat="44.4527988" lon="9.9107973"><ele>906.0</ele><time>2026-04-04T16:53:23.469Z</time></trkpt><trkpt lat="44.452974" lon="9.9111705"><ele>914.5</ele><time>2026-04-04T16:53:24.442Z</time></trkpt><trkpt lat="44.4531484" lon="9.911562"><ele>923.0</ele><time>2026-04-04T16:53:25.441Z</time></trkpt><trkpt lat="44.4532892" lon="9.911956"><ele>923.0</ele><time>2026-04-04T16:53:26.433Z</time></trkpt><trkpt lat="44.4533922" lon="9.9123306"><ele>923.0</ele><time>2026-04-04T16:53:27.42Z</time></trkpt><trkpt lat="44.4534822" lon="9.9126343"><ele>923.6666666666667</ele><time>2026-04-04T16:53:28.427Z</time></trkpt><trkpt lat="44.4535469" lon="9.9129267"><ele>924.3333333333333</ele><time>2026-04-04T16:53:29.439Z</time></trkpt><trkpt lat="44.4535703" lon="9.9131524"><ele>925.0</ele><time>2026-04-04T16:53:30.423Z</time></trkpt><trkpt lat="44.4535772" lon="9.9134459"><ele>928.0</ele><time>2026-04-04T16:53:31.419Z</time></trkpt><trkpt lat="44.4535608" lon="9.913773"><ele>931.0</ele><time>2026-04-04T16:53:32.423Z</time></trkpt><trkpt lat="44.4535388" lon="9.91409"><ele>934.3333333333333</ele><time>2026-04-04T16:53:33.419Z</time></trkpt><trkpt lat="44.4535071" lon="9.9144197"><ele>937.6666666666667</ele><time>2026-04-04T16:53:34.414Z</time></trkpt><trkpt lat="44.4534851" lon="9.9147135"><ele>941.0</ele><time>2026-04-04T16:53:35.419Z</time></trkpt><trkpt lat="44.4534221" lon="9.9149489"><ele>946.0</ele><time>2026-04-04T16:53:36.433Z</time></trkpt><trkpt lat="44.4533393" lon="9.9151463"><ele>951.0</ele><time>2026-04-04T16:53:37.422Z</time></trkpt><trkpt lat="44.4531844" lon="9.9153185"><ele>956.0</ele><time>2026-04-04T16:53:38.427Z</time></trkpt><trkpt lat="44.4530314" lon="9.9155282"><ele>953.0</ele><time>2026-04-04T16:53:39.436Z</time></trkpt><trkpt lat="44.4528877" lon="9.9157795"><ele>950.0</ele><time>2026-04-04T16:53:40.431Z</time></trkpt><trkpt lat="44.4527202" lon="9.9160365"><ele>950.0</ele><time>2026-04-04T16:53:41.428Z</time></trkpt><trkpt lat="44.4525405" lon="9.9163315"><ele>950.0</ele><time>2026-04-04T16:53:42.44Z</time></trkpt><trkpt lat="44.4523581" lon="9.9166243"><ele>948.6666666666667</ele><time>2026-04-04T16:53:43.43Z</time></trkpt><trkpt lat="44.4522106" lon="9.9168848"><ele>947.3333333333333</ele><time>2026-04-04T16:53:44.423Z</time></trkpt><trkpt lat="44.4520915" lon="9.917105"><ele>946.0</ele><time>2026-04-04T16:53:45.441Z</time></trkpt><trkpt lat="44.451988" lon="9.9173086"><ele>946.0</ele><time>2026-04-04T16:53:46.431Z</time></trkpt><trkpt lat="44.4519179" lon="9.9175553"><ele>946.0</ele><time>2026-04-04T16:53:47.456Z</time></trkpt><trkpt lat="44.4518946" lon="9.9178544"><ele>946.0</ele><time>2026-04-04T16:53:48.426Z</time></trkpt><trkpt lat="44.4518525" lon="9.9181403"><ele>949.0</ele><time>2026-04-04T16:53:49.454Z</time></trkpt><trkpt lat="44.4517507" lon="9.9183938"><ele>952.0</ele><time>2026-04-04T16:53:50.457Z</time></trkpt><trkpt lat="44.4515883" lon="9.9186404"><ele>955.0</ele><time>2026-04-04T16:53:51.457Z</time></trkpt><trkpt lat="44.4513926" lon="9.9188816"><ele>958.0</ele><time>2026-04-04T16:53:52.448Z</time></trkpt><trkpt lat="44.4511998" lon="9.9191136"><ele>961.0</ele><time>2026-04-04T16:53:53.465Z</time></trkpt><trkpt lat="44.451024" lon="9.9192893"><ele>963.0</ele><time>2026-04-04T16:53:54.455Z</time></trkpt><trkpt lat="44.4508974" lon="9.9194109"><ele>965.0</ele><time>2026-04-04T16:53:55.462Z</time></trkpt><trkpt lat="44.4507854" lon="9.9195077"><ele>967.0</ele><time>2026-04-04T16:53:56.463Z</time></trkpt><trkpt lat="44.4507147" lon="9.9196212"><ele>969.0</ele><time>2026-04-04T16:53:57.472Z</time></trkpt><trkpt lat="44.4506842" lon="9.9197402"><ele>969.0</ele><time>2026-04-04T16:53:58.452Z</time></trkpt><trkpt lat="44.4507456" lon="9.9198781"><ele>969.0</ele><time>2026-04-04T16:53:59.461Z</time></trkpt><trkpt lat="44.4508779" lon="9.9199461"><ele>969.0</ele><time>2026-04-04T16:54:00.453Z</time></trkpt><trkpt lat="44.4509988" lon="9.9199124"><ele>969.0</ele><time>2026-04-04T16:54:01.442Z</time></trkpt><trkpt lat="44.4511008" lon="9.9197893"><ele>969.0</ele><time>2026-04-04T16:54:02.455Z</time></trkpt><trkpt lat="44.4512275" lon="9.9196056"><ele>969.0</ele><time>2026-04-04T16:54:03.448Z</time></trkpt><trkpt lat="44.4513982" lon="9.9193306"><ele>969.0</ele><time>2026-04-04T16:54:04.446Z</time></trkpt><trkpt lat="44.451568" lon="9.9191236"><ele>970.0</ele><time>2026-04-04T16:54:05.449Z</time></trkpt><trkpt lat="44.4517614" lon="9.918988"><ele>971.0</ele><time>2026-04-04T16:54:06.439Z</time></trkpt><trkpt lat="44.4519774" lon="9.9188831"><ele>972.0</ele><time>2026-04-04T16:54:07.449Z</time></trkpt><trkpt lat="44.4522055" lon="9.9188458"><ele>972.3333333333333</ele><time>2026-04-04T16:54:08.443Z</time></trkpt><trkpt lat="44.4523932" lon="9.9188501"><ele>972.6666666666666</ele><time>2026-04-04T16:54:09.449Z</time></trkpt><trkpt lat="44.4525732" lon="9.9188181"><ele>973.0</ele><time>2026-04-04T16:54:10.43Z</time></trkpt><trkpt lat="44.4527524" lon="9.9187164"><ele>973.0</ele><time>2026-04-04T16:54:11.446Z</time></trkpt><trkpt lat="44.4529439" lon="9.9184964"><ele>973.0</ele><time>2026-04-04T16:54:12.446Z</time></trkpt><trkpt lat="44.4531283" lon="9.9182532"><ele>974.3333333333333</ele><time>2026-04-04T16:54:13.437Z</time></trkpt><trkpt lat="44.4532753" lon="9.9180248"><ele>975.6666666666667</ele><time>2026-04-04T16:54:14.457Z</time></trkpt><trkpt lat="44.4534262" lon="9.9178552"><ele>977.0</ele><time>2026-04-04T16:54:15.441Z</time></trkpt><trkpt lat="44.4536133" lon="9.9177666"><ele>975.0</ele><time>2026-04-04T16:54:16.439Z</time></trkpt><trkpt lat="44.4538223" lon="9.9177479"><ele>973.0</ele><time>2026-04-04T16:54:17.441Z</time></trkpt><trkpt lat="44.4540508" lon="9.917782"><ele>971.0</ele><time>2026-04-04T16:54:18.441Z</time></trkpt><trkpt lat="44.4542599" lon="9.9178335"><ele>971.0</ele><time>2026-04-04T16:54:19.444Z</time></trkpt><trkpt lat="44.4544829" lon="9.9179431"><ele>971.0</ele><time>2026-04-04T16:54:20.45Z</time></trkpt><trkpt lat="44.4547098" lon="9.9181306"><ele>969.0</ele><time>2026-04-04T16:54:21.436Z</time></trkpt><trkpt lat="44.4549166" lon="9.9182786"><ele>967.0</ele><time>2026-04-04T16:54:22.435Z</time></trkpt><trkpt lat="44.4551072" lon="9.9184685"><ele>967.0</ele><time>2026-04-04T16:54:23.443Z</time></trkpt><trkpt lat="44.4552615" lon="9.9187073"><ele>967.0</ele><time>2026-04-04T16:54:24.429Z</time></trkpt><trkpt lat="44.4553823" lon="9.918933"><ele>967.0</ele><time>2026-04-04T16:54:25.429Z</time></trkpt><trkpt lat="44.4554848" lon="9.9191358"><ele>963.25</ele><time>2026-04-04T16:54:26.435Z</time></trkpt><trkpt lat="44.4555807" lon="9.9192773"><ele>959.5</ele><time>2026-04-04T16:54:27.428Z</time></trkpt><trkpt lat="44.4556885" lon="9.9193588"><ele>955.75</ele><time>2026-04-04T16:54:28.431Z</time></trkpt><trkpt lat="44.4558078" lon="9.9193652"><ele>952.0</ele><time>2026-04-04T16:54:29.441Z</time></trkpt><trkpt lat="44.455955" lon="9.9192079"><ele>962.3333333333333</ele><time>2026-04-04T16:54:30.44Z</time></trkpt><trkpt lat="44.4561305" lon="9.9191033"><ele>972.6666666666667</ele><time>2026-04-04T16:54:31.441Z</time></trkpt><trkpt lat="44.4563776" lon="9.9190767"><ele>983.0</ele><time>2026-04-04T16:54:32.425Z</time></trkpt><trkpt lat="44.4566337" lon="9.9190605"><ele>984.0</ele><time>2026-04-04T16:54:33.437Z</time></trkpt><trkpt lat="44.4568815" lon="9.9191061"><ele>985.0</ele><time>2026-04-04T16:54:34.432Z</time></trkpt><trkpt lat="44.4570854" lon="9.9191929"><ele>981.3333333333333</ele><time>2026-04-04T16:54:35.421Z</time></trkpt><trkpt lat="44.4572899" lon="9.9192609"><ele>977.6666666666667</ele><time>2026-04-04T16:54:36.417Z</time></trkpt><trkpt lat="44.4574794" lon="9.9193542"><ele>974.0</ele><time>2026-04-04T16:54:37.431Z</time></trkpt><trkpt lat="44.4576444" lon="9.9194874"><ele>974.0</ele><time>2026-04-04T16:54:38.432Z</time></trkpt><trkpt lat="44.4577712" lon="9.9197024"><ele>974.0</ele><time>2026-04-04T16:54:39.438Z</time></trkpt><trkpt lat="44.4578631" lon="9.9198941"><ele>974.0</ele><time>2026-04-04T16:54:40.438Z</time></trkpt><trkpt lat="44.4579547" lon="9.9200218"><ele>976.5</ele><time>2026-04-04T16:54:41.439Z</time></trkpt><trkpt lat="44.4580471" lon="9.9200209"><ele>979.0</ele><time>2026-04-04T16:54:42.436Z</time></trkpt><trkpt lat="44.4581637" lon="9.919929"><ele>981.5</ele><time>2026-04-04T16:54:43.434Z</time></trkpt><trkpt lat="44.4583099" lon="9.9197943"><ele>984.0</ele><time>2026-04-04T16:54:44.431Z</time></trkpt><trkpt lat="44.4584613" lon="9.9197275"><ele>984.0</ele><time>2026-04-04T16:54:45.436Z</time></trkpt><trkpt lat="44.4585767" lon="9.9197532"><ele>984.0</ele><time>2026-04-04T16:54:46.431Z</time></trkpt><trkpt lat="44.4586667" lon="9.9198649"><ele>984.0</ele><time>2026-04-04T16:54:47.432Z</time></trkpt><trkpt lat="44.4587822" lon="9.9200853"><ele>984.0</ele><time>2026-04-04T16:54:48.427Z</time></trkpt><trkpt lat="44.4589275" lon="9.9203434"><ele>986.5</ele><time>2026-04-04T16:54:49.429Z</time></trkpt><trkpt lat="44.45909" lon="9.9206414"><ele>989.0</ele><time>2026-04-04T16:54:50.432Z</time></trkpt><trkpt lat="44.4592171" lon="9.9208993"><ele>985.0</ele><time>2026-04-04T16:54:51.432Z</time></trkpt><trkpt lat="44.4593097" lon="9.9211134"><ele>981.0</ele><time>2026-04-04T16:54:52.42Z</time></trkpt><trkpt lat="44.4594055" lon="9.9212567"><ele>977.0</ele><time>2026-04-04T16:54:53.435Z</time></trkpt><trkpt lat="44.4595159" lon="9.9212674"><ele>973.0</ele><time>2026-04-04T16:54:54.437Z</time></trkpt><trkpt lat="44.4596664" lon="9.9211982"><ele>973.0</ele><time>2026-04-04T16:54:55.433Z</time></trkpt><trkpt lat="44.4598442" lon="9.92109"><ele>973.0</ele><time>2026-04-04T16:54:56.444Z</time></trkpt><trkpt lat="44.4600482" lon="9.9208849"><ele>973.0</ele><time>2026-04-04T16:54:57.439Z</time></trkpt><trkpt lat="44.4602356" lon="9.9207016"><ele>979.6666666666666</ele><time>2026-04-04T16:54:58.418Z</time></trkpt><trkpt lat="44.4603977" lon="9.9205814"><ele>986.3333333333333</ele><time>2026-04-04T16:54:59.423Z</time></trkpt><trkpt lat="44.4605943" lon="9.9205455"><ele>993.0</ele><time>2026-04-04T16:55:00.418Z</time></trkpt><trkpt lat="44.4608026" lon="9.9205774"><ele>993.0</ele><time>2026-04-04T16:55:01.424Z</time></trkpt><trkpt lat="44.4610269" lon="9.9206998"><ele>993.0</ele><time>2026-04-04T16:55:02.416Z</time></trkpt><trkpt lat="44.4612557" lon="9.9208162"><ele>988.5</ele><time>2026-04-04T16:55:03.417Z</time></trkpt><trkpt lat="44.4614399" lon="9.920988"><ele>984.0</ele><time>2026-04-04T16:55:04.43Z</time></trkpt><trkpt lat="44.4616097" lon="9.9212672"><ele>984.0</ele><time>2026-04-04T16:55:05.422Z</time></trkpt><trkpt lat="44.4617838" lon="9.9214753"><ele>984.0</ele><time>2026-04-04T16:55:06.419Z</time></trkpt><trkpt lat="44.4619387" lon="9.9216432"><ele>984.0</ele><time>2026-04-04T16:55:07.428Z</time></trkpt><trkpt lat="44.4620725" lon="9.9217257"><ele>985.5</ele><time>2026-04-04T16:55:08.429Z</time></trkpt><trkpt lat="44.4621844" lon="9.921735"><ele>987.0</ele><time>2026-04-04T16:55:09.433Z</time></trkpt><trkpt lat="44.4622814" lon="9.9216067"><ele>988.5</ele><time>2026-04-04T16:55:10.438Z</time></trkpt><trkpt lat="44.4623541" lon="9.9214153"><ele>990.0</ele><time>2026-04-04T16:55:11.444Z</time></trkpt><trkpt lat="44.462391" lon="9.9211873"><ele>996.0</ele><time>2026-04-04T16:55:12.437Z</time></trkpt><trkpt lat="44.4624121" lon="9.9208399"><ele>1002.0</ele><time>2026-04-04T16:55:13.441Z</time></trkpt><trkpt lat="44.462464" lon="9.9204611"><ele>1002.0</ele><time>2026-04-04T16:55:14.46Z</time></trkpt><trkpt lat="44.4625055" lon="9.9201102"><ele>1002.0</ele><time>2026-04-04T16:55:15.459Z</time></trkpt><trkpt lat="44.4625958" lon="9.9198091"><ele>1005.3333333333333</ele><time>2026-04-04T16:55:16.441Z</time></trkpt><trkpt lat="44.4627363" lon="9.9195558"><ele>1008.6666666666666</ele><time>2026-04-04T16:55:17.429Z</time></trkpt><trkpt lat="44.4628709" lon="9.9193177"><ele>1012.0</ele><time>2026-04-04T16:55:18.428Z</time></trkpt><trkpt lat="44.4630015" lon="9.9191649"><ele>1012.0</ele><time>2026-04-04T16:55:19.415Z</time></trkpt><trkpt lat="44.4631048" lon="9.9190837"><ele>1012.0</ele><time>2026-04-04T16:55:20.431Z</time></trkpt><trkpt lat="44.4631996" lon="9.9190895"><ele>1012.0</ele><time>2026-04-04T16:55:21.411Z</time></trkpt><trkpt lat="44.4633138" lon="9.9191769"><ele>1012.0</ele><time>2026-04-04T16:55:22.429Z</time></trkpt><trkpt lat="44.4634191" lon="9.9192876"><ele>1011.0</ele><time>2026-04-04T16:55:23.438Z</time></trkpt><trkpt lat="44.4635176" lon="9.9194911"><ele>1010.0</ele><time>2026-04-04T16:55:24.432Z</time></trkpt><trkpt lat="44.4636609" lon="9.9196953"><ele>1009.0</ele><time>2026-04-04T16:55:25.426Z</time></trkpt><trkpt lat="44.463847" lon="9.9198375"><ele>1009.0</ele><time>2026-04-04T16:55:26.424Z</time></trkpt><trkpt lat="44.4640896" lon="9.9199826"><ele>1009.0</ele><time>2026-04-04T16:55:27.426Z</time></trkpt><trkpt lat="44.4643703" lon="9.9201206"><ele>1005.0</ele><time>2026-04-04T16:55:28.427Z</time></trkpt><trkpt lat="44.4646743" lon="9.9203348"><ele>1001.0</ele><time>2026-04-04T16:55:29.429Z</time></trkpt><trkpt lat="44.4648796" lon="9.9205289"><ele>1001.0</ele><time>2026-04-04T16:55:30.429Z</time></trkpt><trkpt lat="44.4650523" lon="9.9206911"><ele>1001.0</ele><time>2026-04-04T16:55:31.421Z</time></trkpt><trkpt lat="44.4651796" lon="9.9207373"><ele>1001.0</ele><time>2026-04-04T16:55:32.419Z</time></trkpt><trkpt lat="44.4653261" lon="9.9207172"><ele>1002.5</ele><time>2026-04-04T16:55:33.43Z</time></trkpt><trkpt lat="44.46554" lon="9.9206379"><ele>1004.0</ele><time>2026-04-04T16:55:34.437Z</time></trkpt><trkpt lat="44.4658155" lon="9.9204703"><ele>1004.0</ele><time>2026-04-04T16:55:35.438Z</time></trkpt><trkpt lat="44.4661192" lon="9.920286"><ele>1004.0</ele><time>2026-04-04T16:55:36.427Z</time></trkpt><trkpt lat="44.4663692" lon="9.9202141"><ele>1003.5</ele><time>2026-04-04T16:55:37.449Z</time></trkpt><trkpt lat="44.4666117" lon="9.9202059"><ele>1003.0</ele><time>2026-04-04T16:55:38.44Z</time></trkpt><trkpt lat="44.466901" lon="9.9202397"><ele>1007.0</ele><time>2026-04-04T16:55:39.431Z</time></trkpt><trkpt lat="44.4672012" lon="9.9202956"><ele>1011.0</ele><time>2026-04-04T16:55:40.437Z</time></trkpt><trkpt lat="44.4674626" lon="9.9203388"><ele>1011.0</ele><time>2026-04-04T16:55:41.437Z</time></trkpt><trkpt lat="44.4676826" lon="9.9204316"><ele>1011.0</ele><time>2026-04-04T16:55:42.429Z</time></trkpt><trkpt lat="44.4678587" lon="9.9205544"><ele>1011.0</ele><time>2026-04-04T16:55:43.453Z</time></trkpt><trkpt lat="44.468008" lon="9.9207551"><ele>1013.0</ele><time>2026-04-04T16:55:44.437Z</time></trkpt><trkpt lat="44.4681901" lon="9.9210012"><ele>1015.0</ele><time>2026-04-04T16:55:45.447Z</time></trkpt><trkpt lat="44.468389" lon="9.9212985"><ele>1015.0</ele><time>2026-04-04T16:55:46.448Z</time></trkpt><trkpt lat="44.468574" lon="9.9216134"><ele>1015.0</ele><time>2026-04-04T16:55:47.436Z</time></trkpt><trkpt lat="44.4687383" lon="9.9219227"><ele>1016.3333333333333</ele><time>2026-04-04T16:55:48.447Z</time></trkpt><trkpt lat="44.468859" lon="9.9222043"><ele>1017.6666666666667</ele><time>2026-04-04T16:55:49.446Z</time></trkpt><trkpt lat="44.4689542" lon="9.9224014"><ele>1019.0</ele><time>2026-04-04T16:55:50.445Z</time></trkpt><trkpt lat="44.4690652" lon="9.9225763"><ele>1019.0</ele><time>2026-04-04T16:55:51.456Z</time></trkpt><trkpt lat="44.4691895" lon="9.9226443"><ele>1019.0</ele><time>2026-04-04T16:55:52.452Z</time></trkpt><trkpt lat="44.4693233" lon="9.9226217"><ele>1019.0</ele><time>2026-04-04T16:55:53.436Z</time></trkpt><trkpt lat="44.4694372" lon="9.9224991"><ele>1019.0</ele><time>2026-04-04T16:55:54.444Z</time></trkpt><trkpt lat="44.4695095" lon="9.922341"><ele>1019.0</ele><time>2026-04-04T16:55:55.448Z</time></trkpt><trkpt lat="44.4695574" lon="9.9221193"><ele>1019.0</ele><time>2026-04-04T16:55:56.442Z</time></trkpt><trkpt lat="44.469628" lon="9.9218023"><ele>1019.0</ele><time>2026-04-04T16:55:57.438Z</time></trkpt><trkpt lat="44.4697307" lon="9.9214314"><ele>1018.0</ele><time>2026-04-04T16:55:58.431Z</time></trkpt><trkpt lat="44.4698422" lon="9.9211198"><ele>1017.0</ele><time>2026-04-04T16:55:59.434Z</time></trkpt><trkpt lat="44.4699266" lon="9.9208629"><ele>1021.0</ele><time>2026-04-04T16:56:00.43Z</time></trkpt><trkpt lat="44.4699908" lon="9.9206608"><ele>1025.0</ele><time>2026-04-04T16:56:01.431Z</time></trkpt><trkpt lat="44.4700881" lon="9.9205337"><ele>1029.0</ele><time>2026-04-04T16:56:02.421Z</time></trkpt><trkpt lat="44.4701992" lon="9.9204836"><ele>1033.0</ele><time>2026-04-04T16:56:03.421Z</time></trkpt><trkpt lat="44.4702968" lon="9.9204695"><ele>1033.0</ele><time>2026-04-04T16:56:04.416Z</time></trkpt><trkpt lat="44.4703763" lon="9.9205408"><ele>1033.0</ele><time>2026-04-04T16:56:05.422Z</time></trkpt><trkpt lat="44.4705009" lon="9.920743"><ele>1033.0</ele><time>2026-04-04T16:56:06.421Z</time></trkpt><trkpt lat="44.4706611" lon="9.9210236"><ele>1027.0</ele><time>2026-04-04T16:56:07.42Z</time></trkpt><trkpt lat="44.4708532" lon="9.9213181"><ele>1021.0</ele><time>2026-04-04T16:56:08.421Z</time></trkpt><trkpt lat="44.4710063" lon="9.9215546"><ele>1021.0</ele><time>2026-04-04T16:56:09.424Z</time></trkpt><trkpt lat="44.4711156" lon="9.9217001"><ele>1021.0</ele><time>2026-04-04T16:56:10.43Z</time></trkpt><trkpt lat="44.471187" lon="9.9217973"><ele>1021.0</ele><time>2026-04-04T16:56:11.435Z</time></trkpt><trkpt lat="44.4712355" lon="9.9219365"><ele>1021.0</ele><time>2026-04-04T16:56:13.434Z</time></trkpt><trkpt lat="44.4712584" lon="9.9221338"><ele>1024.25</ele><time>2026-04-04T16:57:33.442Z</time></trkpt><trkpt lat="44.4712912" lon="9.9222628"><ele>1027.5</ele><time>2026-04-04T16:57:34.42Z</time></trkpt><trkpt lat="44.4712808" lon="9.9224608"><ele>1030.75</ele><time>2026-04-04T16:57:35.426Z</time></trkpt><trkpt lat="44.4712924" lon="9.9227107"><ele>1034.0</ele><time>2026-04-04T16:57:36.425Z</time></trkpt><trkpt lat="44.4713427" lon="9.9229536"><ele>1034.0</ele><time>2026-04-04T16:57:37.43Z</time></trkpt><trkpt lat="44.4714681" lon="9.9232161"><ele>1034.0</ele><time>2026-04-04T16:57:38.435Z</time></trkpt><trkpt lat="44.4716226" lon="9.9235133"><ele>1032.3333333333335</ele><time>2026-04-04T16:57:39.44Z</time></trkpt><trkpt lat="44.4717363" lon="9.923775"><ele>1030.6666666666667</ele><time>2026-04-04T16:57:40.431Z</time></trkpt><trkpt lat="44.4718316" lon="9.9239991"><ele>1029.0</ele><time>2026-04-04T16:57:41.442Z</time></trkpt><trkpt lat="44.4718608" lon="9.9242287"><ele>1031.6666666666667</ele><time>2026-04-04T16:57:42.445Z</time></trkpt><trkpt lat="44.4718159" lon="9.9244627"><ele>1034.3333333333335</ele><time>2026-04-04T16:57:43.44Z</time></trkpt><trkpt lat="44.4717225" lon="9.9247199"><ele>1037.0</ele><time>2026-04-04T16:57:44.439Z</time></trkpt><trkpt lat="44.4715962" lon="9.9250335"><ele>1043.0</ele><time>2026-04-04T16:57:45.42Z</time></trkpt><trkpt lat="44.4714757" lon="9.925378"><ele>1049.0</ele><time>2026-04-04T16:57:46.432Z</time></trkpt><trkpt lat="44.4713848" lon="9.9256893"><ele>1049.6666666666667</ele><time>2026-04-04T16:57:47.433Z</time></trkpt><trkpt lat="44.4713096" lon="9.9259797"><ele>1050.3333333333333</ele><time>2026-04-04T16:57:48.433Z</time></trkpt><trkpt lat="44.4712769" lon="9.9262772"><ele>1051.0</ele><time>2026-04-04T16:57:49.443Z</time></trkpt><trkpt lat="44.4713044" lon="9.9266161"><ele>1048.6666666666665</ele><time>2026-04-04T16:57:50.433Z</time></trkpt><trkpt lat="44.4713354" lon="9.9269364"><ele>1046.3333333333333</ele><time>2026-04-04T16:57:51.431Z</time></trkpt><trkpt lat="44.4713498" lon="9.9272422"><ele>1044.0</ele><time>2026-04-04T16:57:52.531Z</time></trkpt><trkpt lat="44.4713344" lon="9.9275473"><ele>1042.0</ele><time>2026-04-04T16:57:53.447Z</time></trkpt><trkpt lat="44.471322" lon="9.9278089"><ele>1040.0</ele><time>2026-04-04T16:57:54.469Z</time></trkpt><trkpt lat="44.4713805" lon="9.9280526"><ele>1038.0</ele><time>2026-04-04T16:57:55.468Z</time></trkpt><trkpt lat="44.4714591" lon="9.9282834"><ele>1039.0</ele><time>2026-04-04T16:57:56.456Z</time></trkpt><trkpt lat="44.471549" lon="9.9284659"><ele>1040.0</ele><time>2026-04-04T16:57:57.454Z</time></trkpt><trkpt lat="44.4716265" lon="9.9286137"><ele>1041.0</ele><time>2026-04-04T16:57:58.453Z</time></trkpt><trkpt lat="44.4716831" lon="9.9287353"><ele>1042.0</ele><time>2026-04-04T16:57:59.446Z</time></trkpt><trkpt lat="44.4717211" lon="9.9288217"><ele>1042.0</ele><time>2026-04-04T16:58:00.437Z</time></trkpt><trkpt lat="44.4717479" lon="9.9289076"><ele>1042.0</ele><time>2026-04-04T16:58:01.452Z</time></trkpt><trkpt lat="44.4717816" lon="9.9289856"><ele>1042.0</ele><time>2026-04-04T16:58:02.437Z</time></trkpt><trkpt lat="44.4718568" lon="9.9290408"><ele>1042.0</ele><time>2026-04-04T16:58:04.439Z</time></trkpt></trkseg><trkseg><trkpt lat="44.47181" lon="9.9290022"><ele>1042.0</ele><time>2026-04-04T17:23:22.606Z</time></trkpt><trkpt lat="44.4718451" lon="9.9290965"><ele>1042.0</ele><time>2026-04-04T17:23:25.581Z</time></trkpt><trkpt lat="44.4718794" lon="9.9291991"><ele>1042.0</ele><time>2026-04-04T17:23:59.642Z</time></trkpt><trkpt lat="44.4719262" lon="9.9293595"><ele>1042.0</ele><time>2026-04-04T17:24:01.642Z</time></trkpt><trkpt lat="44.4719584" lon="9.9294659"><ele>1042.0</ele><time>2026-04-04T17:24:02.643Z</time></trkpt><trkpt lat="44.4720046" lon="9.9295965"><ele>1039.75</ele><time>2026-04-04T17:24:03.639Z</time></trkpt><trkpt lat="44.4720533" lon="9.9297356"><ele>1037.5</ele><time>2026-04-04T17:24:04.62Z</time></trkpt><trkpt lat="44.4721155" lon="9.9299018"><ele>1035.25</ele><time>2026-04-04T17:24:05.642Z</time></trkpt><trkpt lat="44.4721854" lon="9.9300912"><ele>1033.0</ele><time>2026-04-04T17:24:06.643Z</time></trkpt><trkpt lat="44.4722612" lon="9.9302858"><ele>1033.0</ele><time>2026-04-04T17:24:07.645Z</time></trkpt><trkpt lat="44.4723428" lon="9.9304878"><ele>1033.0</ele><time>2026-04-04T17:24:08.64Z</time></trkpt><trkpt lat="44.4724131" lon="9.9307084"><ele>1033.0</ele><time>2026-04-04T17:24:09.641Z</time></trkpt><trkpt lat="44.4724597" lon="9.9309439"><ele>1030.6666666666665</ele><time>2026-04-04T17:24:10.646Z</time></trkpt><trkpt lat="44.472479" lon="9.931198"><ele>1028.3333333333333</ele><time>2026-04-04T17:24:11.645Z</time></trkpt><trkpt lat="44.4724557" lon="9.9314623"><ele>1026.0</ele><time>2026-04-04T17:24:12.647Z</time></trkpt><trkpt lat="44.4724" lon="9.9317312"><ele>1022.6666666666667</ele><time>2026-04-04T17:24:13.64Z</time></trkpt><trkpt lat="44.4723369" lon="9.932011"><ele>1019.3333333333334</ele><time>2026-04-04T17:24:14.645Z</time></trkpt><trkpt lat="44.4722701" lon="9.9323011"><ele>1016.0</ele><time>2026-04-04T17:24:15.645Z</time></trkpt><trkpt lat="44.4722082" lon="9.9325782"><ele>1014.0</ele><time>2026-04-04T17:24:16.643Z</time></trkpt><trkpt lat="44.4721411" lon="9.9328453"><ele>1012.0</ele><time>2026-04-04T17:24:17.635Z</time></trkpt><trkpt lat="44.4720508" lon="9.9331033"><ele>1010.0</ele><time>2026-04-04T17:24:18.629Z</time></trkpt><trkpt lat="44.4719409" lon="9.9333527"><ele>1015.0</ele><time>2026-04-04T17:24:19.636Z</time></trkpt><trkpt lat="44.4718284" lon="9.9335992"><ele>1020.0</ele><time>2026-04-04T17:24:20.629Z</time></trkpt><trkpt lat="44.4717215" lon="9.9338339"><ele>1025.0</ele><time>2026-04-04T17:24:21.632Z</time></trkpt><trkpt lat="44.4716241" lon="9.9340496"><ele>1023.0</ele><time>2026-04-04T17:24:22.633Z</time></trkpt><trkpt lat="44.4715412" lon="9.9342652"><ele>1021.0</ele><time>2026-04-04T17:24:23.638Z</time></trkpt><trkpt lat="44.4714743" lon="9.9344799"><ele>1019.0</ele><time>2026-04-04T17:24:24.628Z</time></trkpt><trkpt lat="44.4714323" lon="9.9346844"><ele>1019.0</ele><time>2026-04-04T17:24:25.632Z</time></trkpt><trkpt lat="44.4714233" lon="9.9348855"><ele>1019.0000000000001</ele><time>2026-04-04T17:24:26.645Z</time></trkpt><trkpt lat="44.4714474" lon="9.9350352"><ele>1019.0000000000001</ele><time>2026-04-04T17:24:27.643Z</time></trkpt><trkpt lat="44.4715097" lon="9.9351358"><ele>1019.0</ele><time>2026-04-04T17:24:28.642Z</time></trkpt><trkpt lat="44.4715865" lon="9.9351819"><ele>1019.0</ele><time>2026-04-04T17:24:29.629Z</time></trkpt><trkpt lat="44.4716598" lon="9.9351939"><ele>1019.3333333333334</ele><time>2026-04-04T17:24:30.64Z</time></trkpt><trkpt lat="44.4717344" lon="9.9351677"><ele>1019.6666666666667</ele><time>2026-04-04T17:24:31.632Z</time></trkpt><trkpt lat="44.4718157" lon="9.935152"><ele>1020.0</ele><time>2026-04-04T17:24:32.627Z</time></trkpt><trkpt lat="44.4718982" lon="9.935147"><ele>1020.3333333333333</ele><time>2026-04-04T17:24:33.632Z</time></trkpt><trkpt lat="44.4719875" lon="9.9351647"><ele>1020.6666666666666</ele><time>2026-04-04T17:24:34.626Z</time></trkpt><trkpt lat="44.4720722" lon="9.9352179"><ele>1021.0</ele><time>2026-04-04T17:24:35.639Z</time></trkpt><trkpt lat="44.4721508" lon="9.9353073"><ele>1021.0</ele><time>2026-04-04T17:24:36.636Z</time></trkpt><trkpt lat="44.4722309" lon="9.9354115"><ele>1021.0</ele><time>2026-04-04T17:24:37.631Z</time></trkpt><trkpt lat="44.4723212" lon="9.9355268"><ele>1021.0</ele><time>2026-04-04T17:24:38.634Z</time></trkpt><trkpt lat="44.4724142" lon="9.9356451"><ele>1021.0</ele><time>2026-04-04T17:24:39.638Z</time></trkpt><trkpt lat="44.4725162" lon="9.9357729"><ele>1023.0</ele><time>2026-04-04T17:24:40.638Z</time></trkpt><trkpt lat="44.4726209" lon="9.9359024"><ele>1025.0</ele><time>2026-04-04T17:24:41.636Z</time></trkpt><trkpt lat="44.4727302" lon="9.9360403"><ele>1027.0</ele><time>2026-04-04T17:24:42.638Z</time></trkpt><trkpt lat="44.4728162" lon="9.9362116"><ele>1029.0</ele><time>2026-04-04T17:24:43.642Z</time></trkpt><trkpt lat="44.472847" lon="9.9364181"><ele>1029.0</ele><time>2026-04-04T17:24:44.642Z</time></trkpt><trkpt lat="44.472835" lon="9.936654"><ele>1029.0</ele><time>2026-04-04T17:24:45.638Z</time></trkpt><trkpt lat="44.4727839" lon="9.9368877"><ele>1029.0</ele><time>2026-04-04T17:24:46.636Z</time></trkpt><trkpt lat="44.4727164" lon="9.9371242"><ele>1028.3333333333333</ele><time>2026-04-04T17:24:47.639Z</time></trkpt><trkpt lat="44.4726602" lon="9.9373697"><ele>1027.6666666666665</ele><time>2026-04-04T17:24:48.632Z</time></trkpt><trkpt lat="44.4726105" lon="9.9376378"><ele>1027.0</ele><time>2026-04-04T17:24:49.639Z</time></trkpt><trkpt lat="44.4725807" lon="9.9379001"><ele>1025.6666666666665</ele><time>2026-04-04T17:24:50.634Z</time></trkpt><trkpt lat="44.4725745" lon="9.9381625"><ele>1024.3333333333333</ele><time>2026-04-04T17:24:51.64Z</time></trkpt><trkpt lat="44.4725573" lon="9.9383771"><ele>1023.0</ele><time>2026-04-04T17:24:52.638Z</time></trkpt><trkpt lat="44.4725419" lon="9.9385712"><ele>1022.0</ele><time>2026-04-04T17:24:53.637Z</time></trkpt><trkpt lat="44.4725163" lon="9.9387384"><ele>1021.0</ele><time>2026-04-04T17:24:54.631Z</time></trkpt><trkpt lat="44.4724627" lon="9.9388695"><ele>1020.0</ele><time>2026-04-04T17:24:55.631Z</time></trkpt><trkpt lat="44.4723979" lon="9.9389624"><ele>1019.0</ele><time>2026-04-04T17:24:56.64Z</time></trkpt><trkpt lat="44.4723077" lon="9.9390178"><ele>1018.0</ele><time>2026-04-04T17:24:57.643Z</time></trkpt><trkpt lat="44.4722224" lon="9.9390628"><ele>1018.0</ele><time>2026-04-04T17:24:58.624Z</time></trkpt><trkpt lat="44.4721563" lon="9.9391428"><ele>1018.0</ele><time>2026-04-04T17:24:59.638Z</time></trkpt><trkpt lat="44.4721132" lon="9.9392525"><ele>1018.0</ele><time>2026-04-04T17:25:00.642Z</time></trkpt><trkpt lat="44.4721006" lon="9.9393732"><ele>1018.0</ele><time>2026-04-04T17:25:01.637Z</time></trkpt><trkpt lat="44.4721224" lon="9.9395126"><ele>1018.0</ele><time>2026-04-04T17:25:02.634Z</time></trkpt><trkpt lat="44.4721459" lon="9.9396409"><ele>1018.8</ele><time>2026-04-04T17:25:03.633Z</time></trkpt><trkpt lat="44.4721786" lon="9.9397737"><ele>1019.5999999999999</ele><time>2026-04-04T17:25:04.633Z</time></trkpt><trkpt lat="44.4722189" lon="9.9398921"><ele>1020.4000000000001</ele><time>2026-04-04T17:25:05.633Z</time></trkpt><trkpt lat="44.4722697" lon="9.9400033"><ele>1021.2</ele><time>2026-04-04T17:25:06.637Z</time></trkpt><trkpt lat="44.4723435" lon="9.9400831"><ele>1022.0</ele><time>2026-04-04T17:25:07.63Z</time></trkpt><trkpt lat="44.4724486" lon="9.9401329"><ele>1024.0</ele><time>2026-04-04T17:25:08.624Z</time></trkpt><trkpt lat="44.4725701" lon="9.9401671"><ele>1026.0</ele><time>2026-04-04T17:25:09.63Z</time></trkpt><trkpt lat="44.4727051" lon="9.9401957"><ele>1028.0</ele><time>2026-04-04T17:25:10.629Z</time></trkpt><trkpt lat="44.4728397" lon="9.9402188"><ele>1030.0</ele><time>2026-04-04T17:25:11.63Z</time></trkpt><trkpt lat="44.4729651" lon="9.9402304"><ele>1030.0</ele><time>2026-04-04T17:25:12.633Z</time></trkpt><trkpt lat="44.4730901" lon="9.9402394"><ele>1030.0</ele><time>2026-04-04T17:25:13.632Z</time></trkpt><trkpt lat="44.4732125" lon="9.9402393"><ele>1030.0</ele><time>2026-04-04T17:25:14.629Z</time></trkpt><trkpt lat="44.4733362" lon="9.9402488"><ele>1030.0</ele><time>2026-04-04T17:25:15.628Z</time></trkpt><trkpt lat="44.4734504" lon="9.940295"><ele>1030.0</ele><time>2026-04-04T17:25:16.63Z</time></trkpt><trkpt lat="44.4735531" lon="9.9403806"><ele>1030.0</ele><time>2026-04-04T17:25:17.626Z</time></trkpt><trkpt lat="44.4736444" lon="9.9404951"><ele>1030.0</ele><time>2026-04-04T17:25:18.63Z</time></trkpt><trkpt lat="44.4737219" lon="9.9406384"><ele>1030.0</ele><time>2026-04-04T17:25:19.627Z</time></trkpt><trkpt lat="44.4737857" lon="9.9407822"><ele>1026.2</ele><time>2026-04-04T17:25:20.631Z</time></trkpt><trkpt lat="44.4738451" lon="9.9409175"><ele>1022.4</ele><time>2026-04-04T17:25:21.636Z</time></trkpt><trkpt lat="44.4739093" lon="9.9410366"><ele>1018.5999999999999</ele><time>2026-04-04T17:25:22.64Z</time></trkpt><trkpt lat="44.4739792" lon="9.9411397"><ele>1014.8</ele><time>2026-04-04T17:25:23.637Z</time></trkpt><trkpt lat="44.4740472" lon="9.9412218"><ele>1011.0</ele><time>2026-04-04T17:25:24.619Z</time></trkpt><trkpt lat="44.4741143" lon="9.9412888"><ele>1011.0</ele><time>2026-04-04T17:25:25.638Z</time></trkpt><trkpt lat="44.4741818" lon="9.9413392"><ele>1011.0</ele><time>2026-04-04T17:25:26.646Z</time></trkpt><trkpt lat="44.4742437" lon="9.9413861"><ele>1011.0</ele><time>2026-04-04T17:25:27.63Z</time></trkpt><trkpt lat="44.4742972" lon="9.9414405"><ele>1011.0</ele><time>2026-04-04T17:25:28.641Z</time></trkpt><trkpt lat="44.4743457" lon="9.9415999"><ele>1011.0</ele><time>2026-04-04T17:25:30.642Z</time></trkpt><trkpt lat="44.4743241" lon="9.9416965"><ele>1011.0</ele><time>2026-04-04T17:25:31.638Z</time></trkpt><trkpt lat="44.4742687" lon="9.9417958"><ele>1008.5999999999999</ele><time>2026-04-04T17:25:32.637Z</time></trkpt><trkpt lat="44.4741997" lon="9.9418873"><ele>1006.1999999999999</ele><time>2026-04-04T17:25:33.631Z</time></trkpt><trkpt lat="44.4741121" lon="9.9419835"><ele>1003.8000000000001</ele><time>2026-04-04T17:25:34.637Z</time></trkpt><trkpt lat="44.4740214" lon="9.942087"><ele>1001.4000000000001</ele><time>2026-04-04T17:25:35.639Z</time></trkpt><trkpt lat="44.473926" lon="9.9421876"><ele>999.0</ele><time>2026-04-04T17:25:36.632Z</time></trkpt><trkpt lat="44.4738332" lon="9.9422862"><ele>1003.2</ele><time>2026-04-04T17:25:37.639Z</time></trkpt><trkpt lat="44.4737543" lon="9.9423766"><ele>1007.4000000000001</ele><time>2026-04-04T17:25:38.626Z</time></trkpt><trkpt lat="44.4736835" lon="9.9424629"><ele>1011.6</ele><time>2026-04-04T17:25:39.63Z</time></trkpt><trkpt lat="44.4736227" lon="9.9425573"><ele>1015.8</ele><time>2026-04-04T17:25:40.632Z</time></trkpt><trkpt lat="44.4735806" lon="9.9426707"><ele>1020.0</ele><time>2026-04-04T17:25:41.63Z</time></trkpt><trkpt lat="44.4735463" lon="9.9427979"><ele>1020.0</ele><time>2026-04-04T17:25:42.618Z</time></trkpt><trkpt lat="44.4735221" lon="9.9429368"><ele>1020.0</ele><time>2026-04-04T17:25:43.64Z</time></trkpt><trkpt lat="44.4735126" lon="9.943088"><ele>1020.0</ele><time>2026-04-04T17:25:44.627Z</time></trkpt><trkpt lat="44.4735007" lon="9.9432425"><ele>1020.0</ele><time>2026-04-04T17:25:45.64Z</time></trkpt><trkpt lat="44.4735139" lon="9.9434107"><ele>1020.0</ele><time>2026-04-04T17:25:46.619Z</time></trkpt><trkpt lat="44.4735564" lon="9.9435892"><ele>1019.3333333333333</ele><time>2026-04-04T17:25:47.625Z</time></trkpt><trkpt lat="44.4736154" lon="9.9437795"><ele>1018.6666666666666</ele><time>2026-04-04T17:25:48.64Z</time></trkpt><trkpt lat="44.4737135" lon="9.9439921"><ele>1018.0</ele><time>2026-04-04T17:25:49.64Z</time></trkpt><trkpt lat="44.4738213" lon="9.9442025"><ele>1014.0</ele><time>2026-04-04T17:25:50.636Z</time></trkpt><trkpt lat="44.4739174" lon="9.9443893"><ele>1010.0</ele><time>2026-04-04T17:25:51.638Z</time></trkpt><trkpt lat="44.4739989" lon="9.9445691"><ele>1006.0</ele><time>2026-04-04T17:25:52.639Z</time></trkpt><trkpt lat="44.4740719" lon="9.9447511"><ele>1006.0</ele><time>2026-04-04T17:25:53.646Z</time></trkpt><trkpt lat="44.4741241" lon="9.9449117"><ele>1006.0</ele><time>2026-04-04T17:25:54.633Z</time></trkpt><trkpt lat="44.4741626" lon="9.945068"><ele>1006.0</ele><time>2026-04-04T17:25:55.63Z</time></trkpt><trkpt lat="44.4741954" lon="9.9452256"><ele>1006.0</ele><time>2026-04-04T17:25:56.645Z</time></trkpt><trkpt lat="44.4742311" lon="9.9454083"><ele>1006.75</ele><time>2026-04-04T17:25:57.639Z</time></trkpt><trkpt lat="44.474269" lon="9.9455765"><ele>1007.5</ele><time>2026-04-04T17:25:58.637Z</time></trkpt><trkpt lat="44.4742919" lon="9.9457281"><ele>1008.25</ele><time>2026-04-04T17:25:59.638Z</time></trkpt><trkpt lat="44.4743141" lon="9.9458744"><ele>1009.0</ele><time>2026-04-04T17:26:00.634Z</time></trkpt><trkpt lat="44.4743394" lon="9.9460199"><ele>1007.75</ele><time>2026-04-04T17:26:01.64Z</time></trkpt><trkpt lat="44.4743714" lon="9.9461487"><ele>1006.5</ele><time>2026-04-04T17:26:02.634Z</time></trkpt><trkpt lat="44.4744196" lon="9.9462584"><ele>1005.25</ele><time>2026-04-04T17:26:03.638Z</time></trkpt><trkpt lat="44.4745224" lon="9.94635"><ele>1004.0</ele><time>2026-04-04T17:26:04.636Z</time></trkpt><trkpt lat="44.4746895" lon="9.9464214"><ele>1004.0</ele><time>2026-04-04T17:26:05.636Z</time></trkpt><trkpt lat="44.4749437" lon="9.9464729"><ele>1004.0</ele><time>2026-04-04T17:26:06.637Z</time></trkpt><trkpt lat="44.4752278" lon="9.9464919"><ele>998.5</ele><time>2026-04-04T17:26:07.631Z</time></trkpt><trkpt lat="44.4755049" lon="9.9465396"><ele>993.0</ele><time>2026-04-04T17:26:08.633Z</time></trkpt><trkpt lat="44.4757605" lon="9.9466251"><ele>993.0</ele><time>2026-04-04T17:26:09.636Z</time></trkpt><trkpt lat="44.4759759" lon="9.9467376"><ele>993.0</ele><time>2026-04-04T17:26:10.63Z</time></trkpt><trkpt lat="44.4761678" lon="9.9468516"><ele>993.0</ele><time>2026-04-04T17:26:11.622Z</time></trkpt><trkpt lat="44.4763407" lon="9.9469567"><ele>993.0</ele><time>2026-04-04T17:26:12.626Z</time></trkpt><trkpt lat="44.4764919" lon="9.9470721"><ele>993.0</ele><time>2026-04-04T17:26:13.628Z</time></trkpt><trkpt lat="44.4765971" lon="9.9472256"><ele>993.0</ele><time>2026-04-04T17:26:14.628Z</time></trkpt><trkpt lat="44.4766893" lon="9.9474327"><ele>997.3333333333333</ele><time>2026-04-04T17:26:15.638Z</time></trkpt><trkpt lat="44.476778" lon="9.947686"><ele>1001.6666666666666</ele><time>2026-04-04T17:26:16.635Z</time></trkpt><trkpt lat="44.4768881" lon="9.9479062"><ele>1006.0</ele><time>2026-04-04T17:26:17.641Z</time></trkpt><trkpt lat="44.4770417" lon="9.9480591"><ele>999.6666666666666</ele><time>2026-04-04T17:26:18.638Z</time></trkpt><trkpt lat="44.4772246" lon="9.9481559"><ele>993.3333333333333</ele><time>2026-04-04T17:26:19.629Z</time></trkpt><trkpt lat="44.4773986" lon="9.9482304"><ele>987.0</ele><time>2026-04-04T17:26:20.626Z</time></trkpt><trkpt lat="44.4775495" lon="9.9483265"><ele>989.6666666666667</ele><time>2026-04-04T17:26:21.631Z</time></trkpt><trkpt lat="44.4776688" lon="9.9484825"><ele>992.3333333333334</ele><time>2026-04-04T17:26:22.646Z</time></trkpt><trkpt lat="44.4777574" lon="9.9486939"><ele>995.0</ele><time>2026-04-04T17:26:23.636Z</time></trkpt><trkpt lat="44.4777735" lon="9.9489812"><ele>996.6666666666667</ele><time>2026-04-04T17:26:24.631Z</time></trkpt><trkpt lat="44.4777341" lon="9.9492989"><ele>998.3333333333333</ele><time>2026-04-04T17:26:25.635Z</time></trkpt><trkpt lat="44.4777124" lon="9.9495421"><ele>1000.0</ele><time>2026-04-04T17:26:26.645Z</time></trkpt><trkpt lat="44.4777392" lon="9.9497513"><ele>1000.0</ele><time>2026-04-04T17:26:27.614Z</time></trkpt><trkpt lat="44.477828" lon="9.9499164"><ele>1000.0</ele><time>2026-04-04T17:26:28.629Z</time></trkpt><trkpt lat="44.4779771" lon="9.9500173"><ele>1000.0</ele><time>2026-04-04T17:26:29.619Z</time></trkpt><trkpt lat="44.4781589" lon="9.950081"><ele>1001.5</ele><time>2026-04-04T17:26:30.631Z</time></trkpt><trkpt lat="44.4783753" lon="9.9501006"><ele>1003.0</ele><time>2026-04-04T17:26:31.619Z</time></trkpt><trkpt lat="44.4786304" lon="9.9500555"><ele>993.5</ele><time>2026-04-04T17:26:32.638Z</time></trkpt><trkpt lat="44.4789112" lon="9.9499819"><ele>984.0</ele><time>2026-04-04T17:26:33.627Z</time></trkpt><trkpt lat="44.4791864" lon="9.9499167"><ele>984.0</ele><time>2026-04-04T17:26:34.624Z</time></trkpt><trkpt lat="44.4794625" lon="9.9498745"><ele>984.0</ele><time>2026-04-04T17:26:35.619Z</time></trkpt><trkpt lat="44.4797435" lon="9.9498196"><ele>984.0</ele><time>2026-04-04T17:26:36.626Z</time></trkpt><trkpt lat="44.480013" lon="9.949777"><ele>984.0</ele><time>2026-04-04T17:26:37.621Z</time></trkpt><trkpt lat="44.4802667" lon="9.9497366"><ele>984.3333333333333</ele><time>2026-04-04T17:26:38.63Z</time></trkpt><trkpt lat="44.4804685" lon="9.949721"><ele>984.6666666666666</ele><time>2026-04-04T17:26:39.63Z</time></trkpt><trkpt lat="44.4806293" lon="9.9496793"><ele>985.0</ele><time>2026-04-04T17:26:40.631Z</time></trkpt><trkpt lat="44.4807401" lon="9.9495548"><ele>985.0</ele><time>2026-04-04T17:26:41.625Z</time></trkpt><trkpt lat="44.4808654" lon="9.9493773"><ele>985.0</ele><time>2026-04-04T17:26:42.631Z</time></trkpt><trkpt lat="44.4810214" lon="9.9491494"><ele>985.0</ele><time>2026-04-04T17:26:43.631Z</time></trkpt><trkpt lat="44.4811906" lon="9.9489407"><ele>981.3333333333333</ele><time>2026-04-04T17:26:44.628Z</time></trkpt><trkpt lat="44.4813359" lon="9.9487407"><ele>977.6666666666667</ele><time>2026-04-04T17:26:45.632Z</time></trkpt><trkpt lat="44.4814498" lon="9.9485736"><ele>974.0</ele><time>2026-04-04T17:26:46.636Z</time></trkpt><trkpt lat="44.4815447" lon="9.948467"><ele>974.0</ele><time>2026-04-04T17:26:47.634Z</time></trkpt><trkpt lat="44.4816396" lon="9.9484352"><ele>974.0000000000001</ele><time>2026-04-04T17:26:48.63Z</time></trkpt><trkpt lat="44.4817346" lon="9.9484962"><ele>974.0000000000001</ele><time>2026-04-04T17:26:49.632Z</time></trkpt><trkpt lat="44.4818086" lon="9.9486153"><ele>974.0</ele><time>2026-04-04T17:26:50.642Z</time></trkpt><trkpt lat="44.4818386" lon="9.9487972"><ele>974.0</ele><time>2026-04-04T17:26:51.647Z</time></trkpt><trkpt lat="44.4818789" lon="9.9490357"><ele>973.3333333333334</ele><time>2026-04-04T17:26:52.642Z</time></trkpt><trkpt lat="44.4819849" lon="9.9492474"><ele>972.6666666666667</ele><time>2026-04-04T17:26:53.642Z</time></trkpt><trkpt lat="44.4821586" lon="9.9494395"><ele>972.0</ele><time>2026-04-04T17:26:54.641Z</time></trkpt><trkpt lat="44.4823747" lon="9.9496216"><ele>972.0</ele><time>2026-04-04T17:26:55.63Z</time></trkpt><trkpt lat="44.4825822" lon="9.9497949"><ele>972.0</ele><time>2026-04-04T17:26:56.634Z</time></trkpt><trkpt lat="44.4827457" lon="9.949944"><ele>972.0</ele><time>2026-04-04T17:26:57.633Z</time></trkpt><trkpt lat="44.4829072" lon="9.9500513"><ele>973.6666666666667</ele><time>2026-04-04T17:26:58.627Z</time></trkpt><trkpt lat="44.4830837" lon="9.9500586"><ele>975.3333333333334</ele><time>2026-04-04T17:26:59.631Z</time></trkpt><trkpt lat="44.4832622" lon="9.9500145"><ele>977.0</ele><time>2026-04-04T17:27:00.633Z</time></trkpt><trkpt lat="44.4834459" lon="9.9500203"><ele>977.0</ele><time>2026-04-04T17:27:01.623Z</time></trkpt><trkpt lat="44.4836315" lon="9.9500673"><ele>977.0</ele><time>2026-04-04T17:27:02.628Z</time></trkpt><trkpt lat="44.4837876" lon="9.950173"><ele>977.0</ele><time>2026-04-04T17:27:03.623Z</time></trkpt><trkpt lat="44.4839318" lon="9.9503398"><ele>970.3333333333334</ele><time>2026-04-04T17:27:04.628Z</time></trkpt><trkpt lat="44.4840446" lon="9.9505723"><ele>963.6666666666667</ele><time>2026-04-04T17:27:05.638Z</time></trkpt><trkpt lat="44.4841462" lon="9.9508673"><ele>957.0</ele><time>2026-04-04T17:27:06.639Z</time></trkpt><trkpt lat="44.4842022" lon="9.9512151"><ele>957.0</ele><time>2026-04-04T17:27:07.635Z</time></trkpt><trkpt lat="44.4842637" lon="9.9515623"><ele>957.0</ele><time>2026-04-04T17:27:08.63Z</time></trkpt><trkpt lat="44.484345" lon="9.9518775"><ele>960.5</ele><time>2026-04-04T17:27:09.634Z</time></trkpt><trkpt lat="44.4844682" lon="9.952165"><ele>964.0</ele><time>2026-04-04T17:27:10.63Z</time></trkpt><trkpt lat="44.4846015" lon="9.952423"><ele>950.0</ele><time>2026-04-04T17:27:11.637Z</time></trkpt><trkpt lat="44.4847274" lon="9.9526884"><ele>936.0</ele><time>2026-04-04T17:27:12.632Z</time></trkpt><trkpt lat="44.4848456" lon="9.952953"><ele>936.0</ele><time>2026-04-04T17:27:13.628Z</time></trkpt><trkpt lat="44.4849426" lon="9.9532073"><ele>936.0</ele><time>2026-04-04T17:27:14.624Z</time></trkpt><trkpt lat="44.4850125" lon="9.9534631"><ele>936.0</ele><time>2026-04-04T17:27:15.646Z</time></trkpt><trkpt lat="44.4850324" lon="9.9537594"><ele>935.6666666666667</ele><time>2026-04-04T17:27:16.638Z</time></trkpt><trkpt lat="44.4850408" lon="9.9540616"><ele>935.3333333333334</ele><time>2026-04-04T17:27:17.634Z</time></trkpt><trkpt lat="44.4850274" lon="9.9543699"><ele>935.0</ele><time>2026-04-04T17:27:18.648Z</time></trkpt><trkpt lat="44.4849716" lon="9.9546871"><ele>931.5</ele><time>2026-04-04T17:27:19.632Z</time></trkpt><trkpt lat="44.4848982" lon="9.9550103"><ele>928.0</ele><time>2026-04-04T17:27:20.637Z</time></trkpt><trkpt lat="44.484827" lon="9.9553467"><ele>921.0</ele><time>2026-04-04T17:27:21.634Z</time></trkpt><trkpt lat="44.4847388" lon="9.9556669"><ele>914.0</ele><time>2026-04-04T17:27:22.645Z</time></trkpt><trkpt lat="44.4846533" lon="9.9559832"><ele>920.5</ele><time>2026-04-04T17:27:23.64Z</time></trkpt><trkpt lat="44.4845753" lon="9.9563224"><ele>927.0</ele><time>2026-04-04T17:27:24.641Z</time></trkpt><trkpt lat="44.4845267" lon="9.9566901"><ele>925.5</ele><time>2026-04-04T17:27:25.64Z</time></trkpt><trkpt lat="44.4844926" lon="9.9570653"><ele>924.0</ele><time>2026-04-04T17:27:26.653Z</time></trkpt><trkpt lat="44.4844605" lon="9.9574305"><ele>924.3333333333333</ele><time>2026-04-04T17:27:27.639Z</time></trkpt><trkpt lat="44.4844286" lon="9.9577611"><ele>924.6666666666666</ele><time>2026-04-04T17:27:28.649Z</time></trkpt><trkpt lat="44.4844027" lon="9.9580465"><ele>925.0</ele><time>2026-04-04T17:27:29.651Z</time></trkpt><trkpt lat="44.484392" lon="9.9582754"><ele>927.5</ele><time>2026-04-04T17:27:30.649Z</time></trkpt><trkpt lat="44.4843881" lon="9.9584631"><ele>930.0</ele><time>2026-04-04T17:27:31.653Z</time></trkpt><trkpt lat="44.4844245" lon="9.9585812"><ele>932.5</ele><time>2026-04-04T17:27:32.641Z</time></trkpt><trkpt lat="44.4845068" lon="9.9586467"><ele>935.0</ele><time>2026-04-04T17:27:33.651Z</time></trkpt><trkpt lat="44.4846567" lon="9.9586883"><ele>927.3333333333334</ele><time>2026-04-04T17:27:34.639Z</time></trkpt><trkpt lat="44.4848461" lon="9.9587133"><ele>919.6666666666667</ele><time>2026-04-04T17:27:35.641Z</time></trkpt><trkpt lat="44.4850774" lon="9.9587448"><ele>912.0</ele><time>2026-04-04T17:27:36.636Z</time></trkpt><trkpt lat="44.4852738" lon="9.9587869"><ele>912.0</ele><time>2026-04-04T17:27:37.636Z</time></trkpt><trkpt lat="44.4854218" lon="9.9588631"><ele>912.0</ele><time>2026-04-04T17:27:38.641Z</time></trkpt><trkpt lat="44.4855523" lon="9.9589767"><ele>912.0</ele><time>2026-04-04T17:27:39.642Z</time></trkpt><trkpt lat="44.4856321" lon="9.9591236"><ele>912.0</ele><time>2026-04-04T17:27:40.646Z</time></trkpt><trkpt lat="44.4856644" lon="9.959314"><ele>901.5</ele><time>2026-04-04T17:27:41.637Z</time></trkpt><trkpt lat="44.4856598" lon="9.9595979"><ele>891.0</ele><time>2026-04-04T17:27:42.646Z</time></trkpt><trkpt lat="44.4856544" lon="9.9599452"><ele>892.0</ele><time>2026-04-04T17:27:43.65Z</time></trkpt><trkpt lat="44.4856839" lon="9.9603537"><ele>893.0</ele><time>2026-04-04T17:27:44.639Z</time></trkpt><trkpt lat="44.485726" lon="9.9607279"><ele>892.5</ele><time>2026-04-04T17:27:45.651Z</time></trkpt><trkpt lat="44.4858044" lon="9.9611418"><ele>892.0</ele><time>2026-04-04T17:27:46.648Z</time></trkpt><trkpt lat="44.4858621" lon="9.9615434"><ele>892.5</ele><time>2026-04-04T17:27:47.643Z</time></trkpt><trkpt lat="44.4859205" lon="9.9619236"><ele>893.0</ele><time>2026-04-04T17:27:48.645Z</time></trkpt><trkpt lat="44.4859707" lon="9.9622471"><ele>893.0</ele><time>2026-04-04T17:27:49.647Z</time></trkpt><trkpt lat="44.4860148" lon="9.9625216"><ele>893.0</ele><time>2026-04-04T17:27:50.65Z</time></trkpt><trkpt lat="44.4860407" lon="9.9627541"><ele>893.0</ele><time>2026-04-04T17:27:51.644Z</time></trkpt><trkpt lat="44.4860546" lon="9.9629859"><ele>892.3333333333334</ele><time>2026-04-04T17:27:52.657Z</time></trkpt><trkpt lat="44.4860007" lon="9.9632328"><ele>891.6666666666667</ele><time>2026-04-04T17:27:53.648Z</time></trkpt><trkpt lat="44.4858885" lon="9.9634834"><ele>891.0</ele><time>2026-04-04T17:27:54.637Z</time></trkpt><trkpt lat="44.4857587" lon="9.9636906"><ele>891.0</ele><time>2026-04-04T17:27:55.653Z</time></trkpt><trkpt lat="44.4856464" lon="9.9638945"><ele>891.0</ele><time>2026-04-04T17:27:56.649Z</time></trkpt><trkpt lat="44.4855606" lon="9.9641051"><ele>891.0</ele><time>2026-04-04T17:27:57.641Z</time></trkpt><trkpt lat="44.4855166" lon="9.9643427"><ele>891.0</ele><time>2026-04-04T17:27:58.652Z</time></trkpt><trkpt lat="44.4855405" lon="9.9645801"><ele>891.0</ele><time>2026-04-04T17:27:59.644Z</time></trkpt><trkpt lat="44.485609" lon="9.9647777"><ele>891.0</ele><time>2026-04-04T17:28:00.641Z</time></trkpt><trkpt lat="44.4857275" lon="9.9649144"><ele>891.0</ele><time>2026-04-04T17:28:01.653Z</time></trkpt><trkpt lat="44.4858634" lon="9.9649811"><ele>891.0</ele><time>2026-04-04T17:28:02.646Z</time></trkpt><trkpt lat="44.4860259" lon="9.9649614"><ele>891.0</ele><time>2026-04-04T17:28:03.648Z</time></trkpt><trkpt lat="44.4862099" lon="9.9648642"><ele>886.6666666666667</ele><time>2026-04-04T17:28:04.648Z</time></trkpt><trkpt lat="44.4864155" lon="9.9647769"><ele>882.3333333333334</ele><time>2026-04-04T17:28:05.641Z</time></trkpt><trkpt lat="44.4866057" lon="9.9646873"><ele>878.0</ele><time>2026-04-04T17:28:06.641Z</time></trkpt><trkpt lat="44.4867639" lon="9.96463"><ele>878.0</ele><time>2026-04-04T17:28:07.644Z</time></trkpt><trkpt lat="44.4869131" lon="9.9646454"><ele>878.0</ele><time>2026-04-04T17:28:08.645Z</time></trkpt><trkpt lat="44.4870744" lon="9.9647377"><ele>878.0</ele><time>2026-04-04T17:28:09.648Z</time></trkpt><trkpt lat="44.4872431" lon="9.9649097"><ele>874.0</ele><time>2026-04-04T17:28:10.653Z</time></trkpt><trkpt lat="44.4873898" lon="9.9651734"><ele>870.0</ele><time>2026-04-04T17:28:11.652Z</time></trkpt><trkpt lat="44.4875066" lon="9.9654375"><ele>870.0</ele><time>2026-04-04T17:28:12.646Z</time></trkpt><trkpt lat="44.4876288" lon="9.9656897"><ele>870.0</ele><time>2026-04-04T17:28:13.65Z</time></trkpt><trkpt lat="44.4877372" lon="9.9659203"><ele>870.0</ele><time>2026-04-04T17:28:14.639Z</time></trkpt><trkpt lat="44.4878367" lon="9.9661124"><ele>871.75</ele><time>2026-04-04T17:28:15.648Z</time></trkpt><trkpt lat="44.4879285" lon="9.966224"><ele>873.5</ele><time>2026-04-04T17:28:16.652Z</time></trkpt><trkpt lat="44.4880471" lon="9.9662801"><ele>875.25</ele><time>2026-04-04T17:28:17.657Z</time></trkpt><trkpt lat="44.4881867" lon="9.966264"><ele>877.0</ele><time>2026-04-04T17:28:18.647Z</time></trkpt><trkpt lat="44.488339" lon="9.9661534"><ele>877.0</ele><time>2026-04-04T17:28:19.644Z</time></trkpt><trkpt lat="44.4884866" lon="9.9660615"><ele>877.0</ele><time>2026-04-04T17:28:20.643Z</time></trkpt><trkpt lat="44.4886341" lon="9.9660084"><ele>877.0</ele><time>2026-04-04T17:28:21.636Z</time></trkpt><trkpt lat="44.4887736" lon="9.9660552"><ele>877.0</ele><time>2026-04-04T17:28:22.643Z</time></trkpt><trkpt lat="44.488904" lon="9.9661899"><ele>877.0</ele><time>2026-04-04T17:28:23.638Z</time></trkpt><trkpt lat="44.4890122" lon="9.9664019"><ele>877.0</ele><time>2026-04-04T17:28:24.639Z</time></trkpt><trkpt lat="44.4891042" lon="9.9665871"><ele>877.0</ele><time>2026-04-04T17:28:25.623Z</time></trkpt><trkpt lat="44.489223" lon="9.9667257"><ele>877.0</ele><time>2026-04-04T17:28:26.641Z</time></trkpt><trkpt lat="44.4893583" lon="9.9667825"><ele>877.0</ele><time>2026-04-04T17:28:27.626Z</time></trkpt><trkpt lat="44.4894894" lon="9.9667453"><ele>877.0</ele><time>2026-04-04T17:28:28.636Z</time></trkpt><trkpt lat="44.4896121" lon="9.9666426"><ele>877.0</ele><time>2026-04-04T17:28:29.628Z</time></trkpt><trkpt lat="44.4897426" lon="9.9664491"><ele>877.0</ele><time>2026-04-04T17:28:30.63Z</time></trkpt><trkpt lat="44.4898853" lon="9.9662315"><ele>877.0</ele><time>2026-04-04T17:28:31.625Z</time></trkpt><trkpt lat="44.4900387" lon="9.9660559"><ele>877.0</ele><time>2026-04-04T17:28:32.635Z</time></trkpt><trkpt lat="44.4901999" lon="9.9659349"><ele>877.0</ele><time>2026-04-04T17:28:33.647Z</time></trkpt><trkpt lat="44.4903943" lon="9.9658582"><ele>877.0</ele><time>2026-04-04T17:28:34.645Z</time></trkpt><trkpt lat="44.4906285" lon="9.9658353"><ele>878.5</ele><time>2026-04-04T17:28:35.653Z</time></trkpt><trkpt lat="44.4908755" lon="9.9658414"><ele>880.0</ele><time>2026-04-04T17:28:36.636Z</time></trkpt><trkpt lat="44.4911233" lon="9.9658959"><ele>876.0</ele><time>2026-04-04T17:28:37.643Z</time></trkpt><trkpt lat="44.4913936" lon="9.9660431"><ele>872.0</ele><time>2026-04-04T17:28:38.644Z</time></trkpt><trkpt lat="44.4916413" lon="9.9661947"><ele>872.0</ele><time>2026-04-04T17:28:39.641Z</time></trkpt><trkpt lat="44.4918764" lon="9.9663312"><ele>872.0</ele><time>2026-04-04T17:28:40.642Z</time></trkpt><trkpt lat="44.4921034" lon="9.9664486"><ele>870.6666666666667</ele><time>2026-04-04T17:28:41.641Z</time></trkpt><trkpt lat="44.4922997" lon="9.9665535"><ele>869.3333333333333</ele><time>2026-04-04T17:28:42.649Z</time></trkpt><trkpt lat="44.4924324" lon="9.9666498"><ele>868.0</ele><time>2026-04-04T17:28:43.65Z</time></trkpt><trkpt lat="44.4925548" lon="9.9667817"><ele>868.0</ele><time>2026-04-04T17:28:44.648Z</time></trkpt><trkpt lat="44.492618" lon="9.9669528"><ele>868.0</ele><time>2026-04-04T17:28:45.651Z</time></trkpt><trkpt lat="44.4926403" lon="9.9671892"><ele>868.0</ele><time>2026-04-04T17:28:46.648Z</time></trkpt><trkpt lat="44.4926376" lon="9.9674813"><ele>869.0</ele><time>2026-04-04T17:28:47.648Z</time></trkpt><trkpt lat="44.4926572" lon="9.9678291"><ele>870.0</ele><time>2026-04-04T17:28:48.659Z</time></trkpt><trkpt lat="44.4927383" lon="9.9682002"><ele>870.5</ele><time>2026-04-04T17:28:49.646Z</time></trkpt><trkpt lat="44.4928361" lon="9.9685722"><ele>871.0</ele><time>2026-04-04T17:28:50.644Z</time></trkpt><trkpt lat="44.4929377" lon="9.9689383"><ele>870.0</ele><time>2026-04-04T17:28:51.649Z</time></trkpt><trkpt lat="44.4930339" lon="9.9692843"><ele>869.0</ele><time>2026-04-04T17:28:52.644Z</time></trkpt><trkpt lat="44.4931224" lon="9.9695973"><ele>869.0</ele><time>2026-04-04T17:28:53.648Z</time></trkpt><trkpt lat="44.4932109" lon="9.9698953"><ele>869.0</ele><time>2026-04-04T17:28:54.645Z</time></trkpt><trkpt lat="44.4932903" lon="9.9701812"><ele>869.0</ele><time>2026-04-04T17:28:55.641Z</time></trkpt><trkpt lat="44.4933828" lon="9.9704305"><ele>870.3333333333334</ele><time>2026-04-04T17:28:56.652Z</time></trkpt><trkpt lat="44.4935037" lon="9.9706477"><ele>871.6666666666667</ele><time>2026-04-04T17:28:57.655Z</time></trkpt><trkpt lat="44.4936783" lon="9.9708012"><ele>873.0</ele><time>2026-04-04T17:28:58.638Z</time></trkpt><trkpt lat="44.4938646" lon="9.9709282"><ele>873.0</ele><time>2026-04-04T17:28:59.64Z</time></trkpt><trkpt lat="44.4940272" lon="9.9710599"><ele>873.0</ele><time>2026-04-04T17:29:00.653Z</time></trkpt><trkpt lat="44.4941387" lon="9.9711998"><ele>873.0</ele><time>2026-04-04T17:29:01.642Z</time></trkpt><trkpt lat="44.4941759" lon="9.9713479"><ele>873.0</ele><time>2026-04-04T17:29:02.65Z</time></trkpt><trkpt lat="44.4941595" lon="9.9715147"><ele>875.0</ele><time>2026-04-04T17:29:03.649Z</time></trkpt><trkpt lat="44.4940745" lon="9.971707"><ele>877.0</ele><time>2026-04-04T17:29:04.635Z</time></trkpt><trkpt lat="44.4940011" lon="9.9718669"><ele>879.0</ele><time>2026-04-04T17:29:05.646Z</time></trkpt><trkpt lat="44.4939532" lon="9.9720586"><ele>881.0</ele><time>2026-04-04T17:29:06.647Z</time></trkpt><trkpt lat="44.4939621" lon="9.9722905"><ele>881.0</ele><time>2026-04-04T17:29:07.638Z</time></trkpt><trkpt lat="44.4940246" lon="9.9724728"><ele>881.0</ele><time>2026-04-04T17:29:08.64Z</time></trkpt><trkpt lat="44.4941316" lon="9.9726413"><ele>881.0</ele><time>2026-04-04T17:29:09.621Z</time></trkpt><trkpt lat="44.4942678" lon="9.9727427"><ele>883.0</ele><time>2026-04-04T17:29:10.632Z</time></trkpt><trkpt lat="44.4944703" lon="9.972861"><ele>885.0</ele><time>2026-04-04T17:29:11.633Z</time></trkpt><trkpt lat="44.4947363" lon="9.9730053"><ele>885.0</ele><time>2026-04-04T17:29:12.625Z</time></trkpt><trkpt lat="44.4949716" lon="9.9731485"><ele>885.0</ele><time>2026-04-04T17:29:13.631Z</time></trkpt><trkpt lat="44.4951739" lon="9.9732816"><ele>890.0</ele><time>2026-04-04T17:29:14.62Z</time></trkpt><trkpt lat="44.495359" lon="9.9734006"><ele>895.0</ele><time>2026-04-04T17:29:15.623Z</time></trkpt><trkpt lat="44.4955547" lon="9.9735102"><ele>900.0</ele><time>2026-04-04T17:29:16.618Z</time></trkpt><trkpt lat="44.4957572" lon="9.9735861"><ele>900.0</ele><time>2026-04-04T17:29:17.631Z</time></trkpt><trkpt lat="44.4959605" lon="9.9736362"><ele>900.0</ele><time>2026-04-04T17:29:18.626Z</time></trkpt><trkpt lat="44.4961621" lon="9.9736974"><ele>900.0</ele><time>2026-04-04T17:29:19.636Z</time></trkpt><trkpt lat="44.4963572" lon="9.9737461"><ele>895.3333333333333</ele><time>2026-04-04T17:29:20.626Z</time></trkpt><trkpt lat="44.4965483" lon="9.9737984"><ele>890.6666666666666</ele><time>2026-04-04T17:29:21.631Z</time></trkpt><trkpt lat="44.4967256" lon="9.9738797"><ele>886.0</ele><time>2026-04-04T17:29:22.626Z</time></trkpt><trkpt lat="44.4969027" lon="9.9739894"><ele>886.0</ele><time>2026-04-04T17:29:23.628Z</time></trkpt><trkpt lat="44.4970788" lon="9.9740344"><ele>886.0</ele><time>2026-04-04T17:29:24.629Z</time></trkpt><trkpt lat="44.4972368" lon="9.9740418"><ele>886.0</ele><time>2026-04-04T17:29:25.624Z</time></trkpt><trkpt lat="44.4973716" lon="9.9740685"><ele>890.3333333333333</ele><time>2026-04-04T17:29:26.634Z</time></trkpt><trkpt lat="44.4975121" lon="9.9741979"><ele>894.6666666666667</ele><time>2026-04-04T17:29:27.637Z</time></trkpt><trkpt lat="44.4976441" lon="9.9744042"><ele>899.0</ele><time>2026-04-04T17:29:28.632Z</time></trkpt><trkpt lat="44.4977753" lon="9.9746217"><ele>902.3333333333334</ele><time>2026-04-04T17:29:29.63Z</time></trkpt><trkpt lat="44.4979275" lon="9.9748182"><ele>905.6666666666667</ele><time>2026-04-04T17:29:30.632Z</time></trkpt><trkpt lat="44.4981403" lon="9.9749725"><ele>909.0</ele><time>2026-04-04T17:29:31.631Z</time></trkpt><trkpt lat="44.4983658" lon="9.9750729"><ele>909.0</ele><time>2026-04-04T17:29:32.624Z</time></trkpt><trkpt lat="44.4985647" lon="9.9751704"><ele>909.0</ele><time>2026-04-04T17:29:33.625Z</time></trkpt><trkpt lat="44.498757" lon="9.9752556"><ele>909.0</ele><time>2026-04-04T17:29:34.63Z</time></trkpt><trkpt lat="44.498931" lon="9.9752996"><ele>902.25</ele><time>2026-04-04T17:29:35.628Z</time></trkpt><trkpt lat="44.4990899" lon="9.9753209"><ele>895.5</ele><time>2026-04-04T17:29:36.632Z</time></trkpt><trkpt lat="44.4992187" lon="9.9753356"><ele>888.75</ele><time>2026-04-04T17:29:37.637Z</time></trkpt><trkpt lat="44.4993098" lon="9.9754166"><ele>882.0</ele><time>2026-04-04T17:29:38.636Z</time></trkpt><trkpt lat="44.4993638" lon="9.9755548"><ele>882.0</ele><time>2026-04-04T17:29:39.639Z</time></trkpt><trkpt lat="44.4993779" lon="9.975755"><ele>882.0</ele><time>2026-04-04T17:29:40.636Z</time></trkpt><trkpt lat="44.499367" lon="9.9760015"><ele>882.0</ele><time>2026-04-04T17:29:41.63Z</time></trkpt><trkpt lat="44.4993893" lon="9.9762871"><ele>891.5</ele><time>2026-04-04T17:29:42.635Z</time></trkpt><trkpt lat="44.4994459" lon="9.9765697"><ele>901.0</ele><time>2026-04-04T17:29:43.63Z</time></trkpt><trkpt lat="44.4995458" lon="9.976883"><ele>888.3333333333333</ele><time>2026-04-04T17:29:44.64Z</time></trkpt><trkpt lat="44.4996555" lon="9.9771765"><ele>875.6666666666667</ele><time>2026-04-04T17:29:45.639Z</time></trkpt><trkpt lat="44.4997433" lon="9.9774467"><ele>863.0</ele><time>2026-04-04T17:29:46.638Z</time></trkpt><trkpt lat="44.4997954" lon="9.9777183"><ele>863.0</ele><time>2026-04-04T17:29:47.636Z</time></trkpt><trkpt lat="44.4998082" lon="9.9780111"><ele>863.0</ele><time>2026-04-04T17:29:48.649Z</time></trkpt><trkpt lat="44.4997748" lon="9.9782991"><ele>863.0</ele><time>2026-04-04T17:29:49.644Z</time></trkpt><trkpt lat="44.4997558" lon="9.9785487"><ele>863.3333333333334</ele><time>2026-04-04T17:29:50.645Z</time></trkpt><trkpt lat="44.4997782" lon="9.9788084"><ele>863.6666666666667</ele><time>2026-04-04T17:29:51.659Z</time></trkpt><trkpt lat="44.4998472" lon="9.9790827"><ele>864.0</ele><time>2026-04-04T17:29:52.655Z</time></trkpt><trkpt lat="44.499936" lon="9.9793462"><ele>865.0</ele><time>2026-04-04T17:29:53.648Z</time></trkpt><trkpt lat="44.5000208" lon="9.9795697"><ele>866.0</ele><time>2026-04-04T17:29:54.647Z</time></trkpt><trkpt lat="44.5000848" lon="9.9797781"><ele>867.0</ele><time>2026-04-04T17:29:55.646Z</time></trkpt><trkpt lat="44.5000881" lon="9.9800156"><ele>867.6666666666667</ele><time>2026-04-04T17:29:56.655Z</time></trkpt><trkpt lat="44.5000652" lon="9.9802933"><ele>868.3333333333334</ele><time>2026-04-04T17:29:57.655Z</time></trkpt><trkpt lat="44.5000412" lon="9.980576"><ele>869.0</ele><time>2026-04-04T17:29:58.642Z</time></trkpt><trkpt lat="44.5000571" lon="9.9808283"><ele>874.6666666666667</ele><time>2026-04-04T17:29:59.64Z</time></trkpt><trkpt lat="44.5001231" lon="9.9810559"><ele>880.3333333333333</ele><time>2026-04-04T17:30:00.655Z</time></trkpt><trkpt lat="44.5002436" lon="9.9812772"><ele>886.0</ele><time>2026-04-04T17:30:01.643Z</time></trkpt><trkpt lat="44.5003981" lon="9.9815019"><ele>881.0</ele><time>2026-04-04T17:30:02.642Z</time></trkpt><trkpt lat="44.5005644" lon="9.981723"><ele>876.0</ele><time>2026-04-04T17:30:03.649Z</time></trkpt><trkpt lat="44.5007495" lon="9.9819281"><ele>876.0</ele><time>2026-04-04T17:30:04.645Z</time></trkpt><trkpt lat="44.5009353" lon="9.9821123"><ele>876.0</ele><time>2026-04-04T17:30:05.65Z</time></trkpt><trkpt lat="44.5011293" lon="9.9822491"><ele>876.0</ele><time>2026-04-04T17:30:06.646Z</time></trkpt><trkpt lat="44.5013203" lon="9.9823553"><ele>872.3333333333333</ele><time>2026-04-04T17:30:07.648Z</time></trkpt><trkpt lat="44.5014834" lon="9.982435"><ele>868.6666666666666</ele><time>2026-04-04T17:30:08.682Z</time></trkpt><trkpt lat="44.501613" lon="9.982523"><ele>865.0</ele><time>2026-04-04T17:30:09.65Z</time></trkpt><trkpt lat="44.5017169" lon="9.9826598"><ele>865.0</ele><time>2026-04-04T17:30:10.651Z</time></trkpt><trkpt lat="44.501785" lon="9.9828557"><ele>865.0</ele><time>2026-04-04T17:30:11.65Z</time></trkpt><trkpt lat="44.5018283" lon="9.9831022"><ele>865.0</ele><time>2026-04-04T17:30:12.645Z</time></trkpt><trkpt lat="44.5018639" lon="9.9833576"><ele>865.0</ele><time>2026-04-04T17:30:13.653Z</time></trkpt><trkpt lat="44.5018855" lon="9.9836017"><ele>865.0</ele><time>2026-04-04T17:30:14.651Z</time></trkpt><trkpt lat="44.501854" lon="9.9838621"><ele>865.0</ele><time>2026-04-04T17:30:15.662Z</time></trkpt><trkpt lat="44.5017693" lon="9.9841204"><ele>862.6666666666666</ele><time>2026-04-04T17:30:16.649Z</time></trkpt><trkpt lat="44.5016826" lon="9.9843791"><ele>860.3333333333333</ele><time>2026-04-04T17:30:17.643Z</time></trkpt><trkpt lat="44.50157" lon="9.9846094"><ele>858.0</ele><time>2026-04-04T17:30:18.656Z</time></trkpt><trkpt lat="44.5014626" lon="9.9847795"><ele>858.0</ele><time>2026-04-04T17:30:19.656Z</time></trkpt><trkpt lat="44.5013985" lon="9.9849486"><ele>858.0</ele><time>2026-04-04T17:30:20.646Z</time></trkpt><trkpt lat="44.5013825" lon="9.9851311"><ele>858.0</ele><time>2026-04-04T17:30:21.664Z</time></trkpt><trkpt lat="44.5014496" lon="9.9853176"><ele>858.0</ele><time>2026-04-04T17:30:22.654Z</time></trkpt><trkpt lat="44.5015952" lon="9.9854712"><ele>858.6666666666667</ele><time>2026-04-04T17:30:23.657Z</time></trkpt><trkpt lat="44.5017758" lon="9.9856144"><ele>859.3333333333334</ele><time>2026-04-04T17:30:24.645Z</time></trkpt><trkpt lat="44.5019372" lon="9.9857665"><ele>860.0</ele><time>2026-04-04T17:30:25.656Z</time></trkpt><trkpt lat="44.5020637" lon="9.9859782"><ele>855.6666666666667</ele><time>2026-04-04T17:30:26.663Z</time></trkpt><trkpt lat="44.5021622" lon="9.986214"><ele>851.3333333333333</ele><time>2026-04-04T17:30:27.654Z</time></trkpt><trkpt lat="44.5022325" lon="9.986425"><ele>847.0</ele><time>2026-04-04T17:30:28.659Z</time></trkpt><trkpt lat="44.5022364" lon="9.9866167"><ele>849.0</ele><time>2026-04-04T17:30:29.663Z</time></trkpt><trkpt lat="44.5021838" lon="9.9868102"><ele>851.0</ele><time>2026-04-04T17:30:30.662Z</time></trkpt><trkpt lat="44.5020898" lon="9.9869963"><ele>853.0</ele><time>2026-04-04T17:30:31.658Z</time></trkpt><trkpt lat="44.5020465" lon="9.9871886"><ele>853.0</ele><time>2026-04-04T17:30:32.662Z</time></trkpt><trkpt lat="44.502063" lon="9.9873697"><ele>853.0</ele><time>2026-04-04T17:30:33.672Z</time></trkpt><trkpt lat="44.5021559" lon="9.987499"><ele>853.0</ele><time>2026-04-04T17:30:34.665Z</time></trkpt><trkpt lat="44.5022972" lon="9.9875661"><ele>853.0</ele><time>2026-04-04T17:30:35.67Z</time></trkpt><trkpt lat="44.5024725" lon="9.9875636"><ele>853.0</ele><time>2026-04-04T17:30:36.669Z</time></trkpt><trkpt lat="44.5026692" lon="9.987503"><ele>853.0</ele><time>2026-04-04T17:30:37.662Z</time></trkpt><trkpt lat="44.5028609" lon="9.9874399"><ele>853.0</ele><time>2026-04-04T17:30:38.663Z</time></trkpt><trkpt lat="44.5030178" lon="9.987419"><ele>853.25</ele><time>2026-04-04T17:30:39.675Z</time></trkpt><trkpt lat="44.5031187" lon="9.9874595"><ele>853.5</ele><time>2026-04-04T17:30:40.668Z</time></trkpt><trkpt lat="44.503223" lon="9.987593"><ele>853.75</ele><time>2026-04-04T17:30:41.668Z</time></trkpt><trkpt lat="44.5032955" lon="9.9877957"><ele>854.0</ele><time>2026-04-04T17:30:42.669Z</time></trkpt><trkpt lat="44.5033774" lon="9.9880238"><ele>854.0</ele><time>2026-04-04T17:30:43.666Z</time></trkpt><trkpt lat="44.5034922" lon="9.9882535"><ele>854.0</ele><time>2026-04-04T17:30:44.666Z</time></trkpt><trkpt lat="44.5036274" lon="9.9884629"><ele>854.0</ele><time>2026-04-04T17:30:45.665Z</time></trkpt><trkpt lat="44.503799" lon="9.9886655"><ele>853.6666666666667</ele><time>2026-04-04T17:30:46.669Z</time></trkpt><trkpt lat="44.5039866" lon="9.9888266"><ele>853.3333333333333</ele><time>2026-04-04T17:30:47.661Z</time></trkpt><trkpt lat="44.5041947" lon="9.988943"><ele>853.0</ele><time>2026-04-04T17:30:48.674Z</time></trkpt><trkpt lat="44.5044272" lon="9.9889908"><ele>851.6666666666666</ele><time>2026-04-04T17:30:49.661Z</time></trkpt><trkpt lat="44.5046646" lon="9.9889971"><ele>850.3333333333333</ele><time>2026-04-04T17:30:50.666Z</time></trkpt><trkpt lat="44.5048719" lon="9.9889985"><ele>849.0</ele><time>2026-04-04T17:30:51.663Z</time></trkpt><trkpt lat="44.5050621" lon="9.9890103"><ele>849.0</ele><time>2026-04-04T17:30:52.67Z</time></trkpt><trkpt lat="44.505226" lon="9.9890589"><ele>849.0</ele><time>2026-04-04T17:30:53.659Z</time></trkpt><trkpt lat="44.5053774" lon="9.9891715"><ele>849.0</ele><time>2026-04-04T17:30:54.663Z</time></trkpt><trkpt lat="44.5055266" lon="9.9893359"><ele>848.0</ele><time>2026-04-04T17:30:55.661Z</time></trkpt><trkpt lat="44.5056667" lon="9.9895143"><ele>847.0</ele><time>2026-04-04T17:30:56.668Z</time></trkpt><trkpt lat="44.505796" lon="9.9896789"><ele>846.0</ele><time>2026-04-04T17:30:57.665Z</time></trkpt><trkpt lat="44.5059276" lon="9.9898378"><ele>846.0</ele><time>2026-04-04T17:30:58.664Z</time></trkpt><trkpt lat="44.5060379" lon="9.9899845"><ele>846.0</ele><time>2026-04-04T17:30:59.666Z</time></trkpt><trkpt lat="44.5061352" lon="9.9901357"><ele>846.0</ele><time>2026-04-04T17:31:00.665Z</time></trkpt><trkpt lat="44.5062142" lon="9.9902724"><ele>846.0</ele><time>2026-04-04T17:31:01.666Z</time></trkpt><trkpt lat="44.5062651" lon="9.9904213"><ele>845.4</ele><time>2026-04-04T17:31:02.662Z</time></trkpt><trkpt lat="44.5062905" lon="9.9905816"><ele>844.8</ele><time>2026-04-04T17:31:03.665Z</time></trkpt><trkpt lat="44.5063242" lon="9.9907293"><ele>844.1999999999999</ele><time>2026-04-04T17:31:04.646Z</time></trkpt><trkpt lat="44.5063713" lon="9.9908598"><ele>843.5999999999999</ele><time>2026-04-04T17:31:05.656Z</time></trkpt><trkpt lat="44.5064205" lon="9.9909657"><ele>843.0</ele><time>2026-04-04T17:31:06.662Z</time></trkpt><trkpt lat="44.5064746" lon="9.9910525"><ele>843.0</ele><time>2026-04-04T17:31:07.661Z</time></trkpt><trkpt lat="44.5065392" lon="9.9911265"><ele>843.0</ele><time>2026-04-04T17:31:08.67Z</time></trkpt><trkpt lat="44.506602" lon="9.9911966"><ele>843.0</ele><time>2026-04-04T17:31:09.66Z</time></trkpt><trkpt lat="44.5066618" lon="9.9912576"><ele>843.0</ele><time>2026-04-04T17:31:10.669Z</time></trkpt><trkpt lat="44.5067218" lon="9.9913216"><ele>843.0</ele><time>2026-04-04T17:31:11.666Z</time></trkpt><trkpt lat="44.5067757" lon="9.9913918"><ele>843.0</ele><time>2026-04-04T17:31:12.666Z</time></trkpt><trkpt lat="44.5068245" lon="9.9914531"><ele>843.0</ele><time>2026-04-04T17:31:13.666Z</time></trkpt><trkpt lat="44.5069053" lon="9.9915554"><ele>843.0</ele><time>2026-04-04T17:31:15.664Z</time></trkpt><trkpt lat="44.5069781" lon="9.9916392"><ele>843.0</ele><time>2026-04-04T17:31:17.663Z</time></trkpt><trkpt lat="44.5070426" lon="9.9917112"><ele>843.0</ele><time>2026-04-04T17:31:19.666Z</time></trkpt><trkpt lat="44.507104" lon="9.9917786"><ele>843.0</ele><time>2026-04-04T17:31:21.665Z</time></trkpt><trkpt lat="44.5071711" lon="9.9918439"><ele>843.0</ele><time>2026-04-04T17:31:23.674Z</time></trkpt><trkpt lat="44.5072314" lon="9.9919148"><ele>843.0</ele><time>2026-04-04T17:31:25.668Z</time></trkpt><trkpt lat="44.5072858" lon="9.9919798"><ele>843.0</ele><time>2026-04-04T17:31:27.677Z</time></trkpt><trkpt lat="44.5073416" lon="9.9920408"><ele>843.0</ele><time>2026-04-04T17:31:29.674Z</time></trkpt><trkpt lat="44.5073922" lon="9.992099"><ele>843.0</ele><time>2026-04-04T17:31:31.669Z</time></trkpt><trkpt lat="44.5074584" lon="9.9921638"><ele>843.0</ele><time>2026-04-04T17:31:34.669Z</time></trkpt><trkpt lat="44.507515" lon="9.9922185"><ele>843.0</ele><time>2026-04-04T17:31:37.669Z</time></trkpt><trkpt lat="44.5075797" lon="9.9922679"><ele>843.0</ele><time>2026-04-04T17:31:41.67Z</time></trkpt><trkpt lat="44.5076422" lon="9.9923147"><ele>843.0</ele><time>2026-04-04T17:31:46.667Z</time></trkpt><trkpt lat="44.5077039" lon="9.9923651"><ele>843.0</ele><time>2026-04-04T17:31:52.669Z</time></trkpt><trkpt lat="44.5077632" lon="9.9924221"><ele>843.0</ele><time>2026-04-04T17:32:37.668Z</time></trkpt><trkpt lat="44.5078595" lon="9.992523"><ele>843.0</ele><time>2026-04-04T17:32:39.665Z</time></trkpt><trkpt lat="44.5079284" lon="9.9925976"><ele>843.0</ele><time>2026-04-04T17:32:40.652Z</time></trkpt><trkpt lat="44.5080062" lon="9.9927022"><ele>843.4</ele><time>2026-04-04T17:32:41.646Z</time></trkpt><trkpt lat="44.5080766" lon="9.9928282"><ele>843.8</ele><time>2026-04-04T17:32:42.655Z</time></trkpt><trkpt lat="44.5081282" lon="9.9929499"><ele>844.2</ele><time>2026-04-04T17:32:43.66Z</time></trkpt><trkpt lat="44.508171" lon="9.9930859"><ele>844.6</ele><time>2026-04-04T17:32:44.655Z</time></trkpt><trkpt lat="44.5082138" lon="9.993225"><ele>845.0</ele><time>2026-04-04T17:32:45.669Z</time></trkpt><trkpt lat="44.5082524" lon="9.9933628"><ele>842.8</ele><time>2026-04-04T17:32:46.667Z</time></trkpt><trkpt lat="44.5082936" lon="9.9934986"><ele>840.6</ele><time>2026-04-04T17:32:47.663Z</time></trkpt><trkpt lat="44.5083325" lon="9.9936372"><ele>838.4000000000001</ele><time>2026-04-04T17:32:48.673Z</time></trkpt><trkpt lat="44.5083704" lon="9.9937809"><ele>836.2</ele><time>2026-04-04T17:32:49.671Z</time></trkpt><trkpt lat="44.5084126" lon="9.9939188"><ele>834.0</ele><time>2026-04-04T17:32:50.667Z</time></trkpt><trkpt lat="44.508456" lon="9.9940594"><ele>830.25</ele><time>2026-04-04T17:32:51.666Z</time></trkpt><trkpt lat="44.5085099" lon="9.9941945"><ele>826.5</ele><time>2026-04-04T17:32:52.669Z</time></trkpt><trkpt lat="44.5085763" lon="9.9943303"><ele>822.75</ele><time>2026-04-04T17:32:53.667Z</time></trkpt><trkpt lat="44.5086505" lon="9.9944568"><ele>819.0</ele><time>2026-04-04T17:32:54.667Z</time></trkpt><trkpt lat="44.5087328" lon="9.9945732"><ele>824.0</ele><time>2026-04-04T17:32:55.665Z</time></trkpt><trkpt lat="44.5088266" lon="9.9946688"><ele>829.0</ele><time>2026-04-04T17:32:56.673Z</time></trkpt><trkpt lat="44.5089378" lon="9.9947344"><ele>834.0</ele><time>2026-04-04T17:32:57.665Z</time></trkpt><trkpt lat="44.5090687" lon="9.9947736"><ele>839.0</ele><time>2026-04-04T17:32:58.663Z</time></trkpt><trkpt lat="44.5092179" lon="9.9947849"><ele>839.0</ele><time>2026-04-04T17:32:59.668Z</time></trkpt><trkpt lat="44.5093714" lon="9.9947887"><ele>839.0</ele><time>2026-04-04T17:33:00.665Z</time></trkpt><trkpt lat="44.5095224" lon="9.9948187"><ele>839.0</ele><time>2026-04-04T17:33:01.66Z</time></trkpt><trkpt lat="44.5096642" lon="9.9949108"><ele>842.0</ele><time>2026-04-04T17:33:02.664Z</time></trkpt><trkpt lat="44.5097558" lon="9.9950829"><ele>845.0</ele><time>2026-04-04T17:33:03.663Z</time></trkpt><trkpt lat="44.509795" lon="9.9952766"><ele>848.0</ele><time>2026-04-04T17:33:04.66Z</time></trkpt><trkpt lat="44.5098337" lon="9.995478"><ele>851.0</ele><time>2026-04-04T17:33:05.661Z</time></trkpt><trkpt lat="44.509888" lon="9.9956714"><ele>851.0</ele><time>2026-04-04T17:33:06.658Z</time></trkpt><trkpt lat="44.5099691" lon="9.9958259"><ele>851.0</ele><time>2026-04-04T17:33:07.661Z</time></trkpt><trkpt lat="44.5100954" lon="9.995934"><ele>851.0</ele><time>2026-04-04T17:33:08.664Z</time></trkpt><trkpt lat="44.5102494" lon="9.9960297"><ele>846.6666666666667</ele><time>2026-04-04T17:33:09.658Z</time></trkpt><trkpt lat="44.5103852" lon="9.9961685"><ele>842.3333333333333</ele><time>2026-04-04T17:33:10.659Z</time></trkpt><trkpt lat="44.5105036" lon="9.9963642"><ele>838.0</ele><time>2026-04-04T17:33:11.652Z</time></trkpt><trkpt lat="44.5106043" lon="9.996562"><ele>845.0</ele><time>2026-04-04T17:33:12.653Z</time></trkpt><trkpt lat="44.5107146" lon="9.9967706"><ele>852.0</ele><time>2026-04-04T17:33:13.653Z</time></trkpt><trkpt lat="44.5108099" lon="9.9969923"><ele>859.0</ele><time>2026-04-04T17:33:14.654Z</time></trkpt><trkpt lat="44.5108653" lon="9.9972288"><ele>859.0</ele><time>2026-04-04T17:33:15.653Z</time></trkpt><trkpt lat="44.5109092" lon="9.9974722"><ele>859.0</ele><time>2026-04-04T17:33:16.653Z</time></trkpt><trkpt lat="44.5109828" lon="9.9976975"><ele>859.0</ele><time>2026-04-04T17:33:17.654Z</time></trkpt><trkpt lat="44.5110982" lon="9.9978944"><ele>859.6666666666666</ele><time>2026-04-04T17:33:18.664Z</time></trkpt><trkpt lat="44.5112452" lon="9.9980352"><ele>860.3333333333333</ele><time>2026-04-04T17:33:19.66Z</time></trkpt><trkpt lat="44.5114078" lon="9.9981321"><ele>861.0</ele><time>2026-04-04T17:33:20.654Z</time></trkpt><trkpt lat="44.5115871" lon="9.9981743"><ele>861.0</ele><time>2026-04-04T17:33:21.661Z</time></trkpt><trkpt lat="44.5117722" lon="9.998155"><ele>861.0</ele><time>2026-04-04T17:33:22.658Z</time></trkpt><trkpt lat="44.51196" lon="9.9980679"><ele>861.0</ele><time>2026-04-04T17:33:23.667Z</time></trkpt><trkpt lat="44.5121385" lon="9.9979305"><ele>860.6666666666667</ele><time>2026-04-04T17:33:24.667Z</time></trkpt><trkpt lat="44.5123003" lon="9.9977732"><ele>860.3333333333334</ele><time>2026-04-04T17:33:25.656Z</time></trkpt><trkpt lat="44.5124266" lon="9.997599"><ele>860.0</ele><time>2026-04-04T17:33:26.669Z</time></trkpt><trkpt lat="44.5125104" lon="9.997343"><ele>864.0</ele><time>2026-04-04T17:33:27.667Z</time></trkpt><trkpt lat="44.512599" lon="9.9970695"><ele>868.0</ele><time>2026-04-04T17:33:28.656Z</time></trkpt><trkpt lat="44.5126918" lon="9.9968032"><ele>872.0</ele><time>2026-04-04T17:33:29.662Z</time></trkpt><trkpt lat="44.512784" lon="9.9965583"><ele>870.3333333333334</ele><time>2026-04-04T17:33:30.665Z</time></trkpt><trkpt lat="44.512894" lon="9.9963388"><ele>868.6666666666667</ele><time>2026-04-04T17:33:31.654Z</time></trkpt><trkpt lat="44.513049" lon="9.9961799"><ele>867.0</ele><time>2026-04-04T17:33:32.659Z</time></trkpt><trkpt lat="44.5132408" lon="9.9960919"><ele>867.0</ele><time>2026-04-04T17:33:33.65Z</time></trkpt><trkpt lat="44.513466" lon="9.9960465"><ele>867.0</ele><time>2026-04-04T17:33:34.664Z</time></trkpt><trkpt lat="44.5137021" lon="9.9959782"><ele>865.5</ele><time>2026-04-04T17:33:35.658Z</time></trkpt><trkpt lat="44.5139291" lon="9.9958885"><ele>864.0</ele><time>2026-04-04T17:33:36.656Z</time></trkpt><trkpt lat="44.5141607" lon="9.9958277"><ele>864.0</ele><time>2026-04-04T17:33:37.667Z</time></trkpt><trkpt lat="44.5144246" lon="9.9958481"><ele>864.0</ele><time>2026-04-04T17:33:38.665Z</time></trkpt><trkpt lat="44.5146797" lon="9.9959014"><ele>865.0</ele><time>2026-04-04T17:33:39.665Z</time></trkpt><trkpt lat="44.5149403" lon="9.995957"><ele>866.0</ele><time>2026-04-04T17:33:40.665Z</time></trkpt><trkpt lat="44.5152055" lon="9.995995"><ele>869.0</ele><time>2026-04-04T17:33:41.664Z</time></trkpt><trkpt lat="44.5154695" lon="9.9960227"><ele>872.0</ele><time>2026-04-04T17:33:42.666Z</time></trkpt><trkpt lat="44.5157341" lon="9.9960491"><ele>872.0</ele><time>2026-04-04T17:33:43.665Z</time></trkpt><trkpt lat="44.5159943" lon="9.9960773"><ele>872.0</ele><time>2026-04-04T17:33:44.664Z</time></trkpt><trkpt lat="44.5162466" lon="9.996099"><ele>874.0</ele><time>2026-04-04T17:33:45.667Z</time></trkpt><trkpt lat="44.5164922" lon="9.9961289"><ele>876.0</ele><time>2026-04-04T17:33:46.665Z</time></trkpt><trkpt lat="44.5167036" lon="9.9961467"><ele>876.0</ele><time>2026-04-04T17:33:47.663Z</time></trkpt><trkpt lat="44.5168729" lon="9.9961576"><ele>876.0</ele><time>2026-04-04T17:33:48.662Z</time></trkpt><trkpt lat="44.5169971" lon="9.9961324"><ele>876.0</ele><time>2026-04-04T17:33:49.662Z</time></trkpt><trkpt lat="44.5171101" lon="9.9960248"><ele>876.0</ele><time>2026-04-04T17:33:50.667Z</time></trkpt><trkpt lat="44.5171927" lon="9.9958539"><ele>876.3333333333333</ele><time>2026-04-04T17:33:51.658Z</time></trkpt><trkpt lat="44.5172511" lon="9.9956095"><ele>876.6666666666666</ele><time>2026-04-04T17:33:52.666Z</time></trkpt><trkpt lat="44.5173565" lon="9.9953518"><ele>877.0</ele><time>2026-04-04T17:33:53.667Z</time></trkpt><trkpt lat="44.5174954" lon="9.9950946"><ele>883.0</ele><time>2026-04-04T17:33:54.66Z</time></trkpt><trkpt lat="44.5176638" lon="9.9948588"><ele>889.0</ele><time>2026-04-04T17:33:55.654Z</time></trkpt><trkpt lat="44.5178435" lon="9.9946456"><ele>888.3333333333333</ele><time>2026-04-04T17:33:56.669Z</time></trkpt><trkpt lat="44.5180212" lon="9.9944467"><ele>887.6666666666667</ele><time>2026-04-04T17:33:57.663Z</time></trkpt><trkpt lat="44.5181875" lon="9.99426"><ele>887.0</ele><time>2026-04-04T17:33:58.661Z</time></trkpt><trkpt lat="44.5183487" lon="9.9940745"><ele>887.0</ele><time>2026-04-04T17:33:59.67Z</time></trkpt><trkpt lat="44.5185142" lon="9.9939074"><ele>887.0</ele><time>2026-04-04T17:34:00.661Z</time></trkpt><trkpt lat="44.5186968" lon="9.9937963"><ele>887.0</ele><time>2026-04-04T17:34:01.665Z</time></trkpt><trkpt lat="44.5188998" lon="9.9937809"><ele>887.6666666666667</ele><time>2026-04-04T17:34:02.664Z</time></trkpt><trkpt lat="44.5191197" lon="9.9938276"><ele>888.3333333333333</ele><time>2026-04-04T17:34:03.662Z</time></trkpt><trkpt lat="44.5193366" lon="9.9938781"><ele>889.0</ele><time>2026-04-04T17:34:04.66Z</time></trkpt><trkpt lat="44.5195632" lon="9.9939402"><ele>889.5</ele><time>2026-04-04T17:34:05.66Z</time></trkpt><trkpt lat="44.5198048" lon="9.9940035"><ele>890.0</ele><time>2026-04-04T17:34:06.662Z</time></trkpt><trkpt lat="44.520055" lon="9.9940376"><ele>890.0</ele><time>2026-04-04T17:34:07.663Z</time></trkpt><trkpt lat="44.5203" lon="9.9940396"><ele>890.0</ele><time>2026-04-04T17:34:08.664Z</time></trkpt><trkpt lat="44.5205298" lon="9.9940448"><ele>890.3333333333334</ele><time>2026-04-04T17:34:09.672Z</time></trkpt><trkpt lat="44.5207474" lon="9.9940682"><ele>890.6666666666667</ele><time>2026-04-04T17:34:10.669Z</time></trkpt><trkpt lat="44.5209458" lon="9.9941265"><ele>891.0</ele><time>2026-04-04T17:34:11.662Z</time></trkpt><trkpt lat="44.5211169" lon="9.9942545"><ele>895.3333333333333</ele><time>2026-04-04T17:34:12.673Z</time></trkpt><trkpt lat="44.5212794" lon="9.9944626"><ele>899.6666666666666</ele><time>2026-04-04T17:34:13.669Z</time></trkpt><trkpt lat="44.5214594" lon="9.9946449"><ele>904.0</ele><time>2026-04-04T17:34:14.669Z</time></trkpt><trkpt lat="44.5216487" lon="9.9948258"><ele>903.0</ele><time>2026-04-04T17:34:15.67Z</time></trkpt><trkpt lat="44.5218447" lon="9.9950277"><ele>902.0</ele><time>2026-04-04T17:34:16.671Z</time></trkpt><trkpt lat="44.5220053" lon="9.995256"><ele>906.0</ele><time>2026-04-04T17:34:17.671Z</time></trkpt><trkpt lat="44.5221345" lon="9.9954814"><ele>910.0</ele><time>2026-04-04T17:34:18.67Z</time></trkpt><trkpt lat="44.5222759" lon="9.9956639"><ele>914.0</ele><time>2026-04-04T17:34:19.673Z</time></trkpt><trkpt lat="44.5224391" lon="9.995784"><ele>914.0</ele><time>2026-04-04T17:34:20.672Z</time></trkpt><trkpt lat="44.5226361" lon="9.9958239"><ele>914.0</ele><time>2026-04-04T17:34:21.668Z</time></trkpt><trkpt lat="44.5228641" lon="9.9957871"><ele>914.0</ele><time>2026-04-04T17:34:22.676Z</time></trkpt><trkpt lat="44.5231164" lon="9.9957534"><ele>916.5</ele><time>2026-04-04T17:34:23.661Z</time></trkpt><trkpt lat="44.5233815" lon="9.9957502"><ele>919.0</ele><time>2026-04-04T17:34:24.672Z</time></trkpt><trkpt lat="44.5236409" lon="9.9957458"><ele>918.3333333333333</ele><time>2026-04-04T17:34:25.67Z</time></trkpt><trkpt lat="44.5238763" lon="9.9957372"><ele>917.6666666666667</ele><time>2026-04-04T17:34:26.665Z</time></trkpt><trkpt lat="44.5240795" lon="9.9957307"><ele>917.0</ele><time>2026-04-04T17:34:27.679Z</time></trkpt><trkpt lat="44.5242436" lon="9.9957174"><ele>917.0</ele><time>2026-04-04T17:34:28.667Z</time></trkpt><trkpt lat="44.5244001" lon="9.9956563"><ele>917.0</ele><time>2026-04-04T17:34:29.676Z</time></trkpt><trkpt lat="44.5245357" lon="9.9955023"><ele>917.0</ele><time>2026-04-04T17:34:30.669Z</time></trkpt><trkpt lat="44.5246277" lon="9.9952741"><ele>919.3333333333334</ele><time>2026-04-04T17:34:31.66Z</time></trkpt><trkpt lat="44.5247234" lon="9.9950544"><ele>921.6666666666667</ele><time>2026-04-04T17:34:32.658Z</time></trkpt><trkpt lat="44.5248483" lon="9.9948893"><ele>924.0</ele><time>2026-04-04T17:34:33.67Z</time></trkpt><trkpt lat="44.5250157" lon="9.9948172"><ele>924.0</ele><time>2026-04-04T17:34:34.664Z</time></trkpt><trkpt lat="44.5252193" lon="9.9948073"><ele>924.0</ele><time>2026-04-04T17:34:35.66Z</time></trkpt><trkpt lat="44.5254401" lon="9.99482"><ele>924.0</ele><time>2026-04-04T17:34:36.661Z</time></trkpt><trkpt lat="44.5256634" lon="9.994827"><ele>922.6666666666667</ele><time>2026-04-04T17:34:37.666Z</time></trkpt><trkpt lat="44.5258779" lon="9.994791"><ele>921.3333333333334</ele><time>2026-04-04T17:34:38.669Z</time></trkpt><trkpt lat="44.5260959" lon="9.9946766"><ele>920.0</ele><time>2026-04-04T17:34:39.667Z</time></trkpt><trkpt lat="44.5263041" lon="9.9945169"><ele>919.3333333333334</ele><time>2026-04-04T17:34:40.664Z</time></trkpt><trkpt lat="44.5264882" lon="9.9943695"><ele>918.6666666666667</ele><time>2026-04-04T17:34:41.664Z</time></trkpt><trkpt lat="44.526656" lon="9.9942771"><ele>918.0</ele><time>2026-04-04T17:34:42.66Z</time></trkpt><trkpt lat="44.5268081" lon="9.9942779"><ele>918.0</ele><time>2026-04-04T17:34:43.663Z</time></trkpt><trkpt lat="44.5269213" lon="9.9943459"><ele>918.0</ele><time>2026-04-04T17:34:44.667Z</time></trkpt><trkpt lat="44.527024" lon="9.9945047"><ele>918.0</ele><time>2026-04-04T17:34:45.666Z</time></trkpt><trkpt lat="44.5271031" lon="9.9947299"><ele>916.3333333333333</ele><time>2026-04-04T17:34:46.666Z</time></trkpt><trkpt lat="44.5272052" lon="9.9949416"><ele>914.6666666666666</ele><time>2026-04-04T17:34:47.673Z</time></trkpt><trkpt lat="44.5273523" lon="9.9950935"><ele>913.0</ele><time>2026-04-04T17:34:48.673Z</time></trkpt><trkpt lat="44.5275577" lon="9.9951733"><ele>913.0</ele><time>2026-04-04T17:34:49.672Z</time></trkpt><trkpt lat="44.5277925" lon="9.9952224"><ele>913.0</ele><time>2026-04-04T17:34:50.67Z</time></trkpt><trkpt lat="44.5280234" lon="9.9952826"><ele>920.0</ele><time>2026-04-04T17:34:51.667Z</time></trkpt><trkpt lat="44.5282243" lon="9.9954208"><ele>927.0</ele><time>2026-04-04T17:34:52.675Z</time></trkpt><trkpt lat="44.5283985" lon="9.9956223"><ele>927.0</ele><time>2026-04-04T17:34:53.667Z</time></trkpt><trkpt lat="44.528544" lon="9.9958204"><ele>927.0</ele><time>2026-04-04T17:34:54.667Z</time></trkpt><trkpt lat="44.5286758" lon="9.995975"><ele>927.0</ele><time>2026-04-04T17:34:55.664Z</time></trkpt><trkpt lat="44.5288002" lon="9.9960399"><ele>925.6666666666667</ele><time>2026-04-04T17:34:56.672Z</time></trkpt><trkpt lat="44.5289493" lon="9.9959978"><ele>924.3333333333334</ele><time>2026-04-04T17:34:57.675Z</time></trkpt><trkpt lat="44.5291278" lon="9.9958706"><ele>923.0</ele><time>2026-04-04T17:34:58.674Z</time></trkpt><trkpt lat="44.5292982" lon="9.9957306"><ele>925.6666666666667</ele><time>2026-04-04T17:34:59.656Z</time></trkpt><trkpt lat="44.5294665" lon="9.9956913"><ele>928.3333333333333</ele><time>2026-04-04T17:35:00.676Z</time></trkpt><trkpt lat="44.5296333" lon="9.9957556"><ele>931.0</ele><time>2026-04-04T17:35:01.666Z</time></trkpt><trkpt lat="44.5297987" lon="9.995901"><ele>931.0</ele><time>2026-04-04T17:35:02.671Z</time></trkpt><trkpt lat="44.5299784" lon="9.9961049"><ele>931.0</ele><time>2026-04-04T17:35:03.666Z</time></trkpt><trkpt lat="44.5301954" lon="9.9963147"><ele>928.0</ele><time>2026-04-04T17:35:04.669Z</time></trkpt><trkpt lat="44.5304232" lon="9.9965125"><ele>925.0</ele><time>2026-04-04T17:35:05.669Z</time></trkpt><trkpt lat="44.5306326" lon="9.9966893"><ele>925.0</ele><time>2026-04-04T17:35:06.661Z</time></trkpt><trkpt lat="44.5308173" lon="9.996827"><ele>925.0</ele><time>2026-04-04T17:35:07.668Z</time></trkpt><trkpt lat="44.5309793" lon="9.9968979"><ele>925.0</ele><time>2026-04-04T17:35:08.661Z</time></trkpt><trkpt lat="44.5311459" lon="9.9968911"><ele>929.0</ele><time>2026-04-04T17:35:09.667Z</time></trkpt><trkpt lat="44.5313109" lon="9.9968514"><ele>933.0</ele><time>2026-04-04T17:35:10.664Z</time></trkpt><trkpt lat="44.5314524" lon="9.9968839"><ele>937.0</ele><time>2026-04-04T17:35:11.67Z</time></trkpt><trkpt lat="44.531545" lon="9.9969964"><ele>941.0</ele><time>2026-04-04T17:35:12.673Z</time></trkpt><trkpt lat="44.5315878" lon="9.9971855"><ele>941.0</ele><time>2026-04-04T17:35:13.669Z</time></trkpt><trkpt lat="44.5315981" lon="9.997432"><ele>941.0</ele><time>2026-04-04T17:35:14.67Z</time></trkpt><trkpt lat="44.5316178" lon="9.9977105"><ele>941.0</ele><time>2026-04-04T17:35:15.666Z</time></trkpt><trkpt lat="44.5316932" lon="9.9979495"><ele>938.3333333333334</ele><time>2026-04-04T17:35:16.668Z</time></trkpt><trkpt lat="44.5318219" lon="9.9981361"><ele>935.6666666666667</ele><time>2026-04-04T17:35:17.669Z</time></trkpt><trkpt lat="44.5320057" lon="9.9982821"><ele>933.0</ele><time>2026-04-04T17:35:18.669Z</time></trkpt><trkpt lat="44.532183" lon="9.9983768"><ele>935.6666666666667</ele><time>2026-04-04T17:35:19.669Z</time></trkpt><trkpt lat="44.5323371" lon="9.9983968"><ele>938.3333333333334</ele><time>2026-04-04T17:35:20.66Z</time></trkpt><trkpt lat="44.5324861" lon="9.998318"><ele>941.0</ele><time>2026-04-04T17:35:21.659Z</time></trkpt><trkpt lat="44.5326663" lon="9.9981617"><ele>941.0</ele><time>2026-04-04T17:35:22.662Z</time></trkpt><trkpt lat="44.5328796" lon="9.9980578"><ele>941.0</ele><time>2026-04-04T17:35:23.651Z</time></trkpt><trkpt lat="44.5331467" lon="9.9980371"><ele>940.5</ele><time>2026-04-04T17:35:24.656Z</time></trkpt><trkpt lat="44.5334726" lon="9.9980769"><ele>940.0</ele><time>2026-04-04T17:35:25.66Z</time></trkpt><trkpt lat="44.5338186" lon="9.9981253"><ele>940.0</ele><time>2026-04-04T17:35:26.661Z</time></trkpt><trkpt lat="44.5341177" lon="9.9981535"><ele>940.0</ele><time>2026-04-04T17:35:27.665Z</time></trkpt><trkpt lat="44.5343598" lon="9.9981672"><ele>939.3333333333333</ele><time>2026-04-04T17:35:28.663Z</time></trkpt><trkpt lat="44.5345703" lon="9.9981997"><ele>938.6666666666667</ele><time>2026-04-04T17:35:29.668Z</time></trkpt><trkpt lat="44.5347492" lon="9.9982755"><ele>938.0</ele><time>2026-04-04T17:35:30.668Z</time></trkpt><trkpt lat="44.5349335" lon="9.998424"><ele>938.0</ele><time>2026-04-04T17:35:31.663Z</time></trkpt><trkpt lat="44.5351197" lon="9.9986326"><ele>938.0</ele><time>2026-04-04T17:35:32.662Z</time></trkpt><trkpt lat="44.5352742" lon="9.9988294"><ele>938.0</ele><time>2026-04-04T17:35:33.653Z</time></trkpt><trkpt lat="44.5354299" lon="9.9989643"><ele>940.0</ele><time>2026-04-04T17:35:34.665Z</time></trkpt><trkpt lat="44.5355785" lon="9.9989941"><ele>942.0</ele><time>2026-04-04T17:35:35.66Z</time></trkpt><trkpt lat="44.5357206" lon="9.9989293"><ele>944.0</ele><time>2026-04-04T17:35:36.663Z</time></trkpt><trkpt lat="44.5358452" lon="9.998778"><ele>944.0</ele><time>2026-04-04T17:35:37.66Z</time></trkpt><trkpt lat="44.5359821" lon="9.9985467"><ele>944.0</ele><time>2026-04-04T17:35:38.665Z</time></trkpt><trkpt lat="44.5361293" lon="9.9983067"><ele>944.0</ele><time>2026-04-04T17:35:39.666Z</time></trkpt><trkpt lat="44.5362845" lon="9.9981387"><ele>945.3333333333334</ele><time>2026-04-04T17:35:40.672Z</time></trkpt><trkpt lat="44.536447" lon="9.9980384"><ele>946.6666666666667</ele><time>2026-04-04T17:35:41.67Z</time></trkpt><trkpt lat="44.5366538" lon="9.9980304"><ele>948.0</ele><time>2026-04-04T17:35:42.665Z</time></trkpt><trkpt lat="44.5368636" lon="9.998099"><ele>948.5</ele><time>2026-04-04T17:35:43.672Z</time></trkpt><trkpt lat="44.5370626" lon="9.998235"><ele>949.0</ele><time>2026-04-04T17:35:44.655Z</time></trkpt><trkpt lat="44.5372885" lon="9.9984233"><ele>949.0</ele><time>2026-04-04T17:35:45.666Z</time></trkpt><trkpt lat="44.5375063" lon="9.9986188"><ele>949.0</ele><time>2026-04-04T17:35:46.668Z</time></trkpt><trkpt lat="44.5376739" lon="9.9988418"><ele>949.0</ele><time>2026-04-04T17:35:47.67Z</time></trkpt><trkpt lat="44.5378113" lon="9.9991155"><ele>949.0</ele><time>2026-04-04T17:35:48.668Z</time></trkpt><trkpt lat="44.5379346" lon="9.9994726"><ele>951.0</ele><time>2026-04-04T17:35:49.677Z</time></trkpt><trkpt lat="44.5380584" lon="9.9999025"><ele>953.0</ele><time>2026-04-04T17:35:50.67Z</time></trkpt><trkpt lat="44.5381948" lon="10.0003678"><ele>953.0</ele><time>2026-04-04T17:35:51.67Z</time></trkpt><trkpt lat="44.5383365" lon="10.0008024"><ele>953.0</ele><time>2026-04-04T17:35:52.674Z</time></trkpt><trkpt lat="44.538466" lon="10.0011621"><ele>953.0</ele><time>2026-04-04T17:35:53.67Z</time></trkpt><trkpt lat="44.5385536" lon="10.0014591"><ele>953.0</ele><time>2026-04-04T17:35:54.667Z</time></trkpt><trkpt lat="44.5386123" lon="10.0017277"><ele>953.0</ele><time>2026-04-04T17:35:55.662Z</time></trkpt><trkpt lat="44.5386241" lon="10.0019779"><ele>953.0</ele><time>2026-04-04T17:35:56.676Z</time></trkpt><trkpt lat="44.5385671" lon="10.0022409"><ele>953.0</ele><time>2026-04-04T17:35:57.68Z</time></trkpt><trkpt lat="44.5384533" lon="10.0025265"><ele>953.0</ele><time>2026-04-04T17:35:58.672Z</time></trkpt><trkpt lat="44.538367" lon="10.002818"><ele>954.0</ele><time>2026-04-04T17:35:59.663Z</time></trkpt><trkpt lat="44.5383144" lon="10.0030839"><ele>955.0</ele><time>2026-04-04T17:36:00.67Z</time></trkpt><trkpt lat="44.5383039" lon="10.0033373"><ele>956.0</ele><time>2026-04-04T17:36:01.665Z</time></trkpt><trkpt lat="44.5383531" lon="10.003617"><ele>957.0</ele><time>2026-04-04T17:36:02.663Z</time></trkpt><trkpt lat="44.5384502" lon="10.0038864"><ele>958.0</ele><time>2026-04-04T17:36:03.66Z</time></trkpt><trkpt lat="44.5385669" lon="10.0041186"><ele>959.0</ele><time>2026-04-04T17:36:04.67Z</time></trkpt><trkpt lat="44.5387037" lon="10.0043002"><ele>961.6666666666667</ele><time>2026-04-04T17:36:05.67Z</time></trkpt><trkpt lat="44.5388607" lon="10.0044213"><ele>964.3333333333333</ele><time>2026-04-04T17:36:06.666Z</time></trkpt><trkpt lat="44.5390623" lon="10.0044611"><ele>967.0</ele><time>2026-04-04T17:36:07.667Z</time></trkpt><trkpt lat="44.5393129" lon="10.0044894"><ele>965.5</ele><time>2026-04-04T17:36:08.671Z</time></trkpt><trkpt lat="44.5396167" lon="10.0045121"><ele>964.0</ele><time>2026-04-04T17:36:09.657Z</time></trkpt><trkpt lat="44.539866" lon="10.0045548"><ele>964.0</ele><time>2026-04-04T17:36:10.662Z</time></trkpt><trkpt lat="44.5400851" lon="10.0046496"><ele>964.0</ele><time>2026-04-04T17:36:11.662Z</time></trkpt><trkpt lat="44.5402807" lon="10.0047629"><ele>964.0</ele><time>2026-04-04T17:36:12.66Z</time></trkpt><trkpt lat="44.5404584" lon="10.0048297"><ele>959.6666666666666</ele><time>2026-04-04T17:36:13.656Z</time></trkpt><trkpt lat="44.5406419" lon="10.0048207"><ele>955.3333333333333</ele><time>2026-04-04T17:36:14.662Z</time></trkpt><trkpt lat="44.5408361" lon="10.0047459"><ele>951.0</ele><time>2026-04-04T17:36:15.642Z</time></trkpt><trkpt lat="44.5410599" lon="10.0046157"><ele>946.6666666666667</ele><time>2026-04-04T17:36:16.652Z</time></trkpt><trkpt lat="44.5412446" lon="10.0044961"><ele>942.3333333333334</ele><time>2026-04-04T17:36:17.658Z</time></trkpt><trkpt lat="44.5414325" lon="10.0044409"><ele>938.0</ele><time>2026-04-04T17:36:18.663Z</time></trkpt><trkpt lat="44.5416174" lon="10.0044646"><ele>938.0</ele><time>2026-04-04T17:36:19.67Z</time></trkpt><trkpt lat="44.5417849" lon="10.0045368"><ele>938.0</ele><time>2026-04-04T17:36:20.669Z</time></trkpt><trkpt lat="44.5419175" lon="10.0045484"><ele>938.0</ele><time>2026-04-04T17:36:21.663Z</time></trkpt><trkpt lat="44.5420273" lon="10.0044897"><ele>938.0</ele><time>2026-04-04T17:36:22.672Z</time></trkpt><trkpt lat="44.5421242" lon="10.0043448"><ele>936.75</ele><time>2026-04-04T17:36:23.663Z</time></trkpt><trkpt lat="44.5421542" lon="10.0041594"><ele>935.5</ele><time>2026-04-04T17:36:24.673Z</time></trkpt><trkpt lat="44.542149" lon="10.0039711"><ele>934.25</ele><time>2026-04-04T17:36:25.663Z</time></trkpt><trkpt lat="44.5420579" lon="10.0037734"><ele>933.0</ele><time>2026-04-04T17:36:26.673Z</time></trkpt><trkpt lat="44.5419215" lon="10.0036047"><ele>933.0</ele><time>2026-04-04T17:36:27.661Z</time></trkpt><trkpt lat="44.5417234" lon="10.0033941"><ele>933.0</ele><time>2026-04-04T17:36:28.672Z</time></trkpt><trkpt lat="44.5415057" lon="10.0031712"><ele>931.0</ele><time>2026-04-04T17:36:29.656Z</time></trkpt><trkpt lat="44.5413071" lon="10.0029757"><ele>929.0</ele><time>2026-04-04T17:36:30.663Z</time></trkpt><trkpt lat="44.5411334" lon="10.0028418"><ele>927.0</ele><time>2026-04-04T17:36:31.666Z</time></trkpt><trkpt lat="44.5410226" lon="10.0027769"><ele>929.2</ele><time>2026-04-04T17:36:32.664Z</time></trkpt><trkpt lat="44.5409571" lon="10.0027101"><ele>931.4000000000001</ele><time>2026-04-04T17:36:33.667Z</time></trkpt><trkpt lat="44.5409342" lon="10.0025942"><ele>933.5999999999999</ele><time>2026-04-04T17:36:34.664Z</time></trkpt><trkpt lat="44.5409722" lon="10.0024733"><ele>935.8</ele><time>2026-04-04T17:36:35.669Z</time></trkpt><trkpt lat="44.5410672" lon="10.0023908"><ele>938.0</ele><time>2026-04-04T17:36:36.668Z</time></trkpt><trkpt lat="44.5412029" lon="10.002398"><ele>934.3333333333334</ele><time>2026-04-04T17:36:37.668Z</time></trkpt><trkpt lat="44.5413692" lon="10.0024393"><ele>930.6666666666667</ele><time>2026-04-04T17:36:38.669Z</time></trkpt><trkpt lat="44.5415885" lon="10.002513"><ele>927.0</ele><time>2026-04-04T17:36:39.662Z</time></trkpt><trkpt lat="44.5418539" lon="10.0025885"><ele>923.3333333333333</ele><time>2026-04-04T17:36:40.664Z</time></trkpt><trkpt lat="44.5420642" lon="10.0026425"><ele>919.6666666666666</ele><time>2026-04-04T17:36:41.666Z</time></trkpt><trkpt lat="44.5422156" lon="10.0027148"><ele>916.0</ele><time>2026-04-04T17:36:42.666Z</time></trkpt><trkpt lat="44.5423208" lon="10.0028391"><ele>916.0</ele><time>2026-04-04T17:36:43.661Z</time></trkpt><trkpt lat="44.5423792" lon="10.0030197"><ele>916.0</ele><time>2026-04-04T17:36:44.665Z</time></trkpt><trkpt lat="44.5424184" lon="10.0032692"><ele>916.0</ele><time>2026-04-04T17:36:45.667Z</time></trkpt><trkpt lat="44.5424749" lon="10.0035536"><ele>917.3333333333333</ele><time>2026-04-04T17:36:46.663Z</time></trkpt><trkpt lat="44.542581" lon="10.0038038"><ele>918.6666666666667</ele><time>2026-04-04T17:36:47.674Z</time></trkpt><trkpt lat="44.5427235" lon="10.0040103"><ele>920.0</ele><time>2026-04-04T17:36:48.671Z</time></trkpt><trkpt lat="44.5429092" lon="10.0041509"><ele>916.0</ele><time>2026-04-04T17:36:49.671Z</time></trkpt><trkpt lat="44.5431286" lon="10.0042407"><ele>912.0</ele><time>2026-04-04T17:36:50.672Z</time></trkpt><trkpt lat="44.5433718" lon="10.0042653"><ele>912.0</ele><time>2026-04-04T17:36:51.674Z</time></trkpt><trkpt lat="44.5436267" lon="10.0042418"><ele>912.0</ele><time>2026-04-04T17:36:52.673Z</time></trkpt><trkpt lat="44.5438453" lon="10.0041953"><ele>909.6666666666667</ele><time>2026-04-04T17:36:53.662Z</time></trkpt><trkpt lat="44.5440393" lon="10.0041665"><ele>907.3333333333334</ele><time>2026-04-04T17:36:54.671Z</time></trkpt><trkpt lat="44.5442285" lon="10.0041563"><ele>905.0</ele><time>2026-04-04T17:36:55.665Z</time></trkpt><trkpt lat="44.5444208" lon="10.004179"><ele>902.6666666666667</ele><time>2026-04-04T17:36:56.674Z</time></trkpt><trkpt lat="44.5446043" lon="10.0042485"><ele>900.3333333333333</ele><time>2026-04-04T17:36:57.674Z</time></trkpt><trkpt lat="44.5447599" lon="10.004328"><ele>898.0</ele><time>2026-04-04T17:36:58.673Z</time></trkpt><trkpt lat="44.5449048" lon="10.004399"><ele>898.0</ele><time>2026-04-04T17:36:59.672Z</time></trkpt><trkpt lat="44.545032" lon="10.0044622"><ele>898.0</ele><time>2026-04-04T17:37:00.666Z</time></trkpt><trkpt lat="44.5451469" lon="10.004512"><ele>898.0</ele><time>2026-04-04T17:37:01.666Z</time></trkpt><trkpt lat="44.5452599" lon="10.0045443"><ele>898.0</ele><time>2026-04-04T17:37:02.666Z</time></trkpt><trkpt lat="44.5453713" lon="10.004547"><ele>897.3333333333333</ele><time>2026-04-04T17:37:03.671Z</time></trkpt><trkpt lat="44.5455046" lon="10.0044813"><ele>896.6666666666667</ele><time>2026-04-04T17:37:04.656Z</time></trkpt><trkpt lat="44.5456797" lon="10.0043397"><ele>896.0</ele><time>2026-04-04T17:37:05.666Z</time></trkpt><trkpt lat="44.5458823" lon="10.0041499"><ele>892.3333333333334</ele><time>2026-04-04T17:37:06.665Z</time></trkpt><trkpt lat="44.5460659" lon="10.0039878"><ele>888.6666666666667</ele><time>2026-04-04T17:37:07.659Z</time></trkpt><trkpt lat="44.5462498" lon="10.0038554"><ele>885.0</ele><time>2026-04-04T17:37:08.67Z</time></trkpt><trkpt lat="44.5464368" lon="10.0037816"><ele>882.3333333333333</ele><time>2026-04-04T17:37:09.664Z</time></trkpt><trkpt lat="44.5466458" lon="10.003772"><ele>879.6666666666666</ele><time>2026-04-04T17:37:10.668Z</time></trkpt><trkpt lat="44.5468775" lon="10.0038086"><ele>877.0</ele><time>2026-04-04T17:37:11.673Z</time></trkpt><trkpt lat="44.5471227" lon="10.003882"><ele>875.0</ele><time>2026-04-04T17:37:12.668Z</time></trkpt><trkpt lat="44.5473619" lon="10.0039353"><ele>873.0</ele><time>2026-04-04T17:37:13.668Z</time></trkpt><trkpt lat="44.5475968" lon="10.0039363"><ele>873.0</ele><time>2026-04-04T17:37:14.672Z</time></trkpt><trkpt lat="44.547811" lon="10.0038811"><ele>873.0</ele><time>2026-04-04T17:37:15.667Z</time></trkpt><trkpt lat="44.5479935" lon="10.0038388"><ele>873.0</ele><time>2026-04-04T17:37:16.673Z</time></trkpt><trkpt lat="44.5481638" lon="10.0038741"><ele>871.3333333333333</ele><time>2026-04-04T17:37:17.666Z</time></trkpt><trkpt lat="44.5483209" lon="10.0039743"><ele>869.6666666666666</ele><time>2026-04-04T17:37:18.669Z</time></trkpt><trkpt lat="44.5484757" lon="10.0040682"><ele>868.0</ele><time>2026-04-04T17:37:19.661Z</time></trkpt><trkpt lat="44.5486169" lon="10.0041161"><ele>866.3333333333333</ele><time>2026-04-04T17:37:20.656Z</time></trkpt><trkpt lat="44.5487797" lon="10.0040404"><ele>864.6666666666667</ele><time>2026-04-04T17:37:21.667Z</time></trkpt><trkpt lat="44.5489695" lon="10.0038965"><ele>863.0</ele><time>2026-04-04T17:37:22.667Z</time></trkpt><trkpt lat="44.5491425" lon="10.003744"><ele>863.0</ele><time>2026-04-04T17:37:23.665Z</time></trkpt><trkpt lat="44.5492925" lon="10.0036258"><ele>863.0</ele><time>2026-04-04T17:37:24.662Z</time></trkpt><trkpt lat="44.549443" lon="10.0035682"><ele>863.0</ele><time>2026-04-04T17:37:25.658Z</time></trkpt><trkpt lat="44.5495864" lon="10.0035346"><ele>862.6666666666667</ele><time>2026-04-04T17:37:26.671Z</time></trkpt><trkpt lat="44.549722" lon="10.0035592"><ele>862.3333333333333</ele><time>2026-04-04T17:37:27.914Z</time></trkpt><trkpt lat="44.5499462" lon="10.0036571"><ele>862.0</ele><time>2026-04-04T17:37:29.66Z</time></trkpt><trkpt lat="44.5500519" lon="10.0036531"><ele>862.0</ele><time>2026-04-04T17:37:30.666Z</time></trkpt><trkpt lat="44.5501513" lon="10.0036133"><ele>862.0</ele><time>2026-04-04T17:37:31.663Z</time></trkpt><trkpt lat="44.5502348" lon="10.0035625"><ele>862.0</ele><time>2026-04-04T17:37:32.663Z</time></trkpt><trkpt lat="44.5503129" lon="10.0034855"><ele>862.0</ele><time>2026-04-04T17:37:33.661Z</time></trkpt><trkpt lat="44.5503913" lon="10.0033872"><ele>862.0</ele><time>2026-04-04T17:37:34.669Z</time></trkpt><trkpt lat="44.5504606" lon="10.0032828"><ele>860.4000000000001</ele><time>2026-04-04T17:37:35.664Z</time></trkpt><trkpt lat="44.550519" lon="10.0031769"><ele>858.8000000000001</ele><time>2026-04-04T17:37:36.665Z</time></trkpt><trkpt lat="44.5505719" lon="10.0030675"><ele>857.2</ele><time>2026-04-04T17:37:37.664Z</time></trkpt><trkpt lat="44.5506253" lon="10.0029624"><ele>855.6</ele><time>2026-04-04T17:37:38.666Z</time></trkpt><trkpt lat="44.5506802" lon="10.0028626"><ele>854.0</ele><time>2026-04-04T17:37:39.662Z</time></trkpt><trkpt lat="44.5507355" lon="10.0027639"><ele>854.0000000000001</ele><time>2026-04-04T17:37:40.665Z</time></trkpt><trkpt lat="44.5507915" lon="10.00267"><ele>854.0</ele><time>2026-04-04T17:37:41.663Z</time></trkpt><trkpt lat="44.5508472" lon="10.0025814"><ele>854.0</ele><time>2026-04-04T17:37:42.668Z</time></trkpt><trkpt lat="44.5508995" lon="10.0024897"><ele>854.0</ele><time>2026-04-04T17:37:43.66Z</time></trkpt><trkpt lat="44.550953" lon="10.0024004"><ele>854.0000000000001</ele><time>2026-04-04T17:37:44.668Z</time></trkpt><trkpt lat="44.551007" lon="10.0023165"><ele>854.0</ele><time>2026-04-04T17:37:45.666Z</time></trkpt><trkpt lat="44.5510634" lon="10.0022331"><ele>852.1666666666667</ele><time>2026-04-04T17:37:46.665Z</time></trkpt><trkpt lat="44.5511214" lon="10.0021502"><ele>850.3333333333334</ele><time>2026-04-04T17:37:47.666Z</time></trkpt><trkpt lat="44.5511849" lon="10.002077"><ele>848.5</ele><time>2026-04-04T17:37:48.667Z</time></trkpt><trkpt lat="44.5512528" lon="10.0020211"><ele>846.6666666666667</ele><time>2026-04-04T17:37:49.663Z</time></trkpt><trkpt lat="44.5513278" lon="10.0019916"><ele>844.8333333333334</ele><time>2026-04-04T17:37:50.667Z</time></trkpt><trkpt lat="44.5514154" lon="10.0019962"><ele>843.0</ele><time>2026-04-04T17:37:51.66Z</time></trkpt><trkpt lat="44.5515011" lon="10.0020228"><ele>843.0</ele><time>2026-04-04T17:37:52.668Z</time></trkpt><trkpt lat="44.5515866" lon="10.0020645"><ele>843.0</ele><time>2026-04-04T17:37:53.67Z</time></trkpt><trkpt lat="44.5516743" lon="10.0021104"><ele>843.0</ele><time>2026-04-04T17:37:54.67Z</time></trkpt><trkpt lat="44.5517697" lon="10.0021547"><ele>843.0</ele><time>2026-04-04T17:37:55.666Z</time></trkpt><trkpt lat="44.5518741" lon="10.0021856"><ele>843.0</ele><time>2026-04-04T17:37:56.669Z</time></trkpt><trkpt lat="44.5519952" lon="10.0021982"><ele>842.5</ele><time>2026-04-04T17:37:57.671Z</time></trkpt><trkpt lat="44.5521316" lon="10.0021908"><ele>842.0</ele><time>2026-04-04T17:37:58.665Z</time></trkpt><trkpt lat="44.5522839" lon="10.0021758"><ele>841.5</ele><time>2026-04-04T17:37:59.667Z</time></trkpt><trkpt lat="44.5524402" lon="10.0021536"><ele>841.0</ele><time>2026-04-04T17:38:00.668Z</time></trkpt><trkpt lat="44.5525961" lon="10.0021007"><ele>841.0</ele><time>2026-04-04T17:38:01.662Z</time></trkpt><trkpt lat="44.5527529" lon="10.0019765"><ele>841.0</ele><time>2026-04-04T17:38:02.67Z</time></trkpt><trkpt lat="44.5528931" lon="10.0017802"><ele>841.0</ele><time>2026-04-04T17:38:03.666Z</time></trkpt><trkpt lat="44.5530221" lon="10.0015821"><ele>835.6666666666666</ele><time>2026-04-04T17:38:04.66Z</time></trkpt><trkpt lat="44.5531483" lon="10.0014157"><ele>830.3333333333333</ele><time>2026-04-04T17:38:05.661Z</time></trkpt><trkpt lat="44.5532823" lon="10.0013027"><ele>825.0</ele><time>2026-04-04T17:38:06.658Z</time></trkpt><trkpt lat="44.5534065" lon="10.00126"><ele>825.0</ele><time>2026-04-04T17:38:07.668Z</time></trkpt><trkpt lat="44.5535167" lon="10.0013094"><ele>825.0</ele><time>2026-04-04T17:38:08.661Z</time></trkpt><trkpt lat="44.5536281" lon="10.0014163"><ele>825.0</ele><time>2026-04-04T17:38:09.663Z</time></trkpt><trkpt lat="44.5537147" lon="10.0015641"><ele>825.0</ele><time>2026-04-04T17:38:10.663Z</time></trkpt><trkpt lat="44.5537916" lon="10.0017241"><ele>825.0</ele><time>2026-04-04T17:38:11.67Z</time></trkpt><trkpt lat="44.5538679" lon="10.0019649"><ele>825.0</ele><time>2026-04-04T17:38:12.672Z</time></trkpt><trkpt lat="44.553918" lon="10.0022752"><ele>825.0</ele><time>2026-04-04T17:38:13.67Z</time></trkpt><trkpt lat="44.5539753" lon="10.0025847"><ele>825.0</ele><time>2026-04-04T17:38:14.672Z</time></trkpt><trkpt lat="44.5540458" lon="10.002872"><ele>825.0</ele><time>2026-04-04T17:38:15.664Z</time></trkpt><trkpt lat="44.5541411" lon="10.0031296"><ele>825.0</ele><time>2026-04-04T17:38:16.675Z</time></trkpt><trkpt lat="44.5542505" lon="10.0033295"><ele>827.6666666666667</ele><time>2026-04-04T17:38:17.678Z</time></trkpt><trkpt lat="44.5544306" lon="10.0034997"><ele>830.3333333333334</ele><time>2026-04-04T17:38:18.678Z</time></trkpt><trkpt lat="44.5546353" lon="10.0036532"><ele>833.0</ele><time>2026-04-04T17:38:19.671Z</time></trkpt><trkpt lat="44.5548183" lon="10.0038127"><ele>827.0</ele><time>2026-04-04T17:38:20.662Z</time></trkpt><trkpt lat="44.5550075" lon="10.003927"><ele>821.0</ele><time>2026-04-04T17:38:21.684Z</time></trkpt><trkpt lat="44.555201" lon="10.0039729"><ele>815.0</ele><time>2026-04-04T17:38:22.677Z</time></trkpt><trkpt lat="44.5553719" lon="10.0039867"><ele>812.5</ele><time>2026-04-04T17:38:23.675Z</time></trkpt><trkpt lat="44.555503" lon="10.0040316"><ele>810.0</ele><time>2026-04-04T17:38:24.672Z</time></trkpt><trkpt lat="44.5555981" lon="10.0041156"><ele>807.5</ele><time>2026-04-04T17:38:25.668Z</time></trkpt><trkpt lat="44.5556576" lon="10.0042793"><ele>805.0</ele><time>2026-04-04T17:38:26.677Z</time></trkpt><trkpt lat="44.5556594" lon="10.0044834"><ele>805.0</ele><time>2026-04-04T17:38:27.672Z</time></trkpt><trkpt lat="44.555626" lon="10.0047393"><ele>805.0</ele><time>2026-04-04T17:38:28.675Z</time></trkpt><trkpt lat="44.5555458" lon="10.0050086"><ele>805.0</ele><time>2026-04-04T17:38:29.657Z</time></trkpt><trkpt lat="44.5554775" lon="10.0052236"><ele>804.3333333333333</ele><time>2026-04-04T17:38:30.661Z</time></trkpt><trkpt lat="44.5554398" lon="10.0054172"><ele>803.6666666666667</ele><time>2026-04-04T17:38:31.662Z</time></trkpt><trkpt lat="44.5554418" lon="10.0056278"><ele>803.0</ele><time>2026-04-04T17:38:32.658Z</time></trkpt><trkpt lat="44.5554805" lon="10.0058459"><ele>803.0</ele><time>2026-04-04T17:38:33.655Z</time></trkpt><trkpt lat="44.5555705" lon="10.0060834"><ele>803.0</ele><time>2026-04-04T17:38:34.671Z</time></trkpt><trkpt lat="44.5556722" lon="10.0063049"><ele>803.0</ele><time>2026-04-04T17:38:35.68Z</time></trkpt><trkpt lat="44.5558057" lon="10.0065039"><ele>808.0</ele><time>2026-04-04T17:38:36.68Z</time></trkpt><trkpt lat="44.5559892" lon="10.0066872"><ele>813.0</ele><time>2026-04-04T17:38:37.671Z</time></trkpt><trkpt lat="44.5561755" lon="10.006876"><ele>805.0</ele><time>2026-04-04T17:38:38.667Z</time></trkpt><trkpt lat="44.5563374" lon="10.0070491"><ele>797.0</ele><time>2026-04-04T17:38:39.677Z</time></trkpt><trkpt lat="44.5564447" lon="10.0071978"><ele>789.0</ele><time>2026-04-04T17:38:40.672Z</time></trkpt><trkpt lat="44.5565124" lon="10.0073691"><ele>790.8000000000001</ele><time>2026-04-04T17:38:41.672Z</time></trkpt><trkpt lat="44.5565209" lon="10.0075384"><ele>792.6</ele><time>2026-04-04T17:38:42.673Z</time></trkpt><trkpt lat="44.5565485" lon="10.0076926"><ele>794.4</ele><time>2026-04-04T17:38:43.674Z</time></trkpt><trkpt lat="44.5566019" lon="10.0077835"><ele>796.2</ele><time>2026-04-04T17:38:44.673Z</time></trkpt><trkpt lat="44.5566899" lon="10.0078225"><ele>798.0</ele><time>2026-04-04T17:38:45.678Z</time></trkpt><trkpt lat="44.5568145" lon="10.0077719"><ele>798.0</ele><time>2026-04-04T17:38:46.668Z</time></trkpt><trkpt lat="44.5569513" lon="10.0077264"><ele>798.0</ele><time>2026-04-04T17:38:47.669Z</time></trkpt><trkpt lat="44.5570992" lon="10.0076867"><ele>798.0</ele><time>2026-04-04T17:38:48.661Z</time></trkpt><trkpt lat="44.5572478" lon="10.0076601"><ele>798.0</ele><time>2026-04-04T17:38:49.669Z</time></trkpt><trkpt lat="44.557385" lon="10.0076893"><ele>796.75</ele><time>2026-04-04T17:38:50.666Z</time></trkpt><trkpt lat="44.557493" lon="10.0077907"><ele>795.5</ele><time>2026-04-04T17:38:51.674Z</time></trkpt><trkpt lat="44.5575574" lon="10.0079305"><ele>794.25</ele><time>2026-04-04T17:38:52.676Z</time></trkpt><trkpt lat="44.5575746" lon="10.0081312"><ele>793.0</ele><time>2026-04-04T17:38:53.678Z</time></trkpt><trkpt lat="44.5576063" lon="10.0083789"><ele>793.0</ele><time>2026-04-04T17:38:54.664Z</time></trkpt><trkpt lat="44.5576915" lon="10.0085947"><ele>793.0</ele><time>2026-04-04T17:38:55.682Z</time></trkpt><trkpt lat="44.5578186" lon="10.0087747"><ele>793.0</ele><time>2026-04-04T17:38:56.669Z</time></trkpt><trkpt lat="44.5579519" lon="10.008951"><ele>789.0</ele><time>2026-04-04T17:38:57.664Z</time></trkpt><trkpt lat="44.5580557" lon="10.0091649"><ele>785.0</ele><time>2026-04-04T17:38:58.665Z</time></trkpt><trkpt lat="44.5581353" lon="10.0094442"><ele>781.0</ele><time>2026-04-04T17:38:59.659Z</time></trkpt><trkpt lat="44.5582086" lon="10.0097174"><ele>781.0</ele><time>2026-04-04T17:39:00.664Z</time></trkpt><trkpt lat="44.5583122" lon="10.0099609"><ele>781.0</ele><time>2026-04-04T17:39:01.67Z</time></trkpt><trkpt lat="44.5584844" lon="10.0101537"><ele>781.0</ele><time>2026-04-04T17:39:02.671Z</time></trkpt><trkpt lat="44.5586932" lon="10.0103302"><ele>775.0</ele><time>2026-04-04T17:39:03.664Z</time></trkpt><trkpt lat="44.5588783" lon="10.0104894"><ele>769.0</ele><time>2026-04-04T17:39:04.665Z</time></trkpt><trkpt lat="44.5590623" lon="10.0106035"><ele>763.0</ele><time>2026-04-04T17:39:05.662Z</time></trkpt><trkpt lat="44.5592338" lon="10.010688"><ele>763.0</ele><time>2026-04-04T17:39:06.669Z</time></trkpt><trkpt lat="44.5593635" lon="10.0108116"><ele>763.0</ele><time>2026-04-04T17:39:07.673Z</time></trkpt><trkpt lat="44.5594552" lon="10.0109956"><ele>763.0</ele><time>2026-04-04T17:39:08.668Z</time></trkpt><trkpt lat="44.5595275" lon="10.0112498"><ele>759.6666666666667</ele><time>2026-04-04T17:39:09.666Z</time></trkpt><trkpt lat="44.5595862" lon="10.0115254"><ele>756.3333333333334</ele><time>2026-04-04T17:39:10.671Z</time></trkpt><trkpt lat="44.559593" lon="10.0118341"><ele>753.0</ele><time>2026-04-04T17:39:11.667Z</time></trkpt><trkpt lat="44.5595804" lon="10.0121444"><ele>753.0</ele><time>2026-04-04T17:39:12.661Z</time></trkpt><trkpt lat="44.5595994" lon="10.0124709"><ele>753.0</ele><time>2026-04-04T17:39:13.669Z</time></trkpt><trkpt lat="44.5596812" lon="10.0128323"><ele>751.5</ele><time>2026-04-04T17:39:14.669Z</time></trkpt><trkpt lat="44.5597725" lon="10.0131667"><ele>750.0</ele><time>2026-04-04T17:39:15.68Z</time></trkpt><trkpt lat="44.5598479" lon="10.0134563"><ele>750.0</ele><time>2026-04-04T17:39:16.676Z</time></trkpt><trkpt lat="44.5599211" lon="10.0137094"><ele>750.0</ele><time>2026-04-04T17:39:17.679Z</time></trkpt><trkpt lat="44.5600095" lon="10.0139077"><ele>750.0</ele><time>2026-04-04T17:39:18.679Z</time></trkpt><trkpt lat="44.5601245" lon="10.0140667"><ele>750.0</ele><time>2026-04-04T17:39:19.676Z</time></trkpt><trkpt lat="44.5602839" lon="10.0141683"><ele>750.0</ele><time>2026-04-04T17:39:20.679Z</time></trkpt><trkpt lat="44.5604913" lon="10.0142004"><ele>750.0</ele><time>2026-04-04T17:39:21.678Z</time></trkpt><trkpt lat="44.5607205" lon="10.0142124"><ele>744.5</ele><time>2026-04-04T17:39:22.676Z</time></trkpt><trkpt lat="44.5609407" lon="10.0142474"><ele>739.0</ele><time>2026-04-04T17:39:23.671Z</time></trkpt><trkpt lat="44.5611614" lon="10.0143286"><ele>733.5</ele><time>2026-04-04T17:39:24.677Z</time></trkpt><trkpt lat="44.5613727" lon="10.0144821"><ele>728.0</ele><time>2026-04-04T17:39:25.676Z</time></trkpt><trkpt lat="44.5615737" lon="10.0146513"><ele>728.0</ele><time>2026-04-04T17:39:26.679Z</time></trkpt><trkpt lat="44.5617654" lon="10.0147952"><ele>728.0</ele><time>2026-04-04T17:39:27.667Z</time></trkpt><trkpt lat="44.5619464" lon="10.0149198"><ele>728.0</ele><time>2026-04-04T17:39:28.678Z</time></trkpt><trkpt lat="44.5621195" lon="10.0150004"><ele>729.3333333333333</ele><time>2026-04-04T17:39:29.68Z</time></trkpt><trkpt lat="44.5623001" lon="10.0150133"><ele>730.6666666666666</ele><time>2026-04-04T17:39:30.704Z</time></trkpt><trkpt lat="44.5624957" lon="10.0149342"><ele>732.0</ele><time>2026-04-04T17:39:31.676Z</time></trkpt><trkpt lat="44.5626615" lon="10.0148621"><ele>729.0</ele><time>2026-04-04T17:39:32.677Z</time></trkpt><trkpt lat="44.5627833" lon="10.0148163"><ele>726.0</ele><time>2026-04-04T17:39:33.679Z</time></trkpt><trkpt lat="44.5629051" lon="10.0148273"><ele>723.0</ele><time>2026-04-04T17:39:34.677Z</time></trkpt><trkpt lat="44.5629948" lon="10.0149204"><ele>720.0</ele><time>2026-04-04T17:39:35.672Z</time></trkpt><trkpt lat="44.5630489" lon="10.0151231"><ele>718.6666666666666</ele><time>2026-04-04T17:39:36.675Z</time></trkpt><trkpt lat="44.5631153" lon="10.0154061"><ele>717.3333333333333</ele><time>2026-04-04T17:39:37.676Z</time></trkpt><trkpt lat="44.5631699" lon="10.015723"><ele>716.0</ele><time>2026-04-04T17:39:38.664Z</time></trkpt><trkpt lat="44.5632269" lon="10.016"><ele>716.0</ele><time>2026-04-04T17:39:39.674Z</time></trkpt><trkpt lat="44.563305" lon="10.016249"><ele>716.0</ele><time>2026-04-04T17:39:40.673Z</time></trkpt><trkpt lat="44.5634452" lon="10.0164751"><ele>716.0</ele><time>2026-04-04T17:39:41.673Z</time></trkpt><trkpt lat="44.5636415" lon="10.0166792"><ele>714.6666666666666</ele><time>2026-04-04T17:39:42.677Z</time></trkpt><trkpt lat="44.5638436" lon="10.016857"><ele>713.3333333333334</ele><time>2026-04-04T17:39:43.677Z</time></trkpt><trkpt lat="44.5640139" lon="10.0169913"><ele>712.0</ele><time>2026-04-04T17:39:44.676Z</time></trkpt><trkpt lat="44.5641756" lon="10.0170787"><ele>712.0</ele><time>2026-04-04T17:39:45.674Z</time></trkpt><trkpt lat="44.5643673" lon="10.017127"><ele>712.0</ele><time>2026-04-04T17:39:46.674Z</time></trkpt><trkpt lat="44.5645647" lon="10.0171293"><ele>712.0</ele><time>2026-04-04T17:39:47.671Z</time></trkpt><trkpt lat="44.5647508" lon="10.0171718"><ele>713.0</ele><time>2026-04-04T17:39:48.673Z</time></trkpt><trkpt lat="44.5649082" lon="10.0172635"><ele>714.0</ele><time>2026-04-04T17:39:49.676Z</time></trkpt><trkpt lat="44.5650601" lon="10.0174239"><ele>715.0</ele><time>2026-04-04T17:39:50.67Z</time></trkpt><trkpt lat="44.5652396" lon="10.0175536"><ele>712.5</ele><time>2026-04-04T17:39:51.678Z</time></trkpt><trkpt lat="44.5654556" lon="10.0176373"><ele>710.0</ele><time>2026-04-04T17:39:52.677Z</time></trkpt><trkpt lat="44.565696" lon="10.0176872"><ele>710.0</ele><time>2026-04-04T17:39:53.675Z</time></trkpt><trkpt lat="44.5659414" lon="10.0177441"><ele>710.0</ele><time>2026-04-04T17:39:54.67Z</time></trkpt><trkpt lat="44.5661671" lon="10.0178135"><ele>709.5</ele><time>2026-04-04T17:39:55.674Z</time></trkpt><trkpt lat="44.56638" lon="10.0179202"><ele>709.0</ele><time>2026-04-04T17:39:56.683Z</time></trkpt><trkpt lat="44.5665929" lon="10.0180821"><ele>709.0</ele><time>2026-04-04T17:39:57.68Z</time></trkpt><trkpt lat="44.5668156" lon="10.0182854"><ele>709.0</ele><time>2026-04-04T17:39:58.673Z</time></trkpt><trkpt lat="44.567071" lon="10.0185201"><ele>711.0</ele><time>2026-04-04T17:39:59.678Z</time></trkpt><trkpt lat="44.5673725" lon="10.0187926"><ele>713.0</ele><time>2026-04-04T17:40:00.68Z</time></trkpt><trkpt lat="44.5677118" lon="10.0190953"><ele>709.5</ele><time>2026-04-04T17:40:01.67Z</time></trkpt><trkpt lat="44.5680504" lon="10.019387"><ele>706.0</ele><time>2026-04-04T17:40:02.67Z</time></trkpt><trkpt lat="44.5683541" lon="10.0196534"><ele>706.0</ele><time>2026-04-04T17:40:03.672Z</time></trkpt><trkpt lat="44.568627" lon="10.0198947"><ele>706.0</ele><time>2026-04-04T17:40:04.677Z</time></trkpt><trkpt lat="44.5688612" lon="10.020105"><ele>708.5</ele><time>2026-04-04T17:40:05.67Z</time></trkpt><trkpt lat="44.5690686" lon="10.0202948"><ele>711.0</ele><time>2026-04-04T17:40:06.671Z</time></trkpt><trkpt lat="44.5692469" lon="10.0204473"><ele>711.0</ele><time>2026-04-04T17:40:07.679Z</time></trkpt><trkpt lat="44.5694182" lon="10.0205333"><ele>711.0</ele><time>2026-04-04T17:40:08.677Z</time></trkpt><trkpt lat="44.5696121" lon="10.0205727"><ele>711.0</ele><time>2026-04-04T17:40:09.685Z</time></trkpt><trkpt lat="44.5698145" lon="10.0205386"><ele>713.3333333333334</ele><time>2026-04-04T17:40:10.672Z</time></trkpt><trkpt lat="44.5700333" lon="10.0204966"><ele>715.6666666666667</ele><time>2026-04-04T17:40:11.672Z</time></trkpt><trkpt lat="44.5702214" lon="10.0204816"><ele>718.0</ele><time>2026-04-04T17:40:12.674Z</time></trkpt><trkpt lat="44.5703778" lon="10.0205263"><ele>718.3333333333334</ele><time>2026-04-04T17:40:13.68Z</time></trkpt><trkpt lat="44.5705241" lon="10.0206618"><ele>718.6666666666666</ele><time>2026-04-04T17:40:14.678Z</time></trkpt><trkpt lat="44.5706657" lon="10.020869"><ele>719.0</ele><time>2026-04-04T17:40:15.677Z</time></trkpt><trkpt lat="44.5708268" lon="10.0211269"><ele>722.3333333333333</ele><time>2026-04-04T17:40:16.673Z</time></trkpt><trkpt lat="44.570986" lon="10.0213611"><ele>725.6666666666666</ele><time>2026-04-04T17:40:17.681Z</time></trkpt><trkpt lat="44.5711496" lon="10.0215523"><ele>729.0</ele><time>2026-04-04T17:40:18.686Z</time></trkpt><trkpt lat="44.5713621" lon="10.021692"><ele>735.0</ele><time>2026-04-04T17:40:19.679Z</time></trkpt><trkpt lat="44.5716159" lon="10.0218106"><ele>741.0</ele><time>2026-04-04T17:40:20.677Z</time></trkpt><trkpt lat="44.5719008" lon="10.0219322"><ele>742.5</ele><time>2026-04-04T17:40:21.681Z</time></trkpt><trkpt lat="44.572146" lon="10.0220493"><ele>744.0</ele><time>2026-04-04T17:40:22.68Z</time></trkpt><trkpt lat="44.5723428" lon="10.0221672"><ele>744.0</ele><time>2026-04-04T17:40:23.675Z</time></trkpt><trkpt lat="44.5725147" lon="10.0223014"><ele>744.0</ele><time>2026-04-04T17:40:24.656Z</time></trkpt><trkpt lat="44.5726785" lon="10.022504"><ele>744.0</ele><time>2026-04-04T17:40:25.684Z</time></trkpt><trkpt lat="44.5728206" lon="10.022759"><ele>740.5</ele><time>2026-04-04T17:40:26.689Z</time></trkpt><trkpt lat="44.572951" lon="10.0230671"><ele>737.0</ele><time>2026-04-04T17:40:27.68Z</time></trkpt><trkpt lat="44.5730757" lon="10.0233796"><ele>737.0</ele><time>2026-04-04T17:40:28.692Z</time></trkpt><trkpt lat="44.5731951" lon="10.0236515"><ele>737.0</ele><time>2026-04-04T17:40:29.683Z</time></trkpt><trkpt lat="44.5733207" lon="10.0238593"><ele>737.0</ele><time>2026-04-04T17:40:30.69Z</time></trkpt><trkpt lat="44.5734676" lon="10.0240072"><ele>737.0</ele><time>2026-04-04T17:40:31.677Z</time></trkpt><trkpt lat="44.573674" lon="10.0241302"><ele>737.0</ele><time>2026-04-04T17:40:32.675Z</time></trkpt><trkpt lat="44.5739408" lon="10.0242238"><ele>737.0</ele><time>2026-04-04T17:40:33.682Z</time></trkpt><trkpt lat="44.5742543" lon="10.024323"><ele>737.0</ele><time>2026-04-04T17:40:34.676Z</time></trkpt><trkpt lat="44.5745803" lon="10.0244413"><ele>734.0</ele><time>2026-04-04T17:40:35.676Z</time></trkpt><trkpt lat="44.5748604" lon="10.0245512"><ele>731.0</ele><time>2026-04-04T17:40:36.68Z</time></trkpt><trkpt lat="44.5751106" lon="10.0246514"><ele>731.0</ele><time>2026-04-04T17:40:37.671Z</time></trkpt><trkpt lat="44.5753383" lon="10.0247461"><ele>731.0</ele><time>2026-04-04T17:40:38.681Z</time></trkpt><trkpt lat="44.5755609" lon="10.0248685"><ele>732.5</ele><time>2026-04-04T17:40:39.684Z</time></trkpt><trkpt lat="44.575783" lon="10.025077"><ele>734.0</ele><time>2026-04-04T17:40:40.688Z</time></trkpt><trkpt lat="44.576013" lon="10.0253328"><ele>731.0</ele><time>2026-04-04T17:40:41.675Z</time></trkpt><trkpt lat="44.5762532" lon="10.0255913"><ele>728.0</ele><time>2026-04-04T17:40:42.676Z</time></trkpt><trkpt lat="44.576479" lon="10.0258339"><ele>732.0</ele><time>2026-04-04T17:40:43.676Z</time></trkpt><trkpt lat="44.5766708" lon="10.0260439"><ele>736.0</ele><time>2026-04-04T17:40:44.68Z</time></trkpt><trkpt lat="44.57682" lon="10.0262356"><ele>740.0</ele><time>2026-04-04T17:40:45.678Z</time></trkpt><trkpt lat="44.5769228" lon="10.0264741"><ele>738.3333333333333</ele><time>2026-04-04T17:40:46.677Z</time></trkpt><trkpt lat="44.5769732" lon="10.0267506"><ele>736.6666666666666</ele><time>2026-04-04T17:40:47.679Z</time></trkpt><trkpt lat="44.5770478" lon="10.0270693"><ele>735.0</ele><time>2026-04-04T17:40:48.675Z</time></trkpt><trkpt lat="44.5771622" lon="10.0273766"><ele>739.5</ele><time>2026-04-04T17:40:49.679Z</time></trkpt><trkpt lat="44.5772745" lon="10.0276834"><ele>744.0</ele><time>2026-04-04T17:40:50.671Z</time></trkpt><trkpt lat="44.5773552" lon="10.0279687"><ele>744.0</ele><time>2026-04-04T17:40:51.668Z</time></trkpt><trkpt lat="44.5774034" lon="10.0282261"><ele>744.0</ele><time>2026-04-04T17:40:52.681Z</time></trkpt><trkpt lat="44.5774775" lon="10.0284607"><ele>744.0</ele><time>2026-04-04T17:40:53.682Z</time></trkpt><trkpt lat="44.5776121" lon="10.0286601"><ele>746.3333333333334</ele><time>2026-04-04T17:40:54.676Z</time></trkpt><trkpt lat="44.5777851" lon="10.0288472"><ele>748.6666666666667</ele><time>2026-04-04T17:40:55.675Z</time></trkpt><trkpt lat="44.5779288" lon="10.0290338"><ele>751.0</ele><time>2026-04-04T17:40:56.685Z</time></trkpt><trkpt lat="44.5780004" lon="10.0292475"><ele>754.3333333333334</ele><time>2026-04-04T17:40:57.679Z</time></trkpt><trkpt lat="44.5780266" lon="10.0295036"><ele>757.6666666666666</ele><time>2026-04-04T17:40:58.678Z</time></trkpt><trkpt lat="44.5780357" lon="10.0297671"><ele>761.0</ele><time>2026-04-04T17:40:59.669Z</time></trkpt><trkpt lat="44.5780884" lon="10.0300241"><ele>761.0</ele><time>2026-04-04T17:41:00.679Z</time></trkpt><trkpt lat="44.5781858" lon="10.0302343"><ele>761.0</ele><time>2026-04-04T17:41:01.672Z</time></trkpt><trkpt lat="44.5783332" lon="10.0304025"><ele>761.0</ele><time>2026-04-04T17:41:02.676Z</time></trkpt><trkpt lat="44.5785104" lon="10.0305418"><ele>764.0</ele><time>2026-04-04T17:41:03.678Z</time></trkpt><trkpt lat="44.5786854" lon="10.0306575"><ele>767.0</ele><time>2026-04-04T17:41:04.675Z</time></trkpt><trkpt lat="44.5788579" lon="10.0307107"><ele>770.0</ele><time>2026-04-04T17:41:05.674Z</time></trkpt><trkpt lat="44.5790395" lon="10.030699"><ele>770.0</ele><time>2026-04-04T17:41:06.678Z</time></trkpt><trkpt lat="44.5792324" lon="10.0306118"><ele>770.0</ele><time>2026-04-04T17:41:07.672Z</time></trkpt><trkpt lat="44.5794348" lon="10.0304675"><ele>770.0</ele><time>2026-04-04T17:41:08.677Z</time></trkpt><trkpt lat="44.5796534" lon="10.0303421"><ele>770.0</ele><time>2026-04-04T17:41:09.675Z</time></trkpt><trkpt lat="44.5798855" lon="10.0302602"><ele>770.0</ele><time>2026-04-04T17:41:10.684Z</time></trkpt><trkpt lat="44.5801176" lon="10.0302025"><ele>771.5</ele><time>2026-04-04T17:41:11.68Z</time></trkpt><trkpt lat="44.5803638" lon="10.030192"><ele>773.0</ele><time>2026-04-04T17:41:12.681Z</time></trkpt><trkpt lat="44.5806336" lon="10.0302489"><ele>773.0</ele><time>2026-04-04T17:41:13.678Z</time></trkpt><trkpt lat="44.5809138" lon="10.0303579"><ele>773.0</ele><time>2026-04-04T17:41:14.679Z</time></trkpt><trkpt lat="44.5811838" lon="10.0304444"><ele>771.6666666666667</ele><time>2026-04-04T17:41:15.67Z</time></trkpt><trkpt lat="44.5814186" lon="10.0305144"><ele>770.3333333333333</ele><time>2026-04-04T17:41:16.679Z</time></trkpt><trkpt lat="44.5816118" lon="10.0305967"><ele>769.0</ele><time>2026-04-04T17:41:17.681Z</time></trkpt><trkpt lat="44.5817987" lon="10.0307354"><ele>768.5</ele><time>2026-04-04T17:41:18.682Z</time></trkpt><trkpt lat="44.5819846" lon="10.0309537"><ele>768.0</ele><time>2026-04-04T17:41:19.681Z</time></trkpt><trkpt lat="44.5821969" lon="10.0312233"><ele>766.5</ele><time>2026-04-04T17:41:20.682Z</time></trkpt><trkpt lat="44.5824366" lon="10.0315199"><ele>765.0</ele><time>2026-04-04T17:41:21.69Z</time></trkpt><trkpt lat="44.5826571" lon="10.0317698"><ele>770.0</ele><time>2026-04-04T17:41:22.684Z</time></trkpt><trkpt lat="44.5828777" lon="10.0319659"><ele>775.0</ele><time>2026-04-04T17:41:23.689Z</time></trkpt><trkpt lat="44.5831007" lon="10.0320849"><ele>775.0</ele><time>2026-04-04T17:41:24.691Z</time></trkpt><trkpt lat="44.5833257" lon="10.0321733"><ele>775.0</ele><time>2026-04-04T17:41:25.686Z</time></trkpt><trkpt lat="44.5835297" lon="10.0322235"><ele>775.0</ele><time>2026-04-04T17:41:26.683Z</time></trkpt><trkpt lat="44.583737" lon="10.0323028"><ele>775.0</ele><time>2026-04-04T17:41:27.678Z</time></trkpt><trkpt lat="44.5839354" lon="10.0324182"><ele>775.0</ele><time>2026-04-04T17:41:28.687Z</time></trkpt><trkpt lat="44.5841069" lon="10.0325866"><ele>775.0</ele><time>2026-04-04T17:41:29.691Z</time></trkpt><trkpt lat="44.5842554" lon="10.0327447"><ele>779.3333333333333</ele><time>2026-04-04T17:41:30.692Z</time></trkpt><trkpt lat="44.5843962" lon="10.03289"><ele>783.6666666666667</ele><time>2026-04-04T17:41:31.685Z</time></trkpt><trkpt lat="44.584522" lon="10.033033"><ele>788.0</ele><time>2026-04-04T17:41:32.686Z</time></trkpt><trkpt lat="44.5846411" lon="10.0331876"><ele>791.0</ele><time>2026-04-04T17:41:33.681Z</time></trkpt><trkpt lat="44.5847539" lon="10.033351"><ele>794.0</ele><time>2026-04-04T17:41:34.685Z</time></trkpt><trkpt lat="44.5848625" lon="10.0335152"><ele>797.0</ele><time>2026-04-04T17:41:35.687Z</time></trkpt><trkpt lat="44.5849776" lon="10.0336718"><ele>797.0</ele><time>2026-04-04T17:41:36.686Z</time></trkpt><trkpt lat="44.585091" lon="10.0338334"><ele>797.0</ele><time>2026-04-04T17:41:37.683Z</time></trkpt><trkpt lat="44.5852099" lon="10.0339873"><ele>797.0</ele><time>2026-04-04T17:41:38.687Z</time></trkpt><trkpt lat="44.5853399" lon="10.0341241"><ele>798.3333333333334</ele><time>2026-04-04T17:41:39.696Z</time></trkpt><trkpt lat="44.5854846" lon="10.0342224"><ele>799.6666666666667</ele><time>2026-04-04T17:41:40.687Z</time></trkpt><trkpt lat="44.5856375" lon="10.0342944"><ele>801.0</ele><time>2026-04-04T17:41:41.686Z</time></trkpt><trkpt lat="44.5857876" lon="10.0343437"><ele>801.0</ele><time>2026-04-04T17:41:42.692Z</time></trkpt><trkpt lat="44.5859264" lon="10.034375"><ele>801.0</ele><time>2026-04-04T17:41:43.683Z</time></trkpt><trkpt lat="44.5860463" lon="10.0344042"><ele>801.0</ele><time>2026-04-04T17:41:44.682Z</time></trkpt><trkpt lat="44.5861574" lon="10.0344361"><ele>801.0</ele><time>2026-04-04T17:41:45.681Z</time></trkpt><trkpt lat="44.5862726" lon="10.0344647"><ele>801.5999999999999</ele><time>2026-04-04T17:41:46.677Z</time></trkpt><trkpt lat="44.5863976" lon="10.0345139"><ele>802.2</ele><time>2026-04-04T17:41:47.677Z</time></trkpt><trkpt lat="44.5865032" lon="10.0345464"><ele>802.8</ele><time>2026-04-04T17:41:48.675Z</time></trkpt><trkpt lat="44.5866069" lon="10.0345888"><ele>803.4000000000001</ele><time>2026-04-04T17:41:49.68Z</time></trkpt><trkpt lat="44.5867051" lon="10.03463"><ele>804.0</ele><time>2026-04-04T17:41:50.685Z</time></trkpt><trkpt lat="44.5867816" lon="10.0346645"><ele>804.0</ele><time>2026-04-04T17:41:51.687Z</time></trkpt><trkpt lat="44.5868443" lon="10.0346957"><ele>804.0</ele><time>2026-04-04T17:41:52.686Z</time></trkpt><trkpt lat="44.5869422" lon="10.0347378"><ele>804.0</ele><time>2026-04-04T17:41:54.692Z</time></trkpt><trkpt lat="44.5870085" lon="10.034763"><ele>804.0</ele><time>2026-04-04T17:41:56.683Z</time></trkpt><trkpt lat="44.5870763" lon="10.0347914"><ele>804.0</ele><time>2026-04-04T17:41:58.685Z</time></trkpt><trkpt lat="44.5871636" lon="10.0348467"><ele>804.0</ele><time>2026-04-04T17:42:00.691Z</time></trkpt><trkpt lat="44.5872352" lon="10.0348299"><ele>805.6</ele><time>2026-04-04T17:43:45.702Z</time></trkpt><trkpt lat="44.5873113" lon="10.0348369"><ele>807.2</ele><time>2026-04-04T17:43:47.699Z</time></trkpt><trkpt lat="44.5873814" lon="10.0348716"><ele>808.8000000000001</ele><time>2026-04-04T17:43:48.692Z</time></trkpt><trkpt lat="44.5874712" lon="10.0349291"><ele>810.4000000000001</ele><time>2026-04-04T17:43:49.68Z</time></trkpt><trkpt lat="44.5875572" lon="10.0350521"><ele>812.0</ele><time>2026-04-04T17:43:50.686Z</time></trkpt><trkpt lat="44.5876058" lon="10.035221"><ele>814.0</ele><time>2026-04-04T17:43:51.691Z</time></trkpt><trkpt lat="44.5876074" lon="10.0354323"><ele>816.0</ele><time>2026-04-04T17:43:52.689Z</time></trkpt><trkpt lat="44.5875554" lon="10.0356526"><ele>818.0</ele><time>2026-04-04T17:43:53.684Z</time></trkpt><trkpt lat="44.5875269" lon="10.0358597"><ele>819.6666666666667</ele><time>2026-04-04T17:43:54.693Z</time></trkpt><trkpt lat="44.5875524" lon="10.0360813"><ele>821.3333333333333</ele><time>2026-04-04T17:43:55.688Z</time></trkpt><trkpt lat="44.5876383" lon="10.0363179"><ele>823.0</ele><time>2026-04-04T17:43:56.692Z</time></trkpt><trkpt lat="44.5877281" lon="10.0365703"><ele>824.0</ele><time>2026-04-04T17:43:57.693Z</time></trkpt><trkpt lat="44.5877835" lon="10.0368141"><ele>825.0</ele><time>2026-04-04T17:43:58.685Z</time></trkpt><trkpt lat="44.5877966" lon="10.0370914"><ele>826.0</ele><time>2026-04-04T17:43:59.681Z</time></trkpt><trkpt lat="44.587745" lon="10.0373853"><ele>827.5</ele><time>2026-04-04T17:44:00.69Z</time></trkpt><trkpt lat="44.5876771" lon="10.0377279"><ele>829.0</ele><time>2026-04-04T17:44:01.679Z</time></trkpt><trkpt lat="44.5876172" lon="10.0380942"><ele>833.5</ele><time>2026-04-04T17:44:02.677Z</time></trkpt><trkpt lat="44.5875542" lon="10.0384677"><ele>838.0</ele><time>2026-04-04T17:44:03.691Z</time></trkpt><trkpt lat="44.5874948" lon="10.0388058"><ele>838.0</ele><time>2026-04-04T17:44:04.679Z</time></trkpt><trkpt lat="44.5874295" lon="10.039105"><ele>838.0</ele><time>2026-04-04T17:44:05.682Z</time></trkpt><trkpt lat="44.5873283" lon="10.0393713"><ele>838.0</ele><time>2026-04-04T17:44:06.683Z</time></trkpt><trkpt lat="44.5871798" lon="10.0396193"><ele>839.6666666666666</ele><time>2026-04-04T17:44:07.675Z</time></trkpt><trkpt lat="44.5870124" lon="10.0398313"><ele>841.3333333333333</ele><time>2026-04-04T17:44:08.675Z</time></trkpt><trkpt lat="44.5868585" lon="10.0400245"><ele>843.0</ele><time>2026-04-04T17:44:09.677Z</time></trkpt><trkpt lat="44.586751" lon="10.0402079"><ele>843.0</ele><time>2026-04-04T17:44:10.676Z</time></trkpt><trkpt lat="44.5866796" lon="10.0404137"><ele>843.0</ele><time>2026-04-04T17:44:11.681Z</time></trkpt><trkpt lat="44.5866449" lon="10.0406849"><ele>843.0</ele><time>2026-04-04T17:44:12.686Z</time></trkpt><trkpt lat="44.586615" lon="10.0410074"><ele>848.0</ele><time>2026-04-04T17:44:13.669Z</time></trkpt><trkpt lat="44.5865832" lon="10.0412742"><ele>853.0</ele><time>2026-04-04T17:44:14.684Z</time></trkpt><trkpt lat="44.5865758" lon="10.0415113"><ele>858.0</ele><time>2026-04-04T17:44:15.679Z</time></trkpt><trkpt lat="44.5866012" lon="10.0417774"><ele>860.0</ele><time>2026-04-04T17:44:16.685Z</time></trkpt><trkpt lat="44.586694" lon="10.0420748"><ele>862.0</ele><time>2026-04-04T17:44:17.697Z</time></trkpt><trkpt lat="44.5868188" lon="10.0423817"><ele>859.3333333333333</ele><time>2026-04-04T17:44:18.679Z</time></trkpt><trkpt lat="44.5869422" lon="10.0426687"><ele>856.6666666666667</ele><time>2026-04-04T17:44:19.676Z</time></trkpt><trkpt lat="44.5870187" lon="10.0429186"><ele>854.0</ele><time>2026-04-04T17:44:20.673Z</time></trkpt><trkpt lat="44.5870265" lon="10.0431626"><ele>853.0</ele><time>2026-04-04T17:44:21.67Z</time></trkpt><trkpt lat="44.586967" lon="10.0434161"><ele>852.0</ele><time>2026-04-04T17:44:22.673Z</time></trkpt><trkpt lat="44.5869181" lon="10.0437048"><ele>851.0</ele><time>2026-04-04T17:44:23.678Z</time></trkpt><trkpt lat="44.5868947" lon="10.044064"><ele>853.5</ele><time>2026-04-04T17:44:24.662Z</time></trkpt><trkpt lat="44.5868655" lon="10.0444943"><ele>856.0</ele><time>2026-04-04T17:44:25.666Z</time></trkpt><trkpt lat="44.5868167" lon="10.0448714"><ele>860.6666666666666</ele><time>2026-04-04T17:44:26.674Z</time></trkpt><trkpt lat="44.5867652" lon="10.0451647"><ele>865.3333333333333</ele><time>2026-04-04T17:44:27.671Z</time></trkpt><trkpt lat="44.5866758" lon="10.0454014"><ele>870.0</ele><time>2026-04-04T17:44:28.667Z</time></trkpt><trkpt lat="44.5865252" lon="10.0456324"><ele>878.0</ele><time>2026-04-04T17:44:29.672Z</time></trkpt><trkpt lat="44.5863811" lon="10.0458877"><ele>886.0</ele><time>2026-04-04T17:44:30.678Z</time></trkpt><trkpt lat="44.5862639" lon="10.0462152"><ele>867.5</ele><time>2026-04-04T17:44:31.672Z</time></trkpt><trkpt lat="44.5861778" lon="10.0465666"><ele>849.0</ele><time>2026-04-04T17:44:32.671Z</time></trkpt><trkpt lat="44.5861281" lon="10.0468624"><ele>849.0</ele><time>2026-04-04T17:44:33.682Z</time></trkpt><trkpt lat="44.5861196" lon="10.0470848"><ele>849.0</ele><time>2026-04-04T17:44:34.681Z</time></trkpt><trkpt lat="44.5861511" lon="10.047231"><ele>849.0</ele><time>2026-04-04T17:44:35.692Z</time></trkpt><trkpt lat="44.5862228" lon="10.047311"><ele>849.0</ele><time>2026-04-04T17:44:36.688Z</time></trkpt><trkpt lat="44.5863612" lon="10.0473449"><ele>863.3333333333333</ele><time>2026-04-04T17:44:37.687Z</time></trkpt><trkpt lat="44.5865381" lon="10.0473268"><ele>877.6666666666666</ele><time>2026-04-04T17:44:38.68Z</time></trkpt><trkpt lat="44.5867568" lon="10.0473171"><ele>892.0</ele><time>2026-04-04T17:44:39.69Z</time></trkpt><trkpt lat="44.5870056" lon="10.0473415"><ele>901.5</ele><time>2026-04-04T17:44:40.686Z</time></trkpt><trkpt lat="44.5872538" lon="10.0473758"><ele>911.0</ele><time>2026-04-04T17:44:41.687Z</time></trkpt><trkpt lat="44.587467" lon="10.0474035"><ele>911.0</ele><time>2026-04-04T17:44:42.689Z</time></trkpt><trkpt lat="44.5876188" lon="10.047433"><ele>911.0</ele><time>2026-04-04T17:44:43.684Z</time></trkpt><trkpt lat="44.5877288" lon="10.0475088"><ele>911.0</ele><time>2026-04-04T17:44:44.681Z</time></trkpt><trkpt lat="44.5877925" lon="10.0476504"><ele>911.0</ele><time>2026-04-04T17:44:45.685Z</time></trkpt><trkpt lat="44.5878128" lon="10.0478402"><ele>906.0</ele><time>2026-04-04T17:44:46.683Z</time></trkpt><trkpt lat="44.5877529" lon="10.0480394"><ele>901.0</ele><time>2026-04-04T17:44:47.685Z</time></trkpt><trkpt lat="44.5876653" lon="10.0482713"><ele>896.0</ele><time>2026-04-04T17:44:48.682Z</time></trkpt><trkpt lat="44.5875505" lon="10.0484969"><ele>894.5</ele><time>2026-04-04T17:44:49.671Z</time></trkpt><trkpt lat="44.587462" lon="10.0486846"><ele>893.0</ele><time>2026-04-04T17:44:50.682Z</time></trkpt><trkpt lat="44.5874334" lon="10.0488237"><ele>891.5</ele><time>2026-04-04T17:44:51.689Z</time></trkpt><trkpt lat="44.5874591" lon="10.0489494"><ele>890.0</ele><time>2026-04-04T17:44:52.692Z</time></trkpt><trkpt lat="44.5875311" lon="10.0490543"><ele>890.0</ele><time>2026-04-04T17:44:53.677Z</time></trkpt><trkpt lat="44.5876533" lon="10.0491191"><ele>890.0</ele><time>2026-04-04T17:44:54.688Z</time></trkpt><trkpt lat="44.5878233" lon="10.0491509"><ele>890.0</ele><time>2026-04-04T17:44:55.688Z</time></trkpt><trkpt lat="44.5880422" lon="10.0491577"><ele>896.3333333333334</ele><time>2026-04-04T17:44:56.688Z</time></trkpt><trkpt lat="44.5882467" lon="10.0491776"><ele>902.6666666666667</ele><time>2026-04-04T17:44:57.684Z</time></trkpt><trkpt lat="44.5884468" lon="10.0492423"><ele>909.0</ele><time>2026-04-04T17:44:58.676Z</time></trkpt><trkpt lat="44.5886429" lon="10.0493882"><ele>918.5</ele><time>2026-04-04T17:44:59.675Z</time></trkpt><trkpt lat="44.5888341" lon="10.0495969"><ele>928.0</ele><time>2026-04-04T17:45:00.684Z</time></trkpt><trkpt lat="44.5890049" lon="10.0498117"><ele>923.3333333333333</ele><time>2026-04-04T17:45:01.68Z</time></trkpt><trkpt lat="44.5891488" lon="10.0500297"><ele>918.6666666666667</ele><time>2026-04-04T17:45:02.683Z</time></trkpt><trkpt lat="44.5892813" lon="10.0502594"><ele>914.0</ele><time>2026-04-04T17:45:03.681Z</time></trkpt><trkpt lat="44.5893974" lon="10.0504999"><ele>914.0</ele><time>2026-04-04T17:45:04.671Z</time></trkpt><trkpt lat="44.5894755" lon="10.0507733"><ele>914.0</ele><time>2026-04-04T17:45:05.686Z</time></trkpt><trkpt lat="44.5895071" lon="10.0510535"><ele>914.0</ele><time>2026-04-04T17:45:06.681Z</time></trkpt><trkpt lat="44.5895325" lon="10.0513342"><ele>920.3333333333334</ele><time>2026-04-04T17:45:07.675Z</time></trkpt><trkpt lat="44.589534" lon="10.0516185"><ele>926.6666666666667</ele><time>2026-04-04T17:45:08.677Z</time></trkpt><trkpt lat="44.5895208" lon="10.0519069"><ele>933.0</ele><time>2026-04-04T17:45:09.679Z</time></trkpt><trkpt lat="44.5895016" lon="10.0522026"><ele>921.0</ele><time>2026-04-04T17:45:10.674Z</time></trkpt><trkpt lat="44.5894862" lon="10.0524806"><ele>909.0</ele><time>2026-04-04T17:45:11.681Z</time></trkpt><trkpt lat="44.5894709" lon="10.0527177"><ele>897.0</ele><time>2026-04-04T17:45:12.677Z</time></trkpt><trkpt lat="44.5894667" lon="10.0529401"><ele>897.0</ele><time>2026-04-04T17:45:13.684Z</time></trkpt><trkpt lat="44.589466" lon="10.0531398"><ele>897.0</ele><time>2026-04-04T17:45:14.691Z</time></trkpt><trkpt lat="44.5894868" lon="10.0533303"><ele>897.0</ele><time>2026-04-04T17:45:15.692Z</time></trkpt><trkpt lat="44.5895423" lon="10.053502"><ele>897.0</ele><time>2026-04-04T17:45:16.696Z</time></trkpt><trkpt lat="44.5896529" lon="10.0536438"><ele>905.6666666666667</ele><time>2026-04-04T17:45:17.7Z</time></trkpt><trkpt lat="44.5898081" lon="10.0537803"><ele>914.3333333333334</ele><time>2026-04-04T17:45:18.692Z</time></trkpt><trkpt lat="44.5899626" lon="10.0539115"><ele>923.0</ele><time>2026-04-04T17:45:19.696Z</time></trkpt><trkpt lat="44.5901005" lon="10.0540594"><ele>921.5</ele><time>2026-04-04T17:45:20.69Z</time></trkpt><trkpt lat="44.590224" lon="10.0542074"><ele>920.0</ele><time>2026-04-04T17:45:21.69Z</time></trkpt><trkpt lat="44.5903433" lon="10.0543266"><ele>918.5</ele><time>2026-04-04T17:45:22.693Z</time></trkpt><trkpt lat="44.5904751" lon="10.0543954"><ele>917.0</ele><time>2026-04-04T17:45:23.697Z</time></trkpt><trkpt lat="44.5906264" lon="10.0544192"><ele>917.0</ele><time>2026-04-04T17:45:24.702Z</time></trkpt><trkpt lat="44.590773" lon="10.0544359"><ele>917.0</ele><time>2026-04-04T17:45:25.696Z</time></trkpt><trkpt lat="44.5908939" lon="10.0545025"><ele>917.0</ele><time>2026-04-04T17:45:26.708Z</time></trkpt><trkpt lat="44.5909767" lon="10.0546424"><ele>917.0</ele><time>2026-04-04T17:45:27.703Z</time></trkpt><trkpt lat="44.5910243" lon="10.0548434"><ele>916.0</ele><time>2026-04-04T17:45:28.701Z</time></trkpt><trkpt lat="44.5910637" lon="10.0550559"><ele>915.0</ele><time>2026-04-04T17:45:29.694Z</time></trkpt><trkpt lat="44.5911308" lon="10.05524"><ele>914.0</ele><time>2026-04-04T17:45:30.707Z</time></trkpt><trkpt lat="44.5912271" lon="10.0553676"><ele>913.0</ele><time>2026-04-04T17:45:31.702Z</time></trkpt><trkpt lat="44.5913446" lon="10.0554454"><ele>913.0</ele><time>2026-04-04T17:45:32.695Z</time></trkpt><trkpt lat="44.5914892" lon="10.0554611"><ele>913.0</ele><time>2026-04-04T17:45:33.703Z</time></trkpt><trkpt lat="44.5916614" lon="10.0554118"><ele>913.0</ele><time>2026-04-04T17:45:34.7Z</time></trkpt><trkpt lat="44.5918529" lon="10.0553389"><ele>911.6666666666666</ele><time>2026-04-04T17:45:35.698Z</time></trkpt><trkpt lat="44.5920459" lon="10.0552818"><ele>910.3333333333333</ele><time>2026-04-04T17:45:36.7Z</time></trkpt><trkpt lat="44.5922142" lon="10.0552547"><ele>909.0</ele><time>2026-04-04T17:45:37.703Z</time></trkpt><trkpt lat="44.5923675" lon="10.0552837"><ele>909.0</ele><time>2026-04-04T17:45:38.704Z</time></trkpt><trkpt lat="44.5924941" lon="10.0554025"><ele>909.0</ele><time>2026-04-04T17:45:39.705Z</time></trkpt><trkpt lat="44.5925932" lon="10.055584"><ele>909.0</ele><time>2026-04-04T17:45:40.697Z</time></trkpt><trkpt lat="44.5926992" lon="10.0557666"><ele>905.0</ele><time>2026-04-04T17:45:41.701Z</time></trkpt><trkpt lat="44.5928289" lon="10.0559231"><ele>901.0</ele><time>2026-04-04T17:45:42.708Z</time></trkpt><trkpt lat="44.5929494" lon="10.0560962"><ele>897.0</ele><time>2026-04-04T17:45:43.711Z</time></trkpt><trkpt lat="44.5930261" lon="10.0562971"><ele>896.0</ele><time>2026-04-04T17:45:44.712Z</time></trkpt><trkpt lat="44.5930617" lon="10.0565193"><ele>895.0</ele><time>2026-04-04T17:45:45.704Z</time></trkpt><trkpt lat="44.5931" lon="10.0567547"><ele>894.0</ele><time>2026-04-04T17:45:46.708Z</time></trkpt><trkpt lat="44.5931432" lon="10.0569907"><ele>892.6666666666667</ele><time>2026-04-04T17:45:47.708Z</time></trkpt><trkpt lat="44.593194" lon="10.0572299"><ele>891.3333333333334</ele><time>2026-04-04T17:45:48.709Z</time></trkpt><trkpt lat="44.5932522" lon="10.0574681"><ele>890.0</ele><time>2026-04-04T17:45:49.702Z</time></trkpt><trkpt lat="44.5933291" lon="10.0577"><ele>887.0</ele><time>2026-04-04T17:45:50.71Z</time></trkpt><trkpt lat="44.5934265" lon="10.057921"><ele>884.0</ele><time>2026-04-04T17:45:51.706Z</time></trkpt><trkpt lat="44.5935261" lon="10.0581187"><ele>881.0</ele><time>2026-04-04T17:45:52.71Z</time></trkpt><trkpt lat="44.5936416" lon="10.0582949"><ele>880.0</ele><time>2026-04-04T17:45:53.705Z</time></trkpt><trkpt lat="44.5937751" lon="10.0584452"><ele>879.0</ele><time>2026-04-04T17:45:54.713Z</time></trkpt><trkpt lat="44.5939385" lon="10.0585666"><ele>878.0</ele><time>2026-04-04T17:45:55.708Z</time></trkpt><trkpt lat="44.5941011" lon="10.0586834"><ele>878.0</ele><time>2026-04-04T17:45:56.715Z</time></trkpt><trkpt lat="44.5942367" lon="10.0588437"><ele>878.0</ele><time>2026-04-04T17:45:57.717Z</time></trkpt><trkpt lat="44.5943237" lon="10.0590598"><ele>878.0</ele><time>2026-04-04T17:45:58.713Z</time></trkpt><trkpt lat="44.5943596" lon="10.0592995"><ele>877.6666666666667</ele><time>2026-04-04T17:45:59.712Z</time></trkpt><trkpt lat="44.5943848" lon="10.0595454"><ele>877.3333333333333</ele><time>2026-04-04T17:46:00.718Z</time></trkpt><trkpt lat="44.5944174" lon="10.059792"><ele>877.0</ele><time>2026-04-04T17:46:01.704Z</time></trkpt><trkpt lat="44.5944656" lon="10.0600412"><ele>879.6666666666666</ele><time>2026-04-04T17:46:02.705Z</time></trkpt><trkpt lat="44.5945069" lon="10.0602868"><ele>882.3333333333333</ele><time>2026-04-04T17:46:03.7Z</time></trkpt><trkpt lat="44.5945495" lon="10.0605205"><ele>885.0</ele><time>2026-04-04T17:46:04.701Z</time></trkpt><trkpt lat="44.5945883" lon="10.0607426"><ele>887.0</ele><time>2026-04-04T17:46:05.702Z</time></trkpt><trkpt lat="44.5946342" lon="10.060964"><ele>889.0</ele><time>2026-04-04T17:46:06.705Z</time></trkpt><trkpt lat="44.5946946" lon="10.0611784"><ele>891.0</ele><time>2026-04-04T17:46:07.702Z</time></trkpt><trkpt lat="44.594776" lon="10.0613839"><ele>891.0</ele><time>2026-04-04T17:46:08.699Z</time></trkpt><trkpt lat="44.5948824" lon="10.0615941"><ele>891.0</ele><time>2026-04-04T17:46:09.701Z</time></trkpt><trkpt lat="44.5950041" lon="10.0618022"><ele>891.0</ele><time>2026-04-04T17:46:10.691Z</time></trkpt><trkpt lat="44.5951443" lon="10.0620039"><ele>891.0</ele><time>2026-04-04T17:46:11.698Z</time></trkpt><trkpt lat="44.5952896" lon="10.0621996"><ele>891.0</ele><time>2026-04-04T17:46:12.697Z</time></trkpt><trkpt lat="44.5954357" lon="10.0623861"><ele>891.0</ele><time>2026-04-04T17:46:13.698Z</time></trkpt><trkpt lat="44.5955704" lon="10.0625645"><ele>893.0</ele><time>2026-04-04T17:46:14.698Z</time></trkpt><trkpt lat="44.595683" lon="10.062734"><ele>895.0</ele><time>2026-04-04T17:46:15.698Z</time></trkpt><trkpt lat="44.5957672" lon="10.0629263"><ele>897.0</ele><time>2026-04-04T17:46:16.696Z</time></trkpt><trkpt lat="44.5958067" lon="10.0631474"><ele>893.3333333333333</ele><time>2026-04-04T17:46:17.696Z</time></trkpt><trkpt lat="44.5957915" lon="10.0633843"><ele>889.6666666666666</ele><time>2026-04-04T17:46:18.69Z</time></trkpt><trkpt lat="44.5957461" lon="10.0636363"><ele>886.0</ele><time>2026-04-04T17:46:19.685Z</time></trkpt><trkpt lat="44.5956778" lon="10.0638722"><ele>885.0</ele><time>2026-04-04T17:46:20.679Z</time></trkpt><trkpt lat="44.5956314" lon="10.0641167"><ele>884.0</ele><time>2026-04-04T17:46:21.687Z</time></trkpt><trkpt lat="44.5956146" lon="10.0643825"><ele>883.0</ele><time>2026-04-04T17:46:22.697Z</time></trkpt><trkpt lat="44.5956141" lon="10.0646617"><ele>883.0</ele><time>2026-04-04T17:46:23.689Z</time></trkpt><trkpt lat="44.5956269" lon="10.0649367"><ele>883.0</ele><time>2026-04-04T17:46:24.686Z</time></trkpt><trkpt lat="44.5956605" lon="10.0652055"><ele>883.0</ele><time>2026-04-04T17:46:25.684Z</time></trkpt><trkpt lat="44.5956945" lon="10.0654596"><ele>881.3333333333333</ele><time>2026-04-04T17:46:26.695Z</time></trkpt><trkpt lat="44.5957064" lon="10.0657207"><ele>879.6666666666667</ele><time>2026-04-04T17:46:27.69Z</time></trkpt><trkpt lat="44.5956918" lon="10.0659924"><ele>878.0</ele><time>2026-04-04T17:46:28.69Z</time></trkpt><trkpt lat="44.5956738" lon="10.0662512"><ele>874.6666666666667</ele><time>2026-04-04T17:46:29.687Z</time></trkpt><trkpt lat="44.5956778" lon="10.0665143"><ele>871.3333333333333</ele><time>2026-04-04T17:46:30.697Z</time></trkpt><trkpt lat="44.5957014" lon="10.0667868"><ele>868.0</ele><time>2026-04-04T17:46:31.689Z</time></trkpt><trkpt lat="44.5957291" lon="10.0670455"><ele>865.6666666666666</ele><time>2026-04-04T17:46:32.689Z</time></trkpt><trkpt lat="44.595763" lon="10.0673009"><ele>863.3333333333333</ele><time>2026-04-04T17:46:33.695Z</time></trkpt><trkpt lat="44.5958086" lon="10.0675594"><ele>861.0</ele><time>2026-04-04T17:46:34.692Z</time></trkpt><trkpt lat="44.5958635" lon="10.0678"><ele>863.3333333333333</ele><time>2026-04-04T17:46:35.691Z</time></trkpt><trkpt lat="44.5959384" lon="10.0680207"><ele>865.6666666666666</ele><time>2026-04-04T17:46:36.699Z</time></trkpt><trkpt lat="44.5960458" lon="10.0682383"><ele>868.0</ele><time>2026-04-04T17:46:37.696Z</time></trkpt><trkpt lat="44.5961718" lon="10.0684632"><ele>868.0</ele><time>2026-04-04T17:46:38.691Z</time></trkpt><trkpt lat="44.5962759" lon="10.0687008"><ele>868.0</ele><time>2026-04-04T17:46:39.697Z</time></trkpt><trkpt lat="44.5963503" lon="10.0689559"><ele>868.0</ele><time>2026-04-04T17:46:40.697Z</time></trkpt><trkpt lat="44.5963983" lon="10.0692079"><ele>866.0</ele><time>2026-04-04T17:46:41.687Z</time></trkpt><trkpt lat="44.5964324" lon="10.0694443"><ele>864.0</ele><time>2026-04-04T17:46:42.692Z</time></trkpt><trkpt lat="44.596467" lon="10.0696453"><ele>862.0</ele><time>2026-04-04T17:46:43.702Z</time></trkpt><trkpt lat="44.5965268" lon="10.0697949"><ele>860.0</ele><time>2026-04-04T17:46:44.706Z</time></trkpt><trkpt lat="44.5966296" lon="10.0699158"><ele>855.75</ele><time>2026-04-04T17:46:45.694Z</time></trkpt><trkpt lat="44.5967547" lon="10.0700216"><ele>851.5</ele><time>2026-04-04T17:46:46.697Z</time></trkpt><trkpt lat="44.596898" lon="10.0700834"><ele>847.25</ele><time>2026-04-04T17:46:47.695Z</time></trkpt><trkpt lat="44.5970413" lon="10.0700845"><ele>843.0</ele><time>2026-04-04T17:46:48.699Z</time></trkpt><trkpt lat="44.5972118" lon="10.0700765"><ele>842.3333333333333</ele><time>2026-04-04T17:46:49.699Z</time></trkpt><trkpt lat="44.5973904" lon="10.0700511"><ele>841.6666666666666</ele><time>2026-04-04T17:46:50.7Z</time></trkpt><trkpt lat="44.5975713" lon="10.0700457"><ele>841.0</ele><time>2026-04-04T17:46:51.702Z</time></trkpt><trkpt lat="44.5977545" lon="10.0700321"><ele>836.3333333333333</ele><time>2026-04-04T17:46:52.704Z</time></trkpt><trkpt lat="44.5979472" lon="10.0700314"><ele>831.6666666666667</ele><time>2026-04-04T17:46:53.7Z</time></trkpt><trkpt lat="44.5981462" lon="10.0700313"><ele>827.0</ele><time>2026-04-04T17:46:54.695Z</time></trkpt><trkpt lat="44.5983469" lon="10.0700654"><ele>827.0</ele><time>2026-04-04T17:46:55.703Z</time></trkpt><trkpt lat="44.5985423" lon="10.0701422"><ele>827.0</ele><time>2026-04-04T17:46:56.716Z</time></trkpt><trkpt lat="44.5987041" lon="10.0702603"><ele>827.0</ele><time>2026-04-04T17:46:57.715Z</time></trkpt><trkpt lat="44.5988245" lon="10.070369"><ele>822.3333333333334</ele><time>2026-04-04T17:46:58.7Z</time></trkpt><trkpt lat="44.5989633" lon="10.0704363"><ele>817.6666666666667</ele><time>2026-04-04T17:46:59.706Z</time></trkpt><trkpt lat="44.5991141" lon="10.0703967"><ele>813.0</ele><time>2026-04-04T17:47:00.717Z</time></trkpt><trkpt lat="44.5992689" lon="10.0702965"><ele>813.0</ele><time>2026-04-04T17:47:01.704Z</time></trkpt><trkpt lat="44.5994177" lon="10.0702195"><ele>813.0</ele><time>2026-04-04T17:47:02.694Z</time></trkpt><trkpt lat="44.5995553" lon="10.0701704"><ele>813.0</ele><time>2026-04-04T17:47:03.709Z</time></trkpt><trkpt lat="44.5996846" lon="10.0702152"><ele>813.0</ele><time>2026-04-04T17:47:04.708Z</time></trkpt><trkpt lat="44.5998187" lon="10.0703393"><ele>809.0</ele><time>2026-04-04T17:47:05.699Z</time></trkpt><trkpt lat="44.5999577" lon="10.0704663"><ele>805.0</ele><time>2026-04-04T17:47:06.7Z</time></trkpt><trkpt lat="44.6001058" lon="10.0705989"><ele>801.0</ele><time>2026-04-04T17:47:07.7Z</time></trkpt><trkpt lat="44.6002573" lon="10.0707376"><ele>798.6666666666667</ele><time>2026-04-04T17:47:08.713Z</time></trkpt><trkpt lat="44.6003835" lon="10.0708742"><ele>796.3333333333334</ele><time>2026-04-04T17:47:09.716Z</time></trkpt><trkpt lat="44.6004677" lon="10.0710414"><ele>794.0</ele><time>2026-04-04T17:47:10.719Z</time></trkpt><trkpt lat="44.6005258" lon="10.0712472"><ele>794.0</ele><time>2026-04-04T17:47:11.711Z</time></trkpt><trkpt lat="44.60056" lon="10.0714475"><ele>794.0</ele><time>2026-04-04T17:47:12.711Z</time></trkpt><trkpt lat="44.6005921" lon="10.0716253"><ele>794.0</ele><time>2026-04-04T17:47:13.702Z</time></trkpt><trkpt lat="44.6006262" lon="10.071774"><ele>794.0</ele><time>2026-04-04T17:47:14.711Z</time></trkpt><trkpt lat="44.6006783" lon="10.0718749"><ele>793.2</ele><time>2026-04-04T17:47:15.71Z</time></trkpt><trkpt lat="44.6007636" lon="10.0719584"><ele>792.4000000000001</ele><time>2026-04-04T17:47:16.714Z</time></trkpt><trkpt lat="44.6008577" lon="10.0719778"><ele>791.6</ele><time>2026-04-04T17:47:17.718Z</time></trkpt><trkpt lat="44.60096" lon="10.0719471"><ele>790.8</ele><time>2026-04-04T17:47:18.712Z</time></trkpt><trkpt lat="44.6010729" lon="10.0718683"><ele>790.0</ele><time>2026-04-04T17:47:19.715Z</time></trkpt><trkpt lat="44.6012001" lon="10.071762"><ele>790.0</ele><time>2026-04-04T17:47:20.706Z</time></trkpt><trkpt lat="44.6013402" lon="10.0716366"><ele>790.0</ele><time>2026-04-04T17:47:21.715Z</time></trkpt><trkpt lat="44.6014992" lon="10.0715"><ele>790.0</ele><time>2026-04-04T17:47:22.713Z</time></trkpt><trkpt lat="44.6016575" lon="10.0713714"><ele>789.3333333333333</ele><time>2026-04-04T17:47:23.713Z</time></trkpt><trkpt lat="44.6018128" lon="10.0712482"><ele>788.6666666666667</ele><time>2026-04-04T17:47:24.713Z</time></trkpt><trkpt lat="44.6019655" lon="10.0711254"><ele>788.0</ele><time>2026-04-04T17:47:25.706Z</time></trkpt><trkpt lat="44.6021067" lon="10.0710027"><ele>787.75</ele><time>2026-04-04T17:47:26.713Z</time></trkpt><trkpt lat="44.6022313" lon="10.0708899"><ele>787.5</ele><time>2026-04-04T17:47:27.712Z</time></trkpt><trkpt lat="44.6023524" lon="10.0707987"><ele>787.25</ele><time>2026-04-04T17:47:28.705Z</time></trkpt><trkpt lat="44.6024765" lon="10.0707444"><ele>787.0</ele><time>2026-04-04T17:47:29.707Z</time></trkpt><trkpt lat="44.6025982" lon="10.0707565"><ele>787.0</ele><time>2026-04-04T17:47:30.706Z</time></trkpt><trkpt lat="44.6026949" lon="10.070847"><ele>787.0</ele><time>2026-04-04T17:47:31.708Z</time></trkpt><trkpt lat="44.6027587" lon="10.0710219"><ele>787.0</ele><time>2026-04-04T17:47:32.711Z</time></trkpt><trkpt lat="44.6028203" lon="10.0712381"><ele>787.0</ele><time>2026-04-04T17:47:33.708Z</time></trkpt><trkpt lat="44.6028912" lon="10.0714833"><ele>783.0</ele><time>2026-04-04T17:47:34.704Z</time></trkpt><trkpt lat="44.6029639" lon="10.0717216"><ele>779.0</ele><time>2026-04-04T17:47:35.707Z</time></trkpt><trkpt lat="44.603029" lon="10.0719478"><ele>775.0</ele><time>2026-04-04T17:47:36.711Z</time></trkpt><trkpt lat="44.603104" lon="10.0721325"><ele>775.0</ele><time>2026-04-04T17:47:37.711Z</time></trkpt><trkpt lat="44.6032004" lon="10.0722416"><ele>775.0</ele><time>2026-04-04T17:47:38.713Z</time></trkpt><trkpt lat="44.6033239" lon="10.0722825"><ele>775.0</ele><time>2026-04-04T17:47:39.719Z</time></trkpt><trkpt lat="44.6034874" lon="10.0722702"><ele>775.0</ele><time>2026-04-04T17:47:40.716Z</time></trkpt><trkpt lat="44.6036686" lon="10.0722529"><ele>773.3333333333333</ele><time>2026-04-04T17:47:41.72Z</time></trkpt><trkpt lat="44.603853" lon="10.0722584"><ele>771.6666666666667</ele><time>2026-04-04T17:47:42.712Z</time></trkpt><trkpt lat="44.604038" lon="10.0723015"><ele>770.0</ele><time>2026-04-04T17:47:43.717Z</time></trkpt><trkpt lat="44.6042113" lon="10.0723774"><ele>770.0</ele><time>2026-04-04T17:47:44.713Z</time></trkpt><trkpt lat="44.604356" lon="10.0724362"><ele>770.0</ele><time>2026-04-04T17:47:45.706Z</time></trkpt><trkpt lat="44.6045017" lon="10.072444"><ele>770.0</ele><time>2026-04-04T17:47:46.715Z</time></trkpt><trkpt lat="44.6046734" lon="10.0723851"><ele>768.0</ele><time>2026-04-04T17:47:47.711Z</time></trkpt><trkpt lat="44.6049124" lon="10.0722816"><ele>766.0</ele><time>2026-04-04T17:47:48.705Z</time></trkpt><trkpt lat="44.6051862" lon="10.0721677"><ele>767.5</ele><time>2026-04-04T17:47:49.708Z</time></trkpt><trkpt lat="44.6054997" lon="10.0720617"><ele>769.0</ele><time>2026-04-04T17:47:50.714Z</time></trkpt><trkpt lat="44.6057694" lon="10.0719717"><ele>769.0</ele><time>2026-04-04T17:47:51.717Z</time></trkpt><trkpt lat="44.6059594" lon="10.0718733"><ele>769.0</ele><time>2026-04-04T17:47:52.719Z</time></trkpt><trkpt lat="44.6061094" lon="10.0718049"><ele>769.0</ele><time>2026-04-04T17:47:53.718Z</time></trkpt><trkpt lat="44.6062539" lon="10.0717886"><ele>768.6666666666666</ele><time>2026-04-04T17:47:54.723Z</time></trkpt><trkpt lat="44.6064096" lon="10.0718388"><ele>768.3333333333333</ele><time>2026-04-04T17:47:55.71Z</time></trkpt><trkpt lat="44.6065963" lon="10.0719189"><ele>768.0</ele><time>2026-04-04T17:47:56.714Z</time></trkpt><trkpt lat="44.6068434" lon="10.0719302"><ele>773.5</ele><time>2026-04-04T17:47:57.713Z</time></trkpt><trkpt lat="44.6071296" lon="10.0719176"><ele>779.0</ele><time>2026-04-04T17:47:58.708Z</time></trkpt><trkpt lat="44.6073725" lon="10.071918"><ele>779.0</ele><time>2026-04-04T17:47:59.709Z</time></trkpt><trkpt lat="44.6075531" lon="10.0719046"><ele>779.0</ele><time>2026-04-04T17:48:00.71Z</time></trkpt><trkpt lat="44.607696" lon="10.0718537"><ele>779.0</ele><time>2026-04-04T17:48:01.708Z</time></trkpt><trkpt lat="44.6078197" lon="10.071732"><ele>777.0</ele><time>2026-04-04T17:48:02.697Z</time></trkpt><trkpt lat="44.6079387" lon="10.0715131"><ele>775.0</ele><time>2026-04-04T17:48:03.697Z</time></trkpt><trkpt lat="44.6080748" lon="10.071341"><ele>773.0</ele><time>2026-04-04T17:48:04.694Z</time></trkpt><trkpt lat="44.6082258" lon="10.0712353"><ele>773.0</ele><time>2026-04-04T17:48:05.702Z</time></trkpt><trkpt lat="44.6084087" lon="10.0711998"><ele>773.0</ele><time>2026-04-04T17:48:06.705Z</time></trkpt><trkpt lat="44.6086145" lon="10.0712293"><ele>773.0</ele><time>2026-04-04T17:48:07.714Z</time></trkpt><trkpt lat="44.6088594" lon="10.0713196"><ele>773.0</ele><time>2026-04-04T17:48:08.714Z</time></trkpt><trkpt lat="44.609151" lon="10.0714411"><ele>773.0</ele><time>2026-04-04T17:48:09.711Z</time></trkpt><trkpt lat="44.6094645" lon="10.0715547"><ele>780.0</ele><time>2026-04-04T17:48:10.712Z</time></trkpt><trkpt lat="44.6097775" lon="10.0716637"><ele>787.0</ele><time>2026-04-04T17:48:11.713Z</time></trkpt><trkpt lat="44.6100415" lon="10.0717548"><ele>787.0</ele><time>2026-04-04T17:48:12.722Z</time></trkpt><trkpt lat="44.6102545" lon="10.0718186"><ele>787.0</ele><time>2026-04-04T17:48:13.715Z</time></trkpt><trkpt lat="44.6104534" lon="10.0718561"><ele>787.0</ele><time>2026-04-04T17:48:14.712Z</time></trkpt><trkpt lat="44.6106268" lon="10.0718071"><ele>786.6666666666666</ele><time>2026-04-04T17:48:15.713Z</time></trkpt><trkpt lat="44.6107942" lon="10.0716994"><ele>786.3333333333333</ele><time>2026-04-04T17:48:16.717Z</time></trkpt><trkpt lat="44.610927" lon="10.071555"><ele>786.0</ele><time>2026-04-04T17:48:17.709Z</time></trkpt><trkpt lat="44.6110106" lon="10.0713221"><ele>786.0</ele><time>2026-04-04T17:48:18.707Z</time></trkpt><trkpt lat="44.6110626" lon="10.071015"><ele>786.0</ele><time>2026-04-04T17:48:19.708Z</time></trkpt><trkpt lat="44.6111017" lon="10.0706659"><ele>787.0</ele><time>2026-04-04T17:48:20.706Z</time></trkpt><trkpt lat="44.6111433" lon="10.070345"><ele>788.0</ele><time>2026-04-04T17:48:21.705Z</time></trkpt><trkpt lat="44.6112027" lon="10.0701267"><ele>789.0</ele><time>2026-04-04T17:48:22.71Z</time></trkpt><trkpt lat="44.6112867" lon="10.0699904"><ele>789.0</ele><time>2026-04-04T17:48:23.71Z</time></trkpt><trkpt lat="44.6113945" lon="10.0699265"><ele>789.0</ele><time>2026-04-04T17:48:24.709Z</time></trkpt><trkpt lat="44.6115421" lon="10.0699399"><ele>789.0</ele><time>2026-04-04T17:48:25.712Z</time></trkpt><trkpt lat="44.6117274" lon="10.0699944"><ele>789.0</ele><time>2026-04-04T17:48:26.721Z</time></trkpt><trkpt lat="44.6119542" lon="10.070078"><ele>789.0</ele><time>2026-04-04T17:48:27.699Z</time></trkpt><trkpt lat="44.6122032" lon="10.0701607"><ele>786.0</ele><time>2026-04-04T17:48:28.697Z</time></trkpt><trkpt lat="44.6124353" lon="10.0702122"><ele>783.0</ele><time>2026-04-04T17:48:29.715Z</time></trkpt><trkpt lat="44.6126618" lon="10.0702264"><ele>782.5</ele><time>2026-04-04T17:48:30.717Z</time></trkpt><trkpt lat="44.612878" lon="10.070168"><ele>782.0</ele><time>2026-04-04T17:48:31.711Z</time></trkpt><trkpt lat="44.6130924" lon="10.0700402"><ele>777.0</ele><time>2026-04-04T17:48:32.712Z</time></trkpt><trkpt lat="44.6132979" lon="10.069836"><ele>772.0</ele><time>2026-04-04T17:48:33.709Z</time></trkpt><trkpt lat="44.6135105" lon="10.0695757"><ele>772.0</ele><time>2026-04-04T17:48:34.715Z</time></trkpt><trkpt lat="44.6137343" lon="10.0693048"><ele>772.0</ele><time>2026-04-04T17:48:35.704Z</time></trkpt><trkpt lat="44.6139637" lon="10.0690304"><ele>765.5</ele><time>2026-04-04T17:48:36.709Z</time></trkpt><trkpt lat="44.6141713" lon="10.0687792"><ele>759.0</ele><time>2026-04-04T17:48:37.716Z</time></trkpt><trkpt lat="44.6143546" lon="10.0685711"><ele>759.0</ele><time>2026-04-04T17:48:38.709Z</time></trkpt><trkpt lat="44.6144982" lon="10.0683845"><ele>759.0</ele><time>2026-04-04T17:48:39.716Z</time></trkpt><trkpt lat="44.6146018" lon="10.068208"><ele>759.0</ele><time>2026-04-04T17:48:40.715Z</time></trkpt><trkpt lat="44.6146691" lon="10.0680429"><ele>759.0</ele><time>2026-04-04T17:48:41.715Z</time></trkpt><trkpt lat="44.6146826" lon="10.0678575"><ele>759.0</ele><time>2026-04-04T17:48:42.716Z</time></trkpt><trkpt lat="44.6146298" lon="10.0676383"><ele>759.0</ele><time>2026-04-04T17:48:43.718Z</time></trkpt><trkpt lat="44.6145812" lon="10.0674059"><ele>755.6666666666666</ele><time>2026-04-04T17:48:44.708Z</time></trkpt><trkpt lat="44.6145884" lon="10.0671852"><ele>752.3333333333333</ele><time>2026-04-04T17:48:45.715Z</time></trkpt><trkpt lat="44.6146681" lon="10.0669901"><ele>749.0</ele><time>2026-04-04T17:48:46.721Z</time></trkpt><trkpt lat="44.6148137" lon="10.0667948"><ele>744.0</ele><time>2026-04-04T17:48:47.715Z</time></trkpt><trkpt lat="44.614991" lon="10.0665717"><ele>739.0</ele><time>2026-04-04T17:48:48.713Z</time></trkpt><trkpt lat="44.6151544" lon="10.0663502"><ele>739.0</ele><time>2026-04-04T17:48:49.711Z</time></trkpt><trkpt lat="44.6152841" lon="10.0661634"><ele>739.0</ele><time>2026-04-04T17:48:50.718Z</time></trkpt><trkpt lat="44.6153955" lon="10.0660219"><ele>739.0</ele><time>2026-04-04T17:48:51.72Z</time></trkpt><trkpt lat="44.6155205" lon="10.0659458"><ele>739.3333333333334</ele><time>2026-04-04T17:48:52.72Z</time></trkpt><trkpt lat="44.615667" lon="10.0659486"><ele>739.6666666666666</ele><time>2026-04-04T17:48:53.716Z</time></trkpt><trkpt lat="44.6158542" lon="10.0660335"><ele>740.0</ele><time>2026-04-04T17:48:54.719Z</time></trkpt><trkpt lat="44.6160782" lon="10.0661167"><ele>736.0</ele><time>2026-04-04T17:48:55.712Z</time></trkpt><trkpt lat="44.6163061" lon="10.0661967"><ele>732.0</ele><time>2026-04-04T17:48:56.73Z</time></trkpt><trkpt lat="44.6165102" lon="10.0662619"><ele>728.0</ele><time>2026-04-04T17:48:57.711Z</time></trkpt><trkpt lat="44.6166988" lon="10.0663346"><ele>728.0</ele><time>2026-04-04T17:48:58.708Z</time></trkpt><trkpt lat="44.6168431" lon="10.0664175"><ele>728.0</ele><time>2026-04-04T17:48:59.716Z</time></trkpt><trkpt lat="44.6169689" lon="10.0665498"><ele>728.0</ele><time>2026-04-04T17:49:00.725Z</time></trkpt><trkpt lat="44.6170924" lon="10.0667692"><ele>726.0</ele><time>2026-04-04T17:49:01.715Z</time></trkpt><trkpt lat="44.6172306" lon="10.066975"><ele>724.0</ele><time>2026-04-04T17:49:02.72Z</time></trkpt><trkpt lat="44.6173925" lon="10.0671146"><ele>722.0</ele><time>2026-04-04T17:49:03.722Z</time></trkpt><trkpt lat="44.6175172" lon="10.0672318"><ele>722.0</ele><time>2026-04-04T17:49:04.719Z</time></trkpt><trkpt lat="44.6176007" lon="10.0673631"><ele>722.0</ele><time>2026-04-04T17:49:05.721Z</time></trkpt><trkpt lat="44.6176559" lon="10.0675635"><ele>722.0</ele><time>2026-04-04T17:49:06.714Z</time></trkpt><trkpt lat="44.6176963" lon="10.0678227"><ele>724.0</ele><time>2026-04-04T17:49:07.717Z</time></trkpt><trkpt lat="44.6177592" lon="10.0680834"><ele>726.0</ele><time>2026-04-04T17:49:08.724Z</time></trkpt><trkpt lat="44.6178835" lon="10.0683386"><ele>728.0</ele><time>2026-04-04T17:49:09.728Z</time></trkpt><trkpt lat="44.6180443" lon="10.0685764"><ele>723.0</ele><time>2026-04-04T17:49:10.715Z</time></trkpt><trkpt lat="44.6181753" lon="10.0687954"><ele>718.0</ele><time>2026-04-04T17:49:11.716Z</time></trkpt><trkpt lat="44.6182882" lon="10.068996"><ele>713.0</ele><time>2026-04-04T17:49:12.716Z</time></trkpt><trkpt lat="44.6183494" lon="10.0691762"><ele>713.0</ele><time>2026-04-04T17:49:13.722Z</time></trkpt><trkpt lat="44.618352" lon="10.0693607"><ele>713.0</ele><time>2026-04-04T17:49:14.724Z</time></trkpt><trkpt lat="44.6183026" lon="10.0695871"><ele>713.0</ele><time>2026-04-04T17:49:15.72Z</time></trkpt><trkpt lat="44.6182474" lon="10.06986"><ele>711.3333333333333</ele><time>2026-04-04T17:49:16.719Z</time></trkpt><trkpt lat="44.6181948" lon="10.0701657"><ele>709.6666666666666</ele><time>2026-04-04T17:49:17.719Z</time></trkpt><trkpt lat="44.6181751" lon="10.0704788"><ele>708.0</ele><time>2026-04-04T17:49:18.72Z</time></trkpt><trkpt lat="44.6181851" lon="10.0707929"><ele>706.6666666666666</ele><time>2026-04-04T17:49:19.72Z</time></trkpt><trkpt lat="44.6182055" lon="10.0710657"><ele>705.3333333333333</ele><time>2026-04-04T17:49:20.715Z</time></trkpt><trkpt lat="44.6181929" lon="10.0713282"><ele>704.0</ele><time>2026-04-04T17:49:21.718Z</time></trkpt><trkpt lat="44.6181431" lon="10.0715525"><ele>703.0</ele><time>2026-04-04T17:49:22.725Z</time></trkpt><trkpt lat="44.6180941" lon="10.0717304"><ele>702.0</ele><time>2026-04-04T17:49:23.715Z</time></trkpt><trkpt lat="44.6180877" lon="10.0719092"><ele>701.0</ele><time>2026-04-04T17:49:24.718Z</time></trkpt><trkpt lat="44.6181509" lon="10.0720651"><ele>700.0</ele><time>2026-04-04T17:49:25.716Z</time></trkpt><trkpt lat="44.618269" lon="10.0721792"><ele>700.0</ele><time>2026-04-04T17:49:26.738Z</time></trkpt><trkpt lat="44.6184387" lon="10.0722454"><ele>700.0</ele><time>2026-04-04T17:49:27.732Z</time></trkpt><trkpt lat="44.6186565" lon="10.0722611"><ele>700.0</ele><time>2026-04-04T17:49:28.712Z</time></trkpt><trkpt lat="44.618926" lon="10.0722796"><ele>691.5</ele><time>2026-04-04T17:49:29.718Z</time></trkpt><trkpt lat="44.6192051" lon="10.0723116"><ele>683.0</ele><time>2026-04-04T17:49:30.722Z</time></trkpt><trkpt lat="44.6194555" lon="10.072352"><ele>681.25</ele><time>2026-04-04T17:49:31.716Z</time></trkpt><trkpt lat="44.6196515" lon="10.0723811"><ele>679.5</ele><time>2026-04-04T17:49:32.711Z</time></trkpt><trkpt lat="44.6197769" lon="10.0724271"><ele>677.75</ele><time>2026-04-04T17:49:33.711Z</time></trkpt><trkpt lat="44.6198513" lon="10.0724988"><ele>676.0</ele><time>2026-04-04T17:49:34.717Z</time></trkpt><trkpt lat="44.619886" lon="10.0726215"><ele>676.0</ele><time>2026-04-04T17:49:35.721Z</time></trkpt><trkpt lat="44.6198696" lon="10.0728272"><ele>676.0</ele><time>2026-04-04T17:49:36.722Z</time></trkpt><trkpt lat="44.6198127" lon="10.0730981"><ele>676.0</ele><time>2026-04-04T17:49:37.718Z</time></trkpt><trkpt lat="44.6197885" lon="10.0734124"><ele>676.3333333333334</ele><time>2026-04-04T17:49:38.715Z</time></trkpt><trkpt lat="44.6197985" lon="10.0736784"><ele>676.6666666666666</ele><time>2026-04-04T17:49:39.719Z</time></trkpt><trkpt lat="44.6198784" lon="10.073893"><ele>677.0</ele><time>2026-04-04T17:49:40.718Z</time></trkpt><trkpt lat="44.6200072" lon="10.0740715"><ele>678.3333333333333</ele><time>2026-04-04T17:49:41.724Z</time></trkpt><trkpt lat="44.6201779" lon="10.0741956"><ele>679.6666666666666</ele><time>2026-04-04T17:49:42.722Z</time></trkpt><trkpt lat="44.6203821" lon="10.0742661"><ele>681.0</ele><time>2026-04-04T17:49:43.717Z</time></trkpt><trkpt lat="44.6205807" lon="10.0743521"><ele>675.0</ele><time>2026-04-04T17:49:44.716Z</time></trkpt><trkpt lat="44.6207514" lon="10.0744673"><ele>669.0</ele><time>2026-04-04T17:49:45.728Z</time></trkpt><trkpt lat="44.620872" lon="10.0746712"><ele>663.0</ele><time>2026-04-04T17:49:46.728Z</time></trkpt><trkpt lat="44.620982" lon="10.0749321"><ele>665.5</ele><time>2026-04-04T17:49:47.728Z</time></trkpt><trkpt lat="44.6211188" lon="10.0752284"><ele>668.0</ele><time>2026-04-04T17:49:48.727Z</time></trkpt><trkpt lat="44.6213227" lon="10.0755165"><ele>663.5</ele><time>2026-04-04T17:49:49.727Z</time></trkpt><trkpt lat="44.6215426" lon="10.0758201"><ele>659.0</ele><time>2026-04-04T17:49:50.72Z</time></trkpt><trkpt lat="44.6217219" lon="10.0760698"><ele>659.0</ele><time>2026-04-04T17:49:51.728Z</time></trkpt><trkpt lat="44.6218736" lon="10.0762942"><ele>659.0</ele><time>2026-04-04T17:49:52.723Z</time></trkpt><trkpt lat="44.6220038" lon="10.0764663"><ele>659.0</ele><time>2026-04-04T17:49:53.72Z</time></trkpt><trkpt lat="44.622096" lon="10.0765493"><ele>658.5</ele><time>2026-04-04T17:49:54.722Z</time></trkpt><trkpt lat="44.6222017" lon="10.0765758"><ele>658.0</ele><time>2026-04-04T17:49:55.723Z</time></trkpt><trkpt lat="44.6223176" lon="10.0765122"><ele>657.5</ele><time>2026-04-04T17:49:56.722Z</time></trkpt><trkpt lat="44.622424" lon="10.0763822"><ele>657.0</ele><time>2026-04-04T17:49:57.739Z</time></trkpt><trkpt lat="44.6225297" lon="10.0761833"><ele>657.0</ele><time>2026-04-04T17:49:58.721Z</time></trkpt><trkpt lat="44.622668" lon="10.0760497"><ele>657.0</ele><time>2026-04-04T17:49:59.726Z</time></trkpt><trkpt lat="44.6228287" lon="10.075991"><ele>657.0</ele><time>2026-04-04T17:50:00.726Z</time></trkpt><trkpt lat="44.6230154" lon="10.0760263"><ele>655.6666666666666</ele><time>2026-04-04T17:50:01.723Z</time></trkpt><trkpt lat="44.6232193" lon="10.0761042"><ele>654.3333333333333</ele><time>2026-04-04T17:50:02.725Z</time></trkpt><trkpt lat="44.6234195" lon="10.0762516"><ele>653.0</ele><time>2026-04-04T17:50:03.729Z</time></trkpt><trkpt lat="44.6235549" lon="10.076442"><ele>651.6666666666666</ele><time>2026-04-04T17:50:04.726Z</time></trkpt><trkpt lat="44.6236365" lon="10.0766274"><ele>650.3333333333334</ele><time>2026-04-04T17:50:05.726Z</time></trkpt><trkpt lat="44.6236589" lon="10.0768387"><ele>649.0</ele><time>2026-04-04T17:50:06.72Z</time></trkpt><trkpt lat="44.6236444" lon="10.0770781"><ele>649.0</ele><time>2026-04-04T17:50:07.718Z</time></trkpt><trkpt lat="44.6236175" lon="10.0773113"><ele>649.0</ele><time>2026-04-04T17:50:08.723Z</time></trkpt><trkpt lat="44.6236357" lon="10.0775013"><ele>649.0</ele><time>2026-04-04T17:50:09.726Z</time></trkpt><trkpt lat="44.6237161" lon="10.0776516"><ele>649.0</ele><time>2026-04-04T17:50:10.723Z</time></trkpt><trkpt lat="44.623853" lon="10.0777978"><ele>649.3333333333334</ele><time>2026-04-04T17:50:11.72Z</time></trkpt><trkpt lat="44.6240144" lon="10.0779685"><ele>649.6666666666666</ele><time>2026-04-04T17:50:12.721Z</time></trkpt><trkpt lat="44.6240799" lon="10.0781746"><ele>650.0</ele><time>2026-04-04T17:50:13.718Z</time></trkpt><trkpt lat="44.6240747" lon="10.0784112"><ele>649.5</ele><time>2026-04-04T17:50:14.714Z</time></trkpt><trkpt lat="44.624083" lon="10.078641"><ele>649.0</ele><time>2026-04-04T17:50:15.718Z</time></trkpt><trkpt lat="44.6241375" lon="10.0788015"><ele>648.5</ele><time>2026-04-04T17:50:16.717Z</time></trkpt><trkpt lat="44.6242519" lon="10.0789188"><ele>648.0</ele><time>2026-04-04T17:50:17.718Z</time></trkpt><trkpt lat="44.6244133" lon="10.0790348"><ele>646.3333333333334</ele><time>2026-04-04T17:50:18.712Z</time></trkpt><trkpt lat="44.6245589" lon="10.0791171"><ele>644.6666666666667</ele><time>2026-04-04T17:50:19.713Z</time></trkpt><trkpt lat="44.624698" lon="10.0791152"><ele>643.0</ele><time>2026-04-04T17:50:20.724Z</time></trkpt><trkpt lat="44.6248497" lon="10.0790182"><ele>643.0</ele><time>2026-04-04T17:50:21.732Z</time></trkpt><trkpt lat="44.6250578" lon="10.0788724"><ele>643.0</ele><time>2026-04-04T17:50:22.73Z</time></trkpt><trkpt lat="44.6252903" lon="10.0786878"><ele>638.0</ele><time>2026-04-04T17:50:23.722Z</time></trkpt><trkpt lat="44.625508" lon="10.0785282"><ele>633.0</ele><time>2026-04-04T17:50:24.72Z</time></trkpt><trkpt lat="44.6257105" lon="10.0784007"><ele>633.0</ele><time>2026-04-04T17:50:25.725Z</time></trkpt><trkpt lat="44.6258962" lon="10.0783554"><ele>633.0</ele><time>2026-04-04T17:50:26.732Z</time></trkpt><trkpt lat="44.6260827" lon="10.0783809"><ele>633.0</ele><time>2026-04-04T17:50:27.728Z</time></trkpt><trkpt lat="44.6262724" lon="10.0784878"><ele>634.5</ele><time>2026-04-04T17:50:28.731Z</time></trkpt><trkpt lat="44.6264694" lon="10.0786596"><ele>636.0</ele><time>2026-04-04T17:50:29.724Z</time></trkpt><trkpt lat="44.626677" lon="10.0788974"><ele>634.5</ele><time>2026-04-04T17:50:30.729Z</time></trkpt><trkpt lat="44.6268769" lon="10.0791328"><ele>633.0</ele><time>2026-04-04T17:50:31.72Z</time></trkpt><trkpt lat="44.6270512" lon="10.0793327"><ele>633.0</ele><time>2026-04-04T17:50:32.721Z</time></trkpt><trkpt lat="44.6271965" lon="10.0794922"><ele>633.0</ele><time>2026-04-04T17:50:33.717Z</time></trkpt><trkpt lat="44.6273574" lon="10.0795955"><ele>633.0</ele><time>2026-04-04T17:50:34.716Z</time></trkpt><trkpt lat="44.6275366" lon="10.0796384"><ele>633.0</ele><time>2026-04-04T17:50:35.716Z</time></trkpt><trkpt lat="44.6277429" lon="10.0796484"><ele>633.0</ele><time>2026-04-04T17:50:36.715Z</time></trkpt><trkpt lat="44.6279252" lon="10.0796725"><ele>633.0</ele><time>2026-04-04T17:50:37.716Z</time></trkpt><trkpt lat="44.6280725" lon="10.0797343"><ele>631.75</ele><time>2026-04-04T17:50:38.717Z</time></trkpt><trkpt lat="44.6281941" lon="10.0798413"><ele>630.5</ele><time>2026-04-04T17:50:39.712Z</time></trkpt><trkpt lat="44.6282732" lon="10.079987"><ele>629.25</ele><time>2026-04-04T17:50:40.707Z</time></trkpt><trkpt lat="44.6283524" lon="10.0801166"><ele>628.0</ele><time>2026-04-04T17:50:41.722Z</time></trkpt><trkpt lat="44.6284491" lon="10.0801789"><ele>625.75</ele><time>2026-04-04T17:50:42.726Z</time></trkpt><trkpt lat="44.62856" lon="10.0801498"><ele>623.5</ele><time>2026-04-04T17:50:43.727Z</time></trkpt><trkpt lat="44.6286665" lon="10.0800705"><ele>621.25</ele><time>2026-04-04T17:50:44.726Z</time></trkpt><trkpt lat="44.6287218" lon="10.0799282"><ele>619.0</ele><time>2026-04-04T17:50:45.721Z</time></trkpt><trkpt lat="44.6287527" lon="10.0797364"><ele>617.0</ele><time>2026-04-04T17:50:46.726Z</time></trkpt><trkpt lat="44.62878" lon="10.0795033"><ele>615.0</ele><time>2026-04-04T17:50:47.725Z</time></trkpt><trkpt lat="44.6288364" lon="10.0792897"><ele>613.0</ele><time>2026-04-04T17:50:48.715Z</time></trkpt><trkpt lat="44.6289511" lon="10.0791412"><ele>610.0</ele><time>2026-04-04T17:50:49.717Z</time></trkpt><trkpt lat="44.6290967" lon="10.079071"><ele>607.0</ele><time>2026-04-04T17:50:50.72Z</time></trkpt><trkpt lat="44.6293052" lon="10.0790854"><ele>604.0</ele><time>2026-04-04T17:50:51.721Z</time></trkpt><trkpt lat="44.6295339" lon="10.0791108"><ele>604.0</ele><time>2026-04-04T17:50:52.72Z</time></trkpt><trkpt lat="44.6297453" lon="10.0791252"><ele>604.0</ele><time>2026-04-04T17:50:53.716Z</time></trkpt><trkpt lat="44.6299303" lon="10.0790965"><ele>604.0</ele><time>2026-04-04T17:50:54.719Z</time></trkpt><trkpt lat="44.6300865" lon="10.0789747"><ele>604.3333333333334</ele><time>2026-04-04T17:50:55.729Z</time></trkpt><trkpt lat="44.6302122" lon="10.0787649"><ele>604.6666666666666</ele><time>2026-04-04T17:50:56.731Z</time></trkpt><trkpt lat="44.6303197" lon="10.0785481"><ele>605.0</ele><time>2026-04-04T17:50:57.723Z</time></trkpt><trkpt lat="44.6304592" lon="10.0783735"><ele>607.6666666666666</ele><time>2026-04-04T17:50:58.72Z</time></trkpt><trkpt lat="44.6306182" lon="10.0782418"><ele>610.3333333333334</ele><time>2026-04-04T17:50:59.725Z</time></trkpt><trkpt lat="44.6307805" lon="10.0781911"><ele>613.0</ele><time>2026-04-04T17:51:00.73Z</time></trkpt><trkpt lat="44.630931" lon="10.0782268"><ele>610.3333333333334</ele><time>2026-04-04T17:51:01.722Z</time></trkpt><trkpt lat="44.6310867" lon="10.0783496"><ele>607.6666666666666</ele><time>2026-04-04T17:51:02.716Z</time></trkpt><trkpt lat="44.6312393" lon="10.0785552"><ele>605.0</ele><time>2026-04-04T17:51:03.722Z</time></trkpt><trkpt lat="44.6313712" lon="10.0788011"><ele>603.6666666666666</ele><time>2026-04-04T17:51:04.715Z</time></trkpt><trkpt lat="44.6315125" lon="10.0789966"><ele>602.3333333333334</ele><time>2026-04-04T17:51:05.719Z</time></trkpt><trkpt lat="44.6316719" lon="10.0791068"><ele>601.0</ele><time>2026-04-04T17:51:06.72Z</time></trkpt><trkpt lat="44.6318581" lon="10.0791474"><ele>597.5</ele><time>2026-04-04T17:51:07.718Z</time></trkpt><trkpt lat="44.6320759" lon="10.0791053"><ele>594.0</ele><time>2026-04-04T17:51:08.728Z</time></trkpt><trkpt lat="44.6323445" lon="10.0790407"><ele>594.0</ele><time>2026-04-04T17:51:09.724Z</time></trkpt><trkpt lat="44.6326625" lon="10.0789948"><ele>594.0</ele><time>2026-04-04T17:51:10.722Z</time></trkpt><trkpt lat="44.6330053" lon="10.0789743"><ele>591.0</ele><time>2026-04-04T17:51:11.725Z</time></trkpt><trkpt lat="44.6332822" lon="10.0789383"><ele>588.0</ele><time>2026-04-04T17:51:12.729Z</time></trkpt><trkpt lat="44.6335322" lon="10.0789115"><ele>587.0</ele><time>2026-04-04T17:51:13.725Z</time></trkpt><trkpt lat="44.6337785" lon="10.0788801"><ele>586.0</ele><time>2026-04-04T17:51:14.72Z</time></trkpt><trkpt lat="44.6340059" lon="10.078843"><ele>586.0</ele><time>2026-04-04T17:51:15.721Z</time></trkpt><trkpt lat="44.6342216" lon="10.0788126"><ele>586.0</ele><time>2026-04-04T17:51:16.721Z</time></trkpt><trkpt lat="44.6344353" lon="10.0787752"><ele>586.0</ele><time>2026-04-04T17:51:17.72Z</time></trkpt><trkpt lat="44.6346394" lon="10.0787421"><ele>585.0</ele><time>2026-04-04T17:51:18.719Z</time></trkpt><trkpt lat="44.6348318" lon="10.0787177"><ele>584.0</ele><time>2026-04-04T17:51:19.713Z</time></trkpt><trkpt lat="44.6350136" lon="10.0787165"><ele>583.0</ele><time>2026-04-04T17:51:20.707Z</time></trkpt><trkpt lat="44.6351996" lon="10.0787732"><ele>584.0</ele><time>2026-04-04T17:51:21.723Z</time></trkpt><trkpt lat="44.635388" lon="10.0789026"><ele>585.0</ele><time>2026-04-04T17:51:22.72Z</time></trkpt><trkpt lat="44.6355813" lon="10.0790796"><ele>586.0</ele><time>2026-04-04T17:51:23.718Z</time></trkpt><trkpt lat="44.6357886" lon="10.079241"><ele>586.0</ele><time>2026-04-04T17:51:24.73Z</time></trkpt><trkpt lat="44.6360229" lon="10.0793741"><ele>586.0</ele><time>2026-04-04T17:51:25.726Z</time></trkpt><trkpt lat="44.6362963" lon="10.079463"><ele>583.0</ele><time>2026-04-04T17:51:26.715Z</time></trkpt><trkpt lat="44.6365661" lon="10.0795337"><ele>580.0</ele><time>2026-04-04T17:51:27.724Z</time></trkpt><trkpt lat="44.6368047" lon="10.079583"><ele>581.0</ele><time>2026-04-04T17:51:28.713Z</time></trkpt><trkpt lat="44.6370265" lon="10.0796175"><ele>582.0</ele><time>2026-04-04T17:51:29.711Z</time></trkpt><trkpt lat="44.6372687" lon="10.0796032"><ele>582.0</ele><time>2026-04-04T17:51:30.722Z</time></trkpt><trkpt lat="44.6375401" lon="10.0795258"><ele>582.0</ele><time>2026-04-04T17:51:31.719Z</time></trkpt><trkpt lat="44.6378074" lon="10.0794571"><ele>581.0</ele><time>2026-04-04T17:51:32.716Z</time></trkpt><trkpt lat="44.6380692" lon="10.0794009"><ele>580.0</ele><time>2026-04-04T17:51:33.708Z</time></trkpt><trkpt lat="44.6383104" lon="10.0793449"><ele>580.0</ele><time>2026-04-04T17:51:34.705Z</time></trkpt><trkpt lat="44.6385443" lon="10.0792943"><ele>580.0</ele><time>2026-04-04T17:51:35.704Z</time></trkpt><trkpt lat="44.6387746" lon="10.079249"><ele>580.5</ele><time>2026-04-04T17:51:36.718Z</time></trkpt><trkpt lat="44.6390206" lon="10.0792389"><ele>581.0</ele><time>2026-04-04T17:51:37.715Z</time></trkpt><trkpt lat="44.6392682" lon="10.0792378"><ele>579.5</ele><time>2026-04-04T17:51:38.715Z</time></trkpt><trkpt lat="44.6395091" lon="10.0792567"><ele>578.0</ele><time>2026-04-04T17:51:39.718Z</time></trkpt><trkpt lat="44.6397352" lon="10.0792706"><ele>578.0</ele><time>2026-04-04T17:51:40.724Z</time></trkpt><trkpt lat="44.639955" lon="10.0792806"><ele>578.0</ele><time>2026-04-04T17:51:41.717Z</time></trkpt><trkpt lat="44.6401682" lon="10.079283"><ele>578.0</ele><time>2026-04-04T17:51:42.72Z</time></trkpt><trkpt lat="44.6403589" lon="10.0792588"><ele>577.6666666666666</ele><time>2026-04-04T17:51:43.719Z</time></trkpt><trkpt lat="44.6405438" lon="10.0791308"><ele>577.3333333333334</ele><time>2026-04-04T17:51:44.722Z</time></trkpt><trkpt lat="44.6407391" lon="10.0789368"><ele>577.0</ele><time>2026-04-04T17:51:45.716Z</time></trkpt><trkpt lat="44.6409239" lon="10.0787487"><ele>574.0</ele><time>2026-04-04T17:51:46.719Z</time></trkpt><trkpt lat="44.6411084" lon="10.0785749"><ele>571.0</ele><time>2026-04-04T17:51:47.723Z</time></trkpt><trkpt lat="44.6412766" lon="10.0784"><ele>568.0</ele><time>2026-04-04T17:51:48.721Z</time></trkpt><trkpt lat="44.6414145" lon="10.0782419"><ele>564.0</ele><time>2026-04-04T17:51:49.715Z</time></trkpt><trkpt lat="44.6415504" lon="10.0781273"><ele>560.0</ele><time>2026-04-04T17:51:50.715Z</time></trkpt><trkpt lat="44.6416888" lon="10.0781105"><ele>556.0</ele><time>2026-04-04T17:51:51.731Z</time></trkpt><trkpt lat="44.6418347" lon="10.0781775"><ele>557.3333333333334</ele><time>2026-04-04T17:51:52.718Z</time></trkpt><trkpt lat="44.6420259" lon="10.0782845"><ele>558.6666666666666</ele><time>2026-04-04T17:51:53.721Z</time></trkpt><trkpt lat="44.642252" lon="10.0783774"><ele>560.0</ele><time>2026-04-04T17:51:54.721Z</time></trkpt><trkpt lat="44.6424584" lon="10.0784223"><ele>560.0</ele><time>2026-04-04T17:51:55.715Z</time></trkpt><trkpt lat="44.6426458" lon="10.0783924"><ele>560.0</ele><time>2026-04-04T17:51:56.722Z</time></trkpt><trkpt lat="44.6428174" lon="10.0782856"><ele>560.0</ele><time>2026-04-04T17:51:57.72Z</time></trkpt><trkpt lat="44.6429765" lon="10.0780995"><ele>553.5</ele><time>2026-04-04T17:51:58.711Z</time></trkpt><trkpt lat="44.6431129" lon="10.0778413"><ele>547.0</ele><time>2026-04-04T17:51:59.718Z</time></trkpt><trkpt lat="44.6432319" lon="10.0775796"><ele>544.5</ele><time>2026-04-04T17:52:00.726Z</time></trkpt><trkpt lat="44.6433342" lon="10.0773796"><ele>542.0</ele><time>2026-04-04T17:52:01.715Z</time></trkpt><trkpt lat="44.6434377" lon="10.0772664"><ele>539.5</ele><time>2026-04-04T17:52:02.719Z</time></trkpt><trkpt lat="44.643541" lon="10.0772299"><ele>537.0</ele><time>2026-04-04T17:52:03.721Z</time></trkpt><trkpt lat="44.6436762" lon="10.0772926"><ele>537.6666666666666</ele><time>2026-04-04T17:52:04.722Z</time></trkpt><trkpt lat="44.6438554" lon="10.0774042"><ele>538.3333333333333</ele><time>2026-04-04T17:52:05.718Z</time></trkpt><trkpt lat="44.6440314" lon="10.0775023"><ele>539.0</ele><time>2026-04-04T17:52:06.731Z</time></trkpt><trkpt lat="44.644166" lon="10.0776004"><ele>539.0</ele><time>2026-04-04T17:52:07.723Z</time></trkpt><trkpt lat="44.6442623" lon="10.0777461"><ele>539.0</ele><time>2026-04-04T17:52:08.725Z</time></trkpt><trkpt lat="44.6442969" lon="10.0779623"><ele>539.0</ele><time>2026-04-04T17:52:09.729Z</time></trkpt><trkpt lat="44.6442986" lon="10.0782358"><ele>540.0</ele><time>2026-04-04T17:52:10.732Z</time></trkpt><trkpt lat="44.6442753" lon="10.0785481"><ele>541.0</ele><time>2026-04-04T17:52:11.723Z</time></trkpt><trkpt lat="44.6442747" lon="10.0788069"><ele>542.0</ele><time>2026-04-04T17:52:12.725Z</time></trkpt><trkpt lat="44.6443011" lon="10.0790155"><ele>541.3333333333333</ele><time>2026-04-04T17:52:13.732Z</time></trkpt><trkpt lat="44.6443852" lon="10.079202"><ele>540.6666666666666</ele><time>2026-04-04T17:52:14.735Z</time></trkpt><trkpt lat="44.644527" lon="10.0793499"><ele>540.0</ele><time>2026-04-04T17:52:15.73Z</time></trkpt><trkpt lat="44.6447233" lon="10.0794445"><ele>529.5</ele><time>2026-04-04T17:52:16.731Z</time></trkpt><trkpt lat="44.6449649" lon="10.0795343"><ele>519.0</ele><time>2026-04-04T17:52:17.722Z</time></trkpt><trkpt lat="44.6452498" lon="10.0796549"><ele>520.5</ele><time>2026-04-04T17:52:18.709Z</time></trkpt><trkpt lat="44.6455389" lon="10.0797877"><ele>522.0</ele><time>2026-04-04T17:52:19.711Z</time></trkpt><trkpt lat="44.6458328" lon="10.0799442"><ele>522.0</ele><time>2026-04-04T17:52:20.711Z</time></trkpt><trkpt lat="44.6460948" lon="10.0801093"><ele>522.0</ele><time>2026-04-04T17:52:21.719Z</time></trkpt><trkpt lat="44.6463368" lon="10.0802681"><ele>508.0</ele><time>2026-04-04T17:52:22.72Z</time></trkpt><trkpt lat="44.6465533" lon="10.0804163"><ele>494.0</ele><time>2026-04-04T17:52:23.715Z</time></trkpt><trkpt lat="44.6467427" lon="10.0805561"><ele>494.0</ele><time>2026-04-04T17:52:24.722Z</time></trkpt><trkpt lat="44.6469078" lon="10.080734"><ele>494.0</ele><time>2026-04-04T17:52:25.713Z</time></trkpt><trkpt lat="44.6470581" lon="10.0809644"><ele>494.0</ele><time>2026-04-04T17:52:26.72Z</time></trkpt><trkpt lat="44.6472082" lon="10.0812377"><ele>491.3333333333333</ele><time>2026-04-04T17:52:27.712Z</time></trkpt><trkpt lat="44.6473468" lon="10.0815047"><ele>488.66666666666663</ele><time>2026-04-04T17:52:28.709Z</time></trkpt><trkpt lat="44.6474456" lon="10.0817485"><ele>486.0</ele><time>2026-04-04T17:52:29.716Z</time></trkpt><trkpt lat="44.6475212" lon="10.0819516"><ele>488.0</ele><time>2026-04-04T17:52:30.717Z</time></trkpt><trkpt lat="44.6476165" lon="10.0820806"><ele>490.0</ele><time>2026-04-04T17:52:31.701Z</time></trkpt><trkpt lat="44.6477437" lon="10.0821713"><ele>492.0</ele><time>2026-04-04T17:52:32.713Z</time></trkpt><trkpt lat="44.6478718" lon="10.0821752"><ele>494.0</ele><time>2026-04-04T17:52:33.702Z</time></trkpt><trkpt lat="44.648001" lon="10.0820965"><ele>494.0</ele><time>2026-04-04T17:52:34.705Z</time></trkpt><trkpt lat="44.6481247" lon="10.0819242"><ele>494.0</ele><time>2026-04-04T17:52:35.702Z</time></trkpt><trkpt lat="44.6482813" lon="10.0817"><ele>494.0</ele><time>2026-04-04T17:52:36.716Z</time></trkpt><trkpt lat="44.6484646" lon="10.081438"><ele>489.0</ele><time>2026-04-04T17:52:37.709Z</time></trkpt><trkpt lat="44.6486411" lon="10.0811901"><ele>484.0</ele><time>2026-04-04T17:52:38.7Z</time></trkpt><trkpt lat="44.6488038" lon="10.0809791"><ele>484.0</ele><time>2026-04-04T17:52:39.714Z</time></trkpt><trkpt lat="44.6489447" lon="10.0808184"><ele>484.0</ele><time>2026-04-04T17:52:40.718Z</time></trkpt><trkpt lat="44.6490793" lon="10.0807065"><ele>484.0</ele><time>2026-04-04T17:52:41.72Z</time></trkpt><trkpt lat="44.649224" lon="10.0807154"><ele>484.0</ele><time>2026-04-04T17:52:42.722Z</time></trkpt><trkpt lat="44.6493837" lon="10.0807993"><ele>484.0</ele><time>2026-04-04T17:52:43.714Z</time></trkpt><trkpt lat="44.6495532" lon="10.0809216"><ele>484.0</ele><time>2026-04-04T17:52:44.717Z</time></trkpt><trkpt lat="44.6497731" lon="10.081024"><ele>480.33333333333337</ele><time>2026-04-04T17:52:45.727Z</time></trkpt><trkpt lat="44.649998" lon="10.0810776"><ele>476.66666666666663</ele><time>2026-04-04T17:52:46.713Z</time></trkpt><trkpt lat="44.6501887" lon="10.0811637"><ele>473.0</ele><time>2026-04-04T17:52:47.723Z</time></trkpt><trkpt lat="44.6503516" lon="10.0813267"><ele>472.66666666666663</ele><time>2026-04-04T17:52:48.723Z</time></trkpt><trkpt lat="44.6504955" lon="10.0814767"><ele>472.33333333333337</ele><time>2026-04-04T17:52:49.719Z</time></trkpt><trkpt lat="44.6506782" lon="10.0816029"><ele>472.0</ele><time>2026-04-04T17:52:50.729Z</time></trkpt><trkpt lat="44.6509216" lon="10.0816292"><ele>467.0</ele><time>2026-04-04T17:52:51.729Z</time></trkpt><trkpt lat="44.6511917" lon="10.0816529"><ele>462.0</ele><time>2026-04-04T17:52:52.728Z</time></trkpt><trkpt lat="44.6514358" lon="10.0816903"><ele>462.0</ele><time>2026-04-04T17:52:53.725Z</time></trkpt><trkpt lat="44.651636" lon="10.0817211"><ele>462.0</ele><time>2026-04-04T17:52:54.727Z</time></trkpt><trkpt lat="44.6518133" lon="10.0817747"><ele>462.0</ele><time>2026-04-04T17:52:55.728Z</time></trkpt><trkpt lat="44.6519714" lon="10.081906"><ele>460.33333333333337</ele><time>2026-04-04T17:52:56.731Z</time></trkpt><trkpt lat="44.6521332" lon="10.0820959"><ele>458.6666666666667</ele><time>2026-04-04T17:52:57.728Z</time></trkpt><trkpt lat="44.6522644" lon="10.0823272"><ele>457.0</ele><time>2026-04-04T17:52:58.725Z</time></trkpt><trkpt lat="44.652342" lon="10.0825652"><ele>457.0</ele><time>2026-04-04T17:52:59.716Z</time></trkpt><trkpt lat="44.652408" lon="10.082761"><ele>457.0</ele><time>2026-04-04T17:53:00.731Z</time></trkpt><trkpt lat="44.6525057" lon="10.082872"><ele>457.0</ele><time>2026-04-04T17:53:01.727Z</time></trkpt><trkpt lat="44.6526565" lon="10.0829157"><ele>457.0</ele><time>2026-04-04T17:53:02.718Z</time></trkpt><trkpt lat="44.6528415" lon="10.0829348"><ele>453.33333333333337</ele><time>2026-04-04T17:53:03.73Z</time></trkpt><trkpt lat="44.6530588" lon="10.0828998"><ele>449.66666666666663</ele><time>2026-04-04T17:53:04.723Z</time></trkpt><trkpt lat="44.6532517" lon="10.0828767"><ele>446.0</ele><time>2026-04-04T17:53:05.71Z</time></trkpt><trkpt lat="44.6534384" lon="10.0829065"><ele>440.0</ele><time>2026-04-04T17:53:06.717Z</time></trkpt><trkpt lat="44.6536445" lon="10.0830422"><ele>434.0</ele><time>2026-04-04T17:53:07.711Z</time></trkpt><trkpt lat="44.6538579" lon="10.0832349"><ele>441.0</ele><time>2026-04-04T17:53:08.715Z</time></trkpt><trkpt lat="44.6540821" lon="10.0833752"><ele>448.0</ele><time>2026-04-04T17:53:09.717Z</time></trkpt><trkpt lat="44.654304" lon="10.0834793"><ele>442.33333333333337</ele><time>2026-04-04T17:53:10.72Z</time></trkpt><trkpt lat="44.6545018" lon="10.0835763"><ele>436.66666666666663</ele><time>2026-04-04T17:53:11.725Z</time></trkpt><trkpt lat="44.6546525" lon="10.0837214"><ele>431.0</ele><time>2026-04-04T17:53:12.728Z</time></trkpt><trkpt lat="44.6547742" lon="10.0838968"><ele>431.0</ele><time>2026-04-04T17:53:13.715Z</time></trkpt><trkpt lat="44.6549272" lon="10.0840475"><ele>431.0</ele><time>2026-04-04T17:53:14.72Z</time></trkpt><trkpt lat="44.6550994" lon="10.0841074"><ele>431.0</ele><time>2026-04-04T17:53:15.72Z</time></trkpt><trkpt lat="44.6553027" lon="10.0840924"><ele>431.25</ele><time>2026-04-04T17:53:16.721Z</time></trkpt><trkpt lat="44.6554858" lon="10.0840542"><ele>431.5</ele><time>2026-04-04T17:53:17.728Z</time></trkpt><trkpt lat="44.655611" lon="10.0840708"><ele>431.75</ele><time>2026-04-04T17:53:18.724Z</time></trkpt><trkpt lat="44.6556965" lon="10.0841768"><ele>432.0</ele><time>2026-04-04T17:53:19.732Z</time></trkpt><trkpt lat="44.6557395" lon="10.0843455"><ele>432.0</ele><time>2026-04-04T17:53:20.729Z</time></trkpt><trkpt lat="44.6557456" lon="10.0845966"><ele>432.0</ele><time>2026-04-04T17:53:21.734Z</time></trkpt><trkpt lat="44.6557262" lon="10.0848838"><ele>432.0</ele><time>2026-04-04T17:53:22.719Z</time></trkpt><trkpt lat="44.6557282" lon="10.085221"><ele>432.75</ele><time>2026-04-04T17:53:23.72Z</time></trkpt><trkpt lat="44.6557415" lon="10.0854756"><ele>433.5</ele><time>2026-04-04T17:53:24.722Z</time></trkpt><trkpt lat="44.6557505" lon="10.085655"><ele>434.25</ele><time>2026-04-04T17:53:25.715Z</time></trkpt><trkpt lat="44.6558003" lon="10.0857817"><ele>435.0</ele><time>2026-04-04T17:53:26.731Z</time></trkpt><trkpt lat="44.6559059" lon="10.0858628"><ele>435.33333333333337</ele><time>2026-04-04T17:53:27.724Z</time></trkpt><trkpt lat="44.6560801" lon="10.0858925"><ele>435.6666666666667</ele><time>2026-04-04T17:53:28.726Z</time></trkpt><trkpt lat="44.6563049" lon="10.0859135"><ele>436.0</ele><time>2026-04-04T17:53:29.723Z</time></trkpt><trkpt lat="44.6565042" lon="10.0859401"><ele>431.75</ele><time>2026-04-04T17:53:30.728Z</time></trkpt><trkpt lat="44.6566559" lon="10.0859954"><ele>427.5</ele><time>2026-04-04T17:53:31.729Z</time></trkpt><trkpt lat="44.6567469" lon="10.0861068"><ele>423.25</ele><time>2026-04-04T17:53:32.731Z</time></trkpt><trkpt lat="44.6567928" lon="10.0862766"><ele>419.0</ele><time>2026-04-04T17:53:33.731Z</time></trkpt><trkpt lat="44.6568251" lon="10.0865093"><ele>420.66666666666663</ele><time>2026-04-04T17:53:34.735Z</time></trkpt><trkpt lat="44.656871" lon="10.086834"><ele>422.33333333333337</ele><time>2026-04-04T17:53:35.725Z</time></trkpt><trkpt lat="44.656913" lon="10.0870813"><ele>424.0</ele><time>2026-04-04T17:53:36.727Z</time></trkpt><trkpt lat="44.6569808" lon="10.0872583"><ele>417.0</ele><time>2026-04-04T17:53:37.732Z</time></trkpt><trkpt lat="44.6570971" lon="10.087359"><ele>410.0</ele><time>2026-04-04T17:53:38.725Z</time></trkpt><trkpt lat="44.6572657" lon="10.0873702"><ele>403.0</ele><time>2026-04-04T17:53:39.737Z</time></trkpt><trkpt lat="44.657444" lon="10.0873929"><ele>405.25</ele><time>2026-04-04T17:53:40.734Z</time></trkpt><trkpt lat="44.657575" lon="10.0874353"><ele>407.5</ele><time>2026-04-04T17:53:41.737Z</time></trkpt><trkpt lat="44.6576472" lon="10.0875432"><ele>409.75</ele><time>2026-04-04T17:53:42.724Z</time></trkpt><trkpt lat="44.6576615" lon="10.0877181"><ele>412.0</ele><time>2026-04-04T17:53:43.735Z</time></trkpt><trkpt lat="44.6576163" lon="10.0879355"><ele>412.0</ele><time>2026-04-04T17:53:44.734Z</time></trkpt><trkpt lat="44.6575191" lon="10.0881692"><ele>412.0</ele><time>2026-04-04T17:53:45.735Z</time></trkpt><trkpt lat="44.6574613" lon="10.0883443"><ele>412.0</ele><time>2026-04-04T17:53:46.737Z</time></trkpt><trkpt lat="44.6574544" lon="10.0884859"><ele>412.0</ele><time>2026-04-04T17:53:47.741Z</time></trkpt><trkpt lat="44.6575198" lon="10.0885879"><ele>412.0</ele><time>2026-04-04T17:53:48.74Z</time></trkpt><trkpt lat="44.6576235" lon="10.0886229"><ele>412.0</ele><time>2026-04-04T17:53:49.727Z</time></trkpt><trkpt lat="44.6577087" lon="10.0885676"><ele>412.0</ele><time>2026-04-04T17:53:50.729Z</time></trkpt><trkpt lat="44.6577511" lon="10.0884196"><ele>412.0</ele><time>2026-04-04T17:53:51.728Z</time></trkpt><trkpt lat="44.6577828" lon="10.0881996"><ele>405.0</ele><time>2026-04-04T17:53:52.738Z</time></trkpt><trkpt lat="44.6578238" lon="10.0879347"><ele>398.0</ele><time>2026-04-04T17:53:53.717Z</time></trkpt><trkpt lat="44.6579025" lon="10.0876869"><ele>391.0</ele><time>2026-04-04T17:53:54.727Z</time></trkpt><trkpt lat="44.6579583" lon="10.0874758"><ele>391.0</ele><time>2026-04-04T17:53:55.723Z</time></trkpt><trkpt lat="44.6579826" lon="10.0873214"><ele>391.0</ele><time>2026-04-04T17:53:56.733Z</time></trkpt><trkpt lat="44.6580274" lon="10.0872435"><ele>391.0</ele><time>2026-04-04T17:53:57.73Z</time></trkpt><trkpt lat="44.6581002" lon="10.0872878"><ele>391.0</ele><time>2026-04-04T17:53:58.733Z</time></trkpt><trkpt lat="44.6581485" lon="10.0874019"><ele>391.0</ele><time>2026-04-04T17:53:59.729Z</time></trkpt><trkpt lat="44.658134" lon="10.0875627"><ele>391.0</ele><time>2026-04-04T17:54:00.73Z</time></trkpt><trkpt lat="44.6581068" lon="10.0877862"><ele>391.0</ele><time>2026-04-04T17:54:01.728Z</time></trkpt><trkpt lat="44.6580854" lon="10.088069"><ele>391.0</ele><time>2026-04-04T17:54:02.729Z</time></trkpt><trkpt lat="44.6580859" lon="10.088419"><ele>389.0</ele><time>2026-04-04T17:54:03.721Z</time></trkpt><trkpt lat="44.6581303" lon="10.088782"><ele>387.0</ele><time>2026-04-04T17:54:04.73Z</time></trkpt><trkpt lat="44.6582126" lon="10.0891188"><ele>386.66666666666663</ele><time>2026-04-04T17:54:05.728Z</time></trkpt><trkpt lat="44.6582941" lon="10.0894073"><ele>386.3333333333333</ele><time>2026-04-04T17:54:06.723Z</time></trkpt><trkpt lat="44.6583622" lon="10.089656"><ele>386.0</ele><time>2026-04-04T17:54:07.73Z</time></trkpt><trkpt lat="44.6583898" lon="10.0898294"><ele>384.8</ele><time>2026-04-04T17:54:08.728Z</time></trkpt><trkpt lat="44.6584358" lon="10.0899334"><ele>383.6</ele><time>2026-04-04T17:54:09.729Z</time></trkpt><trkpt lat="44.6585116" lon="10.0899903"><ele>382.4</ele><time>2026-04-04T17:54:10.726Z</time></trkpt><trkpt lat="44.6586173" lon="10.0899665"><ele>381.2</ele><time>2026-04-04T17:54:11.731Z</time></trkpt><trkpt lat="44.6587015" lon="10.0898657"><ele>380.0</ele><time>2026-04-04T17:54:12.732Z</time></trkpt><trkpt lat="44.6587395" lon="10.0897092"><ele>382.33333333333337</ele><time>2026-04-04T17:54:13.727Z</time></trkpt><trkpt lat="44.6587216" lon="10.0895448"><ele>384.6666666666667</ele><time>2026-04-04T17:54:14.725Z</time></trkpt><trkpt lat="44.6586624" lon="10.0893397"><ele>387.0</ele><time>2026-04-04T17:54:15.723Z</time></trkpt><trkpt lat="44.6586102" lon="10.0890719"><ele>379.3333333333333</ele><time>2026-04-04T17:54:16.724Z</time></trkpt><trkpt lat="44.6586207" lon="10.0887794"><ele>371.66666666666663</ele><time>2026-04-04T17:54:17.719Z</time></trkpt><trkpt lat="44.6586735" lon="10.0885153"><ele>364.0</ele><time>2026-04-04T17:54:18.721Z</time></trkpt><trkpt lat="44.6587571" lon="10.0882641"><ele>367.0</ele><time>2026-04-04T17:54:19.713Z</time></trkpt><trkpt lat="44.6588742" lon="10.0880062"><ele>370.0</ele><time>2026-04-04T17:54:20.722Z</time></trkpt><trkpt lat="44.6590373" lon="10.0877613"><ele>370.0</ele><time>2026-04-04T17:54:21.729Z</time></trkpt><trkpt lat="44.6592504" lon="10.0875168"><ele>370.0</ele><time>2026-04-04T17:54:22.73Z</time></trkpt><trkpt lat="44.6594882" lon="10.0872833"><ele>364.0</ele><time>2026-04-04T17:54:23.725Z</time></trkpt><trkpt lat="44.6596695" lon="10.087096"><ele>358.0</ele><time>2026-04-04T17:54:24.732Z</time></trkpt><trkpt lat="44.6597878" lon="10.0869579"><ele>352.0</ele><time>2026-04-04T17:54:25.722Z</time></trkpt><trkpt lat="44.6598779" lon="10.0868542"><ele>352.0</ele><time>2026-04-04T17:54:26.729Z</time></trkpt><trkpt lat="44.6599613" lon="10.0868174"><ele>352.0</ele><time>2026-04-04T17:54:27.735Z</time></trkpt><trkpt lat="44.6600252" lon="10.086855"><ele>352.0</ele><time>2026-04-04T17:54:28.726Z</time></trkpt><trkpt lat="44.6600407" lon="10.0869591"><ele>352.0</ele><time>2026-04-04T17:54:29.723Z</time></trkpt><trkpt lat="44.6599912" lon="10.087108"><ele>352.0</ele><time>2026-04-04T17:54:30.739Z</time></trkpt><trkpt lat="44.6598781" lon="10.0873058"><ele>351.66666666666663</ele><time>2026-04-04T17:54:31.725Z</time></trkpt><trkpt lat="44.6597568" lon="10.0875627"><ele>351.3333333333333</ele><time>2026-04-04T17:54:32.716Z</time></trkpt><trkpt lat="44.6596404" lon="10.087832"><ele>351.0</ele><time>2026-04-04T17:54:33.715Z</time></trkpt><trkpt lat="44.6595664" lon="10.0880711"><ele>349.3333333333333</ele><time>2026-04-04T17:54:34.717Z</time></trkpt><trkpt lat="44.6595454" lon="10.0883037"><ele>347.66666666666663</ele><time>2026-04-04T17:54:35.722Z</time></trkpt><trkpt lat="44.659582" lon="10.0885507"><ele>346.0</ele><time>2026-04-04T17:54:36.732Z</time></trkpt><trkpt lat="44.6596784" lon="10.0888279"><ele>343.0</ele><time>2026-04-04T17:54:37.727Z</time></trkpt><trkpt lat="44.6597877" lon="10.089124"><ele>340.0</ele><time>2026-04-04T17:54:38.727Z</time></trkpt><trkpt lat="44.6599182" lon="10.0894448"><ele>340.0</ele><time>2026-04-04T17:54:39.726Z</time></trkpt><trkpt lat="44.6600667" lon="10.0897662"><ele>340.0</ele><time>2026-04-04T17:54:40.714Z</time></trkpt><trkpt lat="44.6602147" lon="10.0900726"><ele>330.0</ele><time>2026-04-04T17:54:41.72Z</time></trkpt><trkpt lat="44.6603635" lon="10.0903587"><ele>320.0</ele><time>2026-04-04T17:54:42.725Z</time></trkpt><trkpt lat="44.6604938" lon="10.0906368"><ele>322.0</ele><time>2026-04-04T17:54:43.729Z</time></trkpt><trkpt lat="44.6606089" lon="10.0909527"><ele>324.0</ele><time>2026-04-04T17:54:44.726Z</time></trkpt><trkpt lat="44.660694" lon="10.091279"><ele>324.0</ele><time>2026-04-04T17:54:45.728Z</time></trkpt><trkpt lat="44.660748" lon="10.0915882"><ele>324.0</ele><time>2026-04-04T17:54:46.729Z</time></trkpt><trkpt lat="44.6607633" lon="10.0918406"><ele>324.0</ele><time>2026-04-04T17:54:47.729Z</time></trkpt><trkpt lat="44.6607611" lon="10.092048"><ele>324.0</ele><time>2026-04-04T17:54:48.726Z</time></trkpt><trkpt lat="44.6607843" lon="10.0921992"><ele>324.0</ele><time>2026-04-04T17:54:49.727Z</time></trkpt><trkpt lat="44.6608508" lon="10.0922839"><ele>324.0</ele><time>2026-04-04T17:54:50.73Z</time></trkpt><trkpt lat="44.6609564" lon="10.092304"><ele>324.0</ele><time>2026-04-04T17:54:51.733Z</time></trkpt><trkpt lat="44.6610545" lon="10.092207"><ele>324.0</ele><time>2026-04-04T17:54:52.734Z</time></trkpt><trkpt lat="44.6610969" lon="10.092064"><ele>324.0</ele><time>2026-04-04T17:54:53.724Z</time></trkpt><trkpt lat="44.6610982" lon="10.0918514"><ele>324.0</ele><time>2026-04-04T17:54:54.733Z</time></trkpt><trkpt lat="44.6610829" lon="10.0915564"><ele>324.0</ele><time>2026-04-04T17:54:55.712Z</time></trkpt><trkpt lat="44.6610803" lon="10.091229"><ele>324.0</ele><time>2026-04-04T17:54:56.711Z</time></trkpt><trkpt lat="44.6610807" lon="10.0908395"><ele>324.0</ele><time>2026-04-04T17:54:57.723Z</time></trkpt><trkpt lat="44.6611013" lon="10.0905325"><ele>319.3333333333333</ele><time>2026-04-04T17:54:58.715Z</time></trkpt><trkpt lat="44.6611542" lon="10.0902676"><ele>314.66666666666663</ele><time>2026-04-04T17:54:59.712Z</time></trkpt><trkpt lat="44.6612544" lon="10.0900493"><ele>310.0</ele><time>2026-04-04T17:55:00.734Z</time></trkpt><trkpt lat="44.6614326" lon="10.0898553"><ele>310.0</ele><time>2026-04-04T17:55:01.726Z</time></trkpt><trkpt lat="44.6616565" lon="10.0896704"><ele>310.0</ele><time>2026-04-04T17:55:02.731Z</time></trkpt><trkpt lat="44.661876" lon="10.0895286"><ele>307.66666666666663</ele><time>2026-04-04T17:55:03.717Z</time></trkpt><trkpt lat="44.6620638" lon="10.0893916"><ele>305.3333333333333</ele><time>2026-04-04T17:55:04.72Z</time></trkpt><trkpt lat="44.6622448" lon="10.0893122"><ele>303.0</ele><time>2026-04-04T17:55:05.726Z</time></trkpt><trkpt lat="44.6624429" lon="10.0893202"><ele>303.0</ele><time>2026-04-04T17:55:06.726Z</time></trkpt><trkpt lat="44.662642" lon="10.0893481"><ele>303.0</ele><time>2026-04-04T17:55:07.729Z</time></trkpt><trkpt lat="44.662844" lon="10.0893823"><ele>303.0</ele><time>2026-04-04T17:55:08.731Z</time></trkpt><trkpt lat="44.6629802" lon="10.0894205"><ele>302.0</ele><time>2026-04-04T17:55:09.731Z</time></trkpt><trkpt lat="44.6630861" lon="10.0894753"><ele>301.0</ele><time>2026-04-04T17:55:10.723Z</time></trkpt><trkpt lat="44.6631681" lon="10.0895882"><ele>300.0</ele><time>2026-04-04T17:55:11.726Z</time></trkpt><trkpt lat="44.6631736" lon="10.0897447"><ele>299.0</ele><time>2026-04-04T17:55:12.724Z</time></trkpt><trkpt lat="44.6631237" lon="10.0899273"><ele>296.0</ele><time>2026-04-04T17:55:13.725Z</time></trkpt><trkpt lat="44.6630222" lon="10.0901379"><ele>293.0</ele><time>2026-04-04T17:55:14.723Z</time></trkpt><trkpt lat="44.6628792" lon="10.0903817"><ele>290.0</ele><time>2026-04-04T17:55:15.714Z</time></trkpt><trkpt lat="44.6627333" lon="10.0906284"><ele>287.6666666666667</ele><time>2026-04-04T17:55:16.72Z</time></trkpt><trkpt lat="44.662616" lon="10.0908264"><ele>285.3333333333333</ele><time>2026-04-04T17:55:17.73Z</time></trkpt><trkpt lat="44.6625491" lon="10.0910062"><ele>283.0</ele><time>2026-04-04T17:55:18.721Z</time></trkpt><trkpt lat="44.6625504" lon="10.0912084"><ele>283.0</ele><time>2026-04-04T17:55:19.728Z</time></trkpt><trkpt lat="44.662612" lon="10.0914382"><ele>283.0</ele><time>2026-04-04T17:55:20.729Z</time></trkpt><trkpt lat="44.662719" lon="10.0917282"><ele>283.0</ele><time>2026-04-04T17:55:21.725Z</time></trkpt><trkpt lat="44.6628284" lon="10.0920521"><ele>278.3333333333333</ele><time>2026-04-04T17:55:22.725Z</time></trkpt><trkpt lat="44.6629326" lon="10.0923606"><ele>273.6666666666667</ele><time>2026-04-04T17:55:23.721Z</time></trkpt><trkpt lat="44.6630305" lon="10.0926137"><ele>269.0</ele><time>2026-04-04T17:55:24.727Z</time></trkpt><trkpt lat="44.6631435" lon="10.0928034"><ele>268.33333333333337</ele><time>2026-04-04T17:55:25.734Z</time></trkpt><trkpt lat="44.6632743" lon="10.0929326"><ele>267.6666666666667</ele><time>2026-04-04T17:55:26.735Z</time></trkpt><trkpt lat="44.663446" lon="10.0930186"><ele>267.0</ele><time>2026-04-04T17:55:27.737Z</time></trkpt><trkpt lat="44.6636624" lon="10.0930445"><ele>264.6666666666667</ele><time>2026-04-04T17:55:28.726Z</time></trkpt><trkpt lat="44.6638711" lon="10.0930581"><ele>262.33333333333337</ele><time>2026-04-04T17:55:29.719Z</time></trkpt><trkpt lat="44.6640591" lon="10.0930881"><ele>260.0</ele><time>2026-04-04T17:55:30.729Z</time></trkpt><trkpt lat="44.6642374" lon="10.0931159"><ele>260.0</ele><time>2026-04-04T17:55:31.716Z</time></trkpt><trkpt lat="44.6644027" lon="10.0931469"><ele>260.0</ele><time>2026-04-04T17:55:32.72Z</time></trkpt><trkpt lat="44.6645656" lon="10.0931768"><ele>260.0</ele><time>2026-04-04T17:55:33.709Z</time></trkpt><trkpt lat="44.6647211" lon="10.0931939"><ele>258.0</ele><time>2026-04-04T17:55:34.72Z</time></trkpt><trkpt lat="44.66487" lon="10.0932133"><ele>256.0</ele><time>2026-04-04T17:55:35.718Z</time></trkpt><trkpt lat="44.6650155" lon="10.0932278"><ele>254.0</ele><time>2026-04-04T17:55:36.721Z</time></trkpt><trkpt lat="44.6651582" lon="10.0932283"><ele>252.0</ele><time>2026-04-04T17:55:37.713Z</time></trkpt><trkpt lat="44.665297" lon="10.0932078"><ele>249.25</ele><time>2026-04-04T17:55:38.723Z</time></trkpt><trkpt lat="44.6654414" lon="10.0931683"><ele>246.5</ele><time>2026-04-04T17:55:39.722Z</time></trkpt><trkpt lat="44.6655805" lon="10.0931326"><ele>243.75</ele><time>2026-04-04T17:55:40.72Z</time></trkpt><trkpt lat="44.6657152" lon="10.0931036"><ele>241.0</ele><time>2026-04-04T17:55:41.722Z</time></trkpt><trkpt lat="44.6658448" lon="10.0930799"><ele>241.0</ele><time>2026-04-04T17:55:42.719Z</time></trkpt><trkpt lat="44.6659734" lon="10.0931118"><ele>241.0</ele><time>2026-04-04T17:55:43.724Z</time></trkpt><trkpt lat="44.6660726" lon="10.0932293"><ele>241.0</ele><time>2026-04-04T17:55:44.731Z</time></trkpt><trkpt lat="44.6661546" lon="10.0933922"><ele>241.0</ele><time>2026-04-04T17:55:45.726Z</time></trkpt><trkpt lat="44.6662353" lon="10.0935481"><ele>239.25</ele><time>2026-04-04T17:55:46.721Z</time></trkpt><trkpt lat="44.6663411" lon="10.0936811"><ele>237.5</ele><time>2026-04-04T17:55:47.721Z</time></trkpt><trkpt lat="44.6664613" lon="10.0937966"><ele>235.75</ele><time>2026-04-04T17:55:48.721Z</time></trkpt><trkpt lat="44.6665862" lon="10.0939042"><ele>234.0</ele><time>2026-04-04T17:55:49.72Z</time></trkpt><trkpt lat="44.6667042" lon="10.0939954"><ele>234.25</ele><time>2026-04-04T17:55:50.719Z</time></trkpt><trkpt lat="44.6668247" lon="10.0940931"><ele>234.5</ele><time>2026-04-04T17:55:51.723Z</time></trkpt><trkpt lat="44.6669344" lon="10.0941855"><ele>234.75</ele><time>2026-04-04T17:55:52.727Z</time></trkpt><trkpt lat="44.6670464" lon="10.0942778"><ele>235.0</ele><time>2026-04-04T17:55:53.726Z</time></trkpt><trkpt lat="44.6671556" lon="10.0943693"><ele>232.5</ele><time>2026-04-04T17:55:54.726Z</time></trkpt><trkpt lat="44.6672635" lon="10.0944572"><ele>230.0</ele><time>2026-04-04T17:55:55.724Z</time></trkpt><trkpt lat="44.6673731" lon="10.0945513"><ele>227.5</ele><time>2026-04-04T17:55:56.73Z</time></trkpt><trkpt lat="44.667503" lon="10.0946603"><ele>225.0</ele><time>2026-04-04T17:55:57.731Z</time></trkpt><trkpt lat="44.6676427" lon="10.0947892"><ele>223.0</ele><time>2026-04-04T17:55:58.716Z</time></trkpt><trkpt lat="44.6677929" lon="10.0949284"><ele>221.0</ele><time>2026-04-04T17:55:59.719Z</time></trkpt><trkpt lat="44.6679631" lon="10.0950484"><ele>219.0</ele><time>2026-04-04T17:56:00.726Z</time></trkpt><trkpt lat="44.6681599" lon="10.0951442"><ele>219.0</ele><time>2026-04-04T17:56:01.717Z</time></trkpt><trkpt lat="44.6683671" lon="10.0952409"><ele>219.0</ele><time>2026-04-04T17:56:02.723Z</time></trkpt><trkpt lat="44.6685616" lon="10.0953433"><ele>219.0</ele><time>2026-04-04T17:56:03.722Z</time></trkpt><trkpt lat="44.6687369" lon="10.0954374"><ele>216.33333333333331</ele><time>2026-04-04T17:56:04.714Z</time></trkpt><trkpt lat="44.6689182" lon="10.0955734"><ele>213.66666666666666</ele><time>2026-04-04T17:56:05.71Z</time></trkpt><trkpt lat="44.6690994" lon="10.0957682"><ele>211.0</ele><time>2026-04-04T17:56:06.716Z</time></trkpt><trkpt lat="44.6692598" lon="10.0960014"><ele>211.0</ele><time>2026-04-04T17:56:07.716Z</time></trkpt><trkpt lat="44.6693841" lon="10.0962183"><ele>211.0</ele><time>2026-04-04T17:56:08.714Z</time></trkpt><trkpt lat="44.6694613" lon="10.0964043"><ele>211.0</ele><time>2026-04-04T17:56:09.72Z</time></trkpt><trkpt lat="44.6694929" lon="10.0965858"><ele>210.33333333333331</ele><time>2026-04-04T17:56:10.72Z</time></trkpt><trkpt lat="44.6694674" lon="10.0967988"><ele>209.66666666666669</ele><time>2026-04-04T17:56:11.721Z</time></trkpt><trkpt lat="44.6694054" lon="10.0970438"><ele>209.0</ele><time>2026-04-04T17:56:12.721Z</time></trkpt><trkpt lat="44.6693344" lon="10.0973659"><ele>206.5</ele><time>2026-04-04T17:56:13.715Z</time></trkpt><trkpt lat="44.6692676" lon="10.0977157"><ele>204.0</ele><time>2026-04-04T17:56:14.714Z</time></trkpt><trkpt lat="44.6692223" lon="10.0980065"><ele>204.0</ele><time>2026-04-04T17:56:15.721Z</time></trkpt><trkpt lat="44.669192" lon="10.0982027"><ele>204.0</ele><time>2026-04-04T17:56:16.717Z</time></trkpt><trkpt lat="44.6691716" lon="10.0983902"><ele>204.0</ele><time>2026-04-04T17:56:17.716Z</time></trkpt><trkpt lat="44.6691859" lon="10.0985523"><ele>204.0</ele><time>2026-04-04T17:56:18.72Z</time></trkpt><trkpt lat="44.6692476" lon="10.0986744"><ele>202.75</ele><time>2026-04-04T17:56:19.727Z</time></trkpt><trkpt lat="44.6693604" lon="10.0987488"><ele>201.5</ele><time>2026-04-04T17:56:20.726Z</time></trkpt><trkpt lat="44.6695152" lon="10.0987514"><ele>200.25</ele><time>2026-04-04T17:56:21.727Z</time></trkpt><trkpt lat="44.6696469" lon="10.0986673"><ele>199.0</ele><time>2026-04-04T17:56:22.727Z</time></trkpt><trkpt lat="44.6697642" lon="10.0985117"><ele>197.33333333333331</ele><time>2026-04-04T17:56:23.719Z</time></trkpt><trkpt lat="44.6698639" lon="10.0982976"><ele>195.66666666666669</ele><time>2026-04-04T17:56:24.722Z</time></trkpt><trkpt lat="44.6699964" lon="10.0979973"><ele>194.0</ele><time>2026-04-04T17:56:25.724Z</time></trkpt><trkpt lat="44.6701732" lon="10.0976945"><ele>189.0</ele><time>2026-04-04T17:56:26.729Z</time></trkpt><trkpt lat="44.6703679" lon="10.0974115"><ele>184.0</ele><time>2026-04-04T17:56:27.719Z</time></trkpt><trkpt lat="44.6705527" lon="10.0971372"><ele>184.0</ele><time>2026-04-04T17:56:28.714Z</time></trkpt><trkpt lat="44.6707138" lon="10.0968418"><ele>184.0</ele><time>2026-04-04T17:56:29.719Z</time></trkpt><trkpt lat="44.6708354" lon="10.096558"><ele>183.66666666666669</ele><time>2026-04-04T17:56:30.729Z</time></trkpt><trkpt lat="44.67094" lon="10.0963114"><ele>183.33333333333334</ele><time>2026-04-04T17:56:31.714Z</time></trkpt><trkpt lat="44.6710451" lon="10.0960986"><ele>183.0</ele><time>2026-04-04T17:56:32.714Z</time></trkpt><trkpt lat="44.6711444" lon="10.095944"><ele>181.75</ele><time>2026-04-04T17:56:33.718Z</time></trkpt><trkpt lat="44.6712643" lon="10.095837"><ele>180.5</ele><time>2026-04-04T17:56:34.72Z</time></trkpt><trkpt lat="44.6713982" lon="10.0958415"><ele>179.25</ele><time>2026-04-04T17:56:35.722Z</time></trkpt><trkpt lat="44.6715422" lon="10.0959521"><ele>178.0</ele><time>2026-04-04T17:56:36.717Z</time></trkpt><trkpt lat="44.6716923" lon="10.0961381"><ele>178.0</ele><time>2026-04-04T17:56:37.727Z</time></trkpt><trkpt lat="44.6718574" lon="10.0963116"><ele>178.0</ele><time>2026-04-04T17:56:38.716Z</time></trkpt><trkpt lat="44.6720057" lon="10.0964852"><ele>178.0</ele><time>2026-04-04T17:56:39.716Z</time></trkpt><trkpt lat="44.6721154" lon="10.0966817"><ele>175.33333333333334</ele><time>2026-04-04T17:56:40.73Z</time></trkpt><trkpt lat="44.6721786" lon="10.0969261"><ele>172.66666666666666</ele><time>2026-04-04T17:56:41.725Z</time></trkpt><trkpt lat="44.6721929" lon="10.0972019"><ele>170.0</ele><time>2026-04-04T17:56:42.725Z</time></trkpt><trkpt lat="44.6721923" lon="10.0974483"><ele>169.25</ele><time>2026-04-04T17:56:43.72Z</time></trkpt><trkpt lat="44.6722039" lon="10.0976519"><ele>168.5</ele><time>2026-04-04T17:56:44.722Z</time></trkpt><trkpt lat="44.6722618" lon="10.0978009"><ele>167.75</ele><time>2026-04-04T17:56:45.725Z</time></trkpt><trkpt lat="44.6723662" lon="10.0978972"><ele>167.0</ele><time>2026-04-04T17:56:46.723Z</time></trkpt><trkpt lat="44.6724943" lon="10.0979268"><ele>167.0</ele><time>2026-04-04T17:56:47.726Z</time></trkpt><trkpt lat="44.6726492" lon="10.0978435"><ele>167.0</ele><time>2026-04-04T17:56:48.727Z</time></trkpt><trkpt lat="44.6728422" lon="10.0977091"><ele>167.0</ele><time>2026-04-04T17:56:49.721Z</time></trkpt><trkpt lat="44.6730656" lon="10.0975611"><ele>165.66666666666666</ele><time>2026-04-04T17:56:50.708Z</time></trkpt><trkpt lat="44.6732648" lon="10.0974528"><ele>164.33333333333334</ele><time>2026-04-04T17:56:51.719Z</time></trkpt><trkpt lat="44.6734473" lon="10.097351"><ele>163.0</ele><time>2026-04-04T17:56:52.728Z</time></trkpt><trkpt lat="44.6736278" lon="10.0972502"><ele>162.0</ele><time>2026-04-04T17:56:53.712Z</time></trkpt><trkpt lat="44.6737995" lon="10.0971563"><ele>161.0</ele><time>2026-04-04T17:56:54.721Z</time></trkpt><trkpt lat="44.673967" lon="10.0970706"><ele>160.0</ele><time>2026-04-04T17:56:55.721Z</time></trkpt><trkpt lat="44.6741211" lon="10.0969953"><ele>160.0</ele><time>2026-04-04T17:56:56.728Z</time></trkpt><trkpt lat="44.6742722" lon="10.0969227"><ele>160.0</ele><time>2026-04-04T17:56:57.724Z</time></trkpt><trkpt lat="44.6744111" lon="10.0968498"><ele>160.0</ele><time>2026-04-04T17:56:58.728Z</time></trkpt><trkpt lat="44.6745411" lon="10.0967811"><ele>160.0</ele><time>2026-04-04T17:56:59.715Z</time></trkpt><trkpt lat="44.6746695" lon="10.0967144"><ele>160.0</ele><time>2026-04-04T17:57:00.725Z</time></trkpt><trkpt lat="44.6747944" lon="10.0966669"><ele>160.0</ele><time>2026-04-04T17:57:01.72Z</time></trkpt><trkpt lat="44.6749204" lon="10.0966152"><ele>160.0</ele><time>2026-04-04T17:57:02.724Z</time></trkpt><trkpt lat="44.6750421" lon="10.0965553"><ele>160.0</ele><time>2026-04-04T17:57:03.718Z</time></trkpt><trkpt lat="44.675156" lon="10.0964985"><ele>160.0</ele><time>2026-04-04T17:57:04.717Z</time></trkpt><trkpt lat="44.6752706" lon="10.0964464"><ele>160.0</ele><time>2026-04-04T17:57:05.721Z</time></trkpt><trkpt lat="44.6753816" lon="10.0963914"><ele>160.0</ele><time>2026-04-04T17:57:06.718Z</time></trkpt><trkpt lat="44.6754912" lon="10.0963402"><ele>160.0</ele><time>2026-04-04T17:57:07.72Z</time></trkpt><trkpt lat="44.6755955" lon="10.0962823"><ele>159.4</ele><time>2026-04-04T17:57:08.718Z</time></trkpt><trkpt lat="44.67569" lon="10.0962274"><ele>158.8</ele><time>2026-04-04T17:57:09.726Z</time></trkpt><trkpt lat="44.67579" lon="10.0961784"><ele>158.2</ele><time>2026-04-04T17:57:10.72Z</time></trkpt><trkpt lat="44.6758825" lon="10.0961345"><ele>157.6</ele><time>2026-04-04T17:57:11.721Z</time></trkpt><trkpt lat="44.6759703" lon="10.0960905"><ele>157.0</ele><time>2026-04-04T17:57:12.722Z</time></trkpt><trkpt lat="44.6760546" lon="10.0960471"><ele>156.4</ele><time>2026-04-04T17:57:13.715Z</time></trkpt><trkpt lat="44.6761342" lon="10.0960027"><ele>155.79999999999998</ele><time>2026-04-04T17:57:14.717Z</time></trkpt><trkpt lat="44.6762167" lon="10.0959595"><ele>155.2</ele><time>2026-04-04T17:57:15.707Z</time></trkpt><trkpt lat="44.676302" lon="10.0959096"><ele>154.6</ele><time>2026-04-04T17:57:16.72Z</time></trkpt><trkpt lat="44.676389" lon="10.0958583"><ele>154.0</ele><time>2026-04-04T17:57:17.725Z</time></trkpt><trkpt lat="44.676477" lon="10.0958128"><ele>154.0</ele><time>2026-04-04T17:57:18.725Z</time></trkpt><trkpt lat="44.676564" lon="10.0957647"><ele>154.0</ele><time>2026-04-04T17:57:19.719Z</time></trkpt><trkpt lat="44.676651" lon="10.0957207"><ele>154.0</ele><time>2026-04-04T17:57:20.722Z</time></trkpt><trkpt lat="44.6767286" lon="10.0956799"><ele>154.0</ele><time>2026-04-04T17:57:21.721Z</time></trkpt><trkpt lat="44.6768022" lon="10.0956437"><ele>154.0</ele><time>2026-04-04T17:57:22.706Z</time></trkpt><trkpt lat="44.6768711" lon="10.0956102"><ele>154.0</ele><time>2026-04-04T17:57:23.722Z</time></trkpt><trkpt lat="44.6769385" lon="10.0955822"><ele>153.83333333333334</ele><time>2026-04-04T17:57:24.731Z</time></trkpt><trkpt lat="44.6770095" lon="10.095551"><ele>153.66666666666669</ele><time>2026-04-04T17:57:25.712Z</time></trkpt><trkpt lat="44.677084" lon="10.0955103"><ele>153.5</ele><time>2026-04-04T17:57:26.727Z</time></trkpt><trkpt lat="44.6771581" lon="10.0954662"><ele>153.33333333333334</ele><time>2026-04-04T17:57:27.725Z</time></trkpt><trkpt lat="44.6772333" lon="10.0954294"><ele>153.16666666666666</ele><time>2026-04-04T17:57:28.721Z</time></trkpt><trkpt lat="44.6773015" lon="10.0953909"><ele>153.0</ele><time>2026-04-04T17:57:29.725Z</time></trkpt><trkpt lat="44.6773658" lon="10.0953477"><ele>153.0</ele><time>2026-04-04T17:57:30.725Z</time></trkpt><trkpt lat="44.6774329" lon="10.0953059"><ele>153.0</ele><time>2026-04-04T17:57:31.721Z</time></trkpt><trkpt lat="44.6774972" lon="10.0952664"><ele>153.0</ele><time>2026-04-04T17:57:32.715Z</time></trkpt><trkpt lat="44.6775663" lon="10.0952285"><ele>153.0</ele><time>2026-04-04T17:57:33.722Z</time></trkpt><trkpt lat="44.6776366" lon="10.095188"><ele>153.0</ele><time>2026-04-04T17:57:34.713Z</time></trkpt><trkpt lat="44.6777065" lon="10.0951482"><ele>153.0</ele><time>2026-04-04T17:57:35.723Z</time></trkpt><trkpt lat="44.677775" lon="10.0951129"><ele>153.0</ele><time>2026-04-04T17:57:36.715Z</time></trkpt><trkpt lat="44.6778461" lon="10.0950697"><ele>152.57142857142856</ele><time>2026-04-04T17:57:37.725Z</time></trkpt><trkpt lat="44.6779188" lon="10.0950284"><ele>152.14285714285714</ele><time>2026-04-04T17:57:38.716Z</time></trkpt><trkpt lat="44.6779919" lon="10.0949915"><ele>151.71428571428572</ele><time>2026-04-04T17:57:39.71Z</time></trkpt><trkpt lat="44.6780594" lon="10.0949556"><ele>151.28571428571428</ele><time>2026-04-04T17:57:40.718Z</time></trkpt><trkpt lat="44.6781252" lon="10.0949243"><ele>150.85714285714286</ele><time>2026-04-04T17:57:41.719Z</time></trkpt><trkpt lat="44.6781955" lon="10.0948949"><ele>150.42857142857142</ele><time>2026-04-04T17:57:42.725Z</time></trkpt><trkpt lat="44.6782621" lon="10.0948601"><ele>150.0</ele><time>2026-04-04T17:57:43.726Z</time></trkpt><trkpt lat="44.6783241" lon="10.0948256"><ele>149.6</ele><time>2026-04-04T17:57:44.722Z</time></trkpt><trkpt lat="44.6784375" lon="10.0947768"><ele>149.2</ele><time>2026-04-04T17:57:46.713Z</time></trkpt><trkpt lat="44.6785342" lon="10.0947493"><ele>148.8</ele><time>2026-04-04T17:57:48.716Z</time></trkpt><trkpt lat="44.6786363" lon="10.094735"><ele>148.4</ele><time>2026-04-04T17:59:57.739Z</time></trkpt><trkpt lat="44.678743" lon="10.0946745"><ele>148.0</ele><time>2026-04-04T17:59:59.731Z</time></trkpt><trkpt lat="44.6788212" lon="10.0946066"><ele>148.0</ele><time>2026-04-04T18:00:00.766Z</time></trkpt><trkpt lat="44.6789219" lon="10.0945383"><ele>148.0</ele><time>2026-04-04T18:00:01.718Z</time></trkpt><trkpt lat="44.6790139" lon="10.0944847"><ele>148.0</ele><time>2026-04-04T18:00:02.717Z</time></trkpt><trkpt lat="44.679129" lon="10.0944661"><ele>148.0</ele><time>2026-04-04T18:00:03.712Z</time></trkpt><trkpt lat="44.6792763" lon="10.094472"><ele>148.0</ele><time>2026-04-04T18:00:04.719Z</time></trkpt><trkpt lat="44.6794134" lon="10.0945099"><ele>148.0</ele><time>2026-04-04T18:00:05.712Z</time></trkpt><trkpt lat="44.6795505" lon="10.0945868"><ele>148.0</ele><time>2026-04-04T18:00:06.729Z</time></trkpt><trkpt lat="44.6796762" lon="10.0946935"><ele>148.0</ele><time>2026-04-04T18:00:07.728Z</time></trkpt><trkpt lat="44.6798104" lon="10.0947873"><ele>148.0</ele><time>2026-04-04T18:00:08.753Z</time></trkpt><trkpt lat="44.6799549" lon="10.0948766"><ele>148.0</ele><time>2026-04-04T18:00:09.731Z</time></trkpt><trkpt lat="44.6801112" lon="10.0949686"><ele>148.0</ele><time>2026-04-04T18:00:10.734Z</time></trkpt><trkpt lat="44.6802728" lon="10.0950587"><ele>147.0</ele><time>2026-04-04T18:00:11.729Z</time></trkpt><trkpt lat="44.6804448" lon="10.0951512"><ele>146.0</ele><time>2026-04-04T18:00:12.732Z</time></trkpt><trkpt lat="44.6806213" lon="10.0952503"><ele>145.0</ele><time>2026-04-04T18:00:13.732Z</time></trkpt><trkpt lat="44.6808" lon="10.0953464"><ele>145.0</ele><time>2026-04-04T18:00:14.733Z</time></trkpt><trkpt lat="44.6809865" lon="10.095439"><ele>145.0</ele><time>2026-04-04T18:00:15.731Z</time></trkpt><trkpt lat="44.6811807" lon="10.0955358"><ele>145.0</ele><time>2026-04-04T18:00:16.728Z</time></trkpt><trkpt lat="44.6813738" lon="10.0956197"><ele>145.33333333333334</ele><time>2026-04-04T18:00:17.737Z</time></trkpt><trkpt lat="44.6815662" lon="10.0956993"><ele>145.66666666666666</ele><time>2026-04-04T18:00:18.73Z</time></trkpt><trkpt lat="44.681765" lon="10.0957651"><ele>146.0</ele><time>2026-04-04T18:00:19.726Z</time></trkpt><trkpt lat="44.6819646" lon="10.0958157"><ele>147.0</ele><time>2026-04-04T18:00:20.731Z</time></trkpt><trkpt lat="44.6821706" lon="10.0958677"><ele>148.0</ele><time>2026-04-04T18:00:21.73Z</time></trkpt><trkpt lat="44.682373" lon="10.0959082"><ele>149.0</ele><time>2026-04-04T18:00:22.729Z</time></trkpt><trkpt lat="44.6825872" lon="10.0959635"><ele>148.0</ele><time>2026-04-04T18:00:23.731Z</time></trkpt><trkpt lat="44.6828067" lon="10.0960115"><ele>147.0</ele><time>2026-04-04T18:00:24.737Z</time></trkpt><trkpt lat="44.6830266" lon="10.0960589"><ele>146.0</ele><time>2026-04-04T18:00:25.731Z</time></trkpt><trkpt lat="44.6832248" lon="10.0961036"><ele>146.0</ele><time>2026-04-04T18:00:26.73Z</time></trkpt><trkpt lat="44.6834182" lon="10.0961329"><ele>146.0</ele><time>2026-04-04T18:00:27.732Z</time></trkpt><trkpt lat="44.6836171" lon="10.0961747"><ele>146.0</ele><time>2026-04-04T18:00:28.729Z</time></trkpt><trkpt lat="44.6838216" lon="10.0962142"><ele>146.0</ele><time>2026-04-04T18:00:29.732Z</time></trkpt><trkpt lat="44.6840266" lon="10.0962617"><ele>146.0</ele><time>2026-04-04T18:00:30.753Z</time></trkpt><trkpt lat="44.6842346" lon="10.0963038"><ele>146.0</ele><time>2026-04-04T18:00:31.728Z</time></trkpt><trkpt lat="44.6844402" lon="10.0963521"><ele>145.66666666666666</ele><time>2026-04-04T18:00:32.734Z</time></trkpt><trkpt lat="44.6846451" lon="10.0964026"><ele>145.33333333333334</ele><time>2026-04-04T18:00:33.741Z</time></trkpt><trkpt lat="44.6848444" lon="10.096457"><ele>145.0</ele><time>2026-04-04T18:00:34.744Z</time></trkpt><trkpt lat="44.6850413" lon="10.0965063"><ele>145.0</ele><time>2026-04-04T18:00:35.749Z</time></trkpt><trkpt lat="44.6852356" lon="10.0965553"><ele>145.0</ele><time>2026-04-04T18:00:36.744Z</time></trkpt><trkpt lat="44.6854258" lon="10.0966"><ele>145.0</ele><time>2026-04-04T18:00:37.745Z</time></trkpt><trkpt lat="44.685608" lon="10.0966436"><ele>145.0</ele><time>2026-04-04T18:00:38.746Z</time></trkpt><trkpt lat="44.6857822" lon="10.0966748"><ele>145.0</ele><time>2026-04-04T18:00:39.743Z</time></trkpt><trkpt lat="44.6859505" lon="10.0967205"><ele>145.0</ele><time>2026-04-04T18:00:40.739Z</time></trkpt><trkpt lat="44.6861124" lon="10.0967514"><ele>145.0</ele><time>2026-04-04T18:00:41.744Z</time></trkpt><trkpt lat="44.686286" lon="10.0967951"><ele>145.0</ele><time>2026-04-04T18:00:42.74Z</time></trkpt><trkpt lat="44.6864554" lon="10.0968348"><ele>145.0</ele><time>2026-04-04T18:00:43.737Z</time></trkpt><trkpt lat="44.6866227" lon="10.0968721"><ele>145.0</ele><time>2026-04-04T18:00:44.74Z</time></trkpt><trkpt lat="44.6867888" lon="10.0969092"><ele>145.0</ele><time>2026-04-04T18:00:45.74Z</time></trkpt><trkpt lat="44.6869611" lon="10.0969455"><ele>145.0</ele><time>2026-04-04T18:00:46.742Z</time></trkpt><trkpt lat="44.6871408" lon="10.0969914"><ele>144.0</ele><time>2026-04-04T18:00:47.737Z</time></trkpt><trkpt lat="44.6873183" lon="10.0970328"><ele>143.0</ele><time>2026-04-04T18:00:48.747Z</time></trkpt><trkpt lat="44.6874833" lon="10.0970705"><ele>142.0</ele><time>2026-04-04T18:00:49.73Z</time></trkpt><trkpt lat="44.6876422" lon="10.0971074"><ele>141.66666666666669</ele><time>2026-04-04T18:00:50.742Z</time></trkpt><trkpt lat="44.6877979" lon="10.0971413"><ele>141.33333333333334</ele><time>2026-04-04T18:00:51.727Z</time></trkpt><trkpt lat="44.6879493" lon="10.0971705"><ele>141.0</ele><time>2026-04-04T18:00:52.734Z</time></trkpt><trkpt lat="44.6881017" lon="10.0972011"><ele>141.0</ele><time>2026-04-04T18:00:53.736Z</time></trkpt><trkpt lat="44.6882429" lon="10.0972313"><ele>141.0</ele><time>2026-04-04T18:00:54.738Z</time></trkpt><trkpt lat="44.6883685" lon="10.0972687"><ele>141.0</ele><time>2026-04-04T18:00:55.741Z</time></trkpt><trkpt lat="44.6884815" lon="10.097296"><ele>141.0</ele><time>2026-04-04T18:00:56.735Z</time></trkpt><trkpt lat="44.688593" lon="10.0973202"><ele>141.0</ele><time>2026-04-04T18:00:57.749Z</time></trkpt><trkpt lat="44.6886966" lon="10.0973419"><ele>141.0</ele><time>2026-04-04T18:00:58.735Z</time></trkpt><trkpt lat="44.6887897" lon="10.0973605"><ele>141.0</ele><time>2026-04-04T18:00:59.731Z</time></trkpt><trkpt lat="44.6888833" lon="10.0973836"><ele>141.0</ele><time>2026-04-04T18:01:00.751Z</time></trkpt><trkpt lat="44.6889708" lon="10.097401"><ele>141.0</ele><time>2026-04-04T18:01:01.726Z</time></trkpt><trkpt lat="44.6890517" lon="10.097416"><ele>142.66666666666666</ele><time>2026-04-04T18:01:02.73Z</time></trkpt><trkpt lat="44.6891306" lon="10.0974334"><ele>144.33333333333334</ele><time>2026-04-04T18:01:03.734Z</time></trkpt><trkpt lat="44.6892136" lon="10.0974485"><ele>146.0</ele><time>2026-04-04T18:01:04.727Z</time></trkpt><trkpt lat="44.6893001" lon="10.0974689"><ele>147.66666666666669</ele><time>2026-04-04T18:01:05.73Z</time></trkpt><trkpt lat="44.6893831" lon="10.0974923"><ele>149.33333333333334</ele><time>2026-04-04T18:01:06.741Z</time></trkpt><trkpt lat="44.6894697" lon="10.0975254"><ele>151.0</ele><time>2026-04-04T18:01:07.742Z</time></trkpt><trkpt lat="44.6895534" lon="10.0975529"><ele>151.57142857142858</ele><time>2026-04-04T18:01:08.743Z</time></trkpt><trkpt lat="44.6896262" lon="10.0975796"><ele>152.14285714285714</ele><time>2026-04-04T18:01:09.748Z</time></trkpt><trkpt lat="44.6896866" lon="10.0976122"><ele>152.71428571428572</ele><time>2026-04-04T18:01:10.73Z</time></trkpt><trkpt lat="44.6897482" lon="10.0976526"><ele>153.28571428571428</ele><time>2026-04-04T18:01:11.738Z</time></trkpt><trkpt lat="44.6898159" lon="10.0977041"><ele>153.85714285714286</ele><time>2026-04-04T18:01:12.743Z</time></trkpt><trkpt lat="44.6898821" lon="10.0977604"><ele>154.42857142857144</ele><time>2026-04-04T18:01:13.74Z</time></trkpt><trkpt lat="44.6899465" lon="10.0978279"><ele>155.0</ele><time>2026-04-04T18:01:14.747Z</time></trkpt><trkpt lat="44.6899975" lon="10.0979001"><ele>155.0</ele><time>2026-04-04T18:01:15.747Z</time></trkpt><trkpt lat="44.6900439" lon="10.0979723"><ele>155.0</ele><time>2026-04-04T18:01:16.752Z</time></trkpt><trkpt lat="44.6900916" lon="10.0980591"><ele>155.0</ele><time>2026-04-04T18:01:17.744Z</time></trkpt><trkpt lat="44.6901371" lon="10.098154"><ele>155.0</ele><time>2026-04-04T18:01:18.747Z</time></trkpt><trkpt lat="44.6901763" lon="10.0982559"><ele>155.0</ele><time>2026-04-04T18:01:19.748Z</time></trkpt><trkpt lat="44.690219" lon="10.0983693"><ele>155.0</ele><time>2026-04-04T18:01:20.745Z</time></trkpt><trkpt lat="44.690252" lon="10.0984904"><ele>155.0</ele><time>2026-04-04T18:01:21.746Z</time></trkpt><trkpt lat="44.6902809" lon="10.0986122"><ele>155.0</ele><time>2026-04-04T18:01:22.744Z</time></trkpt><trkpt lat="44.69031" lon="10.0987309"><ele>155.0</ele><time>2026-04-04T18:01:23.738Z</time></trkpt><trkpt lat="44.6903325" lon="10.0988456"><ele>155.0</ele><time>2026-04-04T18:01:24.734Z</time></trkpt><trkpt lat="44.6903557" lon="10.0989561"><ele>155.0</ele><time>2026-04-04T18:01:25.733Z</time></trkpt><trkpt lat="44.6903776" lon="10.099072"><ele>155.0</ele><time>2026-04-04T18:01:26.737Z</time></trkpt><trkpt lat="44.6903979" lon="10.0991935"><ele>155.0</ele><time>2026-04-04T18:01:27.741Z</time></trkpt><trkpt lat="44.6904195" lon="10.0993217"><ele>155.0</ele><time>2026-04-04T18:01:28.738Z</time></trkpt><trkpt lat="44.6904471" lon="10.0994606"><ele>155.0</ele><time>2026-04-04T18:01:29.744Z</time></trkpt><trkpt lat="44.6904754" lon="10.0996044"><ele>155.0</ele><time>2026-04-04T18:01:30.782Z</time></trkpt><trkpt lat="44.69051" lon="10.0997574"><ele>155.0</ele><time>2026-04-04T18:01:31.742Z</time></trkpt><trkpt lat="44.6905436" lon="10.0999165"><ele>155.75</ele><time>2026-04-04T18:01:32.745Z</time></trkpt><trkpt lat="44.69058" lon="10.1000804"><ele>156.5</ele><time>2026-04-04T18:01:33.73Z</time></trkpt><trkpt lat="44.6906183" lon="10.1002439"><ele>157.25</ele><time>2026-04-04T18:01:34.745Z</time></trkpt><trkpt lat="44.6906545" lon="10.1004051"><ele>158.0</ele><time>2026-04-04T18:01:35.748Z</time></trkpt><trkpt lat="44.6906909" lon="10.1005529"><ele>158.0</ele><time>2026-04-04T18:01:36.74Z</time></trkpt><trkpt lat="44.690727" lon="10.1007113"><ele>158.0</ele><time>2026-04-04T18:01:37.752Z</time></trkpt><trkpt lat="44.6907633" lon="10.1008698"><ele>158.0</ele><time>2026-04-04T18:01:38.741Z</time></trkpt><trkpt lat="44.6907985" lon="10.1010247"><ele>158.0</ele><time>2026-04-04T18:01:39.746Z</time></trkpt><trkpt lat="44.6908331" lon="10.1011834"><ele>158.75</ele><time>2026-04-04T18:01:40.75Z</time></trkpt><trkpt lat="44.6908754" lon="10.101335"><ele>159.5</ele><time>2026-04-04T18:01:41.745Z</time></trkpt><trkpt lat="44.6909298" lon="10.1014779"><ele>160.25</ele><time>2026-04-04T18:01:42.74Z</time></trkpt><trkpt lat="44.6910019" lon="10.1016109"><ele>161.0</ele><time>2026-04-04T18:01:43.742Z</time></trkpt><trkpt lat="44.6910823" lon="10.1017357"><ele>159.0</ele><time>2026-04-04T18:01:44.736Z</time></trkpt><trkpt lat="44.6911683" lon="10.1018615"><ele>157.0</ele><time>2026-04-04T18:01:45.739Z</time></trkpt><trkpt lat="44.6912554" lon="10.1019915"><ele>155.0</ele><time>2026-04-04T18:01:46.737Z</time></trkpt><trkpt lat="44.6913445" lon="10.1021232"><ele>153.0</ele><time>2026-04-04T18:01:47.744Z</time></trkpt><trkpt lat="44.6914339" lon="10.1022517"><ele>153.0</ele><time>2026-04-04T18:01:48.731Z</time></trkpt><trkpt lat="44.6915198" lon="10.1023844"><ele>153.0</ele><time>2026-04-04T18:01:49.743Z</time></trkpt><trkpt lat="44.6916054" lon="10.1025132"><ele>153.0</ele><time>2026-04-04T18:01:50.748Z</time></trkpt><trkpt lat="44.6916888" lon="10.102646"><ele>153.0</ele><time>2026-04-04T18:01:51.738Z</time></trkpt><trkpt lat="44.6917753" lon="10.1027778"><ele>153.0</ele><time>2026-04-04T18:01:52.747Z</time></trkpt><trkpt lat="44.6918605" lon="10.1029192"><ele>153.0</ele><time>2026-04-04T18:01:53.734Z</time></trkpt><trkpt lat="44.6919463" lon="10.1030601"><ele>153.0</ele><time>2026-04-04T18:01:54.736Z</time></trkpt><trkpt lat="44.6920284" lon="10.1031945"><ele>153.0</ele><time>2026-04-04T18:01:55.737Z</time></trkpt><trkpt lat="44.6921037" lon="10.1033223"><ele>153.0</ele><time>2026-04-04T18:01:56.733Z</time></trkpt><trkpt lat="44.692175" lon="10.1034417"><ele>153.0</ele><time>2026-04-04T18:01:57.748Z</time></trkpt><trkpt lat="44.6922462" lon="10.1035612"><ele>153.0</ele><time>2026-04-04T18:01:58.739Z</time></trkpt><trkpt lat="44.692314" lon="10.1036714"><ele>153.0</ele><time>2026-04-04T18:01:59.738Z</time></trkpt><trkpt lat="44.6923789" lon="10.1037871"><ele>153.0</ele><time>2026-04-04T18:02:00.764Z</time></trkpt><trkpt lat="44.692445" lon="10.1039071"><ele>153.0</ele><time>2026-04-04T18:02:01.747Z</time></trkpt><trkpt lat="44.6925153" lon="10.1040199"><ele>153.0</ele><time>2026-04-04T18:02:02.745Z</time></trkpt><trkpt lat="44.6925936" lon="10.1041395"><ele>153.0</ele><time>2026-04-04T18:02:03.747Z</time></trkpt><trkpt lat="44.6926725" lon="10.1042574"><ele>153.0</ele><time>2026-04-04T18:02:04.744Z</time></trkpt><trkpt lat="44.6927476" lon="10.1043725"><ele>153.0</ele><time>2026-04-04T18:02:05.738Z</time></trkpt><trkpt lat="44.6928228" lon="10.104487"><ele>152.8</ele><time>2026-04-04T18:02:06.738Z</time></trkpt><trkpt lat="44.692897" lon="10.1046"><ele>152.60000000000002</ele><time>2026-04-04T18:02:07.747Z</time></trkpt><trkpt lat="44.6929651" lon="10.1047101"><ele>152.39999999999998</ele><time>2026-04-04T18:02:08.748Z</time></trkpt><trkpt lat="44.6930244" lon="10.1048216"><ele>152.2</ele><time>2026-04-04T18:02:09.747Z</time></trkpt><trkpt lat="44.6930791" lon="10.104936"><ele>152.0</ele><time>2026-04-04T18:02:10.742Z</time></trkpt><trkpt lat="44.6931318" lon="10.1050581"><ele>152.79999999999998</ele><time>2026-04-04T18:02:11.746Z</time></trkpt><trkpt lat="44.6931885" lon="10.1051821"><ele>153.6</ele><time>2026-04-04T18:02:12.745Z</time></trkpt><trkpt lat="44.6932456" lon="10.1053134"><ele>154.39999999999998</ele><time>2026-04-04T18:02:13.748Z</time></trkpt><trkpt lat="44.6932998" lon="10.1054512"><ele>155.2</ele><time>2026-04-04T18:02:14.744Z</time></trkpt><trkpt lat="44.6933517" lon="10.1055916"><ele>156.0</ele><time>2026-04-04T18:02:15.747Z</time></trkpt><trkpt lat="44.6934055" lon="10.1057321"><ele>156.0</ele><time>2026-04-04T18:02:16.746Z</time></trkpt><trkpt lat="44.6934632" lon="10.1058742"><ele>156.0</ele><time>2026-04-04T18:02:17.752Z</time></trkpt><trkpt lat="44.6935223" lon="10.1060161"><ele>156.0</ele><time>2026-04-04T18:02:18.751Z</time></trkpt><trkpt lat="44.6935849" lon="10.1061607"><ele>156.0</ele><time>2026-04-04T18:02:19.748Z</time></trkpt><trkpt lat="44.6936491" lon="10.1063121"><ele>156.0</ele><time>2026-04-04T18:02:20.747Z</time></trkpt><trkpt lat="44.6937126" lon="10.1064667"><ele>156.0</ele><time>2026-04-04T18:02:21.76Z</time></trkpt><trkpt lat="44.6937744" lon="10.1066318"><ele>156.0</ele><time>2026-04-04T18:02:22.747Z</time></trkpt><trkpt lat="44.6938346" lon="10.1068138"><ele>156.0</ele><time>2026-04-04T18:02:23.752Z</time></trkpt><trkpt lat="44.6939009" lon="10.1070421"><ele>156.66666666666666</ele><time>2026-04-04T18:02:24.745Z</time></trkpt><trkpt lat="44.693964" lon="10.1073007"><ele>157.33333333333331</ele><time>2026-04-04T18:02:25.745Z</time></trkpt><trkpt lat="44.6940215" lon="10.1075431"><ele>158.0</ele><time>2026-04-04T18:02:26.744Z</time></trkpt><trkpt lat="44.6940742" lon="10.1077607"><ele>159.0</ele><time>2026-04-04T18:02:27.749Z</time></trkpt><trkpt lat="44.6941327" lon="10.1079756"><ele>160.0</ele><time>2026-04-04T18:02:28.747Z</time></trkpt><trkpt lat="44.6941857" lon="10.1081782"><ele>161.0</ele><time>2026-04-04T18:02:29.747Z</time></trkpt><trkpt lat="44.6942334" lon="10.1083589"><ele>161.8</ele><time>2026-04-04T18:02:30.767Z</time></trkpt><trkpt lat="44.6942797" lon="10.1085246"><ele>162.60000000000002</ele><time>2026-04-04T18:02:31.742Z</time></trkpt><trkpt lat="44.6943319" lon="10.1086568"><ele>163.4</ele><time>2026-04-04T18:02:32.738Z</time></trkpt><trkpt lat="44.6943903" lon="10.1087754"><ele>164.2</ele><time>2026-04-04T18:02:33.747Z</time></trkpt><trkpt lat="44.6944574" lon="10.1088768"><ele>165.0</ele><time>2026-04-04T18:02:34.738Z</time></trkpt><trkpt lat="44.6945296" lon="10.108969"><ele>161.75</ele><time>2026-04-04T18:02:35.741Z</time></trkpt><trkpt lat="44.6946162" lon="10.1090607"><ele>158.5</ele><time>2026-04-04T18:02:36.746Z</time></trkpt><trkpt lat="44.694722" lon="10.1091401"><ele>155.25</ele><time>2026-04-04T18:02:37.743Z</time></trkpt><trkpt lat="44.6948332" lon="10.109204"><ele>152.0</ele><time>2026-04-04T18:02:38.751Z</time></trkpt><trkpt lat="44.694939" lon="10.1092892"><ele>152.0</ele><time>2026-04-04T18:02:39.76Z</time></trkpt><trkpt lat="44.6950302" lon="10.1094151"><ele>152.0</ele><time>2026-04-04T18:02:40.75Z</time></trkpt><trkpt lat="44.695115" lon="10.1095619"><ele>152.0</ele><time>2026-04-04T18:02:41.75Z</time></trkpt><trkpt lat="44.6952025" lon="10.109723"><ele>152.0</ele><time>2026-04-04T18:02:42.753Z</time></trkpt><trkpt lat="44.6952873" lon="10.1099117"><ele>149.66666666666666</ele><time>2026-04-04T18:02:43.745Z</time></trkpt><trkpt lat="44.6953686" lon="10.1101009"><ele>147.33333333333334</ele><time>2026-04-04T18:02:44.75Z</time></trkpt><trkpt lat="44.6954454" lon="10.1102872"><ele>145.0</ele><time>2026-04-04T18:02:45.749Z</time></trkpt><trkpt lat="44.6955237" lon="10.1104663"><ele>145.0</ele><time>2026-04-04T18:02:46.746Z</time></trkpt><trkpt lat="44.6955989" lon="10.1106364"><ele>145.0</ele><time>2026-04-04T18:02:47.758Z</time></trkpt><trkpt lat="44.6956663" lon="10.1108084"><ele>145.0</ele><time>2026-04-04T18:02:48.749Z</time></trkpt><trkpt lat="44.6957514" lon="10.1109928"><ele>145.0</ele><time>2026-04-04T18:02:49.754Z</time></trkpt><trkpt lat="44.6958388" lon="10.1111797"><ele>146.5</ele><time>2026-04-04T18:02:50.75Z</time></trkpt><trkpt lat="44.6959339" lon="10.1113587"><ele>148.0</ele><time>2026-04-04T18:02:51.751Z</time></trkpt><trkpt lat="44.6960241" lon="10.111523"><ele>149.5</ele><time>2026-04-04T18:02:52.754Z</time></trkpt><trkpt lat="44.6961031" lon="10.1116718"><ele>151.0</ele><time>2026-04-04T18:02:53.754Z</time></trkpt><trkpt lat="44.6961799" lon="10.1118172"><ele>150.25</ele><time>2026-04-04T18:02:54.755Z</time></trkpt><trkpt lat="44.6962557" lon="10.1119585"><ele>149.5</ele><time>2026-04-04T18:02:55.746Z</time></trkpt><trkpt lat="44.6963294" lon="10.1121028"><ele>148.75</ele><time>2026-04-04T18:02:56.753Z</time></trkpt><trkpt lat="44.6964161" lon="10.1122573"><ele>148.0</ele><time>2026-04-04T18:02:57.751Z</time></trkpt><trkpt lat="44.6965086" lon="10.1124094"><ele>148.0</ele><time>2026-04-04T18:02:58.736Z</time></trkpt><trkpt lat="44.6966196" lon="10.1125425"><ele>148.0</ele><time>2026-04-04T18:02:59.749Z</time></trkpt><trkpt lat="44.6967523" lon="10.1126579"><ele>148.0</ele><time>2026-04-04T18:03:00.758Z</time></trkpt><trkpt lat="44.6968983" lon="10.112753"><ele>146.66666666666669</ele><time>2026-04-04T18:03:01.746Z</time></trkpt><trkpt lat="44.6970669" lon="10.1127963"><ele>145.33333333333334</ele><time>2026-04-04T18:03:02.745Z</time></trkpt><trkpt lat="44.6972961" lon="10.1128261"><ele>144.0</ele><time>2026-04-04T18:03:03.747Z</time></trkpt><trkpt lat="44.6975842" lon="10.1128648"><ele>142.0</ele><time>2026-04-04T18:03:04.746Z</time></trkpt><trkpt lat="44.6978943" lon="10.1129146"><ele>140.0</ele><time>2026-04-04T18:03:05.742Z</time></trkpt><trkpt lat="44.6981837" lon="10.1129924"><ele>140.0</ele><time>2026-04-04T18:03:06.739Z</time></trkpt><trkpt lat="44.6984263" lon="10.113048"><ele>140.0</ele><time>2026-04-04T18:03:07.733Z</time></trkpt><trkpt lat="44.6986459" lon="10.1130832"><ele>139.0</ele><time>2026-04-04T18:03:08.739Z</time></trkpt><trkpt lat="44.6988547" lon="10.1131183"><ele>138.0</ele><time>2026-04-04T18:03:09.74Z</time></trkpt><trkpt lat="44.6990491" lon="10.1131483"><ele>137.0</ele><time>2026-04-04T18:03:10.752Z</time></trkpt><trkpt lat="44.6992273" lon="10.1131762"><ele>137.0</ele><time>2026-04-04T18:03:11.747Z</time></trkpt><trkpt lat="44.6993993" lon="10.1132119"><ele>137.0</ele><time>2026-04-04T18:03:12.751Z</time></trkpt><trkpt lat="44.6995646" lon="10.1132682"><ele>137.0</ele><time>2026-04-04T18:03:13.748Z</time></trkpt><trkpt lat="44.6997218" lon="10.1133433"><ele>138.0</ele><time>2026-04-04T18:03:14.748Z</time></trkpt><trkpt lat="44.6998612" lon="10.1134529"><ele>139.0</ele><time>2026-04-04T18:03:15.756Z</time></trkpt><trkpt lat="44.6999701" lon="10.1135882"><ele>140.0</ele><time>2026-04-04T18:03:16.748Z</time></trkpt><trkpt lat="44.7000581" lon="10.1137313"><ele>141.0</ele><time>2026-04-04T18:03:17.752Z</time></trkpt><trkpt lat="44.700141" lon="10.1138834"><ele>141.0</ele><time>2026-04-04T18:03:18.75Z</time></trkpt><trkpt lat="44.7002213" lon="10.1140632"><ele>141.0</ele><time>2026-04-04T18:03:19.741Z</time></trkpt><trkpt lat="44.7002964" lon="10.114249"><ele>141.0</ele><time>2026-04-04T18:03:20.75Z</time></trkpt><trkpt lat="44.7003552" lon="10.1144483"><ele>141.25</ele><time>2026-04-04T18:03:21.745Z</time></trkpt><trkpt lat="44.7003977" lon="10.1146404"><ele>141.5</ele><time>2026-04-04T18:03:22.756Z</time></trkpt><trkpt lat="44.7004445" lon="10.1148235"><ele>141.75</ele><time>2026-04-04T18:03:23.748Z</time></trkpt><trkpt lat="44.7004921" lon="10.1150068"><ele>142.0</ele><time>2026-04-04T18:03:24.753Z</time></trkpt><trkpt lat="44.700543" lon="10.1152009"><ele>142.0</ele><time>2026-04-04T18:03:25.747Z</time></trkpt><trkpt lat="44.7005834" lon="10.1154031"><ele>142.0</ele><time>2026-04-04T18:03:26.752Z</time></trkpt><trkpt lat="44.700613" lon="10.1156095"><ele>142.0</ele><time>2026-04-04T18:03:27.757Z</time></trkpt><trkpt lat="44.7006343" lon="10.1158234"><ele>142.5</ele><time>2026-04-04T18:03:28.748Z</time></trkpt><trkpt lat="44.7006477" lon="10.1160316"><ele>143.0</ele><time>2026-04-04T18:03:29.755Z</time></trkpt><trkpt lat="44.7006609" lon="10.1162328"><ele>143.5</ele><time>2026-04-04T18:03:30.768Z</time></trkpt><trkpt lat="44.7006833" lon="10.1164323"><ele>144.0</ele><time>2026-04-04T18:03:31.752Z</time></trkpt><trkpt lat="44.7007035" lon="10.1166236"><ele>144.5</ele><time>2026-04-04T18:03:32.75Z</time></trkpt><trkpt lat="44.7007374" lon="10.1168135"><ele>145.0</ele><time>2026-04-04T18:03:33.756Z</time></trkpt><trkpt lat="44.7007868" lon="10.116999"><ele>145.5</ele><time>2026-04-04T18:03:34.751Z</time></trkpt><trkpt lat="44.7008384" lon="10.1171861"><ele>146.0</ele><time>2026-04-04T18:03:35.754Z</time></trkpt><trkpt lat="44.700874" lon="10.1173487"><ele>146.25</ele><time>2026-04-04T18:03:36.75Z</time></trkpt><trkpt lat="44.7009119" lon="10.1175194"><ele>146.5</ele><time>2026-04-04T18:03:37.751Z</time></trkpt><trkpt lat="44.7009481" lon="10.1176863"><ele>146.75</ele><time>2026-04-04T18:03:38.744Z</time></trkpt><trkpt lat="44.7009794" lon="10.117867"><ele>147.0</ele><time>2026-04-04T18:03:39.75Z</time></trkpt><trkpt lat="44.7009925" lon="10.1180354"><ele>147.0</ele><time>2026-04-04T18:03:40.749Z</time></trkpt><trkpt lat="44.7010038" lon="10.1181898"><ele>147.0</ele><time>2026-04-04T18:03:41.765Z</time></trkpt><trkpt lat="44.701015" lon="10.1183323"><ele>147.0</ele><time>2026-04-04T18:03:42.752Z</time></trkpt><trkpt lat="44.7010255" lon="10.1184711"><ele>147.0</ele><time>2026-04-04T18:03:43.752Z</time></trkpt><trkpt lat="44.7010366" lon="10.1186118"><ele>147.0</ele><time>2026-04-04T18:03:44.731Z</time></trkpt><trkpt lat="44.7010462" lon="10.1187481"><ele>147.2</ele><time>2026-04-04T18:03:45.751Z</time></trkpt><trkpt lat="44.7010529" lon="10.1188813"><ele>147.39999999999998</ele><time>2026-04-04T18:03:46.75Z</time></trkpt><trkpt lat="44.7010563" lon="10.1190185"><ele>147.60000000000002</ele><time>2026-04-04T18:03:47.756Z</time></trkpt><trkpt lat="44.7010544" lon="10.1191539"><ele>147.8</ele><time>2026-04-04T18:03:48.755Z</time></trkpt><trkpt lat="44.7010568" lon="10.1192963"><ele>148.0</ele><time>2026-04-04T18:03:49.752Z</time></trkpt><trkpt lat="44.7010626" lon="10.1194474"><ele>148.0</ele><time>2026-04-04T18:03:50.749Z</time></trkpt><trkpt lat="44.7010662" lon="10.1196046"><ele>148.0</ele><time>2026-04-04T18:03:51.761Z</time></trkpt><trkpt lat="44.7010587" lon="10.1197658"><ele>148.0</ele><time>2026-04-04T18:03:52.749Z</time></trkpt><trkpt lat="44.7010333" lon="10.1199272"><ele>148.0</ele><time>2026-04-04T18:03:53.757Z</time></trkpt><trkpt lat="44.7009925" lon="10.1200957"><ele>147.25</ele><time>2026-04-04T18:03:54.75Z</time></trkpt><trkpt lat="44.7009481" lon="10.1202775"><ele>146.5</ele><time>2026-04-04T18:03:55.755Z</time></trkpt><trkpt lat="44.7009041" lon="10.1204658"><ele>145.75</ele><time>2026-04-04T18:03:56.76Z</time></trkpt><trkpt lat="44.700862" lon="10.1206573"><ele>145.0</ele><time>2026-04-04T18:03:57.766Z</time></trkpt><trkpt lat="44.700828" lon="10.120851"><ele>143.5</ele><time>2026-04-04T18:03:58.761Z</time></trkpt><trkpt lat="44.700811" lon="10.1210518"><ele>142.0</ele><time>2026-04-04T18:03:59.759Z</time></trkpt><trkpt lat="44.7008004" lon="10.1212532"><ele>140.5</ele><time>2026-04-04T18:04:00.774Z</time></trkpt><trkpt lat="44.7008029" lon="10.1214443"><ele>139.0</ele><time>2026-04-04T18:04:01.763Z</time></trkpt><trkpt lat="44.700819" lon="10.1216366"><ele>138.25</ele><time>2026-04-04T18:04:02.753Z</time></trkpt><trkpt lat="44.7008479" lon="10.121825"><ele>137.5</ele><time>2026-04-04T18:04:03.756Z</time></trkpt><trkpt lat="44.7008824" lon="10.1220039"><ele>136.75</ele><time>2026-04-04T18:04:04.754Z</time></trkpt><trkpt lat="44.7009189" lon="10.1221873"><ele>136.0</ele><time>2026-04-04T18:04:05.761Z</time></trkpt><trkpt lat="44.7009628" lon="10.1223683"><ele>137.0</ele><time>2026-04-04T18:04:06.762Z</time></trkpt><trkpt lat="44.7010122" lon="10.122545"><ele>138.0</ele><time>2026-04-04T18:04:07.752Z</time></trkpt><trkpt lat="44.7010561" lon="10.1227125"><ele>139.0</ele><time>2026-04-04T18:04:08.756Z</time></trkpt><trkpt lat="44.7011001" lon="10.1228611"><ele>140.0</ele><time>2026-04-04T18:04:09.767Z</time></trkpt><trkpt lat="44.7011485" lon="10.1230028"><ele>140.4</ele><time>2026-04-04T18:04:10.761Z</time></trkpt><trkpt lat="44.701195" lon="10.1231397"><ele>140.8</ele><time>2026-04-04T18:04:11.759Z</time></trkpt><trkpt lat="44.7012441" lon="10.1232684"><ele>141.2</ele><time>2026-04-04T18:04:12.75Z</time></trkpt><trkpt lat="44.7012917" lon="10.1233947"><ele>141.6</ele><time>2026-04-04T18:04:13.75Z</time></trkpt><trkpt lat="44.7013372" lon="10.1235112"><ele>142.0</ele><time>2026-04-04T18:04:14.754Z</time></trkpt><trkpt lat="44.7013822" lon="10.1236232"><ele>142.79999999999998</ele><time>2026-04-04T18:04:15.755Z</time></trkpt><trkpt lat="44.7014283" lon="10.1237311"><ele>143.6</ele><time>2026-04-04T18:04:16.75Z</time></trkpt><trkpt lat="44.7014707" lon="10.1238351"><ele>144.39999999999998</ele><time>2026-04-04T18:04:17.755Z</time></trkpt><trkpt lat="44.7015191" lon="10.1239501"><ele>145.2</ele><time>2026-04-04T18:04:18.747Z</time></trkpt><trkpt lat="44.7015764" lon="10.1240699"><ele>146.0</ele><time>2026-04-04T18:04:19.75Z</time></trkpt><trkpt lat="44.7016471" lon="10.1242115"><ele>146.0</ele><time>2026-04-04T18:04:20.749Z</time></trkpt><trkpt lat="44.7017425" lon="10.1243899"><ele>146.0</ele><time>2026-04-04T18:04:21.751Z</time></trkpt><trkpt lat="44.7018578" lon="10.1246183"><ele>146.0</ele><time>2026-04-04T18:04:22.756Z</time></trkpt><trkpt lat="44.7019725" lon="10.1248695"><ele>145.0</ele><time>2026-04-04T18:04:23.752Z</time></trkpt><trkpt lat="44.7020971" lon="10.1251233"><ele>144.0</ele><time>2026-04-04T18:04:24.757Z</time></trkpt><trkpt lat="44.7021923" lon="10.1253496"><ele>143.0</ele><time>2026-04-04T18:04:25.746Z</time></trkpt><trkpt lat="44.7022676" lon="10.1255428"><ele>143.0</ele><time>2026-04-04T18:04:26.744Z</time></trkpt><trkpt lat="44.7023538" lon="10.1257078"><ele>143.0</ele><time>2026-04-04T18:04:27.753Z</time></trkpt><trkpt lat="44.7024278" lon="10.1258488"><ele>143.0</ele><time>2026-04-04T18:04:28.753Z</time></trkpt><trkpt lat="44.7024919" lon="10.1259763"><ele>143.0</ele><time>2026-04-04T18:04:29.751Z</time></trkpt><trkpt lat="44.7025439" lon="10.1260806"><ele>143.33333333333331</ele><time>2026-04-04T18:04:30.782Z</time></trkpt><trkpt lat="44.7026006" lon="10.1261822"><ele>143.66666666666666</ele><time>2026-04-04T18:04:32.749Z</time></trkpt><trkpt lat="44.7026315" lon="10.1262858"><ele>144.0</ele><time>2026-04-04T18:04:35.759Z</time></trkpt><trkpt lat="44.7026476" lon="10.126376"><ele>144.33333333333334</ele><time>2026-04-04T18:04:37.765Z</time></trkpt><trkpt lat="44.7026552" lon="10.1265259"><ele>144.66666666666669</ele><time>2026-04-04T18:04:39.757Z</time></trkpt><trkpt lat="44.7026614" lon="10.1266286"><ele>145.0</ele><time>2026-04-04T18:04:40.761Z</time></trkpt><trkpt lat="44.7026885" lon="10.1267278"><ele>145.0</ele><time>2026-04-04T18:04:41.762Z</time></trkpt><trkpt lat="44.7027429" lon="10.1268081"><ele>145.0</ele><time>2026-04-04T18:04:42.758Z</time></trkpt><trkpt lat="44.7028205" lon="10.1268749"><ele>145.0</ele><time>2026-04-04T18:04:43.751Z</time></trkpt><trkpt lat="44.7028907" lon="10.1269511"><ele>145.0</ele><time>2026-04-04T18:04:44.751Z</time></trkpt><trkpt lat="44.7029576" lon="10.1270533"><ele>145.0</ele><time>2026-04-04T18:04:45.751Z</time></trkpt><trkpt lat="44.703022" lon="10.1271839"><ele>144.5</ele><time>2026-04-04T18:04:46.749Z</time></trkpt><trkpt lat="44.7030916" lon="10.1273304"><ele>144.0</ele><time>2026-04-04T18:04:47.751Z</time></trkpt><trkpt lat="44.703171" lon="10.1274922"><ele>143.5</ele><time>2026-04-04T18:04:48.746Z</time></trkpt><trkpt lat="44.7032593" lon="10.1276818"><ele>143.0</ele><time>2026-04-04T18:04:49.75Z</time></trkpt><trkpt lat="44.703359" lon="10.1279087"><ele>143.0</ele><time>2026-04-04T18:04:50.746Z</time></trkpt><trkpt lat="44.703461" lon="10.1281453"><ele>143.0</ele><time>2026-04-04T18:04:51.744Z</time></trkpt><trkpt lat="44.7035636" lon="10.1283859"><ele>143.0</ele><time>2026-04-04T18:04:52.744Z</time></trkpt><trkpt lat="44.7036779" lon="10.1286291"><ele>142.0</ele><time>2026-04-04T18:04:53.754Z</time></trkpt><trkpt lat="44.7037968" lon="10.1288797"><ele>141.0</ele><time>2026-04-04T18:04:54.749Z</time></trkpt><trkpt lat="44.7039116" lon="10.1291312"><ele>140.0</ele><time>2026-04-04T18:04:55.761Z</time></trkpt><trkpt lat="44.7040307" lon="10.1293908"><ele>140.0</ele><time>2026-04-04T18:04:56.75Z</time></trkpt><trkpt lat="44.704151" lon="10.1296565"><ele>140.0</ele><time>2026-04-04T18:04:57.758Z</time></trkpt><trkpt lat="44.7042811" lon="10.1299358"><ele>138.0</ele><time>2026-04-04T18:04:58.752Z</time></trkpt><trkpt lat="44.7044194" lon="10.1302163"><ele>136.0</ele><time>2026-04-04T18:04:59.747Z</time></trkpt><trkpt lat="44.7045549" lon="10.1304958"><ele>136.66666666666669</ele><time>2026-04-04T18:05:00.764Z</time></trkpt><trkpt lat="44.7046875" lon="10.1307684"><ele>137.33333333333334</ele><time>2026-04-04T18:05:01.747Z</time></trkpt><trkpt lat="44.7048053" lon="10.1310165"><ele>138.0</ele><time>2026-04-04T18:05:02.748Z</time></trkpt><trkpt lat="44.7049154" lon="10.1312509"><ele>138.0</ele><time>2026-04-04T18:05:03.757Z</time></trkpt><trkpt lat="44.7050212" lon="10.1314665"><ele>138.0</ele><time>2026-04-04T18:05:04.753Z</time></trkpt><trkpt lat="44.7051318" lon="10.1316814"><ele>138.0</ele><time>2026-04-04T18:05:05.752Z</time></trkpt><trkpt lat="44.7052355" lon="10.1318949"><ele>138.66666666666666</ele><time>2026-04-04T18:05:06.753Z</time></trkpt><trkpt lat="44.7053329" lon="10.1321"><ele>139.33333333333331</ele><time>2026-04-04T18:05:07.751Z</time></trkpt><trkpt lat="44.7054285" lon="10.1323019"><ele>140.0</ele><time>2026-04-04T18:05:08.759Z</time></trkpt><trkpt lat="44.7055155" lon="10.1324926"><ele>140.66666666666666</ele><time>2026-04-04T18:05:09.751Z</time></trkpt><trkpt lat="44.7055989" lon="10.132677"><ele>141.33333333333334</ele><time>2026-04-04T18:05:10.75Z</time></trkpt><trkpt lat="44.7056819" lon="10.1328546"><ele>142.0</ele><time>2026-04-04T18:05:11.748Z</time></trkpt><trkpt lat="44.7057702" lon="10.1330257"><ele>142.0</ele><time>2026-04-04T18:05:12.746Z</time></trkpt><trkpt lat="44.7058551" lon="10.1331965"><ele>142.0</ele><time>2026-04-04T18:05:13.756Z</time></trkpt><trkpt lat="44.705945" lon="10.133378"><ele>142.0</ele><time>2026-04-04T18:05:14.747Z</time></trkpt><trkpt lat="44.7060589" lon="10.1335757"><ele>141.66666666666669</ele><time>2026-04-04T18:05:15.754Z</time></trkpt><trkpt lat="44.7061836" lon="10.1337922"><ele>141.33333333333334</ele><time>2026-04-04T18:05:16.746Z</time></trkpt><trkpt lat="44.7063076" lon="10.1340296"><ele>141.0</ele><time>2026-04-04T18:05:17.749Z</time></trkpt><trkpt lat="44.7064417" lon="10.1342843"><ele>142.0</ele><time>2026-04-04T18:05:18.744Z</time></trkpt><trkpt lat="44.7065877" lon="10.1345501"><ele>143.0</ele><time>2026-04-04T18:05:19.749Z</time></trkpt><trkpt lat="44.7067335" lon="10.1348161"><ele>142.0</ele><time>2026-04-04T18:05:20.748Z</time></trkpt><trkpt lat="44.706862" lon="10.1350643"><ele>141.0</ele><time>2026-04-04T18:05:21.746Z</time></trkpt><trkpt lat="44.7069824" lon="10.1353"><ele>140.0</ele><time>2026-04-04T18:05:22.75Z</time></trkpt><trkpt lat="44.7070993" lon="10.1355146"><ele>138.66666666666666</ele><time>2026-04-04T18:05:23.751Z</time></trkpt><trkpt lat="44.7072181" lon="10.1357227"><ele>137.33333333333334</ele><time>2026-04-04T18:05:24.752Z</time></trkpt><trkpt lat="44.7073306" lon="10.1359209"><ele>136.0</ele><time>2026-04-04T18:05:25.75Z</time></trkpt><trkpt lat="44.7074363" lon="10.1361179"><ele>136.0</ele><time>2026-04-04T18:05:26.755Z</time></trkpt><trkpt lat="44.7075389" lon="10.1363053"><ele>136.0</ele><time>2026-04-04T18:05:27.754Z</time></trkpt><trkpt lat="44.7076539" lon="10.1364957"><ele>136.0</ele><time>2026-04-04T18:05:28.751Z</time></trkpt><trkpt lat="44.7077731" lon="10.1367056"><ele>136.66666666666669</ele><time>2026-04-04T18:05:29.762Z</time></trkpt><trkpt lat="44.7078944" lon="10.1369285"><ele>137.33333333333334</ele><time>2026-04-04T18:05:30.765Z</time></trkpt><trkpt lat="44.7080164" lon="10.1371621"><ele>138.0</ele><time>2026-04-04T18:05:31.75Z</time></trkpt><trkpt lat="44.7081398" lon="10.1373926"><ele>138.33333333333334</ele><time>2026-04-04T18:05:32.748Z</time></trkpt><trkpt lat="44.7082635" lon="10.1376322"><ele>138.66666666666669</ele><time>2026-04-04T18:05:33.753Z</time></trkpt><trkpt lat="44.7083852" lon="10.1378708"><ele>139.0</ele><time>2026-04-04T18:05:34.753Z</time></trkpt><trkpt lat="44.7085017" lon="10.1380966"><ele>138.33333333333334</ele><time>2026-04-04T18:05:35.75Z</time></trkpt><trkpt lat="44.7086076" lon="10.1383055"><ele>137.66666666666666</ele><time>2026-04-04T18:05:36.749Z</time></trkpt><trkpt lat="44.7087097" lon="10.1385054"><ele>137.0</ele><time>2026-04-04T18:05:37.75Z</time></trkpt><trkpt lat="44.7087998" lon="10.1386867"><ele>137.0</ele><time>2026-04-04T18:05:38.753Z</time></trkpt><trkpt lat="44.7088862" lon="10.138857"><ele>137.0</ele><time>2026-04-04T18:05:39.755Z</time></trkpt><trkpt lat="44.7089615" lon="10.1390024"><ele>137.0</ele><time>2026-04-04T18:05:40.743Z</time></trkpt><trkpt lat="44.7090296" lon="10.1391329"><ele>137.0</ele><time>2026-04-04T18:05:41.756Z</time></trkpt><trkpt lat="44.7091001" lon="10.1392579"><ele>137.33333333333331</ele><time>2026-04-04T18:05:42.758Z</time></trkpt><trkpt lat="44.7091616" lon="10.1393815"><ele>137.66666666666666</ele><time>2026-04-04T18:05:43.751Z</time></trkpt><trkpt lat="44.7092191" lon="10.1394831"><ele>138.0</ele><time>2026-04-04T18:05:44.755Z</time></trkpt><trkpt lat="44.7092731" lon="10.1395705"><ele>138.33333333333334</ele><time>2026-04-04T18:05:45.75Z</time></trkpt><trkpt lat="44.7093266" lon="10.1396554"><ele>138.66666666666669</ele><time>2026-04-04T18:05:46.748Z</time></trkpt><trkpt lat="44.7093809" lon="10.1397385"><ele>139.0</ele><time>2026-04-04T18:05:47.752Z</time></trkpt><trkpt lat="44.7094418" lon="10.1398213"><ele>138.2</ele><time>2026-04-04T18:05:48.75Z</time></trkpt><trkpt lat="44.7095062" lon="10.1399054"><ele>137.4</ele><time>2026-04-04T18:05:49.754Z</time></trkpt><trkpt lat="44.7095791" lon="10.1399892"><ele>136.6</ele><time>2026-04-04T18:05:50.743Z</time></trkpt><trkpt lat="44.7096602" lon="10.1400766"><ele>135.8</ele><time>2026-04-04T18:05:51.753Z</time></trkpt><trkpt lat="44.709745" lon="10.1401725"><ele>135.0</ele><time>2026-04-04T18:05:52.751Z</time></trkpt><trkpt lat="44.7098415" lon="10.1402698"><ele>135.0</ele><time>2026-04-04T18:05:53.752Z</time></trkpt><trkpt lat="44.7099448" lon="10.1403763"><ele>135.0</ele><time>2026-04-04T18:05:54.746Z</time></trkpt><trkpt lat="44.7100433" lon="10.140477"><ele>135.0</ele><time>2026-04-04T18:05:55.755Z</time></trkpt><trkpt lat="44.7101368" lon="10.1405755"><ele>135.0</ele><time>2026-04-04T18:05:56.743Z</time></trkpt><trkpt lat="44.7102327" lon="10.1406809"><ele>134.25</ele><time>2026-04-04T18:05:57.768Z</time></trkpt><trkpt lat="44.7103304" lon="10.140787"><ele>133.5</ele><time>2026-04-04T18:05:58.749Z</time></trkpt><trkpt lat="44.7104275" lon="10.1408943"><ele>132.75</ele><time>2026-04-04T18:05:59.748Z</time></trkpt><trkpt lat="44.7105208" lon="10.1410027"><ele>132.0</ele><time>2026-04-04T18:06:00.766Z</time></trkpt><trkpt lat="44.7106056" lon="10.1411238"><ele>132.0</ele><time>2026-04-04T18:06:01.747Z</time></trkpt><trkpt lat="44.7106832" lon="10.1412512"><ele>132.0</ele><time>2026-04-04T18:06:02.751Z</time></trkpt><trkpt lat="44.7107583" lon="10.1413786"><ele>132.0</ele><time>2026-04-04T18:06:03.739Z</time></trkpt><trkpt lat="44.710831" lon="10.1414932"><ele>132.0</ele><time>2026-04-04T18:06:04.748Z</time></trkpt><trkpt lat="44.7108975" lon="10.1415963"><ele>132.0</ele><time>2026-04-04T18:06:05.746Z</time></trkpt><trkpt lat="44.7109589" lon="10.1416952"><ele>132.16666666666666</ele><time>2026-04-04T18:06:06.748Z</time></trkpt><trkpt lat="44.7110121" lon="10.1417927"><ele>132.33333333333334</ele><time>2026-04-04T18:06:07.751Z</time></trkpt><trkpt lat="44.7110679" lon="10.1418916"><ele>132.5</ele><time>2026-04-04T18:06:08.753Z</time></trkpt><trkpt lat="44.7111209" lon="10.1419854"><ele>132.66666666666669</ele><time>2026-04-04T18:06:09.739Z</time></trkpt><trkpt lat="44.7111776" lon="10.1420777"><ele>132.83333333333334</ele><time>2026-04-04T18:06:10.748Z</time></trkpt><trkpt lat="44.7112393" lon="10.1421757"><ele>133.0</ele><time>2026-04-04T18:06:11.746Z</time></trkpt><trkpt lat="44.7113089" lon="10.1422731"><ele>133.0</ele><time>2026-04-04T18:06:12.746Z</time></trkpt><trkpt lat="44.711387" lon="10.1423739"><ele>133.0</ele><time>2026-04-04T18:06:13.746Z</time></trkpt><trkpt lat="44.7114718" lon="10.1424675"><ele>133.0</ele><time>2026-04-04T18:06:14.756Z</time></trkpt><trkpt lat="44.7115556" lon="10.1425533"><ele>133.0</ele><time>2026-04-04T18:06:15.751Z</time></trkpt><trkpt lat="44.7116365" lon="10.1426391"><ele>133.0</ele><time>2026-04-04T18:06:16.76Z</time></trkpt><trkpt lat="44.7117182" lon="10.1427283"><ele>132.75</ele><time>2026-04-04T18:06:17.757Z</time></trkpt><trkpt lat="44.7118101" lon="10.1428262"><ele>132.5</ele><time>2026-04-04T18:06:18.746Z</time></trkpt><trkpt lat="44.7119092" lon="10.1429295"><ele>132.25</ele><time>2026-04-04T18:06:19.755Z</time></trkpt><trkpt lat="44.7120038" lon="10.1430294"><ele>132.0</ele><time>2026-04-04T18:06:20.755Z</time></trkpt><trkpt lat="44.7120927" lon="10.1431207"><ele>132.0</ele><time>2026-04-04T18:06:21.746Z</time></trkpt><trkpt lat="44.7121781" lon="10.1432065"><ele>132.0</ele><time>2026-04-04T18:06:22.748Z</time></trkpt><trkpt lat="44.712257" lon="10.1432875"><ele>132.0</ele><time>2026-04-04T18:06:23.754Z</time></trkpt><trkpt lat="44.7123354" lon="10.143373"><ele>132.0</ele><time>2026-04-04T18:06:24.751Z</time></trkpt><trkpt lat="44.7124146" lon="10.1434552"><ele>132.0</ele><time>2026-04-04T18:06:25.755Z</time></trkpt><trkpt lat="44.7124921" lon="10.1435401"><ele>132.4</ele><time>2026-04-04T18:06:26.756Z</time></trkpt><trkpt lat="44.7125715" lon="10.1436294"><ele>132.79999999999998</ele><time>2026-04-04T18:06:27.758Z</time></trkpt><trkpt lat="44.7126476" lon="10.1437306"><ele>133.2</ele><time>2026-04-04T18:06:28.764Z</time></trkpt><trkpt lat="44.7127201" lon="10.1438423"><ele>133.6</ele><time>2026-04-04T18:06:29.75Z</time></trkpt><trkpt lat="44.7127822" lon="10.1439658"><ele>134.0</ele><time>2026-04-04T18:06:30.77Z</time></trkpt><trkpt lat="44.7128388" lon="10.1440994"><ele>133.2</ele><time>2026-04-04T18:06:31.752Z</time></trkpt><trkpt lat="44.7128982" lon="10.1442406"><ele>132.4</ele><time>2026-04-04T18:06:32.75Z</time></trkpt><trkpt lat="44.7129579" lon="10.1443804"><ele>131.6</ele><time>2026-04-04T18:06:33.752Z</time></trkpt><trkpt lat="44.7130116" lon="10.1445145"><ele>130.8</ele><time>2026-04-04T18:06:34.755Z</time></trkpt><trkpt lat="44.7130621" lon="10.1446471"><ele>130.0</ele><time>2026-04-04T18:06:35.755Z</time></trkpt><trkpt lat="44.713115" lon="10.1447804"><ele>130.2</ele><time>2026-04-04T18:06:36.754Z</time></trkpt><trkpt lat="44.7131731" lon="10.1449209"><ele>130.4</ele><time>2026-04-04T18:06:37.756Z</time></trkpt><trkpt lat="44.7132277" lon="10.1450501"><ele>130.6</ele><time>2026-04-04T18:06:38.755Z</time></trkpt><trkpt lat="44.7132758" lon="10.1451735"><ele>130.8</ele><time>2026-04-04T18:06:39.75Z</time></trkpt><trkpt lat="44.7133222" lon="10.1453013"><ele>131.0</ele><time>2026-04-04T18:06:40.754Z</time></trkpt><trkpt lat="44.7133674" lon="10.1454354"><ele>131.0</ele><time>2026-04-04T18:06:41.752Z</time></trkpt><trkpt lat="44.7134229" lon="10.1455669"><ele>131.0</ele><time>2026-04-04T18:06:42.758Z</time></trkpt><trkpt lat="44.7134818" lon="10.1457126"><ele>131.0</ele><time>2026-04-04T18:06:43.756Z</time></trkpt><trkpt lat="44.7135438" lon="10.1458552"><ele>131.0</ele><time>2026-04-04T18:06:44.757Z</time></trkpt><trkpt lat="44.7136071" lon="10.1459982"><ele>131.0</ele><time>2026-04-04T18:06:45.756Z</time></trkpt><trkpt lat="44.7136716" lon="10.1461368"><ele>131.0</ele><time>2026-04-04T18:06:46.76Z</time></trkpt><trkpt lat="44.7137387" lon="10.1462751"><ele>131.0</ele><time>2026-04-04T18:06:47.757Z</time></trkpt><trkpt lat="44.7138078" lon="10.1464096"><ele>131.0</ele><time>2026-04-04T18:06:48.75Z</time></trkpt><trkpt lat="44.7138766" lon="10.1465481"><ele>131.0</ele><time>2026-04-04T18:06:49.757Z</time></trkpt><trkpt lat="44.7139436" lon="10.1466867"><ele>131.0</ele><time>2026-04-04T18:06:50.753Z</time></trkpt><trkpt lat="44.7140152" lon="10.1468277"><ele>131.0</ele><time>2026-04-04T18:06:51.759Z</time></trkpt><trkpt lat="44.7140896" lon="10.1469673"><ele>131.0</ele><time>2026-04-04T18:06:52.755Z</time></trkpt><trkpt lat="44.7141649" lon="10.1471135"><ele>131.0</ele><time>2026-04-04T18:06:53.758Z</time></trkpt><trkpt lat="44.7142443" lon="10.1472676"><ele>131.0</ele><time>2026-04-04T18:06:54.754Z</time></trkpt><trkpt lat="44.7143225" lon="10.1474285"><ele>131.0</ele><time>2026-04-04T18:06:55.75Z</time></trkpt><trkpt lat="44.7144047" lon="10.1475866"><ele>131.0</ele><time>2026-04-04T18:06:56.755Z</time></trkpt><trkpt lat="44.7144813" lon="10.1477427"><ele>130.0</ele><time>2026-04-04T18:06:57.76Z</time></trkpt><trkpt lat="44.7145502" lon="10.1478982"><ele>129.0</ele><time>2026-04-04T18:06:58.758Z</time></trkpt><trkpt lat="44.7146223" lon="10.1480538"><ele>128.0</ele><time>2026-04-04T18:06:59.762Z</time></trkpt><trkpt lat="44.7146957" lon="10.1482119"><ele>127.0</ele><time>2026-04-04T18:07:00.768Z</time></trkpt><trkpt lat="44.7147624" lon="10.1483785"><ele>127.0</ele><time>2026-04-04T18:07:01.756Z</time></trkpt><trkpt lat="44.7148243" lon="10.1485488"><ele>127.0</ele><time>2026-04-04T18:07:02.757Z</time></trkpt><trkpt lat="44.7148743" lon="10.1487345"><ele>127.0</ele><time>2026-04-04T18:07:03.754Z</time></trkpt><trkpt lat="44.7149276" lon="10.1489173"><ele>127.0</ele><time>2026-04-04T18:07:04.756Z</time></trkpt><trkpt lat="44.7149783" lon="10.1491102"><ele>127.25</ele><time>2026-04-04T18:07:05.754Z</time></trkpt><trkpt lat="44.715032" lon="10.1493055"><ele>127.5</ele><time>2026-04-04T18:07:06.752Z</time></trkpt><trkpt lat="44.7150746" lon="10.1494949"><ele>127.75</ele><time>2026-04-04T18:07:07.755Z</time></trkpt><trkpt lat="44.7151197" lon="10.149687"><ele>128.0</ele><time>2026-04-04T18:07:08.756Z</time></trkpt><trkpt lat="44.7151761" lon="10.1498803"><ele>127.75</ele><time>2026-04-04T18:07:09.753Z</time></trkpt><trkpt lat="44.7152247" lon="10.1500704"><ele>127.5</ele><time>2026-04-04T18:07:10.752Z</time></trkpt><trkpt lat="44.7152729" lon="10.1502491"><ele>127.25</ele><time>2026-04-04T18:07:11.748Z</time></trkpt><trkpt lat="44.7153301" lon="10.1504297"><ele>127.0</ele><time>2026-04-04T18:07:12.753Z</time></trkpt><trkpt lat="44.7153918" lon="10.1505955"><ele>127.5</ele><time>2026-04-04T18:07:13.754Z</time></trkpt><trkpt lat="44.7154637" lon="10.1507621"><ele>128.0</ele><time>2026-04-04T18:07:14.753Z</time></trkpt><trkpt lat="44.7155497" lon="10.1509189"><ele>128.5</ele><time>2026-04-04T18:07:15.748Z</time></trkpt><trkpt lat="44.7156593" lon="10.1510882"><ele>129.0</ele><time>2026-04-04T18:07:16.755Z</time></trkpt><trkpt lat="44.715779" lon="10.1512955"><ele>129.0</ele><time>2026-04-04T18:07:17.76Z</time></trkpt><trkpt lat="44.7158924" lon="10.1515266"><ele>129.0</ele><time>2026-04-04T18:07:18.754Z</time></trkpt><trkpt lat="44.7160109" lon="10.1517649"><ele>129.0</ele><time>2026-04-04T18:07:19.748Z</time></trkpt><trkpt lat="44.7161335" lon="10.1520131"><ele>130.33333333333334</ele><time>2026-04-04T18:07:20.755Z</time></trkpt><trkpt lat="44.7162306" lon="10.1522328"><ele>131.66666666666669</ele><time>2026-04-04T18:07:21.757Z</time></trkpt><trkpt lat="44.7163096" lon="10.15241"><ele>133.0</ele><time>2026-04-04T18:07:22.757Z</time></trkpt><trkpt lat="44.7163881" lon="10.1525598"><ele>133.0</ele><time>2026-04-04T18:07:23.753Z</time></trkpt><trkpt lat="44.7164686" lon="10.1527125"><ele>133.0</ele><time>2026-04-04T18:07:24.758Z</time></trkpt><trkpt lat="44.7165402" lon="10.1528426"><ele>133.0</ele><time>2026-04-04T18:07:25.758Z</time></trkpt><trkpt lat="44.716618" lon="10.1529809"><ele>133.0</ele><time>2026-04-04T18:07:26.756Z</time></trkpt><trkpt lat="44.7167062" lon="10.1531376"><ele>132.25</ele><time>2026-04-04T18:07:27.765Z</time></trkpt><trkpt lat="44.716787" lon="10.1532952"><ele>131.5</ele><time>2026-04-04T18:07:28.763Z</time></trkpt><trkpt lat="44.7168693" lon="10.1534556"><ele>130.75</ele><time>2026-04-04T18:07:29.759Z</time></trkpt><trkpt lat="44.7169405" lon="10.1536136"><ele>130.0</ele><time>2026-04-04T18:07:30.771Z</time></trkpt><trkpt lat="44.7170015" lon="10.1537716"><ele>129.75</ele><time>2026-04-04T18:07:31.759Z</time></trkpt><trkpt lat="44.7170618" lon="10.1539336"><ele>129.5</ele><time>2026-04-04T18:07:32.761Z</time></trkpt><trkpt lat="44.7171223" lon="10.1540932"><ele>129.25</ele><time>2026-04-04T18:07:33.755Z</time></trkpt><trkpt lat="44.7171774" lon="10.1542519"><ele>129.0</ele><time>2026-04-04T18:07:34.758Z</time></trkpt><trkpt lat="44.7172317" lon="10.1544128"><ele>129.0</ele><time>2026-04-04T18:07:35.758Z</time></trkpt><trkpt lat="44.7172903" lon="10.1545789"><ele>129.0</ele><time>2026-04-04T18:07:36.759Z</time></trkpt><trkpt lat="44.7173496" lon="10.1547512"><ele>129.0</ele><time>2026-04-04T18:07:37.76Z</time></trkpt><trkpt lat="44.7174114" lon="10.1549298"><ele>129.0</ele><time>2026-04-04T18:07:38.757Z</time></trkpt><trkpt lat="44.7174735" lon="10.1551065"><ele>128.5</ele><time>2026-04-04T18:07:39.761Z</time></trkpt><trkpt lat="44.7175318" lon="10.155266"><ele>128.0</ele><time>2026-04-04T18:07:40.757Z</time></trkpt><trkpt lat="44.7175978" lon="10.1554396"><ele>127.5</ele><time>2026-04-04T18:07:41.76Z</time></trkpt><trkpt lat="44.717657" lon="10.155605"><ele>127.0</ele><time>2026-04-04T18:07:42.757Z</time></trkpt><trkpt lat="44.7177197" lon="10.1557724"><ele>127.0</ele><time>2026-04-04T18:07:43.759Z</time></trkpt><trkpt lat="44.7177794" lon="10.1559354"><ele>127.0</ele><time>2026-04-04T18:07:44.766Z</time></trkpt><trkpt lat="44.7178331" lon="10.1560926"><ele>127.0</ele><time>2026-04-04T18:07:45.761Z</time></trkpt><trkpt lat="44.71789" lon="10.1562446"><ele>127.0</ele><time>2026-04-04T18:07:46.752Z</time></trkpt><trkpt lat="44.7179479" lon="10.1563981"><ele>127.33333333333334</ele><time>2026-04-04T18:07:47.759Z</time></trkpt><trkpt lat="44.71801" lon="10.1565596"><ele>127.66666666666666</ele><time>2026-04-04T18:07:48.757Z</time></trkpt><trkpt lat="44.7180813" lon="10.1567428"><ele>128.0</ele><time>2026-04-04T18:07:49.761Z</time></trkpt><trkpt lat="44.7181764" lon="10.1569827"><ele>128.0</ele><time>2026-04-04T18:07:50.759Z</time></trkpt><trkpt lat="44.7182692" lon="10.1572345"><ele>128.0</ele><time>2026-04-04T18:07:51.764Z</time></trkpt><trkpt lat="44.7183584" lon="10.1574897"><ele>128.0</ele><time>2026-04-04T18:07:52.763Z</time></trkpt><trkpt lat="44.7184405" lon="10.1577455"><ele>127.33333333333333</ele><time>2026-04-04T18:07:53.758Z</time></trkpt><trkpt lat="44.7185159" lon="10.1579764"><ele>126.66666666666666</ele><time>2026-04-04T18:07:54.756Z</time></trkpt><trkpt lat="44.7185944" lon="10.1581794"><ele>126.0</ele><time>2026-04-04T18:07:55.756Z</time></trkpt><trkpt lat="44.7186705" lon="10.1583808"><ele>124.66666666666666</ele><time>2026-04-04T18:07:56.756Z</time></trkpt><trkpt lat="44.7187395" lon="10.1585765"><ele>123.33333333333333</ele><time>2026-04-04T18:07:57.761Z</time></trkpt><trkpt lat="44.7188095" lon="10.158775"><ele>122.0</ele><time>2026-04-04T18:07:58.757Z</time></trkpt><trkpt lat="44.7188759" lon="10.1589699"><ele>121.66666666666666</ele><time>2026-04-04T18:07:59.759Z</time></trkpt><trkpt lat="44.7189454" lon="10.1591619"><ele>121.33333333333334</ele><time>2026-04-04T18:08:00.77Z</time></trkpt><trkpt lat="44.7190152" lon="10.1593585"><ele>121.0</ele><time>2026-04-04T18:08:01.762Z</time></trkpt><trkpt lat="44.7190904" lon="10.1595575"><ele>121.0</ele><time>2026-04-04T18:08:02.762Z</time></trkpt><trkpt lat="44.7191746" lon="10.1597691"><ele>121.0</ele><time>2026-04-04T18:08:03.755Z</time></trkpt><trkpt lat="44.7192611" lon="10.1599946"><ele>121.0</ele><time>2026-04-04T18:08:04.755Z</time></trkpt><trkpt lat="44.719344" lon="10.1602466"><ele>121.0</ele><time>2026-04-04T18:08:05.754Z</time></trkpt><trkpt lat="44.7194238" lon="10.1605124"><ele>121.0</ele><time>2026-04-04T18:08:06.757Z</time></trkpt><trkpt lat="44.719511" lon="10.1608037"><ele>121.0</ele><time>2026-04-04T18:08:07.761Z</time></trkpt><trkpt lat="44.7196046" lon="10.161095"><ele>121.0</ele><time>2026-04-04T18:08:08.765Z</time></trkpt><trkpt lat="44.7197008" lon="10.1613812"><ele>121.0</ele><time>2026-04-04T18:08:09.758Z</time></trkpt><trkpt lat="44.7198019" lon="10.161684"><ele>122.0</ele><time>2026-04-04T18:08:10.762Z</time></trkpt><trkpt lat="44.7199067" lon="10.1620009"><ele>123.0</ele><time>2026-04-04T18:08:11.757Z</time></trkpt><trkpt lat="44.7200116" lon="10.1623192"><ele>123.5</ele><time>2026-04-04T18:08:12.758Z</time></trkpt><trkpt lat="44.7201129" lon="10.1626404"><ele>124.0</ele><time>2026-04-04T18:08:13.755Z</time></trkpt><trkpt lat="44.7202193" lon="10.1629628"><ele>122.5</ele><time>2026-04-04T18:08:14.755Z</time></trkpt><trkpt lat="44.7203246" lon="10.1632867"><ele>121.0</ele><time>2026-04-04T18:08:15.754Z</time></trkpt><trkpt lat="44.7204287" lon="10.1636069"><ele>121.0</ele><time>2026-04-04T18:08:16.757Z</time></trkpt><trkpt lat="44.7205339" lon="10.163925"><ele>121.0</ele><time>2026-04-04T18:08:17.765Z</time></trkpt><trkpt lat="44.7206374" lon="10.1642466"><ele>120.5</ele><time>2026-04-04T18:08:18.759Z</time></trkpt><trkpt lat="44.7207342" lon="10.1645694"><ele>120.0</ele><time>2026-04-04T18:08:19.764Z</time></trkpt><trkpt lat="44.7208335" lon="10.1648948"><ele>119.5</ele><time>2026-04-04T18:08:20.755Z</time></trkpt><trkpt lat="44.7209366" lon="10.1652249"><ele>119.0</ele><time>2026-04-04T18:08:21.767Z</time></trkpt><trkpt lat="44.7210335" lon="10.1655551"><ele>118.5</ele><time>2026-04-04T18:08:22.763Z</time></trkpt><trkpt lat="44.7211321" lon="10.1658757"><ele>118.0</ele><time>2026-04-04T18:08:23.756Z</time></trkpt><trkpt lat="44.7212269" lon="10.1661936"><ele>118.0</ele><time>2026-04-04T18:08:24.736Z</time></trkpt><trkpt lat="44.7213104" lon="10.1665074"><ele>118.0</ele><time>2026-04-04T18:08:25.759Z</time></trkpt><trkpt lat="44.721389" lon="10.1668356"><ele>118.0</ele><time>2026-04-04T18:08:26.76Z</time></trkpt><trkpt lat="44.7214797" lon="10.1671538"><ele>118.0</ele><time>2026-04-04T18:08:27.763Z</time></trkpt><trkpt lat="44.7215908" lon="10.1674694"><ele>118.0</ele><time>2026-04-04T18:08:28.752Z</time></trkpt><trkpt lat="44.7217144" lon="10.1677763"><ele>118.0</ele><time>2026-04-04T18:08:29.758Z</time></trkpt><trkpt lat="44.7218377" lon="10.1680809"><ele>119.5</ele><time>2026-04-04T18:08:30.77Z</time></trkpt><trkpt lat="44.7219667" lon="10.1683931"><ele>121.0</ele><time>2026-04-04T18:08:31.757Z</time></trkpt><trkpt lat="44.7220867" lon="10.1687097"><ele>120.0</ele><time>2026-04-04T18:08:32.758Z</time></trkpt><trkpt lat="44.7222115" lon="10.1690288"><ele>119.0</ele><time>2026-04-04T18:08:33.752Z</time></trkpt><trkpt lat="44.7223285" lon="10.1693309"><ele>119.0</ele><time>2026-04-04T18:08:34.759Z</time></trkpt><trkpt lat="44.722437" lon="10.1696073"><ele>119.0</ele><time>2026-04-04T18:08:35.754Z</time></trkpt><trkpt lat="44.7225442" lon="10.1698771"><ele>119.0</ele><time>2026-04-04T18:08:36.76Z</time></trkpt><trkpt lat="44.7226474" lon="10.1701361"><ele>118.33333333333333</ele><time>2026-04-04T18:08:37.76Z</time></trkpt><trkpt lat="44.7227445" lon="10.1703777"><ele>117.66666666666666</ele><time>2026-04-04T18:08:38.759Z</time></trkpt><trkpt lat="44.7228337" lon="10.1706233"><ele>117.0</ele><time>2026-04-04T18:08:39.76Z</time></trkpt><trkpt lat="44.7229329" lon="10.1708744"><ele>117.0</ele><time>2026-04-04T18:08:40.758Z</time></trkpt><trkpt lat="44.7230319" lon="10.1711255"><ele>117.0</ele><time>2026-04-04T18:08:41.763Z</time></trkpt><trkpt lat="44.7231201" lon="10.1713702"><ele>117.0</ele><time>2026-04-04T18:08:42.757Z</time></trkpt><trkpt lat="44.7232096" lon="10.1716047"><ele>117.33333333333334</ele><time>2026-04-04T18:08:43.759Z</time></trkpt><trkpt lat="44.723298" lon="10.1718326"><ele>117.66666666666667</ele><time>2026-04-04T18:08:44.757Z</time></trkpt><trkpt lat="44.7233852" lon="10.172063"><ele>118.0</ele><time>2026-04-04T18:08:45.758Z</time></trkpt><trkpt lat="44.7234788" lon="10.1722938"><ele>118.0</ele><time>2026-04-04T18:08:46.756Z</time></trkpt><trkpt lat="44.7235724" lon="10.1725296"><ele>118.0</ele><time>2026-04-04T18:08:47.761Z</time></trkpt><trkpt lat="44.7236683" lon="10.172767"><ele>118.0</ele><time>2026-04-04T18:08:48.76Z</time></trkpt><trkpt lat="44.7237677" lon="10.1729921"><ele>118.0</ele><time>2026-04-04T18:08:49.759Z</time></trkpt><trkpt lat="44.7238665" lon="10.1732145"><ele>118.0</ele><time>2026-04-04T18:08:50.755Z</time></trkpt><trkpt lat="44.7239596" lon="10.1734426"><ele>118.0</ele><time>2026-04-04T18:08:51.754Z</time></trkpt><trkpt lat="44.7240499" lon="10.1736704"><ele>118.0</ele><time>2026-04-04T18:08:52.761Z</time></trkpt><trkpt lat="44.7241323" lon="10.1738941"><ele>118.0</ele><time>2026-04-04T18:08:53.748Z</time></trkpt><trkpt lat="44.72421" lon="10.1740977"><ele>118.0</ele><time>2026-04-04T18:08:54.749Z</time></trkpt><trkpt lat="44.7242862" lon="10.1742803"><ele>118.0</ele><time>2026-04-04T18:08:55.756Z</time></trkpt><trkpt lat="44.7243537" lon="10.1744537"><ele>118.0</ele><time>2026-04-04T18:08:56.757Z</time></trkpt><trkpt lat="44.7244193" lon="10.1746073"><ele>118.0</ele><time>2026-04-04T18:08:57.759Z</time></trkpt><trkpt lat="44.7244752" lon="10.1747457"><ele>118.0</ele><time>2026-04-04T18:08:58.752Z</time></trkpt><trkpt lat="44.7245293" lon="10.1748682"><ele>118.00000000000001</ele><time>2026-04-04T18:08:59.754Z</time></trkpt><trkpt lat="44.7245805" lon="10.1749711"><ele>118.0</ele><time>2026-04-04T18:09:00.765Z</time></trkpt><trkpt lat="44.7246142" lon="10.1750629"><ele>118.0</ele><time>2026-04-04T18:09:01.753Z</time></trkpt><trkpt lat="44.7246584" lon="10.1751822"><ele>118.0</ele><time>2026-04-04T18:09:03.758Z</time></trkpt><trkpt lat="44.7246456" lon="10.1752787"><ele>118.00000000000001</ele><time>2026-04-04T18:09:05.752Z</time></trkpt><trkpt lat="44.7245999" lon="10.1753436"><ele>118.0</ele><time>2026-04-04T18:09:07.747Z</time></trkpt><trkpt lat="44.7245181" lon="10.1753485"><ele>118.0</ele><time>2026-04-04T18:10:11.753Z</time></trkpt><trkpt lat="44.7244063" lon="10.1754399"><ele>118.00000000000001</ele><time>2026-04-04T18:10:13.753Z</time></trkpt><trkpt lat="44.7243445" lon="10.175487"><ele>118.00000000000001</ele><time>2026-04-04T18:10:14.74Z</time></trkpt><trkpt lat="44.7242321" lon="10.1755066"><ele>118.0</ele><time>2026-04-04T18:10:16.746Z</time></trkpt><trkpt lat="44.7241804" lon="10.1754258"><ele>118.0</ele><time>2026-04-04T18:10:17.743Z</time></trkpt><trkpt lat="44.7241339" lon="10.1753178"><ele>118.00000000000001</ele><time>2026-04-04T18:10:18.746Z</time></trkpt><trkpt lat="44.7240806" lon="10.1752059"><ele>118.0</ele><time>2026-04-04T18:10:19.756Z</time></trkpt><trkpt lat="44.7240247" lon="10.175098"><ele>118.0</ele><time>2026-04-04T18:10:20.742Z</time></trkpt><trkpt lat="44.7239685" lon="10.1749935"><ele>118.0</ele><time>2026-04-04T18:10:21.749Z</time></trkpt><trkpt lat="44.723917" lon="10.1748993"><ele>118.00000000000001</ele><time>2026-04-04T18:10:22.753Z</time></trkpt><trkpt lat="44.7238697" lon="10.17482"><ele>118.0</ele><time>2026-04-04T18:10:23.742Z</time></trkpt><trkpt lat="44.7238254" lon="10.1747544"><ele>118.0</ele><time>2026-04-04T18:10:24.74Z</time></trkpt><trkpt lat="44.7237364" lon="10.1747623"><ele>118.00000000000001</ele><time>2026-04-04T18:10:26.751Z</time></trkpt><trkpt lat="44.7236906" lon="10.1749375"><ele>118.00000000000001</ele><time>2026-04-04T18:10:28.745Z</time></trkpt><trkpt lat="44.7236664" lon="10.17506"><ele>118.0</ele><time>2026-04-04T18:10:29.744Z</time></trkpt><trkpt lat="44.7236333" lon="10.1751877"><ele>118.0</ele><time>2026-04-04T18:10:30.743Z</time></trkpt><trkpt lat="44.723601" lon="10.1753351"><ele>118.75</ele><time>2026-04-04T18:10:31.739Z</time></trkpt><trkpt lat="44.7235595" lon="10.1755047"><ele>119.5</ele><time>2026-04-04T18:10:32.748Z</time></trkpt><trkpt lat="44.7235145" lon="10.1756958"><ele>120.25</ele><time>2026-04-04T18:10:33.754Z</time></trkpt><trkpt lat="44.7234626" lon="10.1758987"><ele>121.0</ele><time>2026-04-04T18:10:34.745Z</time></trkpt><trkpt lat="44.7234011" lon="10.1761101"><ele>121.0</ele><time>2026-04-04T18:10:35.755Z</time></trkpt><trkpt lat="44.7233209" lon="10.1763545"><ele>121.0</ele><time>2026-04-04T18:10:36.749Z</time></trkpt><trkpt lat="44.7232451" lon="10.1766024"><ele>121.0</ele><time>2026-04-04T18:10:37.752Z</time></trkpt><trkpt lat="44.7231958" lon="10.1768186"><ele>121.6</ele><time>2026-04-04T18:10:38.754Z</time></trkpt><trkpt lat="44.7231486" lon="10.1769882"><ele>122.19999999999999</ele><time>2026-04-04T18:10:39.753Z</time></trkpt><trkpt lat="44.7231069" lon="10.1771227"><ele>122.80000000000001</ele><time>2026-04-04T18:10:40.752Z</time></trkpt><trkpt lat="44.7230959" lon="10.1772262"><ele>123.4</ele><time>2026-04-04T18:10:41.747Z</time></trkpt><trkpt lat="44.7231268" lon="10.1773147"><ele>124.0</ele><time>2026-04-04T18:10:42.754Z</time></trkpt><trkpt lat="44.723174" lon="10.177395"><ele>125.6</ele><time>2026-04-04T18:10:43.755Z</time></trkpt><trkpt lat="44.7232401" lon="10.1775022"><ele>127.2</ele><time>2026-04-04T18:10:45.75Z</time></trkpt><trkpt lat="44.7232023" lon="10.1776355"><ele>128.79999999999998</ele><time>2026-04-04T18:10:48.738Z</time></trkpt><trkpt lat="44.7230738" lon="10.1776507"><ele>130.4</ele><time>2026-04-04T18:10:50.739Z</time></trkpt><trkpt lat="44.7229969" lon="10.1776135"><ele>132.0</ele><time>2026-04-04T18:10:51.755Z</time></trkpt><trkpt lat="44.7229202" lon="10.1775669"><ele>132.0</ele><time>2026-04-04T18:10:52.755Z</time></trkpt><trkpt lat="44.722843" lon="10.1775263"><ele>132.0</ele><time>2026-04-04T18:10:53.744Z</time></trkpt><trkpt lat="44.7227744" lon="10.1775023"><ele>132.0</ele><time>2026-04-04T18:10:54.76Z</time></trkpt><trkpt lat="44.7226806" lon="10.1775657"><ele>132.0</ele><time>2026-04-04T18:10:56.75Z</time></trkpt><trkpt lat="44.7227229" lon="10.1777456"><ele>132.0</ele><time>2026-04-04T18:10:58.743Z</time></trkpt><trkpt lat="44.7227718" lon="10.1778307"><ele>132.0</ele><time>2026-04-04T18:10:59.75Z</time></trkpt><trkpt lat="44.7228143" lon="10.1779043"><ele>132.0</ele><time>2026-04-04T18:11:00.747Z</time></trkpt><trkpt lat="44.7228557" lon="10.1779754"><ele>132.0</ele><time>2026-04-04T18:11:01.744Z</time></trkpt><trkpt lat="44.7229043" lon="10.1780563"><ele>132.0</ele><time>2026-04-04T18:11:02.749Z</time></trkpt><trkpt lat="44.7229546" lon="10.1781489"><ele>132.0</ele><time>2026-04-04T18:11:03.739Z</time></trkpt><trkpt lat="44.7229885" lon="10.1782364"><ele>132.0</ele><time>2026-04-04T18:11:04.752Z</time></trkpt><trkpt lat="44.7229482" lon="10.1783549"><ele>136.0</ele><time>2026-04-04T18:11:06.742Z</time></trkpt><trkpt lat="44.7228034" lon="10.178329"><ele>140.0</ele><time>2026-04-04T18:11:08.74Z</time></trkpt><trkpt lat="44.722696" lon="10.1782917"><ele>144.0</ele><time>2026-04-04T18:11:09.743Z</time></trkpt><trkpt lat="44.7225895" lon="10.178248"><ele>148.0</ele><time>2026-04-04T18:11:10.743Z</time></trkpt><trkpt lat="44.7224956" lon="10.1782152"><ele>150.0</ele><time>2026-04-04T18:11:11.754Z</time></trkpt><trkpt lat="44.7224127" lon="10.178309"><ele>152.0</ele><time>2026-04-04T18:11:13.738Z</time></trkpt><trkpt lat="44.72243" lon="10.1784233"><ele>154.0</ele><time>2026-04-04T18:11:14.747Z</time></trkpt><trkpt lat="44.7224816" lon="10.1785604"><ele>156.0</ele><time>2026-04-04T18:11:15.749Z</time></trkpt><trkpt lat="44.7225517" lon="10.1787212"><ele>158.0</ele><time>2026-04-04T18:11:16.757Z</time></trkpt><trkpt lat="44.7226382" lon="10.1789105"><ele>159.33333333333331</ele><time>2026-04-04T18:11:17.759Z</time></trkpt><trkpt lat="44.722732" lon="10.1791242"><ele>160.66666666666666</ele><time>2026-04-04T18:11:18.755Z</time></trkpt><trkpt lat="44.7228334" lon="10.1793657"><ele>162.0</ele><time>2026-04-04T18:11:19.739Z</time></trkpt><trkpt lat="44.7229453" lon="10.1795869"><ele>162.0</ele><time>2026-04-04T18:11:20.753Z</time></trkpt><trkpt lat="44.7230745" lon="10.1797934"><ele>162.0</ele><time>2026-04-04T18:11:21.751Z</time></trkpt><trkpt lat="44.7232267" lon="10.1799867"><ele>162.0</ele><time>2026-04-04T18:11:22.757Z</time></trkpt><trkpt lat="44.7233887" lon="10.1801539"><ele>162.33333333333334</ele><time>2026-04-04T18:11:23.737Z</time></trkpt><trkpt lat="44.7235502" lon="10.1803045"><ele>162.66666666666669</ele><time>2026-04-04T18:11:24.74Z</time></trkpt><trkpt lat="44.7236891" lon="10.1804257"><ele>163.0</ele><time>2026-04-04T18:11:25.748Z</time></trkpt><trkpt lat="44.7237881" lon="10.1805262"><ele>163.0</ele><time>2026-04-04T18:11:26.743Z</time></trkpt><trkpt lat="44.7238405" lon="10.1806091"><ele>163.0</ele><time>2026-04-04T18:11:27.755Z</time></trkpt><trkpt lat="44.7238556" lon="10.1807021"><ele>163.0</ele><time>2026-04-04T18:11:28.739Z</time></trkpt><trkpt lat="44.723748" lon="10.1807408"><ele>163.0</ele><time>2026-04-04T18:11:30.755Z</time></trkpt><trkpt lat="44.7236509" lon="10.1807124"><ele>163.0</ele><time>2026-04-04T18:11:31.731Z</time></trkpt><trkpt lat="44.7235404" lon="10.1806729"><ele>166.75</ele><time>2026-04-04T18:11:32.739Z</time></trkpt><trkpt lat="44.7234186" lon="10.1806286"><ele>170.5</ele><time>2026-04-04T18:11:33.743Z</time></trkpt><trkpt lat="44.723293" lon="10.1805896"><ele>174.25</ele><time>2026-04-04T18:11:34.742Z</time></trkpt><trkpt lat="44.7231795" lon="10.1805629"><ele>178.0</ele><time>2026-04-04T18:11:35.738Z</time></trkpt><trkpt lat="44.7230729" lon="10.1805544"><ele>178.0</ele><time>2026-04-04T18:11:36.748Z</time></trkpt><trkpt lat="44.7229756" lon="10.1805573"><ele>178.0</ele><time>2026-04-04T18:11:37.747Z</time></trkpt><trkpt lat="44.7228865" lon="10.1805669"><ele>178.0</ele><time>2026-04-04T18:11:38.749Z</time></trkpt><trkpt lat="44.7228017" lon="10.1805866"><ele>178.0</ele><time>2026-04-04T18:11:39.749Z</time></trkpt><trkpt lat="44.7227193" lon="10.1806082"><ele>178.0</ele><time>2026-04-04T18:11:40.745Z</time></trkpt><trkpt lat="44.7226356" lon="10.1806283"><ele>178.0</ele><time>2026-04-04T18:11:41.743Z</time></trkpt><trkpt lat="44.7225508" lon="10.1806478"><ele>179.66666666666669</ele><time>2026-04-04T18:11:42.74Z</time></trkpt><trkpt lat="44.7224698" lon="10.1806616"><ele>181.33333333333334</ele><time>2026-04-04T18:11:43.75Z</time></trkpt><trkpt lat="44.722398" lon="10.1806759"><ele>183.0</ele><time>2026-04-04T18:11:44.744Z</time></trkpt><trkpt lat="44.7223325" lon="10.1806881"><ele>184.66666666666666</ele><time>2026-04-04T18:11:45.742Z</time></trkpt><trkpt lat="44.7222122" lon="10.1807107"><ele>186.33333333333331</ele><time>2026-04-04T18:11:47.753Z</time></trkpt><trkpt lat="44.7221491" lon="10.1807217"><ele>188.0</ele><time>2026-04-04T18:11:48.743Z</time></trkpt><trkpt lat="44.7220667" lon="10.1808163"><ele>190.5</ele><time>2026-04-04T18:11:50.746Z</time></trkpt><trkpt lat="44.7220478" lon="10.1809106"><ele>193.0</ele><time>2026-04-04T18:11:52.76Z</time></trkpt><trkpt lat="44.7220426" lon="10.1810195"><ele>195.5</ele><time>2026-04-04T18:11:55.756Z</time></trkpt><trkpt lat="44.722022" lon="10.1811256"><ele>198.0</ele><time>2026-04-04T18:12:03.759Z</time></trkpt><trkpt lat="44.7219626" lon="10.1812984"><ele>200.50000000000003</ele><time>2026-04-04T18:12:05.756Z</time></trkpt><trkpt lat="44.7219209" lon="10.1814065"><ele>203.0</ele><time>2026-04-04T18:12:06.76Z</time></trkpt><trkpt lat="44.7218757" lon="10.1815278"><ele>203.60000000000002</ele><time>2026-04-04T18:12:07.729Z</time></trkpt><trkpt lat="44.7218336" lon="10.1816445"><ele>204.20000000000002</ele><time>2026-04-04T18:12:08.741Z</time></trkpt><trkpt lat="44.7217963" lon="10.1817636"><ele>204.8</ele><time>2026-04-04T18:12:09.758Z</time></trkpt><trkpt lat="44.7217552" lon="10.1818804"><ele>205.4</ele><time>2026-04-04T18:12:10.739Z</time></trkpt><trkpt lat="44.7217163" lon="10.1820046"><ele>206.0</ele><time>2026-04-04T18:12:11.751Z</time></trkpt><trkpt lat="44.7216751" lon="10.1821313"><ele>206.0</ele><time>2026-04-04T18:12:12.754Z</time></trkpt><trkpt lat="44.7216344" lon="10.1822562"><ele>206.0</ele><time>2026-04-04T18:12:13.749Z</time></trkpt><trkpt lat="44.7215916" lon="10.1823792"><ele>206.0</ele><time>2026-04-04T18:12:14.764Z</time></trkpt><trkpt lat="44.7215508" lon="10.1825048"><ele>206.0</ele><time>2026-04-04T18:12:15.749Z</time></trkpt><trkpt lat="44.7215095" lon="10.1826342"><ele>206.0</ele><time>2026-04-04T18:12:16.763Z</time></trkpt><trkpt lat="44.721466" lon="10.1827643"><ele>205.20000000000002</ele><time>2026-04-04T18:12:17.763Z</time></trkpt><trkpt lat="44.7214223" lon="10.1828988"><ele>204.4</ele><time>2026-04-04T18:12:18.763Z</time></trkpt><trkpt lat="44.721372" lon="10.1830329"><ele>203.6</ele><time>2026-04-04T18:12:19.762Z</time></trkpt><trkpt lat="44.7213205" lon="10.1831705"><ele>202.8</ele><time>2026-04-04T18:12:20.759Z</time></trkpt><trkpt lat="44.7212712" lon="10.1833075"><ele>202.0</ele><time>2026-04-04T18:12:21.757Z</time></trkpt><trkpt lat="44.7212243" lon="10.1834516"><ele>200.5</ele><time>2026-04-04T18:12:22.758Z</time></trkpt><trkpt lat="44.7211715" lon="10.183597"><ele>199.0</ele><time>2026-04-04T18:12:23.753Z</time></trkpt><trkpt lat="44.7211202" lon="10.1837446"><ele>197.5</ele><time>2026-04-04T18:12:24.749Z</time></trkpt><trkpt lat="44.7210732" lon="10.1838923"><ele>196.0</ele><time>2026-04-04T18:12:25.748Z</time></trkpt><trkpt lat="44.7210267" lon="10.1840329"><ele>199.4</ele><time>2026-04-04T18:12:26.753Z</time></trkpt><trkpt lat="44.7209829" lon="10.1841716"><ele>202.8</ele><time>2026-04-04T18:12:27.762Z</time></trkpt><trkpt lat="44.7209366" lon="10.1843055"><ele>206.20000000000002</ele><time>2026-04-04T18:12:28.753Z</time></trkpt><trkpt lat="44.7208922" lon="10.1844372"><ele>209.60000000000002</ele><time>2026-04-04T18:12:29.753Z</time></trkpt><trkpt lat="44.7208481" lon="10.1845693"><ele>213.0</ele><time>2026-04-04T18:12:30.767Z</time></trkpt><trkpt lat="44.7208044" lon="10.1847004"><ele>213.0</ele><time>2026-04-04T18:12:31.744Z</time></trkpt><trkpt lat="44.7207646" lon="10.184818"><ele>213.0</ele><time>2026-04-04T18:12:32.755Z</time></trkpt><trkpt lat="44.7207353" lon="10.1849173"><ele>213.0</ele><time>2026-04-04T18:12:33.748Z</time></trkpt><trkpt lat="44.7206957" lon="10.1850392"><ele>213.0</ele><time>2026-04-04T18:12:35.745Z</time></trkpt><trkpt lat="44.7206611" lon="10.1851358"><ele>213.0</ele><time>2026-04-04T18:12:39.755Z</time></trkpt><trkpt lat="44.7206793" lon="10.1852348"><ele>213.0</ele><time>2026-04-04T18:12:41.748Z</time></trkpt><trkpt lat="44.7207185" lon="10.1853131"><ele>212.60000000000002</ele><time>2026-04-04T18:12:42.762Z</time></trkpt><trkpt lat="44.7207716" lon="10.1854052"><ele>212.20000000000002</ele><time>2026-04-04T18:12:43.746Z</time></trkpt><trkpt lat="44.7208409" lon="10.1855422"><ele>211.8</ele><time>2026-04-04T18:12:44.74Z</time></trkpt><trkpt lat="44.7209017" lon="10.1856935"><ele>211.4</ele><time>2026-04-04T18:12:45.745Z</time></trkpt><trkpt lat="44.7209519" lon="10.1858214"><ele>211.0</ele><time>2026-04-04T18:12:46.744Z</time></trkpt><trkpt lat="44.720999" lon="10.1859403"><ele>211.0</ele><time>2026-04-04T18:12:47.745Z</time></trkpt><trkpt lat="44.7210553" lon="10.1860697"><ele>211.0</ele><time>2026-04-04T18:12:48.753Z</time></trkpt><trkpt lat="44.7211028" lon="10.1862009"><ele>211.0</ele><time>2026-04-04T18:12:49.754Z</time></trkpt><trkpt lat="44.7211494" lon="10.1863297"><ele>211.0</ele><time>2026-04-04T18:12:50.756Z</time></trkpt><trkpt lat="44.7211902" lon="10.1864467"><ele>211.0</ele><time>2026-04-04T18:12:51.748Z</time></trkpt><trkpt lat="44.7212304" lon="10.1865657"><ele>209.20000000000002</ele><time>2026-04-04T18:12:52.769Z</time></trkpt><trkpt lat="44.7212666" lon="10.1866861"><ele>207.4</ele><time>2026-04-04T18:12:53.756Z</time></trkpt><trkpt lat="44.7213095" lon="10.1868107"><ele>205.6</ele><time>2026-04-04T18:12:54.748Z</time></trkpt><trkpt lat="44.7213541" lon="10.1869437"><ele>203.8</ele><time>2026-04-04T18:12:55.746Z</time></trkpt><trkpt lat="44.7214045" lon="10.1870829"><ele>202.0</ele><time>2026-04-04T18:12:56.756Z</time></trkpt><trkpt lat="44.7214573" lon="10.1872237"><ele>201.5</ele><time>2026-04-04T18:12:57.763Z</time></trkpt><trkpt lat="44.7215152" lon="10.1873613"><ele>201.0</ele><time>2026-04-04T18:12:58.757Z</time></trkpt><trkpt lat="44.7215751" lon="10.1875036"><ele>200.5</ele><time>2026-04-04T18:12:59.758Z</time></trkpt><trkpt lat="44.7216367" lon="10.1876488"><ele>200.0</ele><time>2026-04-04T18:13:00.764Z</time></trkpt><trkpt lat="44.7216978" lon="10.1877895"><ele>200.0</ele><time>2026-04-04T18:13:01.756Z</time></trkpt><trkpt lat="44.721755" lon="10.1879255"><ele>200.0</ele><time>2026-04-04T18:13:02.755Z</time></trkpt><trkpt lat="44.7218115" lon="10.1880535"><ele>200.0</ele><time>2026-04-04T18:13:03.746Z</time></trkpt><trkpt lat="44.7218669" lon="10.1881776"><ele>200.0</ele><time>2026-04-04T18:13:04.752Z</time></trkpt><trkpt lat="44.7219176" lon="10.1882892"><ele>200.0</ele><time>2026-04-04T18:13:05.752Z</time></trkpt><trkpt lat="44.721966" lon="10.1884036"><ele>197.4</ele><time>2026-04-04T18:13:06.748Z</time></trkpt><trkpt lat="44.7220211" lon="10.1885236"><ele>194.8</ele><time>2026-04-04T18:13:07.753Z</time></trkpt><trkpt lat="44.7220749" lon="10.1886365"><ele>192.2</ele><time>2026-04-04T18:13:08.748Z</time></trkpt><trkpt lat="44.7221253" lon="10.1887448"><ele>189.6</ele><time>2026-04-04T18:13:09.743Z</time></trkpt><trkpt lat="44.7221709" lon="10.1888535"><ele>187.0</ele><time>2026-04-04T18:13:10.754Z</time></trkpt><trkpt lat="44.7222115" lon="10.188954"><ele>186.6</ele><time>2026-04-04T18:13:11.752Z</time></trkpt><trkpt lat="44.7222574" lon="10.1890559"><ele>186.2</ele><time>2026-04-04T18:13:12.754Z</time></trkpt><trkpt lat="44.7223085" lon="10.189157"><ele>185.8</ele><time>2026-04-04T18:13:13.756Z</time></trkpt><trkpt lat="44.7223548" lon="10.1892604"><ele>185.4</ele><time>2026-04-04T18:13:14.749Z</time></trkpt><trkpt lat="44.7224084" lon="10.1893676"><ele>185.0</ele><time>2026-04-04T18:13:15.754Z</time></trkpt><trkpt lat="44.7224647" lon="10.1894783"><ele>185.0</ele><time>2026-04-04T18:13:16.751Z</time></trkpt><trkpt lat="44.7225457" lon="10.189599"><ele>185.0</ele><time>2026-04-04T18:13:17.763Z</time></trkpt><trkpt lat="44.7226539" lon="10.1897301"><ele>185.0</ele><time>2026-04-04T18:13:18.755Z</time></trkpt><trkpt lat="44.7227787" lon="10.1898682"><ele>185.0</ele><time>2026-04-04T18:13:19.754Z</time></trkpt><trkpt lat="44.7229277" lon="10.1900187"><ele>181.0</ele><time>2026-04-04T18:13:20.759Z</time></trkpt><trkpt lat="44.7230855" lon="10.1901865"><ele>177.0</ele><time>2026-04-04T18:13:21.757Z</time></trkpt><trkpt lat="44.7232304" lon="10.1903369"><ele>173.0</ele><time>2026-04-04T18:13:22.762Z</time></trkpt><trkpt lat="44.7233734" lon="10.1904829"><ele>173.0</ele><time>2026-04-04T18:13:23.758Z</time></trkpt><trkpt lat="44.7234972" lon="10.190618"><ele>173.0</ele><time>2026-04-04T18:13:24.753Z</time></trkpt><trkpt lat="44.7236113" lon="10.190753"><ele>173.0</ele><time>2026-04-04T18:13:25.752Z</time></trkpt><trkpt lat="44.723723" lon="10.1909006"><ele>171.0</ele><time>2026-04-04T18:13:26.753Z</time></trkpt><trkpt lat="44.723791" lon="10.1910645"><ele>169.0</ele><time>2026-04-04T18:13:27.745Z</time></trkpt><trkpt lat="44.7238316" lon="10.1912401"><ele>167.0</ele><time>2026-04-04T18:13:28.749Z</time></trkpt><trkpt lat="44.7238687" lon="10.1913789"><ele>165.0</ele><time>2026-04-04T18:13:29.752Z</time></trkpt><trkpt lat="44.7239334" lon="10.1914935"><ele>165.25</ele><time>2026-04-04T18:13:30.765Z</time></trkpt><trkpt lat="44.7240462" lon="10.1915704"><ele>165.5</ele><time>2026-04-04T18:13:31.752Z</time></trkpt><trkpt lat="44.7241797" lon="10.1916375"><ele>165.75</ele><time>2026-04-04T18:13:32.758Z</time></trkpt><trkpt lat="44.7243151" lon="10.1917191"><ele>166.0</ele><time>2026-04-04T18:13:33.757Z</time></trkpt><trkpt lat="44.724445" lon="10.1918207"><ele>161.33333333333334</ele><time>2026-04-04T18:13:34.753Z</time></trkpt><trkpt lat="44.7245657" lon="10.1919331"><ele>156.66666666666666</ele><time>2026-04-04T18:13:35.748Z</time></trkpt><trkpt lat="44.724691" lon="10.1920724"><ele>152.0</ele><time>2026-04-04T18:13:36.76Z</time></trkpt><trkpt lat="44.7248089" lon="10.1922036"><ele>152.0</ele><time>2026-04-04T18:13:37.751Z</time></trkpt><trkpt lat="44.7249424" lon="10.1923162"><ele>152.0</ele><time>2026-04-04T18:13:38.747Z</time></trkpt><trkpt lat="44.725081" lon="10.1923967"><ele>152.0</ele><time>2026-04-04T18:13:39.755Z</time></trkpt><trkpt lat="44.7252125" lon="10.1924818"><ele>148.0</ele><time>2026-04-04T18:13:40.751Z</time></trkpt><trkpt lat="44.7253249" lon="10.1926048"><ele>144.0</ele><time>2026-04-04T18:13:41.76Z</time></trkpt><trkpt lat="44.7254189" lon="10.1927784"><ele>140.0</ele><time>2026-04-04T18:13:42.749Z</time></trkpt><trkpt lat="44.7255108" lon="10.1929738"><ele>140.0</ele><time>2026-04-04T18:13:43.745Z</time></trkpt><trkpt lat="44.7256153" lon="10.1931554"><ele>140.0</ele><time>2026-04-04T18:13:44.748Z</time></trkpt><trkpt lat="44.7257109" lon="10.1933177"><ele>140.0</ele><time>2026-04-04T18:13:45.745Z</time></trkpt><trkpt lat="44.7257964" lon="10.193475"><ele>139.4</ele><time>2026-04-04T18:13:46.757Z</time></trkpt><trkpt lat="44.7258591" lon="10.1936197"><ele>138.8</ele><time>2026-04-04T18:13:47.751Z</time></trkpt><trkpt lat="44.7259049" lon="10.1937425"><ele>138.2</ele><time>2026-04-04T18:13:48.748Z</time></trkpt><trkpt lat="44.7258587" lon="10.1938875"><ele>137.6</ele><time>2026-04-04T18:13:50.755Z</time></trkpt><trkpt lat="44.7257944" lon="10.1939412"><ele>137.0</ele><time>2026-04-04T18:13:51.754Z</time></trkpt><trkpt lat="44.7257045" lon="10.1939897"><ele>136.0</ele><time>2026-04-04T18:13:52.749Z</time></trkpt><trkpt lat="44.7255945" lon="10.1940397"><ele>135.0</ele><time>2026-04-04T18:13:53.754Z</time></trkpt><trkpt lat="44.7254659" lon="10.1941002"><ele>134.0</ele><time>2026-04-04T18:13:54.743Z</time></trkpt><trkpt lat="44.7253245" lon="10.1941428"><ele>133.0</ele><time>2026-04-04T18:13:55.748Z</time></trkpt><trkpt lat="44.7251797" lon="10.1941467"><ele>133.0</ele><time>2026-04-04T18:13:56.755Z</time></trkpt><trkpt lat="44.7250262" lon="10.194106"><ele>133.0</ele><time>2026-04-04T18:13:57.754Z</time></trkpt><trkpt lat="44.7248721" lon="10.19409"><ele>133.0</ele><time>2026-04-04T18:13:58.747Z</time></trkpt><trkpt lat="44.724719" lon="10.1941399"><ele>133.0</ele><time>2026-04-04T18:13:59.748Z</time></trkpt><trkpt lat="44.7245615" lon="10.1942234"><ele>133.0</ele><time>2026-04-04T18:14:00.758Z</time></trkpt><trkpt lat="44.7243926" lon="10.1943004"><ele>133.0</ele><time>2026-04-04T18:14:01.742Z</time></trkpt><trkpt lat="44.7242177" lon="10.1943553"><ele>132.66666666666669</ele><time>2026-04-04T18:14:02.745Z</time></trkpt><trkpt lat="44.7240266" lon="10.194373"><ele>132.33333333333334</ele><time>2026-04-04T18:14:03.759Z</time></trkpt><trkpt lat="44.723825" lon="10.1943622"><ele>132.0</ele><time>2026-04-04T18:14:04.753Z</time></trkpt><trkpt lat="44.723629" lon="10.1943068"><ele>132.33333333333334</ele><time>2026-04-04T18:14:05.751Z</time></trkpt><trkpt lat="44.7234414" lon="10.1942258"><ele>132.66666666666669</ele><time>2026-04-04T18:14:06.748Z</time></trkpt><trkpt lat="44.7232546" lon="10.194141"><ele>133.0</ele><time>2026-04-04T18:14:07.748Z</time></trkpt><trkpt lat="44.723066" lon="10.1940369"><ele>133.66666666666669</ele><time>2026-04-04T18:14:08.755Z</time></trkpt><trkpt lat="44.7229023" lon="10.1939224"><ele>134.33333333333334</ele><time>2026-04-04T18:14:09.753Z</time></trkpt><trkpt lat="44.7227566" lon="10.1937754"><ele>135.0</ele><time>2026-04-04T18:14:10.749Z</time></trkpt><trkpt lat="44.7226452" lon="10.1936227"><ele>135.0</ele><time>2026-04-04T18:14:11.744Z</time></trkpt><trkpt lat="44.7225454" lon="10.1934883"><ele>135.0</ele><time>2026-04-04T18:14:12.749Z</time></trkpt><trkpt lat="44.7224404" lon="10.1933807"><ele>135.0</ele><time>2026-04-04T18:14:13.745Z</time></trkpt><trkpt lat="44.7223407" lon="10.1932767"><ele>135.0</ele><time>2026-04-04T18:14:14.737Z</time></trkpt><trkpt lat="44.7222173" lon="10.1931984"><ele>136.33333333333334</ele><time>2026-04-04T18:14:15.741Z</time></trkpt><trkpt lat="44.7220786" lon="10.1931207"><ele>137.66666666666669</ele><time>2026-04-04T18:14:16.742Z</time></trkpt><trkpt lat="44.7219333" lon="10.1930369"><ele>139.0</ele><time>2026-04-04T18:14:17.742Z</time></trkpt><trkpt lat="44.721778" lon="10.1929422"><ele>139.0</ele><time>2026-04-04T18:14:18.741Z</time></trkpt><trkpt lat="44.7216248" lon="10.1928322"><ele>139.0</ele><time>2026-04-04T18:14:19.747Z</time></trkpt><trkpt lat="44.7214872" lon="10.1927214"><ele>139.0</ele><time>2026-04-04T18:14:20.742Z</time></trkpt><trkpt lat="44.7213582" lon="10.1926052"><ele>139.0</ele><time>2026-04-04T18:14:21.747Z</time></trkpt><trkpt lat="44.7212415" lon="10.1925085"><ele>139.0</ele><time>2026-04-04T18:14:22.746Z</time></trkpt><trkpt lat="44.7211291" lon="10.1924074"><ele>139.0</ele><time>2026-04-04T18:14:23.751Z</time></trkpt><trkpt lat="44.7210106" lon="10.1923133"><ele>139.0</ele><time>2026-04-04T18:14:24.741Z</time></trkpt><trkpt lat="44.720886" lon="10.1922132"><ele>139.75</ele><time>2026-04-04T18:14:25.743Z</time></trkpt><trkpt lat="44.720768" lon="10.1921138"><ele>140.5</ele><time>2026-04-04T18:14:26.739Z</time></trkpt><trkpt lat="44.7206593" lon="10.1920231"><ele>141.25</ele><time>2026-04-04T18:14:27.736Z</time></trkpt><trkpt lat="44.7205618" lon="10.1919462"><ele>142.0</ele><time>2026-04-04T18:14:28.732Z</time></trkpt><trkpt lat="44.720486" lon="10.1919199"><ele>142.0</ele><time>2026-04-04T18:14:29.739Z</time></trkpt><trkpt lat="44.7203895" lon="10.1919284"><ele>142.0</ele><time>2026-04-04T18:14:31.739Z</time></trkpt><trkpt lat="44.7203316" lon="10.1919972"><ele>142.0</ele><time>2026-04-04T18:14:33.735Z</time></trkpt><trkpt lat="44.7202587" lon="10.1921526"><ele>142.0</ele><time>2026-04-04T18:14:35.736Z</time></trkpt><trkpt lat="44.7202255" lon="10.1922597"><ele>142.0</ele><time>2026-04-04T18:14:36.741Z</time></trkpt><trkpt lat="44.7202043" lon="10.192376"><ele>141.0</ele><time>2026-04-04T18:14:37.746Z</time></trkpt><trkpt lat="44.7201944" lon="10.1924987"><ele>140.0</ele><time>2026-04-04T18:14:38.751Z</time></trkpt><trkpt lat="44.7201902" lon="10.1926208"><ele>139.0</ele><time>2026-04-04T18:14:39.753Z</time></trkpt><trkpt lat="44.7201892" lon="10.1927409"><ele>138.0</ele><time>2026-04-04T18:14:40.751Z</time></trkpt><trkpt lat="44.7201923" lon="10.1928684"><ele>137.0</ele><time>2026-04-04T18:14:41.75Z</time></trkpt><trkpt lat="44.720197" lon="10.1930073"><ele>136.0</ele><time>2026-04-04T18:14:42.748Z</time></trkpt><trkpt lat="44.7202009" lon="10.1931686"><ele>137.33333333333334</ele><time>2026-04-04T18:14:43.754Z</time></trkpt><trkpt lat="44.720203" lon="10.1933556"><ele>138.66666666666666</ele><time>2026-04-04T18:14:44.745Z</time></trkpt><trkpt lat="44.7202115" lon="10.1935831"><ele>140.0</ele><time>2026-04-04T18:14:45.748Z</time></trkpt><trkpt lat="44.7202289" lon="10.1938816"><ele>139.0</ele><time>2026-04-04T18:14:46.747Z</time></trkpt><trkpt lat="44.720238" lon="10.1941787"><ele>138.0</ele><time>2026-04-04T18:14:47.749Z</time></trkpt><trkpt lat="44.7202299" lon="10.1944263"><ele>137.0</ele><time>2026-04-04T18:14:48.741Z</time></trkpt><trkpt lat="44.720202" lon="10.1946747"><ele>142.0</ele><time>2026-04-04T18:14:49.75Z</time></trkpt><trkpt lat="44.7201545" lon="10.1949396"><ele>147.0</ele><time>2026-04-04T18:14:50.751Z</time></trkpt><trkpt lat="44.7201045" lon="10.1952047"><ele>152.0</ele><time>2026-04-04T18:14:51.743Z</time></trkpt><trkpt lat="44.7200575" lon="10.1954642"><ele>155.0</ele><time>2026-04-04T18:14:52.754Z</time></trkpt><trkpt lat="44.7200214" lon="10.195691"><ele>158.0</ele><time>2026-04-04T18:14:53.76Z</time></trkpt><trkpt lat="44.7199834" lon="10.1958775"><ele>161.0</ele><time>2026-04-04T18:14:54.744Z</time></trkpt><trkpt lat="44.7199738" lon="10.1960159"><ele>164.0</ele><time>2026-04-04T18:14:55.756Z</time></trkpt><trkpt lat="44.7200084" lon="10.1961405"><ele>164.0</ele><time>2026-04-04T18:14:56.747Z</time></trkpt><trkpt lat="44.7201108" lon="10.1962691"><ele>164.0</ele><time>2026-04-04T18:14:57.742Z</time></trkpt><trkpt lat="44.7202127" lon="10.196421"><ele>164.0</ele><time>2026-04-04T18:14:58.736Z</time></trkpt><trkpt lat="44.7204012" lon="10.1965244"><ele>166.0</ele><time>2026-04-04T18:14:59.717Z</time></trkpt><trkpt lat="44.7205749" lon="10.1966126"><ele>168.0</ele><time>2026-04-04T18:15:00.734Z</time></trkpt><trkpt lat="44.7207061" lon="10.1967149"><ele>170.0</ele><time>2026-04-04T18:15:01.722Z</time></trkpt><trkpt lat="44.7207922" lon="10.1968583"><ele>170.0</ele><time>2026-04-04T18:15:02.74Z</time></trkpt><trkpt lat="44.7208446" lon="10.1970302"><ele>170.0</ele><time>2026-04-04T18:15:03.734Z</time></trkpt><trkpt lat="44.7208659" lon="10.1972004"><ele>170.0</ele><time>2026-04-04T18:15:04.74Z</time></trkpt><trkpt lat="44.7208608" lon="10.1973799"><ele>170.0</ele><time>2026-04-04T18:15:05.735Z</time></trkpt><trkpt lat="44.7208303" lon="10.1975755"><ele>174.25</ele><time>2026-04-04T18:15:06.727Z</time></trkpt><trkpt lat="44.7208054" lon="10.1977824"><ele>178.5</ele><time>2026-04-04T18:15:07.741Z</time></trkpt><trkpt lat="44.7208108" lon="10.1979529"><ele>182.75</ele><time>2026-04-04T18:15:08.745Z</time></trkpt><trkpt lat="44.7208649" lon="10.1980843"><ele>187.0</ele><time>2026-04-04T18:15:09.742Z</time></trkpt><trkpt lat="44.7209602" lon="10.1981815"><ele>185.66666666666669</ele><time>2026-04-04T18:15:10.733Z</time></trkpt><trkpt lat="44.7210842" lon="10.1982332"><ele>184.33333333333334</ele><time>2026-04-04T18:15:11.739Z</time></trkpt><trkpt lat="44.721255" lon="10.198277"><ele>183.0</ele><time>2026-04-04T18:15:12.736Z</time></trkpt><trkpt lat="44.7214149" lon="10.1983622"><ele>183.0</ele><time>2026-04-04T18:15:13.741Z</time></trkpt><trkpt lat="44.7215332" lon="10.1984846"><ele>183.0</ele><time>2026-04-04T18:15:14.736Z</time></trkpt><trkpt lat="44.721565" lon="10.1986361"><ele>183.0</ele><time>2026-04-04T18:15:15.741Z</time></trkpt><trkpt lat="44.7215282" lon="10.1987865"><ele>183.0</ele><time>2026-04-04T18:15:16.731Z</time></trkpt><trkpt lat="44.7214539" lon="10.1989329"><ele>185.0</ele><time>2026-04-04T18:15:17.742Z</time></trkpt><trkpt lat="44.7213582" lon="10.1990679"><ele>187.0</ele><time>2026-04-04T18:15:18.742Z</time></trkpt><trkpt lat="44.7212569" lon="10.1992041"><ele>189.0</ele><time>2026-04-04T18:15:19.738Z</time></trkpt><trkpt lat="44.7211887" lon="10.1993398"><ele>191.0</ele><time>2026-04-04T18:15:20.748Z</time></trkpt><trkpt lat="44.7211654" lon="10.1995179"><ele>191.0</ele><time>2026-04-04T18:15:21.748Z</time></trkpt><trkpt lat="44.7211723" lon="10.1996985"><ele>191.0</ele><time>2026-04-04T18:15:22.742Z</time></trkpt><trkpt lat="44.7212059" lon="10.1998609"><ele>191.0</ele><time>2026-04-04T18:15:23.758Z</time></trkpt><trkpt lat="44.7212875" lon="10.1999834"><ele>191.0</ele><time>2026-04-04T18:15:24.745Z</time></trkpt><trkpt lat="44.7214027" lon="10.2000416"><ele>194.66666666666666</ele><time>2026-04-04T18:15:25.749Z</time></trkpt><trkpt lat="44.7215626" lon="10.2000498"><ele>198.33333333333331</ele><time>2026-04-04T18:15:26.719Z</time></trkpt><trkpt lat="44.7217347" lon="10.2000117"><ele>202.0</ele><time>2026-04-04T18:15:27.721Z</time></trkpt><trkpt lat="44.7219264" lon="10.1999303"><ele>197.66666666666666</ele><time>2026-04-04T18:15:28.708Z</time></trkpt><trkpt lat="44.7221332" lon="10.1998022"><ele>193.33333333333331</ele><time>2026-04-04T18:15:29.724Z</time></trkpt><trkpt lat="44.7223443" lon="10.1997072"><ele>189.0</ele><time>2026-04-04T18:15:30.726Z</time></trkpt><trkpt lat="44.7225472" lon="10.1996714"><ele>189.0</ele><time>2026-04-04T18:15:31.731Z</time></trkpt><trkpt lat="44.7227028" lon="10.1996892"><ele>189.0</ele><time>2026-04-04T18:15:32.733Z</time></trkpt><trkpt lat="44.7228399" lon="10.1997475"><ele>189.0</ele><time>2026-04-04T18:15:33.75Z</time></trkpt><trkpt lat="44.7229559" lon="10.1998929"><ele>193.0</ele><time>2026-04-04T18:15:34.74Z</time></trkpt><trkpt lat="44.723059" lon="10.2000483"><ele>197.0</ele><time>2026-04-04T18:15:35.739Z</time></trkpt><trkpt lat="44.723173" lon="10.2002009"><ele>201.0</ele><time>2026-04-04T18:15:36.732Z</time></trkpt><trkpt lat="44.7233096" lon="10.2003321"><ele>201.0</ele><time>2026-04-04T18:15:37.742Z</time></trkpt><trkpt lat="44.7234578" lon="10.2004092"><ele>201.0</ele><time>2026-04-04T18:15:38.735Z</time></trkpt><trkpt lat="44.7236083" lon="10.200478"><ele>201.0</ele><time>2026-04-04T18:15:39.734Z</time></trkpt><trkpt lat="44.723752" lon="10.200561"><ele>201.25</ele><time>2026-04-04T18:15:40.741Z</time></trkpt><trkpt lat="44.7238722" lon="10.2006729"><ele>201.5</ele><time>2026-04-04T18:15:41.746Z</time></trkpt><trkpt lat="44.7239325" lon="10.2008143"><ele>201.75</ele><time>2026-04-04T18:15:42.754Z</time></trkpt><trkpt lat="44.7239228" lon="10.2009918"><ele>202.0</ele><time>2026-04-04T18:15:43.74Z</time></trkpt><trkpt lat="44.7239004" lon="10.2012026"><ele>202.0</ele><time>2026-04-04T18:15:44.731Z</time></trkpt><trkpt lat="44.7238757" lon="10.2014234"><ele>202.0</ele><time>2026-04-04T18:15:45.753Z</time></trkpt><trkpt lat="44.7238243" lon="10.2016271"><ele>202.0</ele><time>2026-04-04T18:15:46.751Z</time></trkpt><trkpt lat="44.7237317" lon="10.2018108"><ele>201.75</ele><time>2026-04-04T18:15:47.729Z</time></trkpt><trkpt lat="44.7236351" lon="10.2019731"><ele>201.5</ele><time>2026-04-04T18:15:48.738Z</time></trkpt><trkpt lat="44.7235166" lon="10.2020523"><ele>201.25</ele><time>2026-04-04T18:15:49.744Z</time></trkpt><trkpt lat="44.7233908" lon="10.2020809"><ele>201.0</ele><time>2026-04-04T18:15:50.724Z</time></trkpt><trkpt lat="44.7232395" lon="10.2020953"><ele>201.0</ele><time>2026-04-04T18:15:51.732Z</time></trkpt><trkpt lat="44.7230746" lon="10.2021175"><ele>201.0</ele><time>2026-04-04T18:15:52.738Z</time></trkpt><trkpt lat="44.7229092" lon="10.2021708"><ele>201.0</ele><time>2026-04-04T18:15:53.721Z</time></trkpt><trkpt lat="44.7227575" lon="10.2022829"><ele>199.66666666666669</ele><time>2026-04-04T18:15:54.741Z</time></trkpt><trkpt lat="44.7226109" lon="10.2024122"><ele>198.33333333333334</ele><time>2026-04-04T18:15:55.734Z</time></trkpt><trkpt lat="44.7224797" lon="10.2025505"><ele>197.0</ele><time>2026-04-04T18:15:56.727Z</time></trkpt><trkpt lat="44.7223486" lon="10.2027383"><ele>197.0</ele><time>2026-04-04T18:15:57.72Z</time></trkpt><trkpt lat="44.7222193" lon="10.2029639"><ele>197.0</ele><time>2026-04-04T18:15:58.731Z</time></trkpt><trkpt lat="44.7221076" lon="10.2032123"><ele>197.0</ele><time>2026-04-04T18:15:59.718Z</time></trkpt><trkpt lat="44.7219818" lon="10.2034535"><ele>196.66666666666669</ele><time>2026-04-04T18:16:00.743Z</time></trkpt><trkpt lat="44.7218804" lon="10.203669"><ele>196.33333333333331</ele><time>2026-04-04T18:16:01.73Z</time></trkpt><trkpt lat="44.72178" lon="10.2038438"><ele>196.0</ele><time>2026-04-04T18:16:02.733Z</time></trkpt><trkpt lat="44.7216439" lon="10.2040132"><ele>190.66666666666666</ele><time>2026-04-04T18:16:03.732Z</time></trkpt><trkpt lat="44.7214718" lon="10.2041471"><ele>185.33333333333331</ele><time>2026-04-04T18:16:04.729Z</time></trkpt><trkpt lat="44.7212984" lon="10.2042744"><ele>180.0</ele><time>2026-04-04T18:16:05.722Z</time></trkpt><trkpt lat="44.7211325" lon="10.2044002"><ele>185.0</ele><time>2026-04-04T18:16:06.728Z</time></trkpt><trkpt lat="44.720998" lon="10.2045078"><ele>190.0</ele><time>2026-04-04T18:16:07.74Z</time></trkpt><trkpt lat="44.720879" lon="10.2046338"><ele>195.0</ele><time>2026-04-04T18:16:08.737Z</time></trkpt><trkpt lat="44.7207686" lon="10.2048136"><ele>190.0</ele><time>2026-04-04T18:16:09.743Z</time></trkpt><trkpt lat="44.7206515" lon="10.2050064"><ele>185.0</ele><time>2026-04-04T18:16:10.731Z</time></trkpt><trkpt lat="44.7205497" lon="10.2051935"><ele>180.0</ele><time>2026-04-04T18:16:11.736Z</time></trkpt><trkpt lat="44.7204638" lon="10.2053744"><ele>180.0</ele><time>2026-04-04T18:16:12.731Z</time></trkpt><trkpt lat="44.7203904" lon="10.2055515"><ele>180.0</ele><time>2026-04-04T18:16:13.732Z</time></trkpt><trkpt lat="44.7203144" lon="10.2057346"><ele>180.0</ele><time>2026-04-04T18:16:14.734Z</time></trkpt><trkpt lat="44.7202589" lon="10.2059178"><ele>180.0</ele><time>2026-04-04T18:16:15.753Z</time></trkpt><trkpt lat="44.7202453" lon="10.2060836"><ele>179.75</ele><time>2026-04-04T18:16:16.752Z</time></trkpt><trkpt lat="44.7203037" lon="10.206266"><ele>179.5</ele><time>2026-04-04T18:16:17.751Z</time></trkpt><trkpt lat="44.7204026" lon="10.2063999"><ele>179.25</ele><time>2026-04-04T18:16:18.742Z</time></trkpt><trkpt lat="44.7205168" lon="10.2065056"><ele>179.0</ele><time>2026-04-04T18:16:19.738Z</time></trkpt><trkpt lat="44.7206078" lon="10.2065689"><ele>182.2</ele><time>2026-04-04T18:16:20.745Z</time></trkpt><trkpt lat="44.7205866" lon="10.2066949"><ele>185.39999999999998</ele><time>2026-04-04T18:16:22.741Z</time></trkpt><trkpt lat="44.7205195" lon="10.2067333"><ele>188.6</ele><time>2026-04-04T18:16:23.731Z</time></trkpt><trkpt lat="44.7204328" lon="10.2067523"><ele>191.8</ele><time>2026-04-04T18:16:24.725Z</time></trkpt><trkpt lat="44.7203314" lon="10.2067866"><ele>195.0</ele><time>2026-04-04T18:16:25.736Z</time></trkpt><trkpt lat="44.7201998" lon="10.2068621"><ele>196.66666666666669</ele><time>2026-04-04T18:16:26.732Z</time></trkpt><trkpt lat="44.7200559" lon="10.2069614"><ele>198.33333333333334</ele><time>2026-04-04T18:16:27.724Z</time></trkpt><trkpt lat="44.719896" lon="10.2070479"><ele>200.0</ele><time>2026-04-04T18:16:28.822Z</time></trkpt><trkpt lat="44.7197052" lon="10.2070386"><ele>200.0</ele><time>2026-04-04T18:16:29.732Z</time></trkpt><trkpt lat="44.7195178" lon="10.2070088"><ele>200.0</ele><time>2026-04-04T18:16:30.748Z</time></trkpt><trkpt lat="44.7193159" lon="10.2069914"><ele>200.0</ele><time>2026-04-04T18:16:31.728Z</time></trkpt><trkpt lat="44.7191157" lon="10.2069936"><ele>203.33333333333334</ele><time>2026-04-04T18:16:32.739Z</time></trkpt><trkpt lat="44.7189204" lon="10.2069847"><ele>206.66666666666669</ele><time>2026-04-04T18:16:33.729Z</time></trkpt><trkpt lat="44.7187711" lon="10.206986"><ele>210.0</ele><time>2026-04-04T18:16:34.747Z</time></trkpt><trkpt lat="44.7186639" lon="10.2070195"><ele>210.0</ele><time>2026-04-04T18:16:35.734Z</time></trkpt><trkpt lat="44.7185795" lon="10.2071155"><ele>210.0</ele><time>2026-04-04T18:16:36.748Z</time></trkpt><trkpt lat="44.7185577" lon="10.207268"><ele>210.0</ele><time>2026-04-04T18:16:37.738Z</time></trkpt><trkpt lat="44.7185747" lon="10.2073977"><ele>210.0</ele><time>2026-04-04T18:16:38.744Z</time></trkpt><trkpt lat="44.7186066" lon="10.2075387"><ele>210.0</ele><time>2026-04-04T18:16:39.748Z</time></trkpt><trkpt lat="44.7186246" lon="10.2076739"><ele>208.75</ele><time>2026-04-04T18:16:40.749Z</time></trkpt><trkpt lat="44.7186374" lon="10.2078192"><ele>207.5</ele><time>2026-04-04T18:16:41.749Z</time></trkpt><trkpt lat="44.7186224" lon="10.2079837"><ele>206.25</ele><time>2026-04-04T18:16:42.748Z</time></trkpt><trkpt lat="44.7186084" lon="10.2081676"><ele>205.0</ele><time>2026-04-04T18:16:43.75Z</time></trkpt><trkpt lat="44.7186024" lon="10.2084015"><ele>204.66666666666666</ele><time>2026-04-04T18:16:44.741Z</time></trkpt><trkpt lat="44.7186156" lon="10.2087124"><ele>204.33333333333331</ele><time>2026-04-04T18:16:45.761Z</time></trkpt><trkpt lat="44.7186277" lon="10.2089889"><ele>204.0</ele><time>2026-04-04T18:16:46.75Z</time></trkpt><trkpt lat="44.7186379" lon="10.2092479"><ele>204.0</ele><time>2026-04-04T18:16:47.757Z</time></trkpt><trkpt lat="44.7186464" lon="10.2095073"><ele>204.0</ele><time>2026-04-04T18:16:48.75Z</time></trkpt><trkpt lat="44.7186422" lon="10.209775"><ele>204.0</ele><time>2026-04-04T18:16:49.754Z</time></trkpt><trkpt lat="44.7186308" lon="10.2100587"><ele>202.5</ele><time>2026-04-04T18:16:50.746Z</time></trkpt><trkpt lat="44.7186139" lon="10.2103636"><ele>201.0</ele><time>2026-04-04T18:16:51.748Z</time></trkpt><trkpt lat="44.7185702" lon="10.2106863"><ele>200.0</ele><time>2026-04-04T18:16:52.751Z</time></trkpt><trkpt lat="44.7185283" lon="10.2110158"><ele>199.0</ele><time>2026-04-04T18:16:53.751Z</time></trkpt><trkpt lat="44.7184844" lon="10.2113575"><ele>199.5</ele><time>2026-04-04T18:16:54.745Z</time></trkpt><trkpt lat="44.7184469" lon="10.2116991"><ele>200.0</ele><time>2026-04-04T18:16:55.743Z</time></trkpt><trkpt lat="44.7184103" lon="10.2120307"><ele>198.5</ele><time>2026-04-04T18:16:56.744Z</time></trkpt><trkpt lat="44.7183734" lon="10.2123628"><ele>197.0</ele><time>2026-04-04T18:16:57.751Z</time></trkpt><trkpt lat="44.7183399" lon="10.2126694"><ele>197.0</ele><time>2026-04-04T18:16:58.74Z</time></trkpt><trkpt lat="44.718313" lon="10.2129133"><ele>197.0</ele><time>2026-04-04T18:16:59.749Z</time></trkpt><trkpt lat="44.7182994" lon="10.2130827"><ele>197.0</ele><time>2026-04-04T18:17:00.761Z</time></trkpt><trkpt lat="44.7182856" lon="10.2132563"><ele>197.0</ele><time>2026-04-04T18:17:01.747Z</time></trkpt><trkpt lat="44.7182696" lon="10.2134362"><ele>196.0</ele><time>2026-04-04T18:17:02.75Z</time></trkpt><trkpt lat="44.7182585" lon="10.2136356"><ele>195.0</ele><time>2026-04-04T18:17:03.753Z</time></trkpt><trkpt lat="44.7182375" lon="10.2138251"><ele>194.0</ele><time>2026-04-04T18:17:04.757Z</time></trkpt><trkpt lat="44.718214" lon="10.214036"><ele>193.0</ele><time>2026-04-04T18:17:05.759Z</time></trkpt><trkpt lat="44.718185" lon="10.2142385"><ele>192.60000000000002</ele><time>2026-04-04T18:17:06.74Z</time></trkpt><trkpt lat="44.7181641" lon="10.2144235"><ele>192.20000000000002</ele><time>2026-04-04T18:17:07.746Z</time></trkpt><trkpt lat="44.7181543" lon="10.2145587"><ele>191.8</ele><time>2026-04-04T18:17:08.746Z</time></trkpt><trkpt lat="44.7181322" lon="10.2146685"><ele>191.4</ele><time>2026-04-04T18:17:09.751Z</time></trkpt><trkpt lat="44.7180836" lon="10.214762"><ele>191.0</ele><time>2026-04-04T18:17:10.745Z</time></trkpt><trkpt lat="44.7180035" lon="10.2148298"><ele>190.25</ele><time>2026-04-04T18:17:11.753Z</time></trkpt><trkpt lat="44.7178957" lon="10.2148585"><ele>189.5</ele><time>2026-04-04T18:17:12.74Z</time></trkpt><trkpt lat="44.7177583" lon="10.2148602"><ele>188.75</ele><time>2026-04-04T18:17:13.732Z</time></trkpt><trkpt lat="44.7176072" lon="10.2148748"><ele>188.0</ele><time>2026-04-04T18:17:14.734Z</time></trkpt><trkpt lat="44.7174404" lon="10.2148947"><ele>187.66666666666666</ele><time>2026-04-04T18:17:15.728Z</time></trkpt><trkpt lat="44.7172322" lon="10.2149033"><ele>187.33333333333334</ele><time>2026-04-04T18:17:16.729Z</time></trkpt><trkpt lat="44.7170709" lon="10.2148859"><ele>187.0</ele><time>2026-04-04T18:17:17.733Z</time></trkpt><trkpt lat="44.7169354" lon="10.2149015"><ele>183.66666666666669</ele><time>2026-04-04T18:17:18.738Z</time></trkpt><trkpt lat="44.716799" lon="10.2149857"><ele>180.33333333333334</ele><time>2026-04-04T18:17:19.736Z</time></trkpt><trkpt lat="44.7166713" lon="10.2151357"><ele>177.0</ele><time>2026-04-04T18:17:20.734Z</time></trkpt><trkpt lat="44.7165357" lon="10.2153302"><ele>177.0</ele><time>2026-04-04T18:17:21.714Z</time></trkpt><trkpt lat="44.7164075" lon="10.2155269"><ele>177.0</ele><time>2026-04-04T18:17:22.818Z</time></trkpt><trkpt lat="44.7162957" lon="10.2156871"><ele>177.0</ele><time>2026-04-04T18:17:23.74Z</time></trkpt><trkpt lat="44.716226" lon="10.2158554"><ele>175.66666666666666</ele><time>2026-04-04T18:17:24.751Z</time></trkpt><trkpt lat="44.7162046" lon="10.2160493"><ele>174.33333333333331</ele><time>2026-04-04T18:17:25.752Z</time></trkpt><trkpt lat="44.7162426" lon="10.2162579"><ele>173.0</ele><time>2026-04-04T18:17:26.748Z</time></trkpt><trkpt lat="44.7163179" lon="10.2164698"><ele>174.33333333333331</ele><time>2026-04-04T18:17:27.756Z</time></trkpt><trkpt lat="44.7163734" lon="10.2167003"><ele>175.66666666666666</ele><time>2026-04-04T18:17:28.744Z</time></trkpt><trkpt lat="44.7164212" lon="10.2169193"><ele>177.0</ele><time>2026-04-04T18:17:29.742Z</time></trkpt><trkpt lat="44.7164112" lon="10.2171118"><ele>177.0</ele><time>2026-04-04T18:17:30.751Z</time></trkpt><trkpt lat="44.7163751" lon="10.2172861"><ele>177.0</ele><time>2026-04-04T18:17:31.748Z</time></trkpt><trkpt lat="44.7163203" lon="10.2174646"><ele>177.0</ele><time>2026-04-04T18:17:32.745Z</time></trkpt><trkpt lat="44.7162585" lon="10.2176753"><ele>177.0</ele><time>2026-04-04T18:17:33.75Z</time></trkpt><trkpt lat="44.716188" lon="10.2179173"><ele>178.66666666666666</ele><time>2026-04-04T18:17:34.752Z</time></trkpt><trkpt lat="44.7161164" lon="10.2181832"><ele>180.33333333333331</ele><time>2026-04-04T18:17:35.747Z</time></trkpt><trkpt lat="44.7160406" lon="10.2184564"><ele>182.0</ele><time>2026-04-04T18:17:36.753Z</time></trkpt><trkpt lat="44.7159713" lon="10.2187138"><ele>182.33333333333331</ele><time>2026-04-04T18:17:37.761Z</time></trkpt><trkpt lat="44.7159127" lon="10.2189354"><ele>182.66666666666666</ele><time>2026-04-04T18:17:38.746Z</time></trkpt><trkpt lat="44.7158557" lon="10.2191619"><ele>183.0</ele><time>2026-04-04T18:17:39.754Z</time></trkpt><trkpt lat="44.7157935" lon="10.219398"><ele>183.0</ele><time>2026-04-04T18:17:40.757Z</time></trkpt><trkpt lat="44.7157327" lon="10.2196553"><ele>183.0</ele><time>2026-04-04T18:17:41.746Z</time></trkpt><trkpt lat="44.7156659" lon="10.2199179"><ele>183.0</ele><time>2026-04-04T18:17:42.756Z</time></trkpt><trkpt lat="44.7156044" lon="10.2201836"><ele>182.33333333333334</ele><time>2026-04-04T18:17:43.743Z</time></trkpt><trkpt lat="44.7155408" lon="10.2204407"><ele>181.66666666666669</ele><time>2026-04-04T18:17:44.748Z</time></trkpt><trkpt lat="44.7154709" lon="10.2206686"><ele>181.0</ele><time>2026-04-04T18:17:45.761Z</time></trkpt><trkpt lat="44.7154097" lon="10.2208801"><ele>180.75</ele><time>2026-04-04T18:17:46.758Z</time></trkpt><trkpt lat="44.715358" lon="10.2210791"><ele>180.5</ele><time>2026-04-04T18:17:47.751Z</time></trkpt><trkpt lat="44.715302" lon="10.2212768"><ele>180.25</ele><time>2026-04-04T18:17:48.756Z</time></trkpt><trkpt lat="44.7152527" lon="10.2214623"><ele>180.0</ele><time>2026-04-04T18:17:49.768Z</time></trkpt><trkpt lat="44.7152025" lon="10.2216417"><ele>180.0</ele><time>2026-04-04T18:17:50.754Z</time></trkpt><trkpt lat="44.7151581" lon="10.2218103"><ele>180.0</ele><time>2026-04-04T18:17:51.746Z</time></trkpt><trkpt lat="44.7151094" lon="10.221979"><ele>180.0</ele><time>2026-04-04T18:17:52.759Z</time></trkpt><trkpt lat="44.7150672" lon="10.2221414"><ele>180.0</ele><time>2026-04-04T18:17:53.761Z</time></trkpt><trkpt lat="44.7150248" lon="10.222309"><ele>179.0</ele><time>2026-04-04T18:17:54.748Z</time></trkpt><trkpt lat="44.7149819" lon="10.2224692"><ele>178.0</ele><time>2026-04-04T18:17:55.77Z</time></trkpt><trkpt lat="44.7149314" lon="10.2226272"><ele>177.0</ele><time>2026-04-04T18:17:56.749Z</time></trkpt><trkpt lat="44.7148872" lon="10.2227721"><ele>176.0</ele><time>2026-04-04T18:17:57.76Z</time></trkpt><trkpt lat="44.7148504" lon="10.2229166"><ele>176.0</ele><time>2026-04-04T18:17:58.756Z</time></trkpt><trkpt lat="44.7148178" lon="10.2230468"><ele>176.0</ele><time>2026-04-04T18:17:59.745Z</time></trkpt><trkpt lat="44.7147849" lon="10.2231734"><ele>176.0</ele><time>2026-04-04T18:18:00.772Z</time></trkpt><trkpt lat="44.7147576" lon="10.2232856"><ele>176.0</ele><time>2026-04-04T18:18:01.74Z</time></trkpt><trkpt lat="44.7147289" lon="10.2234021"><ele>176.0</ele><time>2026-04-04T18:18:02.756Z</time></trkpt><trkpt lat="44.7147019" lon="10.2235218"><ele>175.83333333333331</ele><time>2026-04-04T18:18:03.748Z</time></trkpt><trkpt lat="44.7146744" lon="10.2236418"><ele>175.66666666666666</ele><time>2026-04-04T18:18:04.752Z</time></trkpt><trkpt lat="44.7146501" lon="10.2237634"><ele>175.5</ele><time>2026-04-04T18:18:05.757Z</time></trkpt><trkpt lat="44.7146247" lon="10.2238638"><ele>175.33333333333334</ele><time>2026-04-04T18:18:06.761Z</time></trkpt><trkpt lat="44.7146493" lon="10.2239542"><ele>175.16666666666669</ele><time>2026-04-04T18:18:08.75Z</time></trkpt><trkpt lat="44.714735" lon="10.2239058"><ele>175.0</ele><time>2026-04-04T18:18:10.76Z</time></trkpt><trkpt lat="44.7148441" lon="10.2238665"><ele>175.0</ele><time>2026-04-04T18:18:12.756Z</time></trkpt><trkpt lat="44.7149073" lon="10.223879"><ele>175.0</ele><time>2026-04-04T18:18:13.759Z</time></trkpt><trkpt lat="44.7149811" lon="10.2239077"><ele>175.0</ele><time>2026-04-04T18:18:14.759Z</time></trkpt><trkpt lat="44.71506" lon="10.2239292"><ele>175.0</ele><time>2026-04-04T18:18:15.756Z</time></trkpt><trkpt lat="44.7151395" lon="10.223952"><ele>175.0</ele><time>2026-04-04T18:18:16.761Z</time></trkpt><trkpt lat="44.715214" lon="10.2239707"><ele>175.0</ele><time>2026-04-04T18:18:17.762Z</time></trkpt><trkpt lat="44.7152876" lon="10.2239901"><ele>174.14285714285714</ele><time>2026-04-04T18:18:18.757Z</time></trkpt><trkpt lat="44.7153572" lon="10.2240064"><ele>173.28571428571428</ele><time>2026-04-04T18:18:19.761Z</time></trkpt><trkpt lat="44.7154277" lon="10.2240289"><ele>172.42857142857144</ele><time>2026-04-04T18:18:20.757Z</time></trkpt><trkpt lat="44.715504" lon="10.2240516"><ele>171.57142857142856</ele><time>2026-04-04T18:18:21.758Z</time></trkpt><trkpt lat="44.7155804" lon="10.2240693"><ele>170.71428571428572</ele><time>2026-04-04T18:18:22.765Z</time></trkpt><trkpt lat="44.7156535" lon="10.2240858"><ele>169.85714285714286</ele><time>2026-04-04T18:18:23.759Z</time></trkpt><trkpt lat="44.7157244" lon="10.224102"><ele>169.0</ele><time>2026-04-04T18:18:24.753Z</time></trkpt><trkpt lat="44.7157971" lon="10.2241241"><ele>169.0</ele><time>2026-04-04T18:18:25.756Z</time></trkpt><trkpt lat="44.7158676" lon="10.2241437"><ele>169.0</ele><time>2026-04-04T18:18:26.749Z</time></trkpt><trkpt lat="44.7159363" lon="10.2241624"><ele>169.0</ele><time>2026-04-04T18:18:27.76Z</time></trkpt><trkpt lat="44.7160017" lon="10.2241779"><ele>169.0</ele><time>2026-04-04T18:18:28.763Z</time></trkpt><trkpt lat="44.716104" lon="10.2242183"><ele>169.0</ele><time>2026-04-04T18:18:30.772Z</time></trkpt><trkpt lat="44.7160608" lon="10.2241246"><ele>169.0</ele><time>2026-04-04T18:18:35.751Z</time></trkpt><trkpt lat="44.7159998" lon="10.2240991"><ele>169.0</ele><time>2026-04-04T18:18:36.754Z</time></trkpt><trkpt lat="44.7159074" lon="10.2240844"><ele>169.0</ele><time>2026-04-04T18:18:38.758Z</time></trkpt><trkpt lat="44.7158445" lon="10.2240675"><ele>169.0</ele><time>2026-04-04T18:18:40.752Z</time></trkpt><trkpt lat="44.7157769" lon="10.2240351"><ele>169.0</ele><time>2026-04-04T18:19:16.749Z</time></trkpt><trkpt lat="44.7158159" lon="10.2241371"><ele>169.0</ele><time>2026-04-04T18:19:20.754Z</time></trkpt><trkpt lat="44.7159089" lon="10.2241385"><ele>169.0</ele><time>2026-04-04T18:19:27.765Z</time></trkpt><trkpt lat="44.7159854" lon="10.2241379"><ele>167.66666666666669</ele><time>2026-04-04T18:19:28.756Z</time></trkpt><trkpt lat="44.7161099" lon="10.2241724"><ele>166.33333333333334</ele><time>2026-04-04T18:19:29.746Z</time></trkpt><trkpt lat="44.7162609" lon="10.2242189"><ele>165.0</ele><time>2026-04-04T18:19:30.759Z</time></trkpt><trkpt lat="44.7164271" lon="10.2242685"><ele>165.0</ele><time>2026-04-04T18:19:31.741Z</time></trkpt><trkpt lat="44.716568" lon="10.2243154"><ele>165.0</ele><time>2026-04-04T18:19:32.745Z</time></trkpt><trkpt lat="44.7166773" lon="10.2243423"><ele>165.0</ele><time>2026-04-04T18:19:33.742Z</time></trkpt><trkpt lat="44.7167698" lon="10.224361"><ele>165.0</ele><time>2026-04-04T18:19:34.755Z</time></trkpt><trkpt lat="44.7168393" lon="10.2243786"><ele>165.0</ele><time>2026-04-04T18:19:35.756Z</time></trkpt><trkpt lat="44.7169289" lon="10.2244657"><ele>164.6</ele><time>2026-04-04T18:19:37.753Z</time></trkpt><trkpt lat="44.7169208" lon="10.2246545"><ele>164.2</ele><time>2026-04-04T18:19:39.752Z</time></trkpt><trkpt lat="44.7169138" lon="10.2247618"><ele>163.8</ele><time>2026-04-04T18:19:40.756Z</time></trkpt><trkpt lat="44.7168969" lon="10.2248728"><ele>163.4</ele><time>2026-04-04T18:19:41.752Z</time></trkpt><trkpt lat="44.7168722" lon="10.2249744"><ele>163.0</ele><time>2026-04-04T18:19:42.755Z</time></trkpt><trkpt lat="44.7168288" lon="10.2251245"><ele>163.0</ele><time>2026-04-04T18:19:44.752Z</time></trkpt><trkpt lat="44.7167963" lon="10.2252529"><ele>163.0</ele><time>2026-04-04T18:19:46.755Z</time></trkpt><trkpt lat="44.7167717" lon="10.2253698"><ele>163.0</ele><time>2026-04-04T18:19:48.753Z</time></trkpt><trkpt lat="44.7167546" lon="10.2254734"><ele>163.0</ele><time>2026-04-04T18:19:50.76Z</time></trkpt><trkpt lat="44.7167368" lon="10.2255609"><ele>163.0</ele><time>2026-04-04T18:19:52.764Z</time></trkpt><trkpt lat="44.7167041" lon="10.2256462"><ele>163.0</ele><time>2026-04-04T18:19:54.761Z</time></trkpt><trkpt lat="44.7166454" lon="10.2257347"><ele>163.66666666666669</ele><time>2026-04-04T18:19:57.756Z</time></trkpt><trkpt lat="44.7165913" lon="10.225861"><ele>164.33333333333334</ele><time>2026-04-04T18:19:59.753Z</time></trkpt><trkpt lat="44.716583" lon="10.2259517"><ele>165.0</ele><time>2026-04-04T18:20:00.77Z</time></trkpt><trkpt lat="44.7165939" lon="10.2260577"><ele>165.66666666666666</ele><time>2026-04-04T18:20:01.753Z</time></trkpt><trkpt lat="44.7166122" lon="10.2261669"><ele>166.33333333333331</ele><time>2026-04-04T18:20:02.748Z</time></trkpt><trkpt lat="44.7166278" lon="10.2262922"><ele>167.0</ele><time>2026-04-04T18:20:03.761Z</time></trkpt><trkpt lat="44.7166248" lon="10.226422"><ele>167.2</ele><time>2026-04-04T18:20:04.751Z</time></trkpt><trkpt lat="44.7166078" lon="10.2265541"><ele>167.39999999999998</ele><time>2026-04-04T18:20:05.751Z</time></trkpt><trkpt lat="44.7165823" lon="10.2266933"><ele>167.60000000000002</ele><time>2026-04-04T18:20:06.754Z</time></trkpt><trkpt lat="44.7165526" lon="10.226834"><ele>167.8</ele><time>2026-04-04T18:20:07.751Z</time></trkpt><trkpt lat="44.7165273" lon="10.2269826"><ele>168.0</ele><time>2026-04-04T18:20:08.753Z</time></trkpt><trkpt lat="44.7164983" lon="10.2271288"><ele>168.0</ele><time>2026-04-04T18:20:09.761Z</time></trkpt><trkpt lat="44.7164746" lon="10.2272798"><ele>168.0</ele><time>2026-04-04T18:20:10.749Z</time></trkpt><trkpt lat="44.716449" lon="10.2274238"><ele>168.0</ele><time>2026-04-04T18:20:11.761Z</time></trkpt><trkpt lat="44.7164226" lon="10.2275541"><ele>168.0</ele><time>2026-04-04T18:20:12.735Z</time></trkpt><trkpt lat="44.7163996" lon="10.2276817"><ele>168.0</ele><time>2026-04-04T18:20:13.758Z</time></trkpt><trkpt lat="44.7163808" lon="10.2278136"><ele>168.33333333333334</ele><time>2026-04-04T18:20:14.759Z</time></trkpt><trkpt lat="44.7163586" lon="10.227944"><ele>168.66666666666666</ele><time>2026-04-04T18:20:15.749Z</time></trkpt><trkpt lat="44.7163369" lon="10.228064"><ele>169.0</ele><time>2026-04-04T18:20:16.751Z</time></trkpt><trkpt lat="44.7163135" lon="10.2281632"><ele>169.33333333333331</ele><time>2026-04-04T18:20:17.746Z</time></trkpt><trkpt lat="44.7162786" lon="10.2282431"><ele>169.66666666666666</ele><time>2026-04-04T18:20:18.755Z</time></trkpt><trkpt lat="44.7162275" lon="10.2284035"><ele>170.0</ele><time>2026-04-04T18:20:20.745Z</time></trkpt><trkpt lat="44.7162351" lon="10.2285063"><ele>170.33333333333331</ele><time>2026-04-04T18:20:21.748Z</time></trkpt><trkpt lat="44.7162387" lon="10.2286154"><ele>170.66666666666666</ele><time>2026-04-04T18:20:22.763Z</time></trkpt><trkpt lat="44.7162328" lon="10.2287198"><ele>171.0</ele><time>2026-04-04T18:20:23.759Z</time></trkpt><trkpt lat="44.7162241" lon="10.2288257"><ele>171.33333333333334</ele><time>2026-04-04T18:20:24.757Z</time></trkpt><trkpt lat="44.7162112" lon="10.2289347"><ele>171.66666666666669</ele><time>2026-04-04T18:20:25.759Z</time></trkpt><trkpt lat="44.7161938" lon="10.2290504"><ele>172.0</ele><time>2026-04-04T18:20:26.751Z</time></trkpt><trkpt lat="44.7161706" lon="10.2291827"><ele>172.2</ele><time>2026-04-04T18:20:27.741Z</time></trkpt><trkpt lat="44.7161488" lon="10.2293259"><ele>172.39999999999998</ele><time>2026-04-04T18:20:28.76Z</time></trkpt><trkpt lat="44.7161263" lon="10.2294706"><ele>172.60000000000002</ele><time>2026-04-04T18:20:29.758Z</time></trkpt><trkpt lat="44.7161025" lon="10.2296136"><ele>172.8</ele><time>2026-04-04T18:20:30.769Z</time></trkpt><trkpt lat="44.7160795" lon="10.2297565"><ele>173.0</ele><time>2026-04-04T18:20:31.757Z</time></trkpt><trkpt lat="44.7160586" lon="10.2298952"><ele>171.83333333333331</ele><time>2026-04-04T18:20:32.756Z</time></trkpt><trkpt lat="44.7160371" lon="10.2300247"><ele>170.66666666666666</ele><time>2026-04-04T18:20:33.763Z</time></trkpt><trkpt lat="44.7160205" lon="10.2301522"><ele>169.5</ele><time>2026-04-04T18:20:34.753Z</time></trkpt><trkpt lat="44.7160082" lon="10.2302704"><ele>168.33333333333334</ele><time>2026-04-04T18:20:35.75Z</time></trkpt><trkpt lat="44.7159937" lon="10.2303821"><ele>167.16666666666669</ele><time>2026-04-04T18:20:36.748Z</time></trkpt><trkpt lat="44.7159767" lon="10.2304854"><ele>166.0</ele><time>2026-04-04T18:20:37.752Z</time></trkpt><trkpt lat="44.7159613" lon="10.2305952"><ele>165.83333333333334</ele><time>2026-04-04T18:20:38.743Z</time></trkpt><trkpt lat="44.7159483" lon="10.2307095"><ele>165.66666666666669</ele><time>2026-04-04T18:20:39.752Z</time></trkpt><trkpt lat="44.7159293" lon="10.2308176"><ele>165.5</ele><time>2026-04-04T18:20:40.745Z</time></trkpt><trkpt lat="44.7159131" lon="10.2309165"><ele>165.33333333333334</ele><time>2026-04-04T18:20:41.75Z</time></trkpt><trkpt lat="44.7158988" lon="10.2310173"><ele>165.16666666666666</ele><time>2026-04-04T18:20:42.749Z</time></trkpt><trkpt lat="44.7158828" lon="10.2311072"><ele>165.0</ele><time>2026-04-04T18:20:43.746Z</time></trkpt><trkpt lat="44.7158538" lon="10.231263"><ele>165.0</ele><time>2026-04-04T18:20:45.746Z</time></trkpt><trkpt lat="44.7158354" lon="10.2314027"><ele>165.0</ele><time>2026-04-04T18:20:47.753Z</time></trkpt><trkpt lat="44.7158113" lon="10.2315005"><ele>165.0</ele><time>2026-04-04T18:20:49.757Z</time></trkpt><trkpt lat="44.7157952" lon="10.2315918"><ele>165.0</ele><time>2026-04-04T18:20:56.764Z</time></trkpt><trkpt lat="44.7157167" lon="10.2316639"><ele>165.0</ele><time>2026-04-04T18:21:22.762Z</time></trkpt><trkpt lat="44.7156487" lon="10.2316555"><ele>165.0</ele><time>2026-04-04T18:21:23.753Z</time></trkpt><trkpt lat="44.7155708" lon="10.2316337"><ele>164.6</ele><time>2026-04-04T18:21:24.758Z</time></trkpt><trkpt lat="44.7154819" lon="10.2316087"><ele>164.2</ele><time>2026-04-04T18:21:25.738Z</time></trkpt><trkpt lat="44.7153822" lon="10.2315832"><ele>163.8</ele><time>2026-04-04T18:21:26.75Z</time></trkpt><trkpt lat="44.7152833" lon="10.2315564"><ele>163.4</ele><time>2026-04-04T18:21:27.746Z</time></trkpt><trkpt lat="44.7151812" lon="10.2315233"><ele>163.0</ele><time>2026-04-04T18:21:28.733Z</time></trkpt><trkpt lat="44.7150785" lon="10.2314961"><ele>163.0</ele><time>2026-04-04T18:21:29.739Z</time></trkpt><trkpt lat="44.7149773" lon="10.2314732"><ele>163.0</ele><time>2026-04-04T18:21:30.766Z</time></trkpt><trkpt lat="44.7148779" lon="10.2314442"><ele>163.0</ele><time>2026-04-04T18:21:31.752Z</time></trkpt><trkpt lat="44.7147819" lon="10.2314133"><ele>163.0</ele><time>2026-04-04T18:21:32.752Z</time></trkpt><trkpt lat="44.7146853" lon="10.2313824"><ele>163.0</ele><time>2026-04-04T18:21:33.761Z</time></trkpt><trkpt lat="44.7145895" lon="10.2313462"><ele>163.0</ele><time>2026-04-04T18:21:34.747Z</time></trkpt><trkpt lat="44.7144928" lon="10.231309"><ele>163.0</ele><time>2026-04-04T18:21:35.755Z</time></trkpt><trkpt lat="44.7143916" lon="10.2312715"><ele>163.0</ele><time>2026-04-04T18:21:36.749Z</time></trkpt><trkpt lat="44.7142833" lon="10.2312311"><ele>163.0</ele><time>2026-04-04T18:21:37.746Z</time></trkpt><trkpt lat="44.7141717" lon="10.2311921"><ele>163.0</ele><time>2026-04-04T18:21:38.749Z</time></trkpt><trkpt lat="44.7140484" lon="10.2311628"><ele>163.75</ele><time>2026-04-04T18:21:39.745Z</time></trkpt><trkpt lat="44.7139189" lon="10.2311582"><ele>164.5</ele><time>2026-04-04T18:21:40.756Z</time></trkpt><trkpt lat="44.7137896" lon="10.2311877"><ele>165.25</ele><time>2026-04-04T18:21:41.743Z</time></trkpt><trkpt lat="44.7136658" lon="10.2312347"><ele>166.0</ele><time>2026-04-04T18:21:42.753Z</time></trkpt><trkpt lat="44.713543" lon="10.2312805"><ele>166.5</ele><time>2026-04-04T18:21:43.745Z</time></trkpt><trkpt lat="44.7134241" lon="10.2313317"><ele>167.0</ele><time>2026-04-04T18:21:44.757Z</time></trkpt><trkpt lat="44.713305" lon="10.2313786"><ele>167.5</ele><time>2026-04-04T18:21:45.748Z</time></trkpt><trkpt lat="44.7131836" lon="10.2314247"><ele>168.0</ele><time>2026-04-04T18:21:46.758Z</time></trkpt><trkpt lat="44.7130639" lon="10.2314703"><ele>168.0</ele><time>2026-04-04T18:21:47.755Z</time></trkpt><trkpt lat="44.7129436" lon="10.2315214"><ele>168.0</ele><time>2026-04-04T18:21:48.745Z</time></trkpt><trkpt lat="44.7128282" lon="10.2315717"><ele>168.0</ele><time>2026-04-04T18:21:49.761Z</time></trkpt><trkpt lat="44.7127149" lon="10.2316271"><ele>168.0</ele><time>2026-04-04T18:21:50.746Z</time></trkpt><trkpt lat="44.7126017" lon="10.2316845"><ele>167.5</ele><time>2026-04-04T18:21:51.748Z</time></trkpt><trkpt lat="44.712495" lon="10.2317497"><ele>167.0</ele><time>2026-04-04T18:21:52.747Z</time></trkpt><trkpt lat="44.7123963" lon="10.2318282"><ele>166.5</ele><time>2026-04-04T18:21:53.743Z</time></trkpt><trkpt lat="44.7123168" lon="10.2319446"><ele>166.0</ele><time>2026-04-04T18:21:54.756Z</time></trkpt><trkpt lat="44.7122442" lon="10.2320851"><ele>166.0</ele><time>2026-04-04T18:21:55.749Z</time></trkpt><trkpt lat="44.7121759" lon="10.2322372"><ele>166.0</ele><time>2026-04-04T18:21:56.74Z</time></trkpt><trkpt lat="44.7121095" lon="10.2324035"><ele>166.0</ele><time>2026-04-04T18:21:57.76Z</time></trkpt><trkpt lat="44.7120355" lon="10.2325956"><ele>166.0</ele><time>2026-04-04T18:21:58.755Z</time></trkpt><trkpt lat="44.7119583" lon="10.232794"><ele>166.25</ele><time>2026-04-04T18:21:59.75Z</time></trkpt><trkpt lat="44.7118839" lon="10.2329549"><ele>166.5</ele><time>2026-04-04T18:22:00.763Z</time></trkpt><trkpt lat="44.7118292" lon="10.2330946"><ele>166.75</ele><time>2026-04-04T18:22:01.754Z</time></trkpt><trkpt lat="44.7117744" lon="10.2332265"><ele>167.0</ele><time>2026-04-04T18:22:02.755Z</time></trkpt><trkpt lat="44.7117107" lon="10.2333641"><ele>167.0</ele><time>2026-04-04T18:22:03.757Z</time></trkpt><trkpt lat="44.7116531" lon="10.2334979"><ele>167.0</ele><time>2026-04-04T18:22:04.764Z</time></trkpt><trkpt lat="44.7115907" lon="10.2336543"><ele>167.0</ele><time>2026-04-04T18:22:05.761Z</time></trkpt><trkpt lat="44.7115176" lon="10.2338265"><ele>167.0</ele><time>2026-04-04T18:22:06.763Z</time></trkpt><trkpt lat="44.7114337" lon="10.2340219"><ele>166.0</ele><time>2026-04-04T18:22:07.761Z</time></trkpt><trkpt lat="44.7113453" lon="10.2342275"><ele>165.0</ele><time>2026-04-04T18:22:08.753Z</time></trkpt><trkpt lat="44.7112575" lon="10.2344124"><ele>164.0</ele><time>2026-04-04T18:22:09.765Z</time></trkpt><trkpt lat="44.7111767" lon="10.2345928"><ele>164.0</ele><time>2026-04-04T18:22:10.765Z</time></trkpt><trkpt lat="44.7111026" lon="10.2347667"><ele>164.0</ele><time>2026-04-04T18:22:11.764Z</time></trkpt><trkpt lat="44.7110288" lon="10.2349335"><ele>164.0</ele><time>2026-04-04T18:22:12.764Z</time></trkpt><trkpt lat="44.7109593" lon="10.2350951"><ele>164.0</ele><time>2026-04-04T18:22:13.76Z</time></trkpt><trkpt lat="44.7108879" lon="10.2352655"><ele>164.0</ele><time>2026-04-04T18:22:14.761Z</time></trkpt><trkpt lat="44.7108145" lon="10.2354334"><ele>164.0</ele><time>2026-04-04T18:22:15.762Z</time></trkpt><trkpt lat="44.710739" lon="10.2356008"><ele>164.0</ele><time>2026-04-04T18:22:16.758Z</time></trkpt><trkpt lat="44.7106658" lon="10.235782"><ele>164.0</ele><time>2026-04-04T18:22:17.772Z</time></trkpt><trkpt lat="44.7105904" lon="10.2359592"><ele>163.66666666666666</ele><time>2026-04-04T18:22:18.759Z</time></trkpt><trkpt lat="44.7105118" lon="10.2361415"><ele>163.33333333333334</ele><time>2026-04-04T18:22:19.762Z</time></trkpt><trkpt lat="44.7104265" lon="10.2363349"><ele>163.0</ele><time>2026-04-04T18:22:20.757Z</time></trkpt><trkpt lat="44.7103206" lon="10.236565"><ele>163.0</ele><time>2026-04-04T18:22:21.765Z</time></trkpt><trkpt lat="44.7102063" lon="10.2368329"><ele>163.0</ele><time>2026-04-04T18:22:22.762Z</time></trkpt><trkpt lat="44.7101161" lon="10.2370396"><ele>163.0</ele><time>2026-04-04T18:22:23.754Z</time></trkpt><trkpt lat="44.7100407" lon="10.2372115"><ele>163.75</ele><time>2026-04-04T18:22:24.753Z</time></trkpt><trkpt lat="44.7099677" lon="10.2373908"><ele>164.5</ele><time>2026-04-04T18:22:25.759Z</time></trkpt><trkpt lat="44.7098919" lon="10.2375699"><ele>165.25</ele><time>2026-04-04T18:22:26.756Z</time></trkpt><trkpt lat="44.7098223" lon="10.237737"><ele>166.0</ele><time>2026-04-04T18:22:27.762Z</time></trkpt><trkpt lat="44.7097527" lon="10.2379109"><ele>166.0</ele><time>2026-04-04T18:22:28.761Z</time></trkpt><trkpt lat="44.7096786" lon="10.2380826"><ele>166.0</ele><time>2026-04-04T18:22:29.755Z</time></trkpt><trkpt lat="44.7096088" lon="10.2382551"><ele>166.0</ele><time>2026-04-04T18:22:30.76Z</time></trkpt><trkpt lat="44.7095392" lon="10.2384278"><ele>166.0</ele><time>2026-04-04T18:22:31.758Z</time></trkpt><trkpt lat="44.7094642" lon="10.2385956"><ele>166.60000000000002</ele><time>2026-04-04T18:22:32.759Z</time></trkpt><trkpt lat="44.7093955" lon="10.2387461"><ele>167.2</ele><time>2026-04-04T18:22:33.756Z</time></trkpt><trkpt lat="44.7093338" lon="10.2388749"><ele>167.8</ele><time>2026-04-04T18:22:34.759Z</time></trkpt><trkpt lat="44.7092783" lon="10.2389902"><ele>168.39999999999998</ele><time>2026-04-04T18:22:35.761Z</time></trkpt><trkpt lat="44.7092349" lon="10.2390789"><ele>169.0</ele><time>2026-04-04T18:22:36.76Z</time></trkpt><trkpt lat="44.7091909" lon="10.2391796"><ele>169.33333333333334</ele><time>2026-04-04T18:22:38.76Z</time></trkpt><trkpt lat="44.7091606" lon="10.2392609"><ele>169.66666666666669</ele><time>2026-04-04T18:22:41.758Z</time></trkpt><trkpt lat="44.7091172" lon="10.2393488"><ele>170.0</ele><time>2026-04-04T18:22:44.768Z</time></trkpt><trkpt lat="44.7090724" lon="10.2394466"><ele>170.33333333333334</ele><time>2026-04-04T18:22:46.752Z</time></trkpt><trkpt lat="44.7090024" lon="10.2395591"><ele>170.66666666666666</ele><time>2026-04-04T18:22:48.752Z</time></trkpt><trkpt lat="44.7089116" lon="10.2396606"><ele>171.0</ele><time>2026-04-04T18:22:50.75Z</time></trkpt><trkpt lat="44.7088523" lon="10.2397025"><ele>171.0</ele><time>2026-04-04T18:22:51.76Z</time></trkpt><trkpt lat="44.7087867" lon="10.2397283"><ele>171.0</ele><time>2026-04-04T18:22:52.772Z</time></trkpt><trkpt lat="44.7087108" lon="10.2397516"><ele>171.0</ele><time>2026-04-04T18:22:53.765Z</time></trkpt><trkpt lat="44.7086308" lon="10.2397955"><ele>171.0</ele><time>2026-04-04T18:22:54.769Z</time></trkpt><trkpt lat="44.7085619" lon="10.2398822"><ele>171.0</ele><time>2026-04-04T18:22:55.763Z</time></trkpt><trkpt lat="44.7085267" lon="10.2400076"><ele>171.0</ele><time>2026-04-04T18:22:56.765Z</time></trkpt><trkpt lat="44.7085252" lon="10.2401448"><ele>171.0</ele><time>2026-04-04T18:22:57.764Z</time></trkpt><trkpt lat="44.7085545" lon="10.2402824"><ele>171.0</ele><time>2026-04-04T18:22:58.755Z</time></trkpt><trkpt lat="44.7086067" lon="10.2404146"><ele>171.0</ele><time>2026-04-04T18:22:59.768Z</time></trkpt><trkpt lat="44.7086427" lon="10.2405451"><ele>171.0</ele><time>2026-04-04T18:23:00.769Z</time></trkpt><trkpt lat="44.7086503" lon="10.240671"><ele>171.0</ele><time>2026-04-04T18:23:01.766Z</time></trkpt><trkpt lat="44.7086252" lon="10.2408275"><ele>171.0</ele><time>2026-04-04T18:23:02.759Z</time></trkpt><trkpt lat="44.7085948" lon="10.2410092"><ele>171.0</ele><time>2026-04-04T18:23:03.766Z</time></trkpt><trkpt lat="44.708562" lon="10.2412255"><ele>171.0</ele><time>2026-04-04T18:23:04.765Z</time></trkpt><trkpt lat="44.708507" lon="10.2415602"><ele>169.0</ele><time>2026-04-04T18:23:05.766Z</time></trkpt><trkpt lat="44.7084329" lon="10.2419457"><ele>167.0</ele><time>2026-04-04T18:23:06.762Z</time></trkpt><trkpt lat="44.7083685" lon="10.2422599"><ele>166.66666666666666</ele><time>2026-04-04T18:23:07.758Z</time></trkpt><trkpt lat="44.7083147" lon="10.2425389"><ele>166.33333333333334</ele><time>2026-04-04T18:23:08.772Z</time></trkpt><trkpt lat="44.7082662" lon="10.2428054"><ele>166.0</ele><time>2026-04-04T18:23:09.764Z</time></trkpt><trkpt lat="44.7082216" lon="10.2430647"><ele>166.0</ele><time>2026-04-04T18:23:10.762Z</time></trkpt><trkpt lat="44.7081824" lon="10.2433281"><ele>166.0</ele><time>2026-04-04T18:23:11.761Z</time></trkpt><trkpt lat="44.7081622" lon="10.243598"><ele>166.0</ele><time>2026-04-04T18:23:12.763Z</time></trkpt><trkpt lat="44.7081483" lon="10.2438658"><ele>165.33333333333334</ele><time>2026-04-04T18:23:13.769Z</time></trkpt><trkpt lat="44.7081409" lon="10.2441358"><ele>164.66666666666666</ele><time>2026-04-04T18:23:14.763Z</time></trkpt><trkpt lat="44.7081375" lon="10.2444057"><ele>164.0</ele><time>2026-04-04T18:23:15.764Z</time></trkpt><trkpt lat="44.7081418" lon="10.2446747"><ele>163.5</ele><time>2026-04-04T18:23:16.763Z</time></trkpt><trkpt lat="44.7081702" lon="10.244968"><ele>163.0</ele><time>2026-04-04T18:23:17.775Z</time></trkpt><trkpt lat="44.7082211" lon="10.2453108"><ele>162.5</ele><time>2026-04-04T18:23:18.765Z</time></trkpt><trkpt lat="44.7082703" lon="10.2456806"><ele>162.0</ele><time>2026-04-04T18:23:19.765Z</time></trkpt><trkpt lat="44.7083327" lon="10.2460499"><ele>162.0</ele><time>2026-04-04T18:23:20.767Z</time></trkpt><trkpt lat="44.7084017" lon="10.24639"><ele>162.0</ele><time>2026-04-04T18:23:21.766Z</time></trkpt><trkpt lat="44.7084665" lon="10.2467072"><ele>162.0</ele><time>2026-04-04T18:23:22.765Z</time></trkpt><trkpt lat="44.7085486" lon="10.2470114"><ele>162.0</ele><time>2026-04-04T18:23:23.761Z</time></trkpt><trkpt lat="44.708638" lon="10.2472992"><ele>160.66666666666666</ele><time>2026-04-04T18:23:24.762Z</time></trkpt><trkpt lat="44.7087152" lon="10.2475579"><ele>159.33333333333331</ele><time>2026-04-04T18:23:25.763Z</time></trkpt><trkpt lat="44.7087853" lon="10.2477944"><ele>158.0</ele><time>2026-04-04T18:23:26.756Z</time></trkpt><trkpt lat="44.7088489" lon="10.2480138"><ele>158.66666666666666</ele><time>2026-04-04T18:23:27.767Z</time></trkpt><trkpt lat="44.7089144" lon="10.2482288"><ele>159.33333333333334</ele><time>2026-04-04T18:23:28.769Z</time></trkpt><trkpt lat="44.7089732" lon="10.2484468"><ele>160.0</ele><time>2026-04-04T18:23:29.762Z</time></trkpt><trkpt lat="44.7090323" lon="10.2486631"><ele>160.0</ele><time>2026-04-04T18:23:30.782Z</time></trkpt><trkpt lat="44.7090884" lon="10.2488797"><ele>160.0</ele><time>2026-04-04T18:23:31.763Z</time></trkpt><trkpt lat="44.7091449" lon="10.2491131"><ele>160.0</ele><time>2026-04-04T18:23:32.761Z</time></trkpt><trkpt lat="44.7092064" lon="10.2493809"><ele>160.5</ele><time>2026-04-04T18:23:33.759Z</time></trkpt><trkpt lat="44.7092632" lon="10.2497052"><ele>161.0</ele><time>2026-04-04T18:23:34.758Z</time></trkpt><trkpt lat="44.709299" lon="10.2500662"><ele>160.0</ele><time>2026-04-04T18:23:35.758Z</time></trkpt><trkpt lat="44.7093138" lon="10.2504503"><ele>159.0</ele><time>2026-04-04T18:23:36.765Z</time></trkpt><trkpt lat="44.7093162" lon="10.2508636"><ele>157.5</ele><time>2026-04-04T18:23:37.759Z</time></trkpt><trkpt lat="44.7093076" lon="10.2512738"><ele>156.0</ele><time>2026-04-04T18:23:38.765Z</time></trkpt><trkpt lat="44.7092827" lon="10.2516694"><ele>156.0</ele><time>2026-04-04T18:23:39.769Z</time></trkpt><trkpt lat="44.7092442" lon="10.2520699"><ele>156.0</ele><time>2026-04-04T18:23:40.76Z</time></trkpt><trkpt lat="44.7091871" lon="10.2524617"><ele>157.0</ele><time>2026-04-04T18:23:41.761Z</time></trkpt><trkpt lat="44.7091103" lon="10.25284"><ele>158.0</ele><time>2026-04-04T18:23:42.762Z</time></trkpt><trkpt lat="44.7090126" lon="10.2532126"><ele>158.0</ele><time>2026-04-04T18:23:43.762Z</time></trkpt><trkpt lat="44.7089075" lon="10.2535882"><ele>158.0</ele><time>2026-04-04T18:23:44.762Z</time></trkpt><trkpt lat="44.7087959" lon="10.2539643"><ele>158.0</ele><time>2026-04-04T18:23:45.765Z</time></trkpt><trkpt lat="44.708684" lon="10.2543425"><ele>158.0</ele><time>2026-04-04T18:23:46.763Z</time></trkpt><trkpt lat="44.7085716" lon="10.2547214"><ele>158.0</ele><time>2026-04-04T18:23:47.77Z</time></trkpt><trkpt lat="44.708462" lon="10.2550953"><ele>158.0</ele><time>2026-04-04T18:23:48.765Z</time></trkpt><trkpt lat="44.7083558" lon="10.2554551"><ele>157.0</ele><time>2026-04-04T18:23:49.767Z</time></trkpt><trkpt lat="44.7082574" lon="10.2558086"><ele>156.0</ele><time>2026-04-04T18:23:50.763Z</time></trkpt><trkpt lat="44.7081614" lon="10.2561593"><ele>154.5</ele><time>2026-04-04T18:23:51.758Z</time></trkpt><trkpt lat="44.7080668" lon="10.2564884"><ele>153.0</ele><time>2026-04-04T18:23:52.767Z</time></trkpt><trkpt lat="44.7079739" lon="10.2568089"><ele>153.0</ele><time>2026-04-04T18:23:53.764Z</time></trkpt><trkpt lat="44.7078855" lon="10.2571288"><ele>153.0</ele><time>2026-04-04T18:23:54.765Z</time></trkpt><trkpt lat="44.7078005" lon="10.257435"><ele>153.0</ele><time>2026-04-04T18:23:55.763Z</time></trkpt><trkpt lat="44.7077145" lon="10.2577342"><ele>153.0</ele><time>2026-04-04T18:23:56.766Z</time></trkpt><trkpt lat="44.7076358" lon="10.2580215"><ele>153.0</ele><time>2026-04-04T18:23:57.772Z</time></trkpt><trkpt lat="44.7075555" lon="10.2582895"><ele>153.33333333333334</ele><time>2026-04-04T18:23:58.76Z</time></trkpt><trkpt lat="44.707484" lon="10.2585287"><ele>153.66666666666669</ele><time>2026-04-04T18:23:59.755Z</time></trkpt><trkpt lat="44.707421" lon="10.2587418"><ele>154.0</ele><time>2026-04-04T18:24:00.764Z</time></trkpt><trkpt lat="44.7073668" lon="10.2589237"><ele>154.2</ele><time>2026-04-04T18:24:01.764Z</time></trkpt><trkpt lat="44.7073079" lon="10.25907"><ele>154.4</ele><time>2026-04-04T18:24:02.762Z</time></trkpt><trkpt lat="44.7072324" lon="10.2591611"><ele>154.6</ele><time>2026-04-04T18:24:03.765Z</time></trkpt><trkpt lat="44.7071642" lon="10.2592167"><ele>154.8</ele><time>2026-04-04T18:24:04.758Z</time></trkpt><trkpt lat="44.707091" lon="10.2592695"><ele>155.0</ele><time>2026-04-04T18:24:05.76Z</time></trkpt><trkpt lat="44.7070263" lon="10.259362"><ele>155.0</ele><time>2026-04-04T18:24:06.758Z</time></trkpt><trkpt lat="44.7069888" lon="10.2594961"><ele>155.0</ele><time>2026-04-04T18:24:07.756Z</time></trkpt><trkpt lat="44.7069598" lon="10.2596378"><ele>155.0</ele><time>2026-04-04T18:24:08.764Z</time></trkpt><trkpt lat="44.7069246" lon="10.2597837"><ele>155.0</ele><time>2026-04-04T18:24:09.762Z</time></trkpt><trkpt lat="44.7068673" lon="10.2599235"><ele>155.0</ele><time>2026-04-04T18:24:10.762Z</time></trkpt><trkpt lat="44.7067861" lon="10.2600618"><ele>154.25</ele><time>2026-04-04T18:24:11.765Z</time></trkpt><trkpt lat="44.7066796" lon="10.2601933"><ele>153.5</ele><time>2026-04-04T18:24:12.763Z</time></trkpt><trkpt lat="44.7065698" lon="10.2603215"><ele>152.75</ele><time>2026-04-04T18:24:13.763Z</time></trkpt><trkpt lat="44.706452" lon="10.2604525"><ele>152.0</ele><time>2026-04-04T18:24:14.764Z</time></trkpt><trkpt lat="44.7063125" lon="10.2605721"><ele>152.0</ele><time>2026-04-04T18:24:15.768Z</time></trkpt><trkpt lat="44.7061702" lon="10.2606794"><ele>152.0</ele><time>2026-04-04T18:24:16.762Z</time></trkpt><trkpt lat="44.7060306" lon="10.2607803"><ele>152.0</ele><time>2026-04-04T18:24:17.768Z</time></trkpt><trkpt lat="44.7058826" lon="10.26087"><ele>153.0</ele><time>2026-04-04T18:24:18.758Z</time></trkpt><trkpt lat="44.7057281" lon="10.2609463"><ele>154.0</ele><time>2026-04-04T18:24:19.768Z</time></trkpt><trkpt lat="44.7055759" lon="10.2610007"><ele>155.0</ele><time>2026-04-04T18:24:20.762Z</time></trkpt><trkpt lat="44.7054132" lon="10.2610496"><ele>155.0</ele><time>2026-04-04T18:24:21.764Z</time></trkpt><trkpt lat="44.7052517" lon="10.2610833"><ele>155.0</ele><time>2026-04-04T18:24:22.769Z</time></trkpt><trkpt lat="44.7050923" lon="10.2610954"><ele>155.0</ele><time>2026-04-04T18:24:23.758Z</time></trkpt><trkpt lat="44.704909" lon="10.2610968"><ele>155.66666666666666</ele><time>2026-04-04T18:24:24.759Z</time></trkpt><trkpt lat="44.7046983" lon="10.2610637"><ele>156.33333333333334</ele><time>2026-04-04T18:24:25.761Z</time></trkpt><trkpt lat="44.7044785" lon="10.2610059"><ele>157.0</ele><time>2026-04-04T18:24:26.755Z</time></trkpt><trkpt lat="44.7042581" lon="10.2609131"><ele>157.5</ele><time>2026-04-04T18:24:27.758Z</time></trkpt><trkpt lat="44.7040357" lon="10.2608007"><ele>158.0</ele><time>2026-04-04T18:24:28.763Z</time></trkpt><trkpt lat="44.7038168" lon="10.2606793"><ele>158.0</ele><time>2026-04-04T18:24:29.764Z</time></trkpt><trkpt lat="44.7036037" lon="10.2605392"><ele>158.0</ele><time>2026-04-04T18:24:30.779Z</time></trkpt><trkpt lat="44.7033813" lon="10.260397"><ele>158.5</ele><time>2026-04-04T18:24:31.757Z</time></trkpt><trkpt lat="44.7031561" lon="10.2602394"><ele>159.0</ele><time>2026-04-04T18:24:32.771Z</time></trkpt><trkpt lat="44.7029365" lon="10.2600786"><ele>159.0</ele><time>2026-04-04T18:24:33.765Z</time></trkpt><trkpt lat="44.7027234" lon="10.2599308"><ele>159.0</ele><time>2026-04-04T18:24:34.762Z</time></trkpt><trkpt lat="44.7025137" lon="10.2598139"><ele>159.0</ele><time>2026-04-04T18:24:35.756Z</time></trkpt><trkpt lat="44.7023153" lon="10.2597064"><ele>159.0</ele><time>2026-04-04T18:24:36.756Z</time></trkpt><trkpt lat="44.7021367" lon="10.2596048"><ele>159.0</ele><time>2026-04-04T18:24:37.756Z</time></trkpt><trkpt lat="44.7019741" lon="10.2595075"><ele>159.33333333333334</ele><time>2026-04-04T18:24:38.759Z</time></trkpt><trkpt lat="44.7018153" lon="10.2594162"><ele>159.66666666666669</ele><time>2026-04-04T18:24:39.757Z</time></trkpt><trkpt lat="44.7016517" lon="10.2593201"><ele>160.0</ele><time>2026-04-04T18:24:40.756Z</time></trkpt><trkpt lat="44.7014615" lon="10.2592328"><ele>160.0</ele><time>2026-04-04T18:24:41.763Z</time></trkpt><trkpt lat="44.7012345" lon="10.2591197"><ele>160.0</ele><time>2026-04-04T18:24:42.754Z</time></trkpt><trkpt lat="44.7010009" lon="10.2589728"><ele>160.0</ele><time>2026-04-04T18:24:43.764Z</time></trkpt><trkpt lat="44.7007534" lon="10.2588383"><ele>160.0</ele><time>2026-04-04T18:24:44.753Z</time></trkpt><trkpt lat="44.7004891" lon="10.2587187"><ele>161.5</ele><time>2026-04-04T18:24:45.757Z</time></trkpt><trkpt lat="44.7002164" lon="10.2586014"><ele>163.0</ele><time>2026-04-04T18:24:46.756Z</time></trkpt><trkpt lat="44.6999312" lon="10.258486"><ele>163.0</ele><time>2026-04-04T18:24:47.758Z</time></trkpt><trkpt lat="44.6996368" lon="10.2583903"><ele>163.0</ele><time>2026-04-04T18:24:48.756Z</time></trkpt><trkpt lat="44.6993494" lon="10.2582936"><ele>164.5</ele><time>2026-04-04T18:24:49.758Z</time></trkpt><trkpt lat="44.6990908" lon="10.2582154"><ele>166.0</ele><time>2026-04-04T18:24:50.763Z</time></trkpt><trkpt lat="44.6988527" lon="10.2581437"><ele>166.66666666666669</ele><time>2026-04-04T18:24:51.778Z</time></trkpt><trkpt lat="44.6986264" lon="10.2580741"><ele>167.33333333333334</ele><time>2026-04-04T18:24:52.779Z</time></trkpt><trkpt lat="44.6984148" lon="10.258008"><ele>168.0</ele><time>2026-04-04T18:24:53.774Z</time></trkpt><trkpt lat="44.6982137" lon="10.2579431"><ele>168.0</ele><time>2026-04-04T18:24:54.769Z</time></trkpt><trkpt lat="44.698033" lon="10.257883"><ele>168.0</ele><time>2026-04-04T18:24:55.768Z</time></trkpt><trkpt lat="44.6978757" lon="10.2578043"><ele>168.0</ele><time>2026-04-04T18:24:56.76Z</time></trkpt><trkpt lat="44.6977462" lon="10.2576954"><ele>168.25</ele><time>2026-04-04T18:24:57.77Z</time></trkpt><trkpt lat="44.6976426" lon="10.257565"><ele>168.5</ele><time>2026-04-04T18:24:58.771Z</time></trkpt><trkpt lat="44.6975562" lon="10.2574644"><ele>168.75</ele><time>2026-04-04T18:24:59.757Z</time></trkpt><trkpt lat="44.6974628" lon="10.2574358"><ele>169.0</ele><time>2026-04-04T18:25:00.795Z</time></trkpt><trkpt lat="44.6973658" lon="10.2574837"><ele>169.0</ele><time>2026-04-04T18:25:01.769Z</time></trkpt><trkpt lat="44.697304" lon="10.2575991"><ele>169.0</ele><time>2026-04-04T18:25:02.761Z</time></trkpt><trkpt lat="44.6972701" lon="10.2577799"><ele>169.0</ele><time>2026-04-04T18:25:03.773Z</time></trkpt><trkpt lat="44.697215" lon="10.2579881"><ele>169.0</ele><time>2026-04-04T18:25:04.766Z</time></trkpt><trkpt lat="44.6971" lon="10.2581781"><ele>168.33333333333334</ele><time>2026-04-04T18:25:05.767Z</time></trkpt><trkpt lat="44.6969629" lon="10.2583538"><ele>167.66666666666666</ele><time>2026-04-04T18:25:06.763Z</time></trkpt><trkpt lat="44.6968078" lon="10.2585365"><ele>167.0</ele><time>2026-04-04T18:25:07.761Z</time></trkpt><trkpt lat="44.6966475" lon="10.25873"><ele>166.66666666666666</ele><time>2026-04-04T18:25:08.767Z</time></trkpt><trkpt lat="44.696484" lon="10.2589283"><ele>166.33333333333334</ele><time>2026-04-04T18:25:09.778Z</time></trkpt><trkpt lat="44.6963178" lon="10.2591353"><ele>166.0</ele><time>2026-04-04T18:25:10.772Z</time></trkpt><trkpt lat="44.696143" lon="10.2593387"><ele>166.5</ele><time>2026-04-04T18:25:11.769Z</time></trkpt><trkpt lat="44.695966" lon="10.2595538"><ele>167.0</ele><time>2026-04-04T18:25:12.771Z</time></trkpt><trkpt lat="44.6957799" lon="10.2597739"><ele>167.0</ele><time>2026-04-04T18:25:13.769Z</time></trkpt><trkpt lat="44.6956005" lon="10.2600068"><ele>167.0</ele><time>2026-04-04T18:25:14.764Z</time></trkpt><trkpt lat="44.6954278" lon="10.2602531"><ele>167.0</ele><time>2026-04-04T18:25:15.762Z</time></trkpt><trkpt lat="44.6952627" lon="10.2605297"><ele>167.0</ele><time>2026-04-04T18:25:16.763Z</time></trkpt><trkpt lat="44.6951116" lon="10.2608313"><ele>166.5</ele><time>2026-04-04T18:25:17.774Z</time></trkpt><trkpt lat="44.6949785" lon="10.2611567"><ele>166.0</ele><time>2026-04-04T18:25:18.762Z</time></trkpt><trkpt lat="44.6948633" lon="10.261497"><ele>166.0</ele><time>2026-04-04T18:25:19.771Z</time></trkpt><trkpt lat="44.6947645" lon="10.2618511"><ele>166.0</ele><time>2026-04-04T18:25:20.764Z</time></trkpt><trkpt lat="44.6946746" lon="10.2622157"><ele>165.5</ele><time>2026-04-04T18:25:21.775Z</time></trkpt><trkpt lat="44.6945857" lon="10.2625906"><ele>165.0</ele><time>2026-04-04T18:25:22.778Z</time></trkpt><trkpt lat="44.6944969" lon="10.2629538"><ele>165.0</ele><time>2026-04-04T18:25:23.767Z</time></trkpt><trkpt lat="44.694427" lon="10.2632778"><ele>165.0</ele><time>2026-04-04T18:25:24.765Z</time></trkpt><trkpt lat="44.6943679" lon="10.263567"><ele>165.0</ele><time>2026-04-04T18:25:25.766Z</time></trkpt><trkpt lat="44.6943077" lon="10.2638403"><ele>165.0</ele><time>2026-04-04T18:25:26.77Z</time></trkpt><trkpt lat="44.69425" lon="10.2640905"><ele>165.0</ele><time>2026-04-04T18:25:27.782Z</time></trkpt><trkpt lat="44.6941884" lon="10.2643058"><ele>165.0</ele><time>2026-04-04T18:25:28.78Z</time></trkpt><trkpt lat="44.6941047" lon="10.2644853"><ele>165.0</ele><time>2026-04-04T18:25:29.776Z</time></trkpt><trkpt lat="44.6940016" lon="10.2646174"><ele>165.0</ele><time>2026-04-04T18:25:30.793Z</time></trkpt><trkpt lat="44.6939213" lon="10.264726"><ele>165.0</ele><time>2026-04-04T18:25:31.781Z</time></trkpt><trkpt lat="44.693887" lon="10.2648624"><ele>165.0</ele><time>2026-04-04T18:25:32.787Z</time></trkpt><trkpt lat="44.6939" lon="10.2650052"><ele>165.0</ele><time>2026-04-04T18:25:33.783Z</time></trkpt><trkpt lat="44.6939545" lon="10.265178"><ele>165.0</ele><time>2026-04-04T18:25:34.781Z</time></trkpt><trkpt lat="44.6940133" lon="10.2653809"><ele>165.0</ele><time>2026-04-04T18:25:35.778Z</time></trkpt><trkpt lat="44.6940288" lon="10.2656284"><ele>165.0</ele><time>2026-04-04T18:25:36.783Z</time></trkpt><trkpt lat="44.6939983" lon="10.2659053"><ele>165.0</ele><time>2026-04-04T18:25:37.779Z</time></trkpt><trkpt lat="44.6939709" lon="10.2661988"><ele>165.0</ele><time>2026-04-04T18:25:38.778Z</time></trkpt><trkpt lat="44.693946" lon="10.2665255"><ele>165.5</ele><time>2026-04-04T18:25:39.782Z</time></trkpt><trkpt lat="44.6939165" lon="10.2668706"><ele>166.0</ele><time>2026-04-04T18:25:40.777Z</time></trkpt><trkpt lat="44.6938884" lon="10.2672464"><ele>165.0</ele><time>2026-04-04T18:25:41.777Z</time></trkpt><trkpt lat="44.6938418" lon="10.2677183"><ele>164.0</ele><time>2026-04-04T18:25:42.783Z</time></trkpt><trkpt lat="44.6938005" lon="10.2682276"><ele>163.5</ele><time>2026-04-04T18:25:43.786Z</time></trkpt><trkpt lat="44.6937558" lon="10.2687114"><ele>163.0</ele><time>2026-04-04T18:25:44.785Z</time></trkpt><trkpt lat="44.6937138" lon="10.26919"><ele>163.0</ele><time>2026-04-04T18:25:45.791Z</time></trkpt><trkpt lat="44.6936763" lon="10.2696557"><ele>163.0</ele><time>2026-04-04T18:25:46.78Z</time></trkpt><trkpt lat="44.6936369" lon="10.2701178"><ele>163.0</ele><time>2026-04-04T18:25:47.788Z</time></trkpt><trkpt lat="44.6935997" lon="10.2705731"><ele>163.0</ele><time>2026-04-04T18:25:48.781Z</time></trkpt><trkpt lat="44.6935668" lon="10.2710298"><ele>163.0</ele><time>2026-04-04T18:25:49.787Z</time></trkpt><trkpt lat="44.6935334" lon="10.2714846"><ele>163.0</ele><time>2026-04-04T18:25:50.781Z</time></trkpt><trkpt lat="44.693497" lon="10.2719354"><ele>162.0</ele><time>2026-04-04T18:25:51.781Z</time></trkpt><trkpt lat="44.6934648" lon="10.2723866"><ele>161.0</ele><time>2026-04-04T18:25:52.789Z</time></trkpt><trkpt lat="44.6934286" lon="10.2728366"><ele>161.0</ele><time>2026-04-04T18:25:53.786Z</time></trkpt><trkpt lat="44.6933931" lon="10.2732875"><ele>161.0</ele><time>2026-04-04T18:25:54.786Z</time></trkpt><trkpt lat="44.6933547" lon="10.273733"><ele>159.5</ele><time>2026-04-04T18:25:55.781Z</time></trkpt><trkpt lat="44.6933192" lon="10.2741731"><ele>158.0</ele><time>2026-04-04T18:25:56.781Z</time></trkpt><trkpt lat="44.6932874" lon="10.2746139"><ele>158.0</ele><time>2026-04-04T18:25:57.782Z</time></trkpt><trkpt lat="44.6932518" lon="10.2750512"><ele>158.0</ele><time>2026-04-04T18:25:58.787Z</time></trkpt><trkpt lat="44.6932206" lon="10.27548"><ele>159.0</ele><time>2026-04-04T18:25:59.778Z</time></trkpt><trkpt lat="44.6931901" lon="10.2758795"><ele>160.0</ele><time>2026-04-04T18:26:00.789Z</time></trkpt><trkpt lat="44.6931594" lon="10.2762432"><ele>160.33333333333334</ele><time>2026-04-04T18:26:01.777Z</time></trkpt><trkpt lat="44.6931375" lon="10.2765652"><ele>160.66666666666666</ele><time>2026-04-04T18:26:02.789Z</time></trkpt><trkpt lat="44.693111" lon="10.2768282"><ele>161.0</ele><time>2026-04-04T18:26:03.788Z</time></trkpt><trkpt lat="44.6930897" lon="10.2770621"><ele>160.33333333333331</ele><time>2026-04-04T18:26:04.78Z</time></trkpt><trkpt lat="44.6930736" lon="10.2772918"><ele>159.66666666666666</ele><time>2026-04-04T18:26:05.793Z</time></trkpt><trkpt lat="44.6930442" lon="10.2774953"><ele>159.0</ele><time>2026-04-04T18:26:06.778Z</time></trkpt><trkpt lat="44.6929855" lon="10.2776755"><ele>159.0</ele><time>2026-04-04T18:26:07.779Z</time></trkpt><trkpt lat="44.6928967" lon="10.27782"><ele>159.0</ele><time>2026-04-04T18:26:08.772Z</time></trkpt><trkpt lat="44.6928461" lon="10.2779715"><ele>159.0</ele><time>2026-04-04T18:26:09.785Z</time></trkpt><trkpt lat="44.6928422" lon="10.2781298"><ele>159.0</ele><time>2026-04-04T18:26:10.78Z</time></trkpt><trkpt lat="44.6928922" lon="10.2783165"><ele>158.66666666666666</ele><time>2026-04-04T18:26:11.777Z</time></trkpt><trkpt lat="44.6929399" lon="10.2785099"><ele>158.33333333333331</ele><time>2026-04-04T18:26:12.782Z</time></trkpt><trkpt lat="44.6929519" lon="10.2787433"><ele>158.0</ele><time>2026-04-04T18:26:13.787Z</time></trkpt><trkpt lat="44.6929215" lon="10.2790113"><ele>158.0</ele><time>2026-04-04T18:26:14.778Z</time></trkpt><trkpt lat="44.6928929" lon="10.2792867"><ele>158.0</ele><time>2026-04-04T18:26:15.774Z</time></trkpt><trkpt lat="44.6928633" lon="10.2795861"><ele>158.0</ele><time>2026-04-04T18:26:16.78Z</time></trkpt><trkpt lat="44.6928215" lon="10.2799037"><ele>158.0</ele><time>2026-04-04T18:26:17.784Z</time></trkpt><trkpt lat="44.6927716" lon="10.280236"><ele>158.0</ele><time>2026-04-04T18:26:18.78Z</time></trkpt><trkpt lat="44.6927256" lon="10.2805854"><ele>158.0</ele><time>2026-04-04T18:26:19.783Z</time></trkpt><trkpt lat="44.6926835" lon="10.2809489"><ele>158.0</ele><time>2026-04-04T18:26:20.783Z</time></trkpt><trkpt lat="44.6926457" lon="10.2813192"><ele>156.5</ele><time>2026-04-04T18:26:21.786Z</time></trkpt><trkpt lat="44.6926025" lon="10.2816946"><ele>155.0</ele><time>2026-04-04T18:26:22.786Z</time></trkpt><trkpt lat="44.6925563" lon="10.2820776"><ele>155.0</ele><time>2026-04-04T18:26:23.788Z</time></trkpt><trkpt lat="44.6925117" lon="10.2824638"><ele>155.0</ele><time>2026-04-04T18:26:24.778Z</time></trkpt><trkpt lat="44.6924729" lon="10.2828513"><ele>155.5</ele><time>2026-04-04T18:26:25.784Z</time></trkpt><trkpt lat="44.6924314" lon="10.2832376"><ele>156.0</ele><time>2026-04-04T18:26:26.78Z</time></trkpt><trkpt lat="44.6923863" lon="10.2836309"><ele>156.0</ele><time>2026-04-04T18:26:27.782Z</time></trkpt><trkpt lat="44.6923383" lon="10.2840313"><ele>156.0</ele><time>2026-04-04T18:26:28.784Z</time></trkpt><trkpt lat="44.69229" lon="10.2844351"><ele>155.5</ele><time>2026-04-04T18:26:29.781Z</time></trkpt><trkpt lat="44.6922398" lon="10.2848427"><ele>155.0</ele><time>2026-04-04T18:26:30.794Z</time></trkpt><trkpt lat="44.6921866" lon="10.2852543"><ele>155.0</ele><time>2026-04-04T18:26:31.781Z</time></trkpt><trkpt lat="44.6921255" lon="10.2856705"><ele>155.0</ele><time>2026-04-04T18:26:32.779Z</time></trkpt><trkpt lat="44.6920486" lon="10.2860875"><ele>155.5</ele><time>2026-04-04T18:26:33.784Z</time></trkpt><trkpt lat="44.6919674" lon="10.2864851"><ele>156.0</ele><time>2026-04-04T18:26:34.779Z</time></trkpt><trkpt lat="44.6918781" lon="10.2868829"><ele>156.0</ele><time>2026-04-04T18:26:35.786Z</time></trkpt><trkpt lat="44.6917773" lon="10.2872789"><ele>156.0</ele><time>2026-04-04T18:26:36.779Z</time></trkpt><trkpt lat="44.6916739" lon="10.2876827"><ele>156.0</ele><time>2026-04-04T18:26:37.776Z</time></trkpt><trkpt lat="44.6915673" lon="10.2880875"><ele>156.0</ele><time>2026-04-04T18:26:38.79Z</time></trkpt><trkpt lat="44.6914556" lon="10.2884867"><ele>156.5</ele><time>2026-04-04T18:26:39.786Z</time></trkpt><trkpt lat="44.6913528" lon="10.2888757"><ele>157.0</ele><time>2026-04-04T18:26:40.783Z</time></trkpt><trkpt lat="44.6912506" lon="10.2892462"><ele>157.5</ele><time>2026-04-04T18:26:41.781Z</time></trkpt><trkpt lat="44.6911397" lon="10.2896142"><ele>158.0</ele><time>2026-04-04T18:26:42.776Z</time></trkpt><trkpt lat="44.6910401" lon="10.2899721"><ele>158.0</ele><time>2026-04-04T18:26:43.789Z</time></trkpt><trkpt lat="44.6909415" lon="10.2903136"><ele>158.0</ele><time>2026-04-04T18:26:44.781Z</time></trkpt><trkpt lat="44.6908491" lon="10.2906533"><ele>158.0</ele><time>2026-04-04T18:26:45.783Z</time></trkpt><trkpt lat="44.6907568" lon="10.2909739"><ele>158.0</ele><time>2026-04-04T18:26:46.778Z</time></trkpt><trkpt lat="44.6906734" lon="10.2912726"><ele>158.66666666666666</ele><time>2026-04-04T18:26:47.783Z</time></trkpt><trkpt lat="44.6906008" lon="10.2915235"><ele>159.33333333333334</ele><time>2026-04-04T18:26:48.781Z</time></trkpt><trkpt lat="44.6905337" lon="10.2917211"><ele>160.0</ele><time>2026-04-04T18:26:49.785Z</time></trkpt><trkpt lat="44.6904775" lon="10.2918694"><ele>160.0</ele><time>2026-04-04T18:26:50.783Z</time></trkpt><trkpt lat="44.6904213" lon="10.2919674"><ele>160.0</ele><time>2026-04-04T18:26:51.78Z</time></trkpt><trkpt lat="44.6903754" lon="10.2920357"><ele>160.0</ele><time>2026-04-04T18:26:52.78Z</time></trkpt><trkpt lat="44.6903061" lon="10.2920854"><ele>160.0</ele><time>2026-04-04T18:26:54.787Z</time></trkpt><trkpt lat="44.6901973" lon="10.292113"><ele>160.0</ele><time>2026-04-04T18:27:13.784Z</time></trkpt><trkpt lat="44.6901326" lon="10.2920957"><ele>160.0</ele><time>2026-04-04T18:28:17.784Z</time></trkpt><trkpt lat="44.6900593" lon="10.2921262"><ele>159.75</ele><time>2026-04-04T18:28:19.786Z</time></trkpt><trkpt lat="44.6900371" lon="10.2922743"><ele>159.5</ele><time>2026-04-04T18:28:20.776Z</time></trkpt><trkpt lat="44.6900419" lon="10.2924721"><ele>159.25</ele><time>2026-04-04T18:28:21.766Z</time></trkpt><trkpt lat="44.6900828" lon="10.2926881"><ele>159.0</ele><time>2026-04-04T18:28:22.769Z</time></trkpt><trkpt lat="44.6901269" lon="10.2929172"><ele>159.66666666666666</ele><time>2026-04-04T18:28:23.765Z</time></trkpt><trkpt lat="44.6901085" lon="10.293151"><ele>160.33333333333331</ele><time>2026-04-04T18:28:24.763Z</time></trkpt><trkpt lat="44.6900291" lon="10.293395"><ele>161.0</ele><time>2026-04-04T18:28:25.765Z</time></trkpt><trkpt lat="44.6899231" lon="10.2936813"><ele>160.5</ele><time>2026-04-04T18:28:26.773Z</time></trkpt><trkpt lat="44.6897944" lon="10.2940277"><ele>160.0</ele><time>2026-04-04T18:28:27.783Z</time></trkpt><trkpt lat="44.6896524" lon="10.2943912"><ele>160.0</ele><time>2026-04-04T18:28:28.779Z</time></trkpt><trkpt lat="44.6894933" lon="10.2947199"><ele>160.0</ele><time>2026-04-04T18:28:29.781Z</time></trkpt><trkpt lat="44.6893137" lon="10.2950079"><ele>160.0</ele><time>2026-04-04T18:28:30.788Z</time></trkpt><trkpt lat="44.6891218" lon="10.2952629"><ele>160.0</ele><time>2026-04-04T18:28:31.774Z</time></trkpt><trkpt lat="44.6889071" lon="10.2954777"><ele>160.5</ele><time>2026-04-04T18:28:32.783Z</time></trkpt><trkpt lat="44.6886745" lon="10.295656"><ele>161.0</ele><time>2026-04-04T18:28:33.78Z</time></trkpt><trkpt lat="44.6884458" lon="10.2957891"><ele>161.0</ele><time>2026-04-04T18:28:34.782Z</time></trkpt><trkpt lat="44.6882163" lon="10.2958798"><ele>161.0</ele><time>2026-04-04T18:28:35.781Z</time></trkpt><trkpt lat="44.68799" lon="10.2959441"><ele>161.0</ele><time>2026-04-04T18:28:36.781Z</time></trkpt><trkpt lat="44.6877776" lon="10.2959846"><ele>161.0</ele><time>2026-04-04T18:28:37.783Z</time></trkpt><trkpt lat="44.6875857" lon="10.2959921"><ele>161.0</ele><time>2026-04-04T18:28:38.78Z</time></trkpt><trkpt lat="44.6873974" lon="10.2959714"><ele>162.0</ele><time>2026-04-04T18:28:39.782Z</time></trkpt><trkpt lat="44.6871766" lon="10.2959281"><ele>163.0</ele><time>2026-04-04T18:28:40.775Z</time></trkpt><trkpt lat="44.6869287" lon="10.2958398"><ele>163.0</ele><time>2026-04-04T18:28:41.78Z</time></trkpt><trkpt lat="44.6866357" lon="10.2957077"><ele>163.0</ele><time>2026-04-04T18:28:42.777Z</time></trkpt><trkpt lat="44.6862977" lon="10.295545"><ele>163.5</ele><time>2026-04-04T18:28:43.784Z</time></trkpt><trkpt lat="44.6859259" lon="10.2953743"><ele>164.0</ele><time>2026-04-04T18:28:44.781Z</time></trkpt><trkpt lat="44.685538" lon="10.2951722"><ele>164.5</ele><time>2026-04-04T18:28:45.78Z</time></trkpt><trkpt lat="44.685158" lon="10.2949728"><ele>165.0</ele><time>2026-04-04T18:28:46.778Z</time></trkpt><trkpt lat="44.6847992" lon="10.2947889"><ele>164.0</ele><time>2026-04-04T18:28:47.777Z</time></trkpt><trkpt lat="44.6844689" lon="10.2946368"><ele>163.0</ele><time>2026-04-04T18:28:48.778Z</time></trkpt><trkpt lat="44.6841798" lon="10.2945044"><ele>165.5</ele><time>2026-04-04T18:28:49.789Z</time></trkpt><trkpt lat="44.6839089" lon="10.2943739"><ele>168.0</ele><time>2026-04-04T18:28:50.772Z</time></trkpt><trkpt lat="44.6836555" lon="10.2942548"><ele>168.0</ele><time>2026-04-04T18:28:51.776Z</time></trkpt><trkpt lat="44.6834041" lon="10.2941456"><ele>168.0</ele><time>2026-04-04T18:28:52.785Z</time></trkpt><trkpt lat="44.6831531" lon="10.2940598"><ele>168.0</ele><time>2026-04-04T18:28:53.776Z</time></trkpt><trkpt lat="44.6828879" lon="10.294001"><ele>168.0</ele><time>2026-04-04T18:28:54.779Z</time></trkpt><trkpt lat="44.6826173" lon="10.2939662"><ele>168.0</ele><time>2026-04-04T18:28:55.776Z</time></trkpt><trkpt lat="44.6823401" lon="10.2939563"><ele>168.0</ele><time>2026-04-04T18:28:56.771Z</time></trkpt><trkpt lat="44.682086" lon="10.293967"><ele>169.5</ele><time>2026-04-04T18:28:57.781Z</time></trkpt><trkpt lat="44.6818464" lon="10.2939866"><ele>171.0</ele><time>2026-04-04T18:28:58.783Z</time></trkpt><trkpt lat="44.6816173" lon="10.2940041"><ele>171.0</ele><time>2026-04-04T18:28:59.782Z</time></trkpt><trkpt lat="44.6814006" lon="10.2940157"><ele>171.0</ele><time>2026-04-04T18:29:00.792Z</time></trkpt><trkpt lat="44.6812076" lon="10.2940206"><ele>171.0</ele><time>2026-04-04T18:29:01.779Z</time></trkpt><trkpt lat="44.681034" lon="10.2940304"><ele>171.5</ele><time>2026-04-04T18:29:02.779Z</time></trkpt><trkpt lat="44.6808798" lon="10.2940325"><ele>172.0</ele><time>2026-04-04T18:29:03.778Z</time></trkpt><trkpt lat="44.6807522" lon="10.2940177"><ele>172.5</ele><time>2026-04-04T18:29:04.759Z</time></trkpt><trkpt lat="44.6806406" lon="10.2939534"><ele>173.0</ele><time>2026-04-04T18:29:05.78Z</time></trkpt><trkpt lat="44.6805589" lon="10.2938701"><ele>173.0</ele><time>2026-04-04T18:29:06.773Z</time></trkpt><trkpt lat="44.6804812" lon="10.2938584"><ele>173.0</ele><time>2026-04-04T18:29:07.776Z</time></trkpt><trkpt lat="44.6804217" lon="10.2939114"><ele>173.0</ele><time>2026-04-04T18:29:08.77Z</time></trkpt><trkpt lat="44.6803854" lon="10.2940257"><ele>173.0</ele><time>2026-04-04T18:29:09.773Z</time></trkpt><trkpt lat="44.6803786" lon="10.2941683"><ele>173.0</ele><time>2026-04-04T18:29:10.779Z</time></trkpt><trkpt lat="44.6803969" lon="10.2943151"><ele>173.0</ele><time>2026-04-04T18:29:11.762Z</time></trkpt><trkpt lat="44.6804228" lon="10.2944621"><ele>173.0</ele><time>2026-04-04T18:29:12.776Z</time></trkpt><trkpt lat="44.6804343" lon="10.2946085"><ele>173.0</ele><time>2026-04-04T18:29:13.771Z</time></trkpt><trkpt lat="44.6804266" lon="10.2947487"><ele>173.0</ele><time>2026-04-04T18:29:14.765Z</time></trkpt><trkpt lat="44.6804037" lon="10.2949"><ele>173.0</ele><time>2026-04-04T18:29:15.764Z</time></trkpt><trkpt lat="44.6803699" lon="10.2950794"><ele>173.0</ele><time>2026-04-04T18:29:16.768Z</time></trkpt><trkpt lat="44.6803291" lon="10.2952908"><ele>172.5</ele><time>2026-04-04T18:29:17.781Z</time></trkpt><trkpt lat="44.6802667" lon="10.2955838"><ele>172.0</ele><time>2026-04-04T18:29:18.773Z</time></trkpt><trkpt lat="44.6801894" lon="10.2959805"><ele>172.0</ele><time>2026-04-04T18:29:19.779Z</time></trkpt><trkpt lat="44.6800939" lon="10.2964196"><ele>172.0</ele><time>2026-04-04T18:29:20.772Z</time></trkpt><trkpt lat="44.6800047" lon="10.2968684"><ele>172.0</ele><time>2026-04-04T18:29:21.783Z</time></trkpt><trkpt lat="44.6799171" lon="10.297307"><ele>172.0</ele><time>2026-04-04T18:29:22.786Z</time></trkpt><trkpt lat="44.6798332" lon="10.2977213"><ele>172.0</ele><time>2026-04-04T18:29:23.78Z</time></trkpt><trkpt lat="44.679752" lon="10.2981086"><ele>172.0</ele><time>2026-04-04T18:29:24.78Z</time></trkpt><trkpt lat="44.6796786" lon="10.2984826"><ele>172.0</ele><time>2026-04-04T18:29:25.781Z</time></trkpt><trkpt lat="44.6796062" lon="10.2988483"><ele>172.0</ele><time>2026-04-04T18:29:26.779Z</time></trkpt><trkpt lat="44.6795324" lon="10.2992142"><ele>172.5</ele><time>2026-04-04T18:29:27.779Z</time></trkpt><trkpt lat="44.6794632" lon="10.2995749"><ele>173.0</ele><time>2026-04-04T18:29:28.781Z</time></trkpt><trkpt lat="44.6793929" lon="10.2999334"><ele>173.5</ele><time>2026-04-04T18:29:29.777Z</time></trkpt><trkpt lat="44.6793247" lon="10.3002571"><ele>174.0</ele><time>2026-04-04T18:29:30.791Z</time></trkpt><trkpt lat="44.6792712" lon="10.3005551"><ele>173.0</ele><time>2026-04-04T18:29:31.78Z</time></trkpt><trkpt lat="44.6792131" lon="10.3008686"><ele>172.0</ele><time>2026-04-04T18:29:32.78Z</time></trkpt><trkpt lat="44.6791491" lon="10.3011873"><ele>172.5</ele><time>2026-04-04T18:29:33.785Z</time></trkpt><trkpt lat="44.6790845" lon="10.3015112"><ele>173.0</ele><time>2026-04-04T18:29:34.774Z</time></trkpt><trkpt lat="44.6790216" lon="10.3018407"><ele>173.0</ele><time>2026-04-04T18:29:35.776Z</time></trkpt><trkpt lat="44.6789581" lon="10.3021793"><ele>173.0</ele><time>2026-04-04T18:29:36.775Z</time></trkpt><trkpt lat="44.6788917" lon="10.3025258"><ele>172.5</ele><time>2026-04-04T18:29:37.78Z</time></trkpt><trkpt lat="44.6788246" lon="10.3028844"><ele>172.0</ele><time>2026-04-04T18:29:38.779Z</time></trkpt><trkpt lat="44.6787562" lon="10.3032471"><ele>172.0</ele><time>2026-04-04T18:29:39.796Z</time></trkpt><trkpt lat="44.6786827" lon="10.303617"><ele>172.0</ele><time>2026-04-04T18:29:40.786Z</time></trkpt><trkpt lat="44.6786129" lon="10.3039872"><ele>170.0</ele><time>2026-04-04T18:29:41.785Z</time></trkpt><trkpt lat="44.6785421" lon="10.3043651"><ele>168.0</ele><time>2026-04-04T18:29:42.786Z</time></trkpt><trkpt lat="44.6784701" lon="10.3047454"><ele>168.5</ele><time>2026-04-04T18:29:43.79Z</time></trkpt><trkpt lat="44.6783963" lon="10.3051239"><ele>169.0</ele><time>2026-04-04T18:29:44.78Z</time></trkpt><trkpt lat="44.6783286" lon="10.3054869"><ele>169.0</ele><time>2026-04-04T18:29:45.784Z</time></trkpt><trkpt lat="44.6782659" lon="10.3058286"><ele>169.0</ele><time>2026-04-04T18:29:46.79Z</time></trkpt><trkpt lat="44.6781994" lon="10.3061706"><ele>169.5</ele><time>2026-04-04T18:29:47.784Z</time></trkpt><trkpt lat="44.678139" lon="10.3065015"><ele>170.0</ele><time>2026-04-04T18:29:48.786Z</time></trkpt><trkpt lat="44.6780812" lon="10.3068172"><ele>170.0</ele><time>2026-04-04T18:29:49.781Z</time></trkpt><trkpt lat="44.6780298" lon="10.3071114"><ele>170.0</ele><time>2026-04-04T18:29:50.789Z</time></trkpt><trkpt lat="44.677977" lon="10.307391"><ele>170.0</ele><time>2026-04-04T18:29:51.788Z</time></trkpt><trkpt lat="44.6779231" lon="10.3076709"><ele>170.0</ele><time>2026-04-04T18:29:52.776Z</time></trkpt><trkpt lat="44.6778734" lon="10.30794"><ele>170.0</ele><time>2026-04-04T18:29:53.776Z</time></trkpt><trkpt lat="44.6778234" lon="10.3082005"><ele>170.0</ele><time>2026-04-04T18:29:54.78Z</time></trkpt><trkpt lat="44.6777762" lon="10.3084589"><ele>170.66666666666666</ele><time>2026-04-04T18:29:55.782Z</time></trkpt><trkpt lat="44.6777276" lon="10.3087233"><ele>171.33333333333334</ele><time>2026-04-04T18:29:56.777Z</time></trkpt><trkpt lat="44.6776783" lon="10.3089903"><ele>172.0</ele><time>2026-04-04T18:29:57.781Z</time></trkpt><trkpt lat="44.6776247" lon="10.3092742"><ele>172.0</ele><time>2026-04-04T18:29:58.777Z</time></trkpt><trkpt lat="44.6775725" lon="10.3095695"><ele>172.0</ele><time>2026-04-04T18:29:59.786Z</time></trkpt><trkpt lat="44.6775115" lon="10.3098721"><ele>172.0</ele><time>2026-04-04T18:30:00.785Z</time></trkpt><trkpt lat="44.677449" lon="10.3101736"><ele>171.0</ele><time>2026-04-04T18:30:01.786Z</time></trkpt><trkpt lat="44.6773946" lon="10.3104867"><ele>170.0</ele><time>2026-04-04T18:30:02.786Z</time></trkpt><trkpt lat="44.6773356" lon="10.3108063"><ele>169.5</ele><time>2026-04-04T18:30:03.775Z</time></trkpt><trkpt lat="44.6772784" lon="10.3111382"><ele>169.0</ele><time>2026-04-04T18:30:04.782Z</time></trkpt><trkpt lat="44.6772199" lon="10.3114752"><ele>168.5</ele><time>2026-04-04T18:30:05.784Z</time></trkpt><trkpt lat="44.6771602" lon="10.3118252"><ele>168.0</ele><time>2026-04-04T18:30:06.772Z</time></trkpt><trkpt lat="44.6771045" lon="10.3121741"><ele>167.0</ele><time>2026-04-04T18:30:07.784Z</time></trkpt><trkpt lat="44.6770524" lon="10.3125227"><ele>166.0</ele><time>2026-04-04T18:30:08.823Z</time></trkpt><trkpt lat="44.6769916" lon="10.3128792"><ele>166.0</ele><time>2026-04-04T18:30:09.78Z</time></trkpt><trkpt lat="44.6769299" lon="10.3132292"><ele>166.0</ele><time>2026-04-04T18:30:10.788Z</time></trkpt><trkpt lat="44.676869" lon="10.3135852"><ele>165.5</ele><time>2026-04-04T18:30:11.785Z</time></trkpt><trkpt lat="44.6768016" lon="10.313942"><ele>165.0</ele><time>2026-04-04T18:30:12.792Z</time></trkpt><trkpt lat="44.6767362" lon="10.3142991"><ele>165.0</ele><time>2026-04-04T18:30:13.789Z</time></trkpt><trkpt lat="44.6766692" lon="10.3146599"><ele>165.0</ele><time>2026-04-04T18:30:14.783Z</time></trkpt><trkpt lat="44.6766044" lon="10.3150169"><ele>165.0</ele><time>2026-04-04T18:30:15.79Z</time></trkpt><trkpt lat="44.6765426" lon="10.3153798"><ele>165.0</ele><time>2026-04-04T18:30:16.788Z</time></trkpt><trkpt lat="44.6764787" lon="10.3157454"><ele>165.0</ele><time>2026-04-04T18:30:17.782Z</time></trkpt><trkpt lat="44.6764114" lon="10.3161074"><ele>165.0</ele><time>2026-04-04T18:30:18.786Z</time></trkpt><trkpt lat="44.6763449" lon="10.3164713"><ele>165.0</ele><time>2026-04-04T18:30:19.786Z</time></trkpt><trkpt lat="44.6762822" lon="10.3168373"><ele>165.0</ele><time>2026-04-04T18:30:20.782Z</time></trkpt><trkpt lat="44.6762197" lon="10.3171921"><ele>164.5</ele><time>2026-04-04T18:30:21.783Z</time></trkpt><trkpt lat="44.676159" lon="10.3175303"><ele>164.0</ele><time>2026-04-04T18:30:22.777Z</time></trkpt><trkpt lat="44.6761023" lon="10.3178697"><ele>165.0</ele><time>2026-04-04T18:30:23.787Z</time></trkpt><trkpt lat="44.6760449" lon="10.3182103"><ele>166.0</ele><time>2026-04-04T18:30:24.776Z</time></trkpt><trkpt lat="44.6759867" lon="10.3185517"><ele>166.0</ele><time>2026-04-04T18:30:25.782Z</time></trkpt><trkpt lat="44.6759242" lon="10.3188957"><ele>166.0</ele><time>2026-04-04T18:30:26.781Z</time></trkpt><trkpt lat="44.6758565" lon="10.3192336"><ele>165.5</ele><time>2026-04-04T18:30:27.786Z</time></trkpt><trkpt lat="44.6757825" lon="10.3195699"><ele>165.0</ele><time>2026-04-04T18:30:28.783Z</time></trkpt><trkpt lat="44.6756939" lon="10.3199037"><ele>165.0</ele><time>2026-04-04T18:30:29.768Z</time></trkpt><trkpt lat="44.6755781" lon="10.3202253"><ele>165.0</ele><time>2026-04-04T18:30:30.797Z</time></trkpt><trkpt lat="44.6754532" lon="10.320534"><ele>164.5</ele><time>2026-04-04T18:30:31.777Z</time></trkpt><trkpt lat="44.6753268" lon="10.3208555"><ele>164.0</ele><time>2026-04-04T18:30:32.789Z</time></trkpt><trkpt lat="44.6751973" lon="10.3211648"><ele>165.0</ele><time>2026-04-04T18:30:33.78Z</time></trkpt><trkpt lat="44.6750666" lon="10.3214814"><ele>166.0</ele><time>2026-04-04T18:30:34.787Z</time></trkpt><trkpt lat="44.6749373" lon="10.3217949"><ele>166.0</ele><time>2026-04-04T18:30:35.786Z</time></trkpt><trkpt lat="44.6748043" lon="10.3221103"><ele>166.0</ele><time>2026-04-04T18:30:36.783Z</time></trkpt><trkpt lat="44.6746704" lon="10.3224225"><ele>164.5</ele><time>2026-04-04T18:30:37.782Z</time></trkpt><trkpt lat="44.674539" lon="10.3227354"><ele>163.0</ele><time>2026-04-04T18:30:38.791Z</time></trkpt><trkpt lat="44.6744084" lon="10.3230442"><ele>162.0</ele><time>2026-04-04T18:30:39.779Z</time></trkpt><trkpt lat="44.6742756" lon="10.3233568"><ele>161.0</ele><time>2026-04-04T18:30:40.787Z</time></trkpt><trkpt lat="44.6741466" lon="10.323651"><ele>161.0</ele><time>2026-04-04T18:30:41.785Z</time></trkpt><trkpt lat="44.6740369" lon="10.323916"><ele>161.0</ele><time>2026-04-04T18:30:42.784Z</time></trkpt><trkpt lat="44.6739441" lon="10.3241548"><ele>161.0</ele><time>2026-04-04T18:30:43.791Z</time></trkpt><trkpt lat="44.6738503" lon="10.3243783"><ele>161.0</ele><time>2026-04-04T18:30:44.785Z</time></trkpt><trkpt lat="44.6737649" lon="10.3245966"><ele>161.0</ele><time>2026-04-04T18:30:45.792Z</time></trkpt><trkpt lat="44.6736812" lon="10.3248058"><ele>161.0</ele><time>2026-04-04T18:30:46.787Z</time></trkpt><trkpt lat="44.6735999" lon="10.325001"><ele>161.66666666666666</ele><time>2026-04-04T18:30:47.784Z</time></trkpt><trkpt lat="44.6735225" lon="10.3251859"><ele>162.33333333333334</ele><time>2026-04-04T18:30:48.786Z</time></trkpt><trkpt lat="44.6734447" lon="10.3253672"><ele>163.0</ele><time>2026-04-04T18:30:49.783Z</time></trkpt><trkpt lat="44.6733677" lon="10.3255488"><ele>162.75</ele><time>2026-04-04T18:30:50.784Z</time></trkpt><trkpt lat="44.6732982" lon="10.3257259"><ele>162.5</ele><time>2026-04-04T18:30:51.785Z</time></trkpt><trkpt lat="44.673223" lon="10.3258998"><ele>162.25</ele><time>2026-04-04T18:30:52.783Z</time></trkpt><trkpt lat="44.6731464" lon="10.3260825"><ele>162.0</ele><time>2026-04-04T18:30:53.781Z</time></trkpt><trkpt lat="44.6730668" lon="10.326274"><ele>162.33333333333334</ele><time>2026-04-04T18:30:54.781Z</time></trkpt><trkpt lat="44.6729845" lon="10.326476"><ele>162.66666666666669</ele><time>2026-04-04T18:30:55.781Z</time></trkpt><trkpt lat="44.6728973" lon="10.3266831"><ele>163.0</ele><time>2026-04-04T18:30:56.778Z</time></trkpt><trkpt lat="44.6728104" lon="10.3268829"><ele>163.66666666666669</ele><time>2026-04-04T18:30:57.782Z</time></trkpt><trkpt lat="44.672732" lon="10.3270867"><ele>164.33333333333334</ele><time>2026-04-04T18:30:58.787Z</time></trkpt><trkpt lat="44.6726486" lon="10.3273092"><ele>165.0</ele><time>2026-04-04T18:30:59.77Z</time></trkpt><trkpt lat="44.6725556" lon="10.3275653"><ele>165.0</ele><time>2026-04-04T18:31:00.806Z</time></trkpt><trkpt lat="44.6724474" lon="10.3278348"><ele>165.0</ele><time>2026-04-04T18:31:01.786Z</time></trkpt><trkpt lat="44.6723293" lon="10.3281006"><ele>165.0</ele><time>2026-04-04T18:31:02.782Z</time></trkpt><trkpt lat="44.6722032" lon="10.3283863"><ele>164.5</ele><time>2026-04-04T18:31:03.783Z</time></trkpt><trkpt lat="44.6720678" lon="10.3286809"><ele>164.0</ele><time>2026-04-04T18:31:04.777Z</time></trkpt><trkpt lat="44.6719247" lon="10.3289761"><ele>164.0</ele><time>2026-04-04T18:31:05.779Z</time></trkpt><trkpt lat="44.6717855" lon="10.329288"><ele>164.0</ele><time>2026-04-04T18:31:06.779Z</time></trkpt><trkpt lat="44.6716537" lon="10.3296091"><ele>165.0</ele><time>2026-04-04T18:31:07.783Z</time></trkpt><trkpt lat="44.6715309" lon="10.3299405"><ele>166.0</ele><time>2026-04-04T18:31:08.772Z</time></trkpt><trkpt lat="44.6714149" lon="10.3302805"><ele>166.0</ele><time>2026-04-04T18:31:09.792Z</time></trkpt><trkpt lat="44.6713167" lon="10.3306282"><ele>166.0</ele><time>2026-04-04T18:31:10.786Z</time></trkpt><trkpt lat="44.6712438" lon="10.3309655"><ele>166.0</ele><time>2026-04-04T18:31:11.783Z</time></trkpt><trkpt lat="44.6711702" lon="10.3313048"><ele>166.0</ele><time>2026-04-04T18:31:12.789Z</time></trkpt><trkpt lat="44.6710941" lon="10.331645"><ele>166.0</ele><time>2026-04-04T18:31:13.792Z</time></trkpt><trkpt lat="44.6710191" lon="10.3319869"><ele>166.0</ele><time>2026-04-04T18:31:14.789Z</time></trkpt><trkpt lat="44.6709411" lon="10.3323215"><ele>165.5</ele><time>2026-04-04T18:31:15.779Z</time></trkpt><trkpt lat="44.6708712" lon="10.3326422"><ele>165.0</ele><time>2026-04-04T18:31:16.79Z</time></trkpt><trkpt lat="44.6708038" lon="10.3329324"><ele>165.0</ele><time>2026-04-04T18:31:17.793Z</time></trkpt><trkpt lat="44.6707221" lon="10.3331976"><ele>165.0</ele><time>2026-04-04T18:31:18.786Z</time></trkpt><trkpt lat="44.6706208" lon="10.33344"><ele>165.0</ele><time>2026-04-04T18:31:19.788Z</time></trkpt><trkpt lat="44.6705115" lon="10.3336721"><ele>164.66666666666666</ele><time>2026-04-04T18:31:20.791Z</time></trkpt><trkpt lat="44.6703909" lon="10.3339043"><ele>164.33333333333331</ele><time>2026-04-04T18:31:21.786Z</time></trkpt><trkpt lat="44.6702724" lon="10.334142"><ele>164.0</ele><time>2026-04-04T18:31:22.789Z</time></trkpt><trkpt lat="44.6701633" lon="10.3343709"><ele>164.33333333333331</ele><time>2026-04-04T18:31:23.787Z</time></trkpt><trkpt lat="44.6700696" lon="10.3345956"><ele>164.66666666666666</ele><time>2026-04-04T18:31:24.791Z</time></trkpt><trkpt lat="44.6699982" lon="10.3348053"><ele>165.0</ele><time>2026-04-04T18:31:25.779Z</time></trkpt><trkpt lat="44.669942" lon="10.3349758"><ele>165.0</ele><time>2026-04-04T18:31:26.782Z</time></trkpt><trkpt lat="44.6698717" lon="10.335122"><ele>165.0</ele><time>2026-04-04T18:31:27.791Z</time></trkpt><trkpt lat="44.6697962" lon="10.3352255"><ele>165.0</ele><time>2026-04-04T18:31:28.79Z</time></trkpt><trkpt lat="44.6697265" lon="10.3353027"><ele>165.0</ele><time>2026-04-04T18:31:29.79Z</time></trkpt><trkpt lat="44.669671" lon="10.3353945"><ele>165.0</ele><time>2026-04-04T18:31:30.797Z</time></trkpt><trkpt lat="44.6696567" lon="10.3355167"><ele>164.8</ele><time>2026-04-04T18:31:31.791Z</time></trkpt><trkpt lat="44.669686" lon="10.3356452"><ele>164.6</ele><time>2026-04-04T18:31:32.788Z</time></trkpt><trkpt lat="44.6697465" lon="10.3357399"><ele>164.39999999999998</ele><time>2026-04-04T18:31:33.783Z</time></trkpt><trkpt lat="44.6698307" lon="10.3358059"><ele>164.2</ele><time>2026-04-04T18:31:34.792Z</time></trkpt><trkpt lat="44.6699428" lon="10.3358242"><ele>164.0</ele><time>2026-04-04T18:31:35.785Z</time></trkpt><trkpt lat="44.6700729" lon="10.3358544"><ele>164.0</ele><time>2026-04-04T18:31:36.784Z</time></trkpt><trkpt lat="44.6701997" lon="10.3359367"><ele>164.0</ele><time>2026-04-04T18:31:37.786Z</time></trkpt><trkpt lat="44.6703258" lon="10.3360624"><ele>164.0</ele><time>2026-04-04T18:31:38.795Z</time></trkpt><trkpt lat="44.6704686" lon="10.3362097"><ele>163.33333333333331</ele><time>2026-04-04T18:31:39.783Z</time></trkpt><trkpt lat="44.6706314" lon="10.3363732"><ele>162.66666666666666</ele><time>2026-04-04T18:31:40.782Z</time></trkpt><trkpt lat="44.6708094" lon="10.3365491"><ele>162.0</ele><time>2026-04-04T18:31:41.776Z</time></trkpt><trkpt lat="44.6710035" lon="10.3367399"><ele>163.5</ele><time>2026-04-04T18:31:42.786Z</time></trkpt><trkpt lat="44.6712115" lon="10.3369466"><ele>165.0</ele><time>2026-04-04T18:31:43.772Z</time></trkpt><trkpt lat="44.6714357" lon="10.3371574"><ele>166.0</ele><time>2026-04-04T18:31:44.78Z</time></trkpt><trkpt lat="44.6716528" lon="10.3373555"><ele>167.0</ele><time>2026-04-04T18:31:45.78Z</time></trkpt><trkpt lat="44.6718691" lon="10.3375677"><ele>165.5</ele><time>2026-04-04T18:31:46.788Z</time></trkpt><trkpt lat="44.6720786" lon="10.3377818"><ele>164.0</ele><time>2026-04-04T18:31:47.791Z</time></trkpt><trkpt lat="44.67227" lon="10.3379811"><ele>163.66666666666666</ele><time>2026-04-04T18:31:48.786Z</time></trkpt><trkpt lat="44.672436" lon="10.3381714"><ele>163.33333333333334</ele><time>2026-04-04T18:31:49.795Z</time></trkpt><trkpt lat="44.6725775" lon="10.3383582"><ele>163.0</ele><time>2026-04-04T18:31:50.78Z</time></trkpt><trkpt lat="44.6727115" lon="10.338559"><ele>162.66666666666669</ele><time>2026-04-04T18:31:51.788Z</time></trkpt><trkpt lat="44.6728292" lon="10.3387437"><ele>162.33333333333334</ele><time>2026-04-04T18:31:52.784Z</time></trkpt><trkpt lat="44.6729326" lon="10.3389079"><ele>162.0</ele><time>2026-04-04T18:31:53.788Z</time></trkpt><trkpt lat="44.6730396" lon="10.3390544"><ele>162.0</ele><time>2026-04-04T18:31:54.777Z</time></trkpt><trkpt lat="44.6731362" lon="10.339193"><ele>162.0</ele><time>2026-04-04T18:31:55.786Z</time></trkpt><trkpt lat="44.6732157" lon="10.3393521"><ele>162.0</ele><time>2026-04-04T18:31:56.782Z</time></trkpt><trkpt lat="44.6732926" lon="10.3395272"><ele>162.0</ele><time>2026-04-04T18:31:57.792Z</time></trkpt><trkpt lat="44.6733501" lon="10.3397025"><ele>162.0</ele><time>2026-04-04T18:31:58.782Z</time></trkpt><trkpt lat="44.6733894" lon="10.3399028"><ele>162.0</ele><time>2026-04-04T18:31:59.79Z</time></trkpt><trkpt lat="44.6734169" lon="10.3401261"><ele>162.0</ele><time>2026-04-04T18:32:00.793Z</time></trkpt><trkpt lat="44.6734854" lon="10.3403609"><ele>162.0</ele><time>2026-04-04T18:32:01.791Z</time></trkpt><trkpt lat="44.673588" lon="10.3405976"><ele>162.0</ele><time>2026-04-04T18:32:02.79Z</time></trkpt><trkpt lat="44.6737157" lon="10.3408231"><ele>162.0</ele><time>2026-04-04T18:32:03.796Z</time></trkpt><trkpt lat="44.6738405" lon="10.3410471"><ele>161.33333333333334</ele><time>2026-04-04T18:32:04.784Z</time></trkpt><trkpt lat="44.6739524" lon="10.3412621"><ele>160.66666666666669</ele><time>2026-04-04T18:32:05.79Z</time></trkpt><trkpt lat="44.6740719" lon="10.3414665"><ele>160.0</ele><time>2026-04-04T18:32:06.787Z</time></trkpt><trkpt lat="44.6741921" lon="10.3416649"><ele>160.0</ele><time>2026-04-04T18:32:07.782Z</time></trkpt><trkpt lat="44.6743328" lon="10.341827"><ele>160.0</ele><time>2026-04-04T18:32:08.777Z</time></trkpt><trkpt lat="44.6744877" lon="10.3419756"><ele>160.0</ele><time>2026-04-04T18:32:09.783Z</time></trkpt><trkpt lat="44.674629" lon="10.3421268"><ele>159.33333333333334</ele><time>2026-04-04T18:32:10.788Z</time></trkpt><trkpt lat="44.6747556" lon="10.342291"><ele>158.66666666666666</ele><time>2026-04-04T18:32:11.785Z</time></trkpt><trkpt lat="44.6748873" lon="10.3424633"><ele>158.0</ele><time>2026-04-04T18:32:12.788Z</time></trkpt><trkpt lat="44.6750255" lon="10.3426581"><ele>158.0</ele><time>2026-04-04T18:32:13.785Z</time></trkpt><trkpt lat="44.6751737" lon="10.3428839"><ele>158.0</ele><time>2026-04-04T18:32:14.786Z</time></trkpt><trkpt lat="44.6753172" lon="10.3431363"><ele>158.0</ele><time>2026-04-04T18:32:15.784Z</time></trkpt><trkpt lat="44.6754446" lon="10.3433831"><ele>156.33333333333331</ele><time>2026-04-04T18:32:16.789Z</time></trkpt><trkpt lat="44.6755694" lon="10.3436287"><ele>154.66666666666666</ele><time>2026-04-04T18:32:17.786Z</time></trkpt><trkpt lat="44.6756942" lon="10.3438852"><ele>153.0</ele><time>2026-04-04T18:32:18.784Z</time></trkpt><trkpt lat="44.6758154" lon="10.3441379"><ele>153.0</ele><time>2026-04-04T18:32:19.783Z</time></trkpt><trkpt lat="44.6759363" lon="10.3443818"><ele>153.0</ele><time>2026-04-04T18:32:20.786Z</time></trkpt><trkpt lat="44.6760608" lon="10.3446169"><ele>153.0</ele><time>2026-04-04T18:32:21.778Z</time></trkpt><trkpt lat="44.6761797" lon="10.3448522"><ele>152.33333333333334</ele><time>2026-04-04T18:32:22.789Z</time></trkpt><trkpt lat="44.6762997" lon="10.345094"><ele>151.66666666666669</ele><time>2026-04-04T18:32:23.787Z</time></trkpt><trkpt lat="44.6764213" lon="10.3453337"><ele>151.0</ele><time>2026-04-04T18:32:24.783Z</time></trkpt><trkpt lat="44.6765284" lon="10.3455613"><ele>151.0</ele><time>2026-04-04T18:32:25.79Z</time></trkpt><trkpt lat="44.6766299" lon="10.3457888"><ele>151.0</ele><time>2026-04-04T18:32:26.782Z</time></trkpt><trkpt lat="44.6767261" lon="10.3459988"><ele>151.0</ele><time>2026-04-04T18:32:27.791Z</time></trkpt><trkpt lat="44.6768024" lon="10.3462275"><ele>151.33333333333334</ele><time>2026-04-04T18:32:28.782Z</time></trkpt><trkpt lat="44.676856" lon="10.346466"><ele>151.66666666666666</ele><time>2026-04-04T18:32:29.79Z</time></trkpt><trkpt lat="44.6768816" lon="10.3466927"><ele>152.0</ele><time>2026-04-04T18:32:30.8Z</time></trkpt><trkpt lat="44.67691" lon="10.3468989"><ele>151.25</ele><time>2026-04-04T18:32:31.788Z</time></trkpt><trkpt lat="44.6769594" lon="10.3470822"><ele>150.5</ele><time>2026-04-04T18:32:32.785Z</time></trkpt><trkpt lat="44.6770245" lon="10.3472458"><ele>149.75</ele><time>2026-04-04T18:32:33.779Z</time></trkpt><trkpt lat="44.6771252" lon="10.3474041"><ele>149.0</ele><time>2026-04-04T18:32:34.791Z</time></trkpt><trkpt lat="44.6772527" lon="10.3475771"><ele>149.0</ele><time>2026-04-04T18:32:35.786Z</time></trkpt><trkpt lat="44.6774062" lon="10.347765"><ele>149.0</ele><time>2026-04-04T18:32:36.787Z</time></trkpt><trkpt lat="44.6775603" lon="10.3479499"><ele>149.0</ele><time>2026-04-04T18:32:37.784Z</time></trkpt><trkpt lat="44.6777362" lon="10.3481404"><ele>148.66666666666666</ele><time>2026-04-04T18:32:38.784Z</time></trkpt><trkpt lat="44.6779078" lon="10.3483338"><ele>148.33333333333334</ele><time>2026-04-04T18:32:39.787Z</time></trkpt><trkpt lat="44.6780805" lon="10.3485335"><ele>148.0</ele><time>2026-04-04T18:32:40.783Z</time></trkpt><trkpt lat="44.6782619" lon="10.3487348"><ele>148.0</ele><time>2026-04-04T18:32:41.783Z</time></trkpt><trkpt lat="44.6784639" lon="10.3489521"><ele>148.0</ele><time>2026-04-04T18:32:42.79Z</time></trkpt><trkpt lat="44.6786606" lon="10.3491669"><ele>147.0</ele><time>2026-04-04T18:32:43.79Z</time></trkpt><trkpt lat="44.6788165" lon="10.3493527"><ele>146.0</ele><time>2026-04-04T18:32:44.791Z</time></trkpt><trkpt lat="44.6789341" lon="10.349512"><ele>145.0</ele><time>2026-04-04T18:32:45.8Z</time></trkpt><trkpt lat="44.67902" lon="10.3496778"><ele>145.25</ele><time>2026-04-04T18:32:46.793Z</time></trkpt><trkpt lat="44.6791062" lon="10.3498433"><ele>145.5</ele><time>2026-04-04T18:32:47.802Z</time></trkpt><trkpt lat="44.679191" lon="10.3500057"><ele>145.75</ele><time>2026-04-04T18:32:48.789Z</time></trkpt><trkpt lat="44.6792829" lon="10.350158"><ele>146.0</ele><time>2026-04-04T18:32:49.792Z</time></trkpt><trkpt lat="44.6794188" lon="10.350339"><ele>145.5</ele><time>2026-04-04T18:32:50.795Z</time></trkpt><trkpt lat="44.6795951" lon="10.350548"><ele>145.0</ele><time>2026-04-04T18:32:51.789Z</time></trkpt><trkpt lat="44.6798027" lon="10.3507807"><ele>145.0</ele><time>2026-04-04T18:32:52.805Z</time></trkpt><trkpt lat="44.6800321" lon="10.3509997"><ele>145.0</ele><time>2026-04-04T18:32:53.795Z</time></trkpt><trkpt lat="44.6802722" lon="10.351234"><ele>145.0</ele><time>2026-04-04T18:32:54.798Z</time></trkpt><trkpt lat="44.6804971" lon="10.3514595"><ele>145.0</ele><time>2026-04-04T18:32:55.79Z</time></trkpt><trkpt lat="44.6807051" lon="10.3516877"><ele>145.0</ele><time>2026-04-04T18:32:56.797Z</time></trkpt><trkpt lat="44.6809002" lon="10.3519439"><ele>145.0</ele><time>2026-04-04T18:32:57.805Z</time></trkpt><trkpt lat="44.6810668" lon="10.3522249"><ele>143.5</ele><time>2026-04-04T18:32:58.788Z</time></trkpt><trkpt lat="44.6812153" lon="10.3524969"><ele>142.0</ele><time>2026-04-04T18:32:59.791Z</time></trkpt><trkpt lat="44.6813539" lon="10.3527324"><ele>142.0</ele><time>2026-04-04T18:33:00.798Z</time></trkpt><trkpt lat="44.6814951" lon="10.3529437"><ele>142.0</ele><time>2026-04-04T18:33:01.787Z</time></trkpt><trkpt lat="44.6816494" lon="10.3531318"><ele>142.0</ele><time>2026-04-04T18:33:02.787Z</time></trkpt><trkpt lat="44.6818378" lon="10.3532937"><ele>142.0</ele><time>2026-04-04T18:33:03.785Z</time></trkpt><trkpt lat="44.6820349" lon="10.3534157"><ele>142.0</ele><time>2026-04-04T18:33:04.782Z</time></trkpt><trkpt lat="44.6822369" lon="10.3535228"><ele>142.0</ele><time>2026-04-04T18:33:05.792Z</time></trkpt><trkpt lat="44.6824336" lon="10.3536271"><ele>142.0</ele><time>2026-04-04T18:33:06.783Z</time></trkpt><trkpt lat="44.6826148" lon="10.353723"><ele>142.0</ele><time>2026-04-04T18:33:07.789Z</time></trkpt><trkpt lat="44.6827771" lon="10.3538128"><ele>142.0</ele><time>2026-04-04T18:33:08.781Z</time></trkpt><trkpt lat="44.682928" lon="10.3538837"><ele>142.33333333333334</ele><time>2026-04-04T18:33:09.78Z</time></trkpt><trkpt lat="44.6830894" lon="10.3539387"><ele>142.66666666666666</ele><time>2026-04-04T18:33:10.785Z</time></trkpt><trkpt lat="44.6832592" lon="10.3539338"><ele>143.0</ele><time>2026-04-04T18:33:11.788Z</time></trkpt><trkpt lat="44.6834281" lon="10.353877"><ele>142.33333333333331</ele><time>2026-04-04T18:33:12.791Z</time></trkpt><trkpt lat="44.6835986" lon="10.3537925"><ele>141.66666666666666</ele><time>2026-04-04T18:33:13.779Z</time></trkpt><trkpt lat="44.6837807" lon="10.3537199"><ele>141.0</ele><time>2026-04-04T18:33:14.785Z</time></trkpt><trkpt lat="44.6839513" lon="10.3536597"><ele>141.0</ele><time>2026-04-04T18:33:15.791Z</time></trkpt><trkpt lat="44.6841105" lon="10.3535969"><ele>141.0</ele><time>2026-04-04T18:33:16.793Z</time></trkpt><trkpt lat="44.6842688" lon="10.3535417"><ele>141.0</ele><time>2026-04-04T18:33:17.797Z</time></trkpt><trkpt lat="44.6844381" lon="10.353506"><ele>141.0</ele><time>2026-04-04T18:33:18.794Z</time></trkpt><trkpt lat="44.6846146" lon="10.3534828"><ele>141.0</ele><time>2026-04-04T18:33:19.797Z</time></trkpt><trkpt lat="44.6847881" lon="10.3534695"><ele>141.0</ele><time>2026-04-04T18:33:20.788Z</time></trkpt><trkpt lat="44.684959" lon="10.3534591"><ele>141.0</ele><time>2026-04-04T18:33:21.796Z</time></trkpt><trkpt lat="44.6851325" lon="10.3534476"><ele>141.0</ele><time>2026-04-04T18:33:22.799Z</time></trkpt><trkpt lat="44.6853128" lon="10.3534412"><ele>141.0</ele><time>2026-04-04T18:33:23.791Z</time></trkpt><trkpt lat="44.6854986" lon="10.3534342"><ele>141.0</ele><time>2026-04-04T18:33:24.787Z</time></trkpt><trkpt lat="44.6856807" lon="10.3534214"><ele>141.0</ele><time>2026-04-04T18:33:25.798Z</time></trkpt><trkpt lat="44.6858676" lon="10.3534228"><ele>141.0</ele><time>2026-04-04T18:33:26.791Z</time></trkpt><trkpt lat="44.6860598" lon="10.3534344"><ele>140.0</ele><time>2026-04-04T18:33:27.791Z</time></trkpt><trkpt lat="44.6862759" lon="10.3534351"><ele>139.0</ele><time>2026-04-04T18:33:28.785Z</time></trkpt><trkpt lat="44.6865231" lon="10.3534477"><ele>139.0</ele><time>2026-04-04T18:33:29.798Z</time></trkpt><trkpt lat="44.686801" lon="10.3534679"><ele>139.0</ele><time>2026-04-04T18:33:30.796Z</time></trkpt><trkpt lat="44.687092" lon="10.3534936"><ele>138.5</ele><time>2026-04-04T18:33:31.784Z</time></trkpt><trkpt lat="44.6873951" lon="10.3535191"><ele>138.0</ele><time>2026-04-04T18:33:32.794Z</time></trkpt><trkpt lat="44.6877168" lon="10.3535474"><ele>137.0</ele><time>2026-04-04T18:33:33.791Z</time></trkpt><trkpt lat="44.6880476" lon="10.3535549"><ele>136.0</ele><time>2026-04-04T18:33:34.79Z</time></trkpt><trkpt lat="44.6883777" lon="10.3535584"><ele>135.5</ele><time>2026-04-04T18:33:35.789Z</time></trkpt><trkpt lat="44.688688" lon="10.353556"><ele>135.0</ele><time>2026-04-04T18:33:36.796Z</time></trkpt><trkpt lat="44.6889976" lon="10.3535564"><ele>135.0</ele><time>2026-04-04T18:33:37.792Z</time></trkpt><trkpt lat="44.6893056" lon="10.3535515"><ele>135.0</ele><time>2026-04-04T18:33:38.803Z</time></trkpt><trkpt lat="44.6896164" lon="10.3535358"><ele>136.0</ele><time>2026-04-04T18:33:39.787Z</time></trkpt><trkpt lat="44.6899265" lon="10.3535124"><ele>137.0</ele><time>2026-04-04T18:33:40.79Z</time></trkpt><trkpt lat="44.6902331" lon="10.3534924"><ele>136.5</ele><time>2026-04-04T18:33:41.787Z</time></trkpt><trkpt lat="44.6905475" lon="10.3534676"><ele>136.0</ele><time>2026-04-04T18:33:42.791Z</time></trkpt><trkpt lat="44.6908657" lon="10.3534459"><ele>136.5</ele><time>2026-04-04T18:33:43.785Z</time></trkpt><trkpt lat="44.6911849" lon="10.3534263"><ele>137.0</ele><time>2026-04-04T18:33:44.789Z</time></trkpt><trkpt lat="44.6915054" lon="10.353416"><ele>137.0</ele><time>2026-04-04T18:33:45.792Z</time></trkpt><trkpt lat="44.6918106" lon="10.3533995"><ele>137.0</ele><time>2026-04-04T18:33:46.789Z</time></trkpt><trkpt lat="44.6921059" lon="10.3533799"><ele>135.5</ele><time>2026-04-04T18:33:47.784Z</time></trkpt><trkpt lat="44.6923776" lon="10.3533685"><ele>134.0</ele><time>2026-04-04T18:33:48.785Z</time></trkpt><trkpt lat="44.6926439" lon="10.3533689"><ele>134.5</ele><time>2026-04-04T18:33:49.796Z</time></trkpt><trkpt lat="44.6929035" lon="10.3533681"><ele>135.0</ele><time>2026-04-04T18:33:50.784Z</time></trkpt><trkpt lat="44.6931435" lon="10.3533819"><ele>135.0</ele><time>2026-04-04T18:33:51.79Z</time></trkpt><trkpt lat="44.6933485" lon="10.353398"><ele>135.0</ele><time>2026-04-04T18:33:52.789Z</time></trkpt><trkpt lat="44.6934969" lon="10.3534111"><ele>135.0</ele><time>2026-04-04T18:33:53.784Z</time></trkpt><trkpt lat="44.6936084" lon="10.3534189"><ele>135.0</ele><time>2026-04-04T18:33:54.793Z</time></trkpt><trkpt lat="44.6936986" lon="10.3534256"><ele>135.0</ele><time>2026-04-04T18:33:55.781Z</time></trkpt><trkpt lat="44.6937605" lon="10.3534538"><ele>135.0</ele><time>2026-04-04T18:33:56.791Z</time></trkpt><trkpt lat="44.6937694" lon="10.3536146"><ele>135.0</ele><time>2026-04-04T18:33:58.791Z</time></trkpt><trkpt lat="44.6937323" lon="10.3537508"><ele>135.0</ele><time>2026-04-04T18:33:59.785Z</time></trkpt><trkpt lat="44.6936794" lon="10.3539244"><ele>135.0</ele><time>2026-04-04T18:34:00.8Z</time></trkpt><trkpt lat="44.6936384" lon="10.3541373"><ele>135.0</ele><time>2026-04-04T18:34:01.784Z</time></trkpt><trkpt lat="44.6935881" lon="10.3544014"><ele>135.0</ele><time>2026-04-04T18:34:02.791Z</time></trkpt><trkpt lat="44.6935115" lon="10.3547554"><ele>135.0</ele><time>2026-04-04T18:34:03.779Z</time></trkpt><trkpt lat="44.6934218" lon="10.3551669"><ele>135.0</ele><time>2026-04-04T18:34:04.788Z</time></trkpt><trkpt lat="44.6933361" lon="10.3555618"><ele>135.0</ele><time>2026-04-04T18:34:05.786Z</time></trkpt><trkpt lat="44.6932582" lon="10.3558846"><ele>135.0</ele><time>2026-04-04T18:34:06.79Z</time></trkpt><trkpt lat="44.6931877" lon="10.3561829"><ele>134.33333333333334</ele><time>2026-04-04T18:34:07.79Z</time></trkpt><trkpt lat="44.6931095" lon="10.3564921"><ele>133.66666666666669</ele><time>2026-04-04T18:34:08.776Z</time></trkpt><trkpt lat="44.693023" lon="10.3567574"><ele>133.0</ele><time>2026-04-04T18:34:09.785Z</time></trkpt><trkpt lat="44.6929664" lon="10.3569644"><ele>133.0</ele><time>2026-04-04T18:34:10.793Z</time></trkpt><trkpt lat="44.6929081" lon="10.3571396"><ele>133.0</ele><time>2026-04-04T18:34:11.78Z</time></trkpt><trkpt lat="44.6928616" lon="10.3572983"><ele>133.0</ele><time>2026-04-04T18:34:12.784Z</time></trkpt><trkpt lat="44.6928324" lon="10.3574338"><ele>133.0</ele><time>2026-04-04T18:34:13.793Z</time></trkpt><trkpt lat="44.6928979" lon="10.3575778"><ele>133.25</ele><time>2026-04-04T18:34:15.789Z</time></trkpt><trkpt lat="44.6930131" lon="10.3576028"><ele>133.5</ele><time>2026-04-04T18:34:16.794Z</time></trkpt><trkpt lat="44.693154" lon="10.3576416"><ele>133.75</ele><time>2026-04-04T18:34:17.791Z</time></trkpt><trkpt lat="44.6933171" lon="10.3576942"><ele>134.0</ele><time>2026-04-04T18:34:18.789Z</time></trkpt><trkpt lat="44.693502" lon="10.3577556"><ele>134.5</ele><time>2026-04-04T18:34:19.785Z</time></trkpt><trkpt lat="44.693714" lon="10.3578599"><ele>135.0</ele><time>2026-04-04T18:34:20.79Z</time></trkpt><trkpt lat="44.6939989" lon="10.3579766"><ele>134.0</ele><time>2026-04-04T18:34:21.772Z</time></trkpt><trkpt lat="44.6942744" lon="10.3580854"><ele>133.0</ele><time>2026-04-04T18:34:22.773Z</time></trkpt><trkpt lat="44.6945076" lon="10.3581879"><ele>133.0</ele><time>2026-04-04T18:34:23.773Z</time></trkpt><trkpt lat="44.6947156" lon="10.3582767"><ele>133.0</ele><time>2026-04-04T18:34:24.777Z</time></trkpt><trkpt lat="44.6949139" lon="10.3583606"><ele>133.0</ele><time>2026-04-04T18:34:25.781Z</time></trkpt><trkpt lat="44.6950873" lon="10.3584437"><ele>133.0</ele><time>2026-04-04T18:34:26.773Z</time></trkpt><trkpt lat="44.6952499" lon="10.3585231"><ele>133.0</ele><time>2026-04-04T18:34:27.796Z</time></trkpt><trkpt lat="44.6954109" lon="10.3585966"><ele>133.0</ele><time>2026-04-04T18:34:28.783Z</time></trkpt><trkpt lat="44.6955572" lon="10.3586578"><ele>133.0</ele><time>2026-04-04T18:34:29.784Z</time></trkpt><trkpt lat="44.6956811" lon="10.3587109"><ele>133.0</ele><time>2026-04-04T18:34:30.795Z</time></trkpt><trkpt lat="44.6957723" lon="10.3587445"><ele>133.0</ele><time>2026-04-04T18:34:31.791Z</time></trkpt><trkpt lat="44.6958532" lon="10.3588008"><ele>133.0</ele><time>2026-04-04T18:34:33.782Z</time></trkpt><trkpt lat="44.6958355" lon="10.3589346"><ele>133.0</ele><time>2026-04-04T18:34:35.79Z</time></trkpt><trkpt lat="44.6958013" lon="10.3590467"><ele>133.0</ele><time>2026-04-04T18:34:36.785Z</time></trkpt><trkpt lat="44.6957557" lon="10.3591969"><ele>133.0</ele><time>2026-04-04T18:34:37.792Z</time></trkpt><trkpt lat="44.6957154" lon="10.359372"><ele>133.0</ele><time>2026-04-04T18:34:38.778Z</time></trkpt><trkpt lat="44.6956684" lon="10.3595784"><ele>133.0</ele><time>2026-04-04T18:34:39.789Z</time></trkpt><trkpt lat="44.6956178" lon="10.3598098"><ele>132.33333333333334</ele><time>2026-04-04T18:34:40.783Z</time></trkpt><trkpt lat="44.695559" lon="10.3600984"><ele>131.66666666666666</ele><time>2026-04-04T18:34:41.774Z</time></trkpt><trkpt lat="44.6954974" lon="10.3603975"><ele>131.0</ele><time>2026-04-04T18:34:42.781Z</time></trkpt><trkpt lat="44.6954269" lon="10.3607025"><ele>131.0</ele><time>2026-04-04T18:34:43.786Z</time></trkpt><trkpt lat="44.6953581" lon="10.3610239"><ele>131.0</ele><time>2026-04-04T18:34:44.788Z</time></trkpt><trkpt lat="44.6952954" lon="10.3613383"><ele>131.0</ele><time>2026-04-04T18:34:45.794Z</time></trkpt><trkpt lat="44.6952395" lon="10.3616549"><ele>131.0</ele><time>2026-04-04T18:34:46.796Z</time></trkpt><trkpt lat="44.6951837" lon="10.3619854"><ele>130.5</ele><time>2026-04-04T18:34:47.789Z</time></trkpt><trkpt lat="44.6951268" lon="10.3623646"><ele>130.0</ele><time>2026-04-04T18:34:48.801Z</time></trkpt><trkpt lat="44.6950585" lon="10.3628281"><ele>130.0</ele><time>2026-04-04T18:34:49.796Z</time></trkpt><trkpt lat="44.6949742" lon="10.3633175"><ele>130.0</ele><time>2026-04-04T18:34:50.795Z</time></trkpt><trkpt lat="44.6948997" lon="10.3637956"><ele>130.0</ele><time>2026-04-04T18:34:51.796Z</time></trkpt><trkpt lat="44.6948352" lon="10.3642339"><ele>130.0</ele><time>2026-04-04T18:34:52.795Z</time></trkpt><trkpt lat="44.6947618" lon="10.3646528"><ele>128.0</ele><time>2026-04-04T18:34:53.789Z</time></trkpt><trkpt lat="44.6946906" lon="10.3650567"><ele>126.0</ele><time>2026-04-04T18:34:54.788Z</time></trkpt><trkpt lat="44.694624" lon="10.3654563"><ele>125.0</ele><time>2026-04-04T18:34:55.795Z</time></trkpt><trkpt lat="44.6945572" lon="10.3658433"><ele>124.0</ele><time>2026-04-04T18:34:56.786Z</time></trkpt><trkpt lat="44.6944958" lon="10.366243"><ele>124.0</ele><time>2026-04-04T18:34:57.793Z</time></trkpt><trkpt lat="44.6944288" lon="10.3666433"><ele>124.0</ele><time>2026-04-04T18:34:58.799Z</time></trkpt><trkpt lat="44.694362" lon="10.3670427"><ele>126.5</ele><time>2026-04-04T18:34:59.798Z</time></trkpt><trkpt lat="44.694282" lon="10.3674409"><ele>129.0</ele><time>2026-04-04T18:35:00.812Z</time></trkpt><trkpt lat="44.694192" lon="10.367836"><ele>130.0</ele><time>2026-04-04T18:35:01.792Z</time></trkpt><trkpt lat="44.6941048" lon="10.3682344"><ele>131.0</ele><time>2026-04-04T18:35:02.794Z</time></trkpt><trkpt lat="44.6940195" lon="10.3686358"><ele>129.0</ele><time>2026-04-04T18:35:03.795Z</time></trkpt><trkpt lat="44.6939386" lon="10.3690198"><ele>127.0</ele><time>2026-04-04T18:35:04.789Z</time></trkpt><trkpt lat="44.693867" lon="10.3693779"><ele>125.0</ele><time>2026-04-04T18:35:05.79Z</time></trkpt><trkpt lat="44.693794" lon="10.3697216"><ele>123.0</ele><time>2026-04-04T18:35:06.805Z</time></trkpt><trkpt lat="44.6937224" lon="10.3700425"><ele>123.0</ele><time>2026-04-04T18:35:07.8Z</time></trkpt><trkpt lat="44.6936533" lon="10.3703501"><ele>123.0</ele><time>2026-04-04T18:35:08.79Z</time></trkpt><trkpt lat="44.6935855" lon="10.370643"><ele>123.0</ele><time>2026-04-04T18:35:09.8Z</time></trkpt><trkpt lat="44.6935182" lon="10.3709354"><ele>123.0</ele><time>2026-04-04T18:35:10.801Z</time></trkpt><trkpt lat="44.693462" lon="10.3712171"><ele>123.0</ele><time>2026-04-04T18:35:11.795Z</time></trkpt><trkpt lat="44.6934033" lon="10.3714925"><ele>123.0</ele><time>2026-04-04T18:35:12.798Z</time></trkpt><trkpt lat="44.6933461" lon="10.3717685"><ele>123.33333333333334</ele><time>2026-04-04T18:35:13.794Z</time></trkpt><trkpt lat="44.6932909" lon="10.3720292"><ele>123.66666666666667</ele><time>2026-04-04T18:35:14.798Z</time></trkpt><trkpt lat="44.6932426" lon="10.3722732"><ele>124.0</ele><time>2026-04-04T18:35:15.781Z</time></trkpt><trkpt lat="44.6931961" lon="10.3724977"><ele>124.5</ele><time>2026-04-04T18:35:16.794Z</time></trkpt><trkpt lat="44.69315" lon="10.3726973"><ele>125.0</ele><time>2026-04-04T18:35:17.791Z</time></trkpt><trkpt lat="44.6931055" lon="10.3728777"><ele>125.5</ele><time>2026-04-04T18:35:18.794Z</time></trkpt><trkpt lat="44.6930737" lon="10.373032"><ele>126.0</ele><time>2026-04-04T18:35:19.799Z</time></trkpt><trkpt lat="44.6930498" lon="10.373146"><ele>126.16666666666667</ele><time>2026-04-04T18:35:20.807Z</time></trkpt><trkpt lat="44.6930214" lon="10.3732318"><ele>126.33333333333334</ele><time>2026-04-04T18:35:27.796Z</time></trkpt><trkpt lat="44.6929729" lon="10.3733208"><ele>126.5</ele><time>2026-04-04T18:35:29.794Z</time></trkpt><trkpt lat="44.6929143" lon="10.373436"><ele>126.66666666666667</ele><time>2026-04-04T18:35:31.779Z</time></trkpt><trkpt lat="44.692945" lon="10.3735828"><ele>126.83333333333334</ele><time>2026-04-04T18:35:33.771Z</time></trkpt><trkpt lat="44.6930027" lon="10.3736311"><ele>127.0</ele><time>2026-04-04T18:35:34.777Z</time></trkpt><trkpt lat="44.6930766" lon="10.3736587"><ele>127.0</ele><time>2026-04-04T18:35:35.766Z</time></trkpt><trkpt lat="44.6931626" lon="10.3736954"><ele>126.99999999999999</ele><time>2026-04-04T18:35:36.781Z</time></trkpt><trkpt lat="44.6932409" lon="10.3737522"><ele>126.99999999999999</ele><time>2026-04-04T18:35:37.777Z</time></trkpt><trkpt lat="44.6933131" lon="10.3738312"><ele>127.0</ele><time>2026-04-04T18:35:38.795Z</time></trkpt><trkpt lat="44.6933816" lon="10.3739374"><ele>127.0</ele><time>2026-04-04T18:35:39.792Z</time></trkpt><trkpt lat="44.6934391" lon="10.3740447"><ele>126.83333333333334</ele><time>2026-04-04T18:35:40.795Z</time></trkpt><trkpt lat="44.6934879" lon="10.3741395"><ele>126.66666666666667</ele><time>2026-04-04T18:35:41.778Z</time></trkpt><trkpt lat="44.6935314" lon="10.3742234"><ele>126.5</ele><time>2026-04-04T18:35:42.79Z</time></trkpt><trkpt lat="44.6936034" lon="10.3743509"><ele>126.33333333333334</ele><time>2026-04-04T18:35:44.785Z</time></trkpt><trkpt lat="44.6936709" lon="10.3744604"><ele>126.16666666666667</ele><time>2026-04-04T18:35:46.791Z</time></trkpt><trkpt lat="44.6937139" lon="10.3745301"><ele>126.0</ele><time>2026-04-04T18:35:47.791Z</time></trkpt><trkpt lat="44.6937661" lon="10.3746121"><ele>126.8</ele><time>2026-04-04T18:35:48.788Z</time></trkpt><trkpt lat="44.6938279" lon="10.3747034"><ele>127.6</ele><time>2026-04-04T18:35:49.787Z</time></trkpt><trkpt lat="44.693896" lon="10.374807"><ele>128.4</ele><time>2026-04-04T18:35:50.79Z</time></trkpt><trkpt lat="44.6939662" lon="10.3749204"><ele>129.2</ele><time>2026-04-04T18:35:51.797Z</time></trkpt><trkpt lat="44.694032" lon="10.3750388"><ele>130.0</ele><time>2026-04-04T18:35:52.793Z</time></trkpt><trkpt lat="44.6940993" lon="10.3751746"><ele>130.0</ele><time>2026-04-04T18:35:53.801Z</time></trkpt><trkpt lat="44.6941733" lon="10.3753423"><ele>130.0</ele><time>2026-04-04T18:35:54.792Z</time></trkpt><trkpt lat="44.6942549" lon="10.3755535"><ele>130.0</ele><time>2026-04-04T18:35:55.791Z</time></trkpt><trkpt lat="44.6943346" lon="10.3758126"><ele>130.33333333333334</ele><time>2026-04-04T18:35:56.794Z</time></trkpt><trkpt lat="44.6943963" lon="10.3761009"><ele>130.66666666666666</ele><time>2026-04-04T18:35:57.808Z</time></trkpt><trkpt lat="44.694473" lon="10.3763955"><ele>131.0</ele><time>2026-04-04T18:35:58.793Z</time></trkpt><trkpt lat="44.6945549" lon="10.3766676"><ele>131.0</ele><time>2026-04-04T18:35:59.783Z</time></trkpt><trkpt lat="44.6946239" lon="10.3769058"><ele>131.0</ele><time>2026-04-04T18:36:00.804Z</time></trkpt><trkpt lat="44.6946942" lon="10.3771258"><ele>131.0</ele><time>2026-04-04T18:36:01.785Z</time></trkpt><trkpt lat="44.694782" lon="10.3773198"><ele>131.33333333333331</ele><time>2026-04-04T18:36:02.792Z</time></trkpt><trkpt lat="44.6949182" lon="10.3774654"><ele>131.66666666666666</ele><time>2026-04-04T18:36:03.793Z</time></trkpt><trkpt lat="44.6950975" lon="10.3775747"><ele>132.0</ele><time>2026-04-04T18:36:04.777Z</time></trkpt><trkpt lat="44.6952906" lon="10.3776933"><ele>132.0</ele><time>2026-04-04T18:36:05.78Z</time></trkpt><trkpt lat="44.6954876" lon="10.377822"><ele>132.0</ele><time>2026-04-04T18:36:06.772Z</time></trkpt><trkpt lat="44.695705" lon="10.3779666"><ele>132.0</ele><time>2026-04-04T18:36:07.784Z</time></trkpt><trkpt lat="44.6959357" lon="10.3781153"><ele>132.0</ele><time>2026-04-04T18:36:08.772Z</time></trkpt><trkpt lat="44.696172" lon="10.3782662"><ele>130.0</ele><time>2026-04-04T18:36:09.788Z</time></trkpt><trkpt lat="44.6963886" lon="10.3784142"><ele>128.0</ele><time>2026-04-04T18:36:10.784Z</time></trkpt><trkpt lat="44.6965917" lon="10.3785512"><ele>128.0</ele><time>2026-04-04T18:36:11.788Z</time></trkpt><trkpt lat="44.6967807" lon="10.378679"><ele>128.0</ele><time>2026-04-04T18:36:12.783Z</time></trkpt><trkpt lat="44.6969689" lon="10.3788007"><ele>128.0</ele><time>2026-04-04T18:36:13.8Z</time></trkpt><trkpt lat="44.6971499" lon="10.3789199"><ele>128.33333333333331</ele><time>2026-04-04T18:36:14.794Z</time></trkpt><trkpt lat="44.697337" lon="10.379043"><ele>128.66666666666666</ele><time>2026-04-04T18:36:15.809Z</time></trkpt><trkpt lat="44.6975224" lon="10.3791596"><ele>129.0</ele><time>2026-04-04T18:36:16.796Z</time></trkpt><trkpt lat="44.6976928" lon="10.3792589"><ele>129.0</ele><time>2026-04-04T18:36:17.803Z</time></trkpt><trkpt lat="44.6978488" lon="10.3793574"><ele>129.0</ele><time>2026-04-04T18:36:18.793Z</time></trkpt><trkpt lat="44.6979882" lon="10.3794488"><ele>129.0</ele><time>2026-04-04T18:36:19.803Z</time></trkpt><trkpt lat="44.6981067" lon="10.3795512"><ele>129.0</ele><time>2026-04-04T18:36:20.794Z</time></trkpt><trkpt lat="44.6982009" lon="10.3796722"><ele>129.0</ele><time>2026-04-04T18:36:21.797Z</time></trkpt><trkpt lat="44.6982618" lon="10.3798249"><ele>129.0</ele><time>2026-04-04T18:36:22.796Z</time></trkpt><trkpt lat="44.6982849" lon="10.3800056"><ele>129.0</ele><time>2026-04-04T18:36:23.801Z</time></trkpt><trkpt lat="44.6982554" lon="10.3801998"><ele>128.33333333333334</ele><time>2026-04-04T18:36:24.784Z</time></trkpt><trkpt lat="44.6981957" lon="10.3804055"><ele>127.66666666666667</ele><time>2026-04-04T18:36:25.795Z</time></trkpt><trkpt lat="44.6981396" lon="10.3806228"><ele>127.0</ele><time>2026-04-04T18:36:26.799Z</time></trkpt><trkpt lat="44.6980832" lon="10.3808759"><ele>126.66666666666667</ele><time>2026-04-04T18:36:27.795Z</time></trkpt><trkpt lat="44.6980254" lon="10.3811411"><ele>126.33333333333334</ele><time>2026-04-04T18:36:28.795Z</time></trkpt><trkpt lat="44.697976" lon="10.381363"><ele>126.0</ele><time>2026-04-04T18:36:29.792Z</time></trkpt><trkpt lat="44.6979257" lon="10.3815654"><ele>126.0</ele><time>2026-04-04T18:36:30.811Z</time></trkpt><trkpt lat="44.6978829" lon="10.381745"><ele>126.0</ele><time>2026-04-04T18:36:31.799Z</time></trkpt><trkpt lat="44.697843" lon="10.3819114"><ele>126.0</ele><time>2026-04-04T18:36:32.8Z</time></trkpt><trkpt lat="44.6978116" lon="10.3820742"><ele>126.0</ele><time>2026-04-04T18:36:33.803Z</time></trkpt><trkpt lat="44.6977822" lon="10.3822315"><ele>126.0</ele><time>2026-04-04T18:36:34.8Z</time></trkpt><trkpt lat="44.697754" lon="10.3823774"><ele>126.0</ele><time>2026-04-04T18:36:35.798Z</time></trkpt><trkpt lat="44.6977268" lon="10.3825129"><ele>126.0</ele><time>2026-04-04T18:36:36.798Z</time></trkpt><trkpt lat="44.6976944" lon="10.3826586"><ele>126.0</ele><time>2026-04-04T18:36:37.796Z</time></trkpt><trkpt lat="44.6976587" lon="10.3828192"><ele>126.0</ele><time>2026-04-04T18:36:38.805Z</time></trkpt><trkpt lat="44.6976295" lon="10.3829663"><ele>125.8</ele><time>2026-04-04T18:36:39.792Z</time></trkpt><trkpt lat="44.6976016" lon="10.3831006"><ele>125.6</ele><time>2026-04-04T18:36:40.799Z</time></trkpt><trkpt lat="44.6975763" lon="10.3832268"><ele>125.4</ele><time>2026-04-04T18:36:41.799Z</time></trkpt><trkpt lat="44.6975496" lon="10.3833522"><ele>125.2</ele><time>2026-04-04T18:36:42.8Z</time></trkpt><trkpt lat="44.6975204" lon="10.3834932"><ele>125.0</ele><time>2026-04-04T18:36:43.8Z</time></trkpt><trkpt lat="44.6974859" lon="10.3836518"><ele>125.0</ele><time>2026-04-04T18:36:44.8Z</time></trkpt><trkpt lat="44.6974435" lon="10.383843"><ele>125.0</ele><time>2026-04-04T18:36:45.797Z</time></trkpt><trkpt lat="44.6973947" lon="10.3840815"><ele>125.0</ele><time>2026-04-04T18:36:46.8Z</time></trkpt><trkpt lat="44.6973301" lon="10.3843811"><ele>125.5</ele><time>2026-04-04T18:36:47.802Z</time></trkpt><trkpt lat="44.6972596" lon="10.3846856"><ele>126.0</ele><time>2026-04-04T18:36:48.797Z</time></trkpt><trkpt lat="44.6971867" lon="10.3850119"><ele>126.0</ele><time>2026-04-04T18:36:49.789Z</time></trkpt><trkpt lat="44.6971177" lon="10.3853434"><ele>126.0</ele><time>2026-04-04T18:36:50.804Z</time></trkpt><trkpt lat="44.697047" lon="10.3856488"><ele>126.0</ele><time>2026-04-04T18:36:51.788Z</time></trkpt><trkpt lat="44.696984" lon="10.3859388"><ele>126.0</ele><time>2026-04-04T18:36:52.81Z</time></trkpt><trkpt lat="44.6969205" lon="10.3862267"><ele>126.0</ele><time>2026-04-04T18:36:53.799Z</time></trkpt><trkpt lat="44.6968602" lon="10.3865195"><ele>125.66666666666666</ele><time>2026-04-04T18:36:54.797Z</time></trkpt><trkpt lat="44.6968078" lon="10.38681"><ele>125.33333333333333</ele><time>2026-04-04T18:36:55.8Z</time></trkpt><trkpt lat="44.6967702" lon="10.3871055"><ele>125.0</ele><time>2026-04-04T18:36:56.799Z</time></trkpt><trkpt lat="44.6967728" lon="10.387414"><ele>124.5</ele><time>2026-04-04T18:36:57.805Z</time></trkpt><trkpt lat="44.6967979" lon="10.3877258"><ele>124.0</ele><time>2026-04-04T18:36:58.797Z</time></trkpt><trkpt lat="44.6968495" lon="10.3880484"><ele>123.5</ele><time>2026-04-04T18:36:59.797Z</time></trkpt><trkpt lat="44.6969076" lon="10.3883661"><ele>123.0</ele><time>2026-04-04T18:37:00.807Z</time></trkpt><trkpt lat="44.696969" lon="10.3886978"><ele>123.0</ele><time>2026-04-04T18:37:01.796Z</time></trkpt><trkpt lat="44.6970383" lon="10.3890375"><ele>123.0</ele><time>2026-04-04T18:37:02.8Z</time></trkpt><trkpt lat="44.697099" lon="10.3893822"><ele>124.0</ele><time>2026-04-04T18:37:03.795Z</time></trkpt><trkpt lat="44.6971589" lon="10.3897303"><ele>125.0</ele><time>2026-04-04T18:37:04.8Z</time></trkpt><trkpt lat="44.6972172" lon="10.3900669"><ele>125.0</ele><time>2026-04-04T18:37:05.791Z</time></trkpt><trkpt lat="44.6972689" lon="10.3903807"><ele>125.0</ele><time>2026-04-04T18:37:06.796Z</time></trkpt><trkpt lat="44.6973159" lon="10.3906763"><ele>125.0</ele><time>2026-04-04T18:37:07.794Z</time></trkpt><trkpt lat="44.6973808" lon="10.390961"><ele>124.66666666666666</ele><time>2026-04-04T18:37:08.794Z</time></trkpt><trkpt lat="44.6974636" lon="10.3912387"><ele>124.33333333333334</ele><time>2026-04-04T18:37:09.796Z</time></trkpt><trkpt lat="44.6975825" lon="10.3915015"><ele>124.0</ele><time>2026-04-04T18:37:10.797Z</time></trkpt><trkpt lat="44.6977357" lon="10.3917347"><ele>123.0</ele><time>2026-04-04T18:37:11.797Z</time></trkpt><trkpt lat="44.6979158" lon="10.3919372"><ele>122.0</ele><time>2026-04-04T18:37:12.791Z</time></trkpt><trkpt lat="44.6981045" lon="10.3921379"><ele>122.5</ele><time>2026-04-04T18:37:13.801Z</time></trkpt><trkpt lat="44.6982993" lon="10.3923447"><ele>123.0</ele><time>2026-04-04T18:37:14.793Z</time></trkpt><trkpt lat="44.6985008" lon="10.3925543"><ele>122.0</ele><time>2026-04-04T18:37:15.805Z</time></trkpt><trkpt lat="44.6987034" lon="10.3927706"><ele>121.0</ele><time>2026-04-04T18:37:16.797Z</time></trkpt><trkpt lat="44.6989061" lon="10.3929906"><ele>121.0</ele><time>2026-04-04T18:37:17.809Z</time></trkpt><trkpt lat="44.6991121" lon="10.3932142"><ele>121.0</ele><time>2026-04-04T18:37:18.807Z</time></trkpt><trkpt lat="44.6993216" lon="10.3934388"><ele>120.5</ele><time>2026-04-04T18:37:19.803Z</time></trkpt><trkpt lat="44.6995341" lon="10.3936693"><ele>120.0</ele><time>2026-04-04T18:37:20.798Z</time></trkpt><trkpt lat="44.699749" lon="10.3939022"><ele>120.0</ele><time>2026-04-04T18:37:21.8Z</time></trkpt><trkpt lat="44.6999646" lon="10.394136"><ele>120.0</ele><time>2026-04-04T18:37:22.802Z</time></trkpt><trkpt lat="44.7001811" lon="10.3943702"><ele>119.5</ele><time>2026-04-04T18:37:23.801Z</time></trkpt><trkpt lat="44.700399" lon="10.3946087"><ele>119.0</ele><time>2026-04-04T18:37:24.808Z</time></trkpt><trkpt lat="44.7006193" lon="10.3948472"><ele>119.0</ele><time>2026-04-04T18:37:25.804Z</time></trkpt><trkpt lat="44.700841" lon="10.3950858"><ele>119.0</ele><time>2026-04-04T18:37:26.807Z</time></trkpt><trkpt lat="44.7010668" lon="10.39533"><ele>120.0</ele><time>2026-04-04T18:37:27.815Z</time></trkpt><trkpt lat="44.7012878" lon="10.3955701"><ele>121.0</ele><time>2026-04-04T18:37:28.795Z</time></trkpt><trkpt lat="44.7015126" lon="10.3958082"><ele>121.0</ele><time>2026-04-04T18:37:29.793Z</time></trkpt><trkpt lat="44.7017373" lon="10.3960515"><ele>121.0</ele><time>2026-04-04T18:37:30.806Z</time></trkpt><trkpt lat="44.7019659" lon="10.3963"><ele>120.5</ele><time>2026-04-04T18:37:31.795Z</time></trkpt><trkpt lat="44.7021901" lon="10.3965478"><ele>120.0</ele><time>2026-04-04T18:37:32.79Z</time></trkpt><trkpt lat="44.7024193" lon="10.3967963"><ele>120.0</ele><time>2026-04-04T18:37:33.799Z</time></trkpt><trkpt lat="44.7026465" lon="10.3970478"><ele>120.0</ele><time>2026-04-04T18:37:34.787Z</time></trkpt><trkpt lat="44.7028742" lon="10.3972968"><ele>120.0</ele><time>2026-04-04T18:37:35.803Z</time></trkpt><trkpt lat="44.7030943" lon="10.397536"><ele>120.0</ele><time>2026-04-04T18:37:36.791Z</time></trkpt><trkpt lat="44.7033064" lon="10.3977708"><ele>120.0</ele><time>2026-04-04T18:37:37.794Z</time></trkpt><trkpt lat="44.7035093" lon="10.3980001"><ele>120.0</ele><time>2026-04-04T18:37:38.785Z</time></trkpt><trkpt lat="44.7037108" lon="10.3982241"><ele>119.0</ele><time>2026-04-04T18:37:39.794Z</time></trkpt><trkpt lat="44.7039142" lon="10.3984505"><ele>118.0</ele><time>2026-04-04T18:37:40.795Z</time></trkpt><trkpt lat="44.7041164" lon="10.3986691"><ele>118.0</ele><time>2026-04-04T18:37:41.795Z</time></trkpt><trkpt lat="44.7043104" lon="10.398886"><ele>118.0</ele><time>2026-04-04T18:37:42.789Z</time></trkpt><trkpt lat="44.7044915" lon="10.3990928"><ele>118.0</ele><time>2026-04-04T18:37:43.791Z</time></trkpt><trkpt lat="44.7046598" lon="10.3992859"><ele>118.0</ele><time>2026-04-04T18:37:44.805Z</time></trkpt><trkpt lat="44.7048252" lon="10.3994728"><ele>118.0</ele><time>2026-04-04T18:37:45.807Z</time></trkpt><trkpt lat="44.704985" lon="10.399659"><ele>117.66666666666667</ele><time>2026-04-04T18:37:46.796Z</time></trkpt><trkpt lat="44.7051254" lon="10.3998312"><ele>117.33333333333334</ele><time>2026-04-04T18:37:47.799Z</time></trkpt><trkpt lat="44.7052512" lon="10.3999925"><ele>117.0</ele><time>2026-04-04T18:37:48.791Z</time></trkpt><trkpt lat="44.7053578" lon="10.40017"><ele>116.66666666666666</ele><time>2026-04-04T18:37:49.81Z</time></trkpt><trkpt lat="44.7054563" lon="10.4003917"><ele>116.33333333333333</ele><time>2026-04-04T18:37:50.789Z</time></trkpt><trkpt lat="44.7055249" lon="10.4006415"><ele>116.0</ele><time>2026-04-04T18:37:51.799Z</time></trkpt><trkpt lat="44.7055946" lon="10.4008852"><ele>116.0</ele><time>2026-04-04T18:37:52.793Z</time></trkpt><trkpt lat="44.7056853" lon="10.4011159"><ele>116.0</ele><time>2026-04-04T18:37:53.798Z</time></trkpt><trkpt lat="44.7057844" lon="10.4013411"><ele>116.0</ele><time>2026-04-04T18:37:54.795Z</time></trkpt><trkpt lat="44.7058774" lon="10.401561"><ele>116.33333333333333</ele><time>2026-04-04T18:37:55.8Z</time></trkpt><trkpt lat="44.7059661" lon="10.4017651"><ele>116.66666666666666</ele><time>2026-04-04T18:37:56.792Z</time></trkpt><trkpt lat="44.7060487" lon="10.4019604"><ele>117.0</ele><time>2026-04-04T18:37:57.803Z</time></trkpt><trkpt lat="44.7061257" lon="10.4021456"><ele>117.25</ele><time>2026-04-04T18:37:58.789Z</time></trkpt><trkpt lat="44.7062012" lon="10.4023262"><ele>117.5</ele><time>2026-04-04T18:37:59.795Z</time></trkpt><trkpt lat="44.7062687" lon="10.402508"><ele>117.75</ele><time>2026-04-04T18:38:00.79Z</time></trkpt><trkpt lat="44.7063026" lon="10.4026793"><ele>118.0</ele><time>2026-04-04T18:38:01.79Z</time></trkpt><trkpt lat="44.7062928" lon="10.4028637"><ele>117.33333333333334</ele><time>2026-04-04T18:38:02.806Z</time></trkpt><trkpt lat="44.7062447" lon="10.403047"><ele>116.66666666666666</ele><time>2026-04-04T18:38:03.776Z</time></trkpt><trkpt lat="44.7061594" lon="10.4032368"><ele>116.0</ele><time>2026-04-04T18:38:04.8Z</time></trkpt><trkpt lat="44.7060814" lon="10.4034247"><ele>116.0</ele><time>2026-04-04T18:38:05.779Z</time></trkpt><trkpt lat="44.7060226" lon="10.4036021"><ele>116.0</ele><time>2026-04-04T18:38:06.793Z</time></trkpt><trkpt lat="44.7059647" lon="10.4037426"><ele>116.0</ele><time>2026-04-04T18:38:07.787Z</time></trkpt><trkpt lat="44.7059393" lon="10.4038466"><ele>116.0</ele><time>2026-04-04T18:38:08.79Z</time></trkpt><trkpt lat="44.7059851" lon="10.403964"><ele>116.0</ele><time>2026-04-04T18:38:10.797Z</time></trkpt><trkpt lat="44.7060844" lon="10.4039804"><ele>116.0</ele><time>2026-04-04T18:38:11.79Z</time></trkpt><trkpt lat="44.7061995" lon="10.404008"><ele>116.0</ele><time>2026-04-04T18:38:12.787Z</time></trkpt><trkpt lat="44.7063257" lon="10.4040403"><ele>116.0</ele><time>2026-04-04T18:38:13.778Z</time></trkpt><trkpt lat="44.7064672" lon="10.4040733"><ele>116.0</ele><time>2026-04-04T18:38:14.785Z</time></trkpt><trkpt lat="44.7066182" lon="10.4041069"><ele>116.0</ele><time>2026-04-04T18:38:15.787Z</time></trkpt><trkpt lat="44.7067726" lon="10.4041413"><ele>116.0</ele><time>2026-04-04T18:38:16.785Z</time></trkpt><trkpt lat="44.7069325" lon="10.4041761"><ele>116.0</ele><time>2026-04-04T18:38:17.787Z</time></trkpt><trkpt lat="44.7070829" lon="10.404209"><ele>116.0</ele><time>2026-04-04T18:38:18.783Z</time></trkpt><trkpt lat="44.7072315" lon="10.4042416"><ele>116.0</ele><time>2026-04-04T18:38:19.785Z</time></trkpt><trkpt lat="44.7073576" lon="10.4042805"><ele>116.0</ele><time>2026-04-04T18:38:20.792Z</time></trkpt><trkpt lat="44.707478" lon="10.4043157"><ele>116.0</ele><time>2026-04-04T18:38:21.793Z</time></trkpt><trkpt lat="44.7075915" lon="10.4043404"><ele>116.0</ele><time>2026-04-04T18:38:22.781Z</time></trkpt><trkpt lat="44.7076951" lon="10.4043684"><ele>116.0</ele><time>2026-04-04T18:38:23.774Z</time></trkpt><trkpt lat="44.7077951" lon="10.4043917"><ele>116.0</ele><time>2026-04-04T18:38:24.788Z</time></trkpt><trkpt lat="44.707878" lon="10.4044105"><ele>116.0</ele><time>2026-04-04T18:38:25.778Z</time></trkpt><trkpt lat="44.7079891" lon="10.4044395"><ele>116.0</ele><time>2026-04-04T18:38:27.789Z</time></trkpt><trkpt lat="44.708054" lon="10.4044651"><ele>115.8</ele><time>2026-04-04T18:38:29.784Z</time></trkpt><trkpt lat="44.7081209" lon="10.4044883"><ele>115.6</ele><time>2026-04-04T18:38:51.791Z</time></trkpt><trkpt lat="44.7080814" lon="10.4046247"><ele>115.4</ele><time>2026-04-04T18:38:53.799Z</time></trkpt><trkpt lat="44.7079785" lon="10.4047608"><ele>115.2</ele><time>2026-04-04T18:38:54.786Z</time></trkpt><trkpt lat="44.7078904" lon="10.4048701"><ele>115.0</ele><time>2026-04-04T18:38:55.768Z</time></trkpt><trkpt lat="44.7078352" lon="10.4049886"><ele>114.8</ele><time>2026-04-04T18:38:56.779Z</time></trkpt><trkpt lat="44.707843" lon="10.405102"><ele>114.6</ele><time>2026-04-04T18:38:57.789Z</time></trkpt><trkpt lat="44.7079045" lon="10.4051833"><ele>114.4</ele><time>2026-04-04T18:38:58.781Z</time></trkpt><trkpt lat="44.7080125" lon="10.4052636"><ele>114.2</ele><time>2026-04-04T18:38:59.798Z</time></trkpt><trkpt lat="44.7081432" lon="10.4053458"><ele>114.0</ele><time>2026-04-04T18:39:00.802Z</time></trkpt><trkpt lat="44.7082948" lon="10.405439"><ele>114.0</ele><time>2026-04-04T18:39:01.785Z</time></trkpt><trkpt lat="44.708477" lon="10.4055706"><ele>114.0</ele><time>2026-04-04T18:39:02.782Z</time></trkpt><trkpt lat="44.7086638" lon="10.4057363"><ele>114.0</ele><time>2026-04-04T18:39:03.784Z</time></trkpt><trkpt lat="44.7088588" lon="10.4059627"><ele>113.0</ele><time>2026-04-04T18:39:04.798Z</time></trkpt><trkpt lat="44.709104" lon="10.4062468"><ele>112.0</ele><time>2026-04-04T18:39:05.793Z</time></trkpt><trkpt lat="44.7093699" lon="10.4065807"><ele>111.5</ele><time>2026-04-04T18:39:06.795Z</time></trkpt><trkpt lat="44.7096372" lon="10.4069005"><ele>111.0</ele><time>2026-04-04T18:39:07.785Z</time></trkpt><trkpt lat="44.7098826" lon="10.4071855"><ele>110.5</ele><time>2026-04-04T18:39:08.79Z</time></trkpt><trkpt lat="44.7101088" lon="10.4074459"><ele>110.0</ele><time>2026-04-04T18:39:09.788Z</time></trkpt><trkpt lat="44.7103395" lon="10.4076934"><ele>110.5</ele><time>2026-04-04T18:39:10.794Z</time></trkpt><trkpt lat="44.7105846" lon="10.4079127"><ele>111.0</ele><time>2026-04-04T18:39:11.791Z</time></trkpt><trkpt lat="44.7108425" lon="10.4081055"><ele>111.0</ele><time>2026-04-04T18:39:12.791Z</time></trkpt><trkpt lat="44.7110907" lon="10.4082847"><ele>111.0</ele><time>2026-04-04T18:39:13.787Z</time></trkpt><trkpt lat="44.7113219" lon="10.4084627"><ele>111.0</ele><time>2026-04-04T18:39:14.796Z</time></trkpt><trkpt lat="44.7115344" lon="10.4086668"><ele>111.0</ele><time>2026-04-04T18:39:15.799Z</time></trkpt><trkpt lat="44.7116879" lon="10.408902"><ele>110.66666666666666</ele><time>2026-04-04T18:39:16.803Z</time></trkpt><trkpt lat="44.7118123" lon="10.4091382"><ele>110.33333333333333</ele><time>2026-04-04T18:39:17.797Z</time></trkpt><trkpt lat="44.7119306" lon="10.4093542"><ele>110.0</ele><time>2026-04-04T18:39:18.803Z</time></trkpt><trkpt lat="44.7120328" lon="10.4095096"><ele>109.4</ele><time>2026-04-04T18:39:19.795Z</time></trkpt><trkpt lat="44.7121225" lon="10.4096094"><ele>108.8</ele><time>2026-04-04T18:39:20.793Z</time></trkpt><trkpt lat="44.712186" lon="10.4096502"><ele>108.19999999999999</ele><time>2026-04-04T18:39:21.783Z</time></trkpt><trkpt lat="44.7122512" lon="10.4095606"><ele>107.6</ele><time>2026-04-04T18:39:23.785Z</time></trkpt><trkpt lat="44.7122927" lon="10.4094064"><ele>107.0</ele><time>2026-04-04T18:39:25.789Z</time></trkpt><trkpt lat="44.7123168" lon="10.4093116"><ele>106.99999999999999</ele><time>2026-04-04T18:39:26.784Z</time></trkpt><trkpt lat="44.7123401" lon="10.4092038"><ele>107.0</ele><time>2026-04-04T18:39:27.801Z</time></trkpt><trkpt lat="44.7123654" lon="10.4090861"><ele>107.0</ele><time>2026-04-04T18:39:28.786Z</time></trkpt><trkpt lat="44.712395" lon="10.4089628"><ele>107.0</ele><time>2026-04-04T18:39:29.789Z</time></trkpt><trkpt lat="44.7124245" lon="10.4088435"><ele>106.99999999999999</ele><time>2026-04-04T18:39:30.801Z</time></trkpt><trkpt lat="44.7124531" lon="10.4087327"><ele>107.0</ele><time>2026-04-04T18:39:31.787Z</time></trkpt><trkpt lat="44.7124776" lon="10.4086302"><ele>106.99999999999999</ele><time>2026-04-04T18:39:32.787Z</time></trkpt><trkpt lat="44.7125027" lon="10.408536"><ele>107.0</ele><time>2026-04-04T18:39:33.801Z</time></trkpt><trkpt lat="44.7125684" lon="10.4084375"><ele>107.0</ele><time>2026-04-04T18:39:35.788Z</time></trkpt><trkpt lat="44.7126874" lon="10.4084868"><ele>107.0</ele><time>2026-04-04T18:39:37.794Z</time></trkpt><trkpt lat="44.7127606" lon="10.4085425"><ele>106.99999999999999</ele><time>2026-04-04T18:39:38.791Z</time></trkpt><trkpt lat="44.7128235" lon="10.4085859"><ele>107.0</ele><time>2026-04-04T18:39:39.793Z</time></trkpt><trkpt lat="44.7129059" lon="10.4086302"><ele>106.0</ele><time>2026-04-04T18:39:41.794Z</time></trkpt><trkpt lat="44.7129416" lon="10.4085334"><ele>106.0</ele><time>2026-04-04T18:39:48.79Z</time></trkpt></trkseg></trk></gpx>